<?xml version="1.0" encoding="UTF-8" standalone="no" ?>
<gpx xmlns="http://www.topografix.com/GPX/1/1" xmlns:xsi="http://www.w3.org/2001/XMLSchema-instance" xsi:schemaLocation="http://www.topografix.com/GPX/1/1 http://www.topografix.com/GPX/1/1/gpx.xsd" version="1.1" creator="VisuGPX - https://www.visugpx.com">
  <metadata>
    <name>BTTAlt800-ActivitéTerminée-PostCheck_J4etJ5</name>
  </metadata>
  <trk>
    <name><![CDATA[BTTAlt800-ActivitéTerminée-PostCheck_J4etJ5_1]]></name>
    <trkseg>
      <trkpt lat="46.03347" lon="4.42964">
        <ele>707.4</ele>
        <time>2025-10-04T09:57:02Z</time>
      </trkpt>
      <trkpt lat="46.03348" lon="4.4296">
        <ele>707</ele>
        <time>2025-10-04T09:57:03Z</time>
      </trkpt>
      <trkpt lat="46.03349" lon="4.42955">
        <ele>707</ele>
        <time>2025-10-04T09:57:04Z</time>
      </trkpt>
      <trkpt lat="46.03349" lon="4.42952">
        <ele>707</ele>
        <time>2025-10-04T09:57:05Z</time>
      </trkpt>
      <trkpt lat="46.03349" lon="4.42949">
        <ele>706.6</ele>
        <time>2025-10-04T09:57:06Z</time>
      </trkpt>
      <trkpt lat="46.03348" lon="4.42944">
        <ele>706.6</ele>
        <time>2025-10-04T09:57:07Z</time>
      </trkpt>
      <trkpt lat="46.03348" lon="4.42939">
        <ele>706.6</ele>
        <time>2025-10-04T09:57:08Z</time>
      </trkpt>
      <trkpt lat="46.03349" lon="4.42933">
        <ele>706.6</ele>
        <time>2025-10-04T09:57:09Z</time>
      </trkpt>
      <trkpt lat="46.0335" lon="4.42928">
        <ele>706.4</ele>
        <time>2025-10-04T09:57:10Z</time>
      </trkpt>
      <trkpt lat="46.03351" lon="4.42922">
        <ele>706.4</ele>
        <time>2025-10-04T09:57:11Z</time>
      </trkpt>
      <trkpt lat="46.03352" lon="4.42918">
        <ele>706.4</ele>
        <time>2025-10-04T09:57:12Z</time>
      </trkpt>
      <trkpt lat="46.03352" lon="4.42913">
        <ele>706.4</ele>
        <time>2025-10-04T09:57:13Z</time>
      </trkpt>
      <trkpt lat="46.03352" lon="4.42908">
        <ele>706.2</ele>
        <time>2025-10-04T09:57:14Z</time>
      </trkpt>
      <trkpt lat="46.03352" lon="4.42904">
        <ele>706.2</ele>
        <time>2025-10-04T09:57:15Z</time>
      </trkpt>
      <trkpt lat="46.03352" lon="4.42898">
        <ele>706</ele>
        <time>2025-10-04T09:57:16Z</time>
      </trkpt>
      <trkpt lat="46.0335" lon="4.42888">
        <ele>706</ele>
        <time>2025-10-04T09:57:17Z</time>
      </trkpt>
      <trkpt lat="46.03351" lon="4.42882">
        <ele>705.6</ele>
        <time>2025-10-04T09:57:18Z</time>
      </trkpt>
      <trkpt lat="46.03351" lon="4.42873">
        <ele>705.4</ele>
        <time>2025-10-04T09:57:19Z</time>
      </trkpt>
      <trkpt lat="46.03352" lon="4.42867">
        <ele>705.4</ele>
        <time>2025-10-04T09:57:20Z</time>
      </trkpt>
      <trkpt lat="46.03353" lon="4.42855">
        <ele>705</ele>
        <time>2025-10-04T09:57:21Z</time>
      </trkpt>
      <trkpt lat="46.03352" lon="4.42846">
        <ele>704.8</ele>
        <time>2025-10-04T09:57:22Z</time>
      </trkpt>
      <trkpt lat="46.03353" lon="4.42839">
        <ele>704.8</ele>
        <time>2025-10-04T09:57:23Z</time>
      </trkpt>
      <trkpt lat="46.03356" lon="4.42829">
        <ele>704.4</ele>
        <time>2025-10-04T09:57:24Z</time>
      </trkpt>
      <trkpt lat="46.03359" lon="4.4282">
        <ele>704.2</ele>
        <time>2025-10-04T09:57:25Z</time>
      </trkpt>
      <trkpt lat="46.0336" lon="4.42812">
        <ele>704.4</ele>
        <time>2025-10-04T09:57:26Z</time>
      </trkpt>
      <trkpt lat="46.03362" lon="4.42803">
        <ele>704.4</ele>
        <time>2025-10-04T09:57:27Z</time>
      </trkpt>
      <trkpt lat="46.03364" lon="4.42794">
        <ele>704.2</ele>
        <time>2025-10-04T09:57:28Z</time>
      </trkpt>
      <trkpt lat="46.03367" lon="4.42785">
        <ele>704.2</ele>
        <time>2025-10-04T09:57:29Z</time>
      </trkpt>
      <trkpt lat="46.03368" lon="4.42775">
        <ele>703.6</ele>
        <time>2025-10-04T09:57:30Z</time>
      </trkpt>
      <trkpt lat="46.03368" lon="4.42768">
        <ele>703.6</ele>
        <time>2025-10-04T09:57:31Z</time>
      </trkpt>
      <trkpt lat="46.03369" lon="4.42758">
        <ele>703.2</ele>
        <time>2025-10-04T09:57:32Z</time>
      </trkpt>
      <trkpt lat="46.0337" lon="4.42749">
        <ele>702.8</ele>
        <time>2025-10-04T09:57:33Z</time>
      </trkpt>
      <trkpt lat="46.03369" lon="4.42739">
        <ele>702.6</ele>
        <time>2025-10-04T09:57:34Z</time>
      </trkpt>
      <trkpt lat="46.03367" lon="4.4273">
        <ele>702.4</ele>
        <time>2025-10-04T09:57:35Z</time>
      </trkpt>
      <trkpt lat="46.03368" lon="4.42719">
        <ele>702.4</ele>
        <time>2025-10-04T09:57:36Z</time>
      </trkpt>
      <trkpt lat="46.03366" lon="4.42709">
        <ele>702</ele>
        <time>2025-10-04T09:57:37Z</time>
      </trkpt>
      <trkpt lat="46.03365" lon="4.42697">
        <ele>702</ele>
        <time>2025-10-04T09:57:38Z</time>
      </trkpt>
      <trkpt lat="46.03364" lon="4.42688">
        <ele>702</ele>
        <time>2025-10-04T09:57:39Z</time>
      </trkpt>
      <trkpt lat="46.03363" lon="4.42676">
        <ele>701.4</ele>
        <time>2025-10-04T09:57:40Z</time>
      </trkpt>
      <trkpt lat="46.03363" lon="4.42667">
        <ele>701</ele>
        <time>2025-10-04T09:57:41Z</time>
      </trkpt>
      <trkpt lat="46.03362" lon="4.42656">
        <ele>700.6</ele>
        <time>2025-10-04T09:57:42Z</time>
      </trkpt>
      <trkpt lat="46.03361" lon="4.42644">
        <ele>700.6</ele>
        <time>2025-10-04T09:57:43Z</time>
      </trkpt>
      <trkpt lat="46.03356" lon="4.42633">
        <ele>700.4</ele>
        <time>2025-10-04T09:57:44Z</time>
      </trkpt>
      <trkpt lat="46.03353" lon="4.42623">
        <ele>700.4</ele>
        <time>2025-10-04T09:57:45Z</time>
      </trkpt>
      <trkpt lat="46.03351" lon="4.4261">
        <ele>700</ele>
        <time>2025-10-04T09:57:46Z</time>
      </trkpt>
      <trkpt lat="46.03348" lon="4.42599">
        <ele>699.8</ele>
        <time>2025-10-04T09:57:47Z</time>
      </trkpt>
      <trkpt lat="46.03346" lon="4.4259">
        <ele>699.4</ele>
        <time>2025-10-04T09:57:48Z</time>
      </trkpt>
      <trkpt lat="46.03342" lon="4.42577">
        <ele>698.8</ele>
        <time>2025-10-04T09:57:49Z</time>
      </trkpt>
      <trkpt lat="46.03341" lon="4.42566">
        <ele>698.6</ele>
        <time>2025-10-04T09:57:50Z</time>
      </trkpt>
      <trkpt lat="46.03339" lon="4.42555">
        <ele>698.2</ele>
        <time>2025-10-04T09:57:51Z</time>
      </trkpt>
      <trkpt lat="46.03337" lon="4.42542">
        <ele>697.8</ele>
        <time>2025-10-04T09:57:52Z</time>
      </trkpt>
      <trkpt lat="46.03336" lon="4.42531">
        <ele>697.6</ele>
        <time>2025-10-04T09:57:53Z</time>
      </trkpt>
      <trkpt lat="46.03334" lon="4.42519">
        <ele>697.6</ele>
        <time>2025-10-04T09:57:54Z</time>
      </trkpt>
      <trkpt lat="46.03334" lon="4.42507">
        <ele>697.2</ele>
        <time>2025-10-04T09:57:55Z</time>
      </trkpt>
      <trkpt lat="46.03332" lon="4.42495">
        <ele>696.8</ele>
        <time>2025-10-04T09:57:56Z</time>
      </trkpt>
      <trkpt lat="46.03331" lon="4.42484">
        <ele>696.2</ele>
        <time>2025-10-04T09:57:57Z</time>
      </trkpt>
      <trkpt lat="46.0333" lon="4.42471">
        <ele>695.8</ele>
        <time>2025-10-04T09:57:58Z</time>
      </trkpt>
      <trkpt lat="46.03328" lon="4.42458">
        <ele>695.2</ele>
        <time>2025-10-04T09:57:59Z</time>
      </trkpt>
      <trkpt lat="46.03328" lon="4.42448">
        <ele>694.8</ele>
        <time>2025-10-04T09:58:00Z</time>
      </trkpt>
      <trkpt lat="46.03328" lon="4.4244">
        <ele>694.4</ele>
        <time>2025-10-04T09:58:01Z</time>
      </trkpt>
      <trkpt lat="46.03328" lon="4.42425">
        <ele>694</ele>
        <time>2025-10-04T09:58:02Z</time>
      </trkpt>
      <trkpt lat="46.03326" lon="4.42415">
        <ele>693.8</ele>
        <time>2025-10-04T09:58:03Z</time>
      </trkpt>
      <trkpt lat="46.03325" lon="4.42403">
        <ele>693.8</ele>
        <time>2025-10-04T09:58:04Z</time>
      </trkpt>
      <trkpt lat="46.03325" lon="4.42393">
        <ele>693.4</ele>
        <time>2025-10-04T09:58:05Z</time>
      </trkpt>
      <trkpt lat="46.03324" lon="4.42382">
        <ele>693.4</ele>
        <time>2025-10-04T09:58:06Z</time>
      </trkpt>
      <trkpt lat="46.03323" lon="4.42371">
        <ele>693</ele>
        <time>2025-10-04T09:58:07Z</time>
      </trkpt>
      <trkpt lat="46.03321" lon="4.4236">
        <ele>693</ele>
        <time>2025-10-04T09:58:08Z</time>
      </trkpt>
      <trkpt lat="46.03319" lon="4.42349">
        <ele>693</ele>
        <time>2025-10-04T09:58:09Z</time>
      </trkpt>
      <trkpt lat="46.03317" lon="4.42337">
        <ele>692.6</ele>
        <time>2025-10-04T09:58:10Z</time>
      </trkpt>
      <trkpt lat="46.03315" lon="4.42327">
        <ele>692.4</ele>
        <time>2025-10-04T09:58:11Z</time>
      </trkpt>
      <trkpt lat="46.03313" lon="4.42316">
        <ele>691.8</ele>
        <time>2025-10-04T09:58:12Z</time>
      </trkpt>
      <trkpt lat="46.03313" lon="4.42302">
        <ele>691.4</ele>
        <time>2025-10-04T09:58:13Z</time>
      </trkpt>
      <trkpt lat="46.03311" lon="4.42291">
        <ele>691.2</ele>
        <time>2025-10-04T09:58:14Z</time>
      </trkpt>
      <trkpt lat="46.0331" lon="4.42279">
        <ele>690.8</ele>
        <time>2025-10-04T09:58:15Z</time>
      </trkpt>
      <trkpt lat="46.03308" lon="4.42267">
        <ele>690.4</ele>
        <time>2025-10-04T09:58:16Z</time>
      </trkpt>
      <trkpt lat="46.03306" lon="4.42256">
        <ele>690</ele>
        <time>2025-10-04T09:58:17Z</time>
      </trkpt>
      <trkpt lat="46.03303" lon="4.42244">
        <ele>689.6</ele>
        <time>2025-10-04T09:58:18Z</time>
      </trkpt>
      <trkpt lat="46.03301" lon="4.42231">
        <ele>689.2</ele>
        <time>2025-10-04T09:58:19Z</time>
      </trkpt>
      <trkpt lat="46.033" lon="4.42221">
        <ele>688.6</ele>
        <time>2025-10-04T09:58:20Z</time>
      </trkpt>
      <trkpt lat="46.03298" lon="4.42209">
        <ele>688.2</ele>
        <time>2025-10-04T09:58:21Z</time>
      </trkpt>
      <trkpt lat="46.03295" lon="4.42201">
        <ele>687.8</ele>
        <time>2025-10-04T09:58:22Z</time>
      </trkpt>
      <trkpt lat="46.03293" lon="4.42188">
        <ele>687.4</ele>
        <time>2025-10-04T09:58:23Z</time>
      </trkpt>
      <trkpt lat="46.0329" lon="4.42176">
        <ele>687</ele>
        <time>2025-10-04T09:58:24Z</time>
      </trkpt>
      <trkpt lat="46.03288" lon="4.42163">
        <ele>686.8</ele>
        <time>2025-10-04T09:58:25Z</time>
      </trkpt>
      <trkpt lat="46.03286" lon="4.4215">
        <ele>686.4</ele>
        <time>2025-10-04T09:58:26Z</time>
      </trkpt>
      <trkpt lat="46.03283" lon="4.42137">
        <ele>686</ele>
        <time>2025-10-04T09:58:27Z</time>
      </trkpt>
      <trkpt lat="46.0328" lon="4.42125">
        <ele>685.4</ele>
        <time>2025-10-04T09:58:28Z</time>
      </trkpt>
      <trkpt lat="46.03277" lon="4.42113">
        <ele>685.2</ele>
        <time>2025-10-04T09:58:29Z</time>
      </trkpt>
      <trkpt lat="46.03273" lon="4.42102">
        <ele>684.8</ele>
        <time>2025-10-04T09:58:30Z</time>
      </trkpt>
      <trkpt lat="46.03269" lon="4.42091">
        <ele>684.2</ele>
        <time>2025-10-04T09:58:31Z</time>
      </trkpt>
      <trkpt lat="46.03266" lon="4.42081">
        <ele>684</ele>
        <time>2025-10-04T09:58:32Z</time>
      </trkpt>
      <trkpt lat="46.03263" lon="4.42071">
        <ele>683.8</ele>
        <time>2025-10-04T09:58:33Z</time>
      </trkpt>
      <trkpt lat="46.03259" lon="4.42062">
        <ele>683.4</ele>
        <time>2025-10-04T09:58:34Z</time>
      </trkpt>
      <trkpt lat="46.03257" lon="4.42053">
        <ele>683</ele>
        <time>2025-10-04T09:58:35Z</time>
      </trkpt>
      <trkpt lat="46.03254" lon="4.42046">
        <ele>682.6</ele>
        <time>2025-10-04T09:58:36Z</time>
      </trkpt>
      <trkpt lat="46.03252" lon="4.4204">
        <ele>682.2</ele>
        <time>2025-10-04T09:58:37Z</time>
      </trkpt>
      <trkpt lat="46.03251" lon="4.42036">
        <ele>682.2</ele>
        <time>2025-10-04T09:58:38Z</time>
      </trkpt>
      <trkpt lat="46.0325" lon="4.42033">
        <ele>682</ele>
        <time>2025-10-04T09:58:39Z</time>
      </trkpt>
      <trkpt lat="46.03251" lon="4.4203">
        <ele>682</ele>
        <time>2025-10-04T09:58:40Z</time>
      </trkpt>
      <trkpt lat="46.03252" lon="4.42028">
        <ele>682</ele>
        <time>2025-10-04T09:58:41Z</time>
      </trkpt>
      <trkpt lat="46.03252" lon="4.42026">
        <ele>682</ele>
        <time>2025-10-04T09:58:42Z</time>
      </trkpt>
      <trkpt lat="46.03258" lon="4.4203">
        <ele>681.6</ele>
        <time>2025-10-04T09:58:43Z</time>
      </trkpt>
      <trkpt lat="46.0326" lon="4.42035">
        <ele>681.6</ele>
        <time>2025-10-04T09:58:44Z</time>
      </trkpt>
      <trkpt lat="46.03261" lon="4.42037">
        <ele>681.4</ele>
        <time>2025-10-04T09:58:45Z</time>
      </trkpt>
      <trkpt lat="46.03264" lon="4.42039">
        <ele>681</ele>
        <time>2025-10-04T09:58:46Z</time>
      </trkpt>
      <trkpt lat="46.03266" lon="4.4204">
        <ele>680.6</ele>
        <time>2025-10-04T09:58:47Z</time>
      </trkpt>
      <trkpt lat="46.03267" lon="4.42043">
        <ele>680.4</ele>
        <time>2025-10-04T09:58:48Z</time>
      </trkpt>
      <trkpt lat="46.03268" lon="4.42045">
        <ele>680</ele>
        <time>2025-10-04T09:58:49Z</time>
      </trkpt>
      <trkpt lat="46.03269" lon="4.42046">
        <ele>679.8</ele>
        <time>2025-10-04T09:58:50Z</time>
      </trkpt>
      <trkpt lat="46.0327" lon="4.42048">
        <ele>679.6</ele>
        <time>2025-10-04T09:58:51Z</time>
      </trkpt>
      <trkpt lat="46.03274" lon="4.4205">
        <ele>679.4</ele>
        <time>2025-10-04T09:58:52Z</time>
      </trkpt>
      <trkpt lat="46.03276" lon="4.42049">
        <ele>679</ele>
        <time>2025-10-04T09:58:53Z</time>
      </trkpt>
      <trkpt lat="46.03278" lon="4.42049">
        <ele>678.8</ele>
        <time>2025-10-04T09:58:54Z</time>
      </trkpt>
      <trkpt lat="46.03279" lon="4.4205">
        <ele>678.6</ele>
        <time>2025-10-04T09:58:55Z</time>
      </trkpt>
      <trkpt lat="46.0328" lon="4.42052">
        <ele>678.6</ele>
        <time>2025-10-04T09:58:56Z</time>
      </trkpt>
      <trkpt lat="46.03282" lon="4.42053">
        <ele>678.2</ele>
        <time>2025-10-04T09:58:57Z</time>
      </trkpt>
      <trkpt lat="46.03283" lon="4.42053">
        <ele>678.2</ele>
        <time>2025-10-04T09:58:58Z</time>
      </trkpt>
      <trkpt lat="46.03285" lon="4.42053">
        <ele>678.2</ele>
        <time>2025-10-04T09:58:59Z</time>
      </trkpt>
      <trkpt lat="46.03288" lon="4.42055">
        <ele>678</ele>
        <time>2025-10-04T09:59:00Z</time>
      </trkpt>
      <trkpt lat="46.03295" lon="4.42061">
        <ele>677.8</ele>
        <time>2025-10-04T09:59:01Z</time>
      </trkpt>
      <trkpt lat="46.03298" lon="4.42064">
        <ele>677.4</ele>
        <time>2025-10-04T09:59:02Z</time>
      </trkpt>
      <trkpt lat="46.03303" lon="4.42064">
        <ele>676.8</ele>
        <time>2025-10-04T09:59:03Z</time>
      </trkpt>
      <trkpt lat="46.03307" lon="4.42067">
        <ele>676.4</ele>
        <time>2025-10-04T09:59:04Z</time>
      </trkpt>
      <trkpt lat="46.03311" lon="4.42069">
        <ele>676</ele>
        <time>2025-10-04T09:59:05Z</time>
      </trkpt>
      <trkpt lat="46.03315" lon="4.4207">
        <ele>675.4</ele>
        <time>2025-10-04T09:59:06Z</time>
      </trkpt>
      <trkpt lat="46.03316" lon="4.42071">
        <ele>675.2</ele>
        <time>2025-10-04T09:59:07Z</time>
      </trkpt>
      <trkpt lat="46.03317" lon="4.42071">
        <ele>674.8</ele>
        <time>2025-10-04T09:59:08Z</time>
      </trkpt>
      <trkpt lat="46.03318" lon="4.42069">
        <ele>674.8</ele>
        <time>2025-10-04T09:59:09Z</time>
      </trkpt>
      <trkpt lat="46.03319" lon="4.4207">
        <ele>674.4</ele>
        <time>2025-10-04T09:59:10Z</time>
      </trkpt>
      <trkpt lat="46.03319" lon="4.42069">
        <ele>674.4</ele>
        <time>2025-10-04T09:59:11Z</time>
      </trkpt>
      <trkpt lat="46.03319" lon="4.42071">
        <ele>674.2</ele>
        <time>2025-10-04T09:59:12Z</time>
      </trkpt>
      <trkpt lat="46.03319" lon="4.42073">
        <ele>674.2</ele>
        <time>2025-10-04T09:59:13Z</time>
      </trkpt>
      <trkpt lat="46.03326" lon="4.42073">
        <ele>673</ele>
        <time>2025-10-04T10:00:37Z</time>
      </trkpt>
      <trkpt lat="46.03327" lon="4.42074">
        <ele>673</ele>
        <time>2025-10-04T10:00:38Z</time>
      </trkpt>
      <trkpt lat="46.03327" lon="4.42074">
        <ele>673</ele>
        <time>2025-10-04T10:00:39Z</time>
      </trkpt>
      <trkpt lat="46.03327" lon="4.42075">
        <ele>673</ele>
        <time>2025-10-04T10:00:40Z</time>
      </trkpt>
      <trkpt lat="46.03328" lon="4.42076">
        <ele>672.4</ele>
        <time>2025-10-04T10:00:41Z</time>
      </trkpt>
      <trkpt lat="46.03331" lon="4.42081">
        <ele>672</ele>
        <time>2025-10-04T10:00:42Z</time>
      </trkpt>
      <trkpt lat="46.03334" lon="4.42085">
        <ele>671.6</ele>
        <time>2025-10-04T10:00:43Z</time>
      </trkpt>
      <trkpt lat="46.0334" lon="4.42088">
        <ele>671</ele>
        <time>2025-10-04T10:00:44Z</time>
      </trkpt>
      <trkpt lat="46.03346" lon="4.42091">
        <ele>670.2</ele>
        <time>2025-10-04T10:00:45Z</time>
      </trkpt>
      <trkpt lat="46.0335" lon="4.42094">
        <ele>669.2</ele>
        <time>2025-10-04T10:00:46Z</time>
      </trkpt>
      <trkpt lat="46.03359" lon="4.42099">
        <ele>668.4</ele>
        <time>2025-10-04T10:00:47Z</time>
      </trkpt>
      <trkpt lat="46.03366" lon="4.42104">
        <ele>667.4</ele>
        <time>2025-10-04T10:00:48Z</time>
      </trkpt>
      <trkpt lat="46.03373" lon="4.42105">
        <ele>666.4</ele>
        <time>2025-10-04T10:00:49Z</time>
      </trkpt>
      <trkpt lat="46.03382" lon="4.42108">
        <ele>666.4</ele>
        <time>2025-10-04T10:00:50Z</time>
      </trkpt>
      <trkpt lat="46.0339" lon="4.42111">
        <ele>665.4</ele>
        <time>2025-10-04T10:00:51Z</time>
      </trkpt>
      <trkpt lat="46.03398" lon="4.42114">
        <ele>664.4</ele>
        <time>2025-10-04T10:00:52Z</time>
      </trkpt>
      <trkpt lat="46.03404" lon="4.42121">
        <ele>663</ele>
        <time>2025-10-04T10:00:53Z</time>
      </trkpt>
      <trkpt lat="46.03414" lon="4.4213">
        <ele>661.8</ele>
        <time>2025-10-04T10:00:54Z</time>
      </trkpt>
      <trkpt lat="46.03417" lon="4.42131">
        <ele>660.8</ele>
        <time>2025-10-04T10:00:55Z</time>
      </trkpt>
      <trkpt lat="46.03425" lon="4.42133">
        <ele>659.6</ele>
        <time>2025-10-04T10:00:56Z</time>
      </trkpt>
      <trkpt lat="46.03431" lon="4.42141">
        <ele>658.4</ele>
        <time>2025-10-04T10:00:57Z</time>
      </trkpt>
      <trkpt lat="46.03439" lon="4.42147">
        <ele>657</ele>
        <time>2025-10-04T10:00:58Z</time>
      </trkpt>
      <trkpt lat="46.03449" lon="4.4215">
        <ele>656</ele>
        <time>2025-10-04T10:00:59Z</time>
      </trkpt>
      <trkpt lat="46.03459" lon="4.42154">
        <ele>654.6</ele>
        <time>2025-10-04T10:01:00Z</time>
      </trkpt>
      <trkpt lat="46.03466" lon="4.42158">
        <ele>653.4</ele>
        <time>2025-10-04T10:01:01Z</time>
      </trkpt>
      <trkpt lat="46.03475" lon="4.42164">
        <ele>651.8</ele>
        <time>2025-10-04T10:01:02Z</time>
      </trkpt>
      <trkpt lat="46.03485" lon="4.42169">
        <ele>650.6</ele>
        <time>2025-10-04T10:01:03Z</time>
      </trkpt>
      <trkpt lat="46.03494" lon="4.42176">
        <ele>649.4</ele>
        <time>2025-10-04T10:01:04Z</time>
      </trkpt>
      <trkpt lat="46.03504" lon="4.42183">
        <ele>648</ele>
        <time>2025-10-04T10:01:05Z</time>
      </trkpt>
      <trkpt lat="46.03511" lon="4.42191">
        <ele>646.8</ele>
        <time>2025-10-04T10:01:06Z</time>
      </trkpt>
      <trkpt lat="46.0352" lon="4.422">
        <ele>645.4</ele>
        <time>2025-10-04T10:01:07Z</time>
      </trkpt>
      <trkpt lat="46.03528" lon="4.42212">
        <ele>644</ele>
        <time>2025-10-04T10:01:08Z</time>
      </trkpt>
      <trkpt lat="46.03538" lon="4.42223">
        <ele>642.6</ele>
        <time>2025-10-04T10:01:09Z</time>
      </trkpt>
      <trkpt lat="46.03546" lon="4.42234">
        <ele>641.4</ele>
        <time>2025-10-04T10:01:10Z</time>
      </trkpt>
      <trkpt lat="46.03552" lon="4.42247">
        <ele>640.2</ele>
        <time>2025-10-04T10:01:11Z</time>
      </trkpt>
      <trkpt lat="46.03555" lon="4.42259">
        <ele>639.2</ele>
        <time>2025-10-04T10:01:12Z</time>
      </trkpt>
      <trkpt lat="46.03562" lon="4.42269">
        <ele>638</ele>
        <time>2025-10-04T10:01:13Z</time>
      </trkpt>
      <trkpt lat="46.03567" lon="4.42278">
        <ele>637.2</ele>
        <time>2025-10-04T10:01:14Z</time>
      </trkpt>
      <trkpt lat="46.03572" lon="4.42287">
        <ele>636.2</ele>
        <time>2025-10-04T10:01:15Z</time>
      </trkpt>
      <trkpt lat="46.03578" lon="4.42297">
        <ele>635.4</ele>
        <time>2025-10-04T10:01:16Z</time>
      </trkpt>
      <trkpt lat="46.03583" lon="4.42307">
        <ele>634.8</ele>
        <time>2025-10-04T10:01:17Z</time>
      </trkpt>
      <trkpt lat="46.03588" lon="4.42318">
        <ele>634.4</ele>
        <time>2025-10-04T10:01:18Z</time>
      </trkpt>
      <trkpt lat="46.03594" lon="4.42327">
        <ele>634</ele>
        <time>2025-10-04T10:01:19Z</time>
      </trkpt>
      <trkpt lat="46.036" lon="4.42334">
        <ele>633.8</ele>
        <time>2025-10-04T10:01:20Z</time>
      </trkpt>
      <trkpt lat="46.03606" lon="4.4234">
        <ele>634</ele>
        <time>2025-10-04T10:01:21Z</time>
      </trkpt>
      <trkpt lat="46.03615" lon="4.42337">
        <ele>634</ele>
        <time>2025-10-04T10:01:22Z</time>
      </trkpt>
      <trkpt lat="46.03624" lon="4.42334">
        <ele>633.6</ele>
        <time>2025-10-04T10:01:23Z</time>
      </trkpt>
      <trkpt lat="46.0363" lon="4.42331">
        <ele>633.4</ele>
        <time>2025-10-04T10:01:24Z</time>
      </trkpt>
      <trkpt lat="46.03638" lon="4.42326">
        <ele>633</ele>
        <time>2025-10-04T10:01:25Z</time>
      </trkpt>
      <trkpt lat="46.0365" lon="4.42316">
        <ele>633</ele>
        <time>2025-10-04T10:01:26Z</time>
      </trkpt>
      <trkpt lat="46.03656" lon="4.42311">
        <ele>633</ele>
        <time>2025-10-04T10:01:27Z</time>
      </trkpt>
      <trkpt lat="46.03662" lon="4.42308">
        <ele>632.8</ele>
        <time>2025-10-04T10:01:28Z</time>
      </trkpt>
      <trkpt lat="46.03668" lon="4.42303">
        <ele>632.8</ele>
        <time>2025-10-04T10:01:29Z</time>
      </trkpt>
      <trkpt lat="46.03674" lon="4.423">
        <ele>632.8</ele>
        <time>2025-10-04T10:01:30Z</time>
      </trkpt>
      <trkpt lat="46.0368" lon="4.42298">
        <ele>632.8</ele>
        <time>2025-10-04T10:01:31Z</time>
      </trkpt>
      <trkpt lat="46.03686" lon="4.42296">
        <ele>633</ele>
        <time>2025-10-04T10:01:32Z</time>
      </trkpt>
      <trkpt lat="46.03691" lon="4.42293">
        <ele>633.4</ele>
        <time>2025-10-04T10:01:33Z</time>
      </trkpt>
      <trkpt lat="46.03697" lon="4.42291">
        <ele>633.8</ele>
        <time>2025-10-04T10:01:34Z</time>
      </trkpt>
      <trkpt lat="46.03701" lon="4.42289">
        <ele>633.8</ele>
        <time>2025-10-04T10:01:35Z</time>
      </trkpt>
      <trkpt lat="46.03706" lon="4.42287">
        <ele>634</ele>
        <time>2025-10-04T10:01:36Z</time>
      </trkpt>
      <trkpt lat="46.0371" lon="4.42285">
        <ele>634</ele>
        <time>2025-10-04T10:01:37Z</time>
      </trkpt>
      <trkpt lat="46.03714" lon="4.42284">
        <ele>633.6</ele>
        <time>2025-10-04T10:01:38Z</time>
      </trkpt>
      <trkpt lat="46.03718" lon="4.42282">
        <ele>633.6</ele>
        <time>2025-10-04T10:01:39Z</time>
      </trkpt>
      <trkpt lat="46.03721" lon="4.42281">
        <ele>634.2</ele>
        <time>2025-10-04T10:01:40Z</time>
      </trkpt>
      <trkpt lat="46.03724" lon="4.42281">
        <ele>634.2</ele>
        <time>2025-10-04T10:01:41Z</time>
      </trkpt>
      <trkpt lat="46.03728" lon="4.42279">
        <ele>634.6</ele>
        <time>2025-10-04T10:01:42Z</time>
      </trkpt>
      <trkpt lat="46.03731" lon="4.42276">
        <ele>635</ele>
        <time>2025-10-04T10:01:43Z</time>
      </trkpt>
      <trkpt lat="46.03735" lon="4.42275">
        <ele>635.2</ele>
        <time>2025-10-04T10:01:44Z</time>
      </trkpt>
      <trkpt lat="46.03738" lon="4.42273">
        <ele>635.6</ele>
        <time>2025-10-04T10:01:45Z</time>
      </trkpt>
      <trkpt lat="46.03742" lon="4.4227">
        <ele>635.8</ele>
        <time>2025-10-04T10:01:46Z</time>
      </trkpt>
      <trkpt lat="46.03746" lon="4.42267">
        <ele>636.2</ele>
        <time>2025-10-04T10:01:47Z</time>
      </trkpt>
      <trkpt lat="46.03749" lon="4.42265">
        <ele>636.2</ele>
        <time>2025-10-04T10:01:48Z</time>
      </trkpt>
      <trkpt lat="46.03753" lon="4.42264">
        <ele>636.6</ele>
        <time>2025-10-04T10:01:49Z</time>
      </trkpt>
      <trkpt lat="46.03756" lon="4.42262">
        <ele>637</ele>
        <time>2025-10-04T10:01:50Z</time>
      </trkpt>
      <trkpt lat="46.03759" lon="4.4226">
        <ele>637</ele>
        <time>2025-10-04T10:01:51Z</time>
      </trkpt>
      <trkpt lat="46.03762" lon="4.42259">
        <ele>637.6</ele>
        <time>2025-10-04T10:01:52Z</time>
      </trkpt>
      <trkpt lat="46.03766" lon="4.42258">
        <ele>637.6</ele>
        <time>2025-10-04T10:01:53Z</time>
      </trkpt>
      <trkpt lat="46.03769" lon="4.42256">
        <ele>638.2</ele>
        <time>2025-10-04T10:01:54Z</time>
      </trkpt>
      <trkpt lat="46.03772" lon="4.42254">
        <ele>638.2</ele>
        <time>2025-10-04T10:01:55Z</time>
      </trkpt>
      <trkpt lat="46.03775" lon="4.42251">
        <ele>638.2</ele>
        <time>2025-10-04T10:01:56Z</time>
      </trkpt>
      <trkpt lat="46.03778" lon="4.42247">
        <ele>638.2</ele>
        <time>2025-10-04T10:01:57Z</time>
      </trkpt>
      <trkpt lat="46.0378" lon="4.42242">
        <ele>638.2</ele>
        <time>2025-10-04T10:01:58Z</time>
      </trkpt>
      <trkpt lat="46.03783" lon="4.42238">
        <ele>638.2</ele>
        <time>2025-10-04T10:01:59Z</time>
      </trkpt>
      <trkpt lat="46.03785" lon="4.42233">
        <ele>638.4</ele>
        <time>2025-10-04T10:02:00Z</time>
      </trkpt>
      <trkpt lat="46.03787" lon="4.42227">
        <ele>638.4</ele>
        <time>2025-10-04T10:02:01Z</time>
      </trkpt>
      <trkpt lat="46.03788" lon="4.42222">
        <ele>638.8</ele>
        <time>2025-10-04T10:02:02Z</time>
      </trkpt>
      <trkpt lat="46.0379" lon="4.42216">
        <ele>638.8</ele>
        <time>2025-10-04T10:02:03Z</time>
      </trkpt>
      <trkpt lat="46.03792" lon="4.4221">
        <ele>638.8</ele>
        <time>2025-10-04T10:02:04Z</time>
      </trkpt>
      <trkpt lat="46.03794" lon="4.42205">
        <ele>638.8</ele>
        <time>2025-10-04T10:02:05Z</time>
      </trkpt>
      <trkpt lat="46.03796" lon="4.42199">
        <ele>638.8</ele>
        <time>2025-10-04T10:02:06Z</time>
      </trkpt>
      <trkpt lat="46.03798" lon="4.42194">
        <ele>639</ele>
        <time>2025-10-04T10:02:07Z</time>
      </trkpt>
      <trkpt lat="46.038" lon="4.42189">
        <ele>639</ele>
        <time>2025-10-04T10:02:08Z</time>
      </trkpt>
      <trkpt lat="46.03802" lon="4.42184">
        <ele>639.2</ele>
        <time>2025-10-04T10:02:09Z</time>
      </trkpt>
      <trkpt lat="46.03804" lon="4.42179">
        <ele>639.2</ele>
        <time>2025-10-04T10:02:10Z</time>
      </trkpt>
      <trkpt lat="46.03806" lon="4.42174">
        <ele>639.2</ele>
        <time>2025-10-04T10:02:11Z</time>
      </trkpt>
      <trkpt lat="46.03808" lon="4.42169">
        <ele>639.2</ele>
        <time>2025-10-04T10:02:12Z</time>
      </trkpt>
      <trkpt lat="46.0381" lon="4.42164">
        <ele>639.2</ele>
        <time>2025-10-04T10:02:13Z</time>
      </trkpt>
      <trkpt lat="46.03812" lon="4.4216">
        <ele>639.4</ele>
        <time>2025-10-04T10:02:14Z</time>
      </trkpt>
      <trkpt lat="46.03813" lon="4.42155">
        <ele>639.4</ele>
        <time>2025-10-04T10:02:15Z</time>
      </trkpt>
      <trkpt lat="46.03815" lon="4.42151">
        <ele>639.6</ele>
        <time>2025-10-04T10:02:16Z</time>
      </trkpt>
      <trkpt lat="46.03817" lon="4.42146">
        <ele>639.6</ele>
        <time>2025-10-04T10:02:17Z</time>
      </trkpt>
      <trkpt lat="46.03818" lon="4.42142">
        <ele>640</ele>
        <time>2025-10-04T10:02:18Z</time>
      </trkpt>
      <trkpt lat="46.0382" lon="4.42137">
        <ele>640.2</ele>
        <time>2025-10-04T10:02:19Z</time>
      </trkpt>
      <trkpt lat="46.03822" lon="4.42133">
        <ele>640.2</ele>
        <time>2025-10-04T10:02:20Z</time>
      </trkpt>
      <trkpt lat="46.03824" lon="4.4213">
        <ele>640.6</ele>
        <time>2025-10-04T10:02:21Z</time>
      </trkpt>
      <trkpt lat="46.03826" lon="4.42126">
        <ele>641</ele>
        <time>2025-10-04T10:02:22Z</time>
      </trkpt>
      <trkpt lat="46.03827" lon="4.42122">
        <ele>641.2</ele>
        <time>2025-10-04T10:02:23Z</time>
      </trkpt>
      <trkpt lat="46.03829" lon="4.42118">
        <ele>641.4</ele>
        <time>2025-10-04T10:02:24Z</time>
      </trkpt>
      <trkpt lat="46.03831" lon="4.42114">
        <ele>641.8</ele>
        <time>2025-10-04T10:02:25Z</time>
      </trkpt>
      <trkpt lat="46.03833" lon="4.4211">
        <ele>642</ele>
        <time>2025-10-04T10:02:26Z</time>
      </trkpt>
      <trkpt lat="46.03835" lon="4.42106">
        <ele>642.2</ele>
        <time>2025-10-04T10:02:27Z</time>
      </trkpt>
      <trkpt lat="46.03837" lon="4.42102">
        <ele>642.2</ele>
        <time>2025-10-04T10:02:28Z</time>
      </trkpt>
      <trkpt lat="46.03838" lon="4.42099">
        <ele>642.2</ele>
        <time>2025-10-04T10:02:29Z</time>
      </trkpt>
      <trkpt lat="46.0384" lon="4.42094">
        <ele>641.6</ele>
        <time>2025-10-04T10:02:30Z</time>
      </trkpt>
      <trkpt lat="46.03842" lon="4.4209">
        <ele>641.6</ele>
        <time>2025-10-04T10:02:31Z</time>
      </trkpt>
      <trkpt lat="46.03844" lon="4.42086">
        <ele>642</ele>
        <time>2025-10-04T10:02:32Z</time>
      </trkpt>
      <trkpt lat="46.03847" lon="4.42082">
        <ele>642</ele>
        <time>2025-10-04T10:02:33Z</time>
      </trkpt>
      <trkpt lat="46.03849" lon="4.42079">
        <ele>642.2</ele>
        <time>2025-10-04T10:02:34Z</time>
      </trkpt>
      <trkpt lat="46.03852" lon="4.42075">
        <ele>642.2</ele>
        <time>2025-10-04T10:02:35Z</time>
      </trkpt>
      <trkpt lat="46.03855" lon="4.42072">
        <ele>642.4</ele>
        <time>2025-10-04T10:02:36Z</time>
      </trkpt>
      <trkpt lat="46.03858" lon="4.42069">
        <ele>642.4</ele>
        <time>2025-10-04T10:02:37Z</time>
      </trkpt>
      <trkpt lat="46.03861" lon="4.42066">
        <ele>642.4</ele>
        <time>2025-10-04T10:02:38Z</time>
      </trkpt>
      <trkpt lat="46.03863" lon="4.42063">
        <ele>642.4</ele>
        <time>2025-10-04T10:02:39Z</time>
      </trkpt>
      <trkpt lat="46.03866" lon="4.4206">
        <ele>642.8</ele>
        <time>2025-10-04T10:02:40Z</time>
      </trkpt>
      <trkpt lat="46.03868" lon="4.42058">
        <ele>643</ele>
        <time>2025-10-04T10:02:41Z</time>
      </trkpt>
      <trkpt lat="46.03871" lon="4.42055">
        <ele>643</ele>
        <time>2025-10-04T10:02:42Z</time>
      </trkpt>
      <trkpt lat="46.03874" lon="4.42052">
        <ele>643</ele>
        <time>2025-10-04T10:02:43Z</time>
      </trkpt>
      <trkpt lat="46.03877" lon="4.4205">
        <ele>643.4</ele>
        <time>2025-10-04T10:02:44Z</time>
      </trkpt>
      <trkpt lat="46.0388" lon="4.42047">
        <ele>643.4</ele>
        <time>2025-10-04T10:02:45Z</time>
      </trkpt>
      <trkpt lat="46.03882" lon="4.42045">
        <ele>643.4</ele>
        <time>2025-10-04T10:02:46Z</time>
      </trkpt>
      <trkpt lat="46.03885" lon="4.42043">
        <ele>643.4</ele>
        <time>2025-10-04T10:02:47Z</time>
      </trkpt>
      <trkpt lat="46.03889" lon="4.4204">
        <ele>643.4</ele>
        <time>2025-10-04T10:02:48Z</time>
      </trkpt>
      <trkpt lat="46.03892" lon="4.42038">
        <ele>643.6</ele>
        <time>2025-10-04T10:02:49Z</time>
      </trkpt>
      <trkpt lat="46.03896" lon="4.42035">
        <ele>643.6</ele>
        <time>2025-10-04T10:02:50Z</time>
      </trkpt>
      <trkpt lat="46.039" lon="4.42033">
        <ele>643.6</ele>
        <time>2025-10-04T10:02:51Z</time>
      </trkpt>
      <trkpt lat="46.03904" lon="4.42031">
        <ele>643.6</ele>
        <time>2025-10-04T10:02:52Z</time>
      </trkpt>
      <trkpt lat="46.03909" lon="4.42028">
        <ele>644</ele>
        <time>2025-10-04T10:02:53Z</time>
      </trkpt>
      <trkpt lat="46.03913" lon="4.42025">
        <ele>644</ele>
        <time>2025-10-04T10:02:54Z</time>
      </trkpt>
      <trkpt lat="46.03918" lon="4.42021">
        <ele>643.8</ele>
        <time>2025-10-04T10:02:55Z</time>
      </trkpt>
      <trkpt lat="46.03922" lon="4.42018">
        <ele>643.6</ele>
        <time>2025-10-04T10:02:56Z</time>
      </trkpt>
      <trkpt lat="46.03927" lon="4.42014">
        <ele>643.6</ele>
        <time>2025-10-04T10:02:57Z</time>
      </trkpt>
      <trkpt lat="46.03932" lon="4.4201">
        <ele>643.6</ele>
        <time>2025-10-04T10:02:58Z</time>
      </trkpt>
      <trkpt lat="46.03937" lon="4.42006">
        <ele>643.6</ele>
        <time>2025-10-04T10:02:59Z</time>
      </trkpt>
      <trkpt lat="46.03941" lon="4.42002">
        <ele>643.6</ele>
        <time>2025-10-04T10:03:00Z</time>
      </trkpt>
      <trkpt lat="46.03946" lon="4.41998">
        <ele>643.6</ele>
        <time>2025-10-04T10:03:01Z</time>
      </trkpt>
      <trkpt lat="46.0395" lon="4.41994">
        <ele>643.6</ele>
        <time>2025-10-04T10:03:02Z</time>
      </trkpt>
      <trkpt lat="46.03955" lon="4.41991">
        <ele>643.2</ele>
        <time>2025-10-04T10:03:03Z</time>
      </trkpt>
      <trkpt lat="46.03959" lon="4.41987">
        <ele>643.2</ele>
        <time>2025-10-04T10:03:04Z</time>
      </trkpt>
      <trkpt lat="46.03964" lon="4.41982">
        <ele>643</ele>
        <time>2025-10-04T10:03:05Z</time>
      </trkpt>
      <trkpt lat="46.03968" lon="4.41978">
        <ele>643</ele>
        <time>2025-10-04T10:03:06Z</time>
      </trkpt>
      <trkpt lat="46.03973" lon="4.41973">
        <ele>642.6</ele>
        <time>2025-10-04T10:03:07Z</time>
      </trkpt>
      <trkpt lat="46.03978" lon="4.41967">
        <ele>642.6</ele>
        <time>2025-10-04T10:03:08Z</time>
      </trkpt>
      <trkpt lat="46.03983" lon="4.41963">
        <ele>642.6</ele>
        <time>2025-10-04T10:03:09Z</time>
      </trkpt>
      <trkpt lat="46.03988" lon="4.4196">
        <ele>642.6</ele>
        <time>2025-10-04T10:03:10Z</time>
      </trkpt>
      <trkpt lat="46.03994" lon="4.41957">
        <ele>642.4</ele>
        <time>2025-10-04T10:03:11Z</time>
      </trkpt>
      <trkpt lat="46.03999" lon="4.41953">
        <ele>642.4</ele>
        <time>2025-10-04T10:03:12Z</time>
      </trkpt>
      <trkpt lat="46.04005" lon="4.41951">
        <ele>642.4</ele>
        <time>2025-10-04T10:03:13Z</time>
      </trkpt>
      <trkpt lat="46.04012" lon="4.41949">
        <ele>642</ele>
        <time>2025-10-04T10:03:14Z</time>
      </trkpt>
      <trkpt lat="46.04019" lon="4.41949">
        <ele>641.8</ele>
        <time>2025-10-04T10:03:15Z</time>
      </trkpt>
      <trkpt lat="46.04026" lon="4.41948">
        <ele>641.8</ele>
        <time>2025-10-04T10:03:16Z</time>
      </trkpt>
      <trkpt lat="46.04033" lon="4.4195">
        <ele>641.8</ele>
        <time>2025-10-04T10:03:17Z</time>
      </trkpt>
      <trkpt lat="46.04039" lon="4.41954">
        <ele>641.4</ele>
        <time>2025-10-04T10:03:18Z</time>
      </trkpt>
      <trkpt lat="46.04045" lon="4.41959">
        <ele>641.4</ele>
        <time>2025-10-04T10:03:19Z</time>
      </trkpt>
      <trkpt lat="46.04052" lon="4.41963">
        <ele>641.2</ele>
        <time>2025-10-04T10:03:20Z</time>
      </trkpt>
      <trkpt lat="46.04058" lon="4.41969">
        <ele>641</ele>
        <time>2025-10-04T10:03:21Z</time>
      </trkpt>
      <trkpt lat="46.04064" lon="4.41974">
        <ele>641</ele>
        <time>2025-10-04T10:03:22Z</time>
      </trkpt>
      <trkpt lat="46.0407" lon="4.41979">
        <ele>641</ele>
        <time>2025-10-04T10:03:23Z</time>
      </trkpt>
      <trkpt lat="46.04077" lon="4.41984">
        <ele>640.8</ele>
        <time>2025-10-04T10:03:24Z</time>
      </trkpt>
      <trkpt lat="46.04083" lon="4.41991">
        <ele>640.8</ele>
        <time>2025-10-04T10:03:25Z</time>
      </trkpt>
      <trkpt lat="46.0409" lon="4.41995">
        <ele>640.4</ele>
        <time>2025-10-04T10:03:26Z</time>
      </trkpt>
      <trkpt lat="46.04097" lon="4.41999">
        <ele>640.4</ele>
        <time>2025-10-04T10:03:27Z</time>
      </trkpt>
      <trkpt lat="46.04103" lon="4.42002">
        <ele>640.8</ele>
        <time>2025-10-04T10:03:28Z</time>
      </trkpt>
      <trkpt lat="46.04111" lon="4.42006">
        <ele>640.8</ele>
        <time>2025-10-04T10:03:29Z</time>
      </trkpt>
      <trkpt lat="46.04118" lon="4.42009">
        <ele>640.8</ele>
        <time>2025-10-04T10:03:30Z</time>
      </trkpt>
      <trkpt lat="46.04125" lon="4.42012">
        <ele>640.6</ele>
        <time>2025-10-04T10:03:31Z</time>
      </trkpt>
      <trkpt lat="46.04132" lon="4.42014">
        <ele>640.6</ele>
        <time>2025-10-04T10:03:32Z</time>
      </trkpt>
      <trkpt lat="46.04138" lon="4.42017">
        <ele>640.6</ele>
        <time>2025-10-04T10:03:33Z</time>
      </trkpt>
      <trkpt lat="46.04145" lon="4.4202">
        <ele>640.2</ele>
        <time>2025-10-04T10:03:34Z</time>
      </trkpt>
      <trkpt lat="46.04153" lon="4.42022">
        <ele>640.2</ele>
        <time>2025-10-04T10:03:35Z</time>
      </trkpt>
      <trkpt lat="46.04161" lon="4.42024">
        <ele>640</ele>
        <time>2025-10-04T10:03:36Z</time>
      </trkpt>
      <trkpt lat="46.04168" lon="4.42025">
        <ele>640</ele>
        <time>2025-10-04T10:03:37Z</time>
      </trkpt>
      <trkpt lat="46.04175" lon="4.42024">
        <ele>640</ele>
        <time>2025-10-04T10:03:38Z</time>
      </trkpt>
      <trkpt lat="46.04182" lon="4.42024">
        <ele>639.8</ele>
        <time>2025-10-04T10:03:39Z</time>
      </trkpt>
      <trkpt lat="46.04189" lon="4.42024">
        <ele>639.8</ele>
        <time>2025-10-04T10:03:40Z</time>
      </trkpt>
      <trkpt lat="46.04195" lon="4.42025">
        <ele>639.8</ele>
        <time>2025-10-04T10:03:41Z</time>
      </trkpt>
      <trkpt lat="46.04201" lon="4.42025">
        <ele>640</ele>
        <time>2025-10-04T10:03:42Z</time>
      </trkpt>
      <trkpt lat="46.04208" lon="4.42024">
        <ele>640</ele>
        <time>2025-10-04T10:03:43Z</time>
      </trkpt>
      <trkpt lat="46.04214" lon="4.42024">
        <ele>640.4</ele>
        <time>2025-10-04T10:03:44Z</time>
      </trkpt>
      <trkpt lat="46.0422" lon="4.42024">
        <ele>640.4</ele>
        <time>2025-10-04T10:03:45Z</time>
      </trkpt>
      <trkpt lat="46.04225" lon="4.42024">
        <ele>640.8</ele>
        <time>2025-10-04T10:03:46Z</time>
      </trkpt>
      <trkpt lat="46.04232" lon="4.42023">
        <ele>641</ele>
        <time>2025-10-04T10:03:47Z</time>
      </trkpt>
      <trkpt lat="46.04237" lon="4.42024">
        <ele>641.4</ele>
        <time>2025-10-04T10:03:48Z</time>
      </trkpt>
      <trkpt lat="46.04243" lon="4.42025">
        <ele>641.4</ele>
        <time>2025-10-04T10:03:49Z</time>
      </trkpt>
      <trkpt lat="46.04247" lon="4.42023">
        <ele>642</ele>
        <time>2025-10-04T10:03:50Z</time>
      </trkpt>
      <trkpt lat="46.04251" lon="4.42022">
        <ele>642.2</ele>
        <time>2025-10-04T10:03:51Z</time>
      </trkpt>
      <trkpt lat="46.04256" lon="4.42022">
        <ele>642.2</ele>
        <time>2025-10-04T10:03:52Z</time>
      </trkpt>
      <trkpt lat="46.0426" lon="4.42022">
        <ele>642.8</ele>
        <time>2025-10-04T10:03:53Z</time>
      </trkpt>
      <trkpt lat="46.04264" lon="4.42022">
        <ele>643</ele>
        <time>2025-10-04T10:03:54Z</time>
      </trkpt>
      <trkpt lat="46.04268" lon="4.4202">
        <ele>643.4</ele>
        <time>2025-10-04T10:03:55Z</time>
      </trkpt>
      <trkpt lat="46.04272" lon="4.4202">
        <ele>644</ele>
        <time>2025-10-04T10:03:56Z</time>
      </trkpt>
      <trkpt lat="46.04276" lon="4.4202">
        <ele>644.2</ele>
        <time>2025-10-04T10:03:57Z</time>
      </trkpt>
      <trkpt lat="46.04279" lon="4.42021">
        <ele>644.2</ele>
        <time>2025-10-04T10:03:58Z</time>
      </trkpt>
      <trkpt lat="46.04283" lon="4.4202">
        <ele>644.6</ele>
        <time>2025-10-04T10:03:59Z</time>
      </trkpt>
      <trkpt lat="46.04286" lon="4.4202">
        <ele>644.6</ele>
        <time>2025-10-04T10:04:00Z</time>
      </trkpt>
      <trkpt lat="46.0429" lon="4.42019">
        <ele>644.8</ele>
        <time>2025-10-04T10:04:01Z</time>
      </trkpt>
      <trkpt lat="46.04293" lon="4.42019">
        <ele>644.8</ele>
        <time>2025-10-04T10:04:02Z</time>
      </trkpt>
      <trkpt lat="46.04297" lon="4.42019">
        <ele>645.2</ele>
        <time>2025-10-04T10:04:03Z</time>
      </trkpt>
      <trkpt lat="46.043" lon="4.42019">
        <ele>645.4</ele>
        <time>2025-10-04T10:04:04Z</time>
      </trkpt>
      <trkpt lat="46.04304" lon="4.42019">
        <ele>645.6</ele>
        <time>2025-10-04T10:04:05Z</time>
      </trkpt>
      <trkpt lat="46.04307" lon="4.42019">
        <ele>645.8</ele>
        <time>2025-10-04T10:04:06Z</time>
      </trkpt>
      <trkpt lat="46.04311" lon="4.42019">
        <ele>645.8</ele>
        <time>2025-10-04T10:04:07Z</time>
      </trkpt>
      <trkpt lat="46.04313" lon="4.42019">
        <ele>646.4</ele>
        <time>2025-10-04T10:04:08Z</time>
      </trkpt>
      <trkpt lat="46.04316" lon="4.42019">
        <ele>646.6</ele>
        <time>2025-10-04T10:04:09Z</time>
      </trkpt>
      <trkpt lat="46.04319" lon="4.42019">
        <ele>647.4</ele>
        <time>2025-10-04T10:04:10Z</time>
      </trkpt>
      <trkpt lat="46.0432" lon="4.42018">
        <ele>647.4</ele>
        <time>2025-10-04T10:04:11Z</time>
      </trkpt>
      <trkpt lat="46.04321" lon="4.42017">
        <ele>647.6</ele>
        <time>2025-10-04T10:04:12Z</time>
      </trkpt>
      <trkpt lat="46.04323" lon="4.42016">
        <ele>648</ele>
        <time>2025-10-04T10:04:13Z</time>
      </trkpt>
      <trkpt lat="46.04324" lon="4.42017">
        <ele>648.4</ele>
        <time>2025-10-04T10:04:14Z</time>
      </trkpt>
      <trkpt lat="46.04326" lon="4.42017">
        <ele>648.8</ele>
        <time>2025-10-04T10:04:15Z</time>
      </trkpt>
      <trkpt lat="46.04328" lon="4.42018">
        <ele>649</ele>
        <time>2025-10-04T10:04:16Z</time>
      </trkpt>
      <trkpt lat="46.0433" lon="4.42018">
        <ele>649.4</ele>
        <time>2025-10-04T10:04:17Z</time>
      </trkpt>
      <trkpt lat="46.04332" lon="4.42019">
        <ele>649.6</ele>
        <time>2025-10-04T10:04:18Z</time>
      </trkpt>
      <trkpt lat="46.04334" lon="4.4202">
        <ele>650</ele>
        <time>2025-10-04T10:04:19Z</time>
      </trkpt>
      <trkpt lat="46.04336" lon="4.4202">
        <ele>650</ele>
        <time>2025-10-04T10:04:20Z</time>
      </trkpt>
      <trkpt lat="46.04339" lon="4.4202">
        <ele>650.2</ele>
        <time>2025-10-04T10:04:21Z</time>
      </trkpt>
      <trkpt lat="46.04341" lon="4.4202">
        <ele>650.2</ele>
        <time>2025-10-04T10:04:22Z</time>
      </trkpt>
      <trkpt lat="46.04344" lon="4.42019">
        <ele>650.2</ele>
        <time>2025-10-04T10:04:23Z</time>
      </trkpt>
      <trkpt lat="46.04348" lon="4.42016">
        <ele>650.2</ele>
        <time>2025-10-04T10:04:24Z</time>
      </trkpt>
      <trkpt lat="46.04352" lon="4.42014">
        <ele>650.2</ele>
        <time>2025-10-04T10:04:25Z</time>
      </trkpt>
      <trkpt lat="46.04355" lon="4.42011">
        <ele>650.2</ele>
        <time>2025-10-04T10:04:26Z</time>
      </trkpt>
      <trkpt lat="46.04361" lon="4.42006">
        <ele>650.2</ele>
        <time>2025-10-04T10:04:27Z</time>
      </trkpt>
      <trkpt lat="46.04366" lon="4.42004">
        <ele>650.2</ele>
        <time>2025-10-04T10:04:28Z</time>
      </trkpt>
      <trkpt lat="46.04371" lon="4.42">
        <ele>650</ele>
        <time>2025-10-04T10:04:29Z</time>
      </trkpt>
      <trkpt lat="46.04375" lon="4.41996">
        <ele>650</ele>
        <time>2025-10-04T10:04:30Z</time>
      </trkpt>
      <trkpt lat="46.0438" lon="4.41991">
        <ele>650</ele>
        <time>2025-10-04T10:04:31Z</time>
      </trkpt>
      <trkpt lat="46.04385" lon="4.41988">
        <ele>649.6</ele>
        <time>2025-10-04T10:04:32Z</time>
      </trkpt>
      <trkpt lat="46.0439" lon="4.41985">
        <ele>649.6</ele>
        <time>2025-10-04T10:04:33Z</time>
      </trkpt>
      <trkpt lat="46.04396" lon="4.41983">
        <ele>649.2</ele>
        <time>2025-10-04T10:04:34Z</time>
      </trkpt>
      <trkpt lat="46.04396" lon="4.41983">
        <ele>649</ele>
        <time>2025-10-04T10:04:35Z</time>
      </trkpt>
      <trkpt lat="46.044" lon="4.41979">
        <ele>649</ele>
        <time>2025-10-04T10:04:36Z</time>
      </trkpt>
      <trkpt lat="46.04406" lon="4.41976">
        <ele>649</ele>
        <time>2025-10-04T10:04:37Z</time>
      </trkpt>
      <trkpt lat="46.04411" lon="4.41971">
        <ele>648.6</ele>
        <time>2025-10-04T10:04:38Z</time>
      </trkpt>
      <trkpt lat="46.04417" lon="4.41968">
        <ele>648.4</ele>
        <time>2025-10-04T10:04:39Z</time>
      </trkpt>
      <trkpt lat="46.04423" lon="4.41966">
        <ele>648.4</ele>
        <time>2025-10-04T10:04:40Z</time>
      </trkpt>
      <trkpt lat="46.04428" lon="4.41963">
        <ele>648.4</ele>
        <time>2025-10-04T10:04:41Z</time>
      </trkpt>
      <trkpt lat="46.04433" lon="4.4196">
        <ele>648.6</ele>
        <time>2025-10-04T10:04:42Z</time>
      </trkpt>
      <trkpt lat="46.04438" lon="4.41957">
        <ele>648.6</ele>
        <time>2025-10-04T10:04:43Z</time>
      </trkpt>
      <trkpt lat="46.04443" lon="4.41953">
        <ele>648.8</ele>
        <time>2025-10-04T10:04:44Z</time>
      </trkpt>
      <trkpt lat="46.04447" lon="4.4195">
        <ele>648.8</ele>
        <time>2025-10-04T10:04:45Z</time>
      </trkpt>
      <trkpt lat="46.04452" lon="4.41947">
        <ele>649</ele>
        <time>2025-10-04T10:04:46Z</time>
      </trkpt>
      <trkpt lat="46.04456" lon="4.41944">
        <ele>649</ele>
        <time>2025-10-04T10:04:47Z</time>
      </trkpt>
      <trkpt lat="46.0446" lon="4.41941">
        <ele>649.4</ele>
        <time>2025-10-04T10:04:48Z</time>
      </trkpt>
      <trkpt lat="46.04464" lon="4.41938">
        <ele>649.6</ele>
        <time>2025-10-04T10:04:49Z</time>
      </trkpt>
      <trkpt lat="46.04468" lon="4.41934">
        <ele>649.8</ele>
        <time>2025-10-04T10:04:50Z</time>
      </trkpt>
      <trkpt lat="46.04471" lon="4.4193">
        <ele>650</ele>
        <time>2025-10-04T10:04:51Z</time>
      </trkpt>
      <trkpt lat="46.04475" lon="4.41928">
        <ele>650</ele>
        <time>2025-10-04T10:04:52Z</time>
      </trkpt>
      <trkpt lat="46.04478" lon="4.41924">
        <ele>650.6</ele>
        <time>2025-10-04T10:04:53Z</time>
      </trkpt>
      <trkpt lat="46.04481" lon="4.41921">
        <ele>650.6</ele>
        <time>2025-10-04T10:04:54Z</time>
      </trkpt>
      <trkpt lat="46.04484" lon="4.41918">
        <ele>650.8</ele>
        <time>2025-10-04T10:04:55Z</time>
      </trkpt>
      <trkpt lat="46.04488" lon="4.41915">
        <ele>650.8</ele>
        <time>2025-10-04T10:04:56Z</time>
      </trkpt>
      <trkpt lat="46.04491" lon="4.41912">
        <ele>650.8</ele>
        <time>2025-10-04T10:04:57Z</time>
      </trkpt>
      <trkpt lat="46.04494" lon="4.41909">
        <ele>650.8</ele>
        <time>2025-10-04T10:04:58Z</time>
      </trkpt>
      <trkpt lat="46.04497" lon="4.41907">
        <ele>651.2</ele>
        <time>2025-10-04T10:04:59Z</time>
      </trkpt>
      <trkpt lat="46.04501" lon="4.41906">
        <ele>651.2</ele>
        <time>2025-10-04T10:05:00Z</time>
      </trkpt>
      <trkpt lat="46.04504" lon="4.41905">
        <ele>651.4</ele>
        <time>2025-10-04T10:05:01Z</time>
      </trkpt>
      <trkpt lat="46.04507" lon="4.41905">
        <ele>651.4</ele>
        <time>2025-10-04T10:05:02Z</time>
      </trkpt>
      <trkpt lat="46.04509" lon="4.41906">
        <ele>651.8</ele>
        <time>2025-10-04T10:05:03Z</time>
      </trkpt>
      <trkpt lat="46.04511" lon="4.41907">
        <ele>651.4</ele>
        <time>2025-10-04T10:05:04Z</time>
      </trkpt>
      <trkpt lat="46.04512" lon="4.41909">
        <ele>651.8</ele>
        <time>2025-10-04T10:05:05Z</time>
      </trkpt>
      <trkpt lat="46.04514" lon="4.41911">
        <ele>652</ele>
        <time>2025-10-04T10:05:06Z</time>
      </trkpt>
      <trkpt lat="46.04515" lon="4.41912">
        <ele>652.2</ele>
        <time>2025-10-04T10:05:07Z</time>
      </trkpt>
      <trkpt lat="46.04517" lon="4.41913">
        <ele>652.2</ele>
        <time>2025-10-04T10:05:08Z</time>
      </trkpt>
      <trkpt lat="46.04518" lon="4.41914">
        <ele>652.4</ele>
        <time>2025-10-04T10:05:09Z</time>
      </trkpt>
      <trkpt lat="46.0452" lon="4.41912">
        <ele>652.8</ele>
        <time>2025-10-04T10:05:10Z</time>
      </trkpt>
      <trkpt lat="46.04521" lon="4.4191">
        <ele>653</ele>
        <time>2025-10-04T10:05:11Z</time>
      </trkpt>
      <trkpt lat="46.04521" lon="4.41907">
        <ele>653</ele>
        <time>2025-10-04T10:05:12Z</time>
      </trkpt>
      <trkpt lat="46.04521" lon="4.41904">
        <ele>653</ele>
        <time>2025-10-04T10:05:13Z</time>
      </trkpt>
      <trkpt lat="46.04522" lon="4.41902">
        <ele>653</ele>
        <time>2025-10-04T10:05:14Z</time>
      </trkpt>
      <trkpt lat="46.04523" lon="4.419">
        <ele>653</ele>
        <time>2025-10-04T10:05:15Z</time>
      </trkpt>
      <trkpt lat="46.04524" lon="4.41898">
        <ele>653</ele>
        <time>2025-10-04T10:05:16Z</time>
      </trkpt>
      <trkpt lat="46.04525" lon="4.41896">
        <ele>653</ele>
        <time>2025-10-04T10:05:17Z</time>
      </trkpt>
      <trkpt lat="46.04525" lon="4.41895">
        <ele>653</ele>
        <time>2025-10-04T10:05:18Z</time>
      </trkpt>
      <trkpt lat="46.04524" lon="4.41895">
        <ele>653</ele>
        <time>2025-10-04T10:05:19Z</time>
      </trkpt>
      <trkpt lat="46.04522" lon="4.41896">
        <ele>653</ele>
        <time>2025-10-04T10:05:20Z</time>
      </trkpt>
      <trkpt lat="46.04521" lon="4.41898">
        <ele>653</ele>
        <time>2025-10-04T10:05:21Z</time>
      </trkpt>
      <trkpt lat="46.0452" lon="4.41902">
        <ele>653</ele>
        <time>2025-10-04T10:05:22Z</time>
      </trkpt>
      <trkpt lat="46.0452" lon="4.41906">
        <ele>652.8</ele>
        <time>2025-10-04T10:05:23Z</time>
      </trkpt>
      <trkpt lat="46.04521" lon="4.41911">
        <ele>652.8</ele>
        <time>2025-10-04T10:05:24Z</time>
      </trkpt>
      <trkpt lat="46.04523" lon="4.41915">
        <ele>652.8</ele>
        <time>2025-10-04T10:05:25Z</time>
      </trkpt>
      <trkpt lat="46.04525" lon="4.41918">
        <ele>652.8</ele>
        <time>2025-10-04T10:05:26Z</time>
      </trkpt>
      <trkpt lat="46.04528" lon="4.4192">
        <ele>652.8</ele>
        <time>2025-10-04T10:05:27Z</time>
      </trkpt>
      <trkpt lat="46.04532" lon="4.41922">
        <ele>653.2</ele>
        <time>2025-10-04T10:05:28Z</time>
      </trkpt>
      <trkpt lat="46.04536" lon="4.41926">
        <ele>653.2</ele>
        <time>2025-10-04T10:05:29Z</time>
      </trkpt>
      <trkpt lat="46.0454" lon="4.4193">
        <ele>653.2</ele>
        <time>2025-10-04T10:05:30Z</time>
      </trkpt>
      <trkpt lat="46.04544" lon="4.41934">
        <ele>652.8</ele>
        <time>2025-10-04T10:05:31Z</time>
      </trkpt>
      <trkpt lat="46.04549" lon="4.41939">
        <ele>652.6</ele>
        <time>2025-10-04T10:05:32Z</time>
      </trkpt>
      <trkpt lat="46.04552" lon="4.41943">
        <ele>652.6</ele>
        <time>2025-10-04T10:05:33Z</time>
      </trkpt>
      <trkpt lat="46.04557" lon="4.41948">
        <ele>652</ele>
        <time>2025-10-04T10:05:34Z</time>
      </trkpt>
      <trkpt lat="46.04562" lon="4.41952">
        <ele>651.6</ele>
        <time>2025-10-04T10:05:35Z</time>
      </trkpt>
      <trkpt lat="46.04566" lon="4.41958">
        <ele>651.4</ele>
        <time>2025-10-04T10:05:36Z</time>
      </trkpt>
      <trkpt lat="46.04571" lon="4.41965">
        <ele>651</ele>
        <time>2025-10-04T10:05:37Z</time>
      </trkpt>
      <trkpt lat="46.04572" lon="4.41973">
        <ele>650.6</ele>
        <time>2025-10-04T10:05:38Z</time>
      </trkpt>
      <trkpt lat="46.04577" lon="4.41979">
        <ele>650.2</ele>
        <time>2025-10-04T10:05:39Z</time>
      </trkpt>
      <trkpt lat="46.04582" lon="4.41986">
        <ele>649.6</ele>
        <time>2025-10-04T10:05:40Z</time>
      </trkpt>
      <trkpt lat="46.04587" lon="4.41993">
        <ele>649.6</ele>
        <time>2025-10-04T10:05:41Z</time>
      </trkpt>
      <trkpt lat="46.04591" lon="4.42002">
        <ele>649.6</ele>
        <time>2025-10-04T10:05:42Z</time>
      </trkpt>
      <trkpt lat="46.04595" lon="4.42005">
        <ele>649.6</ele>
        <time>2025-10-04T10:05:43Z</time>
      </trkpt>
      <trkpt lat="46.04597" lon="4.42003">
        <ele>649.6</ele>
        <time>2025-10-04T10:05:44Z</time>
      </trkpt>
      <trkpt lat="46.04596" lon="4.42">
        <ele>649.6</ele>
        <time>2025-10-04T10:05:45Z</time>
      </trkpt>
      <trkpt lat="46.04599" lon="4.42001">
        <ele>649.6</ele>
        <time>2025-10-04T10:05:46Z</time>
      </trkpt>
      <trkpt lat="46.04602" lon="4.42003">
        <ele>649.2</ele>
        <time>2025-10-04T10:05:47Z</time>
      </trkpt>
      <trkpt lat="46.04606" lon="4.42003">
        <ele>648.4</ele>
        <time>2025-10-04T10:05:48Z</time>
      </trkpt>
      <trkpt lat="46.04611" lon="4.42004">
        <ele>648</ele>
        <time>2025-10-04T10:05:49Z</time>
      </trkpt>
      <trkpt lat="46.04616" lon="4.42009">
        <ele>647.8</ele>
        <time>2025-10-04T10:05:50Z</time>
      </trkpt>
      <trkpt lat="46.04623" lon="4.42012">
        <ele>647.2</ele>
        <time>2025-10-04T10:05:51Z</time>
      </trkpt>
      <trkpt lat="46.04629" lon="4.42016">
        <ele>646.4</ele>
        <time>2025-10-04T10:05:52Z</time>
      </trkpt>
      <trkpt lat="46.04636" lon="4.4202">
        <ele>645.8</ele>
        <time>2025-10-04T10:05:53Z</time>
      </trkpt>
      <trkpt lat="46.04643" lon="4.42024">
        <ele>645</ele>
        <time>2025-10-04T10:05:54Z</time>
      </trkpt>
      <trkpt lat="46.0465" lon="4.42026">
        <ele>644.4</ele>
        <time>2025-10-04T10:05:55Z</time>
      </trkpt>
      <trkpt lat="46.04656" lon="4.42029">
        <ele>644</ele>
        <time>2025-10-04T10:05:56Z</time>
      </trkpt>
      <trkpt lat="46.0466" lon="4.4203">
        <ele>643.4</ele>
        <time>2025-10-04T10:05:57Z</time>
      </trkpt>
      <trkpt lat="46.04665" lon="4.42031">
        <ele>643.2</ele>
        <time>2025-10-04T10:05:58Z</time>
      </trkpt>
      <trkpt lat="46.04671" lon="4.42031">
        <ele>642.6</ele>
        <time>2025-10-04T10:05:59Z</time>
      </trkpt>
      <trkpt lat="46.04676" lon="4.42032">
        <ele>642</ele>
        <time>2025-10-04T10:06:00Z</time>
      </trkpt>
      <trkpt lat="46.04683" lon="4.42032">
        <ele>641</ele>
        <time>2025-10-04T10:06:01Z</time>
      </trkpt>
      <trkpt lat="46.0469" lon="4.42032">
        <ele>640</ele>
        <time>2025-10-04T10:06:02Z</time>
      </trkpt>
      <trkpt lat="46.04697" lon="4.42033">
        <ele>639.2</ele>
        <time>2025-10-04T10:06:03Z</time>
      </trkpt>
      <trkpt lat="46.04705" lon="4.42032">
        <ele>638.2</ele>
        <time>2025-10-04T10:06:04Z</time>
      </trkpt>
      <trkpt lat="46.04714" lon="4.4203">
        <ele>636.8</ele>
        <time>2025-10-04T10:06:05Z</time>
      </trkpt>
      <trkpt lat="46.04724" lon="4.42028">
        <ele>635.8</ele>
        <time>2025-10-04T10:06:06Z</time>
      </trkpt>
      <trkpt lat="46.04734" lon="4.42028">
        <ele>634.2</ele>
        <time>2025-10-04T10:06:07Z</time>
      </trkpt>
      <trkpt lat="46.04742" lon="4.42027">
        <ele>632.6</ele>
        <time>2025-10-04T10:06:08Z</time>
      </trkpt>
      <trkpt lat="46.04753" lon="4.42026">
        <ele>631.2</ele>
        <time>2025-10-04T10:06:09Z</time>
      </trkpt>
      <trkpt lat="46.04764" lon="4.42024">
        <ele>630.2</ele>
        <time>2025-10-04T10:06:10Z</time>
      </trkpt>
      <trkpt lat="46.04775" lon="4.42024">
        <ele>628.8</ele>
        <time>2025-10-04T10:06:11Z</time>
      </trkpt>
      <trkpt lat="46.04786" lon="4.42025">
        <ele>627</ele>
        <time>2025-10-04T10:06:12Z</time>
      </trkpt>
      <trkpt lat="46.04797" lon="4.42027">
        <ele>625.6</ele>
        <time>2025-10-04T10:06:13Z</time>
      </trkpt>
      <trkpt lat="46.04808" lon="4.42028">
        <ele>624.8</ele>
        <time>2025-10-04T10:06:14Z</time>
      </trkpt>
      <trkpt lat="46.04816" lon="4.42029">
        <ele>623.8</ele>
        <time>2025-10-04T10:06:15Z</time>
      </trkpt>
      <trkpt lat="46.04826" lon="4.42031">
        <ele>622.8</ele>
        <time>2025-10-04T10:06:16Z</time>
      </trkpt>
      <trkpt lat="46.04832" lon="4.42032">
        <ele>622.2</ele>
        <time>2025-10-04T10:06:17Z</time>
      </trkpt>
      <trkpt lat="46.04839" lon="4.42034">
        <ele>621.4</ele>
        <time>2025-10-04T10:06:18Z</time>
      </trkpt>
      <trkpt lat="46.04845" lon="4.42035">
        <ele>620.8</ele>
        <time>2025-10-04T10:06:19Z</time>
      </trkpt>
      <trkpt lat="46.04851" lon="4.42035">
        <ele>620</ele>
        <time>2025-10-04T10:06:20Z</time>
      </trkpt>
      <trkpt lat="46.04856" lon="4.42037">
        <ele>619.6</ele>
        <time>2025-10-04T10:06:21Z</time>
      </trkpt>
      <trkpt lat="46.04859" lon="4.42037">
        <ele>618.8</ele>
        <time>2025-10-04T10:06:22Z</time>
      </trkpt>
      <trkpt lat="46.04864" lon="4.42039">
        <ele>618.2</ele>
        <time>2025-10-04T10:06:23Z</time>
      </trkpt>
      <trkpt lat="46.04868" lon="4.42041">
        <ele>617.8</ele>
        <time>2025-10-04T10:06:24Z</time>
      </trkpt>
      <trkpt lat="46.04871" lon="4.42045">
        <ele>617.6</ele>
        <time>2025-10-04T10:06:25Z</time>
      </trkpt>
      <trkpt lat="46.04873" lon="4.4205">
        <ele>617.2</ele>
        <time>2025-10-04T10:06:26Z</time>
      </trkpt>
      <trkpt lat="46.04873" lon="4.42056">
        <ele>616.6</ele>
        <time>2025-10-04T10:06:27Z</time>
      </trkpt>
      <trkpt lat="46.04874" lon="4.42061">
        <ele>615.8</ele>
        <time>2025-10-04T10:06:28Z</time>
      </trkpt>
      <trkpt lat="46.04874" lon="4.42067">
        <ele>614.8</ele>
        <time>2025-10-04T10:06:29Z</time>
      </trkpt>
      <trkpt lat="46.04871" lon="4.42075">
        <ele>614</ele>
        <time>2025-10-04T10:06:30Z</time>
      </trkpt>
      <trkpt lat="46.04869" lon="4.42082">
        <ele>613</ele>
        <time>2025-10-04T10:06:31Z</time>
      </trkpt>
      <trkpt lat="46.04866" lon="4.42092">
        <ele>611.4</ele>
        <time>2025-10-04T10:06:32Z</time>
      </trkpt>
      <trkpt lat="46.04862" lon="4.42103">
        <ele>610.4</ele>
        <time>2025-10-04T10:06:33Z</time>
      </trkpt>
      <trkpt lat="46.04858" lon="4.42114">
        <ele>609.2</ele>
        <time>2025-10-04T10:06:34Z</time>
      </trkpt>
      <trkpt lat="46.04849" lon="4.4213">
        <ele>608.4</ele>
        <time>2025-10-04T10:06:35Z</time>
      </trkpt>
      <trkpt lat="46.04842" lon="4.42147">
        <ele>607.6</ele>
        <time>2025-10-04T10:06:36Z</time>
      </trkpt>
      <trkpt lat="46.04838" lon="4.42162">
        <ele>606.8</ele>
        <time>2025-10-04T10:06:37Z</time>
      </trkpt>
      <trkpt lat="46.04839" lon="4.42173">
        <ele>606.4</ele>
        <time>2025-10-04T10:06:38Z</time>
      </trkpt>
      <trkpt lat="46.04839" lon="4.42182">
        <ele>606</ele>
        <time>2025-10-04T10:06:39Z</time>
      </trkpt>
      <trkpt lat="46.04841" lon="4.42192">
        <ele>605.8</ele>
        <time>2025-10-04T10:06:40Z</time>
      </trkpt>
      <trkpt lat="46.04842" lon="4.42201">
        <ele>605.8</ele>
        <time>2025-10-04T10:06:41Z</time>
      </trkpt>
      <trkpt lat="46.0485" lon="4.42198">
        <ele>605.4</ele>
        <time>2025-10-04T10:06:42Z</time>
      </trkpt>
      <trkpt lat="46.04857" lon="4.42195">
        <ele>605.4</ele>
        <time>2025-10-04T10:06:43Z</time>
      </trkpt>
      <trkpt lat="46.04861" lon="4.42195">
        <ele>605.2</ele>
        <time>2025-10-04T10:06:44Z</time>
      </trkpt>
      <trkpt lat="46.04868" lon="4.42195">
        <ele>605.2</ele>
        <time>2025-10-04T10:06:45Z</time>
      </trkpt>
      <trkpt lat="46.04873" lon="4.42197">
        <ele>605.2</ele>
        <time>2025-10-04T10:06:46Z</time>
      </trkpt>
      <trkpt lat="46.04878" lon="4.42198">
        <ele>605.2</ele>
        <time>2025-10-04T10:06:47Z</time>
      </trkpt>
      <trkpt lat="46.04883" lon="4.42199">
        <ele>605.2</ele>
        <time>2025-10-04T10:06:48Z</time>
      </trkpt>
      <trkpt lat="46.04888" lon="4.42201">
        <ele>605.4</ele>
        <time>2025-10-04T10:06:49Z</time>
      </trkpt>
      <trkpt lat="46.04893" lon="4.42201">
        <ele>606</ele>
        <time>2025-10-04T10:06:50Z</time>
      </trkpt>
      <trkpt lat="46.04897" lon="4.42203">
        <ele>606.2</ele>
        <time>2025-10-04T10:06:51Z</time>
      </trkpt>
      <trkpt lat="46.04901" lon="4.42205">
        <ele>606.6</ele>
        <time>2025-10-04T10:06:52Z</time>
      </trkpt>
      <trkpt lat="46.04904" lon="4.42206">
        <ele>606.8</ele>
        <time>2025-10-04T10:06:53Z</time>
      </trkpt>
      <trkpt lat="46.04907" lon="4.42207">
        <ele>607.2</ele>
        <time>2025-10-04T10:06:54Z</time>
      </trkpt>
      <trkpt lat="46.0491" lon="4.42208">
        <ele>607.6</ele>
        <time>2025-10-04T10:06:55Z</time>
      </trkpt>
      <trkpt lat="46.04913" lon="4.42209">
        <ele>608</ele>
        <time>2025-10-04T10:06:56Z</time>
      </trkpt>
      <trkpt lat="46.04915" lon="4.42211">
        <ele>608.4</ele>
        <time>2025-10-04T10:06:57Z</time>
      </trkpt>
      <trkpt lat="46.04917" lon="4.42212">
        <ele>608.8</ele>
        <time>2025-10-04T10:06:58Z</time>
      </trkpt>
      <trkpt lat="46.04919" lon="4.42213">
        <ele>609.2</ele>
        <time>2025-10-04T10:06:59Z</time>
      </trkpt>
      <trkpt lat="46.04921" lon="4.42214">
        <ele>609.6</ele>
        <time>2025-10-04T10:07:00Z</time>
      </trkpt>
      <trkpt lat="46.04923" lon="4.42215">
        <ele>609.8</ele>
        <time>2025-10-04T10:07:01Z</time>
      </trkpt>
      <trkpt lat="46.04924" lon="4.42216">
        <ele>610.2</ele>
        <time>2025-10-04T10:07:02Z</time>
      </trkpt>
      <trkpt lat="46.04926" lon="4.42218">
        <ele>610.6</ele>
        <time>2025-10-04T10:07:03Z</time>
      </trkpt>
      <trkpt lat="46.04928" lon="4.42219">
        <ele>610.8</ele>
        <time>2025-10-04T10:07:04Z</time>
      </trkpt>
      <trkpt lat="46.04929" lon="4.4222">
        <ele>611.2</ele>
        <time>2025-10-04T10:07:05Z</time>
      </trkpt>
      <trkpt lat="46.04931" lon="4.42222">
        <ele>611.4</ele>
        <time>2025-10-04T10:07:06Z</time>
      </trkpt>
      <trkpt lat="46.04932" lon="4.42223">
        <ele>611.8</ele>
        <time>2025-10-04T10:07:07Z</time>
      </trkpt>
      <trkpt lat="46.04934" lon="4.42225">
        <ele>612.2</ele>
        <time>2025-10-04T10:07:08Z</time>
      </trkpt>
      <trkpt lat="46.04935" lon="4.42226">
        <ele>612.2</ele>
        <time>2025-10-04T10:07:09Z</time>
      </trkpt>
      <trkpt lat="46.04936" lon="4.42227">
        <ele>612.6</ele>
        <time>2025-10-04T10:07:10Z</time>
      </trkpt>
      <trkpt lat="46.04937" lon="4.42229">
        <ele>612.8</ele>
        <time>2025-10-04T10:07:11Z</time>
      </trkpt>
      <trkpt lat="46.04938" lon="4.4223">
        <ele>613.2</ele>
        <time>2025-10-04T10:07:12Z</time>
      </trkpt>
      <trkpt lat="46.0494" lon="4.42231">
        <ele>613.6</ele>
        <time>2025-10-04T10:07:13Z</time>
      </trkpt>
      <trkpt lat="46.04941" lon="4.42232">
        <ele>613.8</ele>
        <time>2025-10-04T10:07:14Z</time>
      </trkpt>
      <trkpt lat="46.04942" lon="4.42232">
        <ele>613.8</ele>
        <time>2025-10-04T10:07:15Z</time>
      </trkpt>
      <trkpt lat="46.04943" lon="4.42233">
        <ele>614.2</ele>
        <time>2025-10-04T10:07:16Z</time>
      </trkpt>
      <trkpt lat="46.04945" lon="4.42234">
        <ele>614.4</ele>
        <time>2025-10-04T10:07:17Z</time>
      </trkpt>
      <trkpt lat="46.04946" lon="4.42234">
        <ele>614.4</ele>
        <time>2025-10-04T10:07:18Z</time>
      </trkpt>
      <trkpt lat="46.04947" lon="4.42235">
        <ele>614.8</ele>
        <time>2025-10-04T10:07:19Z</time>
      </trkpt>
      <trkpt lat="46.04948" lon="4.42236">
        <ele>614.8</ele>
        <time>2025-10-04T10:07:20Z</time>
      </trkpt>
      <trkpt lat="46.04949" lon="4.42237">
        <ele>615.2</ele>
        <time>2025-10-04T10:07:21Z</time>
      </trkpt>
      <trkpt lat="46.0495" lon="4.42238">
        <ele>615.4</ele>
        <time>2025-10-04T10:07:22Z</time>
      </trkpt>
      <trkpt lat="46.04951" lon="4.42239">
        <ele>615.4</ele>
        <time>2025-10-04T10:07:23Z</time>
      </trkpt>
      <trkpt lat="46.04952" lon="4.4224">
        <ele>615.8</ele>
        <time>2025-10-04T10:07:24Z</time>
      </trkpt>
      <trkpt lat="46.04953" lon="4.42241">
        <ele>615.8</ele>
        <time>2025-10-04T10:07:25Z</time>
      </trkpt>
      <trkpt lat="46.04955" lon="4.42241">
        <ele>616.2</ele>
        <time>2025-10-04T10:07:26Z</time>
      </trkpt>
      <trkpt lat="46.04956" lon="4.42242">
        <ele>616.4</ele>
        <time>2025-10-04T10:07:27Z</time>
      </trkpt>
      <trkpt lat="46.04957" lon="4.42242">
        <ele>616.6</ele>
        <time>2025-10-04T10:07:28Z</time>
      </trkpt>
      <trkpt lat="46.04959" lon="4.42243">
        <ele>616.6</ele>
        <time>2025-10-04T10:07:29Z</time>
      </trkpt>
      <trkpt lat="46.0496" lon="4.42244">
        <ele>617</ele>
        <time>2025-10-04T10:07:30Z</time>
      </trkpt>
      <trkpt lat="46.04962" lon="4.42244">
        <ele>617.2</ele>
        <time>2025-10-04T10:07:31Z</time>
      </trkpt>
      <trkpt lat="46.04963" lon="4.42245">
        <ele>617.4</ele>
        <time>2025-10-04T10:07:32Z</time>
      </trkpt>
      <trkpt lat="46.04965" lon="4.42245">
        <ele>617.8</ele>
        <time>2025-10-04T10:07:33Z</time>
      </trkpt>
      <trkpt lat="46.04966" lon="4.42245">
        <ele>618</ele>
        <time>2025-10-04T10:07:34Z</time>
      </trkpt>
      <trkpt lat="46.04967" lon="4.42246">
        <ele>618.4</ele>
        <time>2025-10-04T10:07:35Z</time>
      </trkpt>
      <trkpt lat="46.04968" lon="4.42246">
        <ele>618.4</ele>
        <time>2025-10-04T10:07:36Z</time>
      </trkpt>
      <trkpt lat="46.04969" lon="4.42246">
        <ele>618.8</ele>
        <time>2025-10-04T10:07:37Z</time>
      </trkpt>
      <trkpt lat="46.04971" lon="4.42247">
        <ele>618.8</ele>
        <time>2025-10-04T10:07:38Z</time>
      </trkpt>
      <trkpt lat="46.04972" lon="4.42247">
        <ele>619</ele>
        <time>2025-10-04T10:07:39Z</time>
      </trkpt>
      <trkpt lat="46.04973" lon="4.42248">
        <ele>619</ele>
        <time>2025-10-04T10:07:40Z</time>
      </trkpt>
      <trkpt lat="46.04975" lon="4.42248">
        <ele>619.2</ele>
        <time>2025-10-04T10:07:41Z</time>
      </trkpt>
      <trkpt lat="46.04976" lon="4.42249">
        <ele>619.6</ele>
        <time>2025-10-04T10:07:42Z</time>
      </trkpt>
      <trkpt lat="46.04977" lon="4.42249">
        <ele>619.6</ele>
        <time>2025-10-04T10:07:43Z</time>
      </trkpt>
      <trkpt lat="46.04979" lon="4.4225">
        <ele>620</ele>
        <time>2025-10-04T10:07:44Z</time>
      </trkpt>
      <trkpt lat="46.0498" lon="4.4225">
        <ele>620.2</ele>
        <time>2025-10-04T10:07:45Z</time>
      </trkpt>
      <trkpt lat="46.04982" lon="4.42251">
        <ele>620.2</ele>
        <time>2025-10-04T10:07:46Z</time>
      </trkpt>
      <trkpt lat="46.04983" lon="4.42251">
        <ele>620.4</ele>
        <time>2025-10-04T10:07:47Z</time>
      </trkpt>
      <trkpt lat="46.04984" lon="4.42252">
        <ele>620.8</ele>
        <time>2025-10-04T10:07:48Z</time>
      </trkpt>
      <trkpt lat="46.04986" lon="4.42253">
        <ele>620.8</ele>
        <time>2025-10-04T10:07:49Z</time>
      </trkpt>
      <trkpt lat="46.04987" lon="4.42255">
        <ele>621</ele>
        <time>2025-10-04T10:07:50Z</time>
      </trkpt>
      <trkpt lat="46.04989" lon="4.42256">
        <ele>621</ele>
        <time>2025-10-04T10:07:51Z</time>
      </trkpt>
      <trkpt lat="46.0499" lon="4.42257">
        <ele>621.4</ele>
        <time>2025-10-04T10:07:52Z</time>
      </trkpt>
      <trkpt lat="46.04992" lon="4.42258">
        <ele>621.4</ele>
        <time>2025-10-04T10:07:53Z</time>
      </trkpt>
      <trkpt lat="46.04993" lon="4.42259">
        <ele>621.6</ele>
        <time>2025-10-04T10:07:54Z</time>
      </trkpt>
      <trkpt lat="46.04995" lon="4.4226">
        <ele>621.6</ele>
        <time>2025-10-04T10:07:55Z</time>
      </trkpt>
      <trkpt lat="46.04996" lon="4.4226">
        <ele>621.8</ele>
        <time>2025-10-04T10:07:56Z</time>
      </trkpt>
      <trkpt lat="46.04996" lon="4.4226">
        <ele>622.2</ele>
        <time>2025-10-04T10:07:57Z</time>
      </trkpt>
      <trkpt lat="46.04997" lon="4.42261">
        <ele>622.2</ele>
        <time>2025-10-04T10:07:58Z</time>
      </trkpt>
      <trkpt lat="46.04998" lon="4.42262">
        <ele>622.4</ele>
        <time>2025-10-04T10:07:59Z</time>
      </trkpt>
      <trkpt lat="46.05" lon="4.42263">
        <ele>622.4</ele>
        <time>2025-10-04T10:08:00Z</time>
      </trkpt>
      <trkpt lat="46.05001" lon="4.42264">
        <ele>622.8</ele>
        <time>2025-10-04T10:08:01Z</time>
      </trkpt>
      <trkpt lat="46.05002" lon="4.42265">
        <ele>622.8</ele>
        <time>2025-10-04T10:08:02Z</time>
      </trkpt>
      <trkpt lat="46.05003" lon="4.42266">
        <ele>623</ele>
        <time>2025-10-04T10:08:03Z</time>
      </trkpt>
      <trkpt lat="46.05004" lon="4.42267">
        <ele>623</ele>
        <time>2025-10-04T10:08:04Z</time>
      </trkpt>
      <trkpt lat="46.05005" lon="4.42268">
        <ele>623.4</ele>
        <time>2025-10-04T10:08:05Z</time>
      </trkpt>
      <trkpt lat="46.05006" lon="4.42269">
        <ele>623.8</ele>
        <time>2025-10-04T10:08:06Z</time>
      </trkpt>
      <trkpt lat="46.05007" lon="4.4227">
        <ele>624</ele>
        <time>2025-10-04T10:08:07Z</time>
      </trkpt>
      <trkpt lat="46.05009" lon="4.42272">
        <ele>624.2</ele>
        <time>2025-10-04T10:08:08Z</time>
      </trkpt>
      <trkpt lat="46.0501" lon="4.42272">
        <ele>624.2</ele>
        <time>2025-10-04T10:08:09Z</time>
      </trkpt>
      <trkpt lat="46.05011" lon="4.42273">
        <ele>624.6</ele>
        <time>2025-10-04T10:08:10Z</time>
      </trkpt>
      <trkpt lat="46.05012" lon="4.42274">
        <ele>624.6</ele>
        <time>2025-10-04T10:08:11Z</time>
      </trkpt>
      <trkpt lat="46.05014" lon="4.42276">
        <ele>624.8</ele>
        <time>2025-10-04T10:08:12Z</time>
      </trkpt>
      <trkpt lat="46.05015" lon="4.42277">
        <ele>624.8</ele>
        <time>2025-10-04T10:08:13Z</time>
      </trkpt>
      <trkpt lat="46.05017" lon="4.42278">
        <ele>625.2</ele>
        <time>2025-10-04T10:08:14Z</time>
      </trkpt>
      <trkpt lat="46.05018" lon="4.42279">
        <ele>625.4</ele>
        <time>2025-10-04T10:08:15Z</time>
      </trkpt>
      <trkpt lat="46.0502" lon="4.4228">
        <ele>625.6</ele>
        <time>2025-10-04T10:08:16Z</time>
      </trkpt>
      <trkpt lat="46.05021" lon="4.42281">
        <ele>626</ele>
        <time>2025-10-04T10:08:17Z</time>
      </trkpt>
      <trkpt lat="46.05023" lon="4.42282">
        <ele>626.2</ele>
        <time>2025-10-04T10:08:18Z</time>
      </trkpt>
      <trkpt lat="46.05024" lon="4.42283">
        <ele>626.2</ele>
        <time>2025-10-04T10:08:19Z</time>
      </trkpt>
      <trkpt lat="46.05026" lon="4.42284">
        <ele>626.4</ele>
        <time>2025-10-04T10:08:20Z</time>
      </trkpt>
      <trkpt lat="46.05027" lon="4.42285">
        <ele>626.4</ele>
        <time>2025-10-04T10:08:21Z</time>
      </trkpt>
      <trkpt lat="46.05028" lon="4.42286">
        <ele>627</ele>
        <time>2025-10-04T10:08:22Z</time>
      </trkpt>
      <trkpt lat="46.0503" lon="4.42288">
        <ele>627</ele>
        <time>2025-10-04T10:08:23Z</time>
      </trkpt>
      <trkpt lat="46.05031" lon="4.42289">
        <ele>627.2</ele>
        <time>2025-10-04T10:08:24Z</time>
      </trkpt>
      <trkpt lat="46.05033" lon="4.4229">
        <ele>627.2</ele>
        <time>2025-10-04T10:08:25Z</time>
      </trkpt>
      <trkpt lat="46.05034" lon="4.42291">
        <ele>627.6</ele>
        <time>2025-10-04T10:08:26Z</time>
      </trkpt>
      <trkpt lat="46.05035" lon="4.42292">
        <ele>627.6</ele>
        <time>2025-10-04T10:08:27Z</time>
      </trkpt>
      <trkpt lat="46.05036" lon="4.42294">
        <ele>628</ele>
        <time>2025-10-04T10:08:28Z</time>
      </trkpt>
      <trkpt lat="46.05038" lon="4.42296">
        <ele>628.2</ele>
        <time>2025-10-04T10:08:29Z</time>
      </trkpt>
      <trkpt lat="46.05039" lon="4.42297">
        <ele>628.2</ele>
        <time>2025-10-04T10:08:30Z</time>
      </trkpt>
      <trkpt lat="46.0504" lon="4.42298">
        <ele>628.2</ele>
        <time>2025-10-04T10:08:31Z</time>
      </trkpt>
      <trkpt lat="46.05041" lon="4.423">
        <ele>628.6</ele>
        <time>2025-10-04T10:08:32Z</time>
      </trkpt>
      <trkpt lat="46.05042" lon="4.42301">
        <ele>628.6</ele>
        <time>2025-10-04T10:08:33Z</time>
      </trkpt>
      <trkpt lat="46.05045" lon="4.42303">
        <ele>629</ele>
        <time>2025-10-04T10:08:34Z</time>
      </trkpt>
      <trkpt lat="46.05046" lon="4.42304">
        <ele>629</ele>
        <time>2025-10-04T10:08:35Z</time>
      </trkpt>
      <trkpt lat="46.05048" lon="4.42306">
        <ele>629.2</ele>
        <time>2025-10-04T10:08:36Z</time>
      </trkpt>
      <trkpt lat="46.05049" lon="4.42307">
        <ele>629.8</ele>
        <time>2025-10-04T10:08:37Z</time>
      </trkpt>
      <trkpt lat="46.0505" lon="4.42309">
        <ele>630</ele>
        <time>2025-10-04T10:08:38Z</time>
      </trkpt>
      <trkpt lat="46.05052" lon="4.4231">
        <ele>630.4</ele>
        <time>2025-10-04T10:08:39Z</time>
      </trkpt>
      <trkpt lat="46.05053" lon="4.42311">
        <ele>630.6</ele>
        <time>2025-10-04T10:08:40Z</time>
      </trkpt>
      <trkpt lat="46.05054" lon="4.42312">
        <ele>630.6</ele>
        <time>2025-10-04T10:08:41Z</time>
      </trkpt>
      <trkpt lat="46.05055" lon="4.42313">
        <ele>630.8</ele>
        <time>2025-10-04T10:08:42Z</time>
      </trkpt>
      <trkpt lat="46.05056" lon="4.42315">
        <ele>630.8</ele>
        <time>2025-10-04T10:08:43Z</time>
      </trkpt>
      <trkpt lat="46.05057" lon="4.42316">
        <ele>631.2</ele>
        <time>2025-10-04T10:08:44Z</time>
      </trkpt>
      <trkpt lat="46.05059" lon="4.42318">
        <ele>631.4</ele>
        <time>2025-10-04T10:08:45Z</time>
      </trkpt>
      <trkpt lat="46.0506" lon="4.42319">
        <ele>631.6</ele>
        <time>2025-10-04T10:08:46Z</time>
      </trkpt>
      <trkpt lat="46.05062" lon="4.42321">
        <ele>632</ele>
        <time>2025-10-04T10:08:47Z</time>
      </trkpt>
      <trkpt lat="46.05063" lon="4.42322">
        <ele>632.2</ele>
        <time>2025-10-04T10:08:48Z</time>
      </trkpt>
      <trkpt lat="46.05064" lon="4.42324">
        <ele>632.4</ele>
        <time>2025-10-04T10:08:49Z</time>
      </trkpt>
      <trkpt lat="46.05065" lon="4.42325">
        <ele>632.4</ele>
        <time>2025-10-04T10:08:50Z</time>
      </trkpt>
      <trkpt lat="46.05067" lon="4.42326">
        <ele>632.8</ele>
        <time>2025-10-04T10:08:51Z</time>
      </trkpt>
      <trkpt lat="46.05068" lon="4.42327">
        <ele>632.8</ele>
        <time>2025-10-04T10:08:52Z</time>
      </trkpt>
      <trkpt lat="46.05069" lon="4.42329">
        <ele>632.8</ele>
        <time>2025-10-04T10:08:53Z</time>
      </trkpt>
      <trkpt lat="46.0507" lon="4.4233">
        <ele>633.2</ele>
        <time>2025-10-04T10:08:54Z</time>
      </trkpt>
      <trkpt lat="46.05071" lon="4.42331">
        <ele>633.4</ele>
        <time>2025-10-04T10:08:55Z</time>
      </trkpt>
      <trkpt lat="46.05073" lon="4.42332">
        <ele>633.6</ele>
        <time>2025-10-04T10:08:56Z</time>
      </trkpt>
      <trkpt lat="46.05074" lon="4.42333">
        <ele>633.6</ele>
        <time>2025-10-04T10:08:57Z</time>
      </trkpt>
      <trkpt lat="46.05075" lon="4.42335">
        <ele>633.8</ele>
        <time>2025-10-04T10:08:58Z</time>
      </trkpt>
      <trkpt lat="46.05076" lon="4.42336">
        <ele>634.2</ele>
        <time>2025-10-04T10:08:59Z</time>
      </trkpt>
      <trkpt lat="46.05078" lon="4.42337">
        <ele>634.2</ele>
        <time>2025-10-04T10:09:00Z</time>
      </trkpt>
      <trkpt lat="46.05079" lon="4.42339">
        <ele>634.2</ele>
        <time>2025-10-04T10:09:01Z</time>
      </trkpt>
      <trkpt lat="46.0508" lon="4.4234">
        <ele>634.6</ele>
        <time>2025-10-04T10:09:02Z</time>
      </trkpt>
      <trkpt lat="46.05081" lon="4.42342">
        <ele>634.6</ele>
        <time>2025-10-04T10:09:03Z</time>
      </trkpt>
      <trkpt lat="46.05082" lon="4.42344">
        <ele>634.8</ele>
        <time>2025-10-04T10:09:04Z</time>
      </trkpt>
      <trkpt lat="46.05083" lon="4.42345">
        <ele>635</ele>
        <time>2025-10-04T10:09:05Z</time>
      </trkpt>
      <trkpt lat="46.05084" lon="4.42347">
        <ele>635.2</ele>
        <time>2025-10-04T10:09:06Z</time>
      </trkpt>
      <trkpt lat="46.05086" lon="4.42348">
        <ele>635.2</ele>
        <time>2025-10-04T10:09:07Z</time>
      </trkpt>
      <trkpt lat="46.05087" lon="4.42349">
        <ele>635.6</ele>
        <time>2025-10-04T10:09:08Z</time>
      </trkpt>
      <trkpt lat="46.05088" lon="4.42351">
        <ele>635.8</ele>
        <time>2025-10-04T10:09:09Z</time>
      </trkpt>
      <trkpt lat="46.05089" lon="4.42352">
        <ele>635.8</ele>
        <time>2025-10-04T10:09:10Z</time>
      </trkpt>
      <trkpt lat="46.0509" lon="4.42353">
        <ele>636.4</ele>
        <time>2025-10-04T10:09:11Z</time>
      </trkpt>
      <trkpt lat="46.05091" lon="4.42354">
        <ele>636.6</ele>
        <time>2025-10-04T10:09:12Z</time>
      </trkpt>
      <trkpt lat="46.05093" lon="4.42355">
        <ele>636.8</ele>
        <time>2025-10-04T10:09:13Z</time>
      </trkpt>
      <trkpt lat="46.05094" lon="4.42356">
        <ele>636.8</ele>
        <time>2025-10-04T10:09:14Z</time>
      </trkpt>
      <trkpt lat="46.05095" lon="4.42358">
        <ele>637.2</ele>
        <time>2025-10-04T10:09:15Z</time>
      </trkpt>
      <trkpt lat="46.05096" lon="4.42359">
        <ele>637.6</ele>
        <time>2025-10-04T10:09:16Z</time>
      </trkpt>
      <trkpt lat="46.05097" lon="4.4236">
        <ele>637.6</ele>
        <time>2025-10-04T10:09:17Z</time>
      </trkpt>
      <trkpt lat="46.05099" lon="4.42361">
        <ele>637.8</ele>
        <time>2025-10-04T10:09:18Z</time>
      </trkpt>
      <trkpt lat="46.051" lon="4.42363">
        <ele>638.2</ele>
        <time>2025-10-04T10:09:19Z</time>
      </trkpt>
      <trkpt lat="46.051" lon="4.42364">
        <ele>638.4</ele>
        <time>2025-10-04T10:09:20Z</time>
      </trkpt>
      <trkpt lat="46.05101" lon="4.42366">
        <ele>638.4</ele>
        <time>2025-10-04T10:09:21Z</time>
      </trkpt>
      <trkpt lat="46.05102" lon="4.42367">
        <ele>638.8</ele>
        <time>2025-10-04T10:09:22Z</time>
      </trkpt>
      <trkpt lat="46.05103" lon="4.42369">
        <ele>638.8</ele>
        <time>2025-10-04T10:09:23Z</time>
      </trkpt>
      <trkpt lat="46.05103" lon="4.4237">
        <ele>638.8</ele>
        <time>2025-10-04T10:09:24Z</time>
      </trkpt>
      <trkpt lat="46.05104" lon="4.4237">
        <ele>638.8</ele>
        <time>2025-10-04T10:09:25Z</time>
      </trkpt>
      <trkpt lat="46.05104" lon="4.4237">
        <ele>638.8</ele>
        <time>2025-10-04T10:09:26Z</time>
      </trkpt>
      <trkpt lat="46.05104" lon="4.42369">
        <ele>638.8</ele>
        <time>2025-10-04T10:09:27Z</time>
      </trkpt>
      <trkpt lat="46.05105" lon="4.42371">
        <ele>639.4</ele>
        <time>2025-10-04T10:11:00Z</time>
      </trkpt>
      <trkpt lat="46.05107" lon="4.42373">
        <ele>639.4</ele>
        <time>2025-10-04T10:11:01Z</time>
      </trkpt>
      <trkpt lat="46.05109" lon="4.42375">
        <ele>639.4</ele>
        <time>2025-10-04T10:11:02Z</time>
      </trkpt>
      <trkpt lat="46.05112" lon="4.42377">
        <ele>639.4</ele>
        <time>2025-10-04T10:11:03Z</time>
      </trkpt>
      <trkpt lat="46.05114" lon="4.42379">
        <ele>639.4</ele>
        <time>2025-10-04T10:11:04Z</time>
      </trkpt>
      <trkpt lat="46.05116" lon="4.42381">
        <ele>639.4</ele>
        <time>2025-10-04T10:11:05Z</time>
      </trkpt>
      <trkpt lat="46.05119" lon="4.42383">
        <ele>639.4</ele>
        <time>2025-10-04T10:11:06Z</time>
      </trkpt>
      <trkpt lat="46.05121" lon="4.42385">
        <ele>639.4</ele>
        <time>2025-10-04T10:11:07Z</time>
      </trkpt>
      <trkpt lat="46.05123" lon="4.42387">
        <ele>639.4</ele>
        <time>2025-10-04T10:11:08Z</time>
      </trkpt>
      <trkpt lat="46.05126" lon="4.42389">
        <ele>639.4</ele>
        <time>2025-10-04T10:11:09Z</time>
      </trkpt>
      <trkpt lat="46.05129" lon="4.42392">
        <ele>639.4</ele>
        <time>2025-10-04T10:11:10Z</time>
      </trkpt>
      <trkpt lat="46.05131" lon="4.42395">
        <ele>639.4</ele>
        <time>2025-10-04T10:11:11Z</time>
      </trkpt>
      <trkpt lat="46.05134" lon="4.42398">
        <ele>639.4</ele>
        <time>2025-10-04T10:11:12Z</time>
      </trkpt>
      <trkpt lat="46.05137" lon="4.42401">
        <ele>639.4</ele>
        <time>2025-10-04T10:11:13Z</time>
      </trkpt>
      <trkpt lat="46.05139" lon="4.42403">
        <ele>639.6</ele>
        <time>2025-10-04T10:11:14Z</time>
      </trkpt>
      <trkpt lat="46.05141" lon="4.42406">
        <ele>639.6</ele>
        <time>2025-10-04T10:11:15Z</time>
      </trkpt>
      <trkpt lat="46.05144" lon="4.42408">
        <ele>639.6</ele>
        <time>2025-10-04T10:11:16Z</time>
      </trkpt>
      <trkpt lat="46.05146" lon="4.42411">
        <ele>640</ele>
        <time>2025-10-04T10:11:17Z</time>
      </trkpt>
      <trkpt lat="46.05149" lon="4.42413">
        <ele>640</ele>
        <time>2025-10-04T10:11:18Z</time>
      </trkpt>
      <trkpt lat="46.05152" lon="4.42416">
        <ele>640.2</ele>
        <time>2025-10-04T10:11:19Z</time>
      </trkpt>
      <trkpt lat="46.05155" lon="4.42419">
        <ele>640.2</ele>
        <time>2025-10-04T10:11:20Z</time>
      </trkpt>
      <trkpt lat="46.05158" lon="4.42421">
        <ele>640.2</ele>
        <time>2025-10-04T10:11:21Z</time>
      </trkpt>
      <trkpt lat="46.05161" lon="4.42424">
        <ele>640.6</ele>
        <time>2025-10-04T10:11:22Z</time>
      </trkpt>
      <trkpt lat="46.05165" lon="4.42426">
        <ele>640.6</ele>
        <time>2025-10-04T10:11:23Z</time>
      </trkpt>
      <trkpt lat="46.05168" lon="4.42429">
        <ele>640.8</ele>
        <time>2025-10-04T10:11:24Z</time>
      </trkpt>
      <trkpt lat="46.05172" lon="4.42431">
        <ele>640.8</ele>
        <time>2025-10-04T10:11:25Z</time>
      </trkpt>
      <trkpt lat="46.05175" lon="4.42433">
        <ele>641.2</ele>
        <time>2025-10-04T10:11:26Z</time>
      </trkpt>
      <trkpt lat="46.05179" lon="4.42435">
        <ele>641.2</ele>
        <time>2025-10-04T10:11:27Z</time>
      </trkpt>
      <trkpt lat="46.05182" lon="4.42437">
        <ele>641.6</ele>
        <time>2025-10-04T10:11:28Z</time>
      </trkpt>
      <trkpt lat="46.05186" lon="4.42439">
        <ele>641.8</ele>
        <time>2025-10-04T10:11:29Z</time>
      </trkpt>
      <trkpt lat="46.0519" lon="4.42441">
        <ele>641.8</ele>
        <time>2025-10-04T10:11:30Z</time>
      </trkpt>
      <trkpt lat="46.05193" lon="4.42443">
        <ele>641.8</ele>
        <time>2025-10-04T10:11:31Z</time>
      </trkpt>
      <trkpt lat="46.05197" lon="4.42445">
        <ele>642.2</ele>
        <time>2025-10-04T10:11:32Z</time>
      </trkpt>
      <trkpt lat="46.05201" lon="4.42447">
        <ele>642.4</ele>
        <time>2025-10-04T10:11:33Z</time>
      </trkpt>
      <trkpt lat="46.05205" lon="4.42449">
        <ele>642.4</ele>
        <time>2025-10-04T10:11:34Z</time>
      </trkpt>
      <trkpt lat="46.05209" lon="4.42451">
        <ele>642.4</ele>
        <time>2025-10-04T10:11:35Z</time>
      </trkpt>
      <trkpt lat="46.05212" lon="4.42453">
        <ele>642.6</ele>
        <time>2025-10-04T10:11:36Z</time>
      </trkpt>
      <trkpt lat="46.05217" lon="4.42455">
        <ele>642.6</ele>
        <time>2025-10-04T10:11:37Z</time>
      </trkpt>
      <trkpt lat="46.05221" lon="4.42457">
        <ele>642.6</ele>
        <time>2025-10-04T10:11:38Z</time>
      </trkpt>
      <trkpt lat="46.05224" lon="4.42459">
        <ele>642.6</ele>
        <time>2025-10-04T10:11:39Z</time>
      </trkpt>
      <trkpt lat="46.05229" lon="4.42462">
        <ele>642.6</ele>
        <time>2025-10-04T10:11:40Z</time>
      </trkpt>
      <trkpt lat="46.05233" lon="4.42464">
        <ele>643</ele>
        <time>2025-10-04T10:11:41Z</time>
      </trkpt>
      <trkpt lat="46.05237" lon="4.42465">
        <ele>643</ele>
        <time>2025-10-04T10:11:42Z</time>
      </trkpt>
      <trkpt lat="46.0524" lon="4.42468">
        <ele>643</ele>
        <time>2025-10-04T10:11:43Z</time>
      </trkpt>
      <trkpt lat="46.05245" lon="4.42469">
        <ele>643.4</ele>
        <time>2025-10-04T10:11:44Z</time>
      </trkpt>
      <trkpt lat="46.05249" lon="4.42472">
        <ele>643.4</ele>
        <time>2025-10-04T10:11:45Z</time>
      </trkpt>
      <trkpt lat="46.05253" lon="4.42475">
        <ele>643.4</ele>
        <time>2025-10-04T10:11:46Z</time>
      </trkpt>
      <trkpt lat="46.05257" lon="4.42477">
        <ele>643.4</ele>
        <time>2025-10-04T10:11:47Z</time>
      </trkpt>
      <trkpt lat="46.05262" lon="4.42479">
        <ele>643.4</ele>
        <time>2025-10-04T10:11:48Z</time>
      </trkpt>
      <trkpt lat="46.05267" lon="4.42481">
        <ele>643.4</ele>
        <time>2025-10-04T10:11:49Z</time>
      </trkpt>
      <trkpt lat="46.05272" lon="4.42485">
        <ele>643.4</ele>
        <time>2025-10-04T10:11:50Z</time>
      </trkpt>
      <trkpt lat="46.05276" lon="4.42488">
        <ele>643</ele>
        <time>2025-10-04T10:11:51Z</time>
      </trkpt>
      <trkpt lat="46.0528" lon="4.4249">
        <ele>643</ele>
        <time>2025-10-04T10:11:52Z</time>
      </trkpt>
      <trkpt lat="46.05285" lon="4.42492">
        <ele>643</ele>
        <time>2025-10-04T10:11:53Z</time>
      </trkpt>
      <trkpt lat="46.05289" lon="4.42493">
        <ele>643</ele>
        <time>2025-10-04T10:11:54Z</time>
      </trkpt>
      <trkpt lat="46.05293" lon="4.42494">
        <ele>643</ele>
        <time>2025-10-04T10:11:55Z</time>
      </trkpt>
      <trkpt lat="46.05298" lon="4.42495">
        <ele>643</ele>
        <time>2025-10-04T10:11:56Z</time>
      </trkpt>
      <trkpt lat="46.05302" lon="4.42495">
        <ele>643.4</ele>
        <time>2025-10-04T10:11:57Z</time>
      </trkpt>
      <trkpt lat="46.05306" lon="4.42495">
        <ele>643.4</ele>
        <time>2025-10-04T10:11:58Z</time>
      </trkpt>
      <trkpt lat="46.05309" lon="4.42495">
        <ele>643.4</ele>
        <time>2025-10-04T10:11:59Z</time>
      </trkpt>
      <trkpt lat="46.05313" lon="4.42496">
        <ele>643.6</ele>
        <time>2025-10-04T10:12:00Z</time>
      </trkpt>
      <trkpt lat="46.05317" lon="4.42499">
        <ele>643.6</ele>
        <time>2025-10-04T10:12:01Z</time>
      </trkpt>
      <trkpt lat="46.05321" lon="4.42501">
        <ele>643.4</ele>
        <time>2025-10-04T10:12:02Z</time>
      </trkpt>
      <trkpt lat="46.05325" lon="4.42503">
        <ele>643</ele>
        <time>2025-10-04T10:12:03Z</time>
      </trkpt>
      <trkpt lat="46.0533" lon="4.42505">
        <ele>643</ele>
        <time>2025-10-04T10:12:04Z</time>
      </trkpt>
      <trkpt lat="46.05335" lon="4.42507">
        <ele>643</ele>
        <time>2025-10-04T10:12:05Z</time>
      </trkpt>
      <trkpt lat="46.0534" lon="4.42509">
        <ele>643.4</ele>
        <time>2025-10-04T10:12:06Z</time>
      </trkpt>
      <trkpt lat="46.05344" lon="4.42511">
        <ele>643.4</ele>
        <time>2025-10-04T10:12:07Z</time>
      </trkpt>
      <trkpt lat="46.05348" lon="4.42513">
        <ele>643.6</ele>
        <time>2025-10-04T10:12:08Z</time>
      </trkpt>
      <trkpt lat="46.05352" lon="4.42515">
        <ele>643.8</ele>
        <time>2025-10-04T10:12:09Z</time>
      </trkpt>
      <trkpt lat="46.05356" lon="4.42517">
        <ele>644</ele>
        <time>2025-10-04T10:12:10Z</time>
      </trkpt>
      <trkpt lat="46.0536" lon="4.42519">
        <ele>644.4</ele>
        <time>2025-10-04T10:12:11Z</time>
      </trkpt>
      <trkpt lat="46.05364" lon="4.42522">
        <ele>644.4</ele>
        <time>2025-10-04T10:12:12Z</time>
      </trkpt>
      <trkpt lat="46.05367" lon="4.42524">
        <ele>645</ele>
        <time>2025-10-04T10:12:13Z</time>
      </trkpt>
      <trkpt lat="46.05369" lon="4.42527">
        <ele>645</ele>
        <time>2025-10-04T10:12:14Z</time>
      </trkpt>
      <trkpt lat="46.05373" lon="4.4253">
        <ele>645.4</ele>
        <time>2025-10-04T10:12:15Z</time>
      </trkpt>
      <trkpt lat="46.05376" lon="4.42531">
        <ele>645.8</ele>
        <time>2025-10-04T10:12:16Z</time>
      </trkpt>
      <trkpt lat="46.05378" lon="4.42533">
        <ele>645.8</ele>
        <time>2025-10-04T10:12:17Z</time>
      </trkpt>
      <trkpt lat="46.05381" lon="4.42536">
        <ele>646.4</ele>
        <time>2025-10-04T10:12:18Z</time>
      </trkpt>
      <trkpt lat="46.05383" lon="4.42538">
        <ele>646.8</ele>
        <time>2025-10-04T10:12:19Z</time>
      </trkpt>
      <trkpt lat="46.05385" lon="4.4254">
        <ele>647.2</ele>
        <time>2025-10-04T10:12:20Z</time>
      </trkpt>
      <trkpt lat="46.05388" lon="4.42542">
        <ele>647.4</ele>
        <time>2025-10-04T10:12:21Z</time>
      </trkpt>
      <trkpt lat="46.0539" lon="4.42544">
        <ele>647.8</ele>
        <time>2025-10-04T10:12:22Z</time>
      </trkpt>
      <trkpt lat="46.05392" lon="4.42546">
        <ele>648.2</ele>
        <time>2025-10-04T10:12:23Z</time>
      </trkpt>
      <trkpt lat="46.05394" lon="4.42548">
        <ele>648.4</ele>
        <time>2025-10-04T10:12:24Z</time>
      </trkpt>
      <trkpt lat="46.05396" lon="4.4255">
        <ele>648.8</ele>
        <time>2025-10-04T10:12:25Z</time>
      </trkpt>
      <trkpt lat="46.05398" lon="4.42553">
        <ele>648.8</ele>
        <time>2025-10-04T10:12:26Z</time>
      </trkpt>
      <trkpt lat="46.054" lon="4.42555">
        <ele>649.2</ele>
        <time>2025-10-04T10:12:27Z</time>
      </trkpt>
      <trkpt lat="46.05402" lon="4.42556">
        <ele>649.2</ele>
        <time>2025-10-04T10:12:28Z</time>
      </trkpt>
      <trkpt lat="46.05404" lon="4.42558">
        <ele>649.6</ele>
        <time>2025-10-04T10:12:29Z</time>
      </trkpt>
      <trkpt lat="46.05406" lon="4.42559">
        <ele>649.6</ele>
        <time>2025-10-04T10:12:30Z</time>
      </trkpt>
      <trkpt lat="46.05409" lon="4.42561">
        <ele>650</ele>
        <time>2025-10-04T10:12:31Z</time>
      </trkpt>
      <trkpt lat="46.05411" lon="4.42562">
        <ele>650</ele>
        <time>2025-10-04T10:12:32Z</time>
      </trkpt>
      <trkpt lat="46.05414" lon="4.42564">
        <ele>650.4</ele>
        <time>2025-10-04T10:12:33Z</time>
      </trkpt>
      <trkpt lat="46.05417" lon="4.42565">
        <ele>650.6</ele>
        <time>2025-10-04T10:12:34Z</time>
      </trkpt>
      <trkpt lat="46.05419" lon="4.42568">
        <ele>651</ele>
        <time>2025-10-04T10:12:35Z</time>
      </trkpt>
      <trkpt lat="46.05421" lon="4.42571">
        <ele>651</ele>
        <time>2025-10-04T10:12:36Z</time>
      </trkpt>
      <trkpt lat="46.05423" lon="4.42574">
        <ele>651.4</ele>
        <time>2025-10-04T10:12:37Z</time>
      </trkpt>
      <trkpt lat="46.05424" lon="4.42578">
        <ele>651.4</ele>
        <time>2025-10-04T10:12:38Z</time>
      </trkpt>
      <trkpt lat="46.05425" lon="4.42583">
        <ele>651.6</ele>
        <time>2025-10-04T10:12:39Z</time>
      </trkpt>
      <trkpt lat="46.05425" lon="4.42587">
        <ele>651.6</ele>
        <time>2025-10-04T10:12:40Z</time>
      </trkpt>
      <trkpt lat="46.05425" lon="4.42591">
        <ele>651.8</ele>
        <time>2025-10-04T10:12:41Z</time>
      </trkpt>
      <trkpt lat="46.05425" lon="4.42595">
        <ele>652</ele>
        <time>2025-10-04T10:12:42Z</time>
      </trkpt>
      <trkpt lat="46.05424" lon="4.42599">
        <ele>652</ele>
        <time>2025-10-04T10:12:43Z</time>
      </trkpt>
      <trkpt lat="46.05424" lon="4.42604">
        <ele>652.4</ele>
        <time>2025-10-04T10:12:44Z</time>
      </trkpt>
      <trkpt lat="46.05423" lon="4.42608">
        <ele>652.6</ele>
        <time>2025-10-04T10:12:45Z</time>
      </trkpt>
      <trkpt lat="46.05422" lon="4.42611">
        <ele>653</ele>
        <time>2025-10-04T10:12:46Z</time>
      </trkpt>
      <trkpt lat="46.0542" lon="4.42615">
        <ele>653.2</ele>
        <time>2025-10-04T10:12:47Z</time>
      </trkpt>
      <trkpt lat="46.05419" lon="4.42619">
        <ele>653.2</ele>
        <time>2025-10-04T10:12:48Z</time>
      </trkpt>
      <trkpt lat="46.05418" lon="4.42624">
        <ele>653.6</ele>
        <time>2025-10-04T10:12:49Z</time>
      </trkpt>
      <trkpt lat="46.05416" lon="4.42628">
        <ele>653.6</ele>
        <time>2025-10-04T10:12:50Z</time>
      </trkpt>
      <trkpt lat="46.05415" lon="4.42633">
        <ele>653.8</ele>
        <time>2025-10-04T10:12:51Z</time>
      </trkpt>
      <trkpt lat="46.05413" lon="4.42637">
        <ele>653.8</ele>
        <time>2025-10-04T10:12:52Z</time>
      </trkpt>
      <trkpt lat="46.05412" lon="4.42641">
        <ele>653.8</ele>
        <time>2025-10-04T10:12:53Z</time>
      </trkpt>
      <trkpt lat="46.0541" lon="4.42646">
        <ele>653.8</ele>
        <time>2025-10-04T10:12:54Z</time>
      </trkpt>
      <trkpt lat="46.05409" lon="4.4265">
        <ele>654.2</ele>
        <time>2025-10-04T10:12:55Z</time>
      </trkpt>
      <trkpt lat="46.05408" lon="4.42654">
        <ele>654.2</ele>
        <time>2025-10-04T10:12:56Z</time>
      </trkpt>
      <trkpt lat="46.05407" lon="4.42658">
        <ele>654.2</ele>
        <time>2025-10-04T10:12:57Z</time>
      </trkpt>
      <trkpt lat="46.05406" lon="4.42663">
        <ele>654.6</ele>
        <time>2025-10-04T10:12:58Z</time>
      </trkpt>
      <trkpt lat="46.05406" lon="4.42663">
        <ele>654.6</ele>
        <time>2025-10-04T10:12:59Z</time>
      </trkpt>
      <trkpt lat="46.05405" lon="4.42666">
        <ele>654.8</ele>
        <time>2025-10-04T10:13:00Z</time>
      </trkpt>
      <trkpt lat="46.05404" lon="4.4267">
        <ele>655</ele>
        <time>2025-10-04T10:13:01Z</time>
      </trkpt>
      <trkpt lat="46.05402" lon="4.42675">
        <ele>655</ele>
        <time>2025-10-04T10:13:02Z</time>
      </trkpt>
      <trkpt lat="46.05401" lon="4.42678">
        <ele>655</ele>
        <time>2025-10-04T10:13:03Z</time>
      </trkpt>
      <trkpt lat="46.054" lon="4.42682">
        <ele>655</ele>
        <time>2025-10-04T10:13:04Z</time>
      </trkpt>
      <trkpt lat="46.05399" lon="4.42686">
        <ele>655.4</ele>
        <time>2025-10-04T10:13:05Z</time>
      </trkpt>
      <trkpt lat="46.05398" lon="4.4269">
        <ele>655.4</ele>
        <time>2025-10-04T10:13:06Z</time>
      </trkpt>
      <trkpt lat="46.05398" lon="4.42694">
        <ele>655.8</ele>
        <time>2025-10-04T10:13:07Z</time>
      </trkpt>
      <trkpt lat="46.05397" lon="4.42698">
        <ele>655.8</ele>
        <time>2025-10-04T10:13:08Z</time>
      </trkpt>
      <trkpt lat="46.05397" lon="4.42702">
        <ele>655.8</ele>
        <time>2025-10-04T10:13:09Z</time>
      </trkpt>
      <trkpt lat="46.05397" lon="4.42706">
        <ele>656.4</ele>
        <time>2025-10-04T10:13:10Z</time>
      </trkpt>
      <trkpt lat="46.05396" lon="4.42709">
        <ele>656.6</ele>
        <time>2025-10-04T10:13:11Z</time>
      </trkpt>
      <trkpt lat="46.05396" lon="4.42712">
        <ele>656.8</ele>
        <time>2025-10-04T10:13:12Z</time>
      </trkpt>
      <trkpt lat="46.05395" lon="4.42715">
        <ele>656.8</ele>
        <time>2025-10-04T10:13:13Z</time>
      </trkpt>
      <trkpt lat="46.05395" lon="4.42719">
        <ele>657</ele>
        <time>2025-10-04T10:13:14Z</time>
      </trkpt>
      <trkpt lat="46.05394" lon="4.42722">
        <ele>657.4</ele>
        <time>2025-10-04T10:13:15Z</time>
      </trkpt>
      <trkpt lat="46.05394" lon="4.42725">
        <ele>657.4</ele>
        <time>2025-10-04T10:13:16Z</time>
      </trkpt>
      <trkpt lat="46.05394" lon="4.42728">
        <ele>657.4</ele>
        <time>2025-10-04T10:13:17Z</time>
      </trkpt>
      <trkpt lat="46.05394" lon="4.42732">
        <ele>657.4</ele>
        <time>2025-10-04T10:13:18Z</time>
      </trkpt>
      <trkpt lat="46.05395" lon="4.42735">
        <ele>657.6</ele>
        <time>2025-10-04T10:13:19Z</time>
      </trkpt>
      <trkpt lat="46.05395" lon="4.42739">
        <ele>658</ele>
        <time>2025-10-04T10:13:20Z</time>
      </trkpt>
      <trkpt lat="46.05395" lon="4.42743">
        <ele>658</ele>
        <time>2025-10-04T10:13:21Z</time>
      </trkpt>
      <trkpt lat="46.05396" lon="4.42746">
        <ele>658.4</ele>
        <time>2025-10-04T10:13:22Z</time>
      </trkpt>
      <trkpt lat="46.05397" lon="4.4275">
        <ele>658.6</ele>
        <time>2025-10-04T10:13:23Z</time>
      </trkpt>
      <trkpt lat="46.05397" lon="4.42754">
        <ele>658.6</ele>
        <time>2025-10-04T10:13:24Z</time>
      </trkpt>
      <trkpt lat="46.05398" lon="4.42758">
        <ele>658.6</ele>
        <time>2025-10-04T10:13:25Z</time>
      </trkpt>
      <trkpt lat="46.05399" lon="4.42762">
        <ele>658.6</ele>
        <time>2025-10-04T10:13:26Z</time>
      </trkpt>
      <trkpt lat="46.05401" lon="4.42766">
        <ele>658.6</ele>
        <time>2025-10-04T10:13:27Z</time>
      </trkpt>
      <trkpt lat="46.05403" lon="4.42771">
        <ele>659</ele>
        <time>2025-10-04T10:13:28Z</time>
      </trkpt>
      <trkpt lat="46.05405" lon="4.42775">
        <ele>659</ele>
        <time>2025-10-04T10:13:29Z</time>
      </trkpt>
      <trkpt lat="46.05408" lon="4.42778">
        <ele>659</ele>
        <time>2025-10-04T10:13:30Z</time>
      </trkpt>
      <trkpt lat="46.05411" lon="4.42781">
        <ele>659</ele>
        <time>2025-10-04T10:13:31Z</time>
      </trkpt>
      <trkpt lat="46.05414" lon="4.42783">
        <ele>659</ele>
        <time>2025-10-04T10:13:32Z</time>
      </trkpt>
      <trkpt lat="46.05417" lon="4.42784">
        <ele>658.8</ele>
        <time>2025-10-04T10:13:33Z</time>
      </trkpt>
      <trkpt lat="46.0542" lon="4.42785">
        <ele>658.8</ele>
        <time>2025-10-04T10:13:34Z</time>
      </trkpt>
      <trkpt lat="46.05423" lon="4.42786">
        <ele>658.8</ele>
        <time>2025-10-04T10:13:35Z</time>
      </trkpt>
      <trkpt lat="46.05425" lon="4.42787">
        <ele>658.8</ele>
        <time>2025-10-04T10:13:36Z</time>
      </trkpt>
      <trkpt lat="46.05428" lon="4.42788">
        <ele>658.8</ele>
        <time>2025-10-04T10:13:37Z</time>
      </trkpt>
      <trkpt lat="46.05431" lon="4.42789">
        <ele>658.8</ele>
        <time>2025-10-04T10:13:38Z</time>
      </trkpt>
      <trkpt lat="46.05434" lon="4.42788">
        <ele>658.8</ele>
        <time>2025-10-04T10:13:39Z</time>
      </trkpt>
      <trkpt lat="46.05437" lon="4.42787">
        <ele>658.8</ele>
        <time>2025-10-04T10:13:40Z</time>
      </trkpt>
      <trkpt lat="46.0544" lon="4.42786">
        <ele>658.8</ele>
        <time>2025-10-04T10:13:41Z</time>
      </trkpt>
      <trkpt lat="46.05442" lon="4.42785">
        <ele>658.8</ele>
        <time>2025-10-04T10:13:42Z</time>
      </trkpt>
      <trkpt lat="46.05444" lon="4.42785">
        <ele>658.4</ele>
        <time>2025-10-04T10:13:43Z</time>
      </trkpt>
      <trkpt lat="46.05445" lon="4.42783">
        <ele>658.4</ele>
        <time>2025-10-04T10:13:44Z</time>
      </trkpt>
      <trkpt lat="46.05446" lon="4.42782">
        <ele>658.2</ele>
        <time>2025-10-04T10:13:45Z</time>
      </trkpt>
      <trkpt lat="46.05447" lon="4.42781">
        <ele>658.2</ele>
        <time>2025-10-04T10:13:46Z</time>
      </trkpt>
      <trkpt lat="46.05448" lon="4.42779">
        <ele>657.8</ele>
        <time>2025-10-04T10:13:47Z</time>
      </trkpt>
      <trkpt lat="46.05451" lon="4.42778">
        <ele>657.6</ele>
        <time>2025-10-04T10:13:48Z</time>
      </trkpt>
      <trkpt lat="46.05454" lon="4.42777">
        <ele>657.6</ele>
        <time>2025-10-04T10:13:49Z</time>
      </trkpt>
      <trkpt lat="46.05459" lon="4.42778">
        <ele>657.6</ele>
        <time>2025-10-04T10:13:50Z</time>
      </trkpt>
      <trkpt lat="46.05464" lon="4.42777">
        <ele>657.2</ele>
        <time>2025-10-04T10:13:51Z</time>
      </trkpt>
      <trkpt lat="46.0547" lon="4.42776">
        <ele>656.8</ele>
        <time>2025-10-04T10:13:52Z</time>
      </trkpt>
      <trkpt lat="46.05476" lon="4.42775">
        <ele>656.6</ele>
        <time>2025-10-04T10:13:53Z</time>
      </trkpt>
      <trkpt lat="46.05482" lon="4.42775">
        <ele>656</ele>
        <time>2025-10-04T10:13:54Z</time>
      </trkpt>
      <trkpt lat="46.05489" lon="4.42775">
        <ele>655.4</ele>
        <time>2025-10-04T10:13:55Z</time>
      </trkpt>
      <trkpt lat="46.05497" lon="4.42776">
        <ele>654.8</ele>
        <time>2025-10-04T10:13:56Z</time>
      </trkpt>
      <trkpt lat="46.05505" lon="4.42777">
        <ele>654.6</ele>
        <time>2025-10-04T10:13:57Z</time>
      </trkpt>
      <trkpt lat="46.05513" lon="4.42777">
        <ele>653.8</ele>
        <time>2025-10-04T10:13:58Z</time>
      </trkpt>
      <trkpt lat="46.05522" lon="4.42778">
        <ele>653</ele>
        <time>2025-10-04T10:13:59Z</time>
      </trkpt>
      <trkpt lat="46.0553" lon="4.42778">
        <ele>652.4</ele>
        <time>2025-10-04T10:14:00Z</time>
      </trkpt>
      <trkpt lat="46.05548" lon="4.42783">
        <ele>651.4</ele>
        <time>2025-10-04T10:14:01Z</time>
      </trkpt>
      <trkpt lat="46.05557" lon="4.42784">
        <ele>650.8</ele>
        <time>2025-10-04T10:14:02Z</time>
      </trkpt>
      <trkpt lat="46.05565" lon="4.42788">
        <ele>648.8</ele>
        <time>2025-10-04T10:14:03Z</time>
      </trkpt>
      <trkpt lat="46.05572" lon="4.42792">
        <ele>648.6</ele>
        <time>2025-10-04T10:14:04Z</time>
      </trkpt>
      <trkpt lat="46.05579" lon="4.42796">
        <ele>648.2</ele>
        <time>2025-10-04T10:14:05Z</time>
      </trkpt>
      <trkpt lat="46.05584" lon="4.42801">
        <ele>647.4</ele>
        <time>2025-10-04T10:14:06Z</time>
      </trkpt>
      <trkpt lat="46.05589" lon="4.42808">
        <ele>646.4</ele>
        <time>2025-10-04T10:14:07Z</time>
      </trkpt>
      <trkpt lat="46.05593" lon="4.42816">
        <ele>645.8</ele>
        <time>2025-10-04T10:14:08Z</time>
      </trkpt>
      <trkpt lat="46.05596" lon="4.42825">
        <ele>645.4</ele>
        <time>2025-10-04T10:14:09Z</time>
      </trkpt>
      <trkpt lat="46.05599" lon="4.42837">
        <ele>645.2</ele>
        <time>2025-10-04T10:14:10Z</time>
      </trkpt>
      <trkpt lat="46.05602" lon="4.42845">
        <ele>644.6</ele>
        <time>2025-10-04T10:14:11Z</time>
      </trkpt>
      <trkpt lat="46.05607" lon="4.42851">
        <ele>644.6</ele>
        <time>2025-10-04T10:14:12Z</time>
      </trkpt>
      <trkpt lat="46.05609" lon="4.42853">
        <ele>644.4</ele>
        <time>2025-10-04T10:14:13Z</time>
      </trkpt>
      <trkpt lat="46.05617" lon="4.42864">
        <ele>644</ele>
        <time>2025-10-04T10:14:14Z</time>
      </trkpt>
      <trkpt lat="46.05623" lon="4.42856">
        <ele>643.6</ele>
        <time>2025-10-04T10:14:15Z</time>
      </trkpt>
      <trkpt lat="46.05629" lon="4.42853">
        <ele>642.8</ele>
        <time>2025-10-04T10:14:16Z</time>
      </trkpt>
      <trkpt lat="46.05635" lon="4.42851">
        <ele>642</ele>
        <time>2025-10-04T10:14:17Z</time>
      </trkpt>
      <trkpt lat="46.05642" lon="4.4285">
        <ele>642</ele>
        <time>2025-10-04T10:14:18Z</time>
      </trkpt>
      <trkpt lat="46.05651" lon="4.4285">
        <ele>640.8</ele>
        <time>2025-10-04T10:14:19Z</time>
      </trkpt>
      <trkpt lat="46.05658" lon="4.42859">
        <ele>640.4</ele>
        <time>2025-10-04T10:14:20Z</time>
      </trkpt>
      <trkpt lat="46.05667" lon="4.42872">
        <ele>639.4</ele>
        <time>2025-10-04T10:14:21Z</time>
      </trkpt>
      <trkpt lat="46.05675" lon="4.42878">
        <ele>638.2</ele>
        <time>2025-10-04T10:14:22Z</time>
      </trkpt>
      <trkpt lat="46.05686" lon="4.42888">
        <ele>637.6</ele>
        <time>2025-10-04T10:14:23Z</time>
      </trkpt>
      <trkpt lat="46.05695" lon="4.42897">
        <ele>637</ele>
        <time>2025-10-04T10:14:24Z</time>
      </trkpt>
      <trkpt lat="46.05702" lon="4.42906">
        <ele>636.2</ele>
        <time>2025-10-04T10:14:25Z</time>
      </trkpt>
      <trkpt lat="46.0571" lon="4.42915">
        <ele>635.6</ele>
        <time>2025-10-04T10:14:26Z</time>
      </trkpt>
      <trkpt lat="46.05718" lon="4.4292">
        <ele>635.6</ele>
        <time>2025-10-04T10:14:27Z</time>
      </trkpt>
      <trkpt lat="46.05726" lon="4.42923">
        <ele>635.4</ele>
        <time>2025-10-04T10:14:28Z</time>
      </trkpt>
      <trkpt lat="46.05734" lon="4.42922">
        <ele>634.6</ele>
        <time>2025-10-04T10:14:29Z</time>
      </trkpt>
      <trkpt lat="46.0574" lon="4.42918">
        <ele>634.2</ele>
        <time>2025-10-04T10:14:30Z</time>
      </trkpt>
      <trkpt lat="46.05743" lon="4.42909">
        <ele>633.4</ele>
        <time>2025-10-04T10:14:31Z</time>
      </trkpt>
      <trkpt lat="46.05743" lon="4.42899">
        <ele>632.6</ele>
        <time>2025-10-04T10:14:32Z</time>
      </trkpt>
      <trkpt lat="46.05741" lon="4.4289">
        <ele>632</ele>
        <time>2025-10-04T10:14:33Z</time>
      </trkpt>
      <trkpt lat="46.05737" lon="4.42883">
        <ele>631.4</ele>
        <time>2025-10-04T10:14:34Z</time>
      </trkpt>
      <trkpt lat="46.05733" lon="4.42874">
        <ele>630.8</ele>
        <time>2025-10-04T10:14:35Z</time>
      </trkpt>
      <trkpt lat="46.05729" lon="4.42865">
        <ele>630.4</ele>
        <time>2025-10-04T10:14:36Z</time>
      </trkpt>
      <trkpt lat="46.05725" lon="4.42856">
        <ele>629.6</ele>
        <time>2025-10-04T10:14:37Z</time>
      </trkpt>
      <trkpt lat="46.05721" lon="4.42846">
        <ele>629.2</ele>
        <time>2025-10-04T10:14:38Z</time>
      </trkpt>
      <trkpt lat="46.05717" lon="4.42835">
        <ele>628.6</ele>
        <time>2025-10-04T10:14:39Z</time>
      </trkpt>
      <trkpt lat="46.05714" lon="4.42824">
        <ele>628</ele>
        <time>2025-10-04T10:14:40Z</time>
      </trkpt>
      <trkpt lat="46.05711" lon="4.42812">
        <ele>627.6</ele>
        <time>2025-10-04T10:14:41Z</time>
      </trkpt>
      <trkpt lat="46.0571" lon="4.42799">
        <ele>627.2</ele>
        <time>2025-10-04T10:14:42Z</time>
      </trkpt>
      <trkpt lat="46.05711" lon="4.42787">
        <ele>626.6</ele>
        <time>2025-10-04T10:14:43Z</time>
      </trkpt>
      <trkpt lat="46.05711" lon="4.42775">
        <ele>626</ele>
        <time>2025-10-04T10:14:44Z</time>
      </trkpt>
      <trkpt lat="46.05711" lon="4.42763">
        <ele>625.6</ele>
        <time>2025-10-04T10:14:45Z</time>
      </trkpt>
      <trkpt lat="46.05711" lon="4.42751">
        <ele>625.2</ele>
        <time>2025-10-04T10:14:46Z</time>
      </trkpt>
      <trkpt lat="46.05713" lon="4.4274">
        <ele>624.8</ele>
        <time>2025-10-04T10:14:47Z</time>
      </trkpt>
      <trkpt lat="46.05713" lon="4.42729">
        <ele>624.8</ele>
        <time>2025-10-04T10:14:48Z</time>
      </trkpt>
      <trkpt lat="46.05714" lon="4.42719">
        <ele>624.4</ele>
        <time>2025-10-04T10:14:49Z</time>
      </trkpt>
      <trkpt lat="46.05716" lon="4.42709">
        <ele>624.4</ele>
        <time>2025-10-04T10:14:50Z</time>
      </trkpt>
      <trkpt lat="46.05717" lon="4.427">
        <ele>624.4</ele>
        <time>2025-10-04T10:14:51Z</time>
      </trkpt>
      <trkpt lat="46.0572" lon="4.42693">
        <ele>624.6</ele>
        <time>2025-10-04T10:14:52Z</time>
      </trkpt>
      <trkpt lat="46.05723" lon="4.42687">
        <ele>624.8</ele>
        <time>2025-10-04T10:14:53Z</time>
      </trkpt>
      <trkpt lat="46.05727" lon="4.42682">
        <ele>624.8</ele>
        <time>2025-10-04T10:14:54Z</time>
      </trkpt>
      <trkpt lat="46.05731" lon="4.42679">
        <ele>625.2</ele>
        <time>2025-10-04T10:14:55Z</time>
      </trkpt>
      <trkpt lat="46.05735" lon="4.42676">
        <ele>625.2</ele>
        <time>2025-10-04T10:14:56Z</time>
      </trkpt>
      <trkpt lat="46.05739" lon="4.42673">
        <ele>625.6</ele>
        <time>2025-10-04T10:14:57Z</time>
      </trkpt>
      <trkpt lat="46.05743" lon="4.4267">
        <ele>625.8</ele>
        <time>2025-10-04T10:14:58Z</time>
      </trkpt>
      <trkpt lat="46.05746" lon="4.42667">
        <ele>625.8</ele>
        <time>2025-10-04T10:14:59Z</time>
      </trkpt>
      <trkpt lat="46.0575" lon="4.42664">
        <ele>625.8</ele>
        <time>2025-10-04T10:15:00Z</time>
      </trkpt>
      <trkpt lat="46.05752" lon="4.42662">
        <ele>626</ele>
        <time>2025-10-04T10:15:01Z</time>
      </trkpt>
      <trkpt lat="46.05754" lon="4.42662">
        <ele>626</ele>
        <time>2025-10-04T10:15:02Z</time>
      </trkpt>
      <trkpt lat="46.05754" lon="4.42661">
        <ele>626.4</ele>
        <time>2025-10-04T10:15:03Z</time>
      </trkpt>
      <trkpt lat="46.05754" lon="4.42662">
        <ele>626.4</ele>
        <time>2025-10-04T10:15:04Z</time>
      </trkpt>
      <trkpt lat="46.05753" lon="4.42663">
        <ele>626.4</ele>
        <time>2025-10-04T10:15:05Z</time>
      </trkpt>
      <trkpt lat="46.05758" lon="4.42661">
        <ele>626.6</ele>
        <time>2025-10-04T10:15:38Z</time>
      </trkpt>
      <trkpt lat="46.05759" lon="4.42661">
        <ele>626.6</ele>
        <time>2025-10-04T10:15:39Z</time>
      </trkpt>
      <trkpt lat="46.05761" lon="4.42661">
        <ele>626.6</ele>
        <time>2025-10-04T10:15:40Z</time>
      </trkpt>
      <trkpt lat="46.05763" lon="4.4266">
        <ele>626.6</ele>
        <time>2025-10-04T10:15:41Z</time>
      </trkpt>
      <trkpt lat="46.05765" lon="4.42659">
        <ele>626.8</ele>
        <time>2025-10-04T10:15:42Z</time>
      </trkpt>
      <trkpt lat="46.05768" lon="4.42658">
        <ele>626.8</ele>
        <time>2025-10-04T10:15:43Z</time>
      </trkpt>
      <trkpt lat="46.05771" lon="4.42656">
        <ele>626.8</ele>
        <time>2025-10-04T10:15:44Z</time>
      </trkpt>
      <trkpt lat="46.05774" lon="4.42655">
        <ele>626.8</ele>
        <time>2025-10-04T10:15:45Z</time>
      </trkpt>
      <trkpt lat="46.05778" lon="4.42654">
        <ele>626.8</ele>
        <time>2025-10-04T10:15:46Z</time>
      </trkpt>
      <trkpt lat="46.05781" lon="4.42652">
        <ele>626.8</ele>
        <time>2025-10-04T10:15:47Z</time>
      </trkpt>
      <trkpt lat="46.05784" lon="4.42651">
        <ele>626.8</ele>
        <time>2025-10-04T10:15:48Z</time>
      </trkpt>
      <trkpt lat="46.05788" lon="4.42648">
        <ele>626.8</ele>
        <time>2025-10-04T10:15:49Z</time>
      </trkpt>
      <trkpt lat="46.05791" lon="4.42646">
        <ele>627</ele>
        <time>2025-10-04T10:15:50Z</time>
      </trkpt>
      <trkpt lat="46.05795" lon="4.42644">
        <ele>627</ele>
        <time>2025-10-04T10:15:51Z</time>
      </trkpt>
      <trkpt lat="46.05798" lon="4.42642">
        <ele>627</ele>
        <time>2025-10-04T10:15:52Z</time>
      </trkpt>
      <trkpt lat="46.05802" lon="4.4264">
        <ele>627</ele>
        <time>2025-10-04T10:15:53Z</time>
      </trkpt>
      <trkpt lat="46.05806" lon="4.42638">
        <ele>627</ele>
        <time>2025-10-04T10:15:54Z</time>
      </trkpt>
      <trkpt lat="46.0581" lon="4.42637">
        <ele>627.2</ele>
        <time>2025-10-04T10:15:55Z</time>
      </trkpt>
      <trkpt lat="46.05814" lon="4.42634">
        <ele>627.6</ele>
        <time>2025-10-04T10:15:56Z</time>
      </trkpt>
      <trkpt lat="46.05818" lon="4.42632">
        <ele>627.6</ele>
        <time>2025-10-04T10:15:57Z</time>
      </trkpt>
      <trkpt lat="46.05822" lon="4.4263">
        <ele>627.6</ele>
        <time>2025-10-04T10:15:58Z</time>
      </trkpt>
      <trkpt lat="46.05827" lon="4.42628">
        <ele>627.6</ele>
        <time>2025-10-04T10:15:59Z</time>
      </trkpt>
      <trkpt lat="46.05831" lon="4.42626">
        <ele>627.8</ele>
        <time>2025-10-04T10:16:00Z</time>
      </trkpt>
      <trkpt lat="46.05835" lon="4.42624">
        <ele>627.8</ele>
        <time>2025-10-04T10:16:01Z</time>
      </trkpt>
      <trkpt lat="46.0584" lon="4.42621">
        <ele>627.8</ele>
        <time>2025-10-04T10:16:02Z</time>
      </trkpt>
      <trkpt lat="46.05844" lon="4.42619">
        <ele>627.8</ele>
        <time>2025-10-04T10:16:03Z</time>
      </trkpt>
      <trkpt lat="46.05849" lon="4.42615">
        <ele>627.8</ele>
        <time>2025-10-04T10:16:04Z</time>
      </trkpt>
      <trkpt lat="46.05853" lon="4.42614">
        <ele>627.8</ele>
        <time>2025-10-04T10:16:05Z</time>
      </trkpt>
      <trkpt lat="46.05857" lon="4.42611">
        <ele>627.8</ele>
        <time>2025-10-04T10:16:06Z</time>
      </trkpt>
      <trkpt lat="46.05861" lon="4.42608">
        <ele>627.8</ele>
        <time>2025-10-04T10:16:07Z</time>
      </trkpt>
      <trkpt lat="46.05865" lon="4.42606">
        <ele>627.8</ele>
        <time>2025-10-04T10:16:08Z</time>
      </trkpt>
      <trkpt lat="46.05869" lon="4.42604">
        <ele>628.2</ele>
        <time>2025-10-04T10:16:09Z</time>
      </trkpt>
      <trkpt lat="46.05874" lon="4.42601">
        <ele>628.6</ele>
        <time>2025-10-04T10:16:10Z</time>
      </trkpt>
      <trkpt lat="46.05878" lon="4.42598">
        <ele>628.6</ele>
        <time>2025-10-04T10:16:11Z</time>
      </trkpt>
      <trkpt lat="46.05881" lon="4.42595">
        <ele>628.6</ele>
        <time>2025-10-04T10:16:12Z</time>
      </trkpt>
      <trkpt lat="46.05885" lon="4.42592">
        <ele>628.6</ele>
        <time>2025-10-04T10:16:13Z</time>
      </trkpt>
      <trkpt lat="46.05889" lon="4.42589">
        <ele>628.6</ele>
        <time>2025-10-04T10:16:14Z</time>
      </trkpt>
      <trkpt lat="46.05893" lon="4.42586">
        <ele>628.6</ele>
        <time>2025-10-04T10:16:15Z</time>
      </trkpt>
      <trkpt lat="46.05896" lon="4.42582">
        <ele>628.6</ele>
        <time>2025-10-04T10:16:16Z</time>
      </trkpt>
      <trkpt lat="46.05899" lon="4.42579">
        <ele>628.8</ele>
        <time>2025-10-04T10:16:17Z</time>
      </trkpt>
      <trkpt lat="46.05903" lon="4.42575">
        <ele>628.8</ele>
        <time>2025-10-04T10:16:18Z</time>
      </trkpt>
      <trkpt lat="46.05907" lon="4.42572">
        <ele>628.8</ele>
        <time>2025-10-04T10:16:19Z</time>
      </trkpt>
      <trkpt lat="46.0591" lon="4.42567">
        <ele>628.8</ele>
        <time>2025-10-04T10:16:20Z</time>
      </trkpt>
      <trkpt lat="46.05914" lon="4.42563">
        <ele>629</ele>
        <time>2025-10-04T10:16:21Z</time>
      </trkpt>
      <trkpt lat="46.05917" lon="4.42559">
        <ele>629</ele>
        <time>2025-10-04T10:16:22Z</time>
      </trkpt>
      <trkpt lat="46.05921" lon="4.42555">
        <ele>628.8</ele>
        <time>2025-10-04T10:16:23Z</time>
      </trkpt>
      <trkpt lat="46.05924" lon="4.42551">
        <ele>628.8</ele>
        <time>2025-10-04T10:16:24Z</time>
      </trkpt>
      <trkpt lat="46.05927" lon="4.42547">
        <ele>628.8</ele>
        <time>2025-10-04T10:16:25Z</time>
      </trkpt>
      <trkpt lat="46.05931" lon="4.42543">
        <ele>629</ele>
        <time>2025-10-04T10:16:26Z</time>
      </trkpt>
      <trkpt lat="46.05935" lon="4.42539">
        <ele>629</ele>
        <time>2025-10-04T10:16:27Z</time>
      </trkpt>
      <trkpt lat="46.05938" lon="4.42534">
        <ele>629</ele>
        <time>2025-10-04T10:16:28Z</time>
      </trkpt>
      <trkpt lat="46.05942" lon="4.4253">
        <ele>629</ele>
        <time>2025-10-04T10:16:29Z</time>
      </trkpt>
      <trkpt lat="46.05946" lon="4.42525">
        <ele>629</ele>
        <time>2025-10-04T10:16:30Z</time>
      </trkpt>
      <trkpt lat="46.0595" lon="4.42521">
        <ele>629</ele>
        <time>2025-10-04T10:16:31Z</time>
      </trkpt>
      <trkpt lat="46.05955" lon="4.42518">
        <ele>629</ele>
        <time>2025-10-04T10:16:32Z</time>
      </trkpt>
      <trkpt lat="46.05959" lon="4.42514">
        <ele>629</ele>
        <time>2025-10-04T10:16:33Z</time>
      </trkpt>
      <trkpt lat="46.05963" lon="4.4251">
        <ele>629</ele>
        <time>2025-10-04T10:16:34Z</time>
      </trkpt>
      <trkpt lat="46.05967" lon="4.42506">
        <ele>629.2</ele>
        <time>2025-10-04T10:16:35Z</time>
      </trkpt>
      <trkpt lat="46.05972" lon="4.42504">
        <ele>629.2</ele>
        <time>2025-10-04T10:16:36Z</time>
      </trkpt>
      <trkpt lat="46.05976" lon="4.42502">
        <ele>629.6</ele>
        <time>2025-10-04T10:16:37Z</time>
      </trkpt>
      <trkpt lat="46.05981" lon="4.425">
        <ele>629.6</ele>
        <time>2025-10-04T10:16:38Z</time>
      </trkpt>
      <trkpt lat="46.05986" lon="4.42498">
        <ele>630</ele>
        <time>2025-10-04T10:16:39Z</time>
      </trkpt>
      <trkpt lat="46.0599" lon="4.42496">
        <ele>630.4</ele>
        <time>2025-10-04T10:16:40Z</time>
      </trkpt>
      <trkpt lat="46.05995" lon="4.42494">
        <ele>630.4</ele>
        <time>2025-10-04T10:16:41Z</time>
      </trkpt>
      <trkpt lat="46.05999" lon="4.42493">
        <ele>630.6</ele>
        <time>2025-10-04T10:16:42Z</time>
      </trkpt>
      <trkpt lat="46.06004" lon="4.42492">
        <ele>630.6</ele>
        <time>2025-10-04T10:16:43Z</time>
      </trkpt>
      <trkpt lat="46.06009" lon="4.4249">
        <ele>631</ele>
        <time>2025-10-04T10:16:44Z</time>
      </trkpt>
      <trkpt lat="46.06014" lon="4.42488">
        <ele>631</ele>
        <time>2025-10-04T10:16:45Z</time>
      </trkpt>
      <trkpt lat="46.06018" lon="4.42486">
        <ele>631.6</ele>
        <time>2025-10-04T10:16:46Z</time>
      </trkpt>
      <trkpt lat="46.06023" lon="4.42485">
        <ele>631.8</ele>
        <time>2025-10-04T10:16:47Z</time>
      </trkpt>
      <trkpt lat="46.06027" lon="4.42483">
        <ele>631.8</ele>
        <time>2025-10-04T10:16:48Z</time>
      </trkpt>
      <trkpt lat="46.06032" lon="4.42481">
        <ele>631.8</ele>
        <time>2025-10-04T10:16:49Z</time>
      </trkpt>
      <trkpt lat="46.06037" lon="4.42479">
        <ele>632.4</ele>
        <time>2025-10-04T10:16:50Z</time>
      </trkpt>
      <trkpt lat="46.06042" lon="4.42478">
        <ele>632.4</ele>
        <time>2025-10-04T10:16:51Z</time>
      </trkpt>
      <trkpt lat="46.06046" lon="4.42478">
        <ele>632.6</ele>
        <time>2025-10-04T10:16:52Z</time>
      </trkpt>
      <trkpt lat="46.06052" lon="4.42477">
        <ele>632.6</ele>
        <time>2025-10-04T10:16:53Z</time>
      </trkpt>
      <trkpt lat="46.06056" lon="4.42477">
        <ele>632.6</ele>
        <time>2025-10-04T10:16:54Z</time>
      </trkpt>
      <trkpt lat="46.06061" lon="4.42476">
        <ele>632.8</ele>
        <time>2025-10-04T10:16:55Z</time>
      </trkpt>
      <trkpt lat="46.06066" lon="4.42475">
        <ele>632.8</ele>
        <time>2025-10-04T10:16:56Z</time>
      </trkpt>
      <trkpt lat="46.06071" lon="4.42475">
        <ele>633.2</ele>
        <time>2025-10-04T10:16:57Z</time>
      </trkpt>
      <trkpt lat="46.06075" lon="4.42476">
        <ele>633.2</ele>
        <time>2025-10-04T10:16:58Z</time>
      </trkpt>
      <trkpt lat="46.0608" lon="4.42475">
        <ele>633.2</ele>
        <time>2025-10-04T10:16:59Z</time>
      </trkpt>
      <trkpt lat="46.06084" lon="4.42472">
        <ele>633.2</ele>
        <time>2025-10-04T10:17:00Z</time>
      </trkpt>
      <trkpt lat="46.06089" lon="4.42473">
        <ele>633.6</ele>
        <time>2025-10-04T10:17:01Z</time>
      </trkpt>
      <trkpt lat="46.06094" lon="4.42474">
        <ele>633.6</ele>
        <time>2025-10-04T10:17:02Z</time>
      </trkpt>
      <trkpt lat="46.06098" lon="4.42474">
        <ele>633.8</ele>
        <time>2025-10-04T10:17:03Z</time>
      </trkpt>
      <trkpt lat="46.06103" lon="4.42475">
        <ele>634.2</ele>
        <time>2025-10-04T10:17:04Z</time>
      </trkpt>
      <trkpt lat="46.06107" lon="4.42476">
        <ele>634.6</ele>
        <time>2025-10-04T10:17:05Z</time>
      </trkpt>
      <trkpt lat="46.06111" lon="4.42477">
        <ele>634.6</ele>
        <time>2025-10-04T10:17:06Z</time>
      </trkpt>
      <trkpt lat="46.06115" lon="4.42477">
        <ele>634.8</ele>
        <time>2025-10-04T10:17:07Z</time>
      </trkpt>
      <trkpt lat="46.0612" lon="4.42477">
        <ele>634.8</ele>
        <time>2025-10-04T10:17:08Z</time>
      </trkpt>
      <trkpt lat="46.06124" lon="4.42478">
        <ele>634.8</ele>
        <time>2025-10-04T10:17:09Z</time>
      </trkpt>
      <trkpt lat="46.06128" lon="4.42479">
        <ele>635.2</ele>
        <time>2025-10-04T10:17:10Z</time>
      </trkpt>
      <trkpt lat="46.06133" lon="4.42481">
        <ele>635.2</ele>
        <time>2025-10-04T10:17:11Z</time>
      </trkpt>
      <trkpt lat="46.06137" lon="4.42483">
        <ele>635.6</ele>
        <time>2025-10-04T10:17:12Z</time>
      </trkpt>
      <trkpt lat="46.06141" lon="4.42485">
        <ele>635.6</ele>
        <time>2025-10-04T10:17:13Z</time>
      </trkpt>
      <trkpt lat="46.06145" lon="4.42488">
        <ele>635.8</ele>
        <time>2025-10-04T10:17:14Z</time>
      </trkpt>
      <trkpt lat="46.0615" lon="4.42491">
        <ele>635.8</ele>
        <time>2025-10-04T10:17:15Z</time>
      </trkpt>
      <trkpt lat="46.06154" lon="4.42495">
        <ele>635.8</ele>
        <time>2025-10-04T10:17:16Z</time>
      </trkpt>
      <trkpt lat="46.06158" lon="4.42499">
        <ele>635.6</ele>
        <time>2025-10-04T10:17:17Z</time>
      </trkpt>
      <trkpt lat="46.06162" lon="4.42504">
        <ele>635.6</ele>
        <time>2025-10-04T10:17:18Z</time>
      </trkpt>
      <trkpt lat="46.06166" lon="4.42509">
        <ele>635.6</ele>
        <time>2025-10-04T10:17:19Z</time>
      </trkpt>
      <trkpt lat="46.06169" lon="4.42514">
        <ele>635.6</ele>
        <time>2025-10-04T10:17:20Z</time>
      </trkpt>
      <trkpt lat="46.06173" lon="4.42521">
        <ele>635.6</ele>
        <time>2025-10-04T10:17:21Z</time>
      </trkpt>
      <trkpt lat="46.06176" lon="4.42527">
        <ele>635.6</ele>
        <time>2025-10-04T10:17:22Z</time>
      </trkpt>
      <trkpt lat="46.0618" lon="4.42533">
        <ele>635.6</ele>
        <time>2025-10-04T10:17:23Z</time>
      </trkpt>
      <trkpt lat="46.06183" lon="4.4254">
        <ele>635.6</ele>
        <time>2025-10-04T10:17:24Z</time>
      </trkpt>
      <trkpt lat="46.06186" lon="4.42547">
        <ele>635.6</ele>
        <time>2025-10-04T10:17:25Z</time>
      </trkpt>
      <trkpt lat="46.06189" lon="4.42553">
        <ele>635.6</ele>
        <time>2025-10-04T10:17:26Z</time>
      </trkpt>
      <trkpt lat="46.06191" lon="4.4256">
        <ele>635.6</ele>
        <time>2025-10-04T10:17:27Z</time>
      </trkpt>
      <trkpt lat="46.06194" lon="4.42566">
        <ele>635.6</ele>
        <time>2025-10-04T10:17:28Z</time>
      </trkpt>
      <trkpt lat="46.06197" lon="4.42573">
        <ele>635.6</ele>
        <time>2025-10-04T10:17:29Z</time>
      </trkpt>
      <trkpt lat="46.06199" lon="4.4258">
        <ele>635.6</ele>
        <time>2025-10-04T10:17:30Z</time>
      </trkpt>
      <trkpt lat="46.06202" lon="4.42586">
        <ele>635.8</ele>
        <time>2025-10-04T10:17:31Z</time>
      </trkpt>
      <trkpt lat="46.06204" lon="4.42593">
        <ele>636.2</ele>
        <time>2025-10-04T10:17:32Z</time>
      </trkpt>
      <trkpt lat="46.06206" lon="4.426">
        <ele>636.2</ele>
        <time>2025-10-04T10:17:33Z</time>
      </trkpt>
      <trkpt lat="46.06209" lon="4.42606">
        <ele>636.2</ele>
        <time>2025-10-04T10:17:34Z</time>
      </trkpt>
      <trkpt lat="46.06211" lon="4.42613">
        <ele>636.2</ele>
        <time>2025-10-04T10:17:35Z</time>
      </trkpt>
      <trkpt lat="46.06213" lon="4.4262">
        <ele>636.4</ele>
        <time>2025-10-04T10:17:36Z</time>
      </trkpt>
      <trkpt lat="46.06215" lon="4.42627">
        <ele>636.4</ele>
        <time>2025-10-04T10:17:37Z</time>
      </trkpt>
      <trkpt lat="46.06217" lon="4.42635">
        <ele>636.4</ele>
        <time>2025-10-04T10:17:38Z</time>
      </trkpt>
      <trkpt lat="46.06219" lon="4.42642">
        <ele>636.4</ele>
        <time>2025-10-04T10:17:39Z</time>
      </trkpt>
      <trkpt lat="46.06221" lon="4.4265">
        <ele>636.8</ele>
        <time>2025-10-04T10:17:40Z</time>
      </trkpt>
      <trkpt lat="46.06222" lon="4.42657">
        <ele>636.8</ele>
        <time>2025-10-04T10:17:41Z</time>
      </trkpt>
      <trkpt lat="46.06224" lon="4.42664">
        <ele>636.8</ele>
        <time>2025-10-04T10:17:42Z</time>
      </trkpt>
      <trkpt lat="46.06225" lon="4.42671">
        <ele>636.8</ele>
        <time>2025-10-04T10:17:43Z</time>
      </trkpt>
      <trkpt lat="46.06227" lon="4.42679">
        <ele>636.8</ele>
        <time>2025-10-04T10:17:44Z</time>
      </trkpt>
      <trkpt lat="46.06228" lon="4.42686">
        <ele>636.8</ele>
        <time>2025-10-04T10:17:45Z</time>
      </trkpt>
      <trkpt lat="46.06228" lon="4.42686">
        <ele>636.8</ele>
        <time>2025-10-04T10:17:46Z</time>
      </trkpt>
      <trkpt lat="46.0623" lon="4.42693">
        <ele>636.8</ele>
        <time>2025-10-04T10:17:47Z</time>
      </trkpt>
      <trkpt lat="46.06231" lon="4.42701">
        <ele>636.8</ele>
        <time>2025-10-04T10:17:48Z</time>
      </trkpt>
      <trkpt lat="46.06231" lon="4.42709">
        <ele>636.8</ele>
        <time>2025-10-04T10:17:49Z</time>
      </trkpt>
      <trkpt lat="46.06233" lon="4.42716">
        <ele>637</ele>
        <time>2025-10-04T10:17:50Z</time>
      </trkpt>
      <trkpt lat="46.06235" lon="4.42723">
        <ele>637</ele>
        <time>2025-10-04T10:17:51Z</time>
      </trkpt>
      <trkpt lat="46.06236" lon="4.4273">
        <ele>637.2</ele>
        <time>2025-10-04T10:17:52Z</time>
      </trkpt>
      <trkpt lat="46.06238" lon="4.42738">
        <ele>637.2</ele>
        <time>2025-10-04T10:17:53Z</time>
      </trkpt>
      <trkpt lat="46.06239" lon="4.42745">
        <ele>637.6</ele>
        <time>2025-10-04T10:17:54Z</time>
      </trkpt>
      <trkpt lat="46.06241" lon="4.42752">
        <ele>637.6</ele>
        <time>2025-10-04T10:17:55Z</time>
      </trkpt>
      <trkpt lat="46.06243" lon="4.4276">
        <ele>637.8</ele>
        <time>2025-10-04T10:17:56Z</time>
      </trkpt>
      <trkpt lat="46.06244" lon="4.42773">
        <ele>637.8</ele>
        <time>2025-10-04T10:17:57Z</time>
      </trkpt>
      <trkpt lat="46.06246" lon="4.42774">
        <ele>638.2</ele>
        <time>2025-10-04T10:17:58Z</time>
      </trkpt>
      <trkpt lat="46.06247" lon="4.42782">
        <ele>638.2</ele>
        <time>2025-10-04T10:17:59Z</time>
      </trkpt>
      <trkpt lat="46.06247" lon="4.42788">
        <ele>638.2</ele>
        <time>2025-10-04T10:18:00Z</time>
      </trkpt>
      <trkpt lat="46.0625" lon="4.42795">
        <ele>638</ele>
        <time>2025-10-04T10:18:01Z</time>
      </trkpt>
      <trkpt lat="46.06251" lon="4.42802">
        <ele>638</ele>
        <time>2025-10-04T10:18:02Z</time>
      </trkpt>
      <trkpt lat="46.06253" lon="4.42808">
        <ele>638.2</ele>
        <time>2025-10-04T10:18:03Z</time>
      </trkpt>
      <trkpt lat="46.06255" lon="4.42815">
        <ele>638.2</ele>
        <time>2025-10-04T10:18:04Z</time>
      </trkpt>
      <trkpt lat="46.06256" lon="4.42821">
        <ele>638.2</ele>
        <time>2025-10-04T10:18:05Z</time>
      </trkpt>
      <trkpt lat="46.06261" lon="4.42825">
        <ele>638.2</ele>
        <time>2025-10-04T10:18:06Z</time>
      </trkpt>
      <trkpt lat="46.06265" lon="4.42829">
        <ele>638.2</ele>
        <time>2025-10-04T10:18:07Z</time>
      </trkpt>
      <trkpt lat="46.06269" lon="4.42832">
        <ele>638.2</ele>
        <time>2025-10-04T10:18:08Z</time>
      </trkpt>
      <trkpt lat="46.06274" lon="4.42835">
        <ele>638.2</ele>
        <time>2025-10-04T10:18:09Z</time>
      </trkpt>
      <trkpt lat="46.06279" lon="4.42837">
        <ele>638.2</ele>
        <time>2025-10-04T10:18:10Z</time>
      </trkpt>
      <trkpt lat="46.06284" lon="4.42838">
        <ele>638.4</ele>
        <time>2025-10-04T10:18:11Z</time>
      </trkpt>
      <trkpt lat="46.06289" lon="4.42836">
        <ele>638.4</ele>
        <time>2025-10-04T10:18:12Z</time>
      </trkpt>
      <trkpt lat="46.06294" lon="4.42834">
        <ele>638.8</ele>
        <time>2025-10-04T10:18:13Z</time>
      </trkpt>
      <trkpt lat="46.06298" lon="4.42831">
        <ele>638.8</ele>
        <time>2025-10-04T10:18:14Z</time>
      </trkpt>
      <trkpt lat="46.06301" lon="4.42828">
        <ele>639</ele>
        <time>2025-10-04T10:18:15Z</time>
      </trkpt>
      <trkpt lat="46.06305" lon="4.42823">
        <ele>639.2</ele>
        <time>2025-10-04T10:18:16Z</time>
      </trkpt>
      <trkpt lat="46.06308" lon="4.42819">
        <ele>639.2</ele>
        <time>2025-10-04T10:18:17Z</time>
      </trkpt>
      <trkpt lat="46.06311" lon="4.42815">
        <ele>639.2</ele>
        <time>2025-10-04T10:18:18Z</time>
      </trkpt>
      <trkpt lat="46.06315" lon="4.42811">
        <ele>639.2</ele>
        <time>2025-10-04T10:18:19Z</time>
      </trkpt>
      <trkpt lat="46.06318" lon="4.42807">
        <ele>639.2</ele>
        <time>2025-10-04T10:18:20Z</time>
      </trkpt>
      <trkpt lat="46.06322" lon="4.42805">
        <ele>639.4</ele>
        <time>2025-10-04T10:18:21Z</time>
      </trkpt>
      <trkpt lat="46.0633" lon="4.42798">
        <ele>639.4</ele>
        <time>2025-10-04T10:18:22Z</time>
      </trkpt>
      <trkpt lat="46.06334" lon="4.42795">
        <ele>640</ele>
        <time>2025-10-04T10:18:23Z</time>
      </trkpt>
      <trkpt lat="46.06338" lon="4.42792">
        <ele>640</ele>
        <time>2025-10-04T10:18:24Z</time>
      </trkpt>
      <trkpt lat="46.06342" lon="4.42789">
        <ele>640</ele>
        <time>2025-10-04T10:18:25Z</time>
      </trkpt>
      <trkpt lat="46.06346" lon="4.42786">
        <ele>640</ele>
        <time>2025-10-04T10:18:26Z</time>
      </trkpt>
      <trkpt lat="46.0635" lon="4.42784">
        <ele>640.4</ele>
        <time>2025-10-04T10:18:27Z</time>
      </trkpt>
      <trkpt lat="46.06354" lon="4.42782">
        <ele>640.4</ele>
        <time>2025-10-04T10:18:28Z</time>
      </trkpt>
      <trkpt lat="46.06357" lon="4.4278">
        <ele>640.6</ele>
        <time>2025-10-04T10:18:29Z</time>
      </trkpt>
      <trkpt lat="46.06361" lon="4.42779">
        <ele>640.6</ele>
        <time>2025-10-04T10:18:30Z</time>
      </trkpt>
      <trkpt lat="46.06365" lon="4.42778">
        <ele>641</ele>
        <time>2025-10-04T10:18:31Z</time>
      </trkpt>
      <trkpt lat="46.06369" lon="4.42777">
        <ele>641.2</ele>
        <time>2025-10-04T10:18:32Z</time>
      </trkpt>
      <trkpt lat="46.06373" lon="4.42777">
        <ele>641.2</ele>
        <time>2025-10-04T10:18:33Z</time>
      </trkpt>
      <trkpt lat="46.06377" lon="4.42776">
        <ele>641.2</ele>
        <time>2025-10-04T10:18:34Z</time>
      </trkpt>
      <trkpt lat="46.06381" lon="4.42775">
        <ele>641.2</ele>
        <time>2025-10-04T10:18:35Z</time>
      </trkpt>
      <trkpt lat="46.06385" lon="4.42774">
        <ele>641.2</ele>
        <time>2025-10-04T10:18:36Z</time>
      </trkpt>
      <trkpt lat="46.06389" lon="4.42773">
        <ele>641.2</ele>
        <time>2025-10-04T10:18:37Z</time>
      </trkpt>
      <trkpt lat="46.06393" lon="4.42772">
        <ele>641.2</ele>
        <time>2025-10-04T10:18:38Z</time>
      </trkpt>
      <trkpt lat="46.06397" lon="4.42772">
        <ele>641.6</ele>
        <time>2025-10-04T10:18:39Z</time>
      </trkpt>
      <trkpt lat="46.06401" lon="4.42771">
        <ele>641.8</ele>
        <time>2025-10-04T10:18:40Z</time>
      </trkpt>
      <trkpt lat="46.06404" lon="4.4277">
        <ele>641.8</ele>
        <time>2025-10-04T10:18:41Z</time>
      </trkpt>
      <trkpt lat="46.06408" lon="4.4277">
        <ele>641.8</ele>
        <time>2025-10-04T10:18:42Z</time>
      </trkpt>
      <trkpt lat="46.06412" lon="4.42769">
        <ele>641.8</ele>
        <time>2025-10-04T10:18:43Z</time>
      </trkpt>
      <trkpt lat="46.06416" lon="4.42768">
        <ele>642.2</ele>
        <time>2025-10-04T10:18:44Z</time>
      </trkpt>
      <trkpt lat="46.0642" lon="4.42768">
        <ele>642.2</ele>
        <time>2025-10-04T10:18:45Z</time>
      </trkpt>
      <trkpt lat="46.06424" lon="4.42768">
        <ele>642.6</ele>
        <time>2025-10-04T10:18:46Z</time>
      </trkpt>
      <trkpt lat="46.06428" lon="4.42767">
        <ele>642.6</ele>
        <time>2025-10-04T10:18:47Z</time>
      </trkpt>
      <trkpt lat="46.06432" lon="4.42767">
        <ele>642.6</ele>
        <time>2025-10-04T10:18:48Z</time>
      </trkpt>
      <trkpt lat="46.06436" lon="4.42768">
        <ele>643</ele>
        <time>2025-10-04T10:18:49Z</time>
      </trkpt>
      <trkpt lat="46.0644" lon="4.42768">
        <ele>643.2</ele>
        <time>2025-10-04T10:18:50Z</time>
      </trkpt>
      <trkpt lat="46.06444" lon="4.42769">
        <ele>643.6</ele>
        <time>2025-10-04T10:18:51Z</time>
      </trkpt>
      <trkpt lat="46.06448" lon="4.42769">
        <ele>643.6</ele>
        <time>2025-10-04T10:18:52Z</time>
      </trkpt>
      <trkpt lat="46.06452" lon="4.4277">
        <ele>644</ele>
        <time>2025-10-04T10:18:53Z</time>
      </trkpt>
      <trkpt lat="46.06456" lon="4.42771">
        <ele>644</ele>
        <time>2025-10-04T10:18:54Z</time>
      </trkpt>
      <trkpt lat="46.06461" lon="4.42772">
        <ele>644.2</ele>
        <time>2025-10-04T10:18:55Z</time>
      </trkpt>
      <trkpt lat="46.06465" lon="4.42773">
        <ele>644.2</ele>
        <time>2025-10-04T10:18:56Z</time>
      </trkpt>
      <trkpt lat="46.06469" lon="4.42775">
        <ele>644.6</ele>
        <time>2025-10-04T10:18:57Z</time>
      </trkpt>
      <trkpt lat="46.06473" lon="4.42777">
        <ele>644.6</ele>
        <time>2025-10-04T10:18:58Z</time>
      </trkpt>
      <trkpt lat="46.06477" lon="4.42779">
        <ele>645</ele>
        <time>2025-10-04T10:18:59Z</time>
      </trkpt>
      <trkpt lat="46.06481" lon="4.42782">
        <ele>645</ele>
        <time>2025-10-04T10:19:00Z</time>
      </trkpt>
      <trkpt lat="46.06484" lon="4.42785">
        <ele>645</ele>
        <time>2025-10-04T10:19:01Z</time>
      </trkpt>
      <trkpt lat="46.06488" lon="4.42788">
        <ele>645.2</ele>
        <time>2025-10-04T10:19:02Z</time>
      </trkpt>
      <trkpt lat="46.06492" lon="4.42792">
        <ele>645.2</ele>
        <time>2025-10-04T10:19:03Z</time>
      </trkpt>
      <trkpt lat="46.06495" lon="4.42795">
        <ele>645.2</ele>
        <time>2025-10-04T10:19:04Z</time>
      </trkpt>
      <trkpt lat="46.06498" lon="4.42798">
        <ele>645.2</ele>
        <time>2025-10-04T10:19:05Z</time>
      </trkpt>
      <trkpt lat="46.06501" lon="4.42801">
        <ele>645.6</ele>
        <time>2025-10-04T10:19:06Z</time>
      </trkpt>
      <trkpt lat="46.06504" lon="4.42804">
        <ele>645.6</ele>
        <time>2025-10-04T10:19:07Z</time>
      </trkpt>
      <trkpt lat="46.06507" lon="4.42808">
        <ele>645.6</ele>
        <time>2025-10-04T10:19:08Z</time>
      </trkpt>
      <trkpt lat="46.06509" lon="4.42812">
        <ele>645.6</ele>
        <time>2025-10-04T10:19:09Z</time>
      </trkpt>
      <trkpt lat="46.06512" lon="4.42816">
        <ele>645.6</ele>
        <time>2025-10-04T10:19:10Z</time>
      </trkpt>
      <trkpt lat="46.06514" lon="4.4282">
        <ele>645.8</ele>
        <time>2025-10-04T10:19:11Z</time>
      </trkpt>
      <trkpt lat="46.06517" lon="4.42824">
        <ele>645.8</ele>
        <time>2025-10-04T10:19:12Z</time>
      </trkpt>
      <trkpt lat="46.06519" lon="4.42828">
        <ele>645.8</ele>
        <time>2025-10-04T10:19:13Z</time>
      </trkpt>
      <trkpt lat="46.06521" lon="4.42832">
        <ele>646.2</ele>
        <time>2025-10-04T10:19:14Z</time>
      </trkpt>
      <trkpt lat="46.06524" lon="4.42836">
        <ele>646.2</ele>
        <time>2025-10-04T10:19:15Z</time>
      </trkpt>
      <trkpt lat="46.06526" lon="4.4284">
        <ele>646.2</ele>
        <time>2025-10-04T10:19:16Z</time>
      </trkpt>
      <trkpt lat="46.06529" lon="4.42844">
        <ele>646.2</ele>
        <time>2025-10-04T10:19:17Z</time>
      </trkpt>
      <trkpt lat="46.06531" lon="4.42848">
        <ele>646.6</ele>
        <time>2025-10-04T10:19:18Z</time>
      </trkpt>
      <trkpt lat="46.06534" lon="4.42852">
        <ele>646.6</ele>
        <time>2025-10-04T10:19:19Z</time>
      </trkpt>
      <trkpt lat="46.06537" lon="4.42857">
        <ele>646.6</ele>
        <time>2025-10-04T10:19:20Z</time>
      </trkpt>
      <trkpt lat="46.0654" lon="4.42861">
        <ele>646.8</ele>
        <time>2025-10-04T10:19:21Z</time>
      </trkpt>
      <trkpt lat="46.06542" lon="4.42865">
        <ele>646.8</ele>
        <time>2025-10-04T10:19:22Z</time>
      </trkpt>
      <trkpt lat="46.06545" lon="4.4287">
        <ele>646.8</ele>
        <time>2025-10-04T10:19:23Z</time>
      </trkpt>
      <trkpt lat="46.06547" lon="4.42874">
        <ele>647.2</ele>
        <time>2025-10-04T10:19:24Z</time>
      </trkpt>
      <trkpt lat="46.0655" lon="4.42878">
        <ele>647.4</ele>
        <time>2025-10-04T10:19:25Z</time>
      </trkpt>
      <trkpt lat="46.06553" lon="4.42882">
        <ele>647.4</ele>
        <time>2025-10-04T10:19:26Z</time>
      </trkpt>
      <trkpt lat="46.06555" lon="4.42886">
        <ele>647.4</ele>
        <time>2025-10-04T10:19:27Z</time>
      </trkpt>
      <trkpt lat="46.06558" lon="4.4289">
        <ele>647.4</ele>
        <time>2025-10-04T10:19:28Z</time>
      </trkpt>
      <trkpt lat="46.0656" lon="4.42895">
        <ele>647.6</ele>
        <time>2025-10-04T10:19:29Z</time>
      </trkpt>
      <trkpt lat="46.06563" lon="4.429">
        <ele>647.6</ele>
        <time>2025-10-04T10:19:30Z</time>
      </trkpt>
      <trkpt lat="46.06566" lon="4.42904">
        <ele>647.6</ele>
        <time>2025-10-04T10:19:31Z</time>
      </trkpt>
      <trkpt lat="46.06569" lon="4.42908">
        <ele>647.8</ele>
        <time>2025-10-04T10:19:32Z</time>
      </trkpt>
      <trkpt lat="46.06571" lon="4.42913">
        <ele>647.8</ele>
        <time>2025-10-04T10:19:33Z</time>
      </trkpt>
      <trkpt lat="46.06574" lon="4.42917">
        <ele>647.8</ele>
        <time>2025-10-04T10:19:34Z</time>
      </trkpt>
      <trkpt lat="46.06577" lon="4.42922">
        <ele>647.8</ele>
        <time>2025-10-04T10:19:35Z</time>
      </trkpt>
      <trkpt lat="46.0658" lon="4.42926">
        <ele>647.8</ele>
        <time>2025-10-04T10:19:36Z</time>
      </trkpt>
      <trkpt lat="46.06582" lon="4.42931">
        <ele>648</ele>
        <time>2025-10-04T10:19:37Z</time>
      </trkpt>
      <trkpt lat="46.06584" lon="4.42935">
        <ele>648</ele>
        <time>2025-10-04T10:19:38Z</time>
      </trkpt>
      <trkpt lat="46.06587" lon="4.42939">
        <ele>648</ele>
        <time>2025-10-04T10:19:39Z</time>
      </trkpt>
      <trkpt lat="46.0659" lon="4.42944">
        <ele>648</ele>
        <time>2025-10-04T10:19:40Z</time>
      </trkpt>
      <trkpt lat="46.06593" lon="4.42947">
        <ele>648</ele>
        <time>2025-10-04T10:19:41Z</time>
      </trkpt>
      <trkpt lat="46.06595" lon="4.42951">
        <ele>648</ele>
        <time>2025-10-04T10:19:42Z</time>
      </trkpt>
      <trkpt lat="46.06597" lon="4.42954">
        <ele>648</ele>
        <time>2025-10-04T10:19:43Z</time>
      </trkpt>
      <trkpt lat="46.06599" lon="4.42958">
        <ele>648</ele>
        <time>2025-10-04T10:19:44Z</time>
      </trkpt>
      <trkpt lat="46.06602" lon="4.42962">
        <ele>648.2</ele>
        <time>2025-10-04T10:19:45Z</time>
      </trkpt>
      <trkpt lat="46.06605" lon="4.42966">
        <ele>648.2</ele>
        <time>2025-10-04T10:19:46Z</time>
      </trkpt>
      <trkpt lat="46.06609" lon="4.42971">
        <ele>648.2</ele>
        <time>2025-10-04T10:19:47Z</time>
      </trkpt>
      <trkpt lat="46.06611" lon="4.42975">
        <ele>648.6</ele>
        <time>2025-10-04T10:19:48Z</time>
      </trkpt>
      <trkpt lat="46.06613" lon="4.4298">
        <ele>648.6</ele>
        <time>2025-10-04T10:19:49Z</time>
      </trkpt>
      <trkpt lat="46.06616" lon="4.42982">
        <ele>649</ele>
        <time>2025-10-04T10:19:50Z</time>
      </trkpt>
      <trkpt lat="46.06618" lon="4.42987">
        <ele>649</ele>
        <time>2025-10-04T10:19:51Z</time>
      </trkpt>
      <trkpt lat="46.06622" lon="4.42991">
        <ele>649.2</ele>
        <time>2025-10-04T10:19:52Z</time>
      </trkpt>
      <trkpt lat="46.06624" lon="4.42995">
        <ele>649.2</ele>
        <time>2025-10-04T10:19:53Z</time>
      </trkpt>
      <trkpt lat="46.06627" lon="4.43">
        <ele>649.6</ele>
        <time>2025-10-04T10:19:54Z</time>
      </trkpt>
      <trkpt lat="46.06631" lon="4.43004">
        <ele>649.6</ele>
        <time>2025-10-04T10:19:55Z</time>
      </trkpt>
      <trkpt lat="46.06633" lon="4.43008">
        <ele>650</ele>
        <time>2025-10-04T10:19:56Z</time>
      </trkpt>
      <trkpt lat="46.06636" lon="4.43012">
        <ele>650.2</ele>
        <time>2025-10-04T10:19:57Z</time>
      </trkpt>
      <trkpt lat="46.06638" lon="4.43016">
        <ele>650.2</ele>
        <time>2025-10-04T10:19:58Z</time>
      </trkpt>
      <trkpt lat="46.0664" lon="4.43018">
        <ele>650.6</ele>
        <time>2025-10-04T10:19:59Z</time>
      </trkpt>
      <trkpt lat="46.06643" lon="4.43022">
        <ele>650.6</ele>
        <time>2025-10-04T10:20:00Z</time>
      </trkpt>
      <trkpt lat="46.06645" lon="4.43026">
        <ele>650.8</ele>
        <time>2025-10-04T10:20:01Z</time>
      </trkpt>
      <trkpt lat="46.06647" lon="4.43033">
        <ele>650.8</ele>
        <time>2025-10-04T10:20:02Z</time>
      </trkpt>
      <trkpt lat="46.06651" lon="4.43039">
        <ele>650.8</ele>
        <time>2025-10-04T10:20:03Z</time>
      </trkpt>
      <trkpt lat="46.06652" lon="4.43044">
        <ele>650.8</ele>
        <time>2025-10-04T10:20:04Z</time>
      </trkpt>
      <trkpt lat="46.06653" lon="4.43049">
        <ele>651.4</ele>
        <time>2025-10-04T10:20:05Z</time>
      </trkpt>
      <trkpt lat="46.06657" lon="4.4305">
        <ele>651.6</ele>
        <time>2025-10-04T10:20:06Z</time>
      </trkpt>
      <trkpt lat="46.06659" lon="4.43054">
        <ele>651.6</ele>
        <time>2025-10-04T10:20:07Z</time>
      </trkpt>
      <trkpt lat="46.06662" lon="4.43056">
        <ele>651.8</ele>
        <time>2025-10-04T10:20:08Z</time>
      </trkpt>
      <trkpt lat="46.06664" lon="4.4306">
        <ele>651.8</ele>
        <time>2025-10-04T10:20:09Z</time>
      </trkpt>
      <trkpt lat="46.06667" lon="4.43065">
        <ele>651.8</ele>
        <time>2025-10-04T10:20:10Z</time>
      </trkpt>
      <trkpt lat="46.06668" lon="4.4307">
        <ele>652.2</ele>
        <time>2025-10-04T10:20:11Z</time>
      </trkpt>
      <trkpt lat="46.06669" lon="4.43075">
        <ele>652.2</ele>
        <time>2025-10-04T10:20:12Z</time>
      </trkpt>
      <trkpt lat="46.06672" lon="4.43078">
        <ele>652.6</ele>
        <time>2025-10-04T10:20:13Z</time>
      </trkpt>
      <trkpt lat="46.06673" lon="4.43085">
        <ele>652.6</ele>
        <time>2025-10-04T10:20:14Z</time>
      </trkpt>
      <trkpt lat="46.06675" lon="4.43089">
        <ele>652.6</ele>
        <time>2025-10-04T10:20:15Z</time>
      </trkpt>
      <trkpt lat="46.06677" lon="4.43093">
        <ele>652.6</ele>
        <time>2025-10-04T10:20:16Z</time>
      </trkpt>
      <trkpt lat="46.06679" lon="4.43097">
        <ele>652.8</ele>
        <time>2025-10-04T10:20:17Z</time>
      </trkpt>
      <trkpt lat="46.0668" lon="4.43102">
        <ele>653</ele>
        <time>2025-10-04T10:20:18Z</time>
      </trkpt>
      <trkpt lat="46.06681" lon="4.43107">
        <ele>653.2</ele>
        <time>2025-10-04T10:20:19Z</time>
      </trkpt>
      <trkpt lat="46.06683" lon="4.43112">
        <ele>653.2</ele>
        <time>2025-10-04T10:20:20Z</time>
      </trkpt>
      <trkpt lat="46.06685" lon="4.43117">
        <ele>653.2</ele>
        <time>2025-10-04T10:20:21Z</time>
      </trkpt>
      <trkpt lat="46.06687" lon="4.43121">
        <ele>653.6</ele>
        <time>2025-10-04T10:20:22Z</time>
      </trkpt>
      <trkpt lat="46.0669" lon="4.43126">
        <ele>653.6</ele>
        <time>2025-10-04T10:20:23Z</time>
      </trkpt>
      <trkpt lat="46.06693" lon="4.43131">
        <ele>653.6</ele>
        <time>2025-10-04T10:20:24Z</time>
      </trkpt>
      <trkpt lat="46.06696" lon="4.43136">
        <ele>653.8</ele>
        <time>2025-10-04T10:20:25Z</time>
      </trkpt>
      <trkpt lat="46.06698" lon="4.4314">
        <ele>653.8</ele>
        <time>2025-10-04T10:20:26Z</time>
      </trkpt>
      <trkpt lat="46.06701" lon="4.43144">
        <ele>653.8</ele>
        <time>2025-10-04T10:20:27Z</time>
      </trkpt>
      <trkpt lat="46.06703" lon="4.43149">
        <ele>654.2</ele>
        <time>2025-10-04T10:20:28Z</time>
      </trkpt>
      <trkpt lat="46.06704" lon="4.43157">
        <ele>654.2</ele>
        <time>2025-10-04T10:20:29Z</time>
      </trkpt>
      <trkpt lat="46.06706" lon="4.43161">
        <ele>654.2</ele>
        <time>2025-10-04T10:20:30Z</time>
      </trkpt>
      <trkpt lat="46.0671" lon="4.43165">
        <ele>654.2</ele>
        <time>2025-10-04T10:20:31Z</time>
      </trkpt>
      <trkpt lat="46.06713" lon="4.43172">
        <ele>654.2</ele>
        <time>2025-10-04T10:20:32Z</time>
      </trkpt>
      <trkpt lat="46.06715" lon="4.43177">
        <ele>654.2</ele>
        <time>2025-10-04T10:20:33Z</time>
      </trkpt>
      <trkpt lat="46.06718" lon="4.43184">
        <ele>654.4</ele>
        <time>2025-10-04T10:20:34Z</time>
      </trkpt>
      <trkpt lat="46.06719" lon="4.4319">
        <ele>654.4</ele>
        <time>2025-10-04T10:20:35Z</time>
      </trkpt>
      <trkpt lat="46.06722" lon="4.43197">
        <ele>654.4</ele>
        <time>2025-10-04T10:20:36Z</time>
      </trkpt>
      <trkpt lat="46.06724" lon="4.43204">
        <ele>654.4</ele>
        <time>2025-10-04T10:20:37Z</time>
      </trkpt>
      <trkpt lat="46.06725" lon="4.43211">
        <ele>654.4</ele>
        <time>2025-10-04T10:20:38Z</time>
      </trkpt>
      <trkpt lat="46.06728" lon="4.43217">
        <ele>654.4</ele>
        <time>2025-10-04T10:20:39Z</time>
      </trkpt>
      <trkpt lat="46.06732" lon="4.43222">
        <ele>654.4</ele>
        <time>2025-10-04T10:20:40Z</time>
      </trkpt>
      <trkpt lat="46.06735" lon="4.43229">
        <ele>654.2</ele>
        <time>2025-10-04T10:20:41Z</time>
      </trkpt>
      <trkpt lat="46.06742" lon="4.43225">
        <ele>654.2</ele>
        <time>2025-10-04T10:20:42Z</time>
      </trkpt>
      <trkpt lat="46.06746" lon="4.43223">
        <ele>654.2</ele>
        <time>2025-10-04T10:20:43Z</time>
      </trkpt>
      <trkpt lat="46.0675" lon="4.43219">
        <ele>654.2</ele>
        <time>2025-10-04T10:20:44Z</time>
      </trkpt>
      <trkpt lat="46.06753" lon="4.43214">
        <ele>654</ele>
        <time>2025-10-04T10:20:45Z</time>
      </trkpt>
      <trkpt lat="46.06756" lon="4.43208">
        <ele>654</ele>
        <time>2025-10-04T10:20:46Z</time>
      </trkpt>
      <trkpt lat="46.06758" lon="4.43202">
        <ele>654</ele>
        <time>2025-10-04T10:20:47Z</time>
      </trkpt>
      <trkpt lat="46.06761" lon="4.43196">
        <ele>653.8</ele>
        <time>2025-10-04T10:20:48Z</time>
      </trkpt>
      <trkpt lat="46.06764" lon="4.43189">
        <ele>653.8</ele>
        <time>2025-10-04T10:20:49Z</time>
      </trkpt>
      <trkpt lat="46.06766" lon="4.43182">
        <ele>653.8</ele>
        <time>2025-10-04T10:20:50Z</time>
      </trkpt>
      <trkpt lat="46.06768" lon="4.43173">
        <ele>653.8</ele>
        <time>2025-10-04T10:20:51Z</time>
      </trkpt>
      <trkpt lat="46.0677" lon="4.43166">
        <ele>653.8</ele>
        <time>2025-10-04T10:20:52Z</time>
      </trkpt>
      <trkpt lat="46.06771" lon="4.43161">
        <ele>653.8</ele>
        <time>2025-10-04T10:20:53Z</time>
      </trkpt>
      <trkpt lat="46.06773" lon="4.43152">
        <ele>653.4</ele>
        <time>2025-10-04T10:20:54Z</time>
      </trkpt>
      <trkpt lat="46.06775" lon="4.43144">
        <ele>653.4</ele>
        <time>2025-10-04T10:20:55Z</time>
      </trkpt>
      <trkpt lat="46.06776" lon="4.43136">
        <ele>653.2</ele>
        <time>2025-10-04T10:20:56Z</time>
      </trkpt>
      <trkpt lat="46.06776" lon="4.4313">
        <ele>652.4</ele>
        <time>2025-10-04T10:20:57Z</time>
      </trkpt>
      <trkpt lat="46.06777" lon="4.43122">
        <ele>651.8</ele>
        <time>2025-10-04T10:20:58Z</time>
      </trkpt>
      <trkpt lat="46.06778" lon="4.43115">
        <ele>652.8</ele>
        <time>2025-10-04T10:20:59Z</time>
      </trkpt>
      <trkpt lat="46.06778" lon="4.43108">
        <ele>653.2</ele>
        <time>2025-10-04T10:21:00Z</time>
      </trkpt>
      <trkpt lat="46.06779" lon="4.43101">
        <ele>653.2</ele>
        <time>2025-10-04T10:21:01Z</time>
      </trkpt>
      <trkpt lat="46.06778" lon="4.43095">
        <ele>653.4</ele>
        <time>2025-10-04T10:21:02Z</time>
      </trkpt>
      <trkpt lat="46.06777" lon="4.43087">
        <ele>653.4</ele>
        <time>2025-10-04T10:21:03Z</time>
      </trkpt>
      <trkpt lat="46.06777" lon="4.43078">
        <ele>653.2</ele>
        <time>2025-10-04T10:21:04Z</time>
      </trkpt>
      <trkpt lat="46.06776" lon="4.43073">
        <ele>653.6</ele>
        <time>2025-10-04T10:21:05Z</time>
      </trkpt>
      <trkpt lat="46.06775" lon="4.43066">
        <ele>653.6</ele>
        <time>2025-10-04T10:21:06Z</time>
      </trkpt>
      <trkpt lat="46.06775" lon="4.4306">
        <ele>653.6</ele>
        <time>2025-10-04T10:21:07Z</time>
      </trkpt>
      <trkpt lat="46.06776" lon="4.43052">
        <ele>653.8</ele>
        <time>2025-10-04T10:21:08Z</time>
      </trkpt>
      <trkpt lat="46.06778" lon="4.43045">
        <ele>653.8</ele>
        <time>2025-10-04T10:21:09Z</time>
      </trkpt>
      <trkpt lat="46.0678" lon="4.43039">
        <ele>653.8</ele>
        <time>2025-10-04T10:21:10Z</time>
      </trkpt>
      <trkpt lat="46.06782" lon="4.43032">
        <ele>653.6</ele>
        <time>2025-10-04T10:21:11Z</time>
      </trkpt>
      <trkpt lat="46.06785" lon="4.43027">
        <ele>653.6</ele>
        <time>2025-10-04T10:21:12Z</time>
      </trkpt>
      <trkpt lat="46.06788" lon="4.43022">
        <ele>654</ele>
        <time>2025-10-04T10:21:13Z</time>
      </trkpt>
      <trkpt lat="46.06791" lon="4.43017">
        <ele>654.4</ele>
        <time>2025-10-04T10:21:14Z</time>
      </trkpt>
      <trkpt lat="46.06791" lon="4.43017">
        <ele>654.4</ele>
        <time>2025-10-04T10:21:15Z</time>
      </trkpt>
      <trkpt lat="46.06794" lon="4.43013">
        <ele>654.4</ele>
        <time>2025-10-04T10:21:16Z</time>
      </trkpt>
      <trkpt lat="46.06798" lon="4.43009">
        <ele>654.6</ele>
        <time>2025-10-04T10:21:17Z</time>
      </trkpt>
      <trkpt lat="46.06801" lon="4.43005">
        <ele>654.6</ele>
        <time>2025-10-04T10:21:18Z</time>
      </trkpt>
      <trkpt lat="46.06804" lon="4.43">
        <ele>655</ele>
        <time>2025-10-04T10:21:19Z</time>
      </trkpt>
      <trkpt lat="46.06808" lon="4.42995">
        <ele>655.2</ele>
        <time>2025-10-04T10:21:20Z</time>
      </trkpt>
      <trkpt lat="46.06811" lon="4.42991">
        <ele>655.2</ele>
        <time>2025-10-04T10:21:21Z</time>
      </trkpt>
      <trkpt lat="46.06815" lon="4.42986">
        <ele>655.2</ele>
        <time>2025-10-04T10:21:22Z</time>
      </trkpt>
      <trkpt lat="46.06819" lon="4.42982">
        <ele>655.6</ele>
        <time>2025-10-04T10:21:23Z</time>
      </trkpt>
      <trkpt lat="46.06822" lon="4.42977">
        <ele>655.6</ele>
        <time>2025-10-04T10:21:24Z</time>
      </trkpt>
      <trkpt lat="46.06826" lon="4.42973">
        <ele>655.6</ele>
        <time>2025-10-04T10:21:25Z</time>
      </trkpt>
      <trkpt lat="46.06829" lon="4.42968">
        <ele>655.8</ele>
        <time>2025-10-04T10:21:26Z</time>
      </trkpt>
      <trkpt lat="46.06833" lon="4.42964">
        <ele>655.8</ele>
        <time>2025-10-04T10:21:27Z</time>
      </trkpt>
      <trkpt lat="46.06837" lon="4.4296">
        <ele>655.8</ele>
        <time>2025-10-04T10:21:28Z</time>
      </trkpt>
      <trkpt lat="46.06841" lon="4.42956">
        <ele>655.8</ele>
        <time>2025-10-04T10:21:29Z</time>
      </trkpt>
      <trkpt lat="46.06846" lon="4.42951">
        <ele>656.2</ele>
        <time>2025-10-04T10:21:30Z</time>
      </trkpt>
      <trkpt lat="46.0685" lon="4.42947">
        <ele>656.2</ele>
        <time>2025-10-04T10:21:31Z</time>
      </trkpt>
      <trkpt lat="46.06854" lon="4.42943">
        <ele>656.2</ele>
        <time>2025-10-04T10:21:32Z</time>
      </trkpt>
      <trkpt lat="46.06858" lon="4.42939">
        <ele>656.2</ele>
        <time>2025-10-04T10:21:33Z</time>
      </trkpt>
      <trkpt lat="46.06863" lon="4.42934">
        <ele>656</ele>
        <time>2025-10-04T10:21:34Z</time>
      </trkpt>
      <trkpt lat="46.06867" lon="4.4293">
        <ele>656</ele>
        <time>2025-10-04T10:21:35Z</time>
      </trkpt>
      <trkpt lat="46.06871" lon="4.42926">
        <ele>656</ele>
        <time>2025-10-04T10:21:36Z</time>
      </trkpt>
      <trkpt lat="46.06875" lon="4.42922">
        <ele>656</ele>
        <time>2025-10-04T10:21:37Z</time>
      </trkpt>
      <trkpt lat="46.06879" lon="4.42917">
        <ele>656</ele>
        <time>2025-10-04T10:21:38Z</time>
      </trkpt>
      <trkpt lat="46.06884" lon="4.42912">
        <ele>656</ele>
        <time>2025-10-04T10:21:39Z</time>
      </trkpt>
      <trkpt lat="46.06889" lon="4.42908">
        <ele>656.2</ele>
        <time>2025-10-04T10:21:40Z</time>
      </trkpt>
      <trkpt lat="46.06894" lon="4.42903">
        <ele>656</ele>
        <time>2025-10-04T10:21:41Z</time>
      </trkpt>
      <trkpt lat="46.06899" lon="4.42899">
        <ele>656</ele>
        <time>2025-10-04T10:21:42Z</time>
      </trkpt>
      <trkpt lat="46.06904" lon="4.42895">
        <ele>655.6</ele>
        <time>2025-10-04T10:21:43Z</time>
      </trkpt>
      <trkpt lat="46.06909" lon="4.42892">
        <ele>655.6</ele>
        <time>2025-10-04T10:21:44Z</time>
      </trkpt>
      <trkpt lat="46.06915" lon="4.42889">
        <ele>655.6</ele>
        <time>2025-10-04T10:21:45Z</time>
      </trkpt>
      <trkpt lat="46.06921" lon="4.42887">
        <ele>655.6</ele>
        <time>2025-10-04T10:21:46Z</time>
      </trkpt>
      <trkpt lat="46.06926" lon="4.42884">
        <ele>655.6</ele>
        <time>2025-10-04T10:21:47Z</time>
      </trkpt>
      <trkpt lat="46.06932" lon="4.42884">
        <ele>655.6</ele>
        <time>2025-10-04T10:21:48Z</time>
      </trkpt>
      <trkpt lat="46.06938" lon="4.42884">
        <ele>655.6</ele>
        <time>2025-10-04T10:21:49Z</time>
      </trkpt>
      <trkpt lat="46.06945" lon="4.42884">
        <ele>655.6</ele>
        <time>2025-10-04T10:21:50Z</time>
      </trkpt>
      <trkpt lat="46.06951" lon="4.42886">
        <ele>655.6</ele>
        <time>2025-10-04T10:21:51Z</time>
      </trkpt>
      <trkpt lat="46.06956" lon="4.42888">
        <ele>655.8</ele>
        <time>2025-10-04T10:21:52Z</time>
      </trkpt>
      <trkpt lat="46.06962" lon="4.42891">
        <ele>655.8</ele>
        <time>2025-10-04T10:21:53Z</time>
      </trkpt>
      <trkpt lat="46.06967" lon="4.42894">
        <ele>655.8</ele>
        <time>2025-10-04T10:21:54Z</time>
      </trkpt>
      <trkpt lat="46.06973" lon="4.42896">
        <ele>656</ele>
        <time>2025-10-04T10:21:55Z</time>
      </trkpt>
      <trkpt lat="46.06978" lon="4.42898">
        <ele>656</ele>
        <time>2025-10-04T10:21:56Z</time>
      </trkpt>
      <trkpt lat="46.06984" lon="4.42901">
        <ele>656.4</ele>
        <time>2025-10-04T10:21:57Z</time>
      </trkpt>
      <trkpt lat="46.06989" lon="4.42903">
        <ele>656.6</ele>
        <time>2025-10-04T10:21:58Z</time>
      </trkpt>
      <trkpt lat="46.06994" lon="4.42905">
        <ele>656.6</ele>
        <time>2025-10-04T10:21:59Z</time>
      </trkpt>
      <trkpt lat="46.06999" lon="4.42907">
        <ele>657</ele>
        <time>2025-10-04T10:22:00Z</time>
      </trkpt>
      <trkpt lat="46.07004" lon="4.4291">
        <ele>657</ele>
        <time>2025-10-04T10:22:01Z</time>
      </trkpt>
      <trkpt lat="46.07009" lon="4.42912">
        <ele>657</ele>
        <time>2025-10-04T10:22:02Z</time>
      </trkpt>
      <trkpt lat="46.07013" lon="4.42914">
        <ele>657.2</ele>
        <time>2025-10-04T10:22:03Z</time>
      </trkpt>
      <trkpt lat="46.07018" lon="4.42916">
        <ele>657.2</ele>
        <time>2025-10-04T10:22:04Z</time>
      </trkpt>
      <trkpt lat="46.07022" lon="4.42918">
        <ele>657.4</ele>
        <time>2025-10-04T10:22:05Z</time>
      </trkpt>
      <trkpt lat="46.07027" lon="4.42919">
        <ele>657.4</ele>
        <time>2025-10-04T10:22:06Z</time>
      </trkpt>
      <trkpt lat="46.07032" lon="4.42922">
        <ele>657.4</ele>
        <time>2025-10-04T10:22:07Z</time>
      </trkpt>
      <trkpt lat="46.07036" lon="4.42924">
        <ele>658</ele>
        <time>2025-10-04T10:22:08Z</time>
      </trkpt>
      <trkpt lat="46.0704" lon="4.42925">
        <ele>658.4</ele>
        <time>2025-10-04T10:22:09Z</time>
      </trkpt>
      <trkpt lat="46.07044" lon="4.42926">
        <ele>658.4</ele>
        <time>2025-10-04T10:22:10Z</time>
      </trkpt>
      <trkpt lat="46.07049" lon="4.42927">
        <ele>658.4</ele>
        <time>2025-10-04T10:22:11Z</time>
      </trkpt>
      <trkpt lat="46.07058" lon="4.4293">
        <ele>658.6</ele>
        <time>2025-10-04T10:22:12Z</time>
      </trkpt>
      <trkpt lat="46.07063" lon="4.42931">
        <ele>658.6</ele>
        <time>2025-10-04T10:22:13Z</time>
      </trkpt>
      <trkpt lat="46.07067" lon="4.42932">
        <ele>659</ele>
        <time>2025-10-04T10:22:14Z</time>
      </trkpt>
      <trkpt lat="46.07071" lon="4.42933">
        <ele>659</ele>
        <time>2025-10-04T10:22:15Z</time>
      </trkpt>
      <trkpt lat="46.07076" lon="4.42934">
        <ele>659.2</ele>
        <time>2025-10-04T10:22:16Z</time>
      </trkpt>
      <trkpt lat="46.0708" lon="4.42935">
        <ele>659.2</ele>
        <time>2025-10-04T10:22:17Z</time>
      </trkpt>
      <trkpt lat="46.07085" lon="4.42936">
        <ele>659.2</ele>
        <time>2025-10-04T10:22:18Z</time>
      </trkpt>
      <trkpt lat="46.07091" lon="4.42938">
        <ele>659.2</ele>
        <time>2025-10-04T10:22:19Z</time>
      </trkpt>
      <trkpt lat="46.07095" lon="4.4294">
        <ele>659.2</ele>
        <time>2025-10-04T10:22:20Z</time>
      </trkpt>
      <trkpt lat="46.07101" lon="4.42941">
        <ele>659.2</ele>
        <time>2025-10-04T10:22:21Z</time>
      </trkpt>
      <trkpt lat="46.07107" lon="4.42942">
        <ele>659</ele>
        <time>2025-10-04T10:22:22Z</time>
      </trkpt>
      <trkpt lat="46.07112" lon="4.42944">
        <ele>659</ele>
        <time>2025-10-04T10:22:23Z</time>
      </trkpt>
      <trkpt lat="46.07118" lon="4.42945">
        <ele>659</ele>
        <time>2025-10-04T10:22:24Z</time>
      </trkpt>
      <trkpt lat="46.07124" lon="4.42945">
        <ele>659</ele>
        <time>2025-10-04T10:22:25Z</time>
      </trkpt>
      <trkpt lat="46.0713" lon="4.42947">
        <ele>659</ele>
        <time>2025-10-04T10:22:26Z</time>
      </trkpt>
      <trkpt lat="46.07137" lon="4.42949">
        <ele>658.6</ele>
        <time>2025-10-04T10:22:27Z</time>
      </trkpt>
      <trkpt lat="46.07144" lon="4.4295">
        <ele>658.6</ele>
        <time>2025-10-04T10:22:28Z</time>
      </trkpt>
      <trkpt lat="46.07151" lon="4.42951">
        <ele>658.6</ele>
        <time>2025-10-04T10:22:29Z</time>
      </trkpt>
      <trkpt lat="46.07158" lon="4.42953">
        <ele>658.6</ele>
        <time>2025-10-04T10:22:30Z</time>
      </trkpt>
      <trkpt lat="46.07165" lon="4.42956">
        <ele>658.4</ele>
        <time>2025-10-04T10:22:31Z</time>
      </trkpt>
      <trkpt lat="46.07173" lon="4.42958">
        <ele>657.8</ele>
        <time>2025-10-04T10:22:32Z</time>
      </trkpt>
      <trkpt lat="46.0718" lon="4.42961">
        <ele>657.4</ele>
        <time>2025-10-04T10:22:33Z</time>
      </trkpt>
      <trkpt lat="46.07188" lon="4.42964">
        <ele>656.8</ele>
        <time>2025-10-04T10:22:34Z</time>
      </trkpt>
      <trkpt lat="46.07194" lon="4.42969">
        <ele>656.2</ele>
        <time>2025-10-04T10:22:35Z</time>
      </trkpt>
      <trkpt lat="46.072" lon="4.42974">
        <ele>656.2</ele>
        <time>2025-10-04T10:22:36Z</time>
      </trkpt>
      <trkpt lat="46.07207" lon="4.4298">
        <ele>656.2</ele>
        <time>2025-10-04T10:22:37Z</time>
      </trkpt>
      <trkpt lat="46.07213" lon="4.42986">
        <ele>655.6</ele>
        <time>2025-10-04T10:22:38Z</time>
      </trkpt>
      <trkpt lat="46.07218" lon="4.42992">
        <ele>655.6</ele>
        <time>2025-10-04T10:22:39Z</time>
      </trkpt>
      <trkpt lat="46.07223" lon="4.43">
        <ele>655.4</ele>
        <time>2025-10-04T10:22:40Z</time>
      </trkpt>
      <trkpt lat="46.07225" lon="4.4301">
        <ele>655</ele>
        <time>2025-10-04T10:22:41Z</time>
      </trkpt>
      <trkpt lat="46.07227" lon="4.4302">
        <ele>654.4</ele>
        <time>2025-10-04T10:22:42Z</time>
      </trkpt>
      <trkpt lat="46.07227" lon="4.43032">
        <ele>653.8</ele>
        <time>2025-10-04T10:22:43Z</time>
      </trkpt>
      <trkpt lat="46.07226" lon="4.43043">
        <ele>653.4</ele>
        <time>2025-10-04T10:22:44Z</time>
      </trkpt>
      <trkpt lat="46.07225" lon="4.43055">
        <ele>652.8</ele>
        <time>2025-10-04T10:22:45Z</time>
      </trkpt>
      <trkpt lat="46.07225" lon="4.43069">
        <ele>652.2</ele>
        <time>2025-10-04T10:22:46Z</time>
      </trkpt>
      <trkpt lat="46.07226" lon="4.43081">
        <ele>651.8</ele>
        <time>2025-10-04T10:22:47Z</time>
      </trkpt>
      <trkpt lat="46.07227" lon="4.43093">
        <ele>651.8</ele>
        <time>2025-10-04T10:22:48Z</time>
      </trkpt>
      <trkpt lat="46.07229" lon="4.43105">
        <ele>651.8</ele>
        <time>2025-10-04T10:22:49Z</time>
      </trkpt>
      <trkpt lat="46.07232" lon="4.43116">
        <ele>651.4</ele>
        <time>2025-10-04T10:22:50Z</time>
      </trkpt>
      <trkpt lat="46.07236" lon="4.43126">
        <ele>651</ele>
        <time>2025-10-04T10:22:51Z</time>
      </trkpt>
      <trkpt lat="46.07241" lon="4.43135">
        <ele>651</ele>
        <time>2025-10-04T10:22:52Z</time>
      </trkpt>
      <trkpt lat="46.07247" lon="4.4314">
        <ele>650.6</ele>
        <time>2025-10-04T10:22:53Z</time>
      </trkpt>
      <trkpt lat="46.07255" lon="4.43141">
        <ele>650.6</ele>
        <time>2025-10-04T10:22:54Z</time>
      </trkpt>
      <trkpt lat="46.0726" lon="4.43139">
        <ele>650.6</ele>
        <time>2025-10-04T10:22:55Z</time>
      </trkpt>
      <trkpt lat="46.07266" lon="4.43136">
        <ele>650.8</ele>
        <time>2025-10-04T10:22:56Z</time>
      </trkpt>
      <trkpt lat="46.07271" lon="4.43133">
        <ele>650.8</ele>
        <time>2025-10-04T10:22:57Z</time>
      </trkpt>
      <trkpt lat="46.07276" lon="4.43128">
        <ele>651.2</ele>
        <time>2025-10-04T10:22:58Z</time>
      </trkpt>
      <trkpt lat="46.07279" lon="4.43126">
        <ele>651.4</ele>
        <time>2025-10-04T10:22:59Z</time>
      </trkpt>
      <trkpt lat="46.07284" lon="4.43123">
        <ele>651.4</ele>
        <time>2025-10-04T10:23:00Z</time>
      </trkpt>
      <trkpt lat="46.07288" lon="4.4312">
        <ele>651.8</ele>
        <time>2025-10-04T10:23:01Z</time>
      </trkpt>
      <trkpt lat="46.07291" lon="4.43118">
        <ele>652.2</ele>
        <time>2025-10-04T10:23:02Z</time>
      </trkpt>
      <trkpt lat="46.07294" lon="4.43117">
        <ele>652.4</ele>
        <time>2025-10-04T10:23:03Z</time>
      </trkpt>
      <trkpt lat="46.07298" lon="4.43115">
        <ele>652.6</ele>
        <time>2025-10-04T10:23:04Z</time>
      </trkpt>
      <trkpt lat="46.07301" lon="4.43114">
        <ele>653.2</ele>
        <time>2025-10-04T10:23:05Z</time>
      </trkpt>
      <trkpt lat="46.07304" lon="4.43113">
        <ele>653.2</ele>
        <time>2025-10-04T10:23:06Z</time>
      </trkpt>
      <trkpt lat="46.07307" lon="4.43112">
        <ele>653.8</ele>
        <time>2025-10-04T10:23:07Z</time>
      </trkpt>
      <trkpt lat="46.0731" lon="4.43111">
        <ele>654.2</ele>
        <time>2025-10-04T10:23:08Z</time>
      </trkpt>
      <trkpt lat="46.07313" lon="4.4311">
        <ele>654.4</ele>
        <time>2025-10-04T10:23:09Z</time>
      </trkpt>
      <trkpt lat="46.07316" lon="4.4311">
        <ele>654.4</ele>
        <time>2025-10-04T10:23:10Z</time>
      </trkpt>
      <trkpt lat="46.07318" lon="4.43109">
        <ele>654.8</ele>
        <time>2025-10-04T10:23:11Z</time>
      </trkpt>
      <trkpt lat="46.07321" lon="4.43108">
        <ele>654.8</ele>
        <time>2025-10-04T10:23:12Z</time>
      </trkpt>
      <trkpt lat="46.07324" lon="4.43107">
        <ele>655.2</ele>
        <time>2025-10-04T10:23:13Z</time>
      </trkpt>
      <trkpt lat="46.07327" lon="4.43107">
        <ele>655.4</ele>
        <time>2025-10-04T10:23:14Z</time>
      </trkpt>
      <trkpt lat="46.0733" lon="4.43106">
        <ele>655.6</ele>
        <time>2025-10-04T10:23:15Z</time>
      </trkpt>
      <trkpt lat="46.07334" lon="4.43106">
        <ele>656</ele>
        <time>2025-10-04T10:23:16Z</time>
      </trkpt>
      <trkpt lat="46.07337" lon="4.43105">
        <ele>656</ele>
        <time>2025-10-04T10:23:17Z</time>
      </trkpt>
      <trkpt lat="46.0734" lon="4.43105">
        <ele>656.2</ele>
        <time>2025-10-04T10:23:18Z</time>
      </trkpt>
      <trkpt lat="46.07343" lon="4.43105">
        <ele>656.2</ele>
        <time>2025-10-04T10:23:19Z</time>
      </trkpt>
      <trkpt lat="46.07346" lon="4.43105">
        <ele>656.6</ele>
        <time>2025-10-04T10:23:20Z</time>
      </trkpt>
      <trkpt lat="46.07349" lon="4.43104">
        <ele>656.6</ele>
        <time>2025-10-04T10:23:21Z</time>
      </trkpt>
      <trkpt lat="46.07352" lon="4.43103">
        <ele>657</ele>
        <time>2025-10-04T10:23:22Z</time>
      </trkpt>
      <trkpt lat="46.07355" lon="4.43102">
        <ele>657</ele>
        <time>2025-10-04T10:23:23Z</time>
      </trkpt>
      <trkpt lat="46.07358" lon="4.43101">
        <ele>657.2</ele>
        <time>2025-10-04T10:23:24Z</time>
      </trkpt>
      <trkpt lat="46.0736" lon="4.43101">
        <ele>657.2</ele>
        <time>2025-10-04T10:23:25Z</time>
      </trkpt>
      <trkpt lat="46.07363" lon="4.43101">
        <ele>657.6</ele>
        <time>2025-10-04T10:23:26Z</time>
      </trkpt>
      <trkpt lat="46.07366" lon="4.43101">
        <ele>657.6</ele>
        <time>2025-10-04T10:23:27Z</time>
      </trkpt>
      <trkpt lat="46.07368" lon="4.431">
        <ele>658</ele>
        <time>2025-10-04T10:23:28Z</time>
      </trkpt>
      <trkpt lat="46.07371" lon="4.43099">
        <ele>658.4</ele>
        <time>2025-10-04T10:23:29Z</time>
      </trkpt>
      <trkpt lat="46.07374" lon="4.43098">
        <ele>658.4</ele>
        <time>2025-10-04T10:23:30Z</time>
      </trkpt>
      <trkpt lat="46.07377" lon="4.43097">
        <ele>658.6</ele>
        <time>2025-10-04T10:23:31Z</time>
      </trkpt>
      <trkpt lat="46.0738" lon="4.43095">
        <ele>658.6</ele>
        <time>2025-10-04T10:23:32Z</time>
      </trkpt>
      <trkpt lat="46.07383" lon="4.43094">
        <ele>658.6</ele>
        <time>2025-10-04T10:23:33Z</time>
      </trkpt>
      <trkpt lat="46.07386" lon="4.43093">
        <ele>658.6</ele>
        <time>2025-10-04T10:23:34Z</time>
      </trkpt>
      <trkpt lat="46.07389" lon="4.43092">
        <ele>658.8</ele>
        <time>2025-10-04T10:23:35Z</time>
      </trkpt>
      <trkpt lat="46.07393" lon="4.43091">
        <ele>658.8</ele>
        <time>2025-10-04T10:23:36Z</time>
      </trkpt>
      <trkpt lat="46.07396" lon="4.4309">
        <ele>658.8</ele>
        <time>2025-10-04T10:23:37Z</time>
      </trkpt>
      <trkpt lat="46.07399" lon="4.43089">
        <ele>659.2</ele>
        <time>2025-10-04T10:23:38Z</time>
      </trkpt>
      <trkpt lat="46.07402" lon="4.43088">
        <ele>659.2</ele>
        <time>2025-10-04T10:23:39Z</time>
      </trkpt>
      <trkpt lat="46.07405" lon="4.43087">
        <ele>659.2</ele>
        <time>2025-10-04T10:23:40Z</time>
      </trkpt>
      <trkpt lat="46.07408" lon="4.43086">
        <ele>659.6</ele>
        <time>2025-10-04T10:23:41Z</time>
      </trkpt>
      <trkpt lat="46.07411" lon="4.43085">
        <ele>659.6</ele>
        <time>2025-10-04T10:23:42Z</time>
      </trkpt>
      <trkpt lat="46.07415" lon="4.43085">
        <ele>659.6</ele>
        <time>2025-10-04T10:23:43Z</time>
      </trkpt>
      <trkpt lat="46.07418" lon="4.43084">
        <ele>659.8</ele>
        <time>2025-10-04T10:23:44Z</time>
      </trkpt>
      <trkpt lat="46.07421" lon="4.43083">
        <ele>659.8</ele>
        <time>2025-10-04T10:23:45Z</time>
      </trkpt>
      <trkpt lat="46.07424" lon="4.43082">
        <ele>660</ele>
        <time>2025-10-04T10:23:46Z</time>
      </trkpt>
      <trkpt lat="46.07428" lon="4.43082">
        <ele>660</ele>
        <time>2025-10-04T10:23:47Z</time>
      </trkpt>
      <trkpt lat="46.07431" lon="4.43081">
        <ele>660.4</ele>
        <time>2025-10-04T10:23:48Z</time>
      </trkpt>
      <trkpt lat="46.07435" lon="4.4308">
        <ele>660.4</ele>
        <time>2025-10-04T10:23:49Z</time>
      </trkpt>
      <trkpt lat="46.07439" lon="4.4308">
        <ele>660.4</ele>
        <time>2025-10-04T10:23:50Z</time>
      </trkpt>
      <trkpt lat="46.07442" lon="4.43079">
        <ele>660.4</ele>
        <time>2025-10-04T10:23:51Z</time>
      </trkpt>
      <trkpt lat="46.07446" lon="4.43079">
        <ele>660.6</ele>
        <time>2025-10-04T10:23:52Z</time>
      </trkpt>
      <trkpt lat="46.0745" lon="4.43078">
        <ele>660.6</ele>
        <time>2025-10-04T10:23:53Z</time>
      </trkpt>
      <trkpt lat="46.07453" lon="4.43077">
        <ele>660.8</ele>
        <time>2025-10-04T10:23:54Z</time>
      </trkpt>
      <trkpt lat="46.07457" lon="4.43076">
        <ele>660.8</ele>
        <time>2025-10-04T10:23:55Z</time>
      </trkpt>
      <trkpt lat="46.0746" lon="4.43076">
        <ele>660.8</ele>
        <time>2025-10-04T10:23:56Z</time>
      </trkpt>
      <trkpt lat="46.07464" lon="4.43075">
        <ele>660.8</ele>
        <time>2025-10-04T10:23:57Z</time>
      </trkpt>
      <trkpt lat="46.07467" lon="4.43075">
        <ele>661</ele>
        <time>2025-10-04T10:23:58Z</time>
      </trkpt>
      <trkpt lat="46.0747" lon="4.43074">
        <ele>661</ele>
        <time>2025-10-04T10:23:59Z</time>
      </trkpt>
      <trkpt lat="46.07473" lon="4.43074">
        <ele>661</ele>
        <time>2025-10-04T10:24:00Z</time>
      </trkpt>
      <trkpt lat="46.07475" lon="4.43073">
        <ele>661.4</ele>
        <time>2025-10-04T10:24:01Z</time>
      </trkpt>
      <trkpt lat="46.07477" lon="4.43072">
        <ele>661.4</ele>
        <time>2025-10-04T10:24:02Z</time>
      </trkpt>
      <trkpt lat="46.07479" lon="4.43071">
        <ele>661.4</ele>
        <time>2025-10-04T10:24:03Z</time>
      </trkpt>
      <trkpt lat="46.07481" lon="4.4307">
        <ele>661.4</ele>
        <time>2025-10-04T10:24:04Z</time>
      </trkpt>
      <trkpt lat="46.07483" lon="4.43069">
        <ele>661.6</ele>
        <time>2025-10-04T10:24:05Z</time>
      </trkpt>
      <trkpt lat="46.07484" lon="4.43067">
        <ele>661.6</ele>
        <time>2025-10-04T10:24:06Z</time>
      </trkpt>
      <trkpt lat="46.07486" lon="4.43067">
        <ele>661.6</ele>
        <time>2025-10-04T10:24:07Z</time>
      </trkpt>
      <trkpt lat="46.07489" lon="4.43066">
        <ele>661.8</ele>
        <time>2025-10-04T10:24:08Z</time>
      </trkpt>
      <trkpt lat="46.07492" lon="4.43066">
        <ele>661.8</ele>
        <time>2025-10-04T10:24:09Z</time>
      </trkpt>
      <trkpt lat="46.07496" lon="4.43066">
        <ele>661.8</ele>
        <time>2025-10-04T10:24:10Z</time>
      </trkpt>
      <trkpt lat="46.075" lon="4.43066">
        <ele>662</ele>
        <time>2025-10-04T10:24:11Z</time>
      </trkpt>
      <trkpt lat="46.07503" lon="4.43066">
        <ele>662</ele>
        <time>2025-10-04T10:24:12Z</time>
      </trkpt>
      <trkpt lat="46.07507" lon="4.43065">
        <ele>662</ele>
        <time>2025-10-04T10:24:13Z</time>
      </trkpt>
      <trkpt lat="46.07511" lon="4.43064">
        <ele>662</ele>
        <time>2025-10-04T10:24:14Z</time>
      </trkpt>
      <trkpt lat="46.07515" lon="4.43063">
        <ele>662</ele>
        <time>2025-10-04T10:24:15Z</time>
      </trkpt>
      <trkpt lat="46.07518" lon="4.43062">
        <ele>662</ele>
        <time>2025-10-04T10:24:16Z</time>
      </trkpt>
      <trkpt lat="46.07522" lon="4.43061">
        <ele>662</ele>
        <time>2025-10-04T10:24:17Z</time>
      </trkpt>
      <trkpt lat="46.07526" lon="4.4306">
        <ele>662</ele>
        <time>2025-10-04T10:24:18Z</time>
      </trkpt>
      <trkpt lat="46.0753" lon="4.43059">
        <ele>662.2</ele>
        <time>2025-10-04T10:24:19Z</time>
      </trkpt>
      <trkpt lat="46.07534" lon="4.43058">
        <ele>662.2</ele>
        <time>2025-10-04T10:24:20Z</time>
      </trkpt>
      <trkpt lat="46.07538" lon="4.43057">
        <ele>662.6</ele>
        <time>2025-10-04T10:24:21Z</time>
      </trkpt>
      <trkpt lat="46.07542" lon="4.43056">
        <ele>662.6</ele>
        <time>2025-10-04T10:24:22Z</time>
      </trkpt>
      <trkpt lat="46.07546" lon="4.43055">
        <ele>663</ele>
        <time>2025-10-04T10:24:23Z</time>
      </trkpt>
      <trkpt lat="46.0755" lon="4.43055">
        <ele>663</ele>
        <time>2025-10-04T10:24:24Z</time>
      </trkpt>
      <trkpt lat="46.07554" lon="4.43055">
        <ele>663.2</ele>
        <time>2025-10-04T10:24:25Z</time>
      </trkpt>
      <trkpt lat="46.07558" lon="4.43054">
        <ele>663.2</ele>
        <time>2025-10-04T10:24:26Z</time>
      </trkpt>
      <trkpt lat="46.07562" lon="4.43055">
        <ele>663.2</ele>
        <time>2025-10-04T10:24:27Z</time>
      </trkpt>
      <trkpt lat="46.07567" lon="4.43054">
        <ele>663.2</ele>
        <time>2025-10-04T10:24:28Z</time>
      </trkpt>
      <trkpt lat="46.07572" lon="4.43053">
        <ele>663.2</ele>
        <time>2025-10-04T10:24:29Z</time>
      </trkpt>
      <trkpt lat="46.07577" lon="4.43053">
        <ele>663.2</ele>
        <time>2025-10-04T10:24:30Z</time>
      </trkpt>
      <trkpt lat="46.07583" lon="4.43052">
        <ele>663</ele>
        <time>2025-10-04T10:24:31Z</time>
      </trkpt>
      <trkpt lat="46.07589" lon="4.43052">
        <ele>663</ele>
        <time>2025-10-04T10:24:32Z</time>
      </trkpt>
      <trkpt lat="46.07595" lon="4.43052">
        <ele>663.2</ele>
        <time>2025-10-04T10:24:33Z</time>
      </trkpt>
      <trkpt lat="46.07601" lon="4.43053">
        <ele>662.8</ele>
        <time>2025-10-04T10:24:34Z</time>
      </trkpt>
      <trkpt lat="46.07607" lon="4.43053">
        <ele>662.6</ele>
        <time>2025-10-04T10:24:35Z</time>
      </trkpt>
      <trkpt lat="46.07615" lon="4.43054">
        <ele>662.2</ele>
        <time>2025-10-04T10:24:36Z</time>
      </trkpt>
      <trkpt lat="46.07622" lon="4.43055">
        <ele>662.2</ele>
        <time>2025-10-04T10:24:37Z</time>
      </trkpt>
      <trkpt lat="46.07629" lon="4.43057">
        <ele>661.8</ele>
        <time>2025-10-04T10:24:38Z</time>
      </trkpt>
      <trkpt lat="46.07636" lon="4.43059">
        <ele>661.8</ele>
        <time>2025-10-04T10:24:39Z</time>
      </trkpt>
      <trkpt lat="46.07643" lon="4.43062">
        <ele>661.6</ele>
        <time>2025-10-04T10:24:40Z</time>
      </trkpt>
      <trkpt lat="46.0765" lon="4.43065">
        <ele>660.8</ele>
        <time>2025-10-04T10:24:41Z</time>
      </trkpt>
      <trkpt lat="46.07658" lon="4.4307">
        <ele>660.4</ele>
        <time>2025-10-04T10:24:42Z</time>
      </trkpt>
      <trkpt lat="46.07665" lon="4.43076">
        <ele>660</ele>
        <time>2025-10-04T10:24:43Z</time>
      </trkpt>
      <trkpt lat="46.07672" lon="4.43082">
        <ele>659.4</ele>
        <time>2025-10-04T10:24:44Z</time>
      </trkpt>
      <trkpt lat="46.0768" lon="4.4309">
        <ele>659.4</ele>
        <time>2025-10-04T10:24:45Z</time>
      </trkpt>
      <trkpt lat="46.07688" lon="4.43097">
        <ele>658.4</ele>
        <time>2025-10-04T10:24:46Z</time>
      </trkpt>
      <trkpt lat="46.07697" lon="4.43104">
        <ele>658</ele>
        <time>2025-10-04T10:24:47Z</time>
      </trkpt>
      <trkpt lat="46.07705" lon="4.43111">
        <ele>657.2</ele>
        <time>2025-10-04T10:24:48Z</time>
      </trkpt>
      <trkpt lat="46.07714" lon="4.43118">
        <ele>656.6</ele>
        <time>2025-10-04T10:24:49Z</time>
      </trkpt>
      <trkpt lat="46.07724" lon="4.43124">
        <ele>656</ele>
        <time>2025-10-04T10:24:50Z</time>
      </trkpt>
      <trkpt lat="46.07732" lon="4.4313">
        <ele>655.2</ele>
        <time>2025-10-04T10:24:51Z</time>
      </trkpt>
      <trkpt lat="46.07741" lon="4.43138">
        <ele>654.6</ele>
        <time>2025-10-04T10:24:52Z</time>
      </trkpt>
      <trkpt lat="46.07749" lon="4.43147">
        <ele>653.8</ele>
        <time>2025-10-04T10:24:53Z</time>
      </trkpt>
      <trkpt lat="46.07755" lon="4.43158">
        <ele>653.4</ele>
        <time>2025-10-04T10:24:54Z</time>
      </trkpt>
      <trkpt lat="46.07761" lon="4.43167">
        <ele>652.8</ele>
        <time>2025-10-04T10:24:55Z</time>
      </trkpt>
      <trkpt lat="46.07766" lon="4.43174">
        <ele>652.6</ele>
        <time>2025-10-04T10:24:56Z</time>
      </trkpt>
      <trkpt lat="46.0777" lon="4.43179">
        <ele>652.2</ele>
        <time>2025-10-04T10:24:57Z</time>
      </trkpt>
      <trkpt lat="46.07776" lon="4.43179">
        <ele>652</ele>
        <time>2025-10-04T10:24:58Z</time>
      </trkpt>
      <trkpt lat="46.0778" lon="4.43176">
        <ele>651.4</ele>
        <time>2025-10-04T10:24:59Z</time>
      </trkpt>
      <trkpt lat="46.07785" lon="4.43173">
        <ele>651.2</ele>
        <time>2025-10-04T10:25:00Z</time>
      </trkpt>
      <trkpt lat="46.07789" lon="4.43167">
        <ele>650.6</ele>
        <time>2025-10-04T10:25:01Z</time>
      </trkpt>
      <trkpt lat="46.07791" lon="4.4316">
        <ele>650</ele>
        <time>2025-10-04T10:25:02Z</time>
      </trkpt>
      <trkpt lat="46.07793" lon="4.43153">
        <ele>649.6</ele>
        <time>2025-10-04T10:25:03Z</time>
      </trkpt>
      <trkpt lat="46.07791" lon="4.43143">
        <ele>649.2</ele>
        <time>2025-10-04T10:25:04Z</time>
      </trkpt>
      <trkpt lat="46.07791" lon="4.43134">
        <ele>648.6</ele>
        <time>2025-10-04T10:25:05Z</time>
      </trkpt>
      <trkpt lat="46.0779" lon="4.43124">
        <ele>648</ele>
        <time>2025-10-04T10:25:06Z</time>
      </trkpt>
      <trkpt lat="46.07789" lon="4.43116">
        <ele>647.4</ele>
        <time>2025-10-04T10:25:07Z</time>
      </trkpt>
      <trkpt lat="46.07788" lon="4.43107">
        <ele>647</ele>
        <time>2025-10-04T10:25:08Z</time>
      </trkpt>
      <trkpt lat="46.07788" lon="4.43098">
        <ele>647</ele>
        <time>2025-10-04T10:25:09Z</time>
      </trkpt>
      <trkpt lat="46.07788" lon="4.43091">
        <ele>646.6</ele>
        <time>2025-10-04T10:25:10Z</time>
      </trkpt>
      <trkpt lat="46.07791" lon="4.43083">
        <ele>646.4</ele>
        <time>2025-10-04T10:25:11Z</time>
      </trkpt>
      <trkpt lat="46.07795" lon="4.43076">
        <ele>645.8</ele>
        <time>2025-10-04T10:25:12Z</time>
      </trkpt>
      <trkpt lat="46.07799" lon="4.4307">
        <ele>645.6</ele>
        <time>2025-10-04T10:25:13Z</time>
      </trkpt>
      <trkpt lat="46.07804" lon="4.43065">
        <ele>645.2</ele>
        <time>2025-10-04T10:25:14Z</time>
      </trkpt>
      <trkpt lat="46.07808" lon="4.43057">
        <ele>644.8</ele>
        <time>2025-10-04T10:25:15Z</time>
      </trkpt>
      <trkpt lat="46.07811" lon="4.43048">
        <ele>644.4</ele>
        <time>2025-10-04T10:25:16Z</time>
      </trkpt>
      <trkpt lat="46.07813" lon="4.4304">
        <ele>644</ele>
        <time>2025-10-04T10:25:17Z</time>
      </trkpt>
      <trkpt lat="46.07815" lon="4.43034">
        <ele>644</ele>
        <time>2025-10-04T10:25:18Z</time>
      </trkpt>
      <trkpt lat="46.07817" lon="4.43028">
        <ele>644</ele>
        <time>2025-10-04T10:25:19Z</time>
      </trkpt>
      <trkpt lat="46.0782" lon="4.43026">
        <ele>644</ele>
        <time>2025-10-04T10:25:20Z</time>
      </trkpt>
      <trkpt lat="46.07823" lon="4.43023">
        <ele>644.4</ele>
        <time>2025-10-04T10:25:21Z</time>
      </trkpt>
      <trkpt lat="46.07826" lon="4.43023">
        <ele>644.6</ele>
        <time>2025-10-04T10:25:22Z</time>
      </trkpt>
      <trkpt lat="46.07829" lon="4.43023">
        <ele>645</ele>
        <time>2025-10-04T10:25:23Z</time>
      </trkpt>
      <trkpt lat="46.07831" lon="4.43022">
        <ele>645</ele>
        <time>2025-10-04T10:25:24Z</time>
      </trkpt>
      <trkpt lat="46.07836" lon="4.43021">
        <ele>645.4</ele>
        <time>2025-10-04T10:25:25Z</time>
      </trkpt>
      <trkpt lat="46.07839" lon="4.4302">
        <ele>645.4</ele>
        <time>2025-10-04T10:25:26Z</time>
      </trkpt>
      <trkpt lat="46.07842" lon="4.43019">
        <ele>645.4</ele>
        <time>2025-10-04T10:25:27Z</time>
      </trkpt>
      <trkpt lat="46.07847" lon="4.4302">
        <ele>645.6</ele>
        <time>2025-10-04T10:25:28Z</time>
      </trkpt>
      <trkpt lat="46.07851" lon="4.4302">
        <ele>646</ele>
        <time>2025-10-04T10:25:29Z</time>
      </trkpt>
      <trkpt lat="46.07854" lon="4.4302">
        <ele>646.2</ele>
        <time>2025-10-04T10:25:30Z</time>
      </trkpt>
      <trkpt lat="46.07858" lon="4.43021">
        <ele>646.4</ele>
        <time>2025-10-04T10:25:31Z</time>
      </trkpt>
      <trkpt lat="46.07861" lon="4.43021">
        <ele>646.4</ele>
        <time>2025-10-04T10:25:32Z</time>
      </trkpt>
      <trkpt lat="46.07864" lon="4.43021">
        <ele>647</ele>
        <time>2025-10-04T10:25:33Z</time>
      </trkpt>
      <trkpt lat="46.07868" lon="4.43021">
        <ele>647</ele>
        <time>2025-10-04T10:25:34Z</time>
      </trkpt>
      <trkpt lat="46.07872" lon="4.43022">
        <ele>647.2</ele>
        <time>2025-10-04T10:25:35Z</time>
      </trkpt>
      <trkpt lat="46.07875" lon="4.43022">
        <ele>647.2</ele>
        <time>2025-10-04T10:25:36Z</time>
      </trkpt>
      <trkpt lat="46.07878" lon="4.43022">
        <ele>647.2</ele>
        <time>2025-10-04T10:25:37Z</time>
      </trkpt>
      <trkpt lat="46.07881" lon="4.43022">
        <ele>647.6</ele>
        <time>2025-10-04T10:25:38Z</time>
      </trkpt>
      <trkpt lat="46.07884" lon="4.43022">
        <ele>648</ele>
        <time>2025-10-04T10:25:39Z</time>
      </trkpt>
      <trkpt lat="46.07887" lon="4.43022">
        <ele>648.2</ele>
        <time>2025-10-04T10:25:40Z</time>
      </trkpt>
      <trkpt lat="46.07891" lon="4.43022">
        <ele>648.2</ele>
        <time>2025-10-04T10:25:41Z</time>
      </trkpt>
      <trkpt lat="46.07894" lon="4.43022">
        <ele>648.6</ele>
        <time>2025-10-04T10:25:42Z</time>
      </trkpt>
      <trkpt lat="46.07897" lon="4.43022">
        <ele>648.8</ele>
        <time>2025-10-04T10:25:43Z</time>
      </trkpt>
      <trkpt lat="46.079" lon="4.43022">
        <ele>649.2</ele>
        <time>2025-10-04T10:25:44Z</time>
      </trkpt>
      <trkpt lat="46.07903" lon="4.43022">
        <ele>649.2</ele>
        <time>2025-10-04T10:25:45Z</time>
      </trkpt>
      <trkpt lat="46.07906" lon="4.43023">
        <ele>649.4</ele>
        <time>2025-10-04T10:25:46Z</time>
      </trkpt>
      <trkpt lat="46.07909" lon="4.43024">
        <ele>649.4</ele>
        <time>2025-10-04T10:25:47Z</time>
      </trkpt>
      <trkpt lat="46.07912" lon="4.43024">
        <ele>649.8</ele>
        <time>2025-10-04T10:25:48Z</time>
      </trkpt>
      <trkpt lat="46.07916" lon="4.43025">
        <ele>650.2</ele>
        <time>2025-10-04T10:25:49Z</time>
      </trkpt>
      <trkpt lat="46.07919" lon="4.43024">
        <ele>650.4</ele>
        <time>2025-10-04T10:25:50Z</time>
      </trkpt>
      <trkpt lat="46.07922" lon="4.43024">
        <ele>650.4</ele>
        <time>2025-10-04T10:25:51Z</time>
      </trkpt>
      <trkpt lat="46.07925" lon="4.43023">
        <ele>650.8</ele>
        <time>2025-10-04T10:25:52Z</time>
      </trkpt>
      <trkpt lat="46.07928" lon="4.43023">
        <ele>651.2</ele>
        <time>2025-10-04T10:25:53Z</time>
      </trkpt>
      <trkpt lat="46.0793" lon="4.43023">
        <ele>651.2</ele>
        <time>2025-10-04T10:25:54Z</time>
      </trkpt>
      <trkpt lat="46.07934" lon="4.43022">
        <ele>651.4</ele>
        <time>2025-10-04T10:25:55Z</time>
      </trkpt>
      <trkpt lat="46.07938" lon="4.43022">
        <ele>651.4</ele>
        <time>2025-10-04T10:25:56Z</time>
      </trkpt>
      <trkpt lat="46.07941" lon="4.43021">
        <ele>651.8</ele>
        <time>2025-10-04T10:25:57Z</time>
      </trkpt>
      <trkpt lat="46.07944" lon="4.43021">
        <ele>651.8</ele>
        <time>2025-10-04T10:25:58Z</time>
      </trkpt>
      <trkpt lat="46.07947" lon="4.4302">
        <ele>652.2</ele>
        <time>2025-10-04T10:25:59Z</time>
      </trkpt>
      <trkpt lat="46.0795" lon="4.43019">
        <ele>652.2</ele>
        <time>2025-10-04T10:26:00Z</time>
      </trkpt>
      <trkpt lat="46.07952" lon="4.43018">
        <ele>652.4</ele>
        <time>2025-10-04T10:26:01Z</time>
      </trkpt>
      <trkpt lat="46.07955" lon="4.43017">
        <ele>652.4</ele>
        <time>2025-10-04T10:26:02Z</time>
      </trkpt>
      <trkpt lat="46.07958" lon="4.43016">
        <ele>652.8</ele>
        <time>2025-10-04T10:26:03Z</time>
      </trkpt>
      <trkpt lat="46.07961" lon="4.43016">
        <ele>652.8</ele>
        <time>2025-10-04T10:26:04Z</time>
      </trkpt>
      <trkpt lat="46.07964" lon="4.43015">
        <ele>653</ele>
        <time>2025-10-04T10:26:05Z</time>
      </trkpt>
      <trkpt lat="46.07966" lon="4.43014">
        <ele>653</ele>
        <time>2025-10-04T10:26:06Z</time>
      </trkpt>
      <trkpt lat="46.07969" lon="4.43014">
        <ele>653.4</ele>
        <time>2025-10-04T10:26:07Z</time>
      </trkpt>
      <trkpt lat="46.07971" lon="4.43013">
        <ele>653.6</ele>
        <time>2025-10-04T10:26:08Z</time>
      </trkpt>
      <trkpt lat="46.07974" lon="4.43013">
        <ele>653.6</ele>
        <time>2025-10-04T10:26:09Z</time>
      </trkpt>
      <trkpt lat="46.07976" lon="4.43012">
        <ele>653.8</ele>
        <time>2025-10-04T10:26:10Z</time>
      </trkpt>
      <trkpt lat="46.07979" lon="4.43011">
        <ele>654</ele>
        <time>2025-10-04T10:26:11Z</time>
      </trkpt>
      <trkpt lat="46.07981" lon="4.4301">
        <ele>654.2</ele>
        <time>2025-10-04T10:26:12Z</time>
      </trkpt>
      <trkpt lat="46.07984" lon="4.43009">
        <ele>654.2</ele>
        <time>2025-10-04T10:26:13Z</time>
      </trkpt>
      <trkpt lat="46.07986" lon="4.43009">
        <ele>654.2</ele>
        <time>2025-10-04T10:26:14Z</time>
      </trkpt>
      <trkpt lat="46.07988" lon="4.43008">
        <ele>654.8</ele>
        <time>2025-10-04T10:26:15Z</time>
      </trkpt>
      <trkpt lat="46.07991" lon="4.43007">
        <ele>654.8</ele>
        <time>2025-10-04T10:26:16Z</time>
      </trkpt>
      <trkpt lat="46.07993" lon="4.43006">
        <ele>654.8</ele>
        <time>2025-10-04T10:26:17Z</time>
      </trkpt>
      <trkpt lat="46.07995" lon="4.43006">
        <ele>655</ele>
        <time>2025-10-04T10:26:18Z</time>
      </trkpt>
      <trkpt lat="46.07998" lon="4.43005">
        <ele>655</ele>
        <time>2025-10-04T10:26:19Z</time>
      </trkpt>
      <trkpt lat="46.08" lon="4.43004">
        <ele>655.2</ele>
        <time>2025-10-04T10:26:20Z</time>
      </trkpt>
      <trkpt lat="46.08003" lon="4.43003">
        <ele>655.2</ele>
        <time>2025-10-04T10:26:21Z</time>
      </trkpt>
      <trkpt lat="46.08005" lon="4.43002">
        <ele>655.4</ele>
        <time>2025-10-04T10:26:22Z</time>
      </trkpt>
      <trkpt lat="46.08008" lon="4.43001">
        <ele>655.4</ele>
        <time>2025-10-04T10:26:23Z</time>
      </trkpt>
      <trkpt lat="46.0801" lon="4.43">
        <ele>655.8</ele>
        <time>2025-10-04T10:26:24Z</time>
      </trkpt>
      <trkpt lat="46.08012" lon="4.42999">
        <ele>656</ele>
        <time>2025-10-04T10:26:25Z</time>
      </trkpt>
      <trkpt lat="46.08015" lon="4.42997">
        <ele>656</ele>
        <time>2025-10-04T10:26:26Z</time>
      </trkpt>
      <trkpt lat="46.08017" lon="4.42996">
        <ele>656</ele>
        <time>2025-10-04T10:26:27Z</time>
      </trkpt>
      <trkpt lat="46.08019" lon="4.42994">
        <ele>656</ele>
        <time>2025-10-04T10:26:28Z</time>
      </trkpt>
      <trkpt lat="46.08022" lon="4.42993">
        <ele>656.6</ele>
        <time>2025-10-04T10:26:29Z</time>
      </trkpt>
      <trkpt lat="46.08024" lon="4.42992">
        <ele>656.6</ele>
        <time>2025-10-04T10:26:30Z</time>
      </trkpt>
      <trkpt lat="46.08027" lon="4.42992">
        <ele>656.8</ele>
        <time>2025-10-04T10:26:31Z</time>
      </trkpt>
      <trkpt lat="46.08029" lon="4.42991">
        <ele>656.8</ele>
        <time>2025-10-04T10:26:32Z</time>
      </trkpt>
      <trkpt lat="46.08032" lon="4.4299">
        <ele>657</ele>
        <time>2025-10-04T10:26:33Z</time>
      </trkpt>
      <trkpt lat="46.08034" lon="4.42989">
        <ele>657.2</ele>
        <time>2025-10-04T10:26:34Z</time>
      </trkpt>
      <trkpt lat="46.08036" lon="4.42988">
        <ele>657.2</ele>
        <time>2025-10-04T10:26:35Z</time>
      </trkpt>
      <trkpt lat="46.08039" lon="4.42987">
        <ele>657.8</ele>
        <time>2025-10-04T10:26:36Z</time>
      </trkpt>
      <trkpt lat="46.08041" lon="4.42986">
        <ele>657.8</ele>
        <time>2025-10-04T10:26:37Z</time>
      </trkpt>
      <trkpt lat="46.08044" lon="4.42985">
        <ele>657.8</ele>
        <time>2025-10-04T10:26:38Z</time>
      </trkpt>
      <trkpt lat="46.08046" lon="4.42985">
        <ele>658</ele>
        <time>2025-10-04T10:26:39Z</time>
      </trkpt>
      <trkpt lat="46.08049" lon="4.42984">
        <ele>658</ele>
        <time>2025-10-04T10:26:40Z</time>
      </trkpt>
      <trkpt lat="46.08052" lon="4.42984">
        <ele>658.4</ele>
        <time>2025-10-04T10:26:41Z</time>
      </trkpt>
      <trkpt lat="46.08055" lon="4.42983">
        <ele>658.4</ele>
        <time>2025-10-04T10:26:42Z</time>
      </trkpt>
      <trkpt lat="46.08057" lon="4.42982">
        <ele>658.2</ele>
        <time>2025-10-04T10:26:43Z</time>
      </trkpt>
      <trkpt lat="46.0806" lon="4.42982">
        <ele>658.8</ele>
        <time>2025-10-04T10:26:44Z</time>
      </trkpt>
      <trkpt lat="46.08063" lon="4.42981">
        <ele>659</ele>
        <time>2025-10-04T10:26:45Z</time>
      </trkpt>
      <trkpt lat="46.08065" lon="4.42981">
        <ele>659</ele>
        <time>2025-10-04T10:26:46Z</time>
      </trkpt>
      <trkpt lat="46.08067" lon="4.4298">
        <ele>659</ele>
        <time>2025-10-04T10:26:47Z</time>
      </trkpt>
      <trkpt lat="46.0807" lon="4.4298">
        <ele>659</ele>
        <time>2025-10-04T10:26:48Z</time>
      </trkpt>
      <trkpt lat="46.08073" lon="4.42979">
        <ele>659.4</ele>
        <time>2025-10-04T10:26:49Z</time>
      </trkpt>
      <trkpt lat="46.08075" lon="4.42978">
        <ele>659.6</ele>
        <time>2025-10-04T10:26:50Z</time>
      </trkpt>
      <trkpt lat="46.08078" lon="4.42979">
        <ele>659.6</ele>
        <time>2025-10-04T10:26:51Z</time>
      </trkpt>
      <trkpt lat="46.08081" lon="4.42979">
        <ele>659.8</ele>
        <time>2025-10-04T10:26:52Z</time>
      </trkpt>
      <trkpt lat="46.08083" lon="4.42978">
        <ele>660.2</ele>
        <time>2025-10-04T10:26:53Z</time>
      </trkpt>
      <trkpt lat="46.08085" lon="4.42977">
        <ele>660.2</ele>
        <time>2025-10-04T10:26:54Z</time>
      </trkpt>
      <trkpt lat="46.08087" lon="4.42976">
        <ele>660.6</ele>
        <time>2025-10-04T10:26:55Z</time>
      </trkpt>
      <trkpt lat="46.08089" lon="4.42976">
        <ele>660.8</ele>
        <time>2025-10-04T10:26:56Z</time>
      </trkpt>
      <trkpt lat="46.08091" lon="4.42975">
        <ele>661.2</ele>
        <time>2025-10-04T10:26:57Z</time>
      </trkpt>
      <trkpt lat="46.08093" lon="4.42975">
        <ele>661.2</ele>
        <time>2025-10-04T10:26:58Z</time>
      </trkpt>
      <trkpt lat="46.08095" lon="4.42974">
        <ele>661.8</ele>
        <time>2025-10-04T10:26:59Z</time>
      </trkpt>
      <trkpt lat="46.08097" lon="4.42974">
        <ele>661.8</ele>
        <time>2025-10-04T10:27:00Z</time>
      </trkpt>
      <trkpt lat="46.08099" lon="4.42973">
        <ele>662</ele>
        <time>2025-10-04T10:27:01Z</time>
      </trkpt>
      <trkpt lat="46.08101" lon="4.42972">
        <ele>662</ele>
        <time>2025-10-04T10:27:02Z</time>
      </trkpt>
      <trkpt lat="46.08103" lon="4.42971">
        <ele>662.2</ele>
        <time>2025-10-04T10:27:03Z</time>
      </trkpt>
      <trkpt lat="46.08105" lon="4.42969">
        <ele>662.2</ele>
        <time>2025-10-04T10:27:04Z</time>
      </trkpt>
      <trkpt lat="46.08107" lon="4.42967">
        <ele>662.4</ele>
        <time>2025-10-04T10:27:05Z</time>
      </trkpt>
      <trkpt lat="46.08107" lon="4.42967">
        <ele>662.4</ele>
        <time>2025-10-04T10:27:06Z</time>
      </trkpt>
      <trkpt lat="46.08109" lon="4.42965">
        <ele>662.4</ele>
        <time>2025-10-04T10:27:07Z</time>
      </trkpt>
      <trkpt lat="46.08111" lon="4.42964">
        <ele>662.4</ele>
        <time>2025-10-04T10:27:08Z</time>
      </trkpt>
      <trkpt lat="46.08113" lon="4.42962">
        <ele>663</ele>
        <time>2025-10-04T10:27:09Z</time>
      </trkpt>
      <trkpt lat="46.08114" lon="4.4296">
        <ele>663</ele>
        <time>2025-10-04T10:27:10Z</time>
      </trkpt>
      <trkpt lat="46.08116" lon="4.42958">
        <ele>663</ele>
        <time>2025-10-04T10:27:11Z</time>
      </trkpt>
      <trkpt lat="46.08117" lon="4.42956">
        <ele>663.4</ele>
        <time>2025-10-04T10:27:12Z</time>
      </trkpt>
      <trkpt lat="46.08119" lon="4.42954">
        <ele>663.4</ele>
        <time>2025-10-04T10:27:13Z</time>
      </trkpt>
      <trkpt lat="46.08121" lon="4.42952">
        <ele>663.6</ele>
        <time>2025-10-04T10:27:14Z</time>
      </trkpt>
      <trkpt lat="46.08122" lon="4.4295">
        <ele>663.6</ele>
        <time>2025-10-04T10:27:15Z</time>
      </trkpt>
      <trkpt lat="46.08124" lon="4.42948">
        <ele>663.6</ele>
        <time>2025-10-04T10:27:16Z</time>
      </trkpt>
      <trkpt lat="46.08126" lon="4.42946">
        <ele>664</ele>
        <time>2025-10-04T10:27:17Z</time>
      </trkpt>
      <trkpt lat="46.08127" lon="4.42943">
        <ele>664</ele>
        <time>2025-10-04T10:27:18Z</time>
      </trkpt>
      <trkpt lat="46.08129" lon="4.4294">
        <ele>664</ele>
        <time>2025-10-04T10:27:19Z</time>
      </trkpt>
      <trkpt lat="46.0813" lon="4.42938">
        <ele>664.2</ele>
        <time>2025-10-04T10:27:20Z</time>
      </trkpt>
      <trkpt lat="46.08131" lon="4.42935">
        <ele>664.4</ele>
        <time>2025-10-04T10:27:21Z</time>
      </trkpt>
      <trkpt lat="46.08133" lon="4.42933">
        <ele>664.4</ele>
        <time>2025-10-04T10:27:22Z</time>
      </trkpt>
      <trkpt lat="46.08135" lon="4.42931">
        <ele>665</ele>
        <time>2025-10-04T10:27:23Z</time>
      </trkpt>
      <trkpt lat="46.08136" lon="4.42928">
        <ele>665</ele>
        <time>2025-10-04T10:27:24Z</time>
      </trkpt>
      <trkpt lat="46.08138" lon="4.42926">
        <ele>665</ele>
        <time>2025-10-04T10:27:25Z</time>
      </trkpt>
      <trkpt lat="46.08139" lon="4.42924">
        <ele>665.2</ele>
        <time>2025-10-04T10:27:26Z</time>
      </trkpt>
      <trkpt lat="46.08141" lon="4.42921">
        <ele>665.6</ele>
        <time>2025-10-04T10:27:27Z</time>
      </trkpt>
      <trkpt lat="46.08142" lon="4.42918">
        <ele>665.6</ele>
        <time>2025-10-04T10:27:28Z</time>
      </trkpt>
      <trkpt lat="46.08143" lon="4.42916">
        <ele>665.8</ele>
        <time>2025-10-04T10:27:29Z</time>
      </trkpt>
      <trkpt lat="46.08145" lon="4.42914">
        <ele>665.8</ele>
        <time>2025-10-04T10:27:30Z</time>
      </trkpt>
      <trkpt lat="46.08146" lon="4.42911">
        <ele>665.8</ele>
        <time>2025-10-04T10:27:31Z</time>
      </trkpt>
      <trkpt lat="46.08147" lon="4.42909">
        <ele>665.8</ele>
        <time>2025-10-04T10:27:32Z</time>
      </trkpt>
      <trkpt lat="46.08149" lon="4.42907">
        <ele>665.8</ele>
        <time>2025-10-04T10:27:33Z</time>
      </trkpt>
      <trkpt lat="46.0815" lon="4.42904">
        <ele>665.8</ele>
        <time>2025-10-04T10:27:34Z</time>
      </trkpt>
      <trkpt lat="46.08151" lon="4.42902">
        <ele>666.2</ele>
        <time>2025-10-04T10:27:35Z</time>
      </trkpt>
      <trkpt lat="46.08153" lon="4.429">
        <ele>666.2</ele>
        <time>2025-10-04T10:27:36Z</time>
      </trkpt>
      <trkpt lat="46.08154" lon="4.42898">
        <ele>666.4</ele>
        <time>2025-10-04T10:27:37Z</time>
      </trkpt>
      <trkpt lat="46.08156" lon="4.42895">
        <ele>666.4</ele>
        <time>2025-10-04T10:27:38Z</time>
      </trkpt>
      <trkpt lat="46.08157" lon="4.42893">
        <ele>666.8</ele>
        <time>2025-10-04T10:27:39Z</time>
      </trkpt>
      <trkpt lat="46.08158" lon="4.42891">
        <ele>666.8</ele>
        <time>2025-10-04T10:27:40Z</time>
      </trkpt>
      <trkpt lat="46.08159" lon="4.42888">
        <ele>667</ele>
        <time>2025-10-04T10:27:41Z</time>
      </trkpt>
      <trkpt lat="46.08161" lon="4.42886">
        <ele>667.2</ele>
        <time>2025-10-04T10:27:42Z</time>
      </trkpt>
      <trkpt lat="46.08162" lon="4.42884">
        <ele>667.2</ele>
        <time>2025-10-04T10:27:43Z</time>
      </trkpt>
      <trkpt lat="46.08163" lon="4.42881">
        <ele>667.2</ele>
        <time>2025-10-04T10:27:44Z</time>
      </trkpt>
      <trkpt lat="46.08164" lon="4.42879">
        <ele>667.2</ele>
        <time>2025-10-04T10:27:45Z</time>
      </trkpt>
      <trkpt lat="46.08165" lon="4.42876">
        <ele>667.4</ele>
        <time>2025-10-04T10:27:46Z</time>
      </trkpt>
      <trkpt lat="46.08166" lon="4.42873">
        <ele>667.4</ele>
        <time>2025-10-04T10:27:47Z</time>
      </trkpt>
      <trkpt lat="46.08167" lon="4.4287">
        <ele>667.8</ele>
        <time>2025-10-04T10:27:48Z</time>
      </trkpt>
      <trkpt lat="46.08168" lon="4.42867">
        <ele>668</ele>
        <time>2025-10-04T10:27:49Z</time>
      </trkpt>
      <trkpt lat="46.08169" lon="4.42864">
        <ele>668</ele>
        <time>2025-10-04T10:27:50Z</time>
      </trkpt>
      <trkpt lat="46.08169" lon="4.42861">
        <ele>668.2</ele>
        <time>2025-10-04T10:27:51Z</time>
      </trkpt>
      <trkpt lat="46.0817" lon="4.42858">
        <ele>668.6</ele>
        <time>2025-10-04T10:27:52Z</time>
      </trkpt>
      <trkpt lat="46.08171" lon="4.42855">
        <ele>668.6</ele>
        <time>2025-10-04T10:27:53Z</time>
      </trkpt>
      <trkpt lat="46.08171" lon="4.42853">
        <ele>667.8</ele>
        <time>2025-10-04T10:27:54Z</time>
      </trkpt>
      <trkpt lat="46.08172" lon="4.4285">
        <ele>667.8</ele>
        <time>2025-10-04T10:27:55Z</time>
      </trkpt>
      <trkpt lat="46.08173" lon="4.42846">
        <ele>668.6</ele>
        <time>2025-10-04T10:27:56Z</time>
      </trkpt>
      <trkpt lat="46.08174" lon="4.42843">
        <ele>668.8</ele>
        <time>2025-10-04T10:27:57Z</time>
      </trkpt>
      <trkpt lat="46.08174" lon="4.4284">
        <ele>669.2</ele>
        <time>2025-10-04T10:27:58Z</time>
      </trkpt>
      <trkpt lat="46.08175" lon="4.42837">
        <ele>669.4</ele>
        <time>2025-10-04T10:27:59Z</time>
      </trkpt>
      <trkpt lat="46.08176" lon="4.42835">
        <ele>669.4</ele>
        <time>2025-10-04T10:28:00Z</time>
      </trkpt>
      <trkpt lat="46.08177" lon="4.42832">
        <ele>669.6</ele>
        <time>2025-10-04T10:28:01Z</time>
      </trkpt>
      <trkpt lat="46.08178" lon="4.42829">
        <ele>669.6</ele>
        <time>2025-10-04T10:28:02Z</time>
      </trkpt>
      <trkpt lat="46.08179" lon="4.42826">
        <ele>669.6</ele>
        <time>2025-10-04T10:28:03Z</time>
      </trkpt>
      <trkpt lat="46.08179" lon="4.42823">
        <ele>670.2</ele>
        <time>2025-10-04T10:28:04Z</time>
      </trkpt>
      <trkpt lat="46.0818" lon="4.4282">
        <ele>670.4</ele>
        <time>2025-10-04T10:28:05Z</time>
      </trkpt>
      <trkpt lat="46.0818" lon="4.42818">
        <ele>670.6</ele>
        <time>2025-10-04T10:28:06Z</time>
      </trkpt>
      <trkpt lat="46.08181" lon="4.42815">
        <ele>670.8</ele>
        <time>2025-10-04T10:28:07Z</time>
      </trkpt>
      <trkpt lat="46.08182" lon="4.42812">
        <ele>670.8</ele>
        <time>2025-10-04T10:28:08Z</time>
      </trkpt>
      <trkpt lat="46.08183" lon="4.42808">
        <ele>670.8</ele>
        <time>2025-10-04T10:28:09Z</time>
      </trkpt>
      <trkpt lat="46.08184" lon="4.42803">
        <ele>671.4</ele>
        <time>2025-10-04T10:28:10Z</time>
      </trkpt>
      <trkpt lat="46.08184" lon="4.428">
        <ele>671.6</ele>
        <time>2025-10-04T10:28:11Z</time>
      </trkpt>
      <trkpt lat="46.08185" lon="4.42797">
        <ele>671.6</ele>
        <time>2025-10-04T10:28:12Z</time>
      </trkpt>
      <trkpt lat="46.08186" lon="4.42794">
        <ele>672.2</ele>
        <time>2025-10-04T10:28:13Z</time>
      </trkpt>
      <trkpt lat="46.08187" lon="4.42791">
        <ele>672.2</ele>
        <time>2025-10-04T10:28:14Z</time>
      </trkpt>
      <trkpt lat="46.08188" lon="4.42788">
        <ele>672.2</ele>
        <time>2025-10-04T10:28:15Z</time>
      </trkpt>
      <trkpt lat="46.08188" lon="4.42786">
        <ele>672.4</ele>
        <time>2025-10-04T10:28:16Z</time>
      </trkpt>
      <trkpt lat="46.08189" lon="4.42782">
        <ele>672.8</ele>
        <time>2025-10-04T10:28:17Z</time>
      </trkpt>
      <trkpt lat="46.08189" lon="4.42779">
        <ele>673</ele>
        <time>2025-10-04T10:28:18Z</time>
      </trkpt>
      <trkpt lat="46.0819" lon="4.42776">
        <ele>673</ele>
        <time>2025-10-04T10:28:19Z</time>
      </trkpt>
      <trkpt lat="46.08191" lon="4.42774">
        <ele>673.4</ele>
        <time>2025-10-04T10:28:20Z</time>
      </trkpt>
      <trkpt lat="46.08192" lon="4.42772">
        <ele>673.4</ele>
        <time>2025-10-04T10:28:21Z</time>
      </trkpt>
      <trkpt lat="46.08194" lon="4.4277">
        <ele>673.4</ele>
        <time>2025-10-04T10:28:22Z</time>
      </trkpt>
      <trkpt lat="46.08197" lon="4.42768">
        <ele>673.4</ele>
        <time>2025-10-04T10:28:23Z</time>
      </trkpt>
      <trkpt lat="46.08199" lon="4.42765">
        <ele>673</ele>
        <time>2025-10-04T10:28:24Z</time>
      </trkpt>
      <trkpt lat="46.08205" lon="4.42765">
        <ele>672.8</ele>
        <time>2025-10-04T10:28:25Z</time>
      </trkpt>
      <trkpt lat="46.08208" lon="4.42766">
        <ele>672.8</ele>
        <time>2025-10-04T10:28:26Z</time>
      </trkpt>
      <trkpt lat="46.08212" lon="4.42769">
        <ele>672.6</ele>
        <time>2025-10-04T10:28:27Z</time>
      </trkpt>
      <trkpt lat="46.08216" lon="4.42772">
        <ele>672.6</ele>
        <time>2025-10-04T10:28:28Z</time>
      </trkpt>
      <trkpt lat="46.0822" lon="4.42774">
        <ele>672.4</ele>
        <time>2025-10-04T10:28:29Z</time>
      </trkpt>
      <trkpt lat="46.08224" lon="4.42776">
        <ele>672.4</ele>
        <time>2025-10-04T10:28:30Z</time>
      </trkpt>
      <trkpt lat="46.08227" lon="4.42777">
        <ele>672.4</ele>
        <time>2025-10-04T10:28:31Z</time>
      </trkpt>
      <trkpt lat="46.08232" lon="4.42778">
        <ele>672.4</ele>
        <time>2025-10-04T10:28:32Z</time>
      </trkpt>
      <trkpt lat="46.08237" lon="4.42779">
        <ele>672.4</ele>
        <time>2025-10-04T10:28:33Z</time>
      </trkpt>
      <trkpt lat="46.0824" lon="4.42777">
        <ele>672.4</ele>
        <time>2025-10-04T10:28:34Z</time>
      </trkpt>
      <trkpt lat="46.08244" lon="4.42776">
        <ele>672.4</ele>
        <time>2025-10-04T10:28:35Z</time>
      </trkpt>
      <trkpt lat="46.08248" lon="4.42775">
        <ele>672.4</ele>
        <time>2025-10-04T10:28:36Z</time>
      </trkpt>
      <trkpt lat="46.08251" lon="4.42774">
        <ele>672.4</ele>
        <time>2025-10-04T10:28:37Z</time>
      </trkpt>
      <trkpt lat="46.08255" lon="4.42774">
        <ele>672.4</ele>
        <time>2025-10-04T10:28:38Z</time>
      </trkpt>
      <trkpt lat="46.08258" lon="4.42775">
        <ele>672.4</ele>
        <time>2025-10-04T10:28:39Z</time>
      </trkpt>
      <trkpt lat="46.0826" lon="4.42776">
        <ele>672.6</ele>
        <time>2025-10-04T10:28:40Z</time>
      </trkpt>
      <trkpt lat="46.08264" lon="4.42778">
        <ele>672.6</ele>
        <time>2025-10-04T10:28:41Z</time>
      </trkpt>
      <trkpt lat="46.08266" lon="4.4278">
        <ele>672.6</ele>
        <time>2025-10-04T10:28:42Z</time>
      </trkpt>
      <trkpt lat="46.08268" lon="4.42782">
        <ele>672.6</ele>
        <time>2025-10-04T10:28:43Z</time>
      </trkpt>
      <trkpt lat="46.0827" lon="4.42784">
        <ele>673</ele>
        <time>2025-10-04T10:28:44Z</time>
      </trkpt>
      <trkpt lat="46.08273" lon="4.42786">
        <ele>673</ele>
        <time>2025-10-04T10:28:45Z</time>
      </trkpt>
      <trkpt lat="46.08275" lon="4.42787">
        <ele>673.2</ele>
        <time>2025-10-04T10:28:46Z</time>
      </trkpt>
      <trkpt lat="46.08276" lon="4.42789">
        <ele>673.2</ele>
        <time>2025-10-04T10:28:47Z</time>
      </trkpt>
      <trkpt lat="46.08278" lon="4.4279">
        <ele>673.6</ele>
        <time>2025-10-04T10:28:48Z</time>
      </trkpt>
      <trkpt lat="46.0828" lon="4.42792">
        <ele>674</ele>
        <time>2025-10-04T10:28:49Z</time>
      </trkpt>
      <trkpt lat="46.08281" lon="4.42793">
        <ele>674.4</ele>
        <time>2025-10-04T10:28:50Z</time>
      </trkpt>
      <trkpt lat="46.08283" lon="4.42794">
        <ele>674.6</ele>
        <time>2025-10-04T10:28:51Z</time>
      </trkpt>
      <trkpt lat="46.08284" lon="4.42795">
        <ele>674.8</ele>
        <time>2025-10-04T10:28:52Z</time>
      </trkpt>
      <trkpt lat="46.08286" lon="4.42797">
        <ele>675.2</ele>
        <time>2025-10-04T10:28:53Z</time>
      </trkpt>
      <trkpt lat="46.08288" lon="4.42798">
        <ele>675.6</ele>
        <time>2025-10-04T10:28:54Z</time>
      </trkpt>
      <trkpt lat="46.08289" lon="4.42799">
        <ele>675.8</ele>
        <time>2025-10-04T10:28:55Z</time>
      </trkpt>
      <trkpt lat="46.08291" lon="4.428">
        <ele>676</ele>
        <time>2025-10-04T10:28:56Z</time>
      </trkpt>
      <trkpt lat="46.08292" lon="4.42801">
        <ele>676</ele>
        <time>2025-10-04T10:28:57Z</time>
      </trkpt>
      <trkpt lat="46.08293" lon="4.42802">
        <ele>676</ele>
        <time>2025-10-04T10:28:58Z</time>
      </trkpt>
      <trkpt lat="46.08295" lon="4.42803">
        <ele>676.4</ele>
        <time>2025-10-04T10:28:59Z</time>
      </trkpt>
      <trkpt lat="46.08296" lon="4.42804">
        <ele>676.4</ele>
        <time>2025-10-04T10:29:00Z</time>
      </trkpt>
      <trkpt lat="46.08297" lon="4.42805">
        <ele>676.6</ele>
        <time>2025-10-04T10:29:01Z</time>
      </trkpt>
      <trkpt lat="46.08298" lon="4.42806">
        <ele>676.8</ele>
        <time>2025-10-04T10:29:02Z</time>
      </trkpt>
      <trkpt lat="46.083" lon="4.42806">
        <ele>676.8</ele>
        <time>2025-10-04T10:29:03Z</time>
      </trkpt>
      <trkpt lat="46.08301" lon="4.42807">
        <ele>677.2</ele>
        <time>2025-10-04T10:29:04Z</time>
      </trkpt>
      <trkpt lat="46.08303" lon="4.42808">
        <ele>677.2</ele>
        <time>2025-10-04T10:29:05Z</time>
      </trkpt>
      <trkpt lat="46.08304" lon="4.42809">
        <ele>677.2</ele>
        <time>2025-10-04T10:29:06Z</time>
      </trkpt>
      <trkpt lat="46.08306" lon="4.4281">
        <ele>677.4</ele>
        <time>2025-10-04T10:29:07Z</time>
      </trkpt>
      <trkpt lat="46.08307" lon="4.42811">
        <ele>677.4</ele>
        <time>2025-10-04T10:29:08Z</time>
      </trkpt>
      <trkpt lat="46.08309" lon="4.42812">
        <ele>677.8</ele>
        <time>2025-10-04T10:29:09Z</time>
      </trkpt>
      <trkpt lat="46.0831" lon="4.42814">
        <ele>677.8</ele>
        <time>2025-10-04T10:29:10Z</time>
      </trkpt>
      <trkpt lat="46.08312" lon="4.42815">
        <ele>678</ele>
        <time>2025-10-04T10:29:11Z</time>
      </trkpt>
      <trkpt lat="46.08313" lon="4.42816">
        <ele>678</ele>
        <time>2025-10-04T10:29:12Z</time>
      </trkpt>
      <trkpt lat="46.08314" lon="4.42817">
        <ele>678.4</ele>
        <time>2025-10-04T10:29:13Z</time>
      </trkpt>
      <trkpt lat="46.08315" lon="4.42818">
        <ele>678.8</ele>
        <time>2025-10-04T10:29:14Z</time>
      </trkpt>
      <trkpt lat="46.08316" lon="4.4282">
        <ele>679.2</ele>
        <time>2025-10-04T10:29:15Z</time>
      </trkpt>
      <trkpt lat="46.08318" lon="4.42822">
        <ele>679.4</ele>
        <time>2025-10-04T10:29:16Z</time>
      </trkpt>
      <trkpt lat="46.08319" lon="4.42824">
        <ele>679.6</ele>
        <time>2025-10-04T10:29:17Z</time>
      </trkpt>
      <trkpt lat="46.08319" lon="4.42826">
        <ele>680</ele>
        <time>2025-10-04T10:29:18Z</time>
      </trkpt>
      <trkpt lat="46.0832" lon="4.42828">
        <ele>680</ele>
        <time>2025-10-04T10:29:19Z</time>
      </trkpt>
      <trkpt lat="46.08321" lon="4.4283">
        <ele>680.6</ele>
        <time>2025-10-04T10:29:20Z</time>
      </trkpt>
      <trkpt lat="46.08323" lon="4.42832">
        <ele>680.8</ele>
        <time>2025-10-04T10:29:21Z</time>
      </trkpt>
      <trkpt lat="46.08324" lon="4.42834">
        <ele>680.8</ele>
        <time>2025-10-04T10:29:22Z</time>
      </trkpt>
      <trkpt lat="46.08325" lon="4.42836">
        <ele>681</ele>
        <time>2025-10-04T10:29:23Z</time>
      </trkpt>
      <trkpt lat="46.08326" lon="4.42839">
        <ele>681</ele>
        <time>2025-10-04T10:29:24Z</time>
      </trkpt>
      <trkpt lat="46.08327" lon="4.42842">
        <ele>681</ele>
        <time>2025-10-04T10:29:25Z</time>
      </trkpt>
      <trkpt lat="46.08328" lon="4.42845">
        <ele>681.2</ele>
        <time>2025-10-04T10:29:26Z</time>
      </trkpt>
      <trkpt lat="46.08329" lon="4.42848">
        <ele>681.2</ele>
        <time>2025-10-04T10:29:27Z</time>
      </trkpt>
      <trkpt lat="46.0833" lon="4.42851">
        <ele>681.2</ele>
        <time>2025-10-04T10:29:28Z</time>
      </trkpt>
      <trkpt lat="46.08331" lon="4.42854">
        <ele>681.6</ele>
        <time>2025-10-04T10:29:29Z</time>
      </trkpt>
      <trkpt lat="46.08331" lon="4.42857">
        <ele>681.6</ele>
        <time>2025-10-04T10:29:30Z</time>
      </trkpt>
      <trkpt lat="46.08332" lon="4.4286">
        <ele>682</ele>
        <time>2025-10-04T10:29:31Z</time>
      </trkpt>
      <trkpt lat="46.08333" lon="4.42863">
        <ele>682</ele>
        <time>2025-10-04T10:29:32Z</time>
      </trkpt>
      <trkpt lat="46.08334" lon="4.42867">
        <ele>682</ele>
        <time>2025-10-04T10:29:33Z</time>
      </trkpt>
      <trkpt lat="46.08336" lon="4.4287">
        <ele>682</ele>
        <time>2025-10-04T10:29:34Z</time>
      </trkpt>
      <trkpt lat="46.08337" lon="4.42873">
        <ele>682</ele>
        <time>2025-10-04T10:29:35Z</time>
      </trkpt>
      <trkpt lat="46.08338" lon="4.42876">
        <ele>682</ele>
        <time>2025-10-04T10:29:36Z</time>
      </trkpt>
      <trkpt lat="46.0834" lon="4.42879">
        <ele>682.2</ele>
        <time>2025-10-04T10:29:37Z</time>
      </trkpt>
      <trkpt lat="46.08341" lon="4.42881">
        <ele>682.2</ele>
        <time>2025-10-04T10:29:38Z</time>
      </trkpt>
      <trkpt lat="46.08342" lon="4.42883">
        <ele>682.2</ele>
        <time>2025-10-04T10:29:39Z</time>
      </trkpt>
      <trkpt lat="46.08344" lon="4.42887">
        <ele>682.2</ele>
        <time>2025-10-04T10:29:40Z</time>
      </trkpt>
      <trkpt lat="46.08345" lon="4.42891">
        <ele>682.2</ele>
        <time>2025-10-04T10:29:41Z</time>
      </trkpt>
      <trkpt lat="46.08346" lon="4.42895">
        <ele>681.8</ele>
        <time>2025-10-04T10:29:42Z</time>
      </trkpt>
      <trkpt lat="46.08348" lon="4.42899">
        <ele>681.6</ele>
        <time>2025-10-04T10:29:43Z</time>
      </trkpt>
      <trkpt lat="46.08349" lon="4.42903">
        <ele>681.6</ele>
        <time>2025-10-04T10:29:44Z</time>
      </trkpt>
      <trkpt lat="46.08351" lon="4.42908">
        <ele>681.6</ele>
        <time>2025-10-04T10:29:45Z</time>
      </trkpt>
      <trkpt lat="46.08352" lon="4.42913">
        <ele>681</ele>
        <time>2025-10-04T10:29:46Z</time>
      </trkpt>
      <trkpt lat="46.08354" lon="4.42918">
        <ele>680.8</ele>
        <time>2025-10-04T10:29:47Z</time>
      </trkpt>
      <trkpt lat="46.08354" lon="4.42926">
        <ele>680.8</ele>
        <time>2025-10-04T10:29:48Z</time>
      </trkpt>
      <trkpt lat="46.08356" lon="4.42933">
        <ele>680.2</ele>
        <time>2025-10-04T10:29:49Z</time>
      </trkpt>
      <trkpt lat="46.08357" lon="4.42939">
        <ele>680</ele>
        <time>2025-10-04T10:29:50Z</time>
      </trkpt>
      <trkpt lat="46.0836" lon="4.42943">
        <ele>679.4</ele>
        <time>2025-10-04T10:29:51Z</time>
      </trkpt>
      <trkpt lat="46.08362" lon="4.42947">
        <ele>679.4</ele>
        <time>2025-10-04T10:29:52Z</time>
      </trkpt>
      <trkpt lat="46.08365" lon="4.42947">
        <ele>679.2</ele>
        <time>2025-10-04T10:29:53Z</time>
      </trkpt>
      <trkpt lat="46.08369" lon="4.42948">
        <ele>679</ele>
        <time>2025-10-04T10:29:54Z</time>
      </trkpt>
      <trkpt lat="46.08373" lon="4.42947">
        <ele>678.8</ele>
        <time>2025-10-04T10:29:55Z</time>
      </trkpt>
      <trkpt lat="46.08376" lon="4.42946">
        <ele>678.8</ele>
        <time>2025-10-04T10:29:56Z</time>
      </trkpt>
      <trkpt lat="46.08378" lon="4.42944">
        <ele>678.8</ele>
        <time>2025-10-04T10:29:57Z</time>
      </trkpt>
      <trkpt lat="46.0838" lon="4.42942">
        <ele>678.8</ele>
        <time>2025-10-04T10:29:58Z</time>
      </trkpt>
      <trkpt lat="46.08381" lon="4.4294">
        <ele>679</ele>
        <time>2025-10-04T10:29:59Z</time>
      </trkpt>
      <trkpt lat="46.08383" lon="4.42939">
        <ele>679.4</ele>
        <time>2025-10-04T10:30:00Z</time>
      </trkpt>
      <trkpt lat="46.08384" lon="4.42937">
        <ele>679.6</ele>
        <time>2025-10-04T10:30:01Z</time>
      </trkpt>
      <trkpt lat="46.08385" lon="4.42936">
        <ele>680.2</ele>
        <time>2025-10-04T10:30:02Z</time>
      </trkpt>
      <trkpt lat="46.08386" lon="4.42935">
        <ele>680.4</ele>
        <time>2025-10-04T10:30:03Z</time>
      </trkpt>
      <trkpt lat="46.08388" lon="4.42934">
        <ele>680.6</ele>
        <time>2025-10-04T10:30:04Z</time>
      </trkpt>
      <trkpt lat="46.0839" lon="4.42934">
        <ele>681</ele>
        <time>2025-10-04T10:30:05Z</time>
      </trkpt>
      <trkpt lat="46.08392" lon="4.42934">
        <ele>681.6</ele>
        <time>2025-10-04T10:30:06Z</time>
      </trkpt>
      <trkpt lat="46.08394" lon="4.42934">
        <ele>682</ele>
        <time>2025-10-04T10:30:07Z</time>
      </trkpt>
      <trkpt lat="46.08396" lon="4.42934">
        <ele>682.4</ele>
        <time>2025-10-04T10:30:08Z</time>
      </trkpt>
      <trkpt lat="46.08398" lon="4.42933">
        <ele>682.6</ele>
        <time>2025-10-04T10:30:09Z</time>
      </trkpt>
      <trkpt lat="46.084" lon="4.42933">
        <ele>682.8</ele>
        <time>2025-10-04T10:30:10Z</time>
      </trkpt>
      <trkpt lat="46.08402" lon="4.42932">
        <ele>683.2</ele>
        <time>2025-10-04T10:30:11Z</time>
      </trkpt>
      <trkpt lat="46.08404" lon="4.42931">
        <ele>683.4</ele>
        <time>2025-10-04T10:30:12Z</time>
      </trkpt>
      <trkpt lat="46.08405" lon="4.4293">
        <ele>683.8</ele>
        <time>2025-10-04T10:30:13Z</time>
      </trkpt>
      <trkpt lat="46.08407" lon="4.42928">
        <ele>683.8</ele>
        <time>2025-10-04T10:30:14Z</time>
      </trkpt>
      <trkpt lat="46.08408" lon="4.42927">
        <ele>684.4</ele>
        <time>2025-10-04T10:30:15Z</time>
      </trkpt>
      <trkpt lat="46.0841" lon="4.42926">
        <ele>684.4</ele>
        <time>2025-10-04T10:30:16Z</time>
      </trkpt>
      <trkpt lat="46.08411" lon="4.42925">
        <ele>684.8</ele>
        <time>2025-10-04T10:30:17Z</time>
      </trkpt>
      <trkpt lat="46.08413" lon="4.42924">
        <ele>685.2</ele>
        <time>2025-10-04T10:30:18Z</time>
      </trkpt>
      <trkpt lat="46.08414" lon="4.42923">
        <ele>685.6</ele>
        <time>2025-10-04T10:30:19Z</time>
      </trkpt>
      <trkpt lat="46.08416" lon="4.42922">
        <ele>685.6</ele>
        <time>2025-10-04T10:30:20Z</time>
      </trkpt>
      <trkpt lat="46.08417" lon="4.42921">
        <ele>685.8</ele>
        <time>2025-10-04T10:30:21Z</time>
      </trkpt>
      <trkpt lat="46.08418" lon="4.4292">
        <ele>685.8</ele>
        <time>2025-10-04T10:30:22Z</time>
      </trkpt>
      <trkpt lat="46.0842" lon="4.42919">
        <ele>686.2</ele>
        <time>2025-10-04T10:30:23Z</time>
      </trkpt>
      <trkpt lat="46.08421" lon="4.42918">
        <ele>686.6</ele>
        <time>2025-10-04T10:30:24Z</time>
      </trkpt>
      <trkpt lat="46.08422" lon="4.42916">
        <ele>687</ele>
        <time>2025-10-04T10:30:25Z</time>
      </trkpt>
      <trkpt lat="46.08423" lon="4.42915">
        <ele>687.4</ele>
        <time>2025-10-04T10:30:26Z</time>
      </trkpt>
      <trkpt lat="46.08424" lon="4.42914">
        <ele>687.8</ele>
        <time>2025-10-04T10:30:27Z</time>
      </trkpt>
      <trkpt lat="46.08425" lon="4.42913">
        <ele>688.2</ele>
        <time>2025-10-04T10:30:28Z</time>
      </trkpt>
      <trkpt lat="46.08426" lon="4.42911">
        <ele>688.6</ele>
        <time>2025-10-04T10:30:29Z</time>
      </trkpt>
      <trkpt lat="46.08427" lon="4.4291">
        <ele>688.6</ele>
        <time>2025-10-04T10:30:30Z</time>
      </trkpt>
      <trkpt lat="46.08429" lon="4.42909">
        <ele>688.6</ele>
        <time>2025-10-04T10:30:31Z</time>
      </trkpt>
      <trkpt lat="46.0843" lon="4.42907">
        <ele>689</ele>
        <time>2025-10-04T10:30:32Z</time>
      </trkpt>
      <trkpt lat="46.08431" lon="4.42906">
        <ele>689.2</ele>
        <time>2025-10-04T10:30:33Z</time>
      </trkpt>
      <trkpt lat="46.08432" lon="4.42904">
        <ele>689.6</ele>
        <time>2025-10-04T10:30:34Z</time>
      </trkpt>
      <trkpt lat="46.08433" lon="4.42903">
        <ele>689.8</ele>
        <time>2025-10-04T10:30:35Z</time>
      </trkpt>
      <trkpt lat="46.08434" lon="4.42902">
        <ele>689.8</ele>
        <time>2025-10-04T10:30:36Z</time>
      </trkpt>
      <trkpt lat="46.08435" lon="4.429">
        <ele>690.4</ele>
        <time>2025-10-04T10:30:37Z</time>
      </trkpt>
      <trkpt lat="46.08436" lon="4.42899">
        <ele>690.6</ele>
        <time>2025-10-04T10:30:38Z</time>
      </trkpt>
      <trkpt lat="46.08438" lon="4.42898">
        <ele>690.6</ele>
        <time>2025-10-04T10:30:39Z</time>
      </trkpt>
      <trkpt lat="46.08439" lon="4.42897">
        <ele>690.8</ele>
        <time>2025-10-04T10:30:40Z</time>
      </trkpt>
      <trkpt lat="46.0844" lon="4.42896">
        <ele>690.8</ele>
        <time>2025-10-04T10:30:41Z</time>
      </trkpt>
      <trkpt lat="46.08441" lon="4.42894">
        <ele>691.2</ele>
        <time>2025-10-04T10:30:42Z</time>
      </trkpt>
      <trkpt lat="46.08442" lon="4.42893">
        <ele>691.2</ele>
        <time>2025-10-04T10:30:43Z</time>
      </trkpt>
      <trkpt lat="46.08443" lon="4.42892">
        <ele>691.4</ele>
        <time>2025-10-04T10:30:44Z</time>
      </trkpt>
      <trkpt lat="46.08444" lon="4.42891">
        <ele>691.4</ele>
        <time>2025-10-04T10:30:45Z</time>
      </trkpt>
      <trkpt lat="46.08444" lon="4.4289">
        <ele>691.6</ele>
        <time>2025-10-04T10:30:46Z</time>
      </trkpt>
      <trkpt lat="46.08445" lon="4.42889">
        <ele>691.6</ele>
        <time>2025-10-04T10:30:47Z</time>
      </trkpt>
      <trkpt lat="46.08446" lon="4.42887">
        <ele>692</ele>
        <time>2025-10-04T10:30:48Z</time>
      </trkpt>
      <trkpt lat="46.08447" lon="4.42886">
        <ele>692.2</ele>
        <time>2025-10-04T10:30:49Z</time>
      </trkpt>
      <trkpt lat="46.08448" lon="4.42884">
        <ele>692.6</ele>
        <time>2025-10-04T10:30:50Z</time>
      </trkpt>
      <trkpt lat="46.08449" lon="4.42882">
        <ele>692.8</ele>
        <time>2025-10-04T10:30:51Z</time>
      </trkpt>
      <trkpt lat="46.0845" lon="4.42881">
        <ele>693.2</ele>
        <time>2025-10-04T10:30:52Z</time>
      </trkpt>
      <trkpt lat="46.08451" lon="4.42879">
        <ele>693.4</ele>
        <time>2025-10-04T10:30:53Z</time>
      </trkpt>
      <trkpt lat="46.08452" lon="4.42878">
        <ele>693.8</ele>
        <time>2025-10-04T10:30:54Z</time>
      </trkpt>
      <trkpt lat="46.08453" lon="4.42876">
        <ele>694</ele>
        <time>2025-10-04T10:30:55Z</time>
      </trkpt>
      <trkpt lat="46.08453" lon="4.42875">
        <ele>694.4</ele>
        <time>2025-10-04T10:30:56Z</time>
      </trkpt>
      <trkpt lat="46.08454" lon="4.42873">
        <ele>694.4</ele>
        <time>2025-10-04T10:30:57Z</time>
      </trkpt>
      <trkpt lat="46.08455" lon="4.42871">
        <ele>694.8</ele>
        <time>2025-10-04T10:30:58Z</time>
      </trkpt>
      <trkpt lat="46.08455" lon="4.42869">
        <ele>695</ele>
        <time>2025-10-04T10:30:59Z</time>
      </trkpt>
      <trkpt lat="46.08456" lon="4.42868">
        <ele>695.2</ele>
        <time>2025-10-04T10:31:00Z</time>
      </trkpt>
      <trkpt lat="46.08456" lon="4.42866">
        <ele>695.6</ele>
        <time>2025-10-04T10:31:01Z</time>
      </trkpt>
      <trkpt lat="46.08457" lon="4.42865">
        <ele>695.8</ele>
        <time>2025-10-04T10:31:02Z</time>
      </trkpt>
      <trkpt lat="46.08457" lon="4.42863">
        <ele>696.2</ele>
        <time>2025-10-04T10:31:03Z</time>
      </trkpt>
      <trkpt lat="46.08457" lon="4.42862">
        <ele>696.4</ele>
        <time>2025-10-04T10:31:04Z</time>
      </trkpt>
      <trkpt lat="46.08457" lon="4.4286">
        <ele>696.8</ele>
        <time>2025-10-04T10:31:05Z</time>
      </trkpt>
      <trkpt lat="46.08457" lon="4.42858">
        <ele>697.2</ele>
        <time>2025-10-04T10:31:06Z</time>
      </trkpt>
      <trkpt lat="46.08457" lon="4.42856">
        <ele>697.2</ele>
        <time>2025-10-04T10:31:07Z</time>
      </trkpt>
      <trkpt lat="46.08457" lon="4.42855">
        <ele>697.6</ele>
        <time>2025-10-04T10:31:08Z</time>
      </trkpt>
      <trkpt lat="46.08457" lon="4.42853">
        <ele>697.8</ele>
        <time>2025-10-04T10:31:09Z</time>
      </trkpt>
      <trkpt lat="46.08457" lon="4.42851">
        <ele>698</ele>
        <time>2025-10-04T10:31:10Z</time>
      </trkpt>
      <trkpt lat="46.08457" lon="4.42849">
        <ele>698.4</ele>
        <time>2025-10-04T10:31:11Z</time>
      </trkpt>
      <trkpt lat="46.08457" lon="4.42847">
        <ele>698.8</ele>
        <time>2025-10-04T10:31:12Z</time>
      </trkpt>
      <trkpt lat="46.08457" lon="4.42845">
        <ele>699</ele>
        <time>2025-10-04T10:31:13Z</time>
      </trkpt>
      <trkpt lat="46.08457" lon="4.42843">
        <ele>699</ele>
        <time>2025-10-04T10:31:14Z</time>
      </trkpt>
      <trkpt lat="46.08457" lon="4.42842">
        <ele>699.6</ele>
        <time>2025-10-04T10:31:15Z</time>
      </trkpt>
      <trkpt lat="46.08456" lon="4.42841">
        <ele>699.8</ele>
        <time>2025-10-04T10:31:16Z</time>
      </trkpt>
      <trkpt lat="46.08456" lon="4.4284">
        <ele>700.2</ele>
        <time>2025-10-04T10:31:17Z</time>
      </trkpt>
      <trkpt lat="46.08455" lon="4.42838">
        <ele>700.4</ele>
        <time>2025-10-04T10:31:18Z</time>
      </trkpt>
      <trkpt lat="46.08454" lon="4.42836">
        <ele>700.4</ele>
        <time>2025-10-04T10:31:19Z</time>
      </trkpt>
      <trkpt lat="46.08454" lon="4.42835">
        <ele>700.4</ele>
        <time>2025-10-04T10:31:20Z</time>
      </trkpt>
      <trkpt lat="46.08453" lon="4.42833">
        <ele>700.8</ele>
        <time>2025-10-04T10:31:21Z</time>
      </trkpt>
      <trkpt lat="46.08453" lon="4.42831">
        <ele>700.8</ele>
        <time>2025-10-04T10:31:22Z</time>
      </trkpt>
      <trkpt lat="46.08453" lon="4.4283">
        <ele>701.2</ele>
        <time>2025-10-04T10:31:23Z</time>
      </trkpt>
      <trkpt lat="46.08453" lon="4.42828">
        <ele>701.4</ele>
        <time>2025-10-04T10:31:24Z</time>
      </trkpt>
      <trkpt lat="46.08453" lon="4.42826">
        <ele>701.6</ele>
        <time>2025-10-04T10:31:25Z</time>
      </trkpt>
      <trkpt lat="46.08452" lon="4.42824">
        <ele>701.6</ele>
        <time>2025-10-04T10:31:26Z</time>
      </trkpt>
      <trkpt lat="46.08452" lon="4.42822">
        <ele>702</ele>
        <time>2025-10-04T10:31:27Z</time>
      </trkpt>
      <trkpt lat="46.08452" lon="4.42821">
        <ele>702</ele>
        <time>2025-10-04T10:31:28Z</time>
      </trkpt>
      <trkpt lat="46.08452" lon="4.42819">
        <ele>702.2</ele>
        <time>2025-10-04T10:31:29Z</time>
      </trkpt>
      <trkpt lat="46.08452" lon="4.42817">
        <ele>702.2</ele>
        <time>2025-10-04T10:31:30Z</time>
      </trkpt>
      <trkpt lat="46.08453" lon="4.42815">
        <ele>702.2</ele>
        <time>2025-10-04T10:31:31Z</time>
      </trkpt>
      <trkpt lat="46.08453" lon="4.42813">
        <ele>702.2</ele>
        <time>2025-10-04T10:31:32Z</time>
      </trkpt>
      <trkpt lat="46.08454" lon="4.42811">
        <ele>702.6</ele>
        <time>2025-10-04T10:31:33Z</time>
      </trkpt>
      <trkpt lat="46.08454" lon="4.42809">
        <ele>702.8</ele>
        <time>2025-10-04T10:31:34Z</time>
      </trkpt>
      <trkpt lat="46.08454" lon="4.42807">
        <ele>703</ele>
        <time>2025-10-04T10:31:35Z</time>
      </trkpt>
      <trkpt lat="46.08455" lon="4.42805">
        <ele>703</ele>
        <time>2025-10-04T10:31:36Z</time>
      </trkpt>
      <trkpt lat="46.08455" lon="4.42803">
        <ele>703.2</ele>
        <time>2025-10-04T10:31:37Z</time>
      </trkpt>
      <trkpt lat="46.08456" lon="4.42802">
        <ele>703.2</ele>
        <time>2025-10-04T10:31:38Z</time>
      </trkpt>
      <trkpt lat="46.08456" lon="4.428">
        <ele>703.4</ele>
        <time>2025-10-04T10:31:39Z</time>
      </trkpt>
      <trkpt lat="46.08457" lon="4.42798">
        <ele>703.4</ele>
        <time>2025-10-04T10:31:40Z</time>
      </trkpt>
      <trkpt lat="46.08457" lon="4.42796">
        <ele>703</ele>
        <time>2025-10-04T10:31:41Z</time>
      </trkpt>
      <trkpt lat="46.08458" lon="4.42794">
        <ele>704</ele>
        <time>2025-10-04T10:31:42Z</time>
      </trkpt>
      <trkpt lat="46.08459" lon="4.42792">
        <ele>704</ele>
        <time>2025-10-04T10:31:43Z</time>
      </trkpt>
      <trkpt lat="46.0846" lon="4.4279">
        <ele>704</ele>
        <time>2025-10-04T10:31:44Z</time>
      </trkpt>
      <trkpt lat="46.0846" lon="4.4279">
        <ele>704</ele>
        <time>2025-10-04T10:31:45Z</time>
      </trkpt>
      <trkpt lat="46.08461" lon="4.42788">
        <ele>704</ele>
        <time>2025-10-04T10:31:46Z</time>
      </trkpt>
      <trkpt lat="46.08462" lon="4.42786">
        <ele>704.4</ele>
        <time>2025-10-04T10:31:47Z</time>
      </trkpt>
      <trkpt lat="46.08463" lon="4.42785">
        <ele>704.4</ele>
        <time>2025-10-04T10:31:48Z</time>
      </trkpt>
      <trkpt lat="46.08465" lon="4.42783">
        <ele>704.4</ele>
        <time>2025-10-04T10:31:49Z</time>
      </trkpt>
      <trkpt lat="46.08466" lon="4.42783">
        <ele>704.4</ele>
        <time>2025-10-04T10:31:50Z</time>
      </trkpt>
      <trkpt lat="46.08468" lon="4.42782">
        <ele>704.8</ele>
        <time>2025-10-04T10:31:51Z</time>
      </trkpt>
      <trkpt lat="46.0847" lon="4.42782">
        <ele>704.8</ele>
        <time>2025-10-04T10:31:52Z</time>
      </trkpt>
      <trkpt lat="46.08471" lon="4.42781">
        <ele>704.8</ele>
        <time>2025-10-04T10:31:53Z</time>
      </trkpt>
      <trkpt lat="46.08473" lon="4.4278">
        <ele>704.8</ele>
        <time>2025-10-04T10:31:54Z</time>
      </trkpt>
      <trkpt lat="46.08474" lon="4.42779">
        <ele>704.8</ele>
        <time>2025-10-04T10:31:55Z</time>
      </trkpt>
      <trkpt lat="46.08476" lon="4.42779">
        <ele>704.8</ele>
        <time>2025-10-04T10:31:56Z</time>
      </trkpt>
      <trkpt lat="46.08477" lon="4.42778">
        <ele>704.8</ele>
        <time>2025-10-04T10:31:57Z</time>
      </trkpt>
      <trkpt lat="46.08478" lon="4.42777">
        <ele>705</ele>
        <time>2025-10-04T10:31:58Z</time>
      </trkpt>
      <trkpt lat="46.08479" lon="4.42776">
        <ele>705</ele>
        <time>2025-10-04T10:31:59Z</time>
      </trkpt>
      <trkpt lat="46.08481" lon="4.42776">
        <ele>705.4</ele>
        <time>2025-10-04T10:32:00Z</time>
      </trkpt>
      <trkpt lat="46.08483" lon="4.42777">
        <ele>705.4</ele>
        <time>2025-10-04T10:32:01Z</time>
      </trkpt>
      <trkpt lat="46.08484" lon="4.42778">
        <ele>705.4</ele>
        <time>2025-10-04T10:32:02Z</time>
      </trkpt>
      <trkpt lat="46.08486" lon="4.4278">
        <ele>705.4</ele>
        <time>2025-10-04T10:32:03Z</time>
      </trkpt>
      <trkpt lat="46.08487" lon="4.42783">
        <ele>705.6</ele>
        <time>2025-10-04T10:32:04Z</time>
      </trkpt>
      <trkpt lat="46.08489" lon="4.42785">
        <ele>705.6</ele>
        <time>2025-10-04T10:32:05Z</time>
      </trkpt>
      <trkpt lat="46.08491" lon="4.42788">
        <ele>706</ele>
        <time>2025-10-04T10:32:06Z</time>
      </trkpt>
      <trkpt lat="46.08493" lon="4.4279">
        <ele>706</ele>
        <time>2025-10-04T10:32:07Z</time>
      </trkpt>
      <trkpt lat="46.08495" lon="4.42791">
        <ele>706</ele>
        <time>2025-10-04T10:32:08Z</time>
      </trkpt>
      <trkpt lat="46.08498" lon="4.42792">
        <ele>706</ele>
        <time>2025-10-04T10:32:09Z</time>
      </trkpt>
      <trkpt lat="46.085" lon="4.42792">
        <ele>706.4</ele>
        <time>2025-10-04T10:32:10Z</time>
      </trkpt>
      <trkpt lat="46.08503" lon="4.42793">
        <ele>706.4</ele>
        <time>2025-10-04T10:32:11Z</time>
      </trkpt>
      <trkpt lat="46.08506" lon="4.42794">
        <ele>706.6</ele>
        <time>2025-10-04T10:32:12Z</time>
      </trkpt>
      <trkpt lat="46.08508" lon="4.42795">
        <ele>706.6</ele>
        <time>2025-10-04T10:32:13Z</time>
      </trkpt>
      <trkpt lat="46.08511" lon="4.42796">
        <ele>706.8</ele>
        <time>2025-10-04T10:32:14Z</time>
      </trkpt>
      <trkpt lat="46.08513" lon="4.42797">
        <ele>706.8</ele>
        <time>2025-10-04T10:32:15Z</time>
      </trkpt>
      <trkpt lat="46.08516" lon="4.42798">
        <ele>706.8</ele>
        <time>2025-10-04T10:32:16Z</time>
      </trkpt>
      <trkpt lat="46.0852" lon="4.428">
        <ele>706.8</ele>
        <time>2025-10-04T10:32:17Z</time>
      </trkpt>
      <trkpt lat="46.08523" lon="4.42802">
        <ele>706.8</ele>
        <time>2025-10-04T10:32:18Z</time>
      </trkpt>
      <trkpt lat="46.08525" lon="4.42806">
        <ele>706.8</ele>
        <time>2025-10-04T10:32:19Z</time>
      </trkpt>
      <trkpt lat="46.08529" lon="4.42813">
        <ele>706.8</ele>
        <time>2025-10-04T10:32:20Z</time>
      </trkpt>
      <trkpt lat="46.08531" lon="4.42816">
        <ele>706.8</ele>
        <time>2025-10-04T10:32:21Z</time>
      </trkpt>
      <trkpt lat="46.08533" lon="4.4282">
        <ele>706.8</ele>
        <time>2025-10-04T10:32:22Z</time>
      </trkpt>
      <trkpt lat="46.08535" lon="4.42824">
        <ele>706.8</ele>
        <time>2025-10-04T10:32:23Z</time>
      </trkpt>
      <trkpt lat="46.08537" lon="4.42827">
        <ele>707.2</ele>
        <time>2025-10-04T10:32:24Z</time>
      </trkpt>
      <trkpt lat="46.08538" lon="4.42831">
        <ele>707.2</ele>
        <time>2025-10-04T10:32:25Z</time>
      </trkpt>
      <trkpt lat="46.08539" lon="4.42834">
        <ele>707.2</ele>
        <time>2025-10-04T10:32:26Z</time>
      </trkpt>
      <trkpt lat="46.0854" lon="4.42837">
        <ele>707.2</ele>
        <time>2025-10-04T10:32:27Z</time>
      </trkpt>
      <trkpt lat="46.08541" lon="4.4284">
        <ele>707.2</ele>
        <time>2025-10-04T10:32:28Z</time>
      </trkpt>
      <trkpt lat="46.08542" lon="4.42843">
        <ele>707.2</ele>
        <time>2025-10-04T10:32:29Z</time>
      </trkpt>
      <trkpt lat="46.08543" lon="4.42845">
        <ele>707.2</ele>
        <time>2025-10-04T10:32:30Z</time>
      </trkpt>
      <trkpt lat="46.08543" lon="4.42847">
        <ele>707.6</ele>
        <time>2025-10-04T10:32:31Z</time>
      </trkpt>
      <trkpt lat="46.08543" lon="4.42848">
        <ele>707.6</ele>
        <time>2025-10-04T10:32:32Z</time>
      </trkpt>
      <trkpt lat="46.08543" lon="4.42848">
        <ele>707.8</ele>
        <time>2025-10-04T10:32:33Z</time>
      </trkpt>
      <trkpt lat="46.08543" lon="4.42848">
        <ele>707.8</ele>
        <time>2025-10-04T10:32:34Z</time>
      </trkpt>
      <trkpt lat="46.08542" lon="4.4285">
        <ele>708.4</ele>
        <time>2025-10-04T10:33:32Z</time>
      </trkpt>
      <trkpt lat="46.08542" lon="4.4285">
        <ele>708.4</ele>
        <time>2025-10-04T10:33:33Z</time>
      </trkpt>
      <trkpt lat="46.08542" lon="4.42851">
        <ele>708.4</ele>
        <time>2025-10-04T10:33:34Z</time>
      </trkpt>
      <trkpt lat="46.08544" lon="4.42855">
        <ele>709.2</ele>
        <time>2025-10-04T10:33:59Z</time>
      </trkpt>
      <trkpt lat="46.08545" lon="4.42857">
        <ele>709.2</ele>
        <time>2025-10-04T10:34:00Z</time>
      </trkpt>
      <trkpt lat="46.08545" lon="4.42859">
        <ele>709</ele>
        <time>2025-10-04T10:34:01Z</time>
      </trkpt>
      <trkpt lat="46.08547" lon="4.42861">
        <ele>709</ele>
        <time>2025-10-04T10:34:02Z</time>
      </trkpt>
      <trkpt lat="46.08548" lon="4.42863">
        <ele>709</ele>
        <time>2025-10-04T10:34:03Z</time>
      </trkpt>
      <trkpt lat="46.08549" lon="4.42865">
        <ele>708.8</ele>
        <time>2025-10-04T10:34:04Z</time>
      </trkpt>
      <trkpt lat="46.0855" lon="4.42868">
        <ele>708.8</ele>
        <time>2025-10-04T10:34:05Z</time>
      </trkpt>
      <trkpt lat="46.08551" lon="4.4287">
        <ele>708.8</ele>
        <time>2025-10-04T10:34:06Z</time>
      </trkpt>
      <trkpt lat="46.08552" lon="4.42873">
        <ele>708.8</ele>
        <time>2025-10-04T10:34:07Z</time>
      </trkpt>
      <trkpt lat="46.08554" lon="4.42876">
        <ele>709.2</ele>
        <time>2025-10-04T10:34:08Z</time>
      </trkpt>
      <trkpt lat="46.08556" lon="4.42878">
        <ele>709.2</ele>
        <time>2025-10-04T10:34:09Z</time>
      </trkpt>
      <trkpt lat="46.08558" lon="4.42881">
        <ele>709.2</ele>
        <time>2025-10-04T10:34:10Z</time>
      </trkpt>
      <trkpt lat="46.08559" lon="4.42884">
        <ele>709.2</ele>
        <time>2025-10-04T10:34:11Z</time>
      </trkpt>
      <trkpt lat="46.0856" lon="4.42888">
        <ele>709.2</ele>
        <time>2025-10-04T10:34:12Z</time>
      </trkpt>
      <trkpt lat="46.08562" lon="4.42891">
        <ele>709.2</ele>
        <time>2025-10-04T10:34:13Z</time>
      </trkpt>
      <trkpt lat="46.08564" lon="4.42894">
        <ele>709.8</ele>
        <time>2025-10-04T10:34:14Z</time>
      </trkpt>
      <trkpt lat="46.08565" lon="4.42898">
        <ele>710.2</ele>
        <time>2025-10-04T10:34:15Z</time>
      </trkpt>
      <trkpt lat="46.08567" lon="4.42901">
        <ele>710.2</ele>
        <time>2025-10-04T10:34:16Z</time>
      </trkpt>
      <trkpt lat="46.08568" lon="4.42905">
        <ele>710.4</ele>
        <time>2025-10-04T10:34:17Z</time>
      </trkpt>
      <trkpt lat="46.08569" lon="4.42908">
        <ele>710.8</ele>
        <time>2025-10-04T10:34:18Z</time>
      </trkpt>
      <trkpt lat="46.08571" lon="4.42911">
        <ele>711</ele>
        <time>2025-10-04T10:34:19Z</time>
      </trkpt>
      <trkpt lat="46.08572" lon="4.42915">
        <ele>711</ele>
        <time>2025-10-04T10:34:20Z</time>
      </trkpt>
      <trkpt lat="46.08573" lon="4.42918">
        <ele>711.4</ele>
        <time>2025-10-04T10:34:21Z</time>
      </trkpt>
      <trkpt lat="46.08575" lon="4.42921">
        <ele>711.6</ele>
        <time>2025-10-04T10:34:22Z</time>
      </trkpt>
      <trkpt lat="46.08577" lon="4.42924">
        <ele>711.6</ele>
        <time>2025-10-04T10:34:23Z</time>
      </trkpt>
      <trkpt lat="46.08579" lon="4.42927">
        <ele>711.8</ele>
        <time>2025-10-04T10:34:24Z</time>
      </trkpt>
      <trkpt lat="46.08581" lon="4.4293">
        <ele>711.8</ele>
        <time>2025-10-04T10:34:25Z</time>
      </trkpt>
      <trkpt lat="46.08583" lon="4.42932">
        <ele>711.8</ele>
        <time>2025-10-04T10:34:26Z</time>
      </trkpt>
      <trkpt lat="46.08585" lon="4.42935">
        <ele>712.2</ele>
        <time>2025-10-04T10:34:27Z</time>
      </trkpt>
      <trkpt lat="46.08587" lon="4.42937">
        <ele>712.2</ele>
        <time>2025-10-04T10:34:28Z</time>
      </trkpt>
      <trkpt lat="46.0859" lon="4.4294">
        <ele>712.2</ele>
        <time>2025-10-04T10:34:29Z</time>
      </trkpt>
      <trkpt lat="46.08592" lon="4.42942">
        <ele>712.2</ele>
        <time>2025-10-04T10:34:30Z</time>
      </trkpt>
      <trkpt lat="46.08594" lon="4.42945">
        <ele>712.4</ele>
        <time>2025-10-04T10:34:31Z</time>
      </trkpt>
      <trkpt lat="46.08596" lon="4.42947">
        <ele>712.6</ele>
        <time>2025-10-04T10:34:32Z</time>
      </trkpt>
      <trkpt lat="46.08599" lon="4.4295">
        <ele>712.6</ele>
        <time>2025-10-04T10:34:33Z</time>
      </trkpt>
      <trkpt lat="46.08601" lon="4.42952">
        <ele>712.8</ele>
        <time>2025-10-04T10:34:34Z</time>
      </trkpt>
      <trkpt lat="46.08604" lon="4.42955">
        <ele>712.8</ele>
        <time>2025-10-04T10:34:35Z</time>
      </trkpt>
      <trkpt lat="46.08606" lon="4.42957">
        <ele>713</ele>
        <time>2025-10-04T10:34:36Z</time>
      </trkpt>
      <trkpt lat="46.08609" lon="4.42959">
        <ele>713.4</ele>
        <time>2025-10-04T10:34:37Z</time>
      </trkpt>
      <trkpt lat="46.08612" lon="4.42962">
        <ele>713.6</ele>
        <time>2025-10-04T10:34:38Z</time>
      </trkpt>
      <trkpt lat="46.08615" lon="4.42964">
        <ele>713.6</ele>
        <time>2025-10-04T10:34:39Z</time>
      </trkpt>
      <trkpt lat="46.08618" lon="4.42967">
        <ele>713.6</ele>
        <time>2025-10-04T10:34:40Z</time>
      </trkpt>
      <trkpt lat="46.0862" lon="4.42969">
        <ele>714</ele>
        <time>2025-10-04T10:34:41Z</time>
      </trkpt>
      <trkpt lat="46.08623" lon="4.42972">
        <ele>714</ele>
        <time>2025-10-04T10:34:42Z</time>
      </trkpt>
      <trkpt lat="46.08626" lon="4.42975">
        <ele>714</ele>
        <time>2025-10-04T10:34:43Z</time>
      </trkpt>
      <trkpt lat="46.08629" lon="4.42978">
        <ele>714</ele>
        <time>2025-10-04T10:34:44Z</time>
      </trkpt>
      <trkpt lat="46.08631" lon="4.4298">
        <ele>714.2</ele>
        <time>2025-10-04T10:34:45Z</time>
      </trkpt>
      <trkpt lat="46.08634" lon="4.42983">
        <ele>714.2</ele>
        <time>2025-10-04T10:34:46Z</time>
      </trkpt>
      <trkpt lat="46.08636" lon="4.42986">
        <ele>714.2</ele>
        <time>2025-10-04T10:34:47Z</time>
      </trkpt>
      <trkpt lat="46.08639" lon="4.42989">
        <ele>714.6</ele>
        <time>2025-10-04T10:34:48Z</time>
      </trkpt>
      <trkpt lat="46.08641" lon="4.42992">
        <ele>714.8</ele>
        <time>2025-10-04T10:34:49Z</time>
      </trkpt>
      <trkpt lat="46.08643" lon="4.42995">
        <ele>714.8</ele>
        <time>2025-10-04T10:34:50Z</time>
      </trkpt>
      <trkpt lat="46.08645" lon="4.42999">
        <ele>715</ele>
        <time>2025-10-04T10:34:51Z</time>
      </trkpt>
      <trkpt lat="46.08647" lon="4.43002">
        <ele>715</ele>
        <time>2025-10-04T10:34:52Z</time>
      </trkpt>
      <trkpt lat="46.08649" lon="4.43005">
        <ele>715</ele>
        <time>2025-10-04T10:34:53Z</time>
      </trkpt>
      <trkpt lat="46.08651" lon="4.43008">
        <ele>715.4</ele>
        <time>2025-10-04T10:34:54Z</time>
      </trkpt>
      <trkpt lat="46.08653" lon="4.43011">
        <ele>715.8</ele>
        <time>2025-10-04T10:34:55Z</time>
      </trkpt>
      <trkpt lat="46.08655" lon="4.43014">
        <ele>716.2</ele>
        <time>2025-10-04T10:34:56Z</time>
      </trkpt>
      <trkpt lat="46.08657" lon="4.43017">
        <ele>716.2</ele>
        <time>2025-10-04T10:34:57Z</time>
      </trkpt>
      <trkpt lat="46.08659" lon="4.43019">
        <ele>716.6</ele>
        <time>2025-10-04T10:34:58Z</time>
      </trkpt>
      <trkpt lat="46.08661" lon="4.43022">
        <ele>716.8</ele>
        <time>2025-10-04T10:34:59Z</time>
      </trkpt>
      <trkpt lat="46.08661" lon="4.43022">
        <ele>717.2</ele>
        <time>2025-10-04T10:35:00Z</time>
      </trkpt>
      <trkpt lat="46.08663" lon="4.43025">
        <ele>717.6</ele>
        <time>2025-10-04T10:35:01Z</time>
      </trkpt>
      <trkpt lat="46.08665" lon="4.43027">
        <ele>717.8</ele>
        <time>2025-10-04T10:35:02Z</time>
      </trkpt>
      <trkpt lat="46.08667" lon="4.43029">
        <ele>718</ele>
        <time>2025-10-04T10:35:03Z</time>
      </trkpt>
      <trkpt lat="46.08669" lon="4.43031">
        <ele>718</ele>
        <time>2025-10-04T10:35:04Z</time>
      </trkpt>
      <trkpt lat="46.08671" lon="4.43034">
        <ele>718.2</ele>
        <time>2025-10-04T10:35:05Z</time>
      </trkpt>
      <trkpt lat="46.08673" lon="4.43035">
        <ele>718.2</ele>
        <time>2025-10-04T10:35:06Z</time>
      </trkpt>
      <trkpt lat="46.08676" lon="4.43037">
        <ele>718.2</ele>
        <time>2025-10-04T10:35:07Z</time>
      </trkpt>
      <trkpt lat="46.08678" lon="4.43039">
        <ele>718.6</ele>
        <time>2025-10-04T10:35:08Z</time>
      </trkpt>
      <trkpt lat="46.0868" lon="4.4304">
        <ele>718.6</ele>
        <time>2025-10-04T10:35:09Z</time>
      </trkpt>
      <trkpt lat="46.08683" lon="4.43041">
        <ele>719</ele>
        <time>2025-10-04T10:35:10Z</time>
      </trkpt>
      <trkpt lat="46.08685" lon="4.43042">
        <ele>719</ele>
        <time>2025-10-04T10:35:11Z</time>
      </trkpt>
      <trkpt lat="46.08687" lon="4.43043">
        <ele>719</ele>
        <time>2025-10-04T10:35:12Z</time>
      </trkpt>
      <trkpt lat="46.0869" lon="4.43044">
        <ele>719.2</ele>
        <time>2025-10-04T10:35:13Z</time>
      </trkpt>
      <trkpt lat="46.08692" lon="4.43044">
        <ele>719.2</ele>
        <time>2025-10-04T10:35:14Z</time>
      </trkpt>
      <trkpt lat="46.08695" lon="4.43045">
        <ele>719.6</ele>
        <time>2025-10-04T10:35:15Z</time>
      </trkpt>
      <trkpt lat="46.08698" lon="4.43045">
        <ele>719.6</ele>
        <time>2025-10-04T10:35:16Z</time>
      </trkpt>
      <trkpt lat="46.087" lon="4.43044">
        <ele>719.8</ele>
        <time>2025-10-04T10:35:17Z</time>
      </trkpt>
      <trkpt lat="46.08703" lon="4.43044">
        <ele>719.8</ele>
        <time>2025-10-04T10:35:18Z</time>
      </trkpt>
      <trkpt lat="46.08706" lon="4.43044">
        <ele>719.8</ele>
        <time>2025-10-04T10:35:19Z</time>
      </trkpt>
      <trkpt lat="46.08709" lon="4.43044">
        <ele>720</ele>
        <time>2025-10-04T10:35:20Z</time>
      </trkpt>
      <trkpt lat="46.08712" lon="4.43043">
        <ele>720</ele>
        <time>2025-10-04T10:35:21Z</time>
      </trkpt>
      <trkpt lat="46.08715" lon="4.43043">
        <ele>720.4</ele>
        <time>2025-10-04T10:35:22Z</time>
      </trkpt>
      <trkpt lat="46.08717" lon="4.43042">
        <ele>720.4</ele>
        <time>2025-10-04T10:35:23Z</time>
      </trkpt>
      <trkpt lat="46.0872" lon="4.43041">
        <ele>720.8</ele>
        <time>2025-10-04T10:35:24Z</time>
      </trkpt>
      <trkpt lat="46.08723" lon="4.43041">
        <ele>720.8</ele>
        <time>2025-10-04T10:35:25Z</time>
      </trkpt>
      <trkpt lat="46.08726" lon="4.4304">
        <ele>720.8</ele>
        <time>2025-10-04T10:35:26Z</time>
      </trkpt>
      <trkpt lat="46.08729" lon="4.43039">
        <ele>720.8</ele>
        <time>2025-10-04T10:35:27Z</time>
      </trkpt>
      <trkpt lat="46.08733" lon="4.43039">
        <ele>721</ele>
        <time>2025-10-04T10:35:28Z</time>
      </trkpt>
      <trkpt lat="46.08736" lon="4.43038">
        <ele>721</ele>
        <time>2025-10-04T10:35:29Z</time>
      </trkpt>
      <trkpt lat="46.08738" lon="4.43038">
        <ele>721.2</ele>
        <time>2025-10-04T10:35:30Z</time>
      </trkpt>
      <trkpt lat="46.08742" lon="4.43037">
        <ele>721.2</ele>
        <time>2025-10-04T10:35:31Z</time>
      </trkpt>
      <trkpt lat="46.08745" lon="4.43037">
        <ele>721.4</ele>
        <time>2025-10-04T10:35:32Z</time>
      </trkpt>
      <trkpt lat="46.08748" lon="4.43036">
        <ele>721.4</ele>
        <time>2025-10-04T10:35:33Z</time>
      </trkpt>
      <trkpt lat="46.08751" lon="4.43035">
        <ele>721.4</ele>
        <time>2025-10-04T10:35:34Z</time>
      </trkpt>
      <trkpt lat="46.08754" lon="4.43035">
        <ele>721.6</ele>
        <time>2025-10-04T10:35:35Z</time>
      </trkpt>
      <trkpt lat="46.08757" lon="4.43034">
        <ele>722.2</ele>
        <time>2025-10-04T10:35:36Z</time>
      </trkpt>
      <trkpt lat="46.0876" lon="4.43034">
        <ele>722.2</ele>
        <time>2025-10-04T10:35:37Z</time>
      </trkpt>
      <trkpt lat="46.08763" lon="4.43033">
        <ele>722.2</ele>
        <time>2025-10-04T10:35:38Z</time>
      </trkpt>
      <trkpt lat="46.08766" lon="4.43033">
        <ele>722.2</ele>
        <time>2025-10-04T10:35:39Z</time>
      </trkpt>
      <trkpt lat="46.08769" lon="4.43032">
        <ele>722.6</ele>
        <time>2025-10-04T10:35:40Z</time>
      </trkpt>
      <trkpt lat="46.08772" lon="4.43032">
        <ele>722.4</ele>
        <time>2025-10-04T10:35:41Z</time>
      </trkpt>
      <trkpt lat="46.08775" lon="4.43031">
        <ele>722.4</ele>
        <time>2025-10-04T10:35:42Z</time>
      </trkpt>
      <trkpt lat="46.08778" lon="4.43031">
        <ele>722.8</ele>
        <time>2025-10-04T10:35:43Z</time>
      </trkpt>
      <trkpt lat="46.08781" lon="4.4303">
        <ele>722.8</ele>
        <time>2025-10-04T10:35:44Z</time>
      </trkpt>
      <trkpt lat="46.08784" lon="4.4303">
        <ele>723.2</ele>
        <time>2025-10-04T10:35:45Z</time>
      </trkpt>
      <trkpt lat="46.08787" lon="4.4303">
        <ele>723.2</ele>
        <time>2025-10-04T10:35:46Z</time>
      </trkpt>
      <trkpt lat="46.0879" lon="4.43029">
        <ele>723.4</ele>
        <time>2025-10-04T10:35:47Z</time>
      </trkpt>
      <trkpt lat="46.08793" lon="4.43028">
        <ele>723.4</ele>
        <time>2025-10-04T10:35:48Z</time>
      </trkpt>
      <trkpt lat="46.08796" lon="4.43027">
        <ele>723.6</ele>
        <time>2025-10-04T10:35:49Z</time>
      </trkpt>
      <trkpt lat="46.08799" lon="4.43025">
        <ele>723.6</ele>
        <time>2025-10-04T10:35:50Z</time>
      </trkpt>
      <trkpt lat="46.08802" lon="4.43024">
        <ele>723.6</ele>
        <time>2025-10-04T10:35:51Z</time>
      </trkpt>
      <trkpt lat="46.08805" lon="4.43023">
        <ele>723.6</ele>
        <time>2025-10-04T10:35:52Z</time>
      </trkpt>
      <trkpt lat="46.08807" lon="4.43022">
        <ele>724</ele>
        <time>2025-10-04T10:35:53Z</time>
      </trkpt>
      <trkpt lat="46.0881" lon="4.4302">
        <ele>724.2</ele>
        <time>2025-10-04T10:35:54Z</time>
      </trkpt>
      <trkpt lat="46.08813" lon="4.43018">
        <ele>724.2</ele>
        <time>2025-10-04T10:35:55Z</time>
      </trkpt>
      <trkpt lat="46.08815" lon="4.43016">
        <ele>724.4</ele>
        <time>2025-10-04T10:35:56Z</time>
      </trkpt>
      <trkpt lat="46.08817" lon="4.43013">
        <ele>724.4</ele>
        <time>2025-10-04T10:35:57Z</time>
      </trkpt>
      <trkpt lat="46.08821" lon="4.4301">
        <ele>724.4</ele>
        <time>2025-10-04T10:35:58Z</time>
      </trkpt>
      <trkpt lat="46.08824" lon="4.43008">
        <ele>724.4</ele>
        <time>2025-10-04T10:35:59Z</time>
      </trkpt>
      <trkpt lat="46.08827" lon="4.43005">
        <ele>724.4</ele>
        <time>2025-10-04T10:36:00Z</time>
      </trkpt>
      <trkpt lat="46.08829" lon="4.43003">
        <ele>724.6</ele>
        <time>2025-10-04T10:36:01Z</time>
      </trkpt>
      <trkpt lat="46.08832" lon="4.43">
        <ele>724.6</ele>
        <time>2025-10-04T10:36:02Z</time>
      </trkpt>
      <trkpt lat="46.08835" lon="4.42997">
        <ele>724.6</ele>
        <time>2025-10-04T10:36:03Z</time>
      </trkpt>
      <trkpt lat="46.08841" lon="4.42993">
        <ele>724.6</ele>
        <time>2025-10-04T10:36:04Z</time>
      </trkpt>
      <trkpt lat="46.08844" lon="4.42992">
        <ele>724.6</ele>
        <time>2025-10-04T10:36:05Z</time>
      </trkpt>
      <trkpt lat="46.08847" lon="4.4299">
        <ele>724.6</ele>
        <time>2025-10-04T10:36:06Z</time>
      </trkpt>
      <trkpt lat="46.0885" lon="4.4299">
        <ele>724.8</ele>
        <time>2025-10-04T10:36:07Z</time>
      </trkpt>
      <trkpt lat="46.08854" lon="4.4299">
        <ele>724.8</ele>
        <time>2025-10-04T10:36:08Z</time>
      </trkpt>
      <trkpt lat="46.08857" lon="4.42991">
        <ele>724.8</ele>
        <time>2025-10-04T10:36:09Z</time>
      </trkpt>
      <trkpt lat="46.0886" lon="4.42993">
        <ele>725</ele>
        <time>2025-10-04T10:36:10Z</time>
      </trkpt>
      <trkpt lat="46.08863" lon="4.42996">
        <ele>725</ele>
        <time>2025-10-04T10:36:11Z</time>
      </trkpt>
      <trkpt lat="46.08866" lon="4.42999">
        <ele>725</ele>
        <time>2025-10-04T10:36:12Z</time>
      </trkpt>
      <trkpt lat="46.08868" lon="4.43003">
        <ele>725.6</ele>
        <time>2025-10-04T10:36:13Z</time>
      </trkpt>
      <trkpt lat="46.08869" lon="4.43007">
        <ele>725.6</ele>
        <time>2025-10-04T10:36:14Z</time>
      </trkpt>
      <trkpt lat="46.0887" lon="4.43012">
        <ele>726</ele>
        <time>2025-10-04T10:36:15Z</time>
      </trkpt>
      <trkpt lat="46.0887" lon="4.43016">
        <ele>726</ele>
        <time>2025-10-04T10:36:16Z</time>
      </trkpt>
      <trkpt lat="46.08871" lon="4.43021">
        <ele>726.2</ele>
        <time>2025-10-04T10:36:17Z</time>
      </trkpt>
      <trkpt lat="46.08871" lon="4.43025">
        <ele>726.2</ele>
        <time>2025-10-04T10:36:18Z</time>
      </trkpt>
      <trkpt lat="46.08871" lon="4.43029">
        <ele>726.2</ele>
        <time>2025-10-04T10:36:19Z</time>
      </trkpt>
      <trkpt lat="46.08871" lon="4.43033">
        <ele>726.4</ele>
        <time>2025-10-04T10:36:20Z</time>
      </trkpt>
      <trkpt lat="46.0887" lon="4.43038">
        <ele>726.4</ele>
        <time>2025-10-04T10:36:21Z</time>
      </trkpt>
      <trkpt lat="46.0887" lon="4.43041">
        <ele>726.4</ele>
        <time>2025-10-04T10:36:22Z</time>
      </trkpt>
      <trkpt lat="46.0887" lon="4.43045">
        <ele>726.4</ele>
        <time>2025-10-04T10:36:23Z</time>
      </trkpt>
      <trkpt lat="46.08869" lon="4.43049">
        <ele>726.4</ele>
        <time>2025-10-04T10:36:24Z</time>
      </trkpt>
      <trkpt lat="46.08869" lon="4.43053">
        <ele>726.8</ele>
        <time>2025-10-04T10:36:25Z</time>
      </trkpt>
      <trkpt lat="46.08869" lon="4.43057">
        <ele>726.8</ele>
        <time>2025-10-04T10:36:26Z</time>
      </trkpt>
      <trkpt lat="46.08869" lon="4.43061">
        <ele>726.8</ele>
        <time>2025-10-04T10:36:27Z</time>
      </trkpt>
      <trkpt lat="46.08869" lon="4.43065">
        <ele>727</ele>
        <time>2025-10-04T10:36:28Z</time>
      </trkpt>
      <trkpt lat="46.08869" lon="4.43069">
        <ele>727</ele>
        <time>2025-10-04T10:36:29Z</time>
      </trkpt>
      <trkpt lat="46.08869" lon="4.43073">
        <ele>727.2</ele>
        <time>2025-10-04T10:36:30Z</time>
      </trkpt>
      <trkpt lat="46.08868" lon="4.43076">
        <ele>727.2</ele>
        <time>2025-10-04T10:36:31Z</time>
      </trkpt>
      <trkpt lat="46.08868" lon="4.4308">
        <ele>727.6</ele>
        <time>2025-10-04T10:36:32Z</time>
      </trkpt>
      <trkpt lat="46.08868" lon="4.43084">
        <ele>727.6</ele>
        <time>2025-10-04T10:36:33Z</time>
      </trkpt>
      <trkpt lat="46.08868" lon="4.43087">
        <ele>727.8</ele>
        <time>2025-10-04T10:36:34Z</time>
      </trkpt>
      <trkpt lat="46.08868" lon="4.43091">
        <ele>727.8</ele>
        <time>2025-10-04T10:36:35Z</time>
      </trkpt>
      <trkpt lat="46.08868" lon="4.43095">
        <ele>728</ele>
        <time>2025-10-04T10:36:36Z</time>
      </trkpt>
      <trkpt lat="46.08868" lon="4.43098">
        <ele>728</ele>
        <time>2025-10-04T10:36:37Z</time>
      </trkpt>
      <trkpt lat="46.08868" lon="4.43102">
        <ele>728.4</ele>
        <time>2025-10-04T10:36:38Z</time>
      </trkpt>
      <trkpt lat="46.08868" lon="4.43106">
        <ele>728.4</ele>
        <time>2025-10-04T10:36:39Z</time>
      </trkpt>
      <trkpt lat="46.08868" lon="4.43109">
        <ele>728.6</ele>
        <time>2025-10-04T10:36:40Z</time>
      </trkpt>
      <trkpt lat="46.08868" lon="4.43113">
        <ele>728.6</ele>
        <time>2025-10-04T10:36:41Z</time>
      </trkpt>
      <trkpt lat="46.08868" lon="4.43117">
        <ele>729</ele>
        <time>2025-10-04T10:36:42Z</time>
      </trkpt>
      <trkpt lat="46.08868" lon="4.4312">
        <ele>729.4</ele>
        <time>2025-10-04T10:36:43Z</time>
      </trkpt>
      <trkpt lat="46.08868" lon="4.43124">
        <ele>729.6</ele>
        <time>2025-10-04T10:36:44Z</time>
      </trkpt>
      <trkpt lat="46.08868" lon="4.43128">
        <ele>729.8</ele>
        <time>2025-10-04T10:36:45Z</time>
      </trkpt>
      <trkpt lat="46.08869" lon="4.43131">
        <ele>730</ele>
        <time>2025-10-04T10:36:46Z</time>
      </trkpt>
      <trkpt lat="46.08869" lon="4.43135">
        <ele>730</ele>
        <time>2025-10-04T10:36:47Z</time>
      </trkpt>
      <trkpt lat="46.08869" lon="4.43138">
        <ele>730.4</ele>
        <time>2025-10-04T10:36:48Z</time>
      </trkpt>
      <trkpt lat="46.08869" lon="4.43142">
        <ele>730.6</ele>
        <time>2025-10-04T10:36:49Z</time>
      </trkpt>
      <trkpt lat="46.08869" lon="4.43146">
        <ele>730.6</ele>
        <time>2025-10-04T10:36:50Z</time>
      </trkpt>
      <trkpt lat="46.0887" lon="4.43149">
        <ele>731</ele>
        <time>2025-10-04T10:36:51Z</time>
      </trkpt>
      <trkpt lat="46.0887" lon="4.43153">
        <ele>731</ele>
        <time>2025-10-04T10:36:52Z</time>
      </trkpt>
      <trkpt lat="46.08871" lon="4.43156">
        <ele>731.4</ele>
        <time>2025-10-04T10:36:53Z</time>
      </trkpt>
      <trkpt lat="46.08871" lon="4.4316">
        <ele>731.4</ele>
        <time>2025-10-04T10:36:54Z</time>
      </trkpt>
      <trkpt lat="46.08872" lon="4.43164">
        <ele>731.8</ele>
        <time>2025-10-04T10:36:55Z</time>
      </trkpt>
      <trkpt lat="46.08873" lon="4.43167">
        <ele>732</ele>
        <time>2025-10-04T10:36:56Z</time>
      </trkpt>
      <trkpt lat="46.08874" lon="4.43171">
        <ele>732</ele>
        <time>2025-10-04T10:36:57Z</time>
      </trkpt>
      <trkpt lat="46.08875" lon="4.43174">
        <ele>732</ele>
        <time>2025-10-04T10:36:58Z</time>
      </trkpt>
      <trkpt lat="46.08876" lon="4.43178">
        <ele>732.2</ele>
        <time>2025-10-04T10:36:59Z</time>
      </trkpt>
      <trkpt lat="46.08877" lon="4.43182">
        <ele>732.2</ele>
        <time>2025-10-04T10:37:00Z</time>
      </trkpt>
      <trkpt lat="46.08878" lon="4.43186">
        <ele>732.2</ele>
        <time>2025-10-04T10:37:01Z</time>
      </trkpt>
      <trkpt lat="46.08879" lon="4.43189">
        <ele>732.6</ele>
        <time>2025-10-04T10:37:02Z</time>
      </trkpt>
      <trkpt lat="46.0888" lon="4.43193">
        <ele>732.6</ele>
        <time>2025-10-04T10:37:03Z</time>
      </trkpt>
      <trkpt lat="46.08881" lon="4.43196">
        <ele>732.6</ele>
        <time>2025-10-04T10:37:04Z</time>
      </trkpt>
      <trkpt lat="46.08882" lon="4.43199">
        <ele>733</ele>
        <time>2025-10-04T10:37:05Z</time>
      </trkpt>
      <trkpt lat="46.08883" lon="4.43203">
        <ele>733</ele>
        <time>2025-10-04T10:37:06Z</time>
      </trkpt>
      <trkpt lat="46.08885" lon="4.43206">
        <ele>733.4</ele>
        <time>2025-10-04T10:37:07Z</time>
      </trkpt>
      <trkpt lat="46.08886" lon="4.4321">
        <ele>733.4</ele>
        <time>2025-10-04T10:37:08Z</time>
      </trkpt>
      <trkpt lat="46.08888" lon="4.43213">
        <ele>733.8</ele>
        <time>2025-10-04T10:37:09Z</time>
      </trkpt>
      <trkpt lat="46.08889" lon="4.43216">
        <ele>733.8</ele>
        <time>2025-10-04T10:37:10Z</time>
      </trkpt>
      <trkpt lat="46.08891" lon="4.43219">
        <ele>734</ele>
        <time>2025-10-04T10:37:11Z</time>
      </trkpt>
      <trkpt lat="46.08892" lon="4.43223">
        <ele>734</ele>
        <time>2025-10-04T10:37:12Z</time>
      </trkpt>
      <trkpt lat="46.08894" lon="4.43225">
        <ele>734</ele>
        <time>2025-10-04T10:37:13Z</time>
      </trkpt>
      <trkpt lat="46.08895" lon="4.43228">
        <ele>734</ele>
        <time>2025-10-04T10:37:14Z</time>
      </trkpt>
      <trkpt lat="46.08897" lon="4.43231">
        <ele>734.4</ele>
        <time>2025-10-04T10:37:15Z</time>
      </trkpt>
      <trkpt lat="46.08898" lon="4.43234">
        <ele>734.4</ele>
        <time>2025-10-04T10:37:16Z</time>
      </trkpt>
      <trkpt lat="46.089" lon="4.43237">
        <ele>734.8</ele>
        <time>2025-10-04T10:37:17Z</time>
      </trkpt>
      <trkpt lat="46.08902" lon="4.43239">
        <ele>735</ele>
        <time>2025-10-04T10:37:18Z</time>
      </trkpt>
      <trkpt lat="46.08904" lon="4.43242">
        <ele>735</ele>
        <time>2025-10-04T10:37:19Z</time>
      </trkpt>
      <trkpt lat="46.08906" lon="4.43244">
        <ele>735</ele>
        <time>2025-10-04T10:37:20Z</time>
      </trkpt>
      <trkpt lat="46.08908" lon="4.43247">
        <ele>735.2</ele>
        <time>2025-10-04T10:37:21Z</time>
      </trkpt>
      <trkpt lat="46.0891" lon="4.43249">
        <ele>735.2</ele>
        <time>2025-10-04T10:37:22Z</time>
      </trkpt>
      <trkpt lat="46.08912" lon="4.43252">
        <ele>735.2</ele>
        <time>2025-10-04T10:37:23Z</time>
      </trkpt>
      <trkpt lat="46.08914" lon="4.43254">
        <ele>735.6</ele>
        <time>2025-10-04T10:37:24Z</time>
      </trkpt>
      <trkpt lat="46.08916" lon="4.43256">
        <ele>735.6</ele>
        <time>2025-10-04T10:37:25Z</time>
      </trkpt>
      <trkpt lat="46.08918" lon="4.43259">
        <ele>735.8</ele>
        <time>2025-10-04T10:37:26Z</time>
      </trkpt>
      <trkpt lat="46.0892" lon="4.43261">
        <ele>735.8</ele>
        <time>2025-10-04T10:37:27Z</time>
      </trkpt>
      <trkpt lat="46.08922" lon="4.43263">
        <ele>735.8</ele>
        <time>2025-10-04T10:37:28Z</time>
      </trkpt>
      <trkpt lat="46.08924" lon="4.43265">
        <ele>736.2</ele>
        <time>2025-10-04T10:37:29Z</time>
      </trkpt>
      <trkpt lat="46.08927" lon="4.43267">
        <ele>736.2</ele>
        <time>2025-10-04T10:37:30Z</time>
      </trkpt>
      <trkpt lat="46.08929" lon="4.43268">
        <ele>736.2</ele>
        <time>2025-10-04T10:37:31Z</time>
      </trkpt>
      <trkpt lat="46.08931" lon="4.4327">
        <ele>736.4</ele>
        <time>2025-10-04T10:37:32Z</time>
      </trkpt>
      <trkpt lat="46.08934" lon="4.43272">
        <ele>736.6</ele>
        <time>2025-10-04T10:37:33Z</time>
      </trkpt>
      <trkpt lat="46.08936" lon="4.43274">
        <ele>736.6</ele>
        <time>2025-10-04T10:37:34Z</time>
      </trkpt>
      <trkpt lat="46.08938" lon="4.43275">
        <ele>736.6</ele>
        <time>2025-10-04T10:37:35Z</time>
      </trkpt>
      <trkpt lat="46.0894" lon="4.43277">
        <ele>736.6</ele>
        <time>2025-10-04T10:37:36Z</time>
      </trkpt>
      <trkpt lat="46.08943" lon="4.43279">
        <ele>736.8</ele>
        <time>2025-10-04T10:37:37Z</time>
      </trkpt>
      <trkpt lat="46.08945" lon="4.4328">
        <ele>736.8</ele>
        <time>2025-10-04T10:37:38Z</time>
      </trkpt>
      <trkpt lat="46.08947" lon="4.43282">
        <ele>737</ele>
        <time>2025-10-04T10:37:39Z</time>
      </trkpt>
      <trkpt lat="46.0895" lon="4.43283">
        <ele>737</ele>
        <time>2025-10-04T10:37:40Z</time>
      </trkpt>
      <trkpt lat="46.08952" lon="4.43284">
        <ele>737.4</ele>
        <time>2025-10-04T10:37:41Z</time>
      </trkpt>
      <trkpt lat="46.08955" lon="4.43286">
        <ele>737.4</ele>
        <time>2025-10-04T10:37:42Z</time>
      </trkpt>
      <trkpt lat="46.08957" lon="4.43287">
        <ele>737.8</ele>
        <time>2025-10-04T10:37:43Z</time>
      </trkpt>
      <trkpt lat="46.0896" lon="4.43288">
        <ele>737.8</ele>
        <time>2025-10-04T10:37:44Z</time>
      </trkpt>
      <trkpt lat="46.08963" lon="4.43288">
        <ele>737.8</ele>
        <time>2025-10-04T10:37:45Z</time>
      </trkpt>
      <trkpt lat="46.08965" lon="4.43289">
        <ele>738</ele>
        <time>2025-10-04T10:37:46Z</time>
      </trkpt>
      <trkpt lat="46.08967" lon="4.43289">
        <ele>738.2</ele>
        <time>2025-10-04T10:37:47Z</time>
      </trkpt>
      <trkpt lat="46.0897" lon="4.4329">
        <ele>738.2</ele>
        <time>2025-10-04T10:37:48Z</time>
      </trkpt>
      <trkpt lat="46.08973" lon="4.4329">
        <ele>738.6</ele>
        <time>2025-10-04T10:37:49Z</time>
      </trkpt>
      <trkpt lat="46.08976" lon="4.4329">
        <ele>738.6</ele>
        <time>2025-10-04T10:37:50Z</time>
      </trkpt>
      <trkpt lat="46.08978" lon="4.43289">
        <ele>738.8</ele>
        <time>2025-10-04T10:37:51Z</time>
      </trkpt>
      <trkpt lat="46.08981" lon="4.43289">
        <ele>739</ele>
        <time>2025-10-04T10:37:52Z</time>
      </trkpt>
      <trkpt lat="46.08984" lon="4.43289">
        <ele>739</ele>
        <time>2025-10-04T10:37:53Z</time>
      </trkpt>
      <trkpt lat="46.08986" lon="4.43289">
        <ele>739</ele>
        <time>2025-10-04T10:37:54Z</time>
      </trkpt>
      <trkpt lat="46.08989" lon="4.43289">
        <ele>739.2</ele>
        <time>2025-10-04T10:37:55Z</time>
      </trkpt>
      <trkpt lat="46.08992" lon="4.43288">
        <ele>739.2</ele>
        <time>2025-10-04T10:37:56Z</time>
      </trkpt>
      <trkpt lat="46.08994" lon="4.43288">
        <ele>739.2</ele>
        <time>2025-10-04T10:37:57Z</time>
      </trkpt>
      <trkpt lat="46.08997" lon="4.43288">
        <ele>739.6</ele>
        <time>2025-10-04T10:37:58Z</time>
      </trkpt>
      <trkpt lat="46.09" lon="4.43287">
        <ele>739.6</ele>
        <time>2025-10-04T10:37:59Z</time>
      </trkpt>
      <trkpt lat="46.09003" lon="4.43286">
        <ele>739.6</ele>
        <time>2025-10-04T10:38:00Z</time>
      </trkpt>
      <trkpt lat="46.09006" lon="4.43286">
        <ele>739.6</ele>
        <time>2025-10-04T10:38:01Z</time>
      </trkpt>
      <trkpt lat="46.09009" lon="4.43286">
        <ele>739.6</ele>
        <time>2025-10-04T10:38:02Z</time>
      </trkpt>
      <trkpt lat="46.09012" lon="4.43286">
        <ele>739.8</ele>
        <time>2025-10-04T10:38:03Z</time>
      </trkpt>
      <trkpt lat="46.09015" lon="4.43285">
        <ele>739.8</ele>
        <time>2025-10-04T10:38:04Z</time>
      </trkpt>
      <trkpt lat="46.09018" lon="4.43286">
        <ele>739.8</ele>
        <time>2025-10-04T10:38:05Z</time>
      </trkpt>
      <trkpt lat="46.0902" lon="4.43286">
        <ele>739.8</ele>
        <time>2025-10-04T10:38:06Z</time>
      </trkpt>
      <trkpt lat="46.09023" lon="4.43287">
        <ele>739.8</ele>
        <time>2025-10-04T10:38:07Z</time>
      </trkpt>
      <trkpt lat="46.09025" lon="4.43289">
        <ele>740.2</ele>
        <time>2025-10-04T10:38:08Z</time>
      </trkpt>
      <trkpt lat="46.09028" lon="4.4329">
        <ele>740.2</ele>
        <time>2025-10-04T10:38:09Z</time>
      </trkpt>
      <trkpt lat="46.0903" lon="4.43292">
        <ele>740.2</ele>
        <time>2025-10-04T10:38:10Z</time>
      </trkpt>
      <trkpt lat="46.09032" lon="4.43295">
        <ele>740.2</ele>
        <time>2025-10-04T10:38:11Z</time>
      </trkpt>
      <trkpt lat="46.09034" lon="4.43298">
        <ele>740.2</ele>
        <time>2025-10-04T10:38:12Z</time>
      </trkpt>
      <trkpt lat="46.09036" lon="4.43301">
        <ele>740.4</ele>
        <time>2025-10-04T10:38:13Z</time>
      </trkpt>
      <trkpt lat="46.09038" lon="4.43305">
        <ele>740.4</ele>
        <time>2025-10-04T10:38:14Z</time>
      </trkpt>
      <trkpt lat="46.09039" lon="4.43309">
        <ele>740.4</ele>
        <time>2025-10-04T10:38:15Z</time>
      </trkpt>
      <trkpt lat="46.0904" lon="4.43313">
        <ele>740.6</ele>
        <time>2025-10-04T10:38:16Z</time>
      </trkpt>
      <trkpt lat="46.09042" lon="4.43317">
        <ele>741</ele>
        <time>2025-10-04T10:38:17Z</time>
      </trkpt>
      <trkpt lat="46.09043" lon="4.43321">
        <ele>741.4</ele>
        <time>2025-10-04T10:38:18Z</time>
      </trkpt>
      <trkpt lat="46.09044" lon="4.43324">
        <ele>741.6</ele>
        <time>2025-10-04T10:38:19Z</time>
      </trkpt>
      <trkpt lat="46.09045" lon="4.43328">
        <ele>742</ele>
        <time>2025-10-04T10:38:20Z</time>
      </trkpt>
      <trkpt lat="46.09045" lon="4.43331">
        <ele>742.2</ele>
        <time>2025-10-04T10:38:21Z</time>
      </trkpt>
      <trkpt lat="46.09046" lon="4.43335">
        <ele>742.6</ele>
        <time>2025-10-04T10:38:22Z</time>
      </trkpt>
      <trkpt lat="46.09047" lon="4.43338">
        <ele>743</ele>
        <time>2025-10-04T10:38:23Z</time>
      </trkpt>
      <trkpt lat="46.09048" lon="4.43342">
        <ele>743</ele>
        <time>2025-10-04T10:38:24Z</time>
      </trkpt>
      <trkpt lat="46.09049" lon="4.43345">
        <ele>743.4</ele>
        <time>2025-10-04T10:38:25Z</time>
      </trkpt>
      <trkpt lat="46.0905" lon="4.43348">
        <ele>743.8</ele>
        <time>2025-10-04T10:38:26Z</time>
      </trkpt>
      <trkpt lat="46.09052" lon="4.43351">
        <ele>744</ele>
        <time>2025-10-04T10:38:27Z</time>
      </trkpt>
      <trkpt lat="46.09053" lon="4.43354">
        <ele>744</ele>
        <time>2025-10-04T10:38:28Z</time>
      </trkpt>
      <trkpt lat="46.09055" lon="4.43357">
        <ele>744</ele>
        <time>2025-10-04T10:38:29Z</time>
      </trkpt>
      <trkpt lat="46.09057" lon="4.43359">
        <ele>744</ele>
        <time>2025-10-04T10:38:30Z</time>
      </trkpt>
      <trkpt lat="46.0906" lon="4.43362">
        <ele>744</ele>
        <time>2025-10-04T10:38:31Z</time>
      </trkpt>
      <trkpt lat="46.09062" lon="4.43364">
        <ele>744.4</ele>
        <time>2025-10-04T10:38:32Z</time>
      </trkpt>
      <trkpt lat="46.09064" lon="4.43366">
        <ele>744.4</ele>
        <time>2025-10-04T10:38:33Z</time>
      </trkpt>
      <trkpt lat="46.09066" lon="4.43368">
        <ele>744.8</ele>
        <time>2025-10-04T10:38:34Z</time>
      </trkpt>
      <trkpt lat="46.09068" lon="4.43369">
        <ele>745</ele>
        <time>2025-10-04T10:38:35Z</time>
      </trkpt>
      <trkpt lat="46.09071" lon="4.4337">
        <ele>745.4</ele>
        <time>2025-10-04T10:38:36Z</time>
      </trkpt>
      <trkpt lat="46.09073" lon="4.43371">
        <ele>745.6</ele>
        <time>2025-10-04T10:38:37Z</time>
      </trkpt>
      <trkpt lat="46.09076" lon="4.43372">
        <ele>745.6</ele>
        <time>2025-10-04T10:38:38Z</time>
      </trkpt>
      <trkpt lat="46.09079" lon="4.43373">
        <ele>746</ele>
        <time>2025-10-04T10:38:39Z</time>
      </trkpt>
      <trkpt lat="46.09082" lon="4.43374">
        <ele>746</ele>
        <time>2025-10-04T10:38:40Z</time>
      </trkpt>
      <trkpt lat="46.09084" lon="4.43375">
        <ele>746</ele>
        <time>2025-10-04T10:38:41Z</time>
      </trkpt>
      <trkpt lat="46.09087" lon="4.43376">
        <ele>746</ele>
        <time>2025-10-04T10:38:42Z</time>
      </trkpt>
      <trkpt lat="46.0909" lon="4.43376">
        <ele>746.2</ele>
        <time>2025-10-04T10:38:43Z</time>
      </trkpt>
      <trkpt lat="46.09092" lon="4.43377">
        <ele>746.2</ele>
        <time>2025-10-04T10:38:44Z</time>
      </trkpt>
      <trkpt lat="46.09095" lon="4.43378">
        <ele>746.6</ele>
        <time>2025-10-04T10:38:45Z</time>
      </trkpt>
      <trkpt lat="46.09097" lon="4.43378">
        <ele>746.8</ele>
        <time>2025-10-04T10:38:46Z</time>
      </trkpt>
      <trkpt lat="46.091" lon="4.43379">
        <ele>746.8</ele>
        <time>2025-10-04T10:38:47Z</time>
      </trkpt>
      <trkpt lat="46.09103" lon="4.43379">
        <ele>747</ele>
        <time>2025-10-04T10:38:48Z</time>
      </trkpt>
      <trkpt lat="46.09106" lon="4.43379">
        <ele>747</ele>
        <time>2025-10-04T10:38:49Z</time>
      </trkpt>
      <trkpt lat="46.09108" lon="4.4338">
        <ele>747.4</ele>
        <time>2025-10-04T10:38:50Z</time>
      </trkpt>
      <trkpt lat="46.09111" lon="4.4338">
        <ele>747.4</ele>
        <time>2025-10-04T10:38:51Z</time>
      </trkpt>
      <trkpt lat="46.09114" lon="4.4338">
        <ele>747.8</ele>
        <time>2025-10-04T10:38:52Z</time>
      </trkpt>
      <trkpt lat="46.09116" lon="4.4338">
        <ele>747.8</ele>
        <time>2025-10-04T10:38:53Z</time>
      </trkpt>
      <trkpt lat="46.09119" lon="4.4338">
        <ele>747.8</ele>
        <time>2025-10-04T10:38:54Z</time>
      </trkpt>
      <trkpt lat="46.09122" lon="4.43381">
        <ele>748</ele>
        <time>2025-10-04T10:38:55Z</time>
      </trkpt>
      <trkpt lat="46.09124" lon="4.43381">
        <ele>748</ele>
        <time>2025-10-04T10:38:56Z</time>
      </trkpt>
      <trkpt lat="46.09127" lon="4.43381">
        <ele>748</ele>
        <time>2025-10-04T10:38:57Z</time>
      </trkpt>
      <trkpt lat="46.0913" lon="4.43381">
        <ele>748.4</ele>
        <time>2025-10-04T10:38:58Z</time>
      </trkpt>
      <trkpt lat="46.09133" lon="4.43381">
        <ele>748.4</ele>
        <time>2025-10-04T10:38:59Z</time>
      </trkpt>
      <trkpt lat="46.09136" lon="4.43381">
        <ele>748.6</ele>
        <time>2025-10-04T10:39:00Z</time>
      </trkpt>
      <trkpt lat="46.09138" lon="4.43382">
        <ele>748.6</ele>
        <time>2025-10-04T10:39:01Z</time>
      </trkpt>
      <trkpt lat="46.09141" lon="4.43382">
        <ele>748.8</ele>
        <time>2025-10-04T10:39:02Z</time>
      </trkpt>
      <trkpt lat="46.09144" lon="4.43383">
        <ele>748.8</ele>
        <time>2025-10-04T10:39:03Z</time>
      </trkpt>
      <trkpt lat="46.09147" lon="4.43384">
        <ele>749.2</ele>
        <time>2025-10-04T10:39:04Z</time>
      </trkpt>
      <trkpt lat="46.0915" lon="4.43385">
        <ele>749.2</ele>
        <time>2025-10-04T10:39:05Z</time>
      </trkpt>
      <trkpt lat="46.09153" lon="4.43385">
        <ele>749.4</ele>
        <time>2025-10-04T10:39:06Z</time>
      </trkpt>
      <trkpt lat="46.09155" lon="4.43386">
        <ele>749.4</ele>
        <time>2025-10-04T10:39:07Z</time>
      </trkpt>
      <trkpt lat="46.09157" lon="4.43386">
        <ele>749.4</ele>
        <time>2025-10-04T10:39:08Z</time>
      </trkpt>
      <trkpt lat="46.0916" lon="4.43387">
        <ele>749.4</ele>
        <time>2025-10-04T10:39:09Z</time>
      </trkpt>
      <trkpt lat="46.09163" lon="4.43387">
        <ele>749.6</ele>
        <time>2025-10-04T10:39:10Z</time>
      </trkpt>
      <trkpt lat="46.09166" lon="4.43387">
        <ele>749.6</ele>
        <time>2025-10-04T10:39:11Z</time>
      </trkpt>
      <trkpt lat="46.09169" lon="4.43388">
        <ele>750</ele>
        <time>2025-10-04T10:39:12Z</time>
      </trkpt>
      <trkpt lat="46.09171" lon="4.43388">
        <ele>750</ele>
        <time>2025-10-04T10:39:13Z</time>
      </trkpt>
      <trkpt lat="46.09174" lon="4.43389">
        <ele>750</ele>
        <time>2025-10-04T10:39:14Z</time>
      </trkpt>
      <trkpt lat="46.09176" lon="4.43389">
        <ele>750</ele>
        <time>2025-10-04T10:39:15Z</time>
      </trkpt>
      <trkpt lat="46.09178" lon="4.43389">
        <ele>750.2</ele>
        <time>2025-10-04T10:39:16Z</time>
      </trkpt>
      <trkpt lat="46.09181" lon="4.4339">
        <ele>750.4</ele>
        <time>2025-10-04T10:39:17Z</time>
      </trkpt>
      <trkpt lat="46.09184" lon="4.43391">
        <ele>750.4</ele>
        <time>2025-10-04T10:39:18Z</time>
      </trkpt>
      <trkpt lat="46.09187" lon="4.43391">
        <ele>750.4</ele>
        <time>2025-10-04T10:39:19Z</time>
      </trkpt>
      <trkpt lat="46.0919" lon="4.43392">
        <ele>750.8</ele>
        <time>2025-10-04T10:39:20Z</time>
      </trkpt>
      <trkpt lat="46.09192" lon="4.43392">
        <ele>751.2</ele>
        <time>2025-10-04T10:39:21Z</time>
      </trkpt>
      <trkpt lat="46.09194" lon="4.43393">
        <ele>751.2</ele>
        <time>2025-10-04T10:39:22Z</time>
      </trkpt>
      <trkpt lat="46.09196" lon="4.43393">
        <ele>751.2</ele>
        <time>2025-10-04T10:39:23Z</time>
      </trkpt>
      <trkpt lat="46.09199" lon="4.43392">
        <ele>751.6</ele>
        <time>2025-10-04T10:39:24Z</time>
      </trkpt>
      <trkpt lat="46.09202" lon="4.43393">
        <ele>751.6</ele>
        <time>2025-10-04T10:39:25Z</time>
      </trkpt>
      <trkpt lat="46.09204" lon="4.43393">
        <ele>751.8</ele>
        <time>2025-10-04T10:39:26Z</time>
      </trkpt>
      <trkpt lat="46.09207" lon="4.43393">
        <ele>751.8</ele>
        <time>2025-10-04T10:39:27Z</time>
      </trkpt>
      <trkpt lat="46.09209" lon="4.43393">
        <ele>752.2</ele>
        <time>2025-10-04T10:39:28Z</time>
      </trkpt>
      <trkpt lat="46.09212" lon="4.43393">
        <ele>752.2</ele>
        <time>2025-10-04T10:39:29Z</time>
      </trkpt>
      <trkpt lat="46.09214" lon="4.43393">
        <ele>752.2</ele>
        <time>2025-10-04T10:39:30Z</time>
      </trkpt>
      <trkpt lat="46.09217" lon="4.43394">
        <ele>752.4</ele>
        <time>2025-10-04T10:39:31Z</time>
      </trkpt>
      <trkpt lat="46.0922" lon="4.43394">
        <ele>752.8</ele>
        <time>2025-10-04T10:39:32Z</time>
      </trkpt>
      <trkpt lat="46.09222" lon="4.43394">
        <ele>752.8</ele>
        <time>2025-10-04T10:39:33Z</time>
      </trkpt>
      <trkpt lat="46.09225" lon="4.43394">
        <ele>753</ele>
        <time>2025-10-04T10:39:34Z</time>
      </trkpt>
      <trkpt lat="46.09228" lon="4.43393">
        <ele>753.2</ele>
        <time>2025-10-04T10:39:35Z</time>
      </trkpt>
      <trkpt lat="46.0923" lon="4.43392">
        <ele>753.2</ele>
        <time>2025-10-04T10:39:36Z</time>
      </trkpt>
      <trkpt lat="46.09233" lon="4.43391">
        <ele>753.2</ele>
        <time>2025-10-04T10:39:37Z</time>
      </trkpt>
      <trkpt lat="46.09235" lon="4.4339">
        <ele>753.6</ele>
        <time>2025-10-04T10:39:38Z</time>
      </trkpt>
      <trkpt lat="46.09237" lon="4.43389">
        <ele>753.8</ele>
        <time>2025-10-04T10:39:39Z</time>
      </trkpt>
      <trkpt lat="46.09239" lon="4.43388">
        <ele>753.8</ele>
        <time>2025-10-04T10:39:40Z</time>
      </trkpt>
      <trkpt lat="46.09241" lon="4.43387">
        <ele>754</ele>
        <time>2025-10-04T10:39:41Z</time>
      </trkpt>
      <trkpt lat="46.09244" lon="4.43386">
        <ele>754</ele>
        <time>2025-10-04T10:39:42Z</time>
      </trkpt>
      <trkpt lat="46.09246" lon="4.43385">
        <ele>754.4</ele>
        <time>2025-10-04T10:39:43Z</time>
      </trkpt>
      <trkpt lat="46.09249" lon="4.43384">
        <ele>754.6</ele>
        <time>2025-10-04T10:39:44Z</time>
      </trkpt>
      <trkpt lat="46.09251" lon="4.43383">
        <ele>754.6</ele>
        <time>2025-10-04T10:39:45Z</time>
      </trkpt>
      <trkpt lat="46.09254" lon="4.43381">
        <ele>754.6</ele>
        <time>2025-10-04T10:39:46Z</time>
      </trkpt>
      <trkpt lat="46.09256" lon="4.4338">
        <ele>755</ele>
        <time>2025-10-04T10:39:47Z</time>
      </trkpt>
      <trkpt lat="46.09256" lon="4.4338">
        <ele>755</ele>
        <time>2025-10-04T10:39:48Z</time>
      </trkpt>
      <trkpt lat="46.09259" lon="4.43378">
        <ele>755</ele>
        <time>2025-10-04T10:39:49Z</time>
      </trkpt>
      <trkpt lat="46.09262" lon="4.43376">
        <ele>755.2</ele>
        <time>2025-10-04T10:39:50Z</time>
      </trkpt>
      <trkpt lat="46.09264" lon="4.43375">
        <ele>755.2</ele>
        <time>2025-10-04T10:39:51Z</time>
      </trkpt>
      <trkpt lat="46.09267" lon="4.43373">
        <ele>755.2</ele>
        <time>2025-10-04T10:39:52Z</time>
      </trkpt>
      <trkpt lat="46.0927" lon="4.43372">
        <ele>755.6</ele>
        <time>2025-10-04T10:39:53Z</time>
      </trkpt>
      <trkpt lat="46.09272" lon="4.43371">
        <ele>755.6</ele>
        <time>2025-10-04T10:39:54Z</time>
      </trkpt>
      <trkpt lat="46.09274" lon="4.43369">
        <ele>755.8</ele>
        <time>2025-10-04T10:39:55Z</time>
      </trkpt>
      <trkpt lat="46.09276" lon="4.43368">
        <ele>755.8</ele>
        <time>2025-10-04T10:39:56Z</time>
      </trkpt>
      <trkpt lat="46.09279" lon="4.43367">
        <ele>756.2</ele>
        <time>2025-10-04T10:39:57Z</time>
      </trkpt>
      <trkpt lat="46.09281" lon="4.43365">
        <ele>756.2</ele>
        <time>2025-10-04T10:39:58Z</time>
      </trkpt>
      <trkpt lat="46.09284" lon="4.43364">
        <ele>756.6</ele>
        <time>2025-10-04T10:39:59Z</time>
      </trkpt>
      <trkpt lat="46.09286" lon="4.43362">
        <ele>756.6</ele>
        <time>2025-10-04T10:40:00Z</time>
      </trkpt>
      <trkpt lat="46.09289" lon="4.43361">
        <ele>756.6</ele>
        <time>2025-10-04T10:40:01Z</time>
      </trkpt>
      <trkpt lat="46.09291" lon="4.4336">
        <ele>756.6</ele>
        <time>2025-10-04T10:40:02Z</time>
      </trkpt>
      <trkpt lat="46.09293" lon="4.43358">
        <ele>757</ele>
        <time>2025-10-04T10:40:03Z</time>
      </trkpt>
      <trkpt lat="46.09295" lon="4.43356">
        <ele>757</ele>
        <time>2025-10-04T10:40:04Z</time>
      </trkpt>
      <trkpt lat="46.09298" lon="4.43354">
        <ele>757</ele>
        <time>2025-10-04T10:40:05Z</time>
      </trkpt>
      <trkpt lat="46.093" lon="4.43352">
        <ele>757.4</ele>
        <time>2025-10-04T10:40:06Z</time>
      </trkpt>
      <trkpt lat="46.09303" lon="4.43351">
        <ele>757.4</ele>
        <time>2025-10-04T10:40:07Z</time>
      </trkpt>
      <trkpt lat="46.09304" lon="4.43349">
        <ele>757.4</ele>
        <time>2025-10-04T10:40:08Z</time>
      </trkpt>
      <trkpt lat="46.09306" lon="4.43347">
        <ele>757.8</ele>
        <time>2025-10-04T10:40:09Z</time>
      </trkpt>
      <trkpt lat="46.09308" lon="4.43344">
        <ele>757.8</ele>
        <time>2025-10-04T10:40:10Z</time>
      </trkpt>
      <trkpt lat="46.0931" lon="4.43342">
        <ele>758.2</ele>
        <time>2025-10-04T10:40:11Z</time>
      </trkpt>
      <trkpt lat="46.09312" lon="4.4334">
        <ele>758.2</ele>
        <time>2025-10-04T10:40:12Z</time>
      </trkpt>
      <trkpt lat="46.09315" lon="4.43339">
        <ele>758.4</ele>
        <time>2025-10-04T10:40:13Z</time>
      </trkpt>
      <trkpt lat="46.09317" lon="4.43337">
        <ele>758.4</ele>
        <time>2025-10-04T10:40:14Z</time>
      </trkpt>
      <trkpt lat="46.09319" lon="4.43336">
        <ele>758.4</ele>
        <time>2025-10-04T10:40:15Z</time>
      </trkpt>
      <trkpt lat="46.09322" lon="4.43335">
        <ele>758.6</ele>
        <time>2025-10-04T10:40:16Z</time>
      </trkpt>
      <trkpt lat="46.09325" lon="4.43335">
        <ele>758.6</ele>
        <time>2025-10-04T10:40:17Z</time>
      </trkpt>
      <trkpt lat="46.09327" lon="4.43335">
        <ele>759</ele>
        <time>2025-10-04T10:40:18Z</time>
      </trkpt>
      <trkpt lat="46.0933" lon="4.43335">
        <ele>759</ele>
        <time>2025-10-04T10:40:19Z</time>
      </trkpt>
      <trkpt lat="46.09332" lon="4.43336">
        <ele>759.4</ele>
        <time>2025-10-04T10:40:20Z</time>
      </trkpt>
      <trkpt lat="46.09335" lon="4.43337">
        <ele>759.4</ele>
        <time>2025-10-04T10:40:21Z</time>
      </trkpt>
      <trkpt lat="46.09337" lon="4.43339">
        <ele>759.8</ele>
        <time>2025-10-04T10:40:22Z</time>
      </trkpt>
      <trkpt lat="46.09339" lon="4.43341">
        <ele>760</ele>
        <time>2025-10-04T10:40:23Z</time>
      </trkpt>
      <trkpt lat="46.09341" lon="4.43344">
        <ele>760.2</ele>
        <time>2025-10-04T10:40:24Z</time>
      </trkpt>
      <trkpt lat="46.09343" lon="4.43347">
        <ele>760.6</ele>
        <time>2025-10-04T10:40:25Z</time>
      </trkpt>
      <trkpt lat="46.09344" lon="4.4335">
        <ele>760.6</ele>
        <time>2025-10-04T10:40:26Z</time>
      </trkpt>
      <trkpt lat="46.09345" lon="4.43353">
        <ele>760.6</ele>
        <time>2025-10-04T10:40:27Z</time>
      </trkpt>
      <trkpt lat="46.09346" lon="4.43356">
        <ele>760.4</ele>
        <time>2025-10-04T10:40:28Z</time>
      </trkpt>
      <trkpt lat="46.09347" lon="4.4336">
        <ele>760.4</ele>
        <time>2025-10-04T10:40:29Z</time>
      </trkpt>
      <trkpt lat="46.09347" lon="4.43363">
        <ele>760.4</ele>
        <time>2025-10-04T10:40:30Z</time>
      </trkpt>
      <trkpt lat="46.09347" lon="4.43366">
        <ele>760.2</ele>
        <time>2025-10-04T10:40:31Z</time>
      </trkpt>
      <trkpt lat="46.09347" lon="4.43369">
        <ele>760.2</ele>
        <time>2025-10-04T10:40:32Z</time>
      </trkpt>
      <trkpt lat="46.09347" lon="4.43373">
        <ele>760.2</ele>
        <time>2025-10-04T10:40:33Z</time>
      </trkpt>
      <trkpt lat="46.09346" lon="4.43376">
        <ele>759.8</ele>
        <time>2025-10-04T10:40:34Z</time>
      </trkpt>
      <trkpt lat="46.09345" lon="4.43379">
        <ele>759.8</ele>
        <time>2025-10-04T10:40:35Z</time>
      </trkpt>
      <trkpt lat="46.09344" lon="4.43381">
        <ele>760.2</ele>
        <time>2025-10-04T10:40:36Z</time>
      </trkpt>
      <trkpt lat="46.09344" lon="4.43384">
        <ele>760.2</ele>
        <time>2025-10-04T10:40:37Z</time>
      </trkpt>
      <trkpt lat="46.09343" lon="4.43387">
        <ele>760.6</ele>
        <time>2025-10-04T10:40:38Z</time>
      </trkpt>
      <trkpt lat="46.09342" lon="4.43389">
        <ele>761.2</ele>
        <time>2025-10-04T10:40:39Z</time>
      </trkpt>
      <trkpt lat="46.09342" lon="4.43392">
        <ele>761.4</ele>
        <time>2025-10-04T10:40:40Z</time>
      </trkpt>
      <trkpt lat="46.0934" lon="4.43394">
        <ele>761.6</ele>
        <time>2025-10-04T10:40:41Z</time>
      </trkpt>
      <trkpt lat="46.09339" lon="4.43396">
        <ele>761.6</ele>
        <time>2025-10-04T10:40:42Z</time>
      </trkpt>
      <trkpt lat="46.09338" lon="4.43398">
        <ele>762.2</ele>
        <time>2025-10-04T10:40:43Z</time>
      </trkpt>
      <trkpt lat="46.09337" lon="4.434">
        <ele>762.4</ele>
        <time>2025-10-04T10:40:44Z</time>
      </trkpt>
      <trkpt lat="46.09336" lon="4.43403">
        <ele>762.4</ele>
        <time>2025-10-04T10:40:45Z</time>
      </trkpt>
      <trkpt lat="46.09335" lon="4.43406">
        <ele>762.4</ele>
        <time>2025-10-04T10:40:46Z</time>
      </trkpt>
      <trkpt lat="46.09334" lon="4.43409">
        <ele>762.8</ele>
        <time>2025-10-04T10:40:47Z</time>
      </trkpt>
      <trkpt lat="46.09332" lon="4.43413">
        <ele>763</ele>
        <time>2025-10-04T10:40:48Z</time>
      </trkpt>
      <trkpt lat="46.09331" lon="4.43416">
        <ele>762.8</ele>
        <time>2025-10-04T10:40:49Z</time>
      </trkpt>
      <trkpt lat="46.0933" lon="4.43419">
        <ele>762.8</ele>
        <time>2025-10-04T10:40:50Z</time>
      </trkpt>
      <trkpt lat="46.09329" lon="4.43421">
        <ele>763</ele>
        <time>2025-10-04T10:40:51Z</time>
      </trkpt>
      <trkpt lat="46.09328" lon="4.43424">
        <ele>763.4</ele>
        <time>2025-10-04T10:40:52Z</time>
      </trkpt>
      <trkpt lat="46.09327" lon="4.43426">
        <ele>763.4</ele>
        <time>2025-10-04T10:40:53Z</time>
      </trkpt>
      <trkpt lat="46.09326" lon="4.43428">
        <ele>763.4</ele>
        <time>2025-10-04T10:40:54Z</time>
      </trkpt>
      <trkpt lat="46.09324" lon="4.4343">
        <ele>763.6</ele>
        <time>2025-10-04T10:40:55Z</time>
      </trkpt>
      <trkpt lat="46.09323" lon="4.43432">
        <ele>763.6</ele>
        <time>2025-10-04T10:40:56Z</time>
      </trkpt>
      <trkpt lat="46.09322" lon="4.43435">
        <ele>764</ele>
        <time>2025-10-04T10:40:57Z</time>
      </trkpt>
      <trkpt lat="46.09321" lon="4.43438">
        <ele>764.4</ele>
        <time>2025-10-04T10:40:58Z</time>
      </trkpt>
      <trkpt lat="46.0932" lon="4.4344">
        <ele>764.8</ele>
        <time>2025-10-04T10:40:59Z</time>
      </trkpt>
      <trkpt lat="46.09319" lon="4.43442">
        <ele>764.8</ele>
        <time>2025-10-04T10:41:00Z</time>
      </trkpt>
      <trkpt lat="46.09317" lon="4.43444">
        <ele>765.2</ele>
        <time>2025-10-04T10:41:01Z</time>
      </trkpt>
      <trkpt lat="46.09316" lon="4.43447">
        <ele>765.4</ele>
        <time>2025-10-04T10:41:02Z</time>
      </trkpt>
      <trkpt lat="46.09315" lon="4.43449">
        <ele>765.4</ele>
        <time>2025-10-04T10:41:03Z</time>
      </trkpt>
      <trkpt lat="46.09314" lon="4.43452">
        <ele>765.4</ele>
        <time>2025-10-04T10:41:04Z</time>
      </trkpt>
      <trkpt lat="46.09313" lon="4.43454">
        <ele>765.8</ele>
        <time>2025-10-04T10:41:05Z</time>
      </trkpt>
      <trkpt lat="46.09312" lon="4.43456">
        <ele>765.8</ele>
        <time>2025-10-04T10:41:06Z</time>
      </trkpt>
      <trkpt lat="46.0931" lon="4.43458">
        <ele>765.8</ele>
        <time>2025-10-04T10:41:07Z</time>
      </trkpt>
      <trkpt lat="46.09309" lon="4.4346">
        <ele>765.8</ele>
        <time>2025-10-04T10:41:08Z</time>
      </trkpt>
      <trkpt lat="46.09308" lon="4.43463">
        <ele>766.2</ele>
        <time>2025-10-04T10:41:09Z</time>
      </trkpt>
      <trkpt lat="46.09307" lon="4.43465">
        <ele>766.4</ele>
        <time>2025-10-04T10:41:10Z</time>
      </trkpt>
      <trkpt lat="46.09306" lon="4.43467">
        <ele>766.8</ele>
        <time>2025-10-04T10:41:11Z</time>
      </trkpt>
      <trkpt lat="46.09305" lon="4.43469">
        <ele>767</ele>
        <time>2025-10-04T10:41:12Z</time>
      </trkpt>
      <trkpt lat="46.09303" lon="4.43471">
        <ele>767</ele>
        <time>2025-10-04T10:41:13Z</time>
      </trkpt>
      <trkpt lat="46.09302" lon="4.43474">
        <ele>767.2</ele>
        <time>2025-10-04T10:41:14Z</time>
      </trkpt>
      <trkpt lat="46.093" lon="4.43476">
        <ele>767.2</ele>
        <time>2025-10-04T10:41:15Z</time>
      </trkpt>
      <trkpt lat="46.09299" lon="4.43479">
        <ele>767.4</ele>
        <time>2025-10-04T10:41:16Z</time>
      </trkpt>
      <trkpt lat="46.09298" lon="4.43481">
        <ele>767.4</ele>
        <time>2025-10-04T10:41:17Z</time>
      </trkpt>
      <trkpt lat="46.09297" lon="4.43484">
        <ele>767.4</ele>
        <time>2025-10-04T10:41:18Z</time>
      </trkpt>
      <trkpt lat="46.09296" lon="4.43487">
        <ele>767.4</ele>
        <time>2025-10-04T10:41:19Z</time>
      </trkpt>
      <trkpt lat="46.09294" lon="4.43489">
        <ele>767.4</ele>
        <time>2025-10-04T10:41:20Z</time>
      </trkpt>
      <trkpt lat="46.09293" lon="4.43492">
        <ele>767.4</ele>
        <time>2025-10-04T10:41:21Z</time>
      </trkpt>
      <trkpt lat="46.09293" lon="4.43494">
        <ele>767.4</ele>
        <time>2025-10-04T10:41:22Z</time>
      </trkpt>
      <trkpt lat="46.09292" lon="4.43496">
        <ele>767.4</ele>
        <time>2025-10-04T10:41:23Z</time>
      </trkpt>
      <trkpt lat="46.09291" lon="4.43498">
        <ele>767</ele>
        <time>2025-10-04T10:41:24Z</time>
      </trkpt>
      <trkpt lat="46.0929" lon="4.435">
        <ele>767</ele>
        <time>2025-10-04T10:41:25Z</time>
      </trkpt>
      <trkpt lat="46.09289" lon="4.43502">
        <ele>767</ele>
        <time>2025-10-04T10:41:26Z</time>
      </trkpt>
      <trkpt lat="46.09288" lon="4.43505">
        <ele>767</ele>
        <time>2025-10-04T10:41:27Z</time>
      </trkpt>
      <trkpt lat="46.09287" lon="4.43507">
        <ele>767.4</ele>
        <time>2025-10-04T10:41:28Z</time>
      </trkpt>
      <trkpt lat="46.09286" lon="4.43509">
        <ele>767.4</ele>
        <time>2025-10-04T10:41:29Z</time>
      </trkpt>
      <trkpt lat="46.09285" lon="4.43511">
        <ele>767.8</ele>
        <time>2025-10-04T10:41:30Z</time>
      </trkpt>
      <trkpt lat="46.09284" lon="4.43513">
        <ele>767.8</ele>
        <time>2025-10-04T10:41:31Z</time>
      </trkpt>
      <trkpt lat="46.09283" lon="4.43515">
        <ele>767.8</ele>
        <time>2025-10-04T10:41:32Z</time>
      </trkpt>
      <trkpt lat="46.09282" lon="4.43517">
        <ele>767.8</ele>
        <time>2025-10-04T10:41:33Z</time>
      </trkpt>
      <trkpt lat="46.09281" lon="4.4352">
        <ele>767.8</ele>
        <time>2025-10-04T10:41:34Z</time>
      </trkpt>
      <trkpt lat="46.0928" lon="4.43522">
        <ele>767.8</ele>
        <time>2025-10-04T10:41:35Z</time>
      </trkpt>
      <trkpt lat="46.09279" lon="4.43524">
        <ele>768.2</ele>
        <time>2025-10-04T10:41:36Z</time>
      </trkpt>
      <trkpt lat="46.09278" lon="4.43527">
        <ele>768.2</ele>
        <time>2025-10-04T10:41:37Z</time>
      </trkpt>
      <trkpt lat="46.09277" lon="4.43529">
        <ele>768.6</ele>
        <time>2025-10-04T10:41:38Z</time>
      </trkpt>
      <trkpt lat="46.09276" lon="4.4353">
        <ele>768.6</ele>
        <time>2025-10-04T10:41:39Z</time>
      </trkpt>
      <trkpt lat="46.09275" lon="4.43532">
        <ele>768.8</ele>
        <time>2025-10-04T10:41:40Z</time>
      </trkpt>
      <trkpt lat="46.09274" lon="4.43534">
        <ele>769</ele>
        <time>2025-10-04T10:41:41Z</time>
      </trkpt>
      <trkpt lat="46.09274" lon="4.43536">
        <ele>769.2</ele>
        <time>2025-10-04T10:41:42Z</time>
      </trkpt>
      <trkpt lat="46.09273" lon="4.43538">
        <ele>769.6</ele>
        <time>2025-10-04T10:41:43Z</time>
      </trkpt>
      <trkpt lat="46.09272" lon="4.4354">
        <ele>769.6</ele>
        <time>2025-10-04T10:41:44Z</time>
      </trkpt>
      <trkpt lat="46.09271" lon="4.43543">
        <ele>770</ele>
        <time>2025-10-04T10:41:45Z</time>
      </trkpt>
      <trkpt lat="46.0927" lon="4.43545">
        <ele>770</ele>
        <time>2025-10-04T10:41:46Z</time>
      </trkpt>
      <trkpt lat="46.09269" lon="4.43547">
        <ele>770</ele>
        <time>2025-10-04T10:41:47Z</time>
      </trkpt>
      <trkpt lat="46.09267" lon="4.43548">
        <ele>770.2</ele>
        <time>2025-10-04T10:41:48Z</time>
      </trkpt>
      <trkpt lat="46.09266" lon="4.4355">
        <ele>770.6</ele>
        <time>2025-10-04T10:41:49Z</time>
      </trkpt>
      <trkpt lat="46.09265" lon="4.43552">
        <ele>770.8</ele>
        <time>2025-10-04T10:41:50Z</time>
      </trkpt>
      <trkpt lat="46.09264" lon="4.43554">
        <ele>770.8</ele>
        <time>2025-10-04T10:41:51Z</time>
      </trkpt>
      <trkpt lat="46.09262" lon="4.43556">
        <ele>770.8</ele>
        <time>2025-10-04T10:41:52Z</time>
      </trkpt>
      <trkpt lat="46.09261" lon="4.43558">
        <ele>771.2</ele>
        <time>2025-10-04T10:41:53Z</time>
      </trkpt>
      <trkpt lat="46.09261" lon="4.4356">
        <ele>771.2</ele>
        <time>2025-10-04T10:41:54Z</time>
      </trkpt>
      <trkpt lat="46.0926" lon="4.43562">
        <ele>771.4</ele>
        <time>2025-10-04T10:41:55Z</time>
      </trkpt>
      <trkpt lat="46.09259" lon="4.43565">
        <ele>771.4</ele>
        <time>2025-10-04T10:41:56Z</time>
      </trkpt>
      <trkpt lat="46.09259" lon="4.43567">
        <ele>771.6</ele>
        <time>2025-10-04T10:41:57Z</time>
      </trkpt>
      <trkpt lat="46.0926" lon="4.43569">
        <ele>771.8</ele>
        <time>2025-10-04T10:41:58Z</time>
      </trkpt>
      <trkpt lat="46.09262" lon="4.43571">
        <ele>772</ele>
        <time>2025-10-04T10:41:59Z</time>
      </trkpt>
      <trkpt lat="46.09264" lon="4.43573">
        <ele>772</ele>
        <time>2025-10-04T10:42:00Z</time>
      </trkpt>
      <trkpt lat="46.09267" lon="4.43573">
        <ele>772</ele>
        <time>2025-10-04T10:42:01Z</time>
      </trkpt>
      <trkpt lat="46.09269" lon="4.43572">
        <ele>772</ele>
        <time>2025-10-04T10:42:02Z</time>
      </trkpt>
      <trkpt lat="46.0927" lon="4.43569">
        <ele>772</ele>
        <time>2025-10-04T10:42:03Z</time>
      </trkpt>
      <trkpt lat="46.09272" lon="4.43566">
        <ele>772</ele>
        <time>2025-10-04T10:42:04Z</time>
      </trkpt>
      <trkpt lat="46.09273" lon="4.43565">
        <ele>772.4</ele>
        <time>2025-10-04T10:42:05Z</time>
      </trkpt>
      <trkpt lat="46.09274" lon="4.43563">
        <ele>772.6</ele>
        <time>2025-10-04T10:42:06Z</time>
      </trkpt>
      <trkpt lat="46.09275" lon="4.4356">
        <ele>772.6</ele>
        <time>2025-10-04T10:42:07Z</time>
      </trkpt>
      <trkpt lat="46.09276" lon="4.43558">
        <ele>772.6</ele>
        <time>2025-10-04T10:42:08Z</time>
      </trkpt>
      <trkpt lat="46.09277" lon="4.43556">
        <ele>772.6</ele>
        <time>2025-10-04T10:42:09Z</time>
      </trkpt>
      <trkpt lat="46.09278" lon="4.43554">
        <ele>772.6</ele>
        <time>2025-10-04T10:42:10Z</time>
      </trkpt>
      <trkpt lat="46.09279" lon="4.43552">
        <ele>772.8</ele>
        <time>2025-10-04T10:42:11Z</time>
      </trkpt>
      <trkpt lat="46.09281" lon="4.4355">
        <ele>772.8</ele>
        <time>2025-10-04T10:42:12Z</time>
      </trkpt>
      <trkpt lat="46.09283" lon="4.43548">
        <ele>773.2</ele>
        <time>2025-10-04T10:42:13Z</time>
      </trkpt>
      <trkpt lat="46.09285" lon="4.43546">
        <ele>773.4</ele>
        <time>2025-10-04T10:42:14Z</time>
      </trkpt>
      <trkpt lat="46.09287" lon="4.43543">
        <ele>773.4</ele>
        <time>2025-10-04T10:42:15Z</time>
      </trkpt>
      <trkpt lat="46.09289" lon="4.43541">
        <ele>773.6</ele>
        <time>2025-10-04T10:42:16Z</time>
      </trkpt>
      <trkpt lat="46.0929" lon="4.43538">
        <ele>773.6</ele>
        <time>2025-10-04T10:42:17Z</time>
      </trkpt>
      <trkpt lat="46.09293" lon="4.43536">
        <ele>774</ele>
        <time>2025-10-04T10:42:18Z</time>
      </trkpt>
      <trkpt lat="46.09294" lon="4.43534">
        <ele>774</ele>
        <time>2025-10-04T10:42:19Z</time>
      </trkpt>
      <trkpt lat="46.09296" lon="4.43532">
        <ele>774</ele>
        <time>2025-10-04T10:42:20Z</time>
      </trkpt>
      <trkpt lat="46.09297" lon="4.4353">
        <ele>774</ele>
        <time>2025-10-04T10:42:21Z</time>
      </trkpt>
      <trkpt lat="46.09299" lon="4.43527">
        <ele>774.4</ele>
        <time>2025-10-04T10:42:22Z</time>
      </trkpt>
      <trkpt lat="46.09301" lon="4.43525">
        <ele>774.4</ele>
        <time>2025-10-04T10:42:23Z</time>
      </trkpt>
      <trkpt lat="46.09303" lon="4.43524">
        <ele>774.6</ele>
        <time>2025-10-04T10:42:24Z</time>
      </trkpt>
      <trkpt lat="46.09305" lon="4.43521">
        <ele>775</ele>
        <time>2025-10-04T10:42:25Z</time>
      </trkpt>
      <trkpt lat="46.09307" lon="4.43518">
        <ele>775</ele>
        <time>2025-10-04T10:42:26Z</time>
      </trkpt>
      <trkpt lat="46.09308" lon="4.43515">
        <ele>775</ele>
        <time>2025-10-04T10:42:27Z</time>
      </trkpt>
      <trkpt lat="46.0931" lon="4.43513">
        <ele>775</ele>
        <time>2025-10-04T10:42:28Z</time>
      </trkpt>
      <trkpt lat="46.09313" lon="4.4351">
        <ele>775</ele>
        <time>2025-10-04T10:42:29Z</time>
      </trkpt>
      <trkpt lat="46.09315" lon="4.43506">
        <ele>775.2</ele>
        <time>2025-10-04T10:42:30Z</time>
      </trkpt>
      <trkpt lat="46.09317" lon="4.43503">
        <ele>775.2</ele>
        <time>2025-10-04T10:42:31Z</time>
      </trkpt>
      <trkpt lat="46.09318" lon="4.435">
        <ele>775.2</ele>
        <time>2025-10-04T10:42:32Z</time>
      </trkpt>
      <trkpt lat="46.0932" lon="4.43496">
        <ele>775.2</ele>
        <time>2025-10-04T10:42:33Z</time>
      </trkpt>
      <trkpt lat="46.09322" lon="4.43492">
        <ele>775.2</ele>
        <time>2025-10-04T10:42:34Z</time>
      </trkpt>
      <trkpt lat="46.09325" lon="4.43488">
        <ele>775.2</ele>
        <time>2025-10-04T10:42:35Z</time>
      </trkpt>
      <trkpt lat="46.09327" lon="4.43484">
        <ele>775.4</ele>
        <time>2025-10-04T10:42:36Z</time>
      </trkpt>
      <trkpt lat="46.0933" lon="4.4348">
        <ele>775.4</ele>
        <time>2025-10-04T10:42:37Z</time>
      </trkpt>
      <trkpt lat="46.09333" lon="4.43477">
        <ele>775.2</ele>
        <time>2025-10-04T10:42:38Z</time>
      </trkpt>
      <trkpt lat="46.09335" lon="4.43474">
        <ele>775.2</ele>
        <time>2025-10-04T10:42:39Z</time>
      </trkpt>
      <trkpt lat="46.09338" lon="4.43471">
        <ele>775.2</ele>
        <time>2025-10-04T10:42:40Z</time>
      </trkpt>
      <trkpt lat="46.0934" lon="4.43467">
        <ele>775.4</ele>
        <time>2025-10-04T10:42:41Z</time>
      </trkpt>
      <trkpt lat="46.09342" lon="4.43464">
        <ele>775.4</ele>
        <time>2025-10-04T10:42:42Z</time>
      </trkpt>
      <trkpt lat="46.09345" lon="4.43461">
        <ele>775.8</ele>
        <time>2025-10-04T10:42:43Z</time>
      </trkpt>
      <trkpt lat="46.09348" lon="4.43459">
        <ele>775.8</ele>
        <time>2025-10-04T10:42:44Z</time>
      </trkpt>
      <trkpt lat="46.09351" lon="4.43456">
        <ele>776</ele>
        <time>2025-10-04T10:42:45Z</time>
      </trkpt>
      <trkpt lat="46.09354" lon="4.43453">
        <ele>776</ele>
        <time>2025-10-04T10:42:46Z</time>
      </trkpt>
      <trkpt lat="46.09357" lon="4.43449">
        <ele>776</ele>
        <time>2025-10-04T10:42:47Z</time>
      </trkpt>
      <trkpt lat="46.0936" lon="4.43445">
        <ele>776</ele>
        <time>2025-10-04T10:42:48Z</time>
      </trkpt>
      <trkpt lat="46.09363" lon="4.4344">
        <ele>776.2</ele>
        <time>2025-10-04T10:42:49Z</time>
      </trkpt>
      <trkpt lat="46.09366" lon="4.43436">
        <ele>776.2</ele>
        <time>2025-10-04T10:42:50Z</time>
      </trkpt>
      <trkpt lat="46.09369" lon="4.43432">
        <ele>776.2</ele>
        <time>2025-10-04T10:42:51Z</time>
      </trkpt>
      <trkpt lat="46.09373" lon="4.43428">
        <ele>776.2</ele>
        <time>2025-10-04T10:42:52Z</time>
      </trkpt>
      <trkpt lat="46.09376" lon="4.43425">
        <ele>776.4</ele>
        <time>2025-10-04T10:42:53Z</time>
      </trkpt>
      <trkpt lat="46.09379" lon="4.43421">
        <ele>776.4</ele>
        <time>2025-10-04T10:42:54Z</time>
      </trkpt>
      <trkpt lat="46.09382" lon="4.43418">
        <ele>776.4</ele>
        <time>2025-10-04T10:42:55Z</time>
      </trkpt>
      <trkpt lat="46.09385" lon="4.43416">
        <ele>776.8</ele>
        <time>2025-10-04T10:42:56Z</time>
      </trkpt>
      <trkpt lat="46.09389" lon="4.43412">
        <ele>777</ele>
        <time>2025-10-04T10:42:57Z</time>
      </trkpt>
      <trkpt lat="46.09393" lon="4.43408">
        <ele>777</ele>
        <time>2025-10-04T10:42:58Z</time>
      </trkpt>
      <trkpt lat="46.09396" lon="4.43404">
        <ele>777.2</ele>
        <time>2025-10-04T10:42:59Z</time>
      </trkpt>
      <trkpt lat="46.09399" lon="4.43402">
        <ele>777.6</ele>
        <time>2025-10-04T10:43:00Z</time>
      </trkpt>
      <trkpt lat="46.09402" lon="4.43399">
        <ele>777.8</ele>
        <time>2025-10-04T10:43:01Z</time>
      </trkpt>
      <trkpt lat="46.09406" lon="4.43396">
        <ele>777.8</ele>
        <time>2025-10-04T10:43:02Z</time>
      </trkpt>
      <trkpt lat="46.09409" lon="4.43391">
        <ele>778</ele>
        <time>2025-10-04T10:43:03Z</time>
      </trkpt>
      <trkpt lat="46.09412" lon="4.43386">
        <ele>778</ele>
        <time>2025-10-04T10:43:04Z</time>
      </trkpt>
      <trkpt lat="46.09417" lon="4.43388">
        <ele>778</ele>
        <time>2025-10-04T10:43:05Z</time>
      </trkpt>
      <trkpt lat="46.09419" lon="4.43385">
        <ele>778</ele>
        <time>2025-10-04T10:43:06Z</time>
      </trkpt>
      <trkpt lat="46.09423" lon="4.4338">
        <ele>778</ele>
        <time>2025-10-04T10:43:07Z</time>
      </trkpt>
      <trkpt lat="46.09427" lon="4.43377">
        <ele>778</ele>
        <time>2025-10-04T10:43:08Z</time>
      </trkpt>
      <trkpt lat="46.09431" lon="4.43375">
        <ele>778.6</ele>
        <time>2025-10-04T10:43:09Z</time>
      </trkpt>
      <trkpt lat="46.09435" lon="4.43373">
        <ele>778.6</ele>
        <time>2025-10-04T10:43:10Z</time>
      </trkpt>
      <trkpt lat="46.09438" lon="4.43375">
        <ele>778.8</ele>
        <time>2025-10-04T10:43:11Z</time>
      </trkpt>
      <trkpt lat="46.09441" lon="4.43372">
        <ele>779.2</ele>
        <time>2025-10-04T10:43:12Z</time>
      </trkpt>
      <trkpt lat="46.09443" lon="4.43371">
        <ele>779.2</ele>
        <time>2025-10-04T10:43:13Z</time>
      </trkpt>
      <trkpt lat="46.09446" lon="4.4337">
        <ele>779.6</ele>
        <time>2025-10-04T10:43:14Z</time>
      </trkpt>
      <trkpt lat="46.09449" lon="4.43369">
        <ele>779.6</ele>
        <time>2025-10-04T10:43:15Z</time>
      </trkpt>
      <trkpt lat="46.09452" lon="4.43368">
        <ele>779.8</ele>
        <time>2025-10-04T10:43:16Z</time>
      </trkpt>
      <trkpt lat="46.09455" lon="4.43366">
        <ele>779.8</ele>
        <time>2025-10-04T10:43:17Z</time>
      </trkpt>
      <trkpt lat="46.09458" lon="4.43364">
        <ele>779.8</ele>
        <time>2025-10-04T10:43:18Z</time>
      </trkpt>
      <trkpt lat="46.09461" lon="4.43362">
        <ele>780</ele>
        <time>2025-10-04T10:43:19Z</time>
      </trkpt>
      <trkpt lat="46.09464" lon="4.43361">
        <ele>780</ele>
        <time>2025-10-04T10:43:20Z</time>
      </trkpt>
      <trkpt lat="46.09467" lon="4.43359">
        <ele>780</ele>
        <time>2025-10-04T10:43:21Z</time>
      </trkpt>
      <trkpt lat="46.0947" lon="4.43358">
        <ele>780.4</ele>
        <time>2025-10-04T10:43:22Z</time>
      </trkpt>
      <trkpt lat="46.09472" lon="4.43356">
        <ele>780.4</ele>
        <time>2025-10-04T10:43:23Z</time>
      </trkpt>
      <trkpt lat="46.09475" lon="4.43355">
        <ele>780.4</ele>
        <time>2025-10-04T10:43:24Z</time>
      </trkpt>
      <trkpt lat="46.09478" lon="4.43354">
        <ele>780.6</ele>
        <time>2025-10-04T10:43:25Z</time>
      </trkpt>
      <trkpt lat="46.09481" lon="4.43352">
        <ele>780.6</ele>
        <time>2025-10-04T10:43:26Z</time>
      </trkpt>
      <trkpt lat="46.09484" lon="4.43351">
        <ele>780.8</ele>
        <time>2025-10-04T10:43:27Z</time>
      </trkpt>
      <trkpt lat="46.09487" lon="4.4335">
        <ele>780.8</ele>
        <time>2025-10-04T10:43:28Z</time>
      </trkpt>
      <trkpt lat="46.09491" lon="4.43348">
        <ele>781.2</ele>
        <time>2025-10-04T10:43:29Z</time>
      </trkpt>
      <trkpt lat="46.09493" lon="4.43347">
        <ele>781.4</ele>
        <time>2025-10-04T10:43:30Z</time>
      </trkpt>
      <trkpt lat="46.09496" lon="4.43345">
        <ele>781.4</ele>
        <time>2025-10-04T10:43:31Z</time>
      </trkpt>
      <trkpt lat="46.09499" lon="4.43343">
        <ele>781.4</ele>
        <time>2025-10-04T10:43:32Z</time>
      </trkpt>
      <trkpt lat="46.09502" lon="4.43342">
        <ele>781.6</ele>
        <time>2025-10-04T10:43:33Z</time>
      </trkpt>
      <trkpt lat="46.09504" lon="4.4334">
        <ele>781.6</ele>
        <time>2025-10-04T10:43:34Z</time>
      </trkpt>
      <trkpt lat="46.09507" lon="4.43339">
        <ele>781.6</ele>
        <time>2025-10-04T10:43:35Z</time>
      </trkpt>
      <trkpt lat="46.0951" lon="4.43337">
        <ele>781.8</ele>
        <time>2025-10-04T10:43:36Z</time>
      </trkpt>
      <trkpt lat="46.09514" lon="4.43336">
        <ele>781.8</ele>
        <time>2025-10-04T10:43:37Z</time>
      </trkpt>
      <trkpt lat="46.09517" lon="4.43335">
        <ele>782</ele>
        <time>2025-10-04T10:43:38Z</time>
      </trkpt>
      <trkpt lat="46.0952" lon="4.43335">
        <ele>782</ele>
        <time>2025-10-04T10:43:39Z</time>
      </trkpt>
      <trkpt lat="46.09523" lon="4.43334">
        <ele>782.2</ele>
        <time>2025-10-04T10:43:40Z</time>
      </trkpt>
      <trkpt lat="46.09526" lon="4.43333">
        <ele>782.2</ele>
        <time>2025-10-04T10:43:41Z</time>
      </trkpt>
      <trkpt lat="46.09529" lon="4.43333">
        <ele>782.2</ele>
        <time>2025-10-04T10:43:42Z</time>
      </trkpt>
      <trkpt lat="46.09532" lon="4.43333">
        <ele>782.6</ele>
        <time>2025-10-04T10:43:43Z</time>
      </trkpt>
      <trkpt lat="46.09534" lon="4.43332">
        <ele>782.6</ele>
        <time>2025-10-04T10:43:44Z</time>
      </trkpt>
      <trkpt lat="46.09537" lon="4.43332">
        <ele>782.8</ele>
        <time>2025-10-04T10:43:45Z</time>
      </trkpt>
      <trkpt lat="46.09539" lon="4.43332">
        <ele>782.8</ele>
        <time>2025-10-04T10:43:46Z</time>
      </trkpt>
      <trkpt lat="46.09541" lon="4.43331">
        <ele>783</ele>
        <time>2025-10-04T10:43:47Z</time>
      </trkpt>
      <trkpt lat="46.09543" lon="4.43331">
        <ele>783</ele>
        <time>2025-10-04T10:43:48Z</time>
      </trkpt>
      <trkpt lat="46.09545" lon="4.43331">
        <ele>783.4</ele>
        <time>2025-10-04T10:43:49Z</time>
      </trkpt>
      <trkpt lat="46.09547" lon="4.4333">
        <ele>783.4</ele>
        <time>2025-10-04T10:43:50Z</time>
      </trkpt>
      <trkpt lat="46.0955" lon="4.4333">
        <ele>783.4</ele>
        <time>2025-10-04T10:43:51Z</time>
      </trkpt>
      <trkpt lat="46.09552" lon="4.43329">
        <ele>783.6</ele>
        <time>2025-10-04T10:43:52Z</time>
      </trkpt>
      <trkpt lat="46.09554" lon="4.43329">
        <ele>783.6</ele>
        <time>2025-10-04T10:43:53Z</time>
      </trkpt>
      <trkpt lat="46.09556" lon="4.43328">
        <ele>783.8</ele>
        <time>2025-10-04T10:43:54Z</time>
      </trkpt>
      <trkpt lat="46.09558" lon="4.43327">
        <ele>783.8</ele>
        <time>2025-10-04T10:43:55Z</time>
      </trkpt>
      <trkpt lat="46.0956" lon="4.43326">
        <ele>784.2</ele>
        <time>2025-10-04T10:43:56Z</time>
      </trkpt>
      <trkpt lat="46.09562" lon="4.43325">
        <ele>784.2</ele>
        <time>2025-10-04T10:43:57Z</time>
      </trkpt>
      <trkpt lat="46.09564" lon="4.43325">
        <ele>784.6</ele>
        <time>2025-10-04T10:43:58Z</time>
      </trkpt>
      <trkpt lat="46.09566" lon="4.43324">
        <ele>784.6</ele>
        <time>2025-10-04T10:43:59Z</time>
      </trkpt>
      <trkpt lat="46.09567" lon="4.43323">
        <ele>784.8</ele>
        <time>2025-10-04T10:44:00Z</time>
      </trkpt>
      <trkpt lat="46.09569" lon="4.43323">
        <ele>784.8</ele>
        <time>2025-10-04T10:44:01Z</time>
      </trkpt>
      <trkpt lat="46.09571" lon="4.43322">
        <ele>785</ele>
        <time>2025-10-04T10:44:02Z</time>
      </trkpt>
      <trkpt lat="46.09574" lon="4.43321">
        <ele>785</ele>
        <time>2025-10-04T10:44:03Z</time>
      </trkpt>
      <trkpt lat="46.09576" lon="4.4332">
        <ele>785.4</ele>
        <time>2025-10-04T10:44:04Z</time>
      </trkpt>
      <trkpt lat="46.09577" lon="4.43319">
        <ele>785.4</ele>
        <time>2025-10-04T10:44:05Z</time>
      </trkpt>
      <trkpt lat="46.09579" lon="4.43318">
        <ele>785.6</ele>
        <time>2025-10-04T10:44:06Z</time>
      </trkpt>
      <trkpt lat="46.09582" lon="4.43318">
        <ele>785.6</ele>
        <time>2025-10-04T10:44:07Z</time>
      </trkpt>
      <trkpt lat="46.09584" lon="4.43317">
        <ele>785.6</ele>
        <time>2025-10-04T10:44:08Z</time>
      </trkpt>
      <trkpt lat="46.09586" lon="4.43316">
        <ele>786</ele>
        <time>2025-10-04T10:44:09Z</time>
      </trkpt>
      <trkpt lat="46.09588" lon="4.43314">
        <ele>786</ele>
        <time>2025-10-04T10:44:10Z</time>
      </trkpt>
      <trkpt lat="46.0959" lon="4.43313">
        <ele>786</ele>
        <time>2025-10-04T10:44:11Z</time>
      </trkpt>
      <trkpt lat="46.09592" lon="4.43311">
        <ele>785.6</ele>
        <time>2025-10-04T10:44:12Z</time>
      </trkpt>
      <trkpt lat="46.09593" lon="4.4331">
        <ele>785.6</ele>
        <time>2025-10-04T10:44:13Z</time>
      </trkpt>
      <trkpt lat="46.09595" lon="4.43308">
        <ele>786.2</ele>
        <time>2025-10-04T10:44:14Z</time>
      </trkpt>
      <trkpt lat="46.09597" lon="4.43307">
        <ele>786.6</ele>
        <time>2025-10-04T10:44:15Z</time>
      </trkpt>
      <trkpt lat="46.09599" lon="4.43305">
        <ele>786.8</ele>
        <time>2025-10-04T10:44:16Z</time>
      </trkpt>
      <trkpt lat="46.09601" lon="4.43304">
        <ele>786.8</ele>
        <time>2025-10-04T10:44:17Z</time>
      </trkpt>
      <trkpt lat="46.09604" lon="4.43302">
        <ele>787</ele>
        <time>2025-10-04T10:44:18Z</time>
      </trkpt>
      <trkpt lat="46.09606" lon="4.433">
        <ele>787.4</ele>
        <time>2025-10-04T10:44:19Z</time>
      </trkpt>
      <trkpt lat="46.09608" lon="4.43298">
        <ele>787.6</ele>
        <time>2025-10-04T10:44:20Z</time>
      </trkpt>
      <trkpt lat="46.0961" lon="4.43297">
        <ele>787.6</ele>
        <time>2025-10-04T10:44:21Z</time>
      </trkpt>
      <trkpt lat="46.09611" lon="4.43295">
        <ele>787.8</ele>
        <time>2025-10-04T10:44:22Z</time>
      </trkpt>
      <trkpt lat="46.09613" lon="4.43294">
        <ele>787.8</ele>
        <time>2025-10-04T10:44:23Z</time>
      </trkpt>
      <trkpt lat="46.09615" lon="4.43293">
        <ele>788.2</ele>
        <time>2025-10-04T10:44:24Z</time>
      </trkpt>
      <trkpt lat="46.09617" lon="4.43291">
        <ele>788.2</ele>
        <time>2025-10-04T10:44:25Z</time>
      </trkpt>
      <trkpt lat="46.09619" lon="4.4329">
        <ele>788.4</ele>
        <time>2025-10-04T10:44:26Z</time>
      </trkpt>
      <trkpt lat="46.09621" lon="4.43289">
        <ele>788.4</ele>
        <time>2025-10-04T10:44:27Z</time>
      </trkpt>
      <trkpt lat="46.09623" lon="4.43288">
        <ele>788.4</ele>
        <time>2025-10-04T10:44:28Z</time>
      </trkpt>
      <trkpt lat="46.09624" lon="4.43287">
        <ele>788.4</ele>
        <time>2025-10-04T10:44:29Z</time>
      </trkpt>
      <trkpt lat="46.09626" lon="4.43286">
        <ele>788.8</ele>
        <time>2025-10-04T10:44:30Z</time>
      </trkpt>
      <trkpt lat="46.09628" lon="4.43285">
        <ele>789.2</ele>
        <time>2025-10-04T10:44:31Z</time>
      </trkpt>
      <trkpt lat="46.0963" lon="4.43284">
        <ele>789.4</ele>
        <time>2025-10-04T10:44:32Z</time>
      </trkpt>
      <trkpt lat="46.09632" lon="4.43284">
        <ele>789.8</ele>
        <time>2025-10-04T10:44:33Z</time>
      </trkpt>
      <trkpt lat="46.09634" lon="4.43283">
        <ele>790</ele>
        <time>2025-10-04T10:44:34Z</time>
      </trkpt>
      <trkpt lat="46.09636" lon="4.43283">
        <ele>790.4</ele>
        <time>2025-10-04T10:44:35Z</time>
      </trkpt>
      <trkpt lat="46.09638" lon="4.43283">
        <ele>790.6</ele>
        <time>2025-10-04T10:44:36Z</time>
      </trkpt>
      <trkpt lat="46.09639" lon="4.43283">
        <ele>790.6</ele>
        <time>2025-10-04T10:44:37Z</time>
      </trkpt>
      <trkpt lat="46.09641" lon="4.43283">
        <ele>790.8</ele>
        <time>2025-10-04T10:44:38Z</time>
      </trkpt>
      <trkpt lat="46.09641" lon="4.43283">
        <ele>790.8</ele>
        <time>2025-10-04T10:44:39Z</time>
      </trkpt>
      <trkpt lat="46.09643" lon="4.43283">
        <ele>790.8</ele>
        <time>2025-10-04T10:44:40Z</time>
      </trkpt>
      <trkpt lat="46.09644" lon="4.43282">
        <ele>790.8</ele>
        <time>2025-10-04T10:44:41Z</time>
      </trkpt>
      <trkpt lat="46.09646" lon="4.43282">
        <ele>791.2</ele>
        <time>2025-10-04T10:44:42Z</time>
      </trkpt>
      <trkpt lat="46.09648" lon="4.43282">
        <ele>791.2</ele>
        <time>2025-10-04T10:44:43Z</time>
      </trkpt>
      <trkpt lat="46.0965" lon="4.43282">
        <ele>791.8</ele>
        <time>2025-10-04T10:44:44Z</time>
      </trkpt>
      <trkpt lat="46.09651" lon="4.43282">
        <ele>792</ele>
        <time>2025-10-04T10:44:45Z</time>
      </trkpt>
      <trkpt lat="46.09653" lon="4.43282">
        <ele>792.2</ele>
        <time>2025-10-04T10:44:46Z</time>
      </trkpt>
      <trkpt lat="46.09655" lon="4.43282">
        <ele>792.4</ele>
        <time>2025-10-04T10:44:47Z</time>
      </trkpt>
      <trkpt lat="46.09657" lon="4.43282">
        <ele>792.4</ele>
        <time>2025-10-04T10:44:48Z</time>
      </trkpt>
      <trkpt lat="46.09658" lon="4.43281">
        <ele>792.8</ele>
        <time>2025-10-04T10:44:49Z</time>
      </trkpt>
      <trkpt lat="46.0966" lon="4.43281">
        <ele>792.8</ele>
        <time>2025-10-04T10:44:50Z</time>
      </trkpt>
      <trkpt lat="46.09662" lon="4.43281">
        <ele>793</ele>
        <time>2025-10-04T10:44:51Z</time>
      </trkpt>
      <trkpt lat="46.09664" lon="4.43281">
        <ele>793</ele>
        <time>2025-10-04T10:44:52Z</time>
      </trkpt>
      <trkpt lat="46.09665" lon="4.43281">
        <ele>793</ele>
        <time>2025-10-04T10:44:53Z</time>
      </trkpt>
      <trkpt lat="46.09667" lon="4.43281">
        <ele>793.4</ele>
        <time>2025-10-04T10:44:54Z</time>
      </trkpt>
      <trkpt lat="46.09668" lon="4.43281">
        <ele>793.4</ele>
        <time>2025-10-04T10:44:55Z</time>
      </trkpt>
      <trkpt lat="46.0967" lon="4.4328">
        <ele>793.8</ele>
        <time>2025-10-04T10:44:56Z</time>
      </trkpt>
      <trkpt lat="46.09671" lon="4.4328">
        <ele>793.8</ele>
        <time>2025-10-04T10:44:57Z</time>
      </trkpt>
      <trkpt lat="46.09673" lon="4.4328">
        <ele>794</ele>
        <time>2025-10-04T10:44:58Z</time>
      </trkpt>
      <trkpt lat="46.09674" lon="4.43279">
        <ele>794.2</ele>
        <time>2025-10-04T10:44:59Z</time>
      </trkpt>
      <trkpt lat="46.09676" lon="4.43279">
        <ele>794.2</ele>
        <time>2025-10-04T10:45:00Z</time>
      </trkpt>
      <trkpt lat="46.09678" lon="4.43279">
        <ele>794.6</ele>
        <time>2025-10-04T10:45:01Z</time>
      </trkpt>
      <trkpt lat="46.09679" lon="4.43279">
        <ele>795</ele>
        <time>2025-10-04T10:45:02Z</time>
      </trkpt>
      <trkpt lat="46.09681" lon="4.43279">
        <ele>795</ele>
        <time>2025-10-04T10:45:03Z</time>
      </trkpt>
      <trkpt lat="46.09682" lon="4.43279">
        <ele>795</ele>
        <time>2025-10-04T10:45:04Z</time>
      </trkpt>
      <trkpt lat="46.09683" lon="4.43279">
        <ele>795</ele>
        <time>2025-10-04T10:45:05Z</time>
      </trkpt>
      <trkpt lat="46.09685" lon="4.43279">
        <ele>795.2</ele>
        <time>2025-10-04T10:45:06Z</time>
      </trkpt>
      <trkpt lat="46.09686" lon="4.43279">
        <ele>795.2</ele>
        <time>2025-10-04T10:45:07Z</time>
      </trkpt>
      <trkpt lat="46.09688" lon="4.43279">
        <ele>795.6</ele>
        <time>2025-10-04T10:45:08Z</time>
      </trkpt>
      <trkpt lat="46.09689" lon="4.43278">
        <ele>795.6</ele>
        <time>2025-10-04T10:45:09Z</time>
      </trkpt>
      <trkpt lat="46.09691" lon="4.43279">
        <ele>795.6</ele>
        <time>2025-10-04T10:45:10Z</time>
      </trkpt>
      <trkpt lat="46.09692" lon="4.43279">
        <ele>796</ele>
        <time>2025-10-04T10:45:11Z</time>
      </trkpt>
      <trkpt lat="46.09694" lon="4.43279">
        <ele>796</ele>
        <time>2025-10-04T10:45:12Z</time>
      </trkpt>
      <trkpt lat="46.09695" lon="4.43279">
        <ele>796.2</ele>
        <time>2025-10-04T10:45:13Z</time>
      </trkpt>
      <trkpt lat="46.09697" lon="4.43279">
        <ele>796.6</ele>
        <time>2025-10-04T10:45:14Z</time>
      </trkpt>
      <trkpt lat="46.09698" lon="4.43279">
        <ele>796.6</ele>
        <time>2025-10-04T10:45:15Z</time>
      </trkpt>
      <trkpt lat="46.097" lon="4.4328">
        <ele>796.6</ele>
        <time>2025-10-04T10:45:16Z</time>
      </trkpt>
      <trkpt lat="46.09703" lon="4.43281">
        <ele>796.8</ele>
        <time>2025-10-04T10:45:17Z</time>
      </trkpt>
      <trkpt lat="46.09704" lon="4.43282">
        <ele>797.4</ele>
        <time>2025-10-04T10:45:18Z</time>
      </trkpt>
      <trkpt lat="46.09705" lon="4.43283">
        <ele>797.4</ele>
        <time>2025-10-04T10:45:19Z</time>
      </trkpt>
      <trkpt lat="46.09707" lon="4.43283">
        <ele>797.8</ele>
        <time>2025-10-04T10:45:20Z</time>
      </trkpt>
      <trkpt lat="46.09708" lon="4.43283">
        <ele>797.8</ele>
        <time>2025-10-04T10:45:21Z</time>
      </trkpt>
      <trkpt lat="46.0971" lon="4.43283">
        <ele>798.2</ele>
        <time>2025-10-04T10:45:22Z</time>
      </trkpt>
      <trkpt lat="46.09712" lon="4.43283">
        <ele>798.6</ele>
        <time>2025-10-04T10:45:23Z</time>
      </trkpt>
      <trkpt lat="46.09713" lon="4.43283">
        <ele>798.8</ele>
        <time>2025-10-04T10:45:24Z</time>
      </trkpt>
      <trkpt lat="46.09715" lon="4.43283">
        <ele>798.8</ele>
        <time>2025-10-04T10:45:25Z</time>
      </trkpt>
      <trkpt lat="46.09716" lon="4.43284">
        <ele>799.2</ele>
        <time>2025-10-04T10:45:26Z</time>
      </trkpt>
      <trkpt lat="46.09718" lon="4.43284">
        <ele>799.2</ele>
        <time>2025-10-04T10:45:27Z</time>
      </trkpt>
      <trkpt lat="46.09719" lon="4.43284">
        <ele>799.4</ele>
        <time>2025-10-04T10:45:28Z</time>
      </trkpt>
      <trkpt lat="46.09721" lon="4.43284">
        <ele>799.4</ele>
        <time>2025-10-04T10:45:29Z</time>
      </trkpt>
      <trkpt lat="46.09722" lon="4.43284">
        <ele>799.8</ele>
        <time>2025-10-04T10:45:30Z</time>
      </trkpt>
      <trkpt lat="46.09723" lon="4.43284">
        <ele>799.8</ele>
        <time>2025-10-04T10:45:31Z</time>
      </trkpt>
      <trkpt lat="46.09725" lon="4.43285">
        <ele>800.2</ele>
        <time>2025-10-04T10:45:32Z</time>
      </trkpt>
      <trkpt lat="46.09726" lon="4.43285">
        <ele>800.2</ele>
        <time>2025-10-04T10:45:33Z</time>
      </trkpt>
      <trkpt lat="46.09727" lon="4.43285">
        <ele>800.4</ele>
        <time>2025-10-04T10:45:34Z</time>
      </trkpt>
      <trkpt lat="46.09729" lon="4.43286">
        <ele>800.8</ele>
        <time>2025-10-04T10:45:35Z</time>
      </trkpt>
      <trkpt lat="46.0973" lon="4.43287">
        <ele>800.8</ele>
        <time>2025-10-04T10:45:36Z</time>
      </trkpt>
      <trkpt lat="46.09731" lon="4.43287">
        <ele>801</ele>
        <time>2025-10-04T10:45:37Z</time>
      </trkpt>
      <trkpt lat="46.09732" lon="4.43288">
        <ele>801.2</ele>
        <time>2025-10-04T10:45:38Z</time>
      </trkpt>
      <trkpt lat="46.09734" lon="4.43288">
        <ele>801.2</ele>
        <time>2025-10-04T10:45:39Z</time>
      </trkpt>
      <trkpt lat="46.09735" lon="4.43289">
        <ele>801.2</ele>
        <time>2025-10-04T10:45:40Z</time>
      </trkpt>
      <trkpt lat="46.09736" lon="4.43289">
        <ele>801.6</ele>
        <time>2025-10-04T10:45:41Z</time>
      </trkpt>
      <trkpt lat="46.09738" lon="4.43289">
        <ele>801.8</ele>
        <time>2025-10-04T10:45:42Z</time>
      </trkpt>
      <trkpt lat="46.09739" lon="4.4329">
        <ele>801.8</ele>
        <time>2025-10-04T10:45:43Z</time>
      </trkpt>
      <trkpt lat="46.0974" lon="4.4329">
        <ele>802.2</ele>
        <time>2025-10-04T10:45:44Z</time>
      </trkpt>
      <trkpt lat="46.09741" lon="4.4329">
        <ele>802.2</ele>
        <time>2025-10-04T10:45:45Z</time>
      </trkpt>
      <trkpt lat="46.09743" lon="4.43291">
        <ele>802.2</ele>
        <time>2025-10-04T10:45:46Z</time>
      </trkpt>
      <trkpt lat="46.09744" lon="4.43291">
        <ele>802.4</ele>
        <time>2025-10-04T10:45:47Z</time>
      </trkpt>
      <trkpt lat="46.09745" lon="4.43292">
        <ele>802.4</ele>
        <time>2025-10-04T10:45:48Z</time>
      </trkpt>
      <trkpt lat="46.09746" lon="4.43292">
        <ele>802.8</ele>
        <time>2025-10-04T10:45:49Z</time>
      </trkpt>
      <trkpt lat="46.09747" lon="4.43293">
        <ele>803</ele>
        <time>2025-10-04T10:45:50Z</time>
      </trkpt>
      <trkpt lat="46.09748" lon="4.43293">
        <ele>803.2</ele>
        <time>2025-10-04T10:45:51Z</time>
      </trkpt>
      <trkpt lat="46.0975" lon="4.43293">
        <ele>803.4</ele>
        <time>2025-10-04T10:45:52Z</time>
      </trkpt>
      <trkpt lat="46.09751" lon="4.43294">
        <ele>803.4</ele>
        <time>2025-10-04T10:45:53Z</time>
      </trkpt>
      <trkpt lat="46.09752" lon="4.43294">
        <ele>803.8</ele>
        <time>2025-10-04T10:45:54Z</time>
      </trkpt>
      <trkpt lat="46.09754" lon="4.43295">
        <ele>804</ele>
        <time>2025-10-04T10:45:55Z</time>
      </trkpt>
      <trkpt lat="46.09755" lon="4.43295">
        <ele>804.4</ele>
        <time>2025-10-04T10:45:56Z</time>
      </trkpt>
      <trkpt lat="46.09756" lon="4.43295">
        <ele>804.6</ele>
        <time>2025-10-04T10:45:57Z</time>
      </trkpt>
      <trkpt lat="46.09758" lon="4.43295">
        <ele>804.8</ele>
        <time>2025-10-04T10:45:58Z</time>
      </trkpt>
      <trkpt lat="46.09759" lon="4.43295">
        <ele>804.8</ele>
        <time>2025-10-04T10:45:59Z</time>
      </trkpt>
      <trkpt lat="46.0976" lon="4.43296">
        <ele>805.2</ele>
        <time>2025-10-04T10:46:00Z</time>
      </trkpt>
      <trkpt lat="46.09761" lon="4.43296">
        <ele>805.2</ele>
        <time>2025-10-04T10:46:01Z</time>
      </trkpt>
      <trkpt lat="46.09762" lon="4.43297">
        <ele>805.6</ele>
        <time>2025-10-04T10:46:02Z</time>
      </trkpt>
      <trkpt lat="46.09763" lon="4.43298">
        <ele>805.6</ele>
        <time>2025-10-04T10:46:03Z</time>
      </trkpt>
      <trkpt lat="46.09764" lon="4.43299">
        <ele>805.8</ele>
        <time>2025-10-04T10:46:04Z</time>
      </trkpt>
      <trkpt lat="46.09765" lon="4.433">
        <ele>805.8</ele>
        <time>2025-10-04T10:46:05Z</time>
      </trkpt>
      <trkpt lat="46.09766" lon="4.43301">
        <ele>806.2</ele>
        <time>2025-10-04T10:46:06Z</time>
      </trkpt>
      <trkpt lat="46.09768" lon="4.43301">
        <ele>806.2</ele>
        <time>2025-10-04T10:46:07Z</time>
      </trkpt>
      <trkpt lat="46.09769" lon="4.43302">
        <ele>806.6</ele>
        <time>2025-10-04T10:46:08Z</time>
      </trkpt>
      <trkpt lat="46.0977" lon="4.43302">
        <ele>806.8</ele>
        <time>2025-10-04T10:46:09Z</time>
      </trkpt>
      <trkpt lat="46.09771" lon="4.43302">
        <ele>806.8</ele>
        <time>2025-10-04T10:46:10Z</time>
      </trkpt>
      <trkpt lat="46.09773" lon="4.43303">
        <ele>807.2</ele>
        <time>2025-10-04T10:46:11Z</time>
      </trkpt>
      <trkpt lat="46.09775" lon="4.43303">
        <ele>807.4</ele>
        <time>2025-10-04T10:46:12Z</time>
      </trkpt>
      <trkpt lat="46.09776" lon="4.43303">
        <ele>807.4</ele>
        <time>2025-10-04T10:46:13Z</time>
      </trkpt>
      <trkpt lat="46.09777" lon="4.43304">
        <ele>807.8</ele>
        <time>2025-10-04T10:46:14Z</time>
      </trkpt>
      <trkpt lat="46.09778" lon="4.43304">
        <ele>808</ele>
        <time>2025-10-04T10:46:15Z</time>
      </trkpt>
      <trkpt lat="46.09779" lon="4.43303">
        <ele>808.2</ele>
        <time>2025-10-04T10:46:16Z</time>
      </trkpt>
      <trkpt lat="46.0978" lon="4.43303">
        <ele>808.4</ele>
        <time>2025-10-04T10:46:17Z</time>
      </trkpt>
      <trkpt lat="46.09782" lon="4.43303">
        <ele>809</ele>
        <time>2025-10-04T10:46:18Z</time>
      </trkpt>
      <trkpt lat="46.09783" lon="4.43303">
        <ele>809.4</ele>
        <time>2025-10-04T10:46:19Z</time>
      </trkpt>
      <trkpt lat="46.09785" lon="4.43303">
        <ele>809.6</ele>
        <time>2025-10-04T10:46:20Z</time>
      </trkpt>
      <trkpt lat="46.09786" lon="4.43303">
        <ele>810</ele>
        <time>2025-10-04T10:46:21Z</time>
      </trkpt>
      <trkpt lat="46.09787" lon="4.43303">
        <ele>810</ele>
        <time>2025-10-04T10:46:22Z</time>
      </trkpt>
      <trkpt lat="46.09788" lon="4.43303">
        <ele>810.4</ele>
        <time>2025-10-04T10:46:23Z</time>
      </trkpt>
      <trkpt lat="46.09789" lon="4.43302">
        <ele>810.4</ele>
        <time>2025-10-04T10:46:24Z</time>
      </trkpt>
      <trkpt lat="46.0979" lon="4.43302">
        <ele>810.8</ele>
        <time>2025-10-04T10:46:25Z</time>
      </trkpt>
      <trkpt lat="46.09791" lon="4.43303">
        <ele>810.8</ele>
        <time>2025-10-04T10:46:26Z</time>
      </trkpt>
      <trkpt lat="46.09793" lon="4.43303">
        <ele>810.8</ele>
        <time>2025-10-04T10:46:27Z</time>
      </trkpt>
      <trkpt lat="46.09794" lon="4.43302">
        <ele>811</ele>
        <time>2025-10-04T10:46:28Z</time>
      </trkpt>
      <trkpt lat="46.09795" lon="4.43301">
        <ele>811</ele>
        <time>2025-10-04T10:46:29Z</time>
      </trkpt>
      <trkpt lat="46.09796" lon="4.433">
        <ele>811.4</ele>
        <time>2025-10-04T10:46:30Z</time>
      </trkpt>
      <trkpt lat="46.09798" lon="4.433">
        <ele>811.6</ele>
        <time>2025-10-04T10:46:31Z</time>
      </trkpt>
      <trkpt lat="46.098" lon="4.43301">
        <ele>811.6</ele>
        <time>2025-10-04T10:46:32Z</time>
      </trkpt>
      <trkpt lat="46.09801" lon="4.43301">
        <ele>812.2</ele>
        <time>2025-10-04T10:46:33Z</time>
      </trkpt>
      <trkpt lat="46.09802" lon="4.433">
        <ele>812.8</ele>
        <time>2025-10-04T10:46:34Z</time>
      </trkpt>
      <trkpt lat="46.09804" lon="4.43299">
        <ele>813</ele>
        <time>2025-10-04T10:46:35Z</time>
      </trkpt>
      <trkpt lat="46.09805" lon="4.43299">
        <ele>813.4</ele>
        <time>2025-10-04T10:46:36Z</time>
      </trkpt>
      <trkpt lat="46.09806" lon="4.43298">
        <ele>813.8</ele>
        <time>2025-10-04T10:46:37Z</time>
      </trkpt>
      <trkpt lat="46.09807" lon="4.43298">
        <ele>814</ele>
        <time>2025-10-04T10:46:38Z</time>
      </trkpt>
      <trkpt lat="46.09808" lon="4.43297">
        <ele>814</ele>
        <time>2025-10-04T10:46:39Z</time>
      </trkpt>
      <trkpt lat="46.0981" lon="4.43297">
        <ele>814.4</ele>
        <time>2025-10-04T10:46:40Z</time>
      </trkpt>
      <trkpt lat="46.09811" lon="4.43297">
        <ele>814.6</ele>
        <time>2025-10-04T10:46:41Z</time>
      </trkpt>
      <trkpt lat="46.09812" lon="4.43297">
        <ele>815</ele>
        <time>2025-10-04T10:46:42Z</time>
      </trkpt>
      <trkpt lat="46.09814" lon="4.43296">
        <ele>815.2</ele>
        <time>2025-10-04T10:46:43Z</time>
      </trkpt>
      <trkpt lat="46.09815" lon="4.43296">
        <ele>815.6</ele>
        <time>2025-10-04T10:46:44Z</time>
      </trkpt>
      <trkpt lat="46.09817" lon="4.43296">
        <ele>815.8</ele>
        <time>2025-10-04T10:46:45Z</time>
      </trkpt>
      <trkpt lat="46.09819" lon="4.43296">
        <ele>816</ele>
        <time>2025-10-04T10:46:46Z</time>
      </trkpt>
      <trkpt lat="46.0982" lon="4.43296">
        <ele>816.2</ele>
        <time>2025-10-04T10:46:47Z</time>
      </trkpt>
      <trkpt lat="46.09821" lon="4.43296">
        <ele>816.2</ele>
        <time>2025-10-04T10:46:48Z</time>
      </trkpt>
      <trkpt lat="46.09823" lon="4.43296">
        <ele>816.2</ele>
        <time>2025-10-04T10:46:49Z</time>
      </trkpt>
      <trkpt lat="46.09824" lon="4.43296">
        <ele>816.6</ele>
        <time>2025-10-04T10:46:50Z</time>
      </trkpt>
      <trkpt lat="46.09824" lon="4.43296">
        <ele>816.8</ele>
        <time>2025-10-04T10:46:51Z</time>
      </trkpt>
      <trkpt lat="46.09825" lon="4.43295">
        <ele>816.8</ele>
        <time>2025-10-04T10:46:52Z</time>
      </trkpt>
      <trkpt lat="46.09824" lon="4.43294">
        <ele>816.8</ele>
        <time>2025-10-04T10:46:53Z</time>
      </trkpt>
      <trkpt lat="46.09823" lon="4.43293">
        <ele>816.8</ele>
        <time>2025-10-04T10:46:54Z</time>
      </trkpt>
      <trkpt lat="46.09821" lon="4.43294">
        <ele>816.8</ele>
        <time>2025-10-04T10:46:55Z</time>
      </trkpt>
      <trkpt lat="46.09818" lon="4.43296">
        <ele>816.8</ele>
        <time>2025-10-04T10:46:56Z</time>
      </trkpt>
      <trkpt lat="46.09815" lon="4.43298">
        <ele>816.8</ele>
        <time>2025-10-04T10:46:57Z</time>
      </trkpt>
      <trkpt lat="46.09813" lon="4.43301">
        <ele>816.8</ele>
        <time>2025-10-04T10:46:58Z</time>
      </trkpt>
      <trkpt lat="46.09812" lon="4.43304">
        <ele>817.2</ele>
        <time>2025-10-04T10:46:59Z</time>
      </trkpt>
      <trkpt lat="46.09811" lon="4.43306">
        <ele>817.2</ele>
        <time>2025-10-04T10:47:00Z</time>
      </trkpt>
      <trkpt lat="46.0981" lon="4.43308">
        <ele>817.6</ele>
        <time>2025-10-04T10:47:01Z</time>
      </trkpt>
      <trkpt lat="46.09809" lon="4.4331">
        <ele>817.8</ele>
        <time>2025-10-04T10:47:02Z</time>
      </trkpt>
      <trkpt lat="46.09809" lon="4.43312">
        <ele>818</ele>
        <time>2025-10-04T10:47:03Z</time>
      </trkpt>
      <trkpt lat="46.09808" lon="4.43314">
        <ele>818</ele>
        <time>2025-10-04T10:47:04Z</time>
      </trkpt>
      <trkpt lat="46.09808" lon="4.43316">
        <ele>818.4</ele>
        <time>2025-10-04T10:47:05Z</time>
      </trkpt>
      <trkpt lat="46.09807" lon="4.43318">
        <ele>818.6</ele>
        <time>2025-10-04T10:47:06Z</time>
      </trkpt>
      <trkpt lat="46.09807" lon="4.4332">
        <ele>818.6</ele>
        <time>2025-10-04T10:47:07Z</time>
      </trkpt>
      <trkpt lat="46.09806" lon="4.43322">
        <ele>819.2</ele>
        <time>2025-10-04T10:47:08Z</time>
      </trkpt>
      <trkpt lat="46.09806" lon="4.43324">
        <ele>819.2</ele>
        <time>2025-10-04T10:47:09Z</time>
      </trkpt>
      <trkpt lat="46.09806" lon="4.43327">
        <ele>819.2</ele>
        <time>2025-10-04T10:47:10Z</time>
      </trkpt>
      <trkpt lat="46.09806" lon="4.43329">
        <ele>819.6</ele>
        <time>2025-10-04T10:47:11Z</time>
      </trkpt>
      <trkpt lat="46.09806" lon="4.43332">
        <ele>819.6</ele>
        <time>2025-10-04T10:47:12Z</time>
      </trkpt>
      <trkpt lat="46.09805" lon="4.43334">
        <ele>819.6</ele>
        <time>2025-10-04T10:47:13Z</time>
      </trkpt>
      <trkpt lat="46.09805" lon="4.43336">
        <ele>819.8</ele>
        <time>2025-10-04T10:47:14Z</time>
      </trkpt>
      <trkpt lat="46.09804" lon="4.43339">
        <ele>819.8</ele>
        <time>2025-10-04T10:47:15Z</time>
      </trkpt>
      <trkpt lat="46.09803" lon="4.43341">
        <ele>820.2</ele>
        <time>2025-10-04T10:47:16Z</time>
      </trkpt>
      <trkpt lat="46.09802" lon="4.43343">
        <ele>820.2</ele>
        <time>2025-10-04T10:47:17Z</time>
      </trkpt>
      <trkpt lat="46.09802" lon="4.43345">
        <ele>820.4</ele>
        <time>2025-10-04T10:47:18Z</time>
      </trkpt>
      <trkpt lat="46.09801" lon="4.43347">
        <ele>820.4</ele>
        <time>2025-10-04T10:47:19Z</time>
      </trkpt>
      <trkpt lat="46.09801" lon="4.43349">
        <ele>820.8</ele>
        <time>2025-10-04T10:47:20Z</time>
      </trkpt>
      <trkpt lat="46.098" lon="4.43351">
        <ele>820.8</ele>
        <time>2025-10-04T10:47:21Z</time>
      </trkpt>
      <trkpt lat="46.09799" lon="4.43353">
        <ele>821</ele>
        <time>2025-10-04T10:47:22Z</time>
      </trkpt>
      <trkpt lat="46.09799" lon="4.43355">
        <ele>821</ele>
        <time>2025-10-04T10:47:23Z</time>
      </trkpt>
      <trkpt lat="46.09798" lon="4.43357">
        <ele>821.4</ele>
        <time>2025-10-04T10:47:24Z</time>
      </trkpt>
      <trkpt lat="46.09797" lon="4.4336">
        <ele>821.4</ele>
        <time>2025-10-04T10:47:25Z</time>
      </trkpt>
      <trkpt lat="46.09797" lon="4.43362">
        <ele>821.4</ele>
        <time>2025-10-04T10:47:26Z</time>
      </trkpt>
      <trkpt lat="46.09796" lon="4.43364">
        <ele>821.4</ele>
        <time>2025-10-04T10:47:27Z</time>
      </trkpt>
      <trkpt lat="46.09795" lon="4.43367">
        <ele>821.4</ele>
        <time>2025-10-04T10:47:28Z</time>
      </trkpt>
      <trkpt lat="46.09794" lon="4.4337">
        <ele>821.6</ele>
        <time>2025-10-04T10:47:29Z</time>
      </trkpt>
      <trkpt lat="46.09793" lon="4.43372">
        <ele>822</ele>
        <time>2025-10-04T10:47:30Z</time>
      </trkpt>
      <trkpt lat="46.09792" lon="4.43375">
        <ele>822.2</ele>
        <time>2025-10-04T10:47:31Z</time>
      </trkpt>
      <trkpt lat="46.09791" lon="4.43377">
        <ele>822.6</ele>
        <time>2025-10-04T10:47:32Z</time>
      </trkpt>
      <trkpt lat="46.09789" lon="4.4338">
        <ele>822.8</ele>
        <time>2025-10-04T10:47:33Z</time>
      </trkpt>
      <trkpt lat="46.09788" lon="4.43382">
        <ele>823</ele>
        <time>2025-10-04T10:47:34Z</time>
      </trkpt>
      <trkpt lat="46.09787" lon="4.43384">
        <ele>823</ele>
        <time>2025-10-04T10:47:35Z</time>
      </trkpt>
      <trkpt lat="46.09786" lon="4.43387">
        <ele>823</ele>
        <time>2025-10-04T10:47:36Z</time>
      </trkpt>
      <trkpt lat="46.09785" lon="4.43389">
        <ele>823</ele>
        <time>2025-10-04T10:47:37Z</time>
      </trkpt>
      <trkpt lat="46.09784" lon="4.43391">
        <ele>823</ele>
        <time>2025-10-04T10:47:38Z</time>
      </trkpt>
      <trkpt lat="46.09783" lon="4.43394">
        <ele>823.4</ele>
        <time>2025-10-04T10:47:39Z</time>
      </trkpt>
      <trkpt lat="46.09782" lon="4.43396">
        <ele>823.4</ele>
        <time>2025-10-04T10:47:40Z</time>
      </trkpt>
      <trkpt lat="46.09781" lon="4.43398">
        <ele>823.4</ele>
        <time>2025-10-04T10:47:41Z</time>
      </trkpt>
      <trkpt lat="46.0978" lon="4.43401">
        <ele>823.4</ele>
        <time>2025-10-04T10:47:42Z</time>
      </trkpt>
      <trkpt lat="46.09779" lon="4.43403">
        <ele>823.4</ele>
        <time>2025-10-04T10:47:43Z</time>
      </trkpt>
      <trkpt lat="46.09778" lon="4.43406">
        <ele>823.4</ele>
        <time>2025-10-04T10:47:44Z</time>
      </trkpt>
      <trkpt lat="46.09777" lon="4.43409">
        <ele>823.4</ele>
        <time>2025-10-04T10:47:45Z</time>
      </trkpt>
      <trkpt lat="46.09776" lon="4.43411">
        <ele>823.4</ele>
        <time>2025-10-04T10:47:46Z</time>
      </trkpt>
      <trkpt lat="46.09775" lon="4.43414">
        <ele>823.4</ele>
        <time>2025-10-04T10:47:47Z</time>
      </trkpt>
      <trkpt lat="46.09774" lon="4.43416">
        <ele>823.4</ele>
        <time>2025-10-04T10:47:48Z</time>
      </trkpt>
      <trkpt lat="46.09773" lon="4.43419">
        <ele>823.4</ele>
        <time>2025-10-04T10:47:49Z</time>
      </trkpt>
      <trkpt lat="46.09772" lon="4.43422">
        <ele>823.4</ele>
        <time>2025-10-04T10:47:50Z</time>
      </trkpt>
      <trkpt lat="46.09771" lon="4.43424">
        <ele>823.6</ele>
        <time>2025-10-04T10:47:51Z</time>
      </trkpt>
      <trkpt lat="46.0977" lon="4.43428">
        <ele>823.6</ele>
        <time>2025-10-04T10:47:52Z</time>
      </trkpt>
      <trkpt lat="46.0977" lon="4.43431">
        <ele>823.6</ele>
        <time>2025-10-04T10:47:53Z</time>
      </trkpt>
      <trkpt lat="46.09769" lon="4.43434">
        <ele>823.8</ele>
        <time>2025-10-04T10:47:54Z</time>
      </trkpt>
      <trkpt lat="46.09769" lon="4.43436">
        <ele>824</ele>
        <time>2025-10-04T10:47:55Z</time>
      </trkpt>
      <trkpt lat="46.09768" lon="4.43438">
        <ele>824</ele>
        <time>2025-10-04T10:47:56Z</time>
      </trkpt>
      <trkpt lat="46.09768" lon="4.43441">
        <ele>824.2</ele>
        <time>2025-10-04T10:47:57Z</time>
      </trkpt>
      <trkpt lat="46.09767" lon="4.43443">
        <ele>824.4</ele>
        <time>2025-10-04T10:47:58Z</time>
      </trkpt>
      <trkpt lat="46.09768" lon="4.43446">
        <ele>824.6</ele>
        <time>2025-10-04T10:47:59Z</time>
      </trkpt>
      <trkpt lat="46.09769" lon="4.43449">
        <ele>824.6</ele>
        <time>2025-10-04T10:48:00Z</time>
      </trkpt>
      <trkpt lat="46.09769" lon="4.43452">
        <ele>825</ele>
        <time>2025-10-04T10:48:01Z</time>
      </trkpt>
      <trkpt lat="46.0977" lon="4.43454">
        <ele>825</ele>
        <time>2025-10-04T10:48:02Z</time>
      </trkpt>
      <trkpt lat="46.09771" lon="4.43456">
        <ele>826</ele>
        <time>2025-10-04T10:48:03Z</time>
      </trkpt>
      <trkpt lat="46.09772" lon="4.43458">
        <ele>826.6</ele>
        <time>2025-10-04T10:48:04Z</time>
      </trkpt>
      <trkpt lat="46.09773" lon="4.43461">
        <ele>827</ele>
        <time>2025-10-04T10:48:05Z</time>
      </trkpt>
      <trkpt lat="46.09773" lon="4.43463">
        <ele>827</ele>
        <time>2025-10-04T10:48:06Z</time>
      </trkpt>
      <trkpt lat="46.09774" lon="4.43465">
        <ele>827.4</ele>
        <time>2025-10-04T10:48:07Z</time>
      </trkpt>
      <trkpt lat="46.09774" lon="4.43469">
        <ele>827.6</ele>
        <time>2025-10-04T10:48:08Z</time>
      </trkpt>
      <trkpt lat="46.09774" lon="4.43472">
        <ele>827.6</ele>
        <time>2025-10-04T10:48:09Z</time>
      </trkpt>
      <trkpt lat="46.09775" lon="4.43475">
        <ele>827.8</ele>
        <time>2025-10-04T10:48:10Z</time>
      </trkpt>
      <trkpt lat="46.09775" lon="4.43477">
        <ele>828.2</ele>
        <time>2025-10-04T10:48:11Z</time>
      </trkpt>
      <trkpt lat="46.09776" lon="4.4348">
        <ele>828.4</ele>
        <time>2025-10-04T10:48:12Z</time>
      </trkpt>
      <trkpt lat="46.09777" lon="4.43482">
        <ele>828.4</ele>
        <time>2025-10-04T10:48:13Z</time>
      </trkpt>
      <trkpt lat="46.09777" lon="4.43484">
        <ele>828.6</ele>
        <time>2025-10-04T10:48:14Z</time>
      </trkpt>
      <trkpt lat="46.09778" lon="4.43486">
        <ele>828.6</ele>
        <time>2025-10-04T10:48:15Z</time>
      </trkpt>
      <trkpt lat="46.09778" lon="4.43487">
        <ele>829.4</ele>
        <time>2025-10-04T10:48:16Z</time>
      </trkpt>
      <trkpt lat="46.09779" lon="4.43489">
        <ele>829.4</ele>
        <time>2025-10-04T10:48:17Z</time>
      </trkpt>
      <trkpt lat="46.09779" lon="4.43492">
        <ele>828.8</ele>
        <time>2025-10-04T10:48:18Z</time>
      </trkpt>
      <trkpt lat="46.0978" lon="4.43494">
        <ele>828.6</ele>
        <time>2025-10-04T10:48:19Z</time>
      </trkpt>
      <trkpt lat="46.09781" lon="4.43496">
        <ele>828.6</ele>
        <time>2025-10-04T10:48:20Z</time>
      </trkpt>
      <trkpt lat="46.09781" lon="4.43498">
        <ele>829.2</ele>
        <time>2025-10-04T10:48:21Z</time>
      </trkpt>
      <trkpt lat="46.09781" lon="4.43501">
        <ele>829.4</ele>
        <time>2025-10-04T10:48:22Z</time>
      </trkpt>
      <trkpt lat="46.09781" lon="4.43503">
        <ele>829.4</ele>
        <time>2025-10-04T10:48:23Z</time>
      </trkpt>
      <trkpt lat="46.09781" lon="4.43506">
        <ele>829.4</ele>
        <time>2025-10-04T10:48:24Z</time>
      </trkpt>
      <trkpt lat="46.09781" lon="4.43509">
        <ele>829.2</ele>
        <time>2025-10-04T10:48:25Z</time>
      </trkpt>
      <trkpt lat="46.09782" lon="4.43512">
        <ele>829.2</ele>
        <time>2025-10-04T10:48:26Z</time>
      </trkpt>
      <trkpt lat="46.09782" lon="4.43514">
        <ele>829.2</ele>
        <time>2025-10-04T10:48:27Z</time>
      </trkpt>
      <trkpt lat="46.09783" lon="4.43515">
        <ele>828.8</ele>
        <time>2025-10-04T10:48:28Z</time>
      </trkpt>
      <trkpt lat="46.09785" lon="4.43515">
        <ele>829.2</ele>
        <time>2025-10-04T10:48:29Z</time>
      </trkpt>
      <trkpt lat="46.09787" lon="4.43514">
        <ele>829.6</ele>
        <time>2025-10-04T10:48:30Z</time>
      </trkpt>
      <trkpt lat="46.09788" lon="4.43512">
        <ele>829.8</ele>
        <time>2025-10-04T10:48:31Z</time>
      </trkpt>
      <trkpt lat="46.09791" lon="4.4351">
        <ele>829.8</ele>
        <time>2025-10-04T10:48:32Z</time>
      </trkpt>
      <trkpt lat="46.09792" lon="4.43508">
        <ele>829.4</ele>
        <time>2025-10-04T10:48:33Z</time>
      </trkpt>
      <trkpt lat="46.09791" lon="4.43506">
        <ele>829.4</ele>
        <time>2025-10-04T10:48:34Z</time>
      </trkpt>
      <trkpt lat="46.0979" lon="4.43505">
        <ele>829.4</ele>
        <time>2025-10-04T10:48:35Z</time>
      </trkpt>
      <trkpt lat="46.09788" lon="4.43506">
        <ele>829.4</ele>
        <time>2025-10-04T10:48:36Z</time>
      </trkpt>
      <trkpt lat="46.09786" lon="4.43509">
        <ele>829.4</ele>
        <time>2025-10-04T10:48:37Z</time>
      </trkpt>
      <trkpt lat="46.09784" lon="4.43511">
        <ele>829.8</ele>
        <time>2025-10-04T10:48:38Z</time>
      </trkpt>
      <trkpt lat="46.09782" lon="4.43514">
        <ele>829.8</ele>
        <time>2025-10-04T10:48:39Z</time>
      </trkpt>
      <trkpt lat="46.0978" lon="4.43516">
        <ele>829.8</ele>
        <time>2025-10-04T10:48:40Z</time>
      </trkpt>
      <trkpt lat="46.09778" lon="4.43518">
        <ele>829.8</ele>
        <time>2025-10-04T10:48:41Z</time>
      </trkpt>
      <trkpt lat="46.09776" lon="4.43521">
        <ele>829.6</ele>
        <time>2025-10-04T10:48:42Z</time>
      </trkpt>
      <trkpt lat="46.09773" lon="4.43523">
        <ele>829</ele>
        <time>2025-10-04T10:48:43Z</time>
      </trkpt>
      <trkpt lat="46.09771" lon="4.43525">
        <ele>829</ele>
        <time>2025-10-04T10:48:44Z</time>
      </trkpt>
      <trkpt lat="46.0977" lon="4.43526">
        <ele>829</ele>
        <time>2025-10-04T10:48:45Z</time>
      </trkpt>
      <trkpt lat="46.0977" lon="4.43526">
        <ele>829</ele>
        <time>2025-10-04T10:48:46Z</time>
      </trkpt>
      <trkpt lat="46.09769" lon="4.43526">
        <ele>828.8</ele>
        <time>2025-10-04T10:48:47Z</time>
      </trkpt>
      <trkpt lat="46.09769" lon="4.43526">
        <ele>828.8</ele>
        <time>2025-10-04T10:48:48Z</time>
      </trkpt>
      <trkpt lat="46.0977" lon="4.43528">
        <ele>828.4</ele>
        <time>2025-10-04T10:48:53Z</time>
      </trkpt>
      <trkpt lat="46.0977" lon="4.43528">
        <ele>828.4</ele>
        <time>2025-10-04T10:48:54Z</time>
      </trkpt>
      <trkpt lat="46.0977" lon="4.43528">
        <ele>828.4</ele>
        <time>2025-10-04T10:48:55Z</time>
      </trkpt>
      <trkpt lat="46.09768" lon="4.43527">
        <ele>828</ele>
        <time>2025-10-04T10:50:18Z</time>
      </trkpt>
      <trkpt lat="46.09766" lon="4.43528">
        <ele>827.8</ele>
        <time>2025-10-04T10:50:19Z</time>
      </trkpt>
      <trkpt lat="46.09764" lon="4.4353">
        <ele>827.6</ele>
        <time>2025-10-04T10:50:20Z</time>
      </trkpt>
      <trkpt lat="46.09762" lon="4.43532">
        <ele>827.2</ele>
        <time>2025-10-04T10:50:21Z</time>
      </trkpt>
      <trkpt lat="46.0976" lon="4.43534">
        <ele>827.2</ele>
        <time>2025-10-04T10:50:22Z</time>
      </trkpt>
      <trkpt lat="46.09758" lon="4.43537">
        <ele>827.2</ele>
        <time>2025-10-04T10:50:23Z</time>
      </trkpt>
      <trkpt lat="46.09756" lon="4.43538">
        <ele>827.2</ele>
        <time>2025-10-04T10:50:24Z</time>
      </trkpt>
      <trkpt lat="46.09753" lon="4.4354">
        <ele>827.2</ele>
        <time>2025-10-04T10:50:25Z</time>
      </trkpt>
      <trkpt lat="46.09751" lon="4.43543">
        <ele>827.2</ele>
        <time>2025-10-04T10:50:26Z</time>
      </trkpt>
      <trkpt lat="46.09749" lon="4.43545">
        <ele>827</ele>
        <time>2025-10-04T10:50:27Z</time>
      </trkpt>
      <trkpt lat="46.09747" lon="4.43547">
        <ele>827</ele>
        <time>2025-10-04T10:50:28Z</time>
      </trkpt>
      <trkpt lat="46.09744" lon="4.43549">
        <ele>826.4</ele>
        <time>2025-10-04T10:50:29Z</time>
      </trkpt>
      <trkpt lat="46.09741" lon="4.43551">
        <ele>826.4</ele>
        <time>2025-10-04T10:50:30Z</time>
      </trkpt>
      <trkpt lat="46.09737" lon="4.43554">
        <ele>826.2</ele>
        <time>2025-10-04T10:50:31Z</time>
      </trkpt>
      <trkpt lat="46.09733" lon="4.43556">
        <ele>825.8</ele>
        <time>2025-10-04T10:50:32Z</time>
      </trkpt>
      <trkpt lat="46.09728" lon="4.43558">
        <ele>825.4</ele>
        <time>2025-10-04T10:50:33Z</time>
      </trkpt>
      <trkpt lat="46.09723" lon="4.43561">
        <ele>825</ele>
        <time>2025-10-04T10:50:34Z</time>
      </trkpt>
      <trkpt lat="46.09718" lon="4.43563">
        <ele>824.4</ele>
        <time>2025-10-04T10:50:35Z</time>
      </trkpt>
      <trkpt lat="46.09713" lon="4.43566">
        <ele>823.8</ele>
        <time>2025-10-04T10:50:36Z</time>
      </trkpt>
      <trkpt lat="46.09707" lon="4.43569">
        <ele>823.4</ele>
        <time>2025-10-04T10:50:37Z</time>
      </trkpt>
      <trkpt lat="46.09702" lon="4.43572">
        <ele>823.2</ele>
        <time>2025-10-04T10:50:38Z</time>
      </trkpt>
      <trkpt lat="46.09696" lon="4.43575">
        <ele>822.6</ele>
        <time>2025-10-04T10:50:39Z</time>
      </trkpt>
      <trkpt lat="46.09691" lon="4.43578">
        <ele>822.2</ele>
        <time>2025-10-04T10:50:40Z</time>
      </trkpt>
      <trkpt lat="46.09686" lon="4.43581">
        <ele>821.8</ele>
        <time>2025-10-04T10:50:41Z</time>
      </trkpt>
      <trkpt lat="46.09682" lon="4.43584">
        <ele>822.4</ele>
        <time>2025-10-04T10:50:42Z</time>
      </trkpt>
      <trkpt lat="46.09679" lon="4.43586">
        <ele>823</ele>
        <time>2025-10-04T10:50:43Z</time>
      </trkpt>
      <trkpt lat="46.09675" lon="4.43589">
        <ele>823.2</ele>
        <time>2025-10-04T10:50:44Z</time>
      </trkpt>
      <trkpt lat="46.09671" lon="4.4359">
        <ele>823.4</ele>
        <time>2025-10-04T10:50:45Z</time>
      </trkpt>
      <trkpt lat="46.09668" lon="4.43593">
        <ele>823.4</ele>
        <time>2025-10-04T10:50:46Z</time>
      </trkpt>
      <trkpt lat="46.09664" lon="4.43595">
        <ele>823.4</ele>
        <time>2025-10-04T10:50:47Z</time>
      </trkpt>
      <trkpt lat="46.0966" lon="4.43597">
        <ele>823.8</ele>
        <time>2025-10-04T10:50:48Z</time>
      </trkpt>
      <trkpt lat="46.09657" lon="4.43599">
        <ele>824.4</ele>
        <time>2025-10-04T10:50:49Z</time>
      </trkpt>
      <trkpt lat="46.09654" lon="4.43601">
        <ele>824.4</ele>
        <time>2025-10-04T10:50:50Z</time>
      </trkpt>
      <trkpt lat="46.09651" lon="4.43602">
        <ele>824.8</ele>
        <time>2025-10-04T10:50:51Z</time>
      </trkpt>
      <trkpt lat="46.09648" lon="4.43605">
        <ele>825.2</ele>
        <time>2025-10-04T10:50:52Z</time>
      </trkpt>
      <trkpt lat="46.09645" lon="4.43606">
        <ele>825.2</ele>
        <time>2025-10-04T10:50:53Z</time>
      </trkpt>
      <trkpt lat="46.09642" lon="4.43608">
        <ele>825.2</ele>
        <time>2025-10-04T10:50:54Z</time>
      </trkpt>
      <trkpt lat="46.0964" lon="4.4361">
        <ele>825.6</ele>
        <time>2025-10-04T10:50:55Z</time>
      </trkpt>
      <trkpt lat="46.09637" lon="4.43612">
        <ele>826.6</ele>
        <time>2025-10-04T10:50:56Z</time>
      </trkpt>
      <trkpt lat="46.09635" lon="4.43613">
        <ele>827</ele>
        <time>2025-10-04T10:50:57Z</time>
      </trkpt>
      <trkpt lat="46.09634" lon="4.43614">
        <ele>827.6</ele>
        <time>2025-10-04T10:50:58Z</time>
      </trkpt>
      <trkpt lat="46.09633" lon="4.43615">
        <ele>827.6</ele>
        <time>2025-10-04T10:50:59Z</time>
      </trkpt>
      <trkpt lat="46.0963" lon="4.43616">
        <ele>828</ele>
        <time>2025-10-04T10:51:00Z</time>
      </trkpt>
      <trkpt lat="46.09629" lon="4.43616">
        <ele>828</ele>
        <time>2025-10-04T10:51:01Z</time>
      </trkpt>
      <trkpt lat="46.09628" lon="4.43616">
        <ele>828.2</ele>
        <time>2025-10-04T10:51:02Z</time>
      </trkpt>
      <trkpt lat="46.09627" lon="4.43615">
        <ele>828.2</ele>
        <time>2025-10-04T10:51:03Z</time>
      </trkpt>
      <trkpt lat="46.09626" lon="4.43616">
        <ele>828.6</ele>
        <time>2025-10-04T10:51:04Z</time>
      </trkpt>
      <trkpt lat="46.09624" lon="4.43618">
        <ele>828.6</ele>
        <time>2025-10-04T10:51:05Z</time>
      </trkpt>
      <trkpt lat="46.09623" lon="4.4362">
        <ele>829.4</ele>
        <time>2025-10-04T10:51:06Z</time>
      </trkpt>
      <trkpt lat="46.09621" lon="4.43622">
        <ele>829.8</ele>
        <time>2025-10-04T10:51:07Z</time>
      </trkpt>
      <trkpt lat="46.09621" lon="4.43623">
        <ele>830.2</ele>
        <time>2025-10-04T10:51:08Z</time>
      </trkpt>
      <trkpt lat="46.09619" lon="4.43624">
        <ele>830.2</ele>
        <time>2025-10-04T10:51:09Z</time>
      </trkpt>
      <trkpt lat="46.09618" lon="4.43626">
        <ele>830.2</ele>
        <time>2025-10-04T10:51:10Z</time>
      </trkpt>
      <trkpt lat="46.09616" lon="4.43627">
        <ele>830.2</ele>
        <time>2025-10-04T10:51:11Z</time>
      </trkpt>
      <trkpt lat="46.09615" lon="4.43628">
        <ele>830.6</ele>
        <time>2025-10-04T10:51:12Z</time>
      </trkpt>
      <trkpt lat="46.09613" lon="4.43629">
        <ele>831</ele>
        <time>2025-10-04T10:51:13Z</time>
      </trkpt>
      <trkpt lat="46.09611" lon="4.4363">
        <ele>831</ele>
        <time>2025-10-04T10:51:14Z</time>
      </trkpt>
      <trkpt lat="46.09609" lon="4.43631">
        <ele>831.4</ele>
        <time>2025-10-04T10:51:15Z</time>
      </trkpt>
      <trkpt lat="46.09607" lon="4.43631">
        <ele>831.6</ele>
        <time>2025-10-04T10:51:16Z</time>
      </trkpt>
      <trkpt lat="46.09605" lon="4.43632">
        <ele>832</ele>
        <time>2025-10-04T10:51:17Z</time>
      </trkpt>
      <trkpt lat="46.09603" lon="4.43632">
        <ele>832.6</ele>
        <time>2025-10-04T10:51:18Z</time>
      </trkpt>
      <trkpt lat="46.09601" lon="4.43633">
        <ele>833</ele>
        <time>2025-10-04T10:51:19Z</time>
      </trkpt>
      <trkpt lat="46.096" lon="4.43633">
        <ele>833</ele>
        <time>2025-10-04T10:51:20Z</time>
      </trkpt>
      <trkpt lat="46.09599" lon="4.43634">
        <ele>833.2</ele>
        <time>2025-10-04T10:51:21Z</time>
      </trkpt>
      <trkpt lat="46.09598" lon="4.43634">
        <ele>833.4</ele>
        <time>2025-10-04T10:51:22Z</time>
      </trkpt>
      <trkpt lat="46.09596" lon="4.43635">
        <ele>834</ele>
        <time>2025-10-04T10:51:23Z</time>
      </trkpt>
      <trkpt lat="46.09595" lon="4.43635">
        <ele>834.4</ele>
        <time>2025-10-04T10:51:24Z</time>
      </trkpt>
      <trkpt lat="46.09594" lon="4.43635">
        <ele>834.8</ele>
        <time>2025-10-04T10:51:25Z</time>
      </trkpt>
      <trkpt lat="46.09592" lon="4.43635">
        <ele>834.8</ele>
        <time>2025-10-04T10:51:26Z</time>
      </trkpt>
      <trkpt lat="46.09592" lon="4.43635">
        <ele>834.8</ele>
        <time>2025-10-04T10:51:27Z</time>
      </trkpt>
      <trkpt lat="46.09591" lon="4.43635">
        <ele>834.8</ele>
        <time>2025-10-04T10:51:28Z</time>
      </trkpt>
      <trkpt lat="46.0959" lon="4.43634">
        <ele>835</ele>
        <time>2025-10-04T10:51:29Z</time>
      </trkpt>
      <trkpt lat="46.09588" lon="4.43635">
        <ele>835.4</ele>
        <time>2025-10-04T10:51:30Z</time>
      </trkpt>
      <trkpt lat="46.09586" lon="4.43635">
        <ele>835.4</ele>
        <time>2025-10-04T10:51:31Z</time>
      </trkpt>
      <trkpt lat="46.09584" lon="4.43636">
        <ele>835.4</ele>
        <time>2025-10-04T10:51:32Z</time>
      </trkpt>
      <trkpt lat="46.09583" lon="4.43636">
        <ele>835.4</ele>
        <time>2025-10-04T10:51:33Z</time>
      </trkpt>
      <trkpt lat="46.09582" lon="4.43637">
        <ele>835.6</ele>
        <time>2025-10-04T10:51:34Z</time>
      </trkpt>
      <trkpt lat="46.09581" lon="4.43637">
        <ele>835.6</ele>
        <time>2025-10-04T10:51:35Z</time>
      </trkpt>
      <trkpt lat="46.09579" lon="4.43637">
        <ele>835.6</ele>
        <time>2025-10-04T10:51:36Z</time>
      </trkpt>
      <trkpt lat="46.09578" lon="4.43638">
        <ele>836</ele>
        <time>2025-10-04T10:51:37Z</time>
      </trkpt>
      <trkpt lat="46.09576" lon="4.43639">
        <ele>836</ele>
        <time>2025-10-04T10:51:38Z</time>
      </trkpt>
      <trkpt lat="46.09575" lon="4.43639">
        <ele>836.2</ele>
        <time>2025-10-04T10:51:39Z</time>
      </trkpt>
      <trkpt lat="46.09573" lon="4.4364">
        <ele>836.6</ele>
        <time>2025-10-04T10:51:40Z</time>
      </trkpt>
      <trkpt lat="46.09572" lon="4.4364">
        <ele>837</ele>
        <time>2025-10-04T10:51:41Z</time>
      </trkpt>
      <trkpt lat="46.09572" lon="4.4364">
        <ele>837</ele>
        <time>2025-10-04T10:51:42Z</time>
      </trkpt>
      <trkpt lat="46.0957" lon="4.43639">
        <ele>837.4</ele>
        <time>2025-10-04T10:51:43Z</time>
      </trkpt>
      <trkpt lat="46.09568" lon="4.43639">
        <ele>837.8</ele>
        <time>2025-10-04T10:51:44Z</time>
      </trkpt>
      <trkpt lat="46.09566" lon="4.43638">
        <ele>838.2</ele>
        <time>2025-10-04T10:51:45Z</time>
      </trkpt>
      <trkpt lat="46.09565" lon="4.43638">
        <ele>838.4</ele>
        <time>2025-10-04T10:51:46Z</time>
      </trkpt>
      <trkpt lat="46.09563" lon="4.43638">
        <ele>838.4</ele>
        <time>2025-10-04T10:51:47Z</time>
      </trkpt>
      <trkpt lat="46.09562" lon="4.43638">
        <ele>838.2</ele>
        <time>2025-10-04T10:51:48Z</time>
      </trkpt>
      <trkpt lat="46.09561" lon="4.43637">
        <ele>838.4</ele>
        <time>2025-10-04T10:51:49Z</time>
      </trkpt>
      <trkpt lat="46.09559" lon="4.43637">
        <ele>838.8</ele>
        <time>2025-10-04T10:51:50Z</time>
      </trkpt>
      <trkpt lat="46.09557" lon="4.43637">
        <ele>839</ele>
        <time>2025-10-04T10:51:51Z</time>
      </trkpt>
      <trkpt lat="46.09555" lon="4.43637">
        <ele>838.8</ele>
        <time>2025-10-04T10:51:52Z</time>
      </trkpt>
      <trkpt lat="46.09553" lon="4.43637">
        <ele>838.8</ele>
        <time>2025-10-04T10:51:53Z</time>
      </trkpt>
      <trkpt lat="46.09551" lon="4.43637">
        <ele>838.8</ele>
        <time>2025-10-04T10:51:54Z</time>
      </trkpt>
      <trkpt lat="46.09549" lon="4.43637">
        <ele>838.8</ele>
        <time>2025-10-04T10:51:55Z</time>
      </trkpt>
      <trkpt lat="46.09546" lon="4.43636">
        <ele>839</ele>
        <time>2025-10-04T10:51:56Z</time>
      </trkpt>
      <trkpt lat="46.09543" lon="4.43636">
        <ele>839</ele>
        <time>2025-10-04T10:51:57Z</time>
      </trkpt>
      <trkpt lat="46.0954" lon="4.43636">
        <ele>839</ele>
        <time>2025-10-04T10:51:58Z</time>
      </trkpt>
      <trkpt lat="46.09537" lon="4.43635">
        <ele>839</ele>
        <time>2025-10-04T10:51:59Z</time>
      </trkpt>
      <trkpt lat="46.09534" lon="4.43635">
        <ele>839.4</ele>
        <time>2025-10-04T10:52:00Z</time>
      </trkpt>
      <trkpt lat="46.09532" lon="4.43635">
        <ele>839.4</ele>
        <time>2025-10-04T10:52:01Z</time>
      </trkpt>
      <trkpt lat="46.0953" lon="4.43636">
        <ele>840.2</ele>
        <time>2025-10-04T10:52:02Z</time>
      </trkpt>
      <trkpt lat="46.09527" lon="4.43636">
        <ele>840.2</ele>
        <time>2025-10-04T10:52:03Z</time>
      </trkpt>
      <trkpt lat="46.09524" lon="4.43637">
        <ele>839.8</ele>
        <time>2025-10-04T10:52:04Z</time>
      </trkpt>
      <trkpt lat="46.09521" lon="4.43638">
        <ele>839.8</ele>
        <time>2025-10-04T10:52:05Z</time>
      </trkpt>
      <trkpt lat="46.09518" lon="4.43638">
        <ele>839.8</ele>
        <time>2025-10-04T10:52:06Z</time>
      </trkpt>
      <trkpt lat="46.09514" lon="4.43638">
        <ele>839.6</ele>
        <time>2025-10-04T10:52:07Z</time>
      </trkpt>
      <trkpt lat="46.09511" lon="4.43639">
        <ele>839.6</ele>
        <time>2025-10-04T10:52:08Z</time>
      </trkpt>
      <trkpt lat="46.09508" lon="4.4364">
        <ele>839.4</ele>
        <time>2025-10-04T10:52:09Z</time>
      </trkpt>
      <trkpt lat="46.09504" lon="4.43641">
        <ele>839.4</ele>
        <time>2025-10-04T10:52:10Z</time>
      </trkpt>
      <trkpt lat="46.09501" lon="4.43642">
        <ele>840.4</ele>
        <time>2025-10-04T10:52:11Z</time>
      </trkpt>
      <trkpt lat="46.09498" lon="4.43643">
        <ele>840.8</ele>
        <time>2025-10-04T10:52:12Z</time>
      </trkpt>
      <trkpt lat="46.09496" lon="4.43644">
        <ele>840.6</ele>
        <time>2025-10-04T10:52:13Z</time>
      </trkpt>
      <trkpt lat="46.09493" lon="4.43646">
        <ele>840.8</ele>
        <time>2025-10-04T10:52:14Z</time>
      </trkpt>
      <trkpt lat="46.09492" lon="4.43647">
        <ele>840.8</ele>
        <time>2025-10-04T10:52:15Z</time>
      </trkpt>
      <trkpt lat="46.0949" lon="4.43648">
        <ele>840.8</ele>
        <time>2025-10-04T10:52:16Z</time>
      </trkpt>
      <trkpt lat="46.09488" lon="4.43648">
        <ele>840.4</ele>
        <time>2025-10-04T10:52:17Z</time>
      </trkpt>
      <trkpt lat="46.09486" lon="4.43648">
        <ele>840.4</ele>
        <time>2025-10-04T10:52:18Z</time>
      </trkpt>
      <trkpt lat="46.09484" lon="4.4365">
        <ele>840.6</ele>
        <time>2025-10-04T10:52:19Z</time>
      </trkpt>
      <trkpt lat="46.09482" lon="4.43652">
        <ele>840.6</ele>
        <time>2025-10-04T10:52:20Z</time>
      </trkpt>
      <trkpt lat="46.0948" lon="4.43653">
        <ele>840.6</ele>
        <time>2025-10-04T10:52:21Z</time>
      </trkpt>
      <trkpt lat="46.09477" lon="4.43655">
        <ele>840.2</ele>
        <time>2025-10-04T10:52:22Z</time>
      </trkpt>
      <trkpt lat="46.09474" lon="4.43657">
        <ele>840.2</ele>
        <time>2025-10-04T10:52:23Z</time>
      </trkpt>
      <trkpt lat="46.09471" lon="4.43659">
        <ele>840.4</ele>
        <time>2025-10-04T10:52:24Z</time>
      </trkpt>
      <trkpt lat="46.09467" lon="4.43662">
        <ele>839.4</ele>
        <time>2025-10-04T10:52:25Z</time>
      </trkpt>
      <trkpt lat="46.09464" lon="4.43665">
        <ele>839.4</ele>
        <time>2025-10-04T10:52:26Z</time>
      </trkpt>
      <trkpt lat="46.09457" lon="4.43671">
        <ele>839.4</ele>
        <time>2025-10-04T10:52:27Z</time>
      </trkpt>
      <trkpt lat="46.09454" lon="4.43673">
        <ele>839.4</ele>
        <time>2025-10-04T10:52:28Z</time>
      </trkpt>
      <trkpt lat="46.09451" lon="4.43676">
        <ele>839.4</ele>
        <time>2025-10-04T10:52:29Z</time>
      </trkpt>
      <trkpt lat="46.09448" lon="4.43679">
        <ele>839.4</ele>
        <time>2025-10-04T10:52:30Z</time>
      </trkpt>
      <trkpt lat="46.09446" lon="4.43682">
        <ele>839.2</ele>
        <time>2025-10-04T10:52:31Z</time>
      </trkpt>
      <trkpt lat="46.09443" lon="4.43685">
        <ele>838</ele>
        <time>2025-10-04T10:52:32Z</time>
      </trkpt>
      <trkpt lat="46.09441" lon="4.43689">
        <ele>838</ele>
        <time>2025-10-04T10:52:33Z</time>
      </trkpt>
      <trkpt lat="46.0944" lon="4.43693">
        <ele>836.8</ele>
        <time>2025-10-04T10:52:34Z</time>
      </trkpt>
      <trkpt lat="46.09438" lon="4.43696">
        <ele>836.8</ele>
        <time>2025-10-04T10:52:35Z</time>
      </trkpt>
      <trkpt lat="46.09438" lon="4.43697">
        <ele>836.8</ele>
        <time>2025-10-04T10:52:36Z</time>
      </trkpt>
      <trkpt lat="46.09433" lon="4.43701">
        <ele>838</ele>
        <time>2025-10-04T10:52:37Z</time>
      </trkpt>
      <trkpt lat="46.0943" lon="4.43703">
        <ele>837.4</ele>
        <time>2025-10-04T10:52:38Z</time>
      </trkpt>
      <trkpt lat="46.09427" lon="4.43705">
        <ele>837.4</ele>
        <time>2025-10-04T10:52:39Z</time>
      </trkpt>
      <trkpt lat="46.09425" lon="4.43706">
        <ele>837.4</ele>
        <time>2025-10-04T10:52:40Z</time>
      </trkpt>
      <trkpt lat="46.09422" lon="4.43706">
        <ele>837</ele>
        <time>2025-10-04T10:52:41Z</time>
      </trkpt>
      <trkpt lat="46.09419" lon="4.43705">
        <ele>837</ele>
        <time>2025-10-04T10:52:42Z</time>
      </trkpt>
      <trkpt lat="46.09417" lon="4.43705">
        <ele>837</ele>
        <time>2025-10-04T10:52:43Z</time>
      </trkpt>
      <trkpt lat="46.09414" lon="4.43706">
        <ele>836.6</ele>
        <time>2025-10-04T10:52:44Z</time>
      </trkpt>
      <trkpt lat="46.0941" lon="4.43711">
        <ele>836.2</ele>
        <time>2025-10-04T10:52:45Z</time>
      </trkpt>
      <trkpt lat="46.09408" lon="4.43715">
        <ele>836</ele>
        <time>2025-10-04T10:52:46Z</time>
      </trkpt>
      <trkpt lat="46.09406" lon="4.43719">
        <ele>835.2</ele>
        <time>2025-10-04T10:52:47Z</time>
      </trkpt>
      <trkpt lat="46.09405" lon="4.43722">
        <ele>835</ele>
        <time>2025-10-04T10:52:48Z</time>
      </trkpt>
      <trkpt lat="46.09403" lon="4.43725">
        <ele>835</ele>
        <time>2025-10-04T10:52:49Z</time>
      </trkpt>
      <trkpt lat="46.09403" lon="4.43727">
        <ele>834.8</ele>
        <time>2025-10-04T10:52:50Z</time>
      </trkpt>
      <trkpt lat="46.09402" lon="4.43728">
        <ele>834.8</ele>
        <time>2025-10-04T10:52:51Z</time>
      </trkpt>
      <trkpt lat="46.09401" lon="4.4373">
        <ele>834.2</ele>
        <time>2025-10-04T10:52:52Z</time>
      </trkpt>
      <trkpt lat="46.094" lon="4.43732">
        <ele>834</ele>
        <time>2025-10-04T10:52:53Z</time>
      </trkpt>
      <trkpt lat="46.09399" lon="4.43732">
        <ele>833.8</ele>
        <time>2025-10-04T10:52:54Z</time>
      </trkpt>
      <trkpt lat="46.09399" lon="4.43731">
        <ele>833.4</ele>
        <time>2025-10-04T10:52:55Z</time>
      </trkpt>
      <trkpt lat="46.09399" lon="4.43731">
        <ele>833.2</ele>
        <time>2025-10-04T10:52:56Z</time>
      </trkpt>
      <trkpt lat="46.09397" lon="4.43733">
        <ele>832.4</ele>
        <time>2025-10-04T10:53:05Z</time>
      </trkpt>
      <trkpt lat="46.09395" lon="4.43734">
        <ele>832.4</ele>
        <time>2025-10-04T10:53:06Z</time>
      </trkpt>
      <trkpt lat="46.09394" lon="4.43735">
        <ele>832.2</ele>
        <time>2025-10-04T10:53:07Z</time>
      </trkpt>
      <trkpt lat="46.09393" lon="4.43738">
        <ele>831.8</ele>
        <time>2025-10-04T10:53:08Z</time>
      </trkpt>
      <trkpt lat="46.09392" lon="4.4374">
        <ele>831.4</ele>
        <time>2025-10-04T10:53:09Z</time>
      </trkpt>
      <trkpt lat="46.09392" lon="4.43743">
        <ele>831.2</ele>
        <time>2025-10-04T10:53:10Z</time>
      </trkpt>
      <trkpt lat="46.09391" lon="4.43747">
        <ele>831.2</ele>
        <time>2025-10-04T10:53:11Z</time>
      </trkpt>
      <trkpt lat="46.09391" lon="4.43748">
        <ele>831.2</ele>
        <time>2025-10-04T10:53:12Z</time>
      </trkpt>
      <trkpt lat="46.0939" lon="4.43749">
        <ele>831</ele>
        <time>2025-10-04T10:53:13Z</time>
      </trkpt>
      <trkpt lat="46.0939" lon="4.4375">
        <ele>831</ele>
        <time>2025-10-04T10:53:14Z</time>
      </trkpt>
      <trkpt lat="46.0939" lon="4.4375">
        <ele>831</ele>
        <time>2025-10-04T10:53:15Z</time>
      </trkpt>
      <trkpt lat="46.0939" lon="4.43751">
        <ele>830.8</ele>
        <time>2025-10-04T10:53:16Z</time>
      </trkpt>
      <trkpt lat="46.09385" lon="4.43753">
        <ele>830.2</ele>
        <time>2025-10-04T10:53:58Z</time>
      </trkpt>
      <trkpt lat="46.09382" lon="4.43756">
        <ele>829.6</ele>
        <time>2025-10-04T10:53:59Z</time>
      </trkpt>
      <trkpt lat="46.0938" lon="4.4376">
        <ele>828.6</ele>
        <time>2025-10-04T10:54:00Z</time>
      </trkpt>
      <trkpt lat="46.09377" lon="4.43763">
        <ele>828.6</ele>
        <time>2025-10-04T10:54:01Z</time>
      </trkpt>
      <trkpt lat="46.09374" lon="4.43767">
        <ele>827.8</ele>
        <time>2025-10-04T10:54:02Z</time>
      </trkpt>
      <trkpt lat="46.09372" lon="4.4377">
        <ele>827.4</ele>
        <time>2025-10-04T10:54:03Z</time>
      </trkpt>
      <trkpt lat="46.09369" lon="4.43773">
        <ele>827</ele>
        <time>2025-10-04T10:54:04Z</time>
      </trkpt>
      <trkpt lat="46.09366" lon="4.43775">
        <ele>826.6</ele>
        <time>2025-10-04T10:54:05Z</time>
      </trkpt>
      <trkpt lat="46.09363" lon="4.43777">
        <ele>826</ele>
        <time>2025-10-04T10:54:06Z</time>
      </trkpt>
      <trkpt lat="46.09359" lon="4.4378">
        <ele>825.2</ele>
        <time>2025-10-04T10:54:07Z</time>
      </trkpt>
      <trkpt lat="46.09357" lon="4.43782">
        <ele>824.2</ele>
        <time>2025-10-04T10:54:08Z</time>
      </trkpt>
      <trkpt lat="46.09354" lon="4.43784">
        <ele>823.6</ele>
        <time>2025-10-04T10:54:09Z</time>
      </trkpt>
      <trkpt lat="46.09352" lon="4.43787">
        <ele>823</ele>
        <time>2025-10-04T10:54:10Z</time>
      </trkpt>
      <trkpt lat="46.09349" lon="4.43789">
        <ele>822.2</ele>
        <time>2025-10-04T10:54:11Z</time>
      </trkpt>
      <trkpt lat="46.09347" lon="4.43791">
        <ele>821.8</ele>
        <time>2025-10-04T10:54:12Z</time>
      </trkpt>
      <trkpt lat="46.09345" lon="4.43794">
        <ele>821.2</ele>
        <time>2025-10-04T10:54:13Z</time>
      </trkpt>
      <trkpt lat="46.09342" lon="4.43796">
        <ele>820.4</ele>
        <time>2025-10-04T10:54:14Z</time>
      </trkpt>
      <trkpt lat="46.09337" lon="4.438">
        <ele>818.6</ele>
        <time>2025-10-04T10:54:15Z</time>
      </trkpt>
      <trkpt lat="46.09333" lon="4.43805">
        <ele>818.4</ele>
        <time>2025-10-04T10:54:16Z</time>
      </trkpt>
      <trkpt lat="46.09329" lon="4.43809">
        <ele>818.4</ele>
        <time>2025-10-04T10:54:17Z</time>
      </trkpt>
      <trkpt lat="46.09324" lon="4.43812">
        <ele>817.2</ele>
        <time>2025-10-04T10:54:18Z</time>
      </trkpt>
      <trkpt lat="46.0932" lon="4.43817">
        <ele>816.6</ele>
        <time>2025-10-04T10:54:19Z</time>
      </trkpt>
      <trkpt lat="46.09318" lon="4.4382">
        <ele>816.2</ele>
        <time>2025-10-04T10:54:20Z</time>
      </trkpt>
      <trkpt lat="46.09314" lon="4.43823">
        <ele>815.8</ele>
        <time>2025-10-04T10:54:21Z</time>
      </trkpt>
      <trkpt lat="46.09311" lon="4.43827">
        <ele>814.8</ele>
        <time>2025-10-04T10:54:22Z</time>
      </trkpt>
      <trkpt lat="46.09309" lon="4.43831">
        <ele>814</ele>
        <time>2025-10-04T10:54:23Z</time>
      </trkpt>
      <trkpt lat="46.09307" lon="4.43835">
        <ele>814</ele>
        <time>2025-10-04T10:54:24Z</time>
      </trkpt>
      <trkpt lat="46.09304" lon="4.43837">
        <ele>813.2</ele>
        <time>2025-10-04T10:54:25Z</time>
      </trkpt>
      <trkpt lat="46.093" lon="4.4384">
        <ele>812.6</ele>
        <time>2025-10-04T10:54:26Z</time>
      </trkpt>
      <trkpt lat="46.09296" lon="4.43842">
        <ele>812</ele>
        <time>2025-10-04T10:54:27Z</time>
      </trkpt>
      <trkpt lat="46.09293" lon="4.43844">
        <ele>811.4</ele>
        <time>2025-10-04T10:54:28Z</time>
      </trkpt>
      <trkpt lat="46.0929" lon="4.43846">
        <ele>810.6</ele>
        <time>2025-10-04T10:54:29Z</time>
      </trkpt>
      <trkpt lat="46.09286" lon="4.43849">
        <ele>809.2</ele>
        <time>2025-10-04T10:54:30Z</time>
      </trkpt>
      <trkpt lat="46.09282" lon="4.43853">
        <ele>808</ele>
        <time>2025-10-04T10:54:31Z</time>
      </trkpt>
      <trkpt lat="46.09279" lon="4.43857">
        <ele>807</ele>
        <time>2025-10-04T10:54:32Z</time>
      </trkpt>
      <trkpt lat="46.09275" lon="4.43861">
        <ele>806</ele>
        <time>2025-10-04T10:54:33Z</time>
      </trkpt>
      <trkpt lat="46.09272" lon="4.43865">
        <ele>805.6</ele>
        <time>2025-10-04T10:54:34Z</time>
      </trkpt>
      <trkpt lat="46.09268" lon="4.43869">
        <ele>805.2</ele>
        <time>2025-10-04T10:54:35Z</time>
      </trkpt>
      <trkpt lat="46.09265" lon="4.43872">
        <ele>804.8</ele>
        <time>2025-10-04T10:54:36Z</time>
      </trkpt>
      <trkpt lat="46.09262" lon="4.43876">
        <ele>804.6</ele>
        <time>2025-10-04T10:54:37Z</time>
      </trkpt>
      <trkpt lat="46.09259" lon="4.43878">
        <ele>803.8</ele>
        <time>2025-10-04T10:54:38Z</time>
      </trkpt>
      <trkpt lat="46.09256" lon="4.43882">
        <ele>803.2</ele>
        <time>2025-10-04T10:54:39Z</time>
      </trkpt>
      <trkpt lat="46.09253" lon="4.43887">
        <ele>802.8</ele>
        <time>2025-10-04T10:54:40Z</time>
      </trkpt>
      <trkpt lat="46.09249" lon="4.43891">
        <ele>802.8</ele>
        <time>2025-10-04T10:54:41Z</time>
      </trkpt>
      <trkpt lat="46.09246" lon="4.43893">
        <ele>801.6</ele>
        <time>2025-10-04T10:54:42Z</time>
      </trkpt>
      <trkpt lat="46.09242" lon="4.43896">
        <ele>801.2</ele>
        <time>2025-10-04T10:54:43Z</time>
      </trkpt>
      <trkpt lat="46.09237" lon="4.439">
        <ele>800.4</ele>
        <time>2025-10-04T10:54:44Z</time>
      </trkpt>
      <trkpt lat="46.09234" lon="4.43904">
        <ele>799.8</ele>
        <time>2025-10-04T10:54:45Z</time>
      </trkpt>
      <trkpt lat="46.0923" lon="4.43909">
        <ele>799</ele>
        <time>2025-10-04T10:54:46Z</time>
      </trkpt>
      <trkpt lat="46.09226" lon="4.43913">
        <ele>798.6</ele>
        <time>2025-10-04T10:54:47Z</time>
      </trkpt>
      <trkpt lat="46.09223" lon="4.43918">
        <ele>798</ele>
        <time>2025-10-04T10:54:48Z</time>
      </trkpt>
      <trkpt lat="46.09219" lon="4.43921">
        <ele>797.4</ele>
        <time>2025-10-04T10:54:49Z</time>
      </trkpt>
      <trkpt lat="46.09215" lon="4.43924">
        <ele>796.6</ele>
        <time>2025-10-04T10:54:50Z</time>
      </trkpt>
      <trkpt lat="46.09211" lon="4.43929">
        <ele>796.4</ele>
        <time>2025-10-04T10:54:51Z</time>
      </trkpt>
      <trkpt lat="46.09207" lon="4.43932">
        <ele>795.8</ele>
        <time>2025-10-04T10:54:52Z</time>
      </trkpt>
      <trkpt lat="46.09203" lon="4.43934">
        <ele>795.2</ele>
        <time>2025-10-04T10:54:53Z</time>
      </trkpt>
      <trkpt lat="46.092" lon="4.43933">
        <ele>794.4</ele>
        <time>2025-10-04T10:54:54Z</time>
      </trkpt>
      <trkpt lat="46.09196" lon="4.43932">
        <ele>794</ele>
        <time>2025-10-04T10:54:55Z</time>
      </trkpt>
      <trkpt lat="46.09193" lon="4.43928">
        <ele>793.4</ele>
        <time>2025-10-04T10:54:56Z</time>
      </trkpt>
      <trkpt lat="46.0919" lon="4.43924">
        <ele>793.2</ele>
        <time>2025-10-04T10:54:57Z</time>
      </trkpt>
      <trkpt lat="46.09187" lon="4.43921">
        <ele>792.8</ele>
        <time>2025-10-04T10:54:58Z</time>
      </trkpt>
      <trkpt lat="46.09184" lon="4.43915">
        <ele>792.6</ele>
        <time>2025-10-04T10:54:59Z</time>
      </trkpt>
      <trkpt lat="46.09181" lon="4.43911">
        <ele>792.6</ele>
        <time>2025-10-04T10:55:00Z</time>
      </trkpt>
      <trkpt lat="46.09179" lon="4.43908">
        <ele>792.2</ele>
        <time>2025-10-04T10:55:01Z</time>
      </trkpt>
      <trkpt lat="46.09175" lon="4.43906">
        <ele>792.2</ele>
        <time>2025-10-04T10:55:02Z</time>
      </trkpt>
      <trkpt lat="46.09172" lon="4.43904">
        <ele>791.4</ele>
        <time>2025-10-04T10:55:03Z</time>
      </trkpt>
      <trkpt lat="46.09168" lon="4.43903">
        <ele>791.4</ele>
        <time>2025-10-04T10:55:04Z</time>
      </trkpt>
      <trkpt lat="46.09164" lon="4.43902">
        <ele>791.8</ele>
        <time>2025-10-04T10:55:05Z</time>
      </trkpt>
      <trkpt lat="46.09162" lon="4.43901">
        <ele>792.2</ele>
        <time>2025-10-04T10:55:06Z</time>
      </trkpt>
      <trkpt lat="46.0916" lon="4.43903">
        <ele>792.8</ele>
        <time>2025-10-04T10:55:07Z</time>
      </trkpt>
      <trkpt lat="46.09158" lon="4.43904">
        <ele>793.4</ele>
        <time>2025-10-04T10:55:08Z</time>
      </trkpt>
      <trkpt lat="46.09157" lon="4.43905">
        <ele>793.8</ele>
        <time>2025-10-04T10:55:09Z</time>
      </trkpt>
      <trkpt lat="46.09155" lon="4.43906">
        <ele>794.2</ele>
        <time>2025-10-04T10:55:10Z</time>
      </trkpt>
      <trkpt lat="46.09154" lon="4.43908">
        <ele>794.6</ele>
        <time>2025-10-04T10:55:11Z</time>
      </trkpt>
      <trkpt lat="46.09152" lon="4.43909">
        <ele>795</ele>
        <time>2025-10-04T10:55:12Z</time>
      </trkpt>
      <trkpt lat="46.09151" lon="4.43911">
        <ele>795.4</ele>
        <time>2025-10-04T10:55:13Z</time>
      </trkpt>
      <trkpt lat="46.0915" lon="4.43912">
        <ele>795.6</ele>
        <time>2025-10-04T10:55:14Z</time>
      </trkpt>
      <trkpt lat="46.09149" lon="4.43915">
        <ele>795.6</ele>
        <time>2025-10-04T10:55:15Z</time>
      </trkpt>
      <trkpt lat="46.09147" lon="4.43918">
        <ele>795.8</ele>
        <time>2025-10-04T10:55:16Z</time>
      </trkpt>
      <trkpt lat="46.09146" lon="4.4392">
        <ele>795.8</ele>
        <time>2025-10-04T10:55:17Z</time>
      </trkpt>
      <trkpt lat="46.09144" lon="4.43922">
        <ele>795.8</ele>
        <time>2025-10-04T10:55:18Z</time>
      </trkpt>
      <trkpt lat="46.09142" lon="4.43924">
        <ele>795.4</ele>
        <time>2025-10-04T10:55:19Z</time>
      </trkpt>
      <trkpt lat="46.0914" lon="4.43926">
        <ele>795.4</ele>
        <time>2025-10-04T10:55:20Z</time>
      </trkpt>
      <trkpt lat="46.09138" lon="4.43928">
        <ele>795.2</ele>
        <time>2025-10-04T10:55:21Z</time>
      </trkpt>
      <trkpt lat="46.09136" lon="4.43931">
        <ele>795.2</ele>
        <time>2025-10-04T10:55:22Z</time>
      </trkpt>
      <trkpt lat="46.09134" lon="4.43934">
        <ele>795.4</ele>
        <time>2025-10-04T10:55:23Z</time>
      </trkpt>
      <trkpt lat="46.09132" lon="4.43936">
        <ele>795.4</ele>
        <time>2025-10-04T10:55:24Z</time>
      </trkpt>
      <trkpt lat="46.09129" lon="4.43939">
        <ele>795.8</ele>
        <time>2025-10-04T10:55:25Z</time>
      </trkpt>
      <trkpt lat="46.09127" lon="4.43941">
        <ele>796</ele>
        <time>2025-10-04T10:55:26Z</time>
      </trkpt>
      <trkpt lat="46.09125" lon="4.43943">
        <ele>796.2</ele>
        <time>2025-10-04T10:55:27Z</time>
      </trkpt>
      <trkpt lat="46.09123" lon="4.43945">
        <ele>796.2</ele>
        <time>2025-10-04T10:55:28Z</time>
      </trkpt>
      <trkpt lat="46.09121" lon="4.43948">
        <ele>796.2</ele>
        <time>2025-10-04T10:55:29Z</time>
      </trkpt>
      <trkpt lat="46.09119" lon="4.43952">
        <ele>796</ele>
        <time>2025-10-04T10:55:30Z</time>
      </trkpt>
      <trkpt lat="46.09116" lon="4.43955">
        <ele>796.4</ele>
        <time>2025-10-04T10:55:31Z</time>
      </trkpt>
      <trkpt lat="46.09114" lon="4.43957">
        <ele>796.4</ele>
        <time>2025-10-04T10:55:32Z</time>
      </trkpt>
      <trkpt lat="46.09112" lon="4.43959">
        <ele>796.8</ele>
        <time>2025-10-04T10:55:33Z</time>
      </trkpt>
      <trkpt lat="46.09111" lon="4.43962">
        <ele>797.2</ele>
        <time>2025-10-04T10:55:34Z</time>
      </trkpt>
      <trkpt lat="46.09109" lon="4.43965">
        <ele>797.2</ele>
        <time>2025-10-04T10:55:35Z</time>
      </trkpt>
      <trkpt lat="46.09106" lon="4.43969">
        <ele>797.2</ele>
        <time>2025-10-04T10:55:36Z</time>
      </trkpt>
      <trkpt lat="46.09104" lon="4.43972">
        <ele>797.6</ele>
        <time>2025-10-04T10:55:37Z</time>
      </trkpt>
      <trkpt lat="46.09103" lon="4.43975">
        <ele>798</ele>
        <time>2025-10-04T10:55:38Z</time>
      </trkpt>
      <trkpt lat="46.091" lon="4.43977">
        <ele>798</ele>
        <time>2025-10-04T10:55:39Z</time>
      </trkpt>
      <trkpt lat="46.09098" lon="4.4398">
        <ele>798.4</ele>
        <time>2025-10-04T10:55:40Z</time>
      </trkpt>
      <trkpt lat="46.09092" lon="4.43985">
        <ele>798.4</ele>
        <time>2025-10-04T10:55:41Z</time>
      </trkpt>
      <trkpt lat="46.09091" lon="4.43987">
        <ele>798.4</ele>
        <time>2025-10-04T10:55:42Z</time>
      </trkpt>
      <trkpt lat="46.09089" lon="4.4399">
        <ele>798.6</ele>
        <time>2025-10-04T10:55:43Z</time>
      </trkpt>
      <trkpt lat="46.09089" lon="4.43992">
        <ele>798.6</ele>
        <time>2025-10-04T10:55:44Z</time>
      </trkpt>
      <trkpt lat="46.09087" lon="4.43993">
        <ele>798.6</ele>
        <time>2025-10-04T10:55:45Z</time>
      </trkpt>
      <trkpt lat="46.09084" lon="4.43997">
        <ele>798.6</ele>
        <time>2025-10-04T10:55:46Z</time>
      </trkpt>
      <trkpt lat="46.09082" lon="4.43999">
        <ele>798.6</ele>
        <time>2025-10-04T10:55:47Z</time>
      </trkpt>
      <trkpt lat="46.0908" lon="4.44001">
        <ele>798.6</ele>
        <time>2025-10-04T10:55:48Z</time>
      </trkpt>
      <trkpt lat="46.09078" lon="4.44004">
        <ele>798.6</ele>
        <time>2025-10-04T10:55:49Z</time>
      </trkpt>
      <trkpt lat="46.09075" lon="4.44008">
        <ele>798.8</ele>
        <time>2025-10-04T10:55:50Z</time>
      </trkpt>
      <trkpt lat="46.09073" lon="4.4401">
        <ele>798.8</ele>
        <time>2025-10-04T10:55:51Z</time>
      </trkpt>
      <trkpt lat="46.09071" lon="4.44013">
        <ele>798.8</ele>
        <time>2025-10-04T10:55:52Z</time>
      </trkpt>
      <trkpt lat="46.09069" lon="4.44015">
        <ele>798.8</ele>
        <time>2025-10-04T10:55:53Z</time>
      </trkpt>
      <trkpt lat="46.09066" lon="4.44017">
        <ele>798.6</ele>
        <time>2025-10-04T10:55:54Z</time>
      </trkpt>
      <trkpt lat="46.09063" lon="4.4402">
        <ele>798.6</ele>
        <time>2025-10-04T10:55:55Z</time>
      </trkpt>
      <trkpt lat="46.0906" lon="4.44023">
        <ele>798.6</ele>
        <time>2025-10-04T10:55:56Z</time>
      </trkpt>
      <trkpt lat="46.09057" lon="4.44025">
        <ele>798.6</ele>
        <time>2025-10-04T10:55:57Z</time>
      </trkpt>
      <trkpt lat="46.09054" lon="4.44027">
        <ele>799</ele>
        <time>2025-10-04T10:55:58Z</time>
      </trkpt>
      <trkpt lat="46.09051" lon="4.44029">
        <ele>799</ele>
        <time>2025-10-04T10:55:59Z</time>
      </trkpt>
      <trkpt lat="46.09048" lon="4.44031">
        <ele>799</ele>
        <time>2025-10-04T10:56:00Z</time>
      </trkpt>
      <trkpt lat="46.09045" lon="4.44033">
        <ele>799.4</ele>
        <time>2025-10-04T10:56:01Z</time>
      </trkpt>
      <trkpt lat="46.09042" lon="4.44035">
        <ele>800</ele>
        <time>2025-10-04T10:56:02Z</time>
      </trkpt>
      <trkpt lat="46.09039" lon="4.44037">
        <ele>800.2</ele>
        <time>2025-10-04T10:56:03Z</time>
      </trkpt>
      <trkpt lat="46.09037" lon="4.44038">
        <ele>800.4</ele>
        <time>2025-10-04T10:56:04Z</time>
      </trkpt>
      <trkpt lat="46.09034" lon="4.44039">
        <ele>800.6</ele>
        <time>2025-10-04T10:56:05Z</time>
      </trkpt>
      <trkpt lat="46.09032" lon="4.4404">
        <ele>800.6</ele>
        <time>2025-10-04T10:56:06Z</time>
      </trkpt>
      <trkpt lat="46.09029" lon="4.44041">
        <ele>800.4</ele>
        <time>2025-10-04T10:56:07Z</time>
      </trkpt>
      <trkpt lat="46.09026" lon="4.44042">
        <ele>800.4</ele>
        <time>2025-10-04T10:56:08Z</time>
      </trkpt>
      <trkpt lat="46.09024" lon="4.44043">
        <ele>800.4</ele>
        <time>2025-10-04T10:56:09Z</time>
      </trkpt>
      <trkpt lat="46.09021" lon="4.44043">
        <ele>800.4</ele>
        <time>2025-10-04T10:56:10Z</time>
      </trkpt>
      <trkpt lat="46.09019" lon="4.44044">
        <ele>800.4</ele>
        <time>2025-10-04T10:56:11Z</time>
      </trkpt>
      <trkpt lat="46.09016" lon="4.44045">
        <ele>800.4</ele>
        <time>2025-10-04T10:56:12Z</time>
      </trkpt>
      <trkpt lat="46.09013" lon="4.44046">
        <ele>801</ele>
        <time>2025-10-04T10:56:13Z</time>
      </trkpt>
      <trkpt lat="46.09011" lon="4.44047">
        <ele>801</ele>
        <time>2025-10-04T10:56:14Z</time>
      </trkpt>
      <trkpt lat="46.09008" lon="4.44048">
        <ele>801.4</ele>
        <time>2025-10-04T10:56:15Z</time>
      </trkpt>
      <trkpt lat="46.09005" lon="4.44048">
        <ele>801.4</ele>
        <time>2025-10-04T10:56:16Z</time>
      </trkpt>
      <trkpt lat="46.09002" lon="4.44049">
        <ele>801.6</ele>
        <time>2025-10-04T10:56:17Z</time>
      </trkpt>
      <trkpt lat="46.09" lon="4.44051">
        <ele>801.8</ele>
        <time>2025-10-04T10:56:18Z</time>
      </trkpt>
      <trkpt lat="46.08997" lon="4.44052">
        <ele>802.2</ele>
        <time>2025-10-04T10:56:19Z</time>
      </trkpt>
      <trkpt lat="46.08994" lon="4.44053">
        <ele>802.4</ele>
        <time>2025-10-04T10:56:20Z</time>
      </trkpt>
      <trkpt lat="46.08991" lon="4.44055">
        <ele>802.4</ele>
        <time>2025-10-04T10:56:21Z</time>
      </trkpt>
      <trkpt lat="46.08989" lon="4.44056">
        <ele>802.4</ele>
        <time>2025-10-04T10:56:22Z</time>
      </trkpt>
      <trkpt lat="46.08986" lon="4.44057">
        <ele>802.4</ele>
        <time>2025-10-04T10:56:23Z</time>
      </trkpt>
      <trkpt lat="46.08983" lon="4.44058">
        <ele>802.4</ele>
        <time>2025-10-04T10:56:24Z</time>
      </trkpt>
      <trkpt lat="46.0898" lon="4.44059">
        <ele>802.8</ele>
        <time>2025-10-04T10:56:25Z</time>
      </trkpt>
      <trkpt lat="46.08977" lon="4.4406">
        <ele>802.8</ele>
        <time>2025-10-04T10:56:26Z</time>
      </trkpt>
      <trkpt lat="46.08974" lon="4.44062">
        <ele>802.8</ele>
        <time>2025-10-04T10:56:27Z</time>
      </trkpt>
      <trkpt lat="46.08972" lon="4.44063">
        <ele>802.8</ele>
        <time>2025-10-04T10:56:28Z</time>
      </trkpt>
      <trkpt lat="46.0897" lon="4.44063">
        <ele>802.8</ele>
        <time>2025-10-04T10:56:29Z</time>
      </trkpt>
      <trkpt lat="46.08967" lon="4.44064">
        <ele>802.8</ele>
        <time>2025-10-04T10:56:30Z</time>
      </trkpt>
      <trkpt lat="46.08964" lon="4.44066">
        <ele>803.2</ele>
        <time>2025-10-04T10:56:31Z</time>
      </trkpt>
      <trkpt lat="46.08962" lon="4.44068">
        <ele>803.2</ele>
        <time>2025-10-04T10:56:32Z</time>
      </trkpt>
      <trkpt lat="46.08959" lon="4.44069">
        <ele>803.2</ele>
        <time>2025-10-04T10:56:33Z</time>
      </trkpt>
      <trkpt lat="46.08957" lon="4.44071">
        <ele>803.2</ele>
        <time>2025-10-04T10:56:34Z</time>
      </trkpt>
      <trkpt lat="46.08955" lon="4.44073">
        <ele>803.2</ele>
        <time>2025-10-04T10:56:35Z</time>
      </trkpt>
      <trkpt lat="46.08953" lon="4.44075">
        <ele>803.2</ele>
        <time>2025-10-04T10:56:36Z</time>
      </trkpt>
      <trkpt lat="46.08951" lon="4.44077">
        <ele>803.2</ele>
        <time>2025-10-04T10:56:37Z</time>
      </trkpt>
      <trkpt lat="46.08949" lon="4.44079">
        <ele>803.2</ele>
        <time>2025-10-04T10:56:38Z</time>
      </trkpt>
      <trkpt lat="46.08947" lon="4.44081">
        <ele>803.2</ele>
        <time>2025-10-04T10:56:39Z</time>
      </trkpt>
      <trkpt lat="46.08944" lon="4.44084">
        <ele>803.6</ele>
        <time>2025-10-04T10:56:40Z</time>
      </trkpt>
      <trkpt lat="46.08941" lon="4.44087">
        <ele>803.6</ele>
        <time>2025-10-04T10:56:41Z</time>
      </trkpt>
      <trkpt lat="46.08939" lon="4.4409">
        <ele>804.2</ele>
        <time>2025-10-04T10:56:42Z</time>
      </trkpt>
      <trkpt lat="46.08937" lon="4.44092">
        <ele>804.2</ele>
        <time>2025-10-04T10:56:43Z</time>
      </trkpt>
      <trkpt lat="46.08935" lon="4.44094">
        <ele>804.2</ele>
        <time>2025-10-04T10:56:44Z</time>
      </trkpt>
      <trkpt lat="46.08933" lon="4.44097">
        <ele>804.8</ele>
        <time>2025-10-04T10:56:45Z</time>
      </trkpt>
      <trkpt lat="46.08931" lon="4.44099">
        <ele>804.8</ele>
        <time>2025-10-04T10:56:46Z</time>
      </trkpt>
      <trkpt lat="46.08929" lon="4.44101">
        <ele>804.8</ele>
        <time>2025-10-04T10:56:47Z</time>
      </trkpt>
      <trkpt lat="46.08927" lon="4.44104">
        <ele>804.8</ele>
        <time>2025-10-04T10:56:48Z</time>
      </trkpt>
      <trkpt lat="46.08925" lon="4.44106">
        <ele>805.2</ele>
        <time>2025-10-04T10:56:49Z</time>
      </trkpt>
      <trkpt lat="46.08923" lon="4.44107">
        <ele>805.2</ele>
        <time>2025-10-04T10:56:50Z</time>
      </trkpt>
      <trkpt lat="46.08921" lon="4.44109">
        <ele>805.2</ele>
        <time>2025-10-04T10:56:51Z</time>
      </trkpt>
      <trkpt lat="46.08919" lon="4.44111">
        <ele>805.2</ele>
        <time>2025-10-04T10:56:52Z</time>
      </trkpt>
      <trkpt lat="46.08918" lon="4.44112">
        <ele>805.2</ele>
        <time>2025-10-04T10:56:53Z</time>
      </trkpt>
      <trkpt lat="46.08916" lon="4.44114">
        <ele>805.6</ele>
        <time>2025-10-04T10:56:54Z</time>
      </trkpt>
      <trkpt lat="46.08914" lon="4.44115">
        <ele>806</ele>
        <time>2025-10-04T10:56:55Z</time>
      </trkpt>
      <trkpt lat="46.08912" lon="4.44117">
        <ele>806</ele>
        <time>2025-10-04T10:56:56Z</time>
      </trkpt>
      <trkpt lat="46.0891" lon="4.44117">
        <ele>806</ele>
        <time>2025-10-04T10:56:57Z</time>
      </trkpt>
      <trkpt lat="46.08908" lon="4.44119">
        <ele>806.4</ele>
        <time>2025-10-04T10:56:58Z</time>
      </trkpt>
      <trkpt lat="46.08906" lon="4.4412">
        <ele>806.4</ele>
        <time>2025-10-04T10:56:59Z</time>
      </trkpt>
      <trkpt lat="46.08904" lon="4.44121">
        <ele>806.8</ele>
        <time>2025-10-04T10:57:00Z</time>
      </trkpt>
      <trkpt lat="46.08902" lon="4.44122">
        <ele>807</ele>
        <time>2025-10-04T10:57:01Z</time>
      </trkpt>
      <trkpt lat="46.089" lon="4.44123">
        <ele>807</ele>
        <time>2025-10-04T10:57:02Z</time>
      </trkpt>
      <trkpt lat="46.08898" lon="4.44124">
        <ele>807.2</ele>
        <time>2025-10-04T10:57:03Z</time>
      </trkpt>
      <trkpt lat="46.08897" lon="4.44125">
        <ele>807.4</ele>
        <time>2025-10-04T10:57:04Z</time>
      </trkpt>
      <trkpt lat="46.08895" lon="4.44126">
        <ele>807.4</ele>
        <time>2025-10-04T10:57:05Z</time>
      </trkpt>
      <trkpt lat="46.08893" lon="4.44127">
        <ele>807.4</ele>
        <time>2025-10-04T10:57:06Z</time>
      </trkpt>
      <trkpt lat="46.08891" lon="4.44128">
        <ele>807.4</ele>
        <time>2025-10-04T10:57:07Z</time>
      </trkpt>
      <trkpt lat="46.0889" lon="4.44129">
        <ele>807.8</ele>
        <time>2025-10-04T10:57:08Z</time>
      </trkpt>
      <trkpt lat="46.08888" lon="4.4413">
        <ele>807.8</ele>
        <time>2025-10-04T10:57:09Z</time>
      </trkpt>
      <trkpt lat="46.08887" lon="4.44131">
        <ele>807.8</ele>
        <time>2025-10-04T10:57:10Z</time>
      </trkpt>
      <trkpt lat="46.08885" lon="4.44132">
        <ele>808.2</ele>
        <time>2025-10-04T10:57:11Z</time>
      </trkpt>
      <trkpt lat="46.08883" lon="4.44132">
        <ele>808.6</ele>
        <time>2025-10-04T10:57:12Z</time>
      </trkpt>
      <trkpt lat="46.08881" lon="4.44133">
        <ele>808.6</ele>
        <time>2025-10-04T10:57:13Z</time>
      </trkpt>
      <trkpt lat="46.0888" lon="4.44134">
        <ele>809</ele>
        <time>2025-10-04T10:57:14Z</time>
      </trkpt>
      <trkpt lat="46.08879" lon="4.44134">
        <ele>809</ele>
        <time>2025-10-04T10:57:15Z</time>
      </trkpt>
      <trkpt lat="46.08877" lon="4.44134">
        <ele>809</ele>
        <time>2025-10-04T10:57:16Z</time>
      </trkpt>
      <trkpt lat="46.08876" lon="4.44134">
        <ele>809</ele>
        <time>2025-10-04T10:57:17Z</time>
      </trkpt>
      <trkpt lat="46.08874" lon="4.44134">
        <ele>809</ele>
        <time>2025-10-04T10:57:18Z</time>
      </trkpt>
      <trkpt lat="46.08872" lon="4.44134">
        <ele>809</ele>
        <time>2025-10-04T10:57:19Z</time>
      </trkpt>
      <trkpt lat="46.0887" lon="4.44135">
        <ele>809</ele>
        <time>2025-10-04T10:57:20Z</time>
      </trkpt>
      <trkpt lat="46.08869" lon="4.44136">
        <ele>809.2</ele>
        <time>2025-10-04T10:57:21Z</time>
      </trkpt>
      <trkpt lat="46.08867" lon="4.44137">
        <ele>809.2</ele>
        <time>2025-10-04T10:57:22Z</time>
      </trkpt>
      <trkpt lat="46.08865" lon="4.44138">
        <ele>809.2</ele>
        <time>2025-10-04T10:57:23Z</time>
      </trkpt>
      <trkpt lat="46.08863" lon="4.4414">
        <ele>809.2</ele>
        <time>2025-10-04T10:57:24Z</time>
      </trkpt>
      <trkpt lat="46.08861" lon="4.44141">
        <ele>809.6</ele>
        <time>2025-10-04T10:57:25Z</time>
      </trkpt>
      <trkpt lat="46.08859" lon="4.44141">
        <ele>810</ele>
        <time>2025-10-04T10:57:26Z</time>
      </trkpt>
      <trkpt lat="46.08859" lon="4.44141">
        <ele>810</ele>
        <time>2025-10-04T10:57:27Z</time>
      </trkpt>
      <trkpt lat="46.08857" lon="4.44142">
        <ele>810.4</ele>
        <time>2025-10-04T10:57:28Z</time>
      </trkpt>
      <trkpt lat="46.08855" lon="4.44143">
        <ele>810.4</ele>
        <time>2025-10-04T10:57:29Z</time>
      </trkpt>
      <trkpt lat="46.08853" lon="4.44144">
        <ele>810.4</ele>
        <time>2025-10-04T10:57:30Z</time>
      </trkpt>
      <trkpt lat="46.08851" lon="4.44145">
        <ele>810.4</ele>
        <time>2025-10-04T10:57:31Z</time>
      </trkpt>
      <trkpt lat="46.08849" lon="4.44145">
        <ele>810.2</ele>
        <time>2025-10-04T10:57:32Z</time>
      </trkpt>
      <trkpt lat="46.08847" lon="4.44145">
        <ele>810.4</ele>
        <time>2025-10-04T10:57:33Z</time>
      </trkpt>
      <trkpt lat="46.08846" lon="4.44146">
        <ele>811</ele>
        <time>2025-10-04T10:57:34Z</time>
      </trkpt>
      <trkpt lat="46.08844" lon="4.44146">
        <ele>811.2</ele>
        <time>2025-10-04T10:57:35Z</time>
      </trkpt>
      <trkpt lat="46.08842" lon="4.44146">
        <ele>811.6</ele>
        <time>2025-10-04T10:57:36Z</time>
      </trkpt>
      <trkpt lat="46.0884" lon="4.44147">
        <ele>811.6</ele>
        <time>2025-10-04T10:57:37Z</time>
      </trkpt>
      <trkpt lat="46.08838" lon="4.44147">
        <ele>811.8</ele>
        <time>2025-10-04T10:57:38Z</time>
      </trkpt>
      <trkpt lat="46.08836" lon="4.44147">
        <ele>812.2</ele>
        <time>2025-10-04T10:57:39Z</time>
      </trkpt>
      <trkpt lat="46.08834" lon="4.44148">
        <ele>812.4</ele>
        <time>2025-10-04T10:57:40Z</time>
      </trkpt>
      <trkpt lat="46.08832" lon="4.44148">
        <ele>812.6</ele>
        <time>2025-10-04T10:57:41Z</time>
      </trkpt>
      <trkpt lat="46.0883" lon="4.44149">
        <ele>812.6</ele>
        <time>2025-10-04T10:57:42Z</time>
      </trkpt>
      <trkpt lat="46.08829" lon="4.44149">
        <ele>813.2</ele>
        <time>2025-10-04T10:57:43Z</time>
      </trkpt>
      <trkpt lat="46.08827" lon="4.44151">
        <ele>813.2</ele>
        <time>2025-10-04T10:57:44Z</time>
      </trkpt>
      <trkpt lat="46.08826" lon="4.44152">
        <ele>813.2</ele>
        <time>2025-10-04T10:57:45Z</time>
      </trkpt>
      <trkpt lat="46.08825" lon="4.44153">
        <ele>813.4</ele>
        <time>2025-10-04T10:57:46Z</time>
      </trkpt>
      <trkpt lat="46.08823" lon="4.44153">
        <ele>813.6</ele>
        <time>2025-10-04T10:57:47Z</time>
      </trkpt>
      <trkpt lat="46.08821" lon="4.44153">
        <ele>813.6</ele>
        <time>2025-10-04T10:57:48Z</time>
      </trkpt>
      <trkpt lat="46.0882" lon="4.44153">
        <ele>813.6</ele>
        <time>2025-10-04T10:57:49Z</time>
      </trkpt>
      <trkpt lat="46.08818" lon="4.44153">
        <ele>813.6</ele>
        <time>2025-10-04T10:57:50Z</time>
      </trkpt>
      <trkpt lat="46.08816" lon="4.44153">
        <ele>814</ele>
        <time>2025-10-04T10:57:51Z</time>
      </trkpt>
      <trkpt lat="46.08815" lon="4.44154">
        <ele>814</ele>
        <time>2025-10-04T10:57:52Z</time>
      </trkpt>
      <trkpt lat="46.08813" lon="4.44154">
        <ele>814</ele>
        <time>2025-10-04T10:57:53Z</time>
      </trkpt>
      <trkpt lat="46.08811" lon="4.44155">
        <ele>814</ele>
        <time>2025-10-04T10:57:54Z</time>
      </trkpt>
      <trkpt lat="46.0881" lon="4.44156">
        <ele>814.4</ele>
        <time>2025-10-04T10:57:55Z</time>
      </trkpt>
      <trkpt lat="46.08808" lon="4.44158">
        <ele>814.6</ele>
        <time>2025-10-04T10:57:56Z</time>
      </trkpt>
      <trkpt lat="46.08807" lon="4.44159">
        <ele>814.8</ele>
        <time>2025-10-04T10:57:57Z</time>
      </trkpt>
      <trkpt lat="46.08805" lon="4.44161">
        <ele>815.2</ele>
        <time>2025-10-04T10:57:58Z</time>
      </trkpt>
      <trkpt lat="46.08804" lon="4.44162">
        <ele>815.2</ele>
        <time>2025-10-04T10:57:59Z</time>
      </trkpt>
      <trkpt lat="46.08802" lon="4.44163">
        <ele>815.6</ele>
        <time>2025-10-04T10:58:00Z</time>
      </trkpt>
      <trkpt lat="46.088" lon="4.44164">
        <ele>816</ele>
        <time>2025-10-04T10:58:01Z</time>
      </trkpt>
      <trkpt lat="46.08799" lon="4.44164">
        <ele>816</ele>
        <time>2025-10-04T10:58:02Z</time>
      </trkpt>
      <trkpt lat="46.08797" lon="4.44165">
        <ele>816.4</ele>
        <time>2025-10-04T10:58:03Z</time>
      </trkpt>
      <trkpt lat="46.08796" lon="4.44167">
        <ele>816.4</ele>
        <time>2025-10-04T10:58:04Z</time>
      </trkpt>
      <trkpt lat="46.08795" lon="4.44168">
        <ele>816.4</ele>
        <time>2025-10-04T10:58:05Z</time>
      </trkpt>
      <trkpt lat="46.08793" lon="4.44168">
        <ele>816.6</ele>
        <time>2025-10-04T10:58:06Z</time>
      </trkpt>
      <trkpt lat="46.08792" lon="4.44169">
        <ele>816.6</ele>
        <time>2025-10-04T10:58:07Z</time>
      </trkpt>
      <trkpt lat="46.0879" lon="4.4417">
        <ele>817</ele>
        <time>2025-10-04T10:58:08Z</time>
      </trkpt>
      <trkpt lat="46.08788" lon="4.44171">
        <ele>817</ele>
        <time>2025-10-04T10:58:09Z</time>
      </trkpt>
      <trkpt lat="46.08787" lon="4.44172">
        <ele>817.2</ele>
        <time>2025-10-04T10:58:10Z</time>
      </trkpt>
      <trkpt lat="46.08785" lon="4.44173">
        <ele>817.2</ele>
        <time>2025-10-04T10:58:11Z</time>
      </trkpt>
      <trkpt lat="46.08784" lon="4.44174">
        <ele>817.6</ele>
        <time>2025-10-04T10:58:12Z</time>
      </trkpt>
      <trkpt lat="46.08782" lon="4.44176">
        <ele>817.6</ele>
        <time>2025-10-04T10:58:13Z</time>
      </trkpt>
      <trkpt lat="46.08781" lon="4.44177">
        <ele>817.6</ele>
        <time>2025-10-04T10:58:14Z</time>
      </trkpt>
      <trkpt lat="46.0878" lon="4.44178">
        <ele>817.6</ele>
        <time>2025-10-04T10:58:15Z</time>
      </trkpt>
      <trkpt lat="46.08778" lon="4.44179">
        <ele>818</ele>
        <time>2025-10-04T10:58:16Z</time>
      </trkpt>
      <trkpt lat="46.08777" lon="4.4418">
        <ele>818</ele>
        <time>2025-10-04T10:58:17Z</time>
      </trkpt>
      <trkpt lat="46.08776" lon="4.44181">
        <ele>818</ele>
        <time>2025-10-04T10:58:18Z</time>
      </trkpt>
      <trkpt lat="46.08774" lon="4.44182">
        <ele>818.2</ele>
        <time>2025-10-04T10:58:19Z</time>
      </trkpt>
      <trkpt lat="46.08773" lon="4.44183">
        <ele>818.2</ele>
        <time>2025-10-04T10:58:20Z</time>
      </trkpt>
      <trkpt lat="46.08771" lon="4.44184">
        <ele>818.6</ele>
        <time>2025-10-04T10:58:21Z</time>
      </trkpt>
      <trkpt lat="46.0877" lon="4.44185">
        <ele>818.8</ele>
        <time>2025-10-04T10:58:22Z</time>
      </trkpt>
      <trkpt lat="46.08769" lon="4.44186">
        <ele>819.2</ele>
        <time>2025-10-04T10:58:23Z</time>
      </trkpt>
      <trkpt lat="46.08765" lon="4.44188">
        <ele>819.4</ele>
        <time>2025-10-04T10:58:24Z</time>
      </trkpt>
      <trkpt lat="46.08764" lon="4.44189">
        <ele>819.6</ele>
        <time>2025-10-04T10:58:25Z</time>
      </trkpt>
      <trkpt lat="46.08762" lon="4.4419">
        <ele>819.6</ele>
        <time>2025-10-04T10:58:26Z</time>
      </trkpt>
      <trkpt lat="46.08761" lon="4.44191">
        <ele>819.6</ele>
        <time>2025-10-04T10:58:27Z</time>
      </trkpt>
      <trkpt lat="46.08759" lon="4.44193">
        <ele>819.8</ele>
        <time>2025-10-04T10:58:28Z</time>
      </trkpt>
      <trkpt lat="46.08757" lon="4.44193">
        <ele>819.8</ele>
        <time>2025-10-04T10:58:29Z</time>
      </trkpt>
      <trkpt lat="46.08756" lon="4.44193">
        <ele>820.2</ele>
        <time>2025-10-04T10:58:30Z</time>
      </trkpt>
      <trkpt lat="46.08754" lon="4.44194">
        <ele>820.4</ele>
        <time>2025-10-04T10:58:31Z</time>
      </trkpt>
      <trkpt lat="46.08752" lon="4.44195">
        <ele>820.8</ele>
        <time>2025-10-04T10:58:32Z</time>
      </trkpt>
      <trkpt lat="46.0875" lon="4.44196">
        <ele>820.8</ele>
        <time>2025-10-04T10:58:33Z</time>
      </trkpt>
      <trkpt lat="46.08749" lon="4.44197">
        <ele>821</ele>
        <time>2025-10-04T10:58:34Z</time>
      </trkpt>
      <trkpt lat="46.08747" lon="4.44199">
        <ele>821</ele>
        <time>2025-10-04T10:58:35Z</time>
      </trkpt>
      <trkpt lat="46.08745" lon="4.442">
        <ele>821.2</ele>
        <time>2025-10-04T10:58:36Z</time>
      </trkpt>
      <trkpt lat="46.08744" lon="4.442">
        <ele>821.6</ele>
        <time>2025-10-04T10:58:37Z</time>
      </trkpt>
      <trkpt lat="46.08742" lon="4.44201">
        <ele>821.6</ele>
        <time>2025-10-04T10:58:38Z</time>
      </trkpt>
      <trkpt lat="46.08741" lon="4.44201">
        <ele>821.8</ele>
        <time>2025-10-04T10:58:39Z</time>
      </trkpt>
      <trkpt lat="46.08739" lon="4.44202">
        <ele>821.8</ele>
        <time>2025-10-04T10:58:40Z</time>
      </trkpt>
      <trkpt lat="46.08737" lon="4.44203">
        <ele>822.2</ele>
        <time>2025-10-04T10:58:41Z</time>
      </trkpt>
      <trkpt lat="46.08736" lon="4.44205">
        <ele>822.2</ele>
        <time>2025-10-04T10:58:42Z</time>
      </trkpt>
      <trkpt lat="46.08735" lon="4.44206">
        <ele>822.6</ele>
        <time>2025-10-04T10:58:43Z</time>
      </trkpt>
      <trkpt lat="46.08734" lon="4.44207">
        <ele>822.8</ele>
        <time>2025-10-04T10:58:44Z</time>
      </trkpt>
      <trkpt lat="46.08733" lon="4.44209">
        <ele>822.8</ele>
        <time>2025-10-04T10:58:45Z</time>
      </trkpt>
      <trkpt lat="46.08732" lon="4.4421">
        <ele>823</ele>
        <time>2025-10-04T10:58:46Z</time>
      </trkpt>
      <trkpt lat="46.08731" lon="4.44211">
        <ele>823.4</ele>
        <time>2025-10-04T10:58:47Z</time>
      </trkpt>
      <trkpt lat="46.0873" lon="4.44213">
        <ele>823.8</ele>
        <time>2025-10-04T10:58:48Z</time>
      </trkpt>
      <trkpt lat="46.08728" lon="4.44214">
        <ele>823.8</ele>
        <time>2025-10-04T10:58:49Z</time>
      </trkpt>
      <trkpt lat="46.08727" lon="4.44215">
        <ele>823.8</ele>
        <time>2025-10-04T10:58:50Z</time>
      </trkpt>
      <trkpt lat="46.08725" lon="4.44216">
        <ele>824</ele>
        <time>2025-10-04T10:58:51Z</time>
      </trkpt>
      <trkpt lat="46.08723" lon="4.44217">
        <ele>824</ele>
        <time>2025-10-04T10:58:52Z</time>
      </trkpt>
      <trkpt lat="46.08722" lon="4.44218">
        <ele>824</ele>
        <time>2025-10-04T10:58:53Z</time>
      </trkpt>
      <trkpt lat="46.08721" lon="4.44219">
        <ele>824.4</ele>
        <time>2025-10-04T10:58:54Z</time>
      </trkpt>
      <trkpt lat="46.08719" lon="4.44221">
        <ele>824.4</ele>
        <time>2025-10-04T10:58:55Z</time>
      </trkpt>
      <trkpt lat="46.08716" lon="4.44222">
        <ele>824.6</ele>
        <time>2025-10-04T10:58:56Z</time>
      </trkpt>
      <trkpt lat="46.08714" lon="4.44224">
        <ele>824.6</ele>
        <time>2025-10-04T10:58:57Z</time>
      </trkpt>
      <trkpt lat="46.08713" lon="4.44225">
        <ele>824.6</ele>
        <time>2025-10-04T10:58:58Z</time>
      </trkpt>
      <trkpt lat="46.08711" lon="4.44228">
        <ele>825</ele>
        <time>2025-10-04T10:58:59Z</time>
      </trkpt>
      <trkpt lat="46.0871" lon="4.44229">
        <ele>825</ele>
        <time>2025-10-04T10:59:00Z</time>
      </trkpt>
      <trkpt lat="46.08708" lon="4.44231">
        <ele>825.2</ele>
        <time>2025-10-04T10:59:01Z</time>
      </trkpt>
      <trkpt lat="46.08706" lon="4.44232">
        <ele>825.2</ele>
        <time>2025-10-04T10:59:02Z</time>
      </trkpt>
      <trkpt lat="46.08704" lon="4.44233">
        <ele>825.4</ele>
        <time>2025-10-04T10:59:03Z</time>
      </trkpt>
      <trkpt lat="46.08702" lon="4.44233">
        <ele>825.8</ele>
        <time>2025-10-04T10:59:04Z</time>
      </trkpt>
      <trkpt lat="46.087" lon="4.44234">
        <ele>825.8</ele>
        <time>2025-10-04T10:59:05Z</time>
      </trkpt>
      <trkpt lat="46.08698" lon="4.44234">
        <ele>825.8</ele>
        <time>2025-10-04T10:59:06Z</time>
      </trkpt>
      <trkpt lat="46.08697" lon="4.44235">
        <ele>826</ele>
        <time>2025-10-04T10:59:07Z</time>
      </trkpt>
      <trkpt lat="46.08695" lon="4.44236">
        <ele>826</ele>
        <time>2025-10-04T10:59:08Z</time>
      </trkpt>
      <trkpt lat="46.08694" lon="4.44236">
        <ele>826.2</ele>
        <time>2025-10-04T10:59:09Z</time>
      </trkpt>
      <trkpt lat="46.08692" lon="4.44237">
        <ele>826.2</ele>
        <time>2025-10-04T10:59:10Z</time>
      </trkpt>
      <trkpt lat="46.0869" lon="4.44238">
        <ele>826.6</ele>
        <time>2025-10-04T10:59:11Z</time>
      </trkpt>
      <trkpt lat="46.08689" lon="4.44239">
        <ele>826.8</ele>
        <time>2025-10-04T10:59:12Z</time>
      </trkpt>
      <trkpt lat="46.08688" lon="4.4424">
        <ele>827.2</ele>
        <time>2025-10-04T10:59:13Z</time>
      </trkpt>
      <trkpt lat="46.08687" lon="4.44241">
        <ele>827.2</ele>
        <time>2025-10-04T10:59:14Z</time>
      </trkpt>
      <trkpt lat="46.08685" lon="4.44241">
        <ele>827.2</ele>
        <time>2025-10-04T10:59:15Z</time>
      </trkpt>
      <trkpt lat="46.08684" lon="4.44242">
        <ele>827.6</ele>
        <time>2025-10-04T10:59:16Z</time>
      </trkpt>
      <trkpt lat="46.08682" lon="4.44243">
        <ele>827.8</ele>
        <time>2025-10-04T10:59:17Z</time>
      </trkpt>
      <trkpt lat="46.08681" lon="4.44243">
        <ele>827.8</ele>
        <time>2025-10-04T10:59:18Z</time>
      </trkpt>
      <trkpt lat="46.08679" lon="4.44244">
        <ele>827.8</ele>
        <time>2025-10-04T10:59:19Z</time>
      </trkpt>
      <trkpt lat="46.08678" lon="4.44245">
        <ele>828.2</ele>
        <time>2025-10-04T10:59:20Z</time>
      </trkpt>
      <trkpt lat="46.08677" lon="4.44245">
        <ele>828.6</ele>
        <time>2025-10-04T10:59:21Z</time>
      </trkpt>
      <trkpt lat="46.08675" lon="4.44246">
        <ele>828.6</ele>
        <time>2025-10-04T10:59:22Z</time>
      </trkpt>
      <trkpt lat="46.08674" lon="4.44247">
        <ele>828.6</ele>
        <time>2025-10-04T10:59:23Z</time>
      </trkpt>
      <trkpt lat="46.08672" lon="4.44248">
        <ele>829.2</ele>
        <time>2025-10-04T10:59:24Z</time>
      </trkpt>
      <trkpt lat="46.08671" lon="4.44249">
        <ele>829.2</ele>
        <time>2025-10-04T10:59:25Z</time>
      </trkpt>
      <trkpt lat="46.0867" lon="4.4425">
        <ele>829.6</ele>
        <time>2025-10-04T10:59:26Z</time>
      </trkpt>
      <trkpt lat="46.0867" lon="4.44251">
        <ele>829.8</ele>
        <time>2025-10-04T10:59:27Z</time>
      </trkpt>
      <trkpt lat="46.08668" lon="4.44252">
        <ele>830.2</ele>
        <time>2025-10-04T10:59:28Z</time>
      </trkpt>
      <trkpt lat="46.08668" lon="4.44252">
        <ele>830.2</ele>
        <time>2025-10-04T10:59:29Z</time>
      </trkpt>
      <trkpt lat="46.08666" lon="4.44253">
        <ele>830.4</ele>
        <time>2025-10-04T10:59:30Z</time>
      </trkpt>
      <trkpt lat="46.08665" lon="4.44254">
        <ele>831</ele>
        <time>2025-10-04T10:59:31Z</time>
      </trkpt>
      <trkpt lat="46.08663" lon="4.44255">
        <ele>831</ele>
        <time>2025-10-04T10:59:32Z</time>
      </trkpt>
      <trkpt lat="46.08662" lon="4.44257">
        <ele>830.6</ele>
        <time>2025-10-04T10:59:33Z</time>
      </trkpt>
      <trkpt lat="46.0866" lon="4.44258">
        <ele>831</ele>
        <time>2025-10-04T10:59:34Z</time>
      </trkpt>
      <trkpt lat="46.08659" lon="4.44259">
        <ele>831.4</ele>
        <time>2025-10-04T10:59:35Z</time>
      </trkpt>
      <trkpt lat="46.08657" lon="4.4426">
        <ele>831.4</ele>
        <time>2025-10-04T10:59:36Z</time>
      </trkpt>
      <trkpt lat="46.08656" lon="4.4426">
        <ele>831.8</ele>
        <time>2025-10-04T10:59:37Z</time>
      </trkpt>
      <trkpt lat="46.08655" lon="4.4426">
        <ele>832</ele>
        <time>2025-10-04T10:59:38Z</time>
      </trkpt>
      <trkpt lat="46.08654" lon="4.4426">
        <ele>832.2</ele>
        <time>2025-10-04T10:59:39Z</time>
      </trkpt>
      <trkpt lat="46.08653" lon="4.4426">
        <ele>832.6</ele>
        <time>2025-10-04T10:59:40Z</time>
      </trkpt>
      <trkpt lat="46.08652" lon="4.4426">
        <ele>832.6</ele>
        <time>2025-10-04T10:59:41Z</time>
      </trkpt>
      <trkpt lat="46.08651" lon="4.4426">
        <ele>832.8</ele>
        <time>2025-10-04T10:59:42Z</time>
      </trkpt>
      <trkpt lat="46.0865" lon="4.4426">
        <ele>832.8</ele>
        <time>2025-10-04T10:59:43Z</time>
      </trkpt>
      <trkpt lat="46.08649" lon="4.4426">
        <ele>833.2</ele>
        <time>2025-10-04T10:59:44Z</time>
      </trkpt>
      <trkpt lat="46.08649" lon="4.4426">
        <ele>833.2</ele>
        <time>2025-10-04T10:59:45Z</time>
      </trkpt>
      <trkpt lat="46.08648" lon="4.4426">
        <ele>833.4</ele>
        <time>2025-10-04T10:59:46Z</time>
      </trkpt>
      <trkpt lat="46.08648" lon="4.44261">
        <ele>833.4</ele>
        <time>2025-10-04T10:59:47Z</time>
      </trkpt>
      <trkpt lat="46.08647" lon="4.44261">
        <ele>833.8</ele>
        <time>2025-10-04T10:59:48Z</time>
      </trkpt>
      <trkpt lat="46.08646" lon="4.44261">
        <ele>833.8</ele>
        <time>2025-10-04T10:59:49Z</time>
      </trkpt>
      <trkpt lat="46.08646" lon="4.44261">
        <ele>834</ele>
        <time>2025-10-04T10:59:50Z</time>
      </trkpt>
      <trkpt lat="46.08645" lon="4.44262">
        <ele>834</ele>
        <time>2025-10-04T10:59:51Z</time>
      </trkpt>
      <trkpt lat="46.08643" lon="4.44262">
        <ele>834.2</ele>
        <time>2025-10-04T10:59:52Z</time>
      </trkpt>
      <trkpt lat="46.08642" lon="4.44263">
        <ele>834.2</ele>
        <time>2025-10-04T10:59:53Z</time>
      </trkpt>
      <trkpt lat="46.0864" lon="4.44263">
        <ele>834.2</ele>
        <time>2025-10-04T10:59:54Z</time>
      </trkpt>
      <trkpt lat="46.08639" lon="4.44263">
        <ele>834.4</ele>
        <time>2025-10-04T10:59:55Z</time>
      </trkpt>
      <trkpt lat="46.08638" lon="4.44264">
        <ele>834.8</ele>
        <time>2025-10-04T10:59:56Z</time>
      </trkpt>
      <trkpt lat="46.08637" lon="4.44264">
        <ele>834.8</ele>
        <time>2025-10-04T10:59:57Z</time>
      </trkpt>
      <trkpt lat="46.08636" lon="4.44265">
        <ele>835</ele>
        <time>2025-10-04T10:59:58Z</time>
      </trkpt>
      <trkpt lat="46.08634" lon="4.44265">
        <ele>835.2</ele>
        <time>2025-10-04T10:59:59Z</time>
      </trkpt>
      <trkpt lat="46.08632" lon="4.44265">
        <ele>835.2</ele>
        <time>2025-10-04T11:00:00Z</time>
      </trkpt>
      <trkpt lat="46.0863" lon="4.44266">
        <ele>835.6</ele>
        <time>2025-10-04T11:00:01Z</time>
      </trkpt>
      <trkpt lat="46.08629" lon="4.44266">
        <ele>835.6</ele>
        <time>2025-10-04T11:00:02Z</time>
      </trkpt>
      <trkpt lat="46.08628" lon="4.44267">
        <ele>835.8</ele>
        <time>2025-10-04T11:00:03Z</time>
      </trkpt>
      <trkpt lat="46.08627" lon="4.44267">
        <ele>836</ele>
        <time>2025-10-04T11:00:04Z</time>
      </trkpt>
      <trkpt lat="46.08625" lon="4.44268">
        <ele>836.4</ele>
        <time>2025-10-04T11:00:05Z</time>
      </trkpt>
      <trkpt lat="46.08625" lon="4.44268">
        <ele>836.8</ele>
        <time>2025-10-04T11:00:06Z</time>
      </trkpt>
      <trkpt lat="46.08624" lon="4.44268">
        <ele>837.2</ele>
        <time>2025-10-04T11:00:07Z</time>
      </trkpt>
      <trkpt lat="46.08624" lon="4.44269">
        <ele>837.4</ele>
        <time>2025-10-04T11:00:08Z</time>
      </trkpt>
      <trkpt lat="46.08623" lon="4.4427">
        <ele>837.8</ele>
        <time>2025-10-04T11:00:09Z</time>
      </trkpt>
      <trkpt lat="46.08622" lon="4.4427">
        <ele>838</ele>
        <time>2025-10-04T11:00:10Z</time>
      </trkpt>
      <trkpt lat="46.08621" lon="4.4427">
        <ele>838.2</ele>
        <time>2025-10-04T11:00:11Z</time>
      </trkpt>
      <trkpt lat="46.0862" lon="4.44271">
        <ele>838.6</ele>
        <time>2025-10-04T11:00:12Z</time>
      </trkpt>
      <trkpt lat="46.0862" lon="4.44271">
        <ele>838.6</ele>
        <time>2025-10-04T11:00:13Z</time>
      </trkpt>
      <trkpt lat="46.08619" lon="4.44271">
        <ele>839</ele>
        <time>2025-10-04T11:00:14Z</time>
      </trkpt>
      <trkpt lat="46.08619" lon="4.44272">
        <ele>839</ele>
        <time>2025-10-04T11:00:15Z</time>
      </trkpt>
      <trkpt lat="46.08617" lon="4.44272">
        <ele>839.2</ele>
        <time>2025-10-04T11:00:16Z</time>
      </trkpt>
      <trkpt lat="46.08616" lon="4.44272">
        <ele>839.2</ele>
        <time>2025-10-04T11:00:17Z</time>
      </trkpt>
      <trkpt lat="46.08613" lon="4.44273">
        <ele>839.4</ele>
        <time>2025-10-04T11:00:18Z</time>
      </trkpt>
      <trkpt lat="46.08611" lon="4.44273">
        <ele>839.4</ele>
        <time>2025-10-04T11:00:19Z</time>
      </trkpt>
      <trkpt lat="46.08609" lon="4.44273">
        <ele>839.8</ele>
        <time>2025-10-04T11:00:20Z</time>
      </trkpt>
      <trkpt lat="46.08606" lon="4.44273">
        <ele>840</ele>
        <time>2025-10-04T11:00:21Z</time>
      </trkpt>
      <trkpt lat="46.08606" lon="4.44273">
        <ele>840</ele>
        <time>2025-10-04T11:00:22Z</time>
      </trkpt>
      <trkpt lat="46.08604" lon="4.44274">
        <ele>840.4</ele>
        <time>2025-10-04T11:00:23Z</time>
      </trkpt>
      <trkpt lat="46.08602" lon="4.44274">
        <ele>840.4</ele>
        <time>2025-10-04T11:00:24Z</time>
      </trkpt>
      <trkpt lat="46.086" lon="4.44275">
        <ele>840.8</ele>
        <time>2025-10-04T11:00:25Z</time>
      </trkpt>
      <trkpt lat="46.08598" lon="4.44275">
        <ele>841</ele>
        <time>2025-10-04T11:00:26Z</time>
      </trkpt>
      <trkpt lat="46.08596" lon="4.44275">
        <ele>841</ele>
        <time>2025-10-04T11:00:27Z</time>
      </trkpt>
      <trkpt lat="46.08596" lon="4.44274">
        <ele>841.4</ele>
        <time>2025-10-04T11:00:28Z</time>
      </trkpt>
      <trkpt lat="46.08594" lon="4.44274">
        <ele>841.4</ele>
        <time>2025-10-04T11:00:29Z</time>
      </trkpt>
      <trkpt lat="46.08593" lon="4.44274">
        <ele>841.8</ele>
        <time>2025-10-04T11:00:30Z</time>
      </trkpt>
      <trkpt lat="46.08592" lon="4.44275">
        <ele>842.2</ele>
        <time>2025-10-04T11:00:31Z</time>
      </trkpt>
      <trkpt lat="46.08591" lon="4.44275">
        <ele>842.4</ele>
        <time>2025-10-04T11:00:32Z</time>
      </trkpt>
      <trkpt lat="46.0859" lon="4.44275">
        <ele>842.8</ele>
        <time>2025-10-04T11:00:33Z</time>
      </trkpt>
      <trkpt lat="46.08589" lon="4.44275">
        <ele>843</ele>
        <time>2025-10-04T11:00:34Z</time>
      </trkpt>
      <trkpt lat="46.08588" lon="4.44275">
        <ele>843.2</ele>
        <time>2025-10-04T11:00:35Z</time>
      </trkpt>
      <trkpt lat="46.08586" lon="4.44275">
        <ele>843.2</ele>
        <time>2025-10-04T11:00:36Z</time>
      </trkpt>
      <trkpt lat="46.08584" lon="4.44274">
        <ele>843.4</ele>
        <time>2025-10-04T11:00:37Z</time>
      </trkpt>
      <trkpt lat="46.08583" lon="4.44274">
        <ele>843.8</ele>
        <time>2025-10-04T11:00:38Z</time>
      </trkpt>
      <trkpt lat="46.08581" lon="4.44275">
        <ele>843.8</ele>
        <time>2025-10-04T11:00:39Z</time>
      </trkpt>
      <trkpt lat="46.0858" lon="4.44275">
        <ele>843.8</ele>
        <time>2025-10-04T11:00:40Z</time>
      </trkpt>
      <trkpt lat="46.08578" lon="4.44276">
        <ele>843.8</ele>
        <time>2025-10-04T11:00:41Z</time>
      </trkpt>
      <trkpt lat="46.08576" lon="4.44277">
        <ele>844</ele>
        <time>2025-10-04T11:00:42Z</time>
      </trkpt>
      <trkpt lat="46.08575" lon="4.44278">
        <ele>844</ele>
        <time>2025-10-04T11:00:43Z</time>
      </trkpt>
      <trkpt lat="46.08573" lon="4.44278">
        <ele>844</ele>
        <time>2025-10-04T11:00:44Z</time>
      </trkpt>
      <trkpt lat="46.08572" lon="4.44278">
        <ele>844.4</ele>
        <time>2025-10-04T11:00:45Z</time>
      </trkpt>
      <trkpt lat="46.08571" lon="4.44278">
        <ele>844.6</ele>
        <time>2025-10-04T11:00:46Z</time>
      </trkpt>
      <trkpt lat="46.0857" lon="4.44278">
        <ele>845</ele>
        <time>2025-10-04T11:00:47Z</time>
      </trkpt>
      <trkpt lat="46.08568" lon="4.44278">
        <ele>845.2</ele>
        <time>2025-10-04T11:00:48Z</time>
      </trkpt>
      <trkpt lat="46.08567" lon="4.44278">
        <ele>845.6</ele>
        <time>2025-10-04T11:00:49Z</time>
      </trkpt>
      <trkpt lat="46.08565" lon="4.44277">
        <ele>845.8</ele>
        <time>2025-10-04T11:00:50Z</time>
      </trkpt>
      <trkpt lat="46.08563" lon="4.44277">
        <ele>846.2</ele>
        <time>2025-10-04T11:00:51Z</time>
      </trkpt>
      <trkpt lat="46.08562" lon="4.44277">
        <ele>846.4</ele>
        <time>2025-10-04T11:00:52Z</time>
      </trkpt>
      <trkpt lat="46.0856" lon="4.44277">
        <ele>846.4</ele>
        <time>2025-10-04T11:00:53Z</time>
      </trkpt>
      <trkpt lat="46.08559" lon="4.44276">
        <ele>846.8</ele>
        <time>2025-10-04T11:00:54Z</time>
      </trkpt>
      <trkpt lat="46.08557" lon="4.44276">
        <ele>846.8</ele>
        <time>2025-10-04T11:00:55Z</time>
      </trkpt>
      <trkpt lat="46.08556" lon="4.44275">
        <ele>847.2</ele>
        <time>2025-10-04T11:00:56Z</time>
      </trkpt>
      <trkpt lat="46.08554" lon="4.44275">
        <ele>847.6</ele>
        <time>2025-10-04T11:00:57Z</time>
      </trkpt>
      <trkpt lat="46.08552" lon="4.44276">
        <ele>847.6</ele>
        <time>2025-10-04T11:00:58Z</time>
      </trkpt>
      <trkpt lat="46.08551" lon="4.44277">
        <ele>848</ele>
        <time>2025-10-04T11:00:59Z</time>
      </trkpt>
      <trkpt lat="46.0855" lon="4.44277">
        <ele>848.2</ele>
        <time>2025-10-04T11:01:00Z</time>
      </trkpt>
      <trkpt lat="46.08549" lon="4.44277">
        <ele>848.6</ele>
        <time>2025-10-04T11:01:01Z</time>
      </trkpt>
      <trkpt lat="46.08549" lon="4.44277">
        <ele>848.6</ele>
        <time>2025-10-04T11:01:02Z</time>
      </trkpt>
      <trkpt lat="46.08548" lon="4.44276">
        <ele>848.6</ele>
        <time>2025-10-04T11:01:03Z</time>
      </trkpt>
      <trkpt lat="46.08547" lon="4.44275">
        <ele>848.8</ele>
        <time>2025-10-04T11:01:04Z</time>
      </trkpt>
      <trkpt lat="46.08546" lon="4.44274">
        <ele>848.8</ele>
        <time>2025-10-04T11:01:05Z</time>
      </trkpt>
      <trkpt lat="46.08545" lon="4.44273">
        <ele>848.8</ele>
        <time>2025-10-04T11:01:06Z</time>
      </trkpt>
      <trkpt lat="46.08544" lon="4.44272">
        <ele>849.4</ele>
        <time>2025-10-04T11:01:07Z</time>
      </trkpt>
      <trkpt lat="46.08543" lon="4.44272">
        <ele>849.6</ele>
        <time>2025-10-04T11:01:08Z</time>
      </trkpt>
      <trkpt lat="46.08543" lon="4.44271">
        <ele>849.6</ele>
        <time>2025-10-04T11:01:09Z</time>
      </trkpt>
      <trkpt lat="46.08542" lon="4.44271">
        <ele>850</ele>
        <time>2025-10-04T11:01:10Z</time>
      </trkpt>
      <trkpt lat="46.08541" lon="4.4427">
        <ele>850.2</ele>
        <time>2025-10-04T11:01:11Z</time>
      </trkpt>
      <trkpt lat="46.0854" lon="4.44269">
        <ele>850.6</ele>
        <time>2025-10-04T11:01:12Z</time>
      </trkpt>
      <trkpt lat="46.0854" lon="4.44267">
        <ele>850.8</ele>
        <time>2025-10-04T11:01:13Z</time>
      </trkpt>
      <trkpt lat="46.08539" lon="4.44265">
        <ele>851</ele>
        <time>2025-10-04T11:01:14Z</time>
      </trkpt>
      <trkpt lat="46.08538" lon="4.44264">
        <ele>851.4</ele>
        <time>2025-10-04T11:01:15Z</time>
      </trkpt>
      <trkpt lat="46.08538" lon="4.44263">
        <ele>851.4</ele>
        <time>2025-10-04T11:01:16Z</time>
      </trkpt>
      <trkpt lat="46.08537" lon="4.44262">
        <ele>851.6</ele>
        <time>2025-10-04T11:01:17Z</time>
      </trkpt>
      <trkpt lat="46.08535" lon="4.44261">
        <ele>851.6</ele>
        <time>2025-10-04T11:01:18Z</time>
      </trkpt>
      <trkpt lat="46.08533" lon="4.44261">
        <ele>852</ele>
        <time>2025-10-04T11:01:19Z</time>
      </trkpt>
      <trkpt lat="46.08532" lon="4.4426">
        <ele>852.4</ele>
        <time>2025-10-04T11:01:20Z</time>
      </trkpt>
      <trkpt lat="46.0853" lon="4.4426">
        <ele>852.8</ele>
        <time>2025-10-04T11:01:21Z</time>
      </trkpt>
      <trkpt lat="46.08527" lon="4.4426">
        <ele>853.2</ele>
        <time>2025-10-04T11:01:22Z</time>
      </trkpt>
      <trkpt lat="46.08525" lon="4.4426">
        <ele>853.6</ele>
        <time>2025-10-04T11:01:23Z</time>
      </trkpt>
      <trkpt lat="46.08524" lon="4.4426">
        <ele>853.8</ele>
        <time>2025-10-04T11:01:24Z</time>
      </trkpt>
      <trkpt lat="46.08523" lon="4.4426">
        <ele>853.8</ele>
        <time>2025-10-04T11:01:25Z</time>
      </trkpt>
      <trkpt lat="46.08521" lon="4.4426">
        <ele>854.2</ele>
        <time>2025-10-04T11:01:26Z</time>
      </trkpt>
      <trkpt lat="46.08519" lon="4.4426">
        <ele>854.2</ele>
        <time>2025-10-04T11:01:27Z</time>
      </trkpt>
      <trkpt lat="46.08517" lon="4.44259">
        <ele>854.6</ele>
        <time>2025-10-04T11:01:28Z</time>
      </trkpt>
      <trkpt lat="46.08515" lon="4.44258">
        <ele>854.6</ele>
        <time>2025-10-04T11:01:29Z</time>
      </trkpt>
      <trkpt lat="46.08514" lon="4.44256">
        <ele>854.8</ele>
        <time>2025-10-04T11:01:30Z</time>
      </trkpt>
      <trkpt lat="46.08512" lon="4.44255">
        <ele>855</ele>
        <time>2025-10-04T11:01:31Z</time>
      </trkpt>
      <trkpt lat="46.08511" lon="4.44253">
        <ele>855</ele>
        <time>2025-10-04T11:01:32Z</time>
      </trkpt>
      <trkpt lat="46.0851" lon="4.44252">
        <ele>855.4</ele>
        <time>2025-10-04T11:01:33Z</time>
      </trkpt>
      <trkpt lat="46.0851" lon="4.44251">
        <ele>855.4</ele>
        <time>2025-10-04T11:01:34Z</time>
      </trkpt>
      <trkpt lat="46.0851" lon="4.44249">
        <ele>855.8</ele>
        <time>2025-10-04T11:01:35Z</time>
      </trkpt>
      <trkpt lat="46.0851" lon="4.44248">
        <ele>855.8</ele>
        <time>2025-10-04T11:01:36Z</time>
      </trkpt>
      <trkpt lat="46.0851" lon="4.44246">
        <ele>856.2</ele>
        <time>2025-10-04T11:01:37Z</time>
      </trkpt>
      <trkpt lat="46.08509" lon="4.44245">
        <ele>856.2</ele>
        <time>2025-10-04T11:01:38Z</time>
      </trkpt>
      <trkpt lat="46.08507" lon="4.44244">
        <ele>856.2</ele>
        <time>2025-10-04T11:01:39Z</time>
      </trkpt>
      <trkpt lat="46.08506" lon="4.44244">
        <ele>856.6</ele>
        <time>2025-10-04T11:01:40Z</time>
      </trkpt>
      <trkpt lat="46.08505" lon="4.44243">
        <ele>856.6</ele>
        <time>2025-10-04T11:01:41Z</time>
      </trkpt>
      <trkpt lat="46.08504" lon="4.44243">
        <ele>857</ele>
        <time>2025-10-04T11:01:42Z</time>
      </trkpt>
      <trkpt lat="46.08503" lon="4.44242">
        <ele>857.4</ele>
        <time>2025-10-04T11:01:43Z</time>
      </trkpt>
      <trkpt lat="46.08502" lon="4.44241">
        <ele>857.8</ele>
        <time>2025-10-04T11:01:44Z</time>
      </trkpt>
      <trkpt lat="46.085" lon="4.4424">
        <ele>857.8</ele>
        <time>2025-10-04T11:01:45Z</time>
      </trkpt>
      <trkpt lat="46.08499" lon="4.44239">
        <ele>858.2</ele>
        <time>2025-10-04T11:01:46Z</time>
      </trkpt>
      <trkpt lat="46.08498" lon="4.44239">
        <ele>858.6</ele>
        <time>2025-10-04T11:01:47Z</time>
      </trkpt>
      <trkpt lat="46.08496" lon="4.44238">
        <ele>859</ele>
        <time>2025-10-04T11:01:48Z</time>
      </trkpt>
      <trkpt lat="46.08495" lon="4.44238">
        <ele>859</ele>
        <time>2025-10-04T11:01:49Z</time>
      </trkpt>
      <trkpt lat="46.08494" lon="4.44237">
        <ele>859.6</ele>
        <time>2025-10-04T11:01:50Z</time>
      </trkpt>
      <trkpt lat="46.08493" lon="4.44236">
        <ele>859.8</ele>
        <time>2025-10-04T11:01:51Z</time>
      </trkpt>
      <trkpt lat="46.08492" lon="4.44234">
        <ele>860.2</ele>
        <time>2025-10-04T11:01:52Z</time>
      </trkpt>
      <trkpt lat="46.08491" lon="4.44234">
        <ele>860.4</ele>
        <time>2025-10-04T11:01:53Z</time>
      </trkpt>
      <trkpt lat="46.08491" lon="4.44233">
        <ele>860.6</ele>
        <time>2025-10-04T11:01:54Z</time>
      </trkpt>
      <trkpt lat="46.08491" lon="4.44233">
        <ele>861</ele>
        <time>2025-10-04T11:01:55Z</time>
      </trkpt>
      <trkpt lat="46.0849" lon="4.44233">
        <ele>861.4</ele>
        <time>2025-10-04T11:01:56Z</time>
      </trkpt>
      <trkpt lat="46.08489" lon="4.44232">
        <ele>861.4</ele>
        <time>2025-10-04T11:01:57Z</time>
      </trkpt>
      <trkpt lat="46.08488" lon="4.4423">
        <ele>861.8</ele>
        <time>2025-10-04T11:01:58Z</time>
      </trkpt>
      <trkpt lat="46.08486" lon="4.44229">
        <ele>862</ele>
        <time>2025-10-04T11:01:59Z</time>
      </trkpt>
      <trkpt lat="46.08485" lon="4.44228">
        <ele>862.2</ele>
        <time>2025-10-04T11:02:00Z</time>
      </trkpt>
      <trkpt lat="46.08483" lon="4.44227">
        <ele>862.2</ele>
        <time>2025-10-04T11:02:01Z</time>
      </trkpt>
      <trkpt lat="46.08482" lon="4.44226">
        <ele>862.6</ele>
        <time>2025-10-04T11:02:02Z</time>
      </trkpt>
      <trkpt lat="46.08482" lon="4.44225">
        <ele>862.6</ele>
        <time>2025-10-04T11:02:03Z</time>
      </trkpt>
      <trkpt lat="46.08481" lon="4.44223">
        <ele>862.8</ele>
        <time>2025-10-04T11:02:04Z</time>
      </trkpt>
      <trkpt lat="46.0848" lon="4.44221">
        <ele>862.8</ele>
        <time>2025-10-04T11:02:05Z</time>
      </trkpt>
      <trkpt lat="46.08479" lon="4.4422">
        <ele>862.8</ele>
        <time>2025-10-04T11:02:06Z</time>
      </trkpt>
      <trkpt lat="46.08478" lon="4.44219">
        <ele>863.2</ele>
        <time>2025-10-04T11:02:07Z</time>
      </trkpt>
      <trkpt lat="46.08477" lon="4.44218">
        <ele>863.2</ele>
        <time>2025-10-04T11:02:08Z</time>
      </trkpt>
      <trkpt lat="46.08477" lon="4.44218">
        <ele>863.4</ele>
        <time>2025-10-04T11:02:09Z</time>
      </trkpt>
      <trkpt lat="46.08476" lon="4.44217">
        <ele>863.4</ele>
        <time>2025-10-04T11:02:10Z</time>
      </trkpt>
      <trkpt lat="46.08475" lon="4.44215">
        <ele>863.8</ele>
        <time>2025-10-04T11:02:11Z</time>
      </trkpt>
      <trkpt lat="46.08474" lon="4.44214">
        <ele>863.8</ele>
        <time>2025-10-04T11:02:12Z</time>
      </trkpt>
      <trkpt lat="46.08473" lon="4.44213">
        <ele>864.2</ele>
        <time>2025-10-04T11:02:13Z</time>
      </trkpt>
      <trkpt lat="46.08472" lon="4.44212">
        <ele>864.6</ele>
        <time>2025-10-04T11:02:14Z</time>
      </trkpt>
      <trkpt lat="46.0847" lon="4.44211">
        <ele>864.6</ele>
        <time>2025-10-04T11:02:15Z</time>
      </trkpt>
      <trkpt lat="46.08469" lon="4.4421">
        <ele>864.8</ele>
        <time>2025-10-04T11:02:16Z</time>
      </trkpt>
      <trkpt lat="46.08469" lon="4.44209">
        <ele>865.2</ele>
        <time>2025-10-04T11:02:17Z</time>
      </trkpt>
      <trkpt lat="46.08468" lon="4.44207">
        <ele>865.4</ele>
        <time>2025-10-04T11:02:18Z</time>
      </trkpt>
      <trkpt lat="46.08467" lon="4.44206">
        <ele>866</ele>
        <time>2025-10-04T11:02:19Z</time>
      </trkpt>
      <trkpt lat="46.08465" lon="4.44204">
        <ele>866.4</ele>
        <time>2025-10-04T11:02:20Z</time>
      </trkpt>
      <trkpt lat="46.08464" lon="4.44204">
        <ele>866.4</ele>
        <time>2025-10-04T11:02:21Z</time>
      </trkpt>
      <trkpt lat="46.08462" lon="4.44204">
        <ele>866.8</ele>
        <time>2025-10-04T11:02:22Z</time>
      </trkpt>
      <trkpt lat="46.08461" lon="4.44203">
        <ele>866.8</ele>
        <time>2025-10-04T11:02:23Z</time>
      </trkpt>
      <trkpt lat="46.08459" lon="4.44203">
        <ele>865.2</ele>
        <time>2025-10-04T11:02:24Z</time>
      </trkpt>
      <trkpt lat="46.08457" lon="4.44203">
        <ele>866</ele>
        <time>2025-10-04T11:02:25Z</time>
      </trkpt>
      <trkpt lat="46.08455" lon="4.44202">
        <ele>866.4</ele>
        <time>2025-10-04T11:02:26Z</time>
      </trkpt>
      <trkpt lat="46.08454" lon="4.44201">
        <ele>866.8</ele>
        <time>2025-10-04T11:02:27Z</time>
      </trkpt>
      <trkpt lat="46.08453" lon="4.442">
        <ele>867.4</ele>
        <time>2025-10-04T11:02:28Z</time>
      </trkpt>
      <trkpt lat="46.08452" lon="4.44199">
        <ele>867.8</ele>
        <time>2025-10-04T11:02:29Z</time>
      </trkpt>
      <trkpt lat="46.08451" lon="4.44197">
        <ele>868</ele>
        <time>2025-10-04T11:02:30Z</time>
      </trkpt>
      <trkpt lat="46.0845" lon="4.44196">
        <ele>868.4</ele>
        <time>2025-10-04T11:02:31Z</time>
      </trkpt>
      <trkpt lat="46.08449" lon="4.44195">
        <ele>868.6</ele>
        <time>2025-10-04T11:02:32Z</time>
      </trkpt>
      <trkpt lat="46.08447" lon="4.44194">
        <ele>869</ele>
        <time>2025-10-04T11:02:33Z</time>
      </trkpt>
      <trkpt lat="46.08446" lon="4.44194">
        <ele>869.2</ele>
        <time>2025-10-04T11:02:34Z</time>
      </trkpt>
      <trkpt lat="46.08446" lon="4.44194">
        <ele>869.2</ele>
        <time>2025-10-04T11:02:35Z</time>
      </trkpt>
      <trkpt lat="46.08445" lon="4.44193">
        <ele>869.6</ele>
        <time>2025-10-04T11:02:36Z</time>
      </trkpt>
      <trkpt lat="46.08444" lon="4.44192">
        <ele>869.6</ele>
        <time>2025-10-04T11:02:37Z</time>
      </trkpt>
      <trkpt lat="46.08443" lon="4.44191">
        <ele>869.6</ele>
        <time>2025-10-04T11:02:38Z</time>
      </trkpt>
      <trkpt lat="46.08442" lon="4.44191">
        <ele>870</ele>
        <time>2025-10-04T11:02:39Z</time>
      </trkpt>
      <trkpt lat="46.0844" lon="4.4419">
        <ele>870</ele>
        <time>2025-10-04T11:02:40Z</time>
      </trkpt>
      <trkpt lat="46.08439" lon="4.4419">
        <ele>870.4</ele>
        <time>2025-10-04T11:02:41Z</time>
      </trkpt>
      <trkpt lat="46.08438" lon="4.44189">
        <ele>870.4</ele>
        <time>2025-10-04T11:02:42Z</time>
      </trkpt>
      <trkpt lat="46.08436" lon="4.44189">
        <ele>870.8</ele>
        <time>2025-10-04T11:02:43Z</time>
      </trkpt>
      <trkpt lat="46.08435" lon="4.44188">
        <ele>870.8</ele>
        <time>2025-10-04T11:02:44Z</time>
      </trkpt>
      <trkpt lat="46.08433" lon="4.44188">
        <ele>871</ele>
        <time>2025-10-04T11:02:45Z</time>
      </trkpt>
      <trkpt lat="46.08431" lon="4.44187">
        <ele>871</ele>
        <time>2025-10-04T11:02:46Z</time>
      </trkpt>
      <trkpt lat="46.0843" lon="4.44187">
        <ele>871</ele>
        <time>2025-10-04T11:02:47Z</time>
      </trkpt>
      <trkpt lat="46.08428" lon="4.44187">
        <ele>871</ele>
        <time>2025-10-04T11:02:48Z</time>
      </trkpt>
      <trkpt lat="46.08427" lon="4.44186">
        <ele>871</ele>
        <time>2025-10-04T11:02:49Z</time>
      </trkpt>
      <trkpt lat="46.08426" lon="4.44186">
        <ele>871</ele>
        <time>2025-10-04T11:02:50Z</time>
      </trkpt>
      <trkpt lat="46.08425" lon="4.44186">
        <ele>871</ele>
        <time>2025-10-04T11:02:51Z</time>
      </trkpt>
      <trkpt lat="46.08424" lon="4.44186">
        <ele>870.8</ele>
        <time>2025-10-04T11:02:52Z</time>
      </trkpt>
      <trkpt lat="46.08422" lon="4.44186">
        <ele>870.8</ele>
        <time>2025-10-04T11:02:53Z</time>
      </trkpt>
      <trkpt lat="46.08421" lon="4.44185">
        <ele>870.8</ele>
        <time>2025-10-04T11:02:54Z</time>
      </trkpt>
      <trkpt lat="46.0842" lon="4.44185">
        <ele>870.8</ele>
        <time>2025-10-04T11:02:55Z</time>
      </trkpt>
      <trkpt lat="46.08419" lon="4.44184">
        <ele>870.8</ele>
        <time>2025-10-04T11:02:56Z</time>
      </trkpt>
      <trkpt lat="46.08418" lon="4.44184">
        <ele>870.8</ele>
        <time>2025-10-04T11:02:57Z</time>
      </trkpt>
      <trkpt lat="46.08417" lon="4.44184">
        <ele>871.2</ele>
        <time>2025-10-04T11:02:58Z</time>
      </trkpt>
      <trkpt lat="46.08415" lon="4.44184">
        <ele>871.2</ele>
        <time>2025-10-04T11:02:59Z</time>
      </trkpt>
      <trkpt lat="46.08414" lon="4.44184">
        <ele>871.2</ele>
        <time>2025-10-04T11:03:00Z</time>
      </trkpt>
      <trkpt lat="46.08412" lon="4.44184">
        <ele>871.2</ele>
        <time>2025-10-04T11:03:01Z</time>
      </trkpt>
      <trkpt lat="46.08411" lon="4.44184">
        <ele>871.6</ele>
        <time>2025-10-04T11:03:02Z</time>
      </trkpt>
      <trkpt lat="46.0841" lon="4.44183">
        <ele>871.6</ele>
        <time>2025-10-04T11:03:03Z</time>
      </trkpt>
      <trkpt lat="46.08409" lon="4.44183">
        <ele>871.8</ele>
        <time>2025-10-04T11:03:04Z</time>
      </trkpt>
      <trkpt lat="46.08408" lon="4.44183">
        <ele>871.8</ele>
        <time>2025-10-04T11:03:05Z</time>
      </trkpt>
      <trkpt lat="46.08407" lon="4.44183">
        <ele>871.8</ele>
        <time>2025-10-04T11:03:06Z</time>
      </trkpt>
      <trkpt lat="46.08405" lon="4.44183">
        <ele>872.2</ele>
        <time>2025-10-04T11:03:07Z</time>
      </trkpt>
      <trkpt lat="46.08404" lon="4.44184">
        <ele>872.2</ele>
        <time>2025-10-04T11:03:08Z</time>
      </trkpt>
      <trkpt lat="46.08402" lon="4.44183">
        <ele>872.4</ele>
        <time>2025-10-04T11:03:09Z</time>
      </trkpt>
      <trkpt lat="46.08401" lon="4.44183">
        <ele>872.4</ele>
        <time>2025-10-04T11:03:10Z</time>
      </trkpt>
      <trkpt lat="46.084" lon="4.44183">
        <ele>872.4</ele>
        <time>2025-10-04T11:03:11Z</time>
      </trkpt>
      <trkpt lat="46.08397" lon="4.44183">
        <ele>872.4</ele>
        <time>2025-10-04T11:03:12Z</time>
      </trkpt>
      <trkpt lat="46.08396" lon="4.44183">
        <ele>872.8</ele>
        <time>2025-10-04T11:03:13Z</time>
      </trkpt>
      <trkpt lat="46.08394" lon="4.44183">
        <ele>873</ele>
        <time>2025-10-04T11:03:14Z</time>
      </trkpt>
      <trkpt lat="46.08393" lon="4.44183">
        <ele>873</ele>
        <time>2025-10-04T11:03:15Z</time>
      </trkpt>
      <trkpt lat="46.08392" lon="4.44182">
        <ele>873.2</ele>
        <time>2025-10-04T11:03:16Z</time>
      </trkpt>
      <trkpt lat="46.0839" lon="4.44182">
        <ele>873.2</ele>
        <time>2025-10-04T11:03:17Z</time>
      </trkpt>
      <trkpt lat="46.08388" lon="4.44182">
        <ele>873.2</ele>
        <time>2025-10-04T11:03:18Z</time>
      </trkpt>
      <trkpt lat="46.08386" lon="4.44182">
        <ele>873</ele>
        <time>2025-10-04T11:03:19Z</time>
      </trkpt>
      <trkpt lat="46.08383" lon="4.44182">
        <ele>873</ele>
        <time>2025-10-04T11:03:20Z</time>
      </trkpt>
      <trkpt lat="46.0838" lon="4.44182">
        <ele>872.6</ele>
        <time>2025-10-04T11:03:21Z</time>
      </trkpt>
      <trkpt lat="46.08377" lon="4.44182">
        <ele>872.6</ele>
        <time>2025-10-04T11:03:22Z</time>
      </trkpt>
      <trkpt lat="46.08373" lon="4.44182">
        <ele>872.6</ele>
        <time>2025-10-04T11:03:23Z</time>
      </trkpt>
      <trkpt lat="46.08369" lon="4.44182">
        <ele>872.4</ele>
        <time>2025-10-04T11:03:24Z</time>
      </trkpt>
      <trkpt lat="46.08365" lon="4.44182">
        <ele>871.8</ele>
        <time>2025-10-04T11:03:25Z</time>
      </trkpt>
      <trkpt lat="46.08361" lon="4.44183">
        <ele>871.8</ele>
        <time>2025-10-04T11:03:26Z</time>
      </trkpt>
      <trkpt lat="46.08356" lon="4.44184">
        <ele>871.6</ele>
        <time>2025-10-04T11:03:27Z</time>
      </trkpt>
      <trkpt lat="46.08351" lon="4.44185">
        <ele>871.6</ele>
        <time>2025-10-04T11:03:28Z</time>
      </trkpt>
      <trkpt lat="46.08347" lon="4.44188">
        <ele>870.8</ele>
        <time>2025-10-04T11:03:29Z</time>
      </trkpt>
      <trkpt lat="46.08341" lon="4.4419">
        <ele>870.8</ele>
        <time>2025-10-04T11:03:30Z</time>
      </trkpt>
      <trkpt lat="46.08336" lon="4.44192">
        <ele>869.8</ele>
        <time>2025-10-04T11:03:31Z</time>
      </trkpt>
      <trkpt lat="46.08329" lon="4.44195">
        <ele>869.6</ele>
        <time>2025-10-04T11:03:32Z</time>
      </trkpt>
      <trkpt lat="46.08323" lon="4.44199">
        <ele>868.6</ele>
        <time>2025-10-04T11:03:33Z</time>
      </trkpt>
      <trkpt lat="46.08317" lon="4.44203">
        <ele>867</ele>
        <time>2025-10-04T11:03:34Z</time>
      </trkpt>
      <trkpt lat="46.08312" lon="4.44207">
        <ele>866.6</ele>
        <time>2025-10-04T11:03:35Z</time>
      </trkpt>
      <trkpt lat="46.08303" lon="4.44209">
        <ele>866.2</ele>
        <time>2025-10-04T11:03:36Z</time>
      </trkpt>
      <trkpt lat="46.08296" lon="4.4421">
        <ele>865.8</ele>
        <time>2025-10-04T11:03:37Z</time>
      </trkpt>
      <trkpt lat="46.0829" lon="4.44212">
        <ele>865.4</ele>
        <time>2025-10-04T11:03:38Z</time>
      </trkpt>
      <trkpt lat="46.08283" lon="4.44214">
        <ele>864.2</ele>
        <time>2025-10-04T11:03:39Z</time>
      </trkpt>
      <trkpt lat="46.08275" lon="4.44215">
        <ele>863.6</ele>
        <time>2025-10-04T11:03:40Z</time>
      </trkpt>
      <trkpt lat="46.08267" lon="4.44217">
        <ele>862.8</ele>
        <time>2025-10-04T11:03:41Z</time>
      </trkpt>
      <trkpt lat="46.08258" lon="4.4422">
        <ele>861.8</ele>
        <time>2025-10-04T11:03:42Z</time>
      </trkpt>
      <trkpt lat="46.08253" lon="4.44218">
        <ele>860.2</ele>
        <time>2025-10-04T11:03:43Z</time>
      </trkpt>
      <trkpt lat="46.08245" lon="4.44219">
        <ele>858.6</ele>
        <time>2025-10-04T11:03:44Z</time>
      </trkpt>
      <trkpt lat="46.08238" lon="4.4422">
        <ele>858.8</ele>
        <time>2025-10-04T11:03:45Z</time>
      </trkpt>
      <trkpt lat="46.08229" lon="4.44222">
        <ele>857.8</ele>
        <time>2025-10-04T11:03:46Z</time>
      </trkpt>
      <trkpt lat="46.08219" lon="4.44221">
        <ele>856.4</ele>
        <time>2025-10-04T11:03:47Z</time>
      </trkpt>
      <trkpt lat="46.0821" lon="4.44222">
        <ele>855.8</ele>
        <time>2025-10-04T11:03:48Z</time>
      </trkpt>
      <trkpt lat="46.08204" lon="4.44216">
        <ele>856</ele>
        <time>2025-10-04T11:03:49Z</time>
      </trkpt>
      <trkpt lat="46.08196" lon="4.44216">
        <ele>855.4</ele>
        <time>2025-10-04T11:03:50Z</time>
      </trkpt>
      <trkpt lat="46.08191" lon="4.44216">
        <ele>854.8</ele>
        <time>2025-10-04T11:03:51Z</time>
      </trkpt>
      <trkpt lat="46.08184" lon="4.44217">
        <ele>854.6</ele>
        <time>2025-10-04T11:03:52Z</time>
      </trkpt>
      <trkpt lat="46.08176" lon="4.44217">
        <ele>853.2</ele>
        <time>2025-10-04T11:03:53Z</time>
      </trkpt>
      <trkpt lat="46.08169" lon="4.44218">
        <ele>852.6</ele>
        <time>2025-10-04T11:03:54Z</time>
      </trkpt>
      <trkpt lat="46.08162" lon="4.44219">
        <ele>851.6</ele>
        <time>2025-10-04T11:03:55Z</time>
      </trkpt>
      <trkpt lat="46.08154" lon="4.4422">
        <ele>850.6</ele>
        <time>2025-10-04T11:03:56Z</time>
      </trkpt>
      <trkpt lat="46.08147" lon="4.44219">
        <ele>850</ele>
        <time>2025-10-04T11:03:57Z</time>
      </trkpt>
      <trkpt lat="46.08135" lon="4.44228">
        <ele>849</ele>
        <time>2025-10-04T11:03:58Z</time>
      </trkpt>
      <trkpt lat="46.08125" lon="4.44231">
        <ele>849</ele>
        <time>2025-10-04T11:03:59Z</time>
      </trkpt>
      <trkpt lat="46.08115" lon="4.44234">
        <ele>848</ele>
        <time>2025-10-04T11:04:00Z</time>
      </trkpt>
      <trkpt lat="46.08107" lon="4.4424">
        <ele>848</ele>
        <time>2025-10-04T11:04:01Z</time>
      </trkpt>
      <trkpt lat="46.081" lon="4.44245">
        <ele>847.6</ele>
        <time>2025-10-04T11:04:02Z</time>
      </trkpt>
      <trkpt lat="46.08092" lon="4.4425">
        <ele>847.2</ele>
        <time>2025-10-04T11:04:03Z</time>
      </trkpt>
      <trkpt lat="46.08084" lon="4.44254">
        <ele>847</ele>
        <time>2025-10-04T11:04:04Z</time>
      </trkpt>
      <trkpt lat="46.0808" lon="4.4426">
        <ele>847</ele>
        <time>2025-10-04T11:04:05Z</time>
      </trkpt>
      <trkpt lat="46.08074" lon="4.44265">
        <ele>847</ele>
        <time>2025-10-04T11:04:06Z</time>
      </trkpt>
      <trkpt lat="46.08067" lon="4.4427">
        <ele>847</ele>
        <time>2025-10-04T11:04:07Z</time>
      </trkpt>
      <trkpt lat="46.08062" lon="4.44271">
        <ele>847.4</ele>
        <time>2025-10-04T11:04:08Z</time>
      </trkpt>
      <trkpt lat="46.08057" lon="4.44274">
        <ele>848.2</ele>
        <time>2025-10-04T11:04:09Z</time>
      </trkpt>
      <trkpt lat="46.08053" lon="4.44277">
        <ele>848.2</ele>
        <time>2025-10-04T11:04:10Z</time>
      </trkpt>
      <trkpt lat="46.0805" lon="4.44277">
        <ele>848.8</ele>
        <time>2025-10-04T11:04:11Z</time>
      </trkpt>
      <trkpt lat="46.08048" lon="4.4428">
        <ele>849.4</ele>
        <time>2025-10-04T11:04:12Z</time>
      </trkpt>
      <trkpt lat="46.08043" lon="4.4428">
        <ele>849.4</ele>
        <time>2025-10-04T11:04:13Z</time>
      </trkpt>
      <trkpt lat="46.08037" lon="4.44282">
        <ele>849.8</ele>
        <time>2025-10-04T11:04:14Z</time>
      </trkpt>
      <trkpt lat="46.08037" lon="4.44285">
        <ele>850.4</ele>
        <time>2025-10-04T11:04:15Z</time>
      </trkpt>
      <trkpt lat="46.08034" lon="4.44286">
        <ele>850.6</ele>
        <time>2025-10-04T11:04:16Z</time>
      </trkpt>
      <trkpt lat="46.0803" lon="4.44288">
        <ele>851</ele>
        <time>2025-10-04T11:04:17Z</time>
      </trkpt>
      <trkpt lat="46.08028" lon="4.4429">
        <ele>851</ele>
        <time>2025-10-04T11:04:18Z</time>
      </trkpt>
      <trkpt lat="46.08026" lon="4.4429">
        <ele>851.2</ele>
        <time>2025-10-04T11:04:19Z</time>
      </trkpt>
      <trkpt lat="46.08022" lon="4.44293">
        <ele>851.2</ele>
        <time>2025-10-04T11:04:20Z</time>
      </trkpt>
      <trkpt lat="46.08018" lon="4.44294">
        <ele>851.6</ele>
        <time>2025-10-04T11:04:21Z</time>
      </trkpt>
      <trkpt lat="46.08016" lon="4.44295">
        <ele>851.4</ele>
        <time>2025-10-04T11:04:22Z</time>
      </trkpt>
      <trkpt lat="46.08015" lon="4.44295">
        <ele>851.6</ele>
        <time>2025-10-04T11:04:23Z</time>
      </trkpt>
      <trkpt lat="46.08014" lon="4.44296">
        <ele>852</ele>
        <time>2025-10-04T11:04:24Z</time>
      </trkpt>
      <trkpt lat="46.08012" lon="4.44297">
        <ele>852.6</ele>
        <time>2025-10-04T11:04:25Z</time>
      </trkpt>
      <trkpt lat="46.0801" lon="4.44299">
        <ele>852.6</ele>
        <time>2025-10-04T11:04:26Z</time>
      </trkpt>
      <trkpt lat="46.08007" lon="4.44301">
        <ele>852.8</ele>
        <time>2025-10-04T11:04:27Z</time>
      </trkpt>
      <trkpt lat="46.08004" lon="4.44303">
        <ele>852.8</ele>
        <time>2025-10-04T11:04:28Z</time>
      </trkpt>
      <trkpt lat="46.08001" lon="4.44305">
        <ele>853.2</ele>
        <time>2025-10-04T11:04:29Z</time>
      </trkpt>
      <trkpt lat="46.07999" lon="4.44307">
        <ele>853.4</ele>
        <time>2025-10-04T11:04:30Z</time>
      </trkpt>
      <trkpt lat="46.07996" lon="4.44309">
        <ele>853.4</ele>
        <time>2025-10-04T11:04:31Z</time>
      </trkpt>
      <trkpt lat="46.07992" lon="4.44311">
        <ele>853.4</ele>
        <time>2025-10-04T11:04:32Z</time>
      </trkpt>
      <trkpt lat="46.07989" lon="4.44313">
        <ele>853.8</ele>
        <time>2025-10-04T11:04:33Z</time>
      </trkpt>
      <trkpt lat="46.07986" lon="4.44314">
        <ele>853.8</ele>
        <time>2025-10-04T11:04:34Z</time>
      </trkpt>
      <trkpt lat="46.07983" lon="4.44316">
        <ele>853.6</ele>
        <time>2025-10-04T11:04:35Z</time>
      </trkpt>
      <trkpt lat="46.0798" lon="4.44318">
        <ele>853.6</ele>
        <time>2025-10-04T11:04:36Z</time>
      </trkpt>
      <trkpt lat="46.07977" lon="4.4432">
        <ele>854</ele>
        <time>2025-10-04T11:04:37Z</time>
      </trkpt>
      <trkpt lat="46.07974" lon="4.44321">
        <ele>854</ele>
        <time>2025-10-04T11:04:38Z</time>
      </trkpt>
      <trkpt lat="46.07971" lon="4.44322">
        <ele>854</ele>
        <time>2025-10-04T11:04:39Z</time>
      </trkpt>
      <trkpt lat="46.07967" lon="4.44323">
        <ele>854.2</ele>
        <time>2025-10-04T11:04:40Z</time>
      </trkpt>
      <trkpt lat="46.07964" lon="4.44324">
        <ele>854.2</ele>
        <time>2025-10-04T11:04:41Z</time>
      </trkpt>
      <trkpt lat="46.0796" lon="4.44325">
        <ele>854.2</ele>
        <time>2025-10-04T11:04:42Z</time>
      </trkpt>
      <trkpt lat="46.07956" lon="4.44326">
        <ele>854.2</ele>
        <time>2025-10-04T11:04:43Z</time>
      </trkpt>
      <trkpt lat="46.07954" lon="4.44327">
        <ele>854.2</ele>
        <time>2025-10-04T11:04:44Z</time>
      </trkpt>
      <trkpt lat="46.07951" lon="4.44328">
        <ele>854.2</ele>
        <time>2025-10-04T11:04:45Z</time>
      </trkpt>
      <trkpt lat="46.07948" lon="4.44327">
        <ele>854.4</ele>
        <time>2025-10-04T11:04:46Z</time>
      </trkpt>
      <trkpt lat="46.07945" lon="4.44327">
        <ele>854.4</ele>
        <time>2025-10-04T11:04:47Z</time>
      </trkpt>
      <trkpt lat="46.07942" lon="4.44327">
        <ele>854.2</ele>
        <time>2025-10-04T11:04:48Z</time>
      </trkpt>
      <trkpt lat="46.07939" lon="4.44327">
        <ele>854.2</ele>
        <time>2025-10-04T11:04:49Z</time>
      </trkpt>
      <trkpt lat="46.07935" lon="4.44327">
        <ele>853.6</ele>
        <time>2025-10-04T11:04:50Z</time>
      </trkpt>
      <trkpt lat="46.07931" lon="4.44327">
        <ele>853.4</ele>
        <time>2025-10-04T11:04:51Z</time>
      </trkpt>
      <trkpt lat="46.07927" lon="4.44327">
        <ele>853.2</ele>
        <time>2025-10-04T11:04:52Z</time>
      </trkpt>
      <trkpt lat="46.07923" lon="4.44326">
        <ele>852.8</ele>
        <time>2025-10-04T11:04:53Z</time>
      </trkpt>
      <trkpt lat="46.07916" lon="4.44328">
        <ele>852.8</ele>
        <time>2025-10-04T11:04:54Z</time>
      </trkpt>
      <trkpt lat="46.07912" lon="4.44328">
        <ele>852.8</ele>
        <time>2025-10-04T11:04:55Z</time>
      </trkpt>
      <trkpt lat="46.07907" lon="4.44327">
        <ele>852.8</ele>
        <time>2025-10-04T11:04:56Z</time>
      </trkpt>
      <trkpt lat="46.07902" lon="4.44327">
        <ele>852.8</ele>
        <time>2025-10-04T11:04:57Z</time>
      </trkpt>
      <trkpt lat="46.07897" lon="4.44325">
        <ele>852.8</ele>
        <time>2025-10-04T11:04:58Z</time>
      </trkpt>
      <trkpt lat="46.07892" lon="4.44324">
        <ele>852.4</ele>
        <time>2025-10-04T11:04:59Z</time>
      </trkpt>
      <trkpt lat="46.07886" lon="4.44322">
        <ele>852.8</ele>
        <time>2025-10-04T11:05:00Z</time>
      </trkpt>
      <trkpt lat="46.07879" lon="4.44319">
        <ele>852.8</ele>
        <time>2025-10-04T11:05:01Z</time>
      </trkpt>
      <trkpt lat="46.07875" lon="4.44319">
        <ele>852.4</ele>
        <time>2025-10-04T11:05:02Z</time>
      </trkpt>
      <trkpt lat="46.07869" lon="4.44317">
        <ele>852.4</ele>
        <time>2025-10-04T11:05:03Z</time>
      </trkpt>
      <trkpt lat="46.07864" lon="4.44315">
        <ele>852.2</ele>
        <time>2025-10-04T11:05:04Z</time>
      </trkpt>
      <trkpt lat="46.0786" lon="4.44315">
        <ele>852.2</ele>
        <time>2025-10-04T11:05:05Z</time>
      </trkpt>
      <trkpt lat="46.07857" lon="4.44314">
        <ele>852</ele>
        <time>2025-10-04T11:05:06Z</time>
      </trkpt>
      <trkpt lat="46.07855" lon="4.44312">
        <ele>852</ele>
        <time>2025-10-04T11:05:07Z</time>
      </trkpt>
      <trkpt lat="46.07851" lon="4.44311">
        <ele>852</ele>
        <time>2025-10-04T11:05:08Z</time>
      </trkpt>
      <trkpt lat="46.07846" lon="4.44308">
        <ele>852</ele>
        <time>2025-10-04T11:05:09Z</time>
      </trkpt>
      <trkpt lat="46.07842" lon="4.44307">
        <ele>852</ele>
        <time>2025-10-04T11:05:10Z</time>
      </trkpt>
      <trkpt lat="46.07839" lon="4.44305">
        <ele>852.2</ele>
        <time>2025-10-04T11:05:11Z</time>
      </trkpt>
      <trkpt lat="46.07834" lon="4.44305">
        <ele>852.4</ele>
        <time>2025-10-04T11:05:12Z</time>
      </trkpt>
      <trkpt lat="46.07829" lon="4.44305">
        <ele>852.4</ele>
        <time>2025-10-04T11:05:13Z</time>
      </trkpt>
      <trkpt lat="46.07824" lon="4.44305">
        <ele>852.4</ele>
        <time>2025-10-04T11:05:14Z</time>
      </trkpt>
      <trkpt lat="46.0782" lon="4.44305">
        <ele>852.4</ele>
        <time>2025-10-04T11:05:15Z</time>
      </trkpt>
      <trkpt lat="46.07816" lon="4.44303">
        <ele>852</ele>
        <time>2025-10-04T11:05:16Z</time>
      </trkpt>
      <trkpt lat="46.07811" lon="4.443">
        <ele>852</ele>
        <time>2025-10-04T11:05:17Z</time>
      </trkpt>
      <trkpt lat="46.07809" lon="4.44301">
        <ele>852.4</ele>
        <time>2025-10-04T11:05:18Z</time>
      </trkpt>
      <trkpt lat="46.07806" lon="4.44301">
        <ele>852.4</ele>
        <time>2025-10-04T11:05:19Z</time>
      </trkpt>
      <trkpt lat="46.07802" lon="4.44302">
        <ele>852.4</ele>
        <time>2025-10-04T11:05:20Z</time>
      </trkpt>
      <trkpt lat="46.07798" lon="4.44304">
        <ele>852.4</ele>
        <time>2025-10-04T11:05:21Z</time>
      </trkpt>
      <trkpt lat="46.07793" lon="4.44304">
        <ele>852.4</ele>
        <time>2025-10-04T11:05:22Z</time>
      </trkpt>
      <trkpt lat="46.07788" lon="4.44304">
        <ele>852</ele>
        <time>2025-10-04T11:05:23Z</time>
      </trkpt>
      <trkpt lat="46.07783" lon="4.44304">
        <ele>852.4</ele>
        <time>2025-10-04T11:05:24Z</time>
      </trkpt>
      <trkpt lat="46.07776" lon="4.44306">
        <ele>852.2</ele>
        <time>2025-10-04T11:05:25Z</time>
      </trkpt>
      <trkpt lat="46.07772" lon="4.44307">
        <ele>852.4</ele>
        <time>2025-10-04T11:05:26Z</time>
      </trkpt>
      <trkpt lat="46.07768" lon="4.44308">
        <ele>852.4</ele>
        <time>2025-10-04T11:05:27Z</time>
      </trkpt>
      <trkpt lat="46.07766" lon="4.44309">
        <ele>852.4</ele>
        <time>2025-10-04T11:05:28Z</time>
      </trkpt>
      <trkpt lat="46.07765" lon="4.44308">
        <ele>852.6</ele>
        <time>2025-10-04T11:05:29Z</time>
      </trkpt>
      <trkpt lat="46.07765" lon="4.44309">
        <ele>852.6</ele>
        <time>2025-10-04T11:05:30Z</time>
      </trkpt>
      <trkpt lat="46.07763" lon="4.44309">
        <ele>852.6</ele>
        <time>2025-10-04T11:05:31Z</time>
      </trkpt>
      <trkpt lat="46.07763" lon="4.44309">
        <ele>852.6</ele>
        <time>2025-10-04T11:05:32Z</time>
      </trkpt>
      <trkpt lat="46.07761" lon="4.44311">
        <ele>852.4</ele>
        <time>2025-10-04T11:06:22Z</time>
      </trkpt>
      <trkpt lat="46.07761" lon="4.44311">
        <ele>852.4</ele>
        <time>2025-10-04T11:06:23Z</time>
      </trkpt>
      <trkpt lat="46.0776" lon="4.44309">
        <ele>852.4</ele>
        <time>2025-10-04T11:06:24Z</time>
      </trkpt>
      <trkpt lat="46.07759" lon="4.44309">
        <ele>852.6</ele>
        <time>2025-10-04T11:06:25Z</time>
      </trkpt>
      <trkpt lat="46.07758" lon="4.44308">
        <ele>852.6</ele>
        <time>2025-10-04T11:06:26Z</time>
      </trkpt>
      <trkpt lat="46.07757" lon="4.44309">
        <ele>852.6</ele>
        <time>2025-10-04T11:06:27Z</time>
      </trkpt>
      <trkpt lat="46.07755" lon="4.44309">
        <ele>852.6</ele>
        <time>2025-10-04T11:06:28Z</time>
      </trkpt>
      <trkpt lat="46.07752" lon="4.44308">
        <ele>852.6</ele>
        <time>2025-10-04T11:06:29Z</time>
      </trkpt>
      <trkpt lat="46.07749" lon="4.44307">
        <ele>852.2</ele>
        <time>2025-10-04T11:06:30Z</time>
      </trkpt>
      <trkpt lat="46.07746" lon="4.44305">
        <ele>852.2</ele>
        <time>2025-10-04T11:06:31Z</time>
      </trkpt>
      <trkpt lat="46.07742" lon="4.44303">
        <ele>851.8</ele>
        <time>2025-10-04T11:06:32Z</time>
      </trkpt>
      <trkpt lat="46.07738" lon="4.44302">
        <ele>851.8</ele>
        <time>2025-10-04T11:06:33Z</time>
      </trkpt>
      <trkpt lat="46.07732" lon="4.44299">
        <ele>851.6</ele>
        <time>2025-10-04T11:06:34Z</time>
      </trkpt>
      <trkpt lat="46.07728" lon="4.44297">
        <ele>851.6</ele>
        <time>2025-10-04T11:06:35Z</time>
      </trkpt>
      <trkpt lat="46.07724" lon="4.44294">
        <ele>851.4</ele>
        <time>2025-10-04T11:06:36Z</time>
      </trkpt>
      <trkpt lat="46.07717" lon="4.44298">
        <ele>851</ele>
        <time>2025-10-04T11:06:37Z</time>
      </trkpt>
      <trkpt lat="46.07715" lon="4.44296">
        <ele>850.6</ele>
        <time>2025-10-04T11:06:38Z</time>
      </trkpt>
      <trkpt lat="46.07711" lon="4.443">
        <ele>850.2</ele>
        <time>2025-10-04T11:06:39Z</time>
      </trkpt>
      <trkpt lat="46.07706" lon="4.44304">
        <ele>850.2</ele>
        <time>2025-10-04T11:06:40Z</time>
      </trkpt>
      <trkpt lat="46.07701" lon="4.4431">
        <ele>850.2</ele>
        <time>2025-10-04T11:06:41Z</time>
      </trkpt>
      <trkpt lat="46.07696" lon="4.44314">
        <ele>849.2</ele>
        <time>2025-10-04T11:06:42Z</time>
      </trkpt>
      <trkpt lat="46.07692" lon="4.44317">
        <ele>848.8</ele>
        <time>2025-10-04T11:06:43Z</time>
      </trkpt>
      <trkpt lat="46.07677" lon="4.44323">
        <ele>848.2</ele>
        <time>2025-10-04T11:06:44Z</time>
      </trkpt>
      <trkpt lat="46.07669" lon="4.44326">
        <ele>847.8</ele>
        <time>2025-10-04T11:06:45Z</time>
      </trkpt>
      <trkpt lat="46.07663" lon="4.44329">
        <ele>846.4</ele>
        <time>2025-10-04T11:06:46Z</time>
      </trkpt>
      <trkpt lat="46.07658" lon="4.44333">
        <ele>846</ele>
        <time>2025-10-04T11:06:47Z</time>
      </trkpt>
      <trkpt lat="46.07652" lon="4.44337">
        <ele>845.8</ele>
        <time>2025-10-04T11:06:48Z</time>
      </trkpt>
      <trkpt lat="46.07644" lon="4.44338">
        <ele>845</ele>
        <time>2025-10-04T11:06:49Z</time>
      </trkpt>
      <trkpt lat="46.07639" lon="4.44342">
        <ele>844.8</ele>
        <time>2025-10-04T11:06:50Z</time>
      </trkpt>
      <trkpt lat="46.07632" lon="4.44345">
        <ele>844.4</ele>
        <time>2025-10-04T11:06:51Z</time>
      </trkpt>
      <trkpt lat="46.07624" lon="4.44349">
        <ele>843.8</ele>
        <time>2025-10-04T11:06:52Z</time>
      </trkpt>
      <trkpt lat="46.07616" lon="4.44351">
        <ele>843.8</ele>
        <time>2025-10-04T11:06:53Z</time>
      </trkpt>
      <trkpt lat="46.0761" lon="4.44354">
        <ele>843.2</ele>
        <time>2025-10-04T11:06:54Z</time>
      </trkpt>
      <trkpt lat="46.076" lon="4.44359">
        <ele>842.8</ele>
        <time>2025-10-04T11:06:55Z</time>
      </trkpt>
      <trkpt lat="46.07592" lon="4.44361">
        <ele>842.4</ele>
        <time>2025-10-04T11:06:56Z</time>
      </trkpt>
      <trkpt lat="46.07584" lon="4.44364">
        <ele>842.2</ele>
        <time>2025-10-04T11:06:57Z</time>
      </trkpt>
      <trkpt lat="46.07576" lon="4.44367">
        <ele>841.6</ele>
        <time>2025-10-04T11:06:58Z</time>
      </trkpt>
      <trkpt lat="46.07571" lon="4.44369">
        <ele>841.6</ele>
        <time>2025-10-04T11:06:59Z</time>
      </trkpt>
      <trkpt lat="46.07563" lon="4.44373">
        <ele>841</ele>
        <time>2025-10-04T11:07:00Z</time>
      </trkpt>
      <trkpt lat="46.07554" lon="4.44377">
        <ele>840.6</ele>
        <time>2025-10-04T11:07:01Z</time>
      </trkpt>
      <trkpt lat="46.07547" lon="4.44378">
        <ele>840.2</ele>
        <time>2025-10-04T11:07:02Z</time>
      </trkpt>
      <trkpt lat="46.07542" lon="4.44382">
        <ele>840</ele>
        <time>2025-10-04T11:07:03Z</time>
      </trkpt>
      <trkpt lat="46.07535" lon="4.44385">
        <ele>839.6</ele>
        <time>2025-10-04T11:07:04Z</time>
      </trkpt>
      <trkpt lat="46.07526" lon="4.44386">
        <ele>839.6</ele>
        <time>2025-10-04T11:07:05Z</time>
      </trkpt>
      <trkpt lat="46.07519" lon="4.44385">
        <ele>839.2</ele>
        <time>2025-10-04T11:07:06Z</time>
      </trkpt>
      <trkpt lat="46.07515" lon="4.44387">
        <ele>839.2</ele>
        <time>2025-10-04T11:07:07Z</time>
      </trkpt>
      <trkpt lat="46.07508" lon="4.44388">
        <ele>839.2</ele>
        <time>2025-10-04T11:07:08Z</time>
      </trkpt>
      <trkpt lat="46.07501" lon="4.4439">
        <ele>839.2</ele>
        <time>2025-10-04T11:07:09Z</time>
      </trkpt>
      <trkpt lat="46.07493" lon="4.44393">
        <ele>839.2</ele>
        <time>2025-10-04T11:07:10Z</time>
      </trkpt>
      <trkpt lat="46.07487" lon="4.44394">
        <ele>839.2</ele>
        <time>2025-10-04T11:07:11Z</time>
      </trkpt>
      <trkpt lat="46.07482" lon="4.44397">
        <ele>839.2</ele>
        <time>2025-10-04T11:07:12Z</time>
      </trkpt>
      <trkpt lat="46.07475" lon="4.44398">
        <ele>839.2</ele>
        <time>2025-10-04T11:07:13Z</time>
      </trkpt>
      <trkpt lat="46.07472" lon="4.44401">
        <ele>838.8</ele>
        <time>2025-10-04T11:07:14Z</time>
      </trkpt>
      <trkpt lat="46.07466" lon="4.44402">
        <ele>838.8</ele>
        <time>2025-10-04T11:07:15Z</time>
      </trkpt>
      <trkpt lat="46.0746" lon="4.44402">
        <ele>838.4</ele>
        <time>2025-10-04T11:07:16Z</time>
      </trkpt>
      <trkpt lat="46.07454" lon="4.44403">
        <ele>838.2</ele>
        <time>2025-10-04T11:07:17Z</time>
      </trkpt>
      <trkpt lat="46.07448" lon="4.44404">
        <ele>838.2</ele>
        <time>2025-10-04T11:07:18Z</time>
      </trkpt>
      <trkpt lat="46.07443" lon="4.44404">
        <ele>838.2</ele>
        <time>2025-10-04T11:07:19Z</time>
      </trkpt>
      <trkpt lat="46.07437" lon="4.44403">
        <ele>837.8</ele>
        <time>2025-10-04T11:07:20Z</time>
      </trkpt>
      <trkpt lat="46.07433" lon="4.44404">
        <ele>838.2</ele>
        <time>2025-10-04T11:07:21Z</time>
      </trkpt>
      <trkpt lat="46.07428" lon="4.44403">
        <ele>839</ele>
        <time>2025-10-04T11:07:22Z</time>
      </trkpt>
      <trkpt lat="46.07424" lon="4.44402">
        <ele>838.2</ele>
        <time>2025-10-04T11:07:23Z</time>
      </trkpt>
      <trkpt lat="46.07419" lon="4.44403">
        <ele>838.8</ele>
        <time>2025-10-04T11:07:24Z</time>
      </trkpt>
      <trkpt lat="46.07414" lon="4.44403">
        <ele>838.8</ele>
        <time>2025-10-04T11:07:25Z</time>
      </trkpt>
      <trkpt lat="46.07409" lon="4.44402">
        <ele>839.2</ele>
        <time>2025-10-04T11:07:26Z</time>
      </trkpt>
      <trkpt lat="46.07405" lon="4.44403">
        <ele>839.2</ele>
        <time>2025-10-04T11:07:27Z</time>
      </trkpt>
      <trkpt lat="46.07401" lon="4.44403">
        <ele>839.8</ele>
        <time>2025-10-04T11:07:28Z</time>
      </trkpt>
      <trkpt lat="46.07396" lon="4.44404">
        <ele>840</ele>
        <time>2025-10-04T11:07:29Z</time>
      </trkpt>
      <trkpt lat="46.07391" lon="4.44404">
        <ele>840</ele>
        <time>2025-10-04T11:07:30Z</time>
      </trkpt>
      <trkpt lat="46.07388" lon="4.44405">
        <ele>840.6</ele>
        <time>2025-10-04T11:07:31Z</time>
      </trkpt>
      <trkpt lat="46.07385" lon="4.44404">
        <ele>840.8</ele>
        <time>2025-10-04T11:07:32Z</time>
      </trkpt>
      <trkpt lat="46.07383" lon="4.44404">
        <ele>840.8</ele>
        <time>2025-10-04T11:07:33Z</time>
      </trkpt>
      <trkpt lat="46.07379" lon="4.44405">
        <ele>840.8</ele>
        <time>2025-10-04T11:07:34Z</time>
      </trkpt>
      <trkpt lat="46.07377" lon="4.44406">
        <ele>840.8</ele>
        <time>2025-10-04T11:07:35Z</time>
      </trkpt>
      <trkpt lat="46.07374" lon="4.44407">
        <ele>841.2</ele>
        <time>2025-10-04T11:07:36Z</time>
      </trkpt>
      <trkpt lat="46.07372" lon="4.44408">
        <ele>841.4</ele>
        <time>2025-10-04T11:07:37Z</time>
      </trkpt>
      <trkpt lat="46.0737" lon="4.4441">
        <ele>841.4</ele>
        <time>2025-10-04T11:07:38Z</time>
      </trkpt>
      <trkpt lat="46.07368" lon="4.44411">
        <ele>841.8</ele>
        <time>2025-10-04T11:07:39Z</time>
      </trkpt>
      <trkpt lat="46.07366" lon="4.44411">
        <ele>842</ele>
        <time>2025-10-04T11:07:40Z</time>
      </trkpt>
      <trkpt lat="46.07363" lon="4.44412">
        <ele>842</ele>
        <time>2025-10-04T11:07:41Z</time>
      </trkpt>
      <trkpt lat="46.07361" lon="4.44413">
        <ele>842</ele>
        <time>2025-10-04T11:07:42Z</time>
      </trkpt>
      <trkpt lat="46.0736" lon="4.44414">
        <ele>842</ele>
        <time>2025-10-04T11:07:43Z</time>
      </trkpt>
      <trkpt lat="46.07359" lon="4.44415">
        <ele>842.2</ele>
        <time>2025-10-04T11:07:44Z</time>
      </trkpt>
      <trkpt lat="46.07358" lon="4.44415">
        <ele>842.4</ele>
        <time>2025-10-04T11:07:45Z</time>
      </trkpt>
      <trkpt lat="46.07357" lon="4.44415">
        <ele>842.8</ele>
        <time>2025-10-04T11:07:46Z</time>
      </trkpt>
      <trkpt lat="46.07354" lon="4.44415">
        <ele>843.2</ele>
        <time>2025-10-04T11:07:47Z</time>
      </trkpt>
      <trkpt lat="46.07352" lon="4.44416">
        <ele>843.4</ele>
        <time>2025-10-04T11:07:48Z</time>
      </trkpt>
      <trkpt lat="46.0735" lon="4.44417">
        <ele>843.6</ele>
        <time>2025-10-04T11:07:49Z</time>
      </trkpt>
      <trkpt lat="46.07348" lon="4.44418">
        <ele>843.6</ele>
        <time>2025-10-04T11:07:50Z</time>
      </trkpt>
      <trkpt lat="46.07346" lon="4.44419">
        <ele>843.6</ele>
        <time>2025-10-04T11:07:51Z</time>
      </trkpt>
      <trkpt lat="46.07344" lon="4.4442">
        <ele>843.8</ele>
        <time>2025-10-04T11:07:52Z</time>
      </trkpt>
      <trkpt lat="46.07341" lon="4.4442">
        <ele>843.8</ele>
        <time>2025-10-04T11:07:53Z</time>
      </trkpt>
      <trkpt lat="46.0734" lon="4.4442">
        <ele>844.2</ele>
        <time>2025-10-04T11:07:54Z</time>
      </trkpt>
      <trkpt lat="46.07338" lon="4.4442">
        <ele>844.2</ele>
        <time>2025-10-04T11:07:55Z</time>
      </trkpt>
      <trkpt lat="46.07335" lon="4.44419">
        <ele>844.6</ele>
        <time>2025-10-04T11:07:56Z</time>
      </trkpt>
      <trkpt lat="46.07334" lon="4.44419">
        <ele>844.8</ele>
        <time>2025-10-04T11:07:57Z</time>
      </trkpt>
      <trkpt lat="46.07332" lon="4.4442">
        <ele>845.2</ele>
        <time>2025-10-04T11:07:58Z</time>
      </trkpt>
      <trkpt lat="46.0733" lon="4.44421">
        <ele>845.2</ele>
        <time>2025-10-04T11:07:59Z</time>
      </trkpt>
      <trkpt lat="46.07327" lon="4.44421">
        <ele>845.6</ele>
        <time>2025-10-04T11:08:00Z</time>
      </trkpt>
      <trkpt lat="46.07325" lon="4.44421">
        <ele>846</ele>
        <time>2025-10-04T11:08:01Z</time>
      </trkpt>
      <trkpt lat="46.07323" lon="4.44421">
        <ele>846.2</ele>
        <time>2025-10-04T11:08:02Z</time>
      </trkpt>
      <trkpt lat="46.0732" lon="4.44421">
        <ele>846.2</ele>
        <time>2025-10-04T11:08:03Z</time>
      </trkpt>
      <trkpt lat="46.07318" lon="4.44421">
        <ele>846.6</ele>
        <time>2025-10-04T11:08:04Z</time>
      </trkpt>
      <trkpt lat="46.07315" lon="4.44422">
        <ele>846.6</ele>
        <time>2025-10-04T11:08:05Z</time>
      </trkpt>
      <trkpt lat="46.07313" lon="4.44422">
        <ele>846.6</ele>
        <time>2025-10-04T11:08:06Z</time>
      </trkpt>
      <trkpt lat="46.07311" lon="4.44423">
        <ele>846.6</ele>
        <time>2025-10-04T11:08:07Z</time>
      </trkpt>
      <trkpt lat="46.07309" lon="4.44423">
        <ele>846.8</ele>
        <time>2025-10-04T11:08:08Z</time>
      </trkpt>
      <trkpt lat="46.07307" lon="4.44423">
        <ele>846.8</ele>
        <time>2025-10-04T11:08:09Z</time>
      </trkpt>
      <trkpt lat="46.07304" lon="4.44423">
        <ele>846.8</ele>
        <time>2025-10-04T11:08:10Z</time>
      </trkpt>
      <trkpt lat="46.07302" lon="4.44423">
        <ele>846.8</ele>
        <time>2025-10-04T11:08:11Z</time>
      </trkpt>
      <trkpt lat="46.073" lon="4.44423">
        <ele>846.8</ele>
        <time>2025-10-04T11:08:12Z</time>
      </trkpt>
      <trkpt lat="46.07297" lon="4.44423">
        <ele>847.2</ele>
        <time>2025-10-04T11:08:13Z</time>
      </trkpt>
      <trkpt lat="46.07295" lon="4.44424">
        <ele>847.2</ele>
        <time>2025-10-04T11:08:14Z</time>
      </trkpt>
      <trkpt lat="46.07292" lon="4.44424">
        <ele>847.2</ele>
        <time>2025-10-04T11:08:15Z</time>
      </trkpt>
      <trkpt lat="46.0729" lon="4.44422">
        <ele>847.4</ele>
        <time>2025-10-04T11:08:16Z</time>
      </trkpt>
      <trkpt lat="46.07288" lon="4.44421">
        <ele>847.4</ele>
        <time>2025-10-04T11:08:17Z</time>
      </trkpt>
      <trkpt lat="46.07286" lon="4.4442">
        <ele>847.4</ele>
        <time>2025-10-04T11:08:18Z</time>
      </trkpt>
      <trkpt lat="46.07284" lon="4.44419">
        <ele>847.6</ele>
        <time>2025-10-04T11:08:19Z</time>
      </trkpt>
      <trkpt lat="46.07282" lon="4.44418">
        <ele>847.6</ele>
        <time>2025-10-04T11:08:20Z</time>
      </trkpt>
      <trkpt lat="46.0728" lon="4.44418">
        <ele>848.2</ele>
        <time>2025-10-04T11:08:21Z</time>
      </trkpt>
      <trkpt lat="46.07277" lon="4.44418">
        <ele>848.6</ele>
        <time>2025-10-04T11:08:22Z</time>
      </trkpt>
      <trkpt lat="46.07275" lon="4.44419">
        <ele>848.6</ele>
        <time>2025-10-04T11:08:23Z</time>
      </trkpt>
      <trkpt lat="46.07273" lon="4.4442">
        <ele>848.6</ele>
        <time>2025-10-04T11:08:24Z</time>
      </trkpt>
      <trkpt lat="46.07271" lon="4.4442">
        <ele>848.6</ele>
        <time>2025-10-04T11:08:25Z</time>
      </trkpt>
      <trkpt lat="46.07269" lon="4.44421">
        <ele>848.8</ele>
        <time>2025-10-04T11:08:26Z</time>
      </trkpt>
      <trkpt lat="46.07267" lon="4.44421">
        <ele>848.8</ele>
        <time>2025-10-04T11:08:27Z</time>
      </trkpt>
      <trkpt lat="46.07264" lon="4.44421">
        <ele>848.8</ele>
        <time>2025-10-04T11:08:28Z</time>
      </trkpt>
      <trkpt lat="46.07263" lon="4.44421">
        <ele>849</ele>
        <time>2025-10-04T11:08:29Z</time>
      </trkpt>
      <trkpt lat="46.07261" lon="4.44421">
        <ele>849.4</ele>
        <time>2025-10-04T11:08:30Z</time>
      </trkpt>
      <trkpt lat="46.07259" lon="4.44421">
        <ele>849.4</ele>
        <time>2025-10-04T11:08:31Z</time>
      </trkpt>
      <trkpt lat="46.07257" lon="4.44421">
        <ele>849.6</ele>
        <time>2025-10-04T11:08:32Z</time>
      </trkpt>
      <trkpt lat="46.07255" lon="4.44421">
        <ele>849.6</ele>
        <time>2025-10-04T11:08:33Z</time>
      </trkpt>
      <trkpt lat="46.07253" lon="4.4442">
        <ele>849.6</ele>
        <time>2025-10-04T11:08:34Z</time>
      </trkpt>
      <trkpt lat="46.07252" lon="4.4442">
        <ele>849.6</ele>
        <time>2025-10-04T11:08:35Z</time>
      </trkpt>
      <trkpt lat="46.0725" lon="4.44419">
        <ele>849.4</ele>
        <time>2025-10-04T11:08:36Z</time>
      </trkpt>
      <trkpt lat="46.07248" lon="4.4442">
        <ele>849.8</ele>
        <time>2025-10-04T11:08:37Z</time>
      </trkpt>
      <trkpt lat="46.07246" lon="4.44421">
        <ele>850.2</ele>
        <time>2025-10-04T11:08:38Z</time>
      </trkpt>
      <trkpt lat="46.07244" lon="4.44422">
        <ele>850.4</ele>
        <time>2025-10-04T11:08:39Z</time>
      </trkpt>
      <trkpt lat="46.07242" lon="4.44423">
        <ele>850.4</ele>
        <time>2025-10-04T11:08:40Z</time>
      </trkpt>
      <trkpt lat="46.0724" lon="4.44423">
        <ele>850.6</ele>
        <time>2025-10-04T11:08:41Z</time>
      </trkpt>
      <trkpt lat="46.07237" lon="4.44423">
        <ele>851</ele>
        <time>2025-10-04T11:08:42Z</time>
      </trkpt>
      <trkpt lat="46.07236" lon="4.44423">
        <ele>851</ele>
        <time>2025-10-04T11:08:43Z</time>
      </trkpt>
      <trkpt lat="46.07234" lon="4.44423">
        <ele>851.2</ele>
        <time>2025-10-04T11:08:44Z</time>
      </trkpt>
      <trkpt lat="46.07232" lon="4.44423">
        <ele>851.2</ele>
        <time>2025-10-04T11:08:45Z</time>
      </trkpt>
      <trkpt lat="46.0723" lon="4.44423">
        <ele>851.6</ele>
        <time>2025-10-04T11:08:46Z</time>
      </trkpt>
      <trkpt lat="46.07228" lon="4.44424">
        <ele>851.6</ele>
        <time>2025-10-04T11:08:47Z</time>
      </trkpt>
      <trkpt lat="46.07225" lon="4.44424">
        <ele>852.2</ele>
        <time>2025-10-04T11:08:48Z</time>
      </trkpt>
      <trkpt lat="46.07224" lon="4.44424">
        <ele>852.6</ele>
        <time>2025-10-04T11:08:49Z</time>
      </trkpt>
      <trkpt lat="46.07222" lon="4.44424">
        <ele>852.8</ele>
        <time>2025-10-04T11:08:50Z</time>
      </trkpt>
      <trkpt lat="46.0722" lon="4.44424">
        <ele>853</ele>
        <time>2025-10-04T11:08:51Z</time>
      </trkpt>
      <trkpt lat="46.07219" lon="4.44424">
        <ele>853</ele>
        <time>2025-10-04T11:08:52Z</time>
      </trkpt>
      <trkpt lat="46.07217" lon="4.44424">
        <ele>853</ele>
        <time>2025-10-04T11:08:53Z</time>
      </trkpt>
      <trkpt lat="46.07215" lon="4.44424">
        <ele>853</ele>
        <time>2025-10-04T11:08:54Z</time>
      </trkpt>
      <trkpt lat="46.07213" lon="4.44424">
        <ele>853.2</ele>
        <time>2025-10-04T11:08:55Z</time>
      </trkpt>
      <trkpt lat="46.07211" lon="4.44425">
        <ele>853.6</ele>
        <time>2025-10-04T11:08:56Z</time>
      </trkpt>
      <trkpt lat="46.07209" lon="4.44425">
        <ele>854.2</ele>
        <time>2025-10-04T11:08:57Z</time>
      </trkpt>
      <trkpt lat="46.07208" lon="4.44424">
        <ele>854.2</ele>
        <time>2025-10-04T11:08:58Z</time>
      </trkpt>
      <trkpt lat="46.07207" lon="4.44423">
        <ele>854.4</ele>
        <time>2025-10-04T11:08:59Z</time>
      </trkpt>
      <trkpt lat="46.07206" lon="4.44423">
        <ele>854.8</ele>
        <time>2025-10-04T11:09:00Z</time>
      </trkpt>
      <trkpt lat="46.07205" lon="4.44423">
        <ele>855</ele>
        <time>2025-10-04T11:09:01Z</time>
      </trkpt>
      <trkpt lat="46.07206" lon="4.44423">
        <ele>855.2</ele>
        <time>2025-10-04T11:09:02Z</time>
      </trkpt>
      <trkpt lat="46.07206" lon="4.44424">
        <ele>855.2</ele>
        <time>2025-10-04T11:09:03Z</time>
      </trkpt>
      <trkpt lat="46.07204" lon="4.44425">
        <ele>855.8</ele>
        <time>2025-10-04T11:09:06Z</time>
      </trkpt>
      <trkpt lat="46.07202" lon="4.44426">
        <ele>856</ele>
        <time>2025-10-04T11:09:07Z</time>
      </trkpt>
      <trkpt lat="46.07201" lon="4.44426">
        <ele>856</ele>
        <time>2025-10-04T11:09:08Z</time>
      </trkpt>
      <trkpt lat="46.07199" lon="4.44426">
        <ele>856</ele>
        <time>2025-10-04T11:09:09Z</time>
      </trkpt>
      <trkpt lat="46.07198" lon="4.44426">
        <ele>856.4</ele>
        <time>2025-10-04T11:09:10Z</time>
      </trkpt>
      <trkpt lat="46.07196" lon="4.44425">
        <ele>856.6</ele>
        <time>2025-10-04T11:09:11Z</time>
      </trkpt>
      <trkpt lat="46.07194" lon="4.44426">
        <ele>856.8</ele>
        <time>2025-10-04T11:09:12Z</time>
      </trkpt>
      <trkpt lat="46.07192" lon="4.44427">
        <ele>856.8</ele>
        <time>2025-10-04T11:09:13Z</time>
      </trkpt>
      <trkpt lat="46.07191" lon="4.44427">
        <ele>857.2</ele>
        <time>2025-10-04T11:09:14Z</time>
      </trkpt>
      <trkpt lat="46.0719" lon="4.44427">
        <ele>857.6</ele>
        <time>2025-10-04T11:09:15Z</time>
      </trkpt>
      <trkpt lat="46.07188" lon="4.44428">
        <ele>857.6</ele>
        <time>2025-10-04T11:09:16Z</time>
      </trkpt>
      <trkpt lat="46.07187" lon="4.44428">
        <ele>858.2</ele>
        <time>2025-10-04T11:09:17Z</time>
      </trkpt>
      <trkpt lat="46.07186" lon="4.44429">
        <ele>858.2</ele>
        <time>2025-10-04T11:09:18Z</time>
      </trkpt>
      <trkpt lat="46.07185" lon="4.44429">
        <ele>858.2</ele>
        <time>2025-10-04T11:09:19Z</time>
      </trkpt>
      <trkpt lat="46.07184" lon="4.44428">
        <ele>858.6</ele>
        <time>2025-10-04T11:09:20Z</time>
      </trkpt>
      <trkpt lat="46.07183" lon="4.44428">
        <ele>858.6</ele>
        <time>2025-10-04T11:09:21Z</time>
      </trkpt>
      <trkpt lat="46.07182" lon="4.44428">
        <ele>859</ele>
        <time>2025-10-04T11:09:22Z</time>
      </trkpt>
      <trkpt lat="46.07181" lon="4.44429">
        <ele>859.4</ele>
        <time>2025-10-04T11:09:23Z</time>
      </trkpt>
      <trkpt lat="46.0718" lon="4.44429">
        <ele>859.6</ele>
        <time>2025-10-04T11:09:24Z</time>
      </trkpt>
      <trkpt lat="46.07179" lon="4.44429">
        <ele>859.6</ele>
        <time>2025-10-04T11:09:25Z</time>
      </trkpt>
      <trkpt lat="46.07179" lon="4.44429">
        <ele>859.8</ele>
        <time>2025-10-04T11:09:26Z</time>
      </trkpt>
      <trkpt lat="46.07178" lon="4.44429">
        <ele>859.8</ele>
        <time>2025-10-04T11:09:27Z</time>
      </trkpt>
      <trkpt lat="46.07177" lon="4.44429">
        <ele>860</ele>
        <time>2025-10-04T11:09:28Z</time>
      </trkpt>
      <trkpt lat="46.07176" lon="4.44429">
        <ele>860.4</ele>
        <time>2025-10-04T11:09:29Z</time>
      </trkpt>
      <trkpt lat="46.07175" lon="4.4443">
        <ele>860.6</ele>
        <time>2025-10-04T11:09:30Z</time>
      </trkpt>
      <trkpt lat="46.07175" lon="4.4443">
        <ele>860.6</ele>
        <time>2025-10-04T11:09:31Z</time>
      </trkpt>
      <trkpt lat="46.07174" lon="4.4443">
        <ele>860.6</ele>
        <time>2025-10-04T11:09:32Z</time>
      </trkpt>
      <trkpt lat="46.07173" lon="4.4443">
        <ele>860.8</ele>
        <time>2025-10-04T11:09:33Z</time>
      </trkpt>
      <trkpt lat="46.07171" lon="4.4443">
        <ele>860.8</ele>
        <time>2025-10-04T11:09:34Z</time>
      </trkpt>
      <trkpt lat="46.0717" lon="4.44429">
        <ele>861.2</ele>
        <time>2025-10-04T11:09:35Z</time>
      </trkpt>
      <trkpt lat="46.07169" lon="4.44428">
        <ele>861.2</ele>
        <time>2025-10-04T11:09:36Z</time>
      </trkpt>
      <trkpt lat="46.07168" lon="4.44428">
        <ele>861.6</ele>
        <time>2025-10-04T11:09:37Z</time>
      </trkpt>
      <trkpt lat="46.07167" lon="4.44428">
        <ele>861.8</ele>
        <time>2025-10-04T11:09:38Z</time>
      </trkpt>
      <trkpt lat="46.07167" lon="4.44428">
        <ele>861.8</ele>
        <time>2025-10-04T11:09:39Z</time>
      </trkpt>
      <trkpt lat="46.07166" lon="4.44428">
        <ele>862.2</ele>
        <time>2025-10-04T11:09:40Z</time>
      </trkpt>
      <trkpt lat="46.07164" lon="4.44429">
        <ele>862.2</ele>
        <time>2025-10-04T11:09:41Z</time>
      </trkpt>
      <trkpt lat="46.07163" lon="4.44429">
        <ele>862.8</ele>
        <time>2025-10-04T11:09:42Z</time>
      </trkpt>
      <trkpt lat="46.07162" lon="4.44429">
        <ele>862.8</ele>
        <time>2025-10-04T11:09:43Z</time>
      </trkpt>
      <trkpt lat="46.07161" lon="4.44429">
        <ele>863</ele>
        <time>2025-10-04T11:09:44Z</time>
      </trkpt>
      <trkpt lat="46.0716" lon="4.44429">
        <ele>863.4</ele>
        <time>2025-10-04T11:09:45Z</time>
      </trkpt>
      <trkpt lat="46.07159" lon="4.44429">
        <ele>863.4</ele>
        <time>2025-10-04T11:09:46Z</time>
      </trkpt>
      <trkpt lat="46.07157" lon="4.44429">
        <ele>863.6</ele>
        <time>2025-10-04T11:09:47Z</time>
      </trkpt>
      <trkpt lat="46.07156" lon="4.44429">
        <ele>864</ele>
        <time>2025-10-04T11:09:48Z</time>
      </trkpt>
      <trkpt lat="46.07154" lon="4.4443">
        <ele>864</ele>
        <time>2025-10-04T11:09:49Z</time>
      </trkpt>
      <trkpt lat="46.07153" lon="4.4443">
        <ele>864</ele>
        <time>2025-10-04T11:09:50Z</time>
      </trkpt>
      <trkpt lat="46.07153" lon="4.44431">
        <ele>864.2</ele>
        <time>2025-10-04T11:09:51Z</time>
      </trkpt>
      <trkpt lat="46.07153" lon="4.4443">
        <ele>864.2</ele>
        <time>2025-10-04T11:09:52Z</time>
      </trkpt>
      <trkpt lat="46.07152" lon="4.4443">
        <ele>864.6</ele>
        <time>2025-10-04T11:09:53Z</time>
      </trkpt>
      <trkpt lat="46.07151" lon="4.4443">
        <ele>864.6</ele>
        <time>2025-10-04T11:09:54Z</time>
      </trkpt>
      <trkpt lat="46.07151" lon="4.4443">
        <ele>864.8</ele>
        <time>2025-10-04T11:09:55Z</time>
      </trkpt>
      <trkpt lat="46.07149" lon="4.44431">
        <ele>864.8</ele>
        <time>2025-10-04T11:09:56Z</time>
      </trkpt>
      <trkpt lat="46.07148" lon="4.44431">
        <ele>864.8</ele>
        <time>2025-10-04T11:09:57Z</time>
      </trkpt>
      <trkpt lat="46.07147" lon="4.44432">
        <ele>865</ele>
        <time>2025-10-04T11:09:58Z</time>
      </trkpt>
      <trkpt lat="46.07146" lon="4.44432">
        <ele>865</ele>
        <time>2025-10-04T11:09:59Z</time>
      </trkpt>
      <trkpt lat="46.07144" lon="4.44432">
        <ele>865</ele>
        <time>2025-10-04T11:10:00Z</time>
      </trkpt>
      <trkpt lat="46.07143" lon="4.44432">
        <ele>865.4</ele>
        <time>2025-10-04T11:10:01Z</time>
      </trkpt>
      <trkpt lat="46.07141" lon="4.44432">
        <ele>865.4</ele>
        <time>2025-10-04T11:10:02Z</time>
      </trkpt>
      <trkpt lat="46.0714" lon="4.44432">
        <ele>866</ele>
        <time>2025-10-04T11:10:03Z</time>
      </trkpt>
      <trkpt lat="46.07138" lon="4.44432">
        <ele>866.2</ele>
        <time>2025-10-04T11:10:04Z</time>
      </trkpt>
      <trkpt lat="46.07137" lon="4.44431">
        <ele>866.2</ele>
        <time>2025-10-04T11:10:05Z</time>
      </trkpt>
      <trkpt lat="46.07135" lon="4.44432">
        <ele>866.6</ele>
        <time>2025-10-04T11:10:06Z</time>
      </trkpt>
      <trkpt lat="46.07133" lon="4.44432">
        <ele>866.6</ele>
        <time>2025-10-04T11:10:07Z</time>
      </trkpt>
      <trkpt lat="46.07131" lon="4.44433">
        <ele>866.8</ele>
        <time>2025-10-04T11:10:08Z</time>
      </trkpt>
      <trkpt lat="46.07128" lon="4.44434">
        <ele>866.8</ele>
        <time>2025-10-04T11:10:09Z</time>
      </trkpt>
      <trkpt lat="46.07127" lon="4.44435">
        <ele>866.8</ele>
        <time>2025-10-04T11:10:10Z</time>
      </trkpt>
      <trkpt lat="46.07125" lon="4.44436">
        <ele>867.2</ele>
        <time>2025-10-04T11:10:11Z</time>
      </trkpt>
      <trkpt lat="46.07123" lon="4.44437">
        <ele>867.2</ele>
        <time>2025-10-04T11:10:12Z</time>
      </trkpt>
      <trkpt lat="46.07121" lon="4.44437">
        <ele>867.4</ele>
        <time>2025-10-04T11:10:13Z</time>
      </trkpt>
      <trkpt lat="46.07119" lon="4.44437">
        <ele>867.4</ele>
        <time>2025-10-04T11:10:14Z</time>
      </trkpt>
      <trkpt lat="46.07118" lon="4.44437">
        <ele>867.6</ele>
        <time>2025-10-04T11:10:15Z</time>
      </trkpt>
      <trkpt lat="46.07117" lon="4.44437">
        <ele>868</ele>
        <time>2025-10-04T11:10:16Z</time>
      </trkpt>
      <trkpt lat="46.07115" lon="4.44438">
        <ele>868</ele>
        <time>2025-10-04T11:10:17Z</time>
      </trkpt>
      <trkpt lat="46.07113" lon="4.44439">
        <ele>868</ele>
        <time>2025-10-04T11:10:18Z</time>
      </trkpt>
      <trkpt lat="46.07111" lon="4.4444">
        <ele>868</ele>
        <time>2025-10-04T11:10:19Z</time>
      </trkpt>
      <trkpt lat="46.0711" lon="4.4444">
        <ele>868</ele>
        <time>2025-10-04T11:10:20Z</time>
      </trkpt>
      <trkpt lat="46.07109" lon="4.4444">
        <ele>868.4</ele>
        <time>2025-10-04T11:10:21Z</time>
      </trkpt>
      <trkpt lat="46.07108" lon="4.44439">
        <ele>868.6</ele>
        <time>2025-10-04T11:10:22Z</time>
      </trkpt>
      <trkpt lat="46.07106" lon="4.44439">
        <ele>869</ele>
        <time>2025-10-04T11:10:23Z</time>
      </trkpt>
      <trkpt lat="46.07105" lon="4.44439">
        <ele>869.2</ele>
        <time>2025-10-04T11:10:24Z</time>
      </trkpt>
      <trkpt lat="46.07103" lon="4.44439">
        <ele>869.4</ele>
        <time>2025-10-04T11:10:25Z</time>
      </trkpt>
      <trkpt lat="46.07102" lon="4.44439">
        <ele>869.8</ele>
        <time>2025-10-04T11:10:26Z</time>
      </trkpt>
      <trkpt lat="46.071" lon="4.44439">
        <ele>869.8</ele>
        <time>2025-10-04T11:10:27Z</time>
      </trkpt>
      <trkpt lat="46.07098" lon="4.44439">
        <ele>870</ele>
        <time>2025-10-04T11:10:28Z</time>
      </trkpt>
      <trkpt lat="46.07097" lon="4.44439">
        <ele>870</ele>
        <time>2025-10-04T11:10:29Z</time>
      </trkpt>
      <trkpt lat="46.07095" lon="4.44439">
        <ele>870.4</ele>
        <time>2025-10-04T11:10:30Z</time>
      </trkpt>
      <trkpt lat="46.07094" lon="4.44439">
        <ele>870.6</ele>
        <time>2025-10-04T11:10:31Z</time>
      </trkpt>
      <trkpt lat="46.07093" lon="4.4444">
        <ele>870.6</ele>
        <time>2025-10-04T11:10:32Z</time>
      </trkpt>
      <trkpt lat="46.07091" lon="4.4444">
        <ele>871</ele>
        <time>2025-10-04T11:10:33Z</time>
      </trkpt>
      <trkpt lat="46.0709" lon="4.4444">
        <ele>871</ele>
        <time>2025-10-04T11:10:34Z</time>
      </trkpt>
      <trkpt lat="46.07088" lon="4.4444">
        <ele>871</ele>
        <time>2025-10-04T11:10:35Z</time>
      </trkpt>
      <trkpt lat="46.07087" lon="4.4444">
        <ele>871.2</ele>
        <time>2025-10-04T11:10:36Z</time>
      </trkpt>
      <trkpt lat="46.07086" lon="4.4444">
        <ele>871.2</ele>
        <time>2025-10-04T11:10:37Z</time>
      </trkpt>
      <trkpt lat="46.07084" lon="4.4444">
        <ele>871.4</ele>
        <time>2025-10-04T11:10:38Z</time>
      </trkpt>
      <trkpt lat="46.07083" lon="4.4444">
        <ele>871.4</ele>
        <time>2025-10-04T11:10:39Z</time>
      </trkpt>
      <trkpt lat="46.07081" lon="4.4444">
        <ele>871.6</ele>
        <time>2025-10-04T11:10:40Z</time>
      </trkpt>
      <trkpt lat="46.0708" lon="4.4444">
        <ele>871.8</ele>
        <time>2025-10-04T11:10:41Z</time>
      </trkpt>
      <trkpt lat="46.07079" lon="4.4444">
        <ele>872.2</ele>
        <time>2025-10-04T11:10:42Z</time>
      </trkpt>
      <trkpt lat="46.07077" lon="4.44439">
        <ele>872.4</ele>
        <time>2025-10-04T11:10:43Z</time>
      </trkpt>
      <trkpt lat="46.07075" lon="4.44439">
        <ele>872.8</ele>
        <time>2025-10-04T11:10:44Z</time>
      </trkpt>
      <trkpt lat="46.07074" lon="4.44438">
        <ele>873</ele>
        <time>2025-10-04T11:10:45Z</time>
      </trkpt>
      <trkpt lat="46.07073" lon="4.44438">
        <ele>873.4</ele>
        <time>2025-10-04T11:10:46Z</time>
      </trkpt>
      <trkpt lat="46.07071" lon="4.44438">
        <ele>873.4</ele>
        <time>2025-10-04T11:10:47Z</time>
      </trkpt>
      <trkpt lat="46.0707" lon="4.44438">
        <ele>873.4</ele>
        <time>2025-10-04T11:10:48Z</time>
      </trkpt>
      <trkpt lat="46.07069" lon="4.44438">
        <ele>873.4</ele>
        <time>2025-10-04T11:10:49Z</time>
      </trkpt>
      <trkpt lat="46.07068" lon="4.44438">
        <ele>873.8</ele>
        <time>2025-10-04T11:10:50Z</time>
      </trkpt>
      <trkpt lat="46.07067" lon="4.44438">
        <ele>873.8</ele>
        <time>2025-10-04T11:10:51Z</time>
      </trkpt>
      <trkpt lat="46.07067" lon="4.44438">
        <ele>874</ele>
        <time>2025-10-04T11:10:52Z</time>
      </trkpt>
      <trkpt lat="46.07066" lon="4.44439">
        <ele>874</ele>
        <time>2025-10-04T11:10:53Z</time>
      </trkpt>
      <trkpt lat="46.07064" lon="4.4444">
        <ele>874.4</ele>
        <time>2025-10-04T11:10:54Z</time>
      </trkpt>
      <trkpt lat="46.07063" lon="4.4444">
        <ele>874.6</ele>
        <time>2025-10-04T11:10:55Z</time>
      </trkpt>
      <trkpt lat="46.07061" lon="4.4444">
        <ele>874.6</ele>
        <time>2025-10-04T11:10:56Z</time>
      </trkpt>
      <trkpt lat="46.0706" lon="4.44441">
        <ele>874.8</ele>
        <time>2025-10-04T11:10:57Z</time>
      </trkpt>
      <trkpt lat="46.07059" lon="4.44443">
        <ele>875.2</ele>
        <time>2025-10-04T11:10:58Z</time>
      </trkpt>
      <trkpt lat="46.07058" lon="4.44444">
        <ele>875.2</ele>
        <time>2025-10-04T11:10:59Z</time>
      </trkpt>
      <trkpt lat="46.07058" lon="4.44444">
        <ele>875.4</ele>
        <time>2025-10-04T11:11:00Z</time>
      </trkpt>
      <trkpt lat="46.07056" lon="4.44444">
        <ele>875.6</ele>
        <time>2025-10-04T11:11:01Z</time>
      </trkpt>
      <trkpt lat="46.07055" lon="4.44445">
        <ele>876</ele>
        <time>2025-10-04T11:11:02Z</time>
      </trkpt>
      <trkpt lat="46.07054" lon="4.44446">
        <ele>876</ele>
        <time>2025-10-04T11:11:03Z</time>
      </trkpt>
      <trkpt lat="46.07052" lon="4.44447">
        <ele>876.2</ele>
        <time>2025-10-04T11:11:04Z</time>
      </trkpt>
      <trkpt lat="46.07051" lon="4.44447">
        <ele>876.2</ele>
        <time>2025-10-04T11:11:05Z</time>
      </trkpt>
      <trkpt lat="46.0705" lon="4.44446">
        <ele>876.6</ele>
        <time>2025-10-04T11:11:06Z</time>
      </trkpt>
      <trkpt lat="46.07049" lon="4.44446">
        <ele>877</ele>
        <time>2025-10-04T11:11:07Z</time>
      </trkpt>
      <trkpt lat="46.07048" lon="4.44445">
        <ele>877</ele>
        <time>2025-10-04T11:11:08Z</time>
      </trkpt>
      <trkpt lat="46.07047" lon="4.44444">
        <ele>877.2</ele>
        <time>2025-10-04T11:11:09Z</time>
      </trkpt>
      <trkpt lat="46.07045" lon="4.44443">
        <ele>877.2</ele>
        <time>2025-10-04T11:11:10Z</time>
      </trkpt>
      <trkpt lat="46.07045" lon="4.44442">
        <ele>877.4</ele>
        <time>2025-10-04T11:11:11Z</time>
      </trkpt>
      <trkpt lat="46.07043" lon="4.44441">
        <ele>877.4</ele>
        <time>2025-10-04T11:11:12Z</time>
      </trkpt>
      <trkpt lat="46.07043" lon="4.44441">
        <ele>877.8</ele>
        <time>2025-10-04T11:11:13Z</time>
      </trkpt>
      <trkpt lat="46.07042" lon="4.44441">
        <ele>877.8</ele>
        <time>2025-10-04T11:11:14Z</time>
      </trkpt>
      <trkpt lat="46.0704" lon="4.44442">
        <ele>877.8</ele>
        <time>2025-10-04T11:11:15Z</time>
      </trkpt>
      <trkpt lat="46.07039" lon="4.44441">
        <ele>878</ele>
        <time>2025-10-04T11:11:16Z</time>
      </trkpt>
      <trkpt lat="46.07037" lon="4.44442">
        <ele>878</ele>
        <time>2025-10-04T11:11:17Z</time>
      </trkpt>
      <trkpt lat="46.07035" lon="4.44442">
        <ele>878</ele>
        <time>2025-10-04T11:11:18Z</time>
      </trkpt>
      <trkpt lat="46.07033" lon="4.44443">
        <ele>878.4</ele>
        <time>2025-10-04T11:11:19Z</time>
      </trkpt>
      <trkpt lat="46.07031" lon="4.44444">
        <ele>878.6</ele>
        <time>2025-10-04T11:11:20Z</time>
      </trkpt>
      <trkpt lat="46.07029" lon="4.44444">
        <ele>878.6</ele>
        <time>2025-10-04T11:11:21Z</time>
      </trkpt>
      <trkpt lat="46.07028" lon="4.44444">
        <ele>879</ele>
        <time>2025-10-04T11:11:22Z</time>
      </trkpt>
      <trkpt lat="46.07026" lon="4.44443">
        <ele>879.2</ele>
        <time>2025-10-04T11:11:23Z</time>
      </trkpt>
      <trkpt lat="46.07024" lon="4.44443">
        <ele>879.4</ele>
        <time>2025-10-04T11:11:24Z</time>
      </trkpt>
      <trkpt lat="46.07023" lon="4.44443">
        <ele>879.4</ele>
        <time>2025-10-04T11:11:25Z</time>
      </trkpt>
      <trkpt lat="46.07021" lon="4.44443">
        <ele>879.8</ele>
        <time>2025-10-04T11:11:26Z</time>
      </trkpt>
      <trkpt lat="46.0702" lon="4.44444">
        <ele>879.8</ele>
        <time>2025-10-04T11:11:27Z</time>
      </trkpt>
      <trkpt lat="46.07019" lon="4.44444">
        <ele>880.2</ele>
        <time>2025-10-04T11:11:28Z</time>
      </trkpt>
      <trkpt lat="46.07018" lon="4.44444">
        <ele>880.2</ele>
        <time>2025-10-04T11:11:29Z</time>
      </trkpt>
      <trkpt lat="46.07016" lon="4.44444">
        <ele>880.2</ele>
        <time>2025-10-04T11:11:30Z</time>
      </trkpt>
      <trkpt lat="46.07015" lon="4.44444">
        <ele>880.4</ele>
        <time>2025-10-04T11:11:31Z</time>
      </trkpt>
      <trkpt lat="46.07014" lon="4.44445">
        <ele>880.4</ele>
        <time>2025-10-04T11:11:32Z</time>
      </trkpt>
      <trkpt lat="46.07013" lon="4.44445">
        <ele>880.8</ele>
        <time>2025-10-04T11:11:33Z</time>
      </trkpt>
      <trkpt lat="46.07012" lon="4.44445">
        <ele>881</ele>
        <time>2025-10-04T11:11:34Z</time>
      </trkpt>
      <trkpt lat="46.07011" lon="4.44445">
        <ele>881</ele>
        <time>2025-10-04T11:11:35Z</time>
      </trkpt>
      <trkpt lat="46.0701" lon="4.44445">
        <ele>881.2</ele>
        <time>2025-10-04T11:11:36Z</time>
      </trkpt>
      <trkpt lat="46.07009" lon="4.44445">
        <ele>881.2</ele>
        <time>2025-10-04T11:11:37Z</time>
      </trkpt>
      <trkpt lat="46.07008" lon="4.44444">
        <ele>881.6</ele>
        <time>2025-10-04T11:11:38Z</time>
      </trkpt>
      <trkpt lat="46.07007" lon="4.44443">
        <ele>881.6</ele>
        <time>2025-10-04T11:11:39Z</time>
      </trkpt>
      <trkpt lat="46.07006" lon="4.44442">
        <ele>881.8</ele>
        <time>2025-10-04T11:11:40Z</time>
      </trkpt>
      <trkpt lat="46.07005" lon="4.44441">
        <ele>881.8</ele>
        <time>2025-10-04T11:11:41Z</time>
      </trkpt>
      <trkpt lat="46.07004" lon="4.44441">
        <ele>882.4</ele>
        <time>2025-10-04T11:11:42Z</time>
      </trkpt>
      <trkpt lat="46.07002" lon="4.44441">
        <ele>882.6</ele>
        <time>2025-10-04T11:11:43Z</time>
      </trkpt>
      <trkpt lat="46.07001" lon="4.4444">
        <ele>882.8</ele>
        <time>2025-10-04T11:11:44Z</time>
      </trkpt>
      <trkpt lat="46.06999" lon="4.4444">
        <ele>883.2</ele>
        <time>2025-10-04T11:11:45Z</time>
      </trkpt>
      <trkpt lat="46.06998" lon="4.4444">
        <ele>883.6</ele>
        <time>2025-10-04T11:11:46Z</time>
      </trkpt>
      <trkpt lat="46.06997" lon="4.4444">
        <ele>883.8</ele>
        <time>2025-10-04T11:11:47Z</time>
      </trkpt>
      <trkpt lat="46.06995" lon="4.4444">
        <ele>883.8</ele>
        <time>2025-10-04T11:11:48Z</time>
      </trkpt>
      <trkpt lat="46.06993" lon="4.44441">
        <ele>884.2</ele>
        <time>2025-10-04T11:11:49Z</time>
      </trkpt>
      <trkpt lat="46.06992" lon="4.4444">
        <ele>884.2</ele>
        <time>2025-10-04T11:11:50Z</time>
      </trkpt>
      <trkpt lat="46.06991" lon="4.4444">
        <ele>884.6</ele>
        <time>2025-10-04T11:11:51Z</time>
      </trkpt>
      <trkpt lat="46.0699" lon="4.4444">
        <ele>884.6</ele>
        <time>2025-10-04T11:11:52Z</time>
      </trkpt>
      <trkpt lat="46.06989" lon="4.4444">
        <ele>884.8</ele>
        <time>2025-10-04T11:11:53Z</time>
      </trkpt>
      <trkpt lat="46.06988" lon="4.44441">
        <ele>884.8</ele>
        <time>2025-10-04T11:11:54Z</time>
      </trkpt>
      <trkpt lat="46.06988" lon="4.44441">
        <ele>884.8</ele>
        <time>2025-10-04T11:11:55Z</time>
      </trkpt>
      <trkpt lat="46.06988" lon="4.44441">
        <ele>885.4</ele>
        <time>2025-10-04T11:11:56Z</time>
      </trkpt>
      <trkpt lat="46.06987" lon="4.44441">
        <ele>885.6</ele>
        <time>2025-10-04T11:11:57Z</time>
      </trkpt>
      <trkpt lat="46.06986" lon="4.44441">
        <ele>885.6</ele>
        <time>2025-10-04T11:11:58Z</time>
      </trkpt>
      <trkpt lat="46.06984" lon="4.44441">
        <ele>885.6</ele>
        <time>2025-10-04T11:11:59Z</time>
      </trkpt>
      <trkpt lat="46.06983" lon="4.44441">
        <ele>885.6</ele>
        <time>2025-10-04T11:12:00Z</time>
      </trkpt>
      <trkpt lat="46.06982" lon="4.44441">
        <ele>885.8</ele>
        <time>2025-10-04T11:12:01Z</time>
      </trkpt>
      <trkpt lat="46.0698" lon="4.4444">
        <ele>886</ele>
        <time>2025-10-04T11:12:02Z</time>
      </trkpt>
      <trkpt lat="46.06979" lon="4.4444">
        <ele>886</ele>
        <time>2025-10-04T11:12:03Z</time>
      </trkpt>
      <trkpt lat="46.06977" lon="4.4444">
        <ele>886.2</ele>
        <time>2025-10-04T11:12:04Z</time>
      </trkpt>
      <trkpt lat="46.06975" lon="4.4444">
        <ele>886.2</ele>
        <time>2025-10-04T11:12:05Z</time>
      </trkpt>
      <trkpt lat="46.06973" lon="4.44441">
        <ele>886.8</ele>
        <time>2025-10-04T11:12:06Z</time>
      </trkpt>
      <trkpt lat="46.06972" lon="4.44441">
        <ele>887</ele>
        <time>2025-10-04T11:12:07Z</time>
      </trkpt>
      <trkpt lat="46.0697" lon="4.44442">
        <ele>887.4</ele>
        <time>2025-10-04T11:12:08Z</time>
      </trkpt>
      <trkpt lat="46.06969" lon="4.44442">
        <ele>887.6</ele>
        <time>2025-10-04T11:12:09Z</time>
      </trkpt>
      <trkpt lat="46.06967" lon="4.44443">
        <ele>888</ele>
        <time>2025-10-04T11:12:10Z</time>
      </trkpt>
      <trkpt lat="46.06966" lon="4.44442">
        <ele>888</ele>
        <time>2025-10-04T11:12:11Z</time>
      </trkpt>
      <trkpt lat="46.06964" lon="4.44442">
        <ele>888.2</ele>
        <time>2025-10-04T11:12:12Z</time>
      </trkpt>
      <trkpt lat="46.06963" lon="4.44441">
        <ele>888.6</ele>
        <time>2025-10-04T11:12:13Z</time>
      </trkpt>
      <trkpt lat="46.06961" lon="4.44441">
        <ele>888.6</ele>
        <time>2025-10-04T11:12:14Z</time>
      </trkpt>
      <trkpt lat="46.0696" lon="4.44441">
        <ele>888.6</ele>
        <time>2025-10-04T11:12:15Z</time>
      </trkpt>
      <trkpt lat="46.06959" lon="4.44442">
        <ele>888.8</ele>
        <time>2025-10-04T11:12:16Z</time>
      </trkpt>
      <trkpt lat="46.06957" lon="4.44442">
        <ele>888.8</ele>
        <time>2025-10-04T11:12:17Z</time>
      </trkpt>
      <trkpt lat="46.06955" lon="4.44442">
        <ele>888.8</ele>
        <time>2025-10-04T11:12:18Z</time>
      </trkpt>
      <trkpt lat="46.06954" lon="4.44442">
        <ele>888.8</ele>
        <time>2025-10-04T11:12:19Z</time>
      </trkpt>
      <trkpt lat="46.06952" lon="4.44441">
        <ele>888.8</ele>
        <time>2025-10-04T11:12:20Z</time>
      </trkpt>
      <trkpt lat="46.0695" lon="4.44441">
        <ele>889</ele>
        <time>2025-10-04T11:12:21Z</time>
      </trkpt>
      <trkpt lat="46.06949" lon="4.44441">
        <ele>889</ele>
        <time>2025-10-04T11:12:22Z</time>
      </trkpt>
      <trkpt lat="46.06948" lon="4.4444">
        <ele>889</ele>
        <time>2025-10-04T11:12:23Z</time>
      </trkpt>
      <trkpt lat="46.06946" lon="4.44439">
        <ele>889.4</ele>
        <time>2025-10-04T11:12:24Z</time>
      </trkpt>
      <trkpt lat="46.06944" lon="4.44437">
        <ele>889.8</ele>
        <time>2025-10-04T11:12:25Z</time>
      </trkpt>
      <trkpt lat="46.06942" lon="4.44436">
        <ele>890</ele>
        <time>2025-10-04T11:12:26Z</time>
      </trkpt>
      <trkpt lat="46.0694" lon="4.44435">
        <ele>890</ele>
        <time>2025-10-04T11:12:27Z</time>
      </trkpt>
      <trkpt lat="46.06939" lon="4.44435">
        <ele>890.6</ele>
        <time>2025-10-04T11:12:28Z</time>
      </trkpt>
      <trkpt lat="46.06938" lon="4.44435">
        <ele>890.6</ele>
        <time>2025-10-04T11:12:29Z</time>
      </trkpt>
      <trkpt lat="46.06935" lon="4.44435">
        <ele>890.6</ele>
        <time>2025-10-04T11:12:30Z</time>
      </trkpt>
      <trkpt lat="46.06933" lon="4.44435">
        <ele>890.6</ele>
        <time>2025-10-04T11:12:31Z</time>
      </trkpt>
      <trkpt lat="46.06931" lon="4.44435">
        <ele>890.6</ele>
        <time>2025-10-04T11:12:32Z</time>
      </trkpt>
      <trkpt lat="46.06929" lon="4.44433">
        <ele>891</ele>
        <time>2025-10-04T11:12:33Z</time>
      </trkpt>
      <trkpt lat="46.06926" lon="4.44432">
        <ele>891</ele>
        <time>2025-10-04T11:12:34Z</time>
      </trkpt>
      <trkpt lat="46.06924" lon="4.4443">
        <ele>891</ele>
        <time>2025-10-04T11:12:35Z</time>
      </trkpt>
      <trkpt lat="46.06923" lon="4.4443">
        <ele>891.2</ele>
        <time>2025-10-04T11:12:36Z</time>
      </trkpt>
      <trkpt lat="46.06922" lon="4.4443">
        <ele>891.2</ele>
        <time>2025-10-04T11:12:37Z</time>
      </trkpt>
      <trkpt lat="46.06921" lon="4.44429">
        <ele>891.4</ele>
        <time>2025-10-04T11:12:38Z</time>
      </trkpt>
      <trkpt lat="46.0692" lon="4.44428">
        <ele>891.4</ele>
        <time>2025-10-04T11:12:39Z</time>
      </trkpt>
      <trkpt lat="46.06919" lon="4.44426">
        <ele>891.4</ele>
        <time>2025-10-04T11:12:40Z</time>
      </trkpt>
      <trkpt lat="46.06917" lon="4.44425">
        <ele>891.4</ele>
        <time>2025-10-04T11:12:41Z</time>
      </trkpt>
      <trkpt lat="46.06916" lon="4.44425">
        <ele>891.4</ele>
        <time>2025-10-04T11:12:42Z</time>
      </trkpt>
      <trkpt lat="46.06915" lon="4.44424">
        <ele>891.4</ele>
        <time>2025-10-04T11:12:43Z</time>
      </trkpt>
      <trkpt lat="46.06913" lon="4.44423">
        <ele>891.4</ele>
        <time>2025-10-04T11:12:44Z</time>
      </trkpt>
      <trkpt lat="46.06912" lon="4.44422">
        <ele>891.4</ele>
        <time>2025-10-04T11:12:45Z</time>
      </trkpt>
      <trkpt lat="46.06911" lon="4.44421">
        <ele>891.6</ele>
        <time>2025-10-04T11:12:46Z</time>
      </trkpt>
      <trkpt lat="46.06909" lon="4.4442">
        <ele>891.8</ele>
        <time>2025-10-04T11:12:47Z</time>
      </trkpt>
      <trkpt lat="46.06908" lon="4.4442">
        <ele>892.2</ele>
        <time>2025-10-04T11:12:48Z</time>
      </trkpt>
      <trkpt lat="46.06906" lon="4.44419">
        <ele>892.2</ele>
        <time>2025-10-04T11:12:49Z</time>
      </trkpt>
      <trkpt lat="46.06905" lon="4.44417">
        <ele>892.4</ele>
        <time>2025-10-04T11:12:50Z</time>
      </trkpt>
      <trkpt lat="46.06903" lon="4.44416">
        <ele>892.4</ele>
        <time>2025-10-04T11:12:51Z</time>
      </trkpt>
      <trkpt lat="46.06901" lon="4.44416">
        <ele>892.6</ele>
        <time>2025-10-04T11:12:52Z</time>
      </trkpt>
      <trkpt lat="46.06899" lon="4.44415">
        <ele>892.6</ele>
        <time>2025-10-04T11:12:53Z</time>
      </trkpt>
      <trkpt lat="46.06897" lon="4.44416">
        <ele>893</ele>
        <time>2025-10-04T11:12:54Z</time>
      </trkpt>
      <trkpt lat="46.06895" lon="4.44416">
        <ele>893</ele>
        <time>2025-10-04T11:12:55Z</time>
      </trkpt>
      <trkpt lat="46.06893" lon="4.44416">
        <ele>893.2</ele>
        <time>2025-10-04T11:12:56Z</time>
      </trkpt>
      <trkpt lat="46.06891" lon="4.44417">
        <ele>893.2</ele>
        <time>2025-10-04T11:12:57Z</time>
      </trkpt>
      <trkpt lat="46.06889" lon="4.44418">
        <ele>893.2</ele>
        <time>2025-10-04T11:12:58Z</time>
      </trkpt>
      <trkpt lat="46.06887" lon="4.44419">
        <ele>893.2</ele>
        <time>2025-10-04T11:12:59Z</time>
      </trkpt>
      <trkpt lat="46.06886" lon="4.44419">
        <ele>893.6</ele>
        <time>2025-10-04T11:13:00Z</time>
      </trkpt>
      <trkpt lat="46.06884" lon="4.44419">
        <ele>893.6</ele>
        <time>2025-10-04T11:13:01Z</time>
      </trkpt>
      <trkpt lat="46.06882" lon="4.4442">
        <ele>893.8</ele>
        <time>2025-10-04T11:13:02Z</time>
      </trkpt>
      <trkpt lat="46.0688" lon="4.4442">
        <ele>894</ele>
        <time>2025-10-04T11:13:03Z</time>
      </trkpt>
      <trkpt lat="46.06878" lon="4.4442">
        <ele>894.4</ele>
        <time>2025-10-04T11:13:04Z</time>
      </trkpt>
      <trkpt lat="46.06877" lon="4.4442">
        <ele>894.4</ele>
        <time>2025-10-04T11:13:05Z</time>
      </trkpt>
      <trkpt lat="46.06875" lon="4.4442">
        <ele>894.8</ele>
        <time>2025-10-04T11:13:06Z</time>
      </trkpt>
      <trkpt lat="46.06873" lon="4.44421">
        <ele>894.8</ele>
        <time>2025-10-04T11:13:07Z</time>
      </trkpt>
      <trkpt lat="46.06872" lon="4.44421">
        <ele>894.8</ele>
        <time>2025-10-04T11:13:08Z</time>
      </trkpt>
      <trkpt lat="46.06871" lon="4.44422">
        <ele>895</ele>
        <time>2025-10-04T11:13:09Z</time>
      </trkpt>
      <trkpt lat="46.0687" lon="4.44423">
        <ele>895</ele>
        <time>2025-10-04T11:13:10Z</time>
      </trkpt>
      <trkpt lat="46.06868" lon="4.44423">
        <ele>895</ele>
        <time>2025-10-04T11:13:11Z</time>
      </trkpt>
      <trkpt lat="46.06867" lon="4.44424">
        <ele>895.4</ele>
        <time>2025-10-04T11:13:12Z</time>
      </trkpt>
      <trkpt lat="46.06866" lon="4.44424">
        <ele>895.6</ele>
        <time>2025-10-04T11:13:13Z</time>
      </trkpt>
      <trkpt lat="46.06865" lon="4.44425">
        <ele>895.6</ele>
        <time>2025-10-04T11:13:14Z</time>
      </trkpt>
      <trkpt lat="46.06864" lon="4.44426">
        <ele>895.6</ele>
        <time>2025-10-04T11:13:15Z</time>
      </trkpt>
      <trkpt lat="46.06863" lon="4.44427">
        <ele>896</ele>
        <time>2025-10-04T11:13:16Z</time>
      </trkpt>
      <trkpt lat="46.06863" lon="4.44428">
        <ele>896.4</ele>
        <time>2025-10-04T11:13:17Z</time>
      </trkpt>
      <trkpt lat="46.06861" lon="4.44429">
        <ele>896.4</ele>
        <time>2025-10-04T11:13:18Z</time>
      </trkpt>
      <trkpt lat="46.0686" lon="4.4443">
        <ele>896.4</ele>
        <time>2025-10-04T11:13:19Z</time>
      </trkpt>
      <trkpt lat="46.06858" lon="4.44431">
        <ele>896.8</ele>
        <time>2025-10-04T11:13:20Z</time>
      </trkpt>
      <trkpt lat="46.06856" lon="4.44432">
        <ele>896.8</ele>
        <time>2025-10-04T11:13:21Z</time>
      </trkpt>
      <trkpt lat="46.06855" lon="4.44432">
        <ele>896.8</ele>
        <time>2025-10-04T11:13:22Z</time>
      </trkpt>
      <trkpt lat="46.06853" lon="4.44433">
        <ele>897</ele>
        <time>2025-10-04T11:13:23Z</time>
      </trkpt>
      <trkpt lat="46.06852" lon="4.44433">
        <ele>897</ele>
        <time>2025-10-04T11:13:24Z</time>
      </trkpt>
      <trkpt lat="46.0685" lon="4.44434">
        <ele>897.2</ele>
        <time>2025-10-04T11:13:25Z</time>
      </trkpt>
      <trkpt lat="46.06849" lon="4.44434">
        <ele>897.2</ele>
        <time>2025-10-04T11:13:26Z</time>
      </trkpt>
      <trkpt lat="46.06847" lon="4.44435">
        <ele>897.6</ele>
        <time>2025-10-04T11:13:27Z</time>
      </trkpt>
      <trkpt lat="46.06845" lon="4.44435">
        <ele>897.8</ele>
        <time>2025-10-04T11:13:28Z</time>
      </trkpt>
      <trkpt lat="46.06844" lon="4.44435">
        <ele>897.8</ele>
        <time>2025-10-04T11:13:29Z</time>
      </trkpt>
      <trkpt lat="46.06843" lon="4.44436">
        <ele>898.2</ele>
        <time>2025-10-04T11:13:30Z</time>
      </trkpt>
      <trkpt lat="46.06842" lon="4.44437">
        <ele>898.2</ele>
        <time>2025-10-04T11:13:31Z</time>
      </trkpt>
      <trkpt lat="46.06841" lon="4.44438">
        <ele>898.6</ele>
        <time>2025-10-04T11:13:32Z</time>
      </trkpt>
      <trkpt lat="46.0684" lon="4.44438">
        <ele>898.6</ele>
        <time>2025-10-04T11:13:33Z</time>
      </trkpt>
      <trkpt lat="46.06839" lon="4.44439">
        <ele>898.8</ele>
        <time>2025-10-04T11:13:34Z</time>
      </trkpt>
      <trkpt lat="46.06838" lon="4.4444">
        <ele>898.8</ele>
        <time>2025-10-04T11:13:35Z</time>
      </trkpt>
      <trkpt lat="46.06836" lon="4.44441">
        <ele>898.8</ele>
        <time>2025-10-04T11:13:36Z</time>
      </trkpt>
      <trkpt lat="46.06835" lon="4.44441">
        <ele>899.2</ele>
        <time>2025-10-04T11:13:37Z</time>
      </trkpt>
      <trkpt lat="46.06833" lon="4.44441">
        <ele>899.2</ele>
        <time>2025-10-04T11:13:38Z</time>
      </trkpt>
      <trkpt lat="46.06832" lon="4.44441">
        <ele>899.2</ele>
        <time>2025-10-04T11:13:39Z</time>
      </trkpt>
      <trkpt lat="46.06831" lon="4.44441">
        <ele>899.4</ele>
        <time>2025-10-04T11:13:40Z</time>
      </trkpt>
      <trkpt lat="46.06829" lon="4.44442">
        <ele>899.4</ele>
        <time>2025-10-04T11:13:41Z</time>
      </trkpt>
      <trkpt lat="46.06827" lon="4.44443">
        <ele>899.4</ele>
        <time>2025-10-04T11:13:42Z</time>
      </trkpt>
      <trkpt lat="46.06825" lon="4.44444">
        <ele>899.8</ele>
        <time>2025-10-04T11:13:43Z</time>
      </trkpt>
      <trkpt lat="46.06824" lon="4.44444">
        <ele>899.8</ele>
        <time>2025-10-04T11:13:44Z</time>
      </trkpt>
      <trkpt lat="46.06822" lon="4.44444">
        <ele>899.8</ele>
        <time>2025-10-04T11:13:45Z</time>
      </trkpt>
      <trkpt lat="46.0682" lon="4.44444">
        <ele>899.8</ele>
        <time>2025-10-04T11:13:46Z</time>
      </trkpt>
      <trkpt lat="46.06818" lon="4.44444">
        <ele>899.8</ele>
        <time>2025-10-04T11:13:47Z</time>
      </trkpt>
      <trkpt lat="46.06816" lon="4.44444">
        <ele>900.2</ele>
        <time>2025-10-04T11:13:48Z</time>
      </trkpt>
      <trkpt lat="46.06815" lon="4.44445">
        <ele>900.2</ele>
        <time>2025-10-04T11:13:49Z</time>
      </trkpt>
      <trkpt lat="46.06813" lon="4.44445">
        <ele>900.6</ele>
        <time>2025-10-04T11:13:50Z</time>
      </trkpt>
      <trkpt lat="46.06811" lon="4.44445">
        <ele>900.6</ele>
        <time>2025-10-04T11:13:51Z</time>
      </trkpt>
      <trkpt lat="46.0681" lon="4.44445">
        <ele>900.6</ele>
        <time>2025-10-04T11:13:52Z</time>
      </trkpt>
      <trkpt lat="46.06808" lon="4.44446">
        <ele>900.6</ele>
        <time>2025-10-04T11:13:53Z</time>
      </trkpt>
      <trkpt lat="46.06805" lon="4.44445">
        <ele>901</ele>
        <time>2025-10-04T11:13:54Z</time>
      </trkpt>
      <trkpt lat="46.06804" lon="4.44445">
        <ele>901</ele>
        <time>2025-10-04T11:13:55Z</time>
      </trkpt>
      <trkpt lat="46.06802" lon="4.44445">
        <ele>901</ele>
        <time>2025-10-04T11:13:56Z</time>
      </trkpt>
      <trkpt lat="46.068" lon="4.44444">
        <ele>901.2</ele>
        <time>2025-10-04T11:13:57Z</time>
      </trkpt>
      <trkpt lat="46.06798" lon="4.44444">
        <ele>901.2</ele>
        <time>2025-10-04T11:13:58Z</time>
      </trkpt>
      <trkpt lat="46.06796" lon="4.44444">
        <ele>901.2</ele>
        <time>2025-10-04T11:13:59Z</time>
      </trkpt>
      <trkpt lat="46.06795" lon="4.44445">
        <ele>901.6</ele>
        <time>2025-10-04T11:14:00Z</time>
      </trkpt>
      <trkpt lat="46.06793" lon="4.44445">
        <ele>901.6</ele>
        <time>2025-10-04T11:14:01Z</time>
      </trkpt>
      <trkpt lat="46.06791" lon="4.44446">
        <ele>901.6</ele>
        <time>2025-10-04T11:14:02Z</time>
      </trkpt>
      <trkpt lat="46.06789" lon="4.44446">
        <ele>901.6</ele>
        <time>2025-10-04T11:14:03Z</time>
      </trkpt>
      <trkpt lat="46.06787" lon="4.44445">
        <ele>901.6</ele>
        <time>2025-10-04T11:14:04Z</time>
      </trkpt>
      <trkpt lat="46.06786" lon="4.44445">
        <ele>901.6</ele>
        <time>2025-10-04T11:14:05Z</time>
      </trkpt>
      <trkpt lat="46.06784" lon="4.44445">
        <ele>901.6</ele>
        <time>2025-10-04T11:14:06Z</time>
      </trkpt>
      <trkpt lat="46.06782" lon="4.44445">
        <ele>901.6</ele>
        <time>2025-10-04T11:14:07Z</time>
      </trkpt>
      <trkpt lat="46.06779" lon="4.44445">
        <ele>901.8</ele>
        <time>2025-10-04T11:14:08Z</time>
      </trkpt>
      <trkpt lat="46.06777" lon="4.44445">
        <ele>901.8</ele>
        <time>2025-10-04T11:14:09Z</time>
      </trkpt>
      <trkpt lat="46.06774" lon="4.44445">
        <ele>901.8</ele>
        <time>2025-10-04T11:14:10Z</time>
      </trkpt>
      <trkpt lat="46.06772" lon="4.44444">
        <ele>901.8</ele>
        <time>2025-10-04T11:14:11Z</time>
      </trkpt>
      <trkpt lat="46.0677" lon="4.44444">
        <ele>901.8</ele>
        <time>2025-10-04T11:14:12Z</time>
      </trkpt>
      <trkpt lat="46.06767" lon="4.44443">
        <ele>901.8</ele>
        <time>2025-10-04T11:14:13Z</time>
      </trkpt>
      <trkpt lat="46.06765" lon="4.44443">
        <ele>902</ele>
        <time>2025-10-04T11:14:14Z</time>
      </trkpt>
      <trkpt lat="46.06761" lon="4.44443">
        <ele>902</ele>
        <time>2025-10-04T11:14:15Z</time>
      </trkpt>
      <trkpt lat="46.06759" lon="4.44442">
        <ele>902</ele>
        <time>2025-10-04T11:14:16Z</time>
      </trkpt>
      <trkpt lat="46.06756" lon="4.44443">
        <ele>901.8</ele>
        <time>2025-10-04T11:14:17Z</time>
      </trkpt>
      <trkpt lat="46.06753" lon="4.44442">
        <ele>901.8</ele>
        <time>2025-10-04T11:14:18Z</time>
      </trkpt>
      <trkpt lat="46.06749" lon="4.44442">
        <ele>901.8</ele>
        <time>2025-10-04T11:14:19Z</time>
      </trkpt>
      <trkpt lat="46.06746" lon="4.44441">
        <ele>901.8</ele>
        <time>2025-10-04T11:14:20Z</time>
      </trkpt>
      <trkpt lat="46.06742" lon="4.44439">
        <ele>901.8</ele>
        <time>2025-10-04T11:14:21Z</time>
      </trkpt>
      <trkpt lat="46.06738" lon="4.44438">
        <ele>901.8</ele>
        <time>2025-10-04T11:14:22Z</time>
      </trkpt>
      <trkpt lat="46.06734" lon="4.44436">
        <ele>901.2</ele>
        <time>2025-10-04T11:14:23Z</time>
      </trkpt>
      <trkpt lat="46.06729" lon="4.44434">
        <ele>901.2</ele>
        <time>2025-10-04T11:14:24Z</time>
      </trkpt>
      <trkpt lat="46.06724" lon="4.44434">
        <ele>900.8</ele>
        <time>2025-10-04T11:14:25Z</time>
      </trkpt>
      <trkpt lat="46.06719" lon="4.44432">
        <ele>900.4</ele>
        <time>2025-10-04T11:14:26Z</time>
      </trkpt>
      <trkpt lat="46.06713" lon="4.44431">
        <ele>900.4</ele>
        <time>2025-10-04T11:14:27Z</time>
      </trkpt>
      <trkpt lat="46.06707" lon="4.44431">
        <ele>899.4</ele>
        <time>2025-10-04T11:14:28Z</time>
      </trkpt>
      <trkpt lat="46.06701" lon="4.44431">
        <ele>898.2</ele>
        <time>2025-10-04T11:14:29Z</time>
      </trkpt>
      <trkpt lat="46.06694" lon="4.4443">
        <ele>898.8</ele>
        <time>2025-10-04T11:14:30Z</time>
      </trkpt>
      <trkpt lat="46.06688" lon="4.44429">
        <ele>898.6</ele>
        <time>2025-10-04T11:14:31Z</time>
      </trkpt>
      <trkpt lat="46.06681" lon="4.44429">
        <ele>897.6</ele>
        <time>2025-10-04T11:14:32Z</time>
      </trkpt>
      <trkpt lat="46.06673" lon="4.44429">
        <ele>897.4</ele>
        <time>2025-10-04T11:14:33Z</time>
      </trkpt>
      <trkpt lat="46.06667" lon="4.4443">
        <ele>897</ele>
        <time>2025-10-04T11:14:34Z</time>
      </trkpt>
      <trkpt lat="46.06659" lon="4.44429">
        <ele>896.4</ele>
        <time>2025-10-04T11:14:35Z</time>
      </trkpt>
      <trkpt lat="46.06654" lon="4.44433">
        <ele>896.6</ele>
        <time>2025-10-04T11:14:36Z</time>
      </trkpt>
      <trkpt lat="46.06648" lon="4.44435">
        <ele>896.4</ele>
        <time>2025-10-04T11:14:37Z</time>
      </trkpt>
      <trkpt lat="46.06642" lon="4.44438">
        <ele>896.4</ele>
        <time>2025-10-04T11:14:38Z</time>
      </trkpt>
      <trkpt lat="46.06638" lon="4.44442">
        <ele>896.4</ele>
        <time>2025-10-04T11:14:39Z</time>
      </trkpt>
      <trkpt lat="46.06633" lon="4.44446">
        <ele>896</ele>
        <time>2025-10-04T11:14:40Z</time>
      </trkpt>
      <trkpt lat="46.06627" lon="4.4445">
        <ele>895.8</ele>
        <time>2025-10-04T11:14:41Z</time>
      </trkpt>
      <trkpt lat="46.06622" lon="4.44453">
        <ele>895.8</ele>
        <time>2025-10-04T11:14:42Z</time>
      </trkpt>
      <trkpt lat="46.06622" lon="4.44453">
        <ele>895.8</ele>
        <time>2025-10-04T11:14:43Z</time>
      </trkpt>
      <trkpt lat="46.06616" lon="4.44455">
        <ele>895.4</ele>
        <time>2025-10-04T11:14:44Z</time>
      </trkpt>
      <trkpt lat="46.06612" lon="4.44457">
        <ele>895.4</ele>
        <time>2025-10-04T11:14:45Z</time>
      </trkpt>
      <trkpt lat="46.06606" lon="4.44457">
        <ele>895.2</ele>
        <time>2025-10-04T11:14:46Z</time>
      </trkpt>
      <trkpt lat="46.06601" lon="4.44457">
        <ele>895.2</ele>
        <time>2025-10-04T11:14:47Z</time>
      </trkpt>
      <trkpt lat="46.06596" lon="4.44456">
        <ele>895.2</ele>
        <time>2025-10-04T11:14:48Z</time>
      </trkpt>
      <trkpt lat="46.06592" lon="4.44455">
        <ele>894.4</ele>
        <time>2025-10-04T11:14:49Z</time>
      </trkpt>
      <trkpt lat="46.06587" lon="4.44454">
        <ele>894.4</ele>
        <time>2025-10-04T11:14:50Z</time>
      </trkpt>
      <trkpt lat="46.06583" lon="4.44453">
        <ele>894.4</ele>
        <time>2025-10-04T11:14:51Z</time>
      </trkpt>
      <trkpt lat="46.06578" lon="4.44451">
        <ele>894.4</ele>
        <time>2025-10-04T11:14:52Z</time>
      </trkpt>
      <trkpt lat="46.06574" lon="4.44447">
        <ele>894.4</ele>
        <time>2025-10-04T11:14:53Z</time>
      </trkpt>
      <trkpt lat="46.0657" lon="4.44446">
        <ele>894.2</ele>
        <time>2025-10-04T11:14:54Z</time>
      </trkpt>
      <trkpt lat="46.06565" lon="4.44442">
        <ele>893</ele>
        <time>2025-10-04T11:14:55Z</time>
      </trkpt>
      <trkpt lat="46.0656" lon="4.4444">
        <ele>893</ele>
        <time>2025-10-04T11:14:56Z</time>
      </trkpt>
      <trkpt lat="46.06555" lon="4.44439">
        <ele>893</ele>
        <time>2025-10-04T11:14:57Z</time>
      </trkpt>
      <trkpt lat="46.06551" lon="4.44439">
        <ele>892.6</ele>
        <time>2025-10-04T11:14:58Z</time>
      </trkpt>
      <trkpt lat="46.06544" lon="4.44434">
        <ele>893.2</ele>
        <time>2025-10-04T11:14:59Z</time>
      </trkpt>
      <trkpt lat="46.06538" lon="4.44431">
        <ele>893.4</ele>
        <time>2025-10-04T11:15:00Z</time>
      </trkpt>
      <trkpt lat="46.06533" lon="4.44428">
        <ele>893</ele>
        <time>2025-10-04T11:15:01Z</time>
      </trkpt>
      <trkpt lat="46.06528" lon="4.44422">
        <ele>892.4</ele>
        <time>2025-10-04T11:15:02Z</time>
      </trkpt>
      <trkpt lat="46.06523" lon="4.44416">
        <ele>892.4</ele>
        <time>2025-10-04T11:15:03Z</time>
      </trkpt>
      <trkpt lat="46.06517" lon="4.44412">
        <ele>892</ele>
        <time>2025-10-04T11:15:04Z</time>
      </trkpt>
      <trkpt lat="46.06511" lon="4.44409">
        <ele>890.6</ele>
        <time>2025-10-04T11:15:05Z</time>
      </trkpt>
      <trkpt lat="46.06504" lon="4.44404">
        <ele>888.4</ele>
        <time>2025-10-04T11:15:06Z</time>
      </trkpt>
      <trkpt lat="46.06496" lon="4.44401">
        <ele>887.6</ele>
        <time>2025-10-04T11:15:07Z</time>
      </trkpt>
      <trkpt lat="46.06488" lon="4.44397">
        <ele>887</ele>
        <time>2025-10-04T11:15:08Z</time>
      </trkpt>
      <trkpt lat="46.0648" lon="4.44393">
        <ele>886.4</ele>
        <time>2025-10-04T11:15:09Z</time>
      </trkpt>
      <trkpt lat="46.06472" lon="4.44388">
        <ele>883</ele>
        <time>2025-10-04T11:15:10Z</time>
      </trkpt>
      <trkpt lat="46.06464" lon="4.44383">
        <ele>882.8</ele>
        <time>2025-10-04T11:15:11Z</time>
      </trkpt>
      <trkpt lat="46.06455" lon="4.44378">
        <ele>883</ele>
        <time>2025-10-04T11:15:12Z</time>
      </trkpt>
      <trkpt lat="46.06446" lon="4.44373">
        <ele>883</ele>
        <time>2025-10-04T11:15:13Z</time>
      </trkpt>
      <trkpt lat="46.06437" lon="4.44367">
        <ele>882</ele>
        <time>2025-10-04T11:15:14Z</time>
      </trkpt>
      <trkpt lat="46.06429" lon="4.44361">
        <ele>881.2</ele>
        <time>2025-10-04T11:15:15Z</time>
      </trkpt>
      <trkpt lat="46.06422" lon="4.44353">
        <ele>881.2</ele>
        <time>2025-10-04T11:15:16Z</time>
      </trkpt>
      <trkpt lat="46.06414" lon="4.44347">
        <ele>880.2</ele>
        <time>2025-10-04T11:15:17Z</time>
      </trkpt>
      <trkpt lat="46.06407" lon="4.4434">
        <ele>879.2</ele>
        <time>2025-10-04T11:15:18Z</time>
      </trkpt>
      <trkpt lat="46.06401" lon="4.44333">
        <ele>878.8</ele>
        <time>2025-10-04T11:15:19Z</time>
      </trkpt>
      <trkpt lat="46.06394" lon="4.44324">
        <ele>878.2</ele>
        <time>2025-10-04T11:15:20Z</time>
      </trkpt>
      <trkpt lat="46.06389" lon="4.44317">
        <ele>878.2</ele>
        <time>2025-10-04T11:15:21Z</time>
      </trkpt>
      <trkpt lat="46.06383" lon="4.44308">
        <ele>877.8</ele>
        <time>2025-10-04T11:15:22Z</time>
      </trkpt>
      <trkpt lat="46.06378" lon="4.443">
        <ele>877.4</ele>
        <time>2025-10-04T11:15:23Z</time>
      </trkpt>
      <trkpt lat="46.06371" lon="4.44294">
        <ele>877.4</ele>
        <time>2025-10-04T11:15:24Z</time>
      </trkpt>
      <trkpt lat="46.06363" lon="4.44289">
        <ele>877</ele>
        <time>2025-10-04T11:15:25Z</time>
      </trkpt>
      <trkpt lat="46.06356" lon="4.44284">
        <ele>876.4</ele>
        <time>2025-10-04T11:15:26Z</time>
      </trkpt>
      <trkpt lat="46.06349" lon="4.4428">
        <ele>876.2</ele>
        <time>2025-10-04T11:15:27Z</time>
      </trkpt>
      <trkpt lat="46.06342" lon="4.44276">
        <ele>875.8</ele>
        <time>2025-10-04T11:15:28Z</time>
      </trkpt>
      <trkpt lat="46.06335" lon="4.44271">
        <ele>875.2</ele>
        <time>2025-10-04T11:15:29Z</time>
      </trkpt>
      <trkpt lat="46.06329" lon="4.44267">
        <ele>874</ele>
        <time>2025-10-04T11:15:30Z</time>
      </trkpt>
      <trkpt lat="46.06323" lon="4.44261">
        <ele>874.2</ele>
        <time>2025-10-04T11:15:31Z</time>
      </trkpt>
      <trkpt lat="46.06317" lon="4.44257">
        <ele>873.8</ele>
        <time>2025-10-04T11:15:32Z</time>
      </trkpt>
      <trkpt lat="46.06311" lon="4.44253">
        <ele>873.2</ele>
        <time>2025-10-04T11:15:33Z</time>
      </trkpt>
      <trkpt lat="46.06306" lon="4.44247">
        <ele>872.8</ele>
        <time>2025-10-04T11:15:34Z</time>
      </trkpt>
      <trkpt lat="46.063" lon="4.44242">
        <ele>872.8</ele>
        <time>2025-10-04T11:15:35Z</time>
      </trkpt>
      <trkpt lat="46.06295" lon="4.44239">
        <ele>872.8</ele>
        <time>2025-10-04T11:15:36Z</time>
      </trkpt>
      <trkpt lat="46.06289" lon="4.44236">
        <ele>872.8</ele>
        <time>2025-10-04T11:15:37Z</time>
      </trkpt>
      <trkpt lat="46.06282" lon="4.44232">
        <ele>872.6</ele>
        <time>2025-10-04T11:15:38Z</time>
      </trkpt>
      <trkpt lat="46.06277" lon="4.44227">
        <ele>872.4</ele>
        <time>2025-10-04T11:15:39Z</time>
      </trkpt>
      <trkpt lat="46.06271" lon="4.44224">
        <ele>871.6</ele>
        <time>2025-10-04T11:15:40Z</time>
      </trkpt>
      <trkpt lat="46.06264" lon="4.4422">
        <ele>871.6</ele>
        <time>2025-10-04T11:15:41Z</time>
      </trkpt>
      <trkpt lat="46.06257" lon="4.44218">
        <ele>872</ele>
        <time>2025-10-04T11:15:42Z</time>
      </trkpt>
      <trkpt lat="46.06252" lon="4.44213">
        <ele>872</ele>
        <time>2025-10-04T11:15:43Z</time>
      </trkpt>
      <trkpt lat="46.06239" lon="4.44207">
        <ele>872.4</ele>
        <time>2025-10-04T11:15:44Z</time>
      </trkpt>
      <trkpt lat="46.06233" lon="4.44202">
        <ele>872</ele>
        <time>2025-10-04T11:15:45Z</time>
      </trkpt>
      <trkpt lat="46.06225" lon="4.44194">
        <ele>873</ele>
        <time>2025-10-04T11:15:46Z</time>
      </trkpt>
      <trkpt lat="46.06226" lon="4.44187">
        <ele>872.2</ele>
        <time>2025-10-04T11:15:47Z</time>
      </trkpt>
      <trkpt lat="46.06221" lon="4.44181">
        <ele>871.8</ele>
        <time>2025-10-04T11:15:48Z</time>
      </trkpt>
      <trkpt lat="46.06217" lon="4.44175">
        <ele>872.2</ele>
        <time>2025-10-04T11:15:49Z</time>
      </trkpt>
      <trkpt lat="46.06212" lon="4.4417">
        <ele>871.6</ele>
        <time>2025-10-04T11:15:50Z</time>
      </trkpt>
      <trkpt lat="46.06208" lon="4.44165">
        <ele>870.6</ele>
        <time>2025-10-04T11:15:51Z</time>
      </trkpt>
      <trkpt lat="46.06202" lon="4.44161">
        <ele>871.2</ele>
        <time>2025-10-04T11:15:52Z</time>
      </trkpt>
      <trkpt lat="46.06198" lon="4.44158">
        <ele>870.6</ele>
        <time>2025-10-04T11:15:53Z</time>
      </trkpt>
      <trkpt lat="46.06193" lon="4.44155">
        <ele>869.6</ele>
        <time>2025-10-04T11:15:54Z</time>
      </trkpt>
      <trkpt lat="46.06188" lon="4.4415">
        <ele>868.8</ele>
        <time>2025-10-04T11:15:55Z</time>
      </trkpt>
      <trkpt lat="46.06182" lon="4.44147">
        <ele>867.4</ele>
        <time>2025-10-04T11:15:56Z</time>
      </trkpt>
      <trkpt lat="46.06176" lon="4.44145">
        <ele>866.8</ele>
        <time>2025-10-04T11:15:57Z</time>
      </trkpt>
      <trkpt lat="46.06169" lon="4.4414">
        <ele>866.8</ele>
        <time>2025-10-04T11:15:58Z</time>
      </trkpt>
      <trkpt lat="46.06161" lon="4.44135">
        <ele>865.8</ele>
        <time>2025-10-04T11:15:59Z</time>
      </trkpt>
      <trkpt lat="46.06157" lon="4.44135">
        <ele>865</ele>
        <time>2025-10-04T11:16:00Z</time>
      </trkpt>
      <trkpt lat="46.0615" lon="4.44132">
        <ele>864.2</ele>
        <time>2025-10-04T11:16:01Z</time>
      </trkpt>
      <trkpt lat="46.06144" lon="4.44128">
        <ele>863.4</ele>
        <time>2025-10-04T11:16:02Z</time>
      </trkpt>
      <trkpt lat="46.06137" lon="4.44128">
        <ele>863</ele>
        <time>2025-10-04T11:16:03Z</time>
      </trkpt>
      <trkpt lat="46.06131" lon="4.44127">
        <ele>862</ele>
        <time>2025-10-04T11:16:04Z</time>
      </trkpt>
      <trkpt lat="46.06126" lon="4.44126">
        <ele>861</ele>
        <time>2025-10-04T11:16:05Z</time>
      </trkpt>
      <trkpt lat="46.06122" lon="4.44128">
        <ele>860.6</ele>
        <time>2025-10-04T11:16:06Z</time>
      </trkpt>
      <trkpt lat="46.06117" lon="4.44125">
        <ele>860.4</ele>
        <time>2025-10-04T11:16:07Z</time>
      </trkpt>
      <trkpt lat="46.06112" lon="4.44126">
        <ele>860</ele>
        <time>2025-10-04T11:16:08Z</time>
      </trkpt>
      <trkpt lat="46.06105" lon="4.44127">
        <ele>859.6</ele>
        <time>2025-10-04T11:16:09Z</time>
      </trkpt>
      <trkpt lat="46.06099" lon="4.44132">
        <ele>859.6</ele>
        <time>2025-10-04T11:16:10Z</time>
      </trkpt>
      <trkpt lat="46.06093" lon="4.44135">
        <ele>859.6</ele>
        <time>2025-10-04T11:16:11Z</time>
      </trkpt>
      <trkpt lat="46.06089" lon="4.44133">
        <ele>859</ele>
        <time>2025-10-04T11:16:12Z</time>
      </trkpt>
      <trkpt lat="46.06079" lon="4.44134">
        <ele>858.4</ele>
        <time>2025-10-04T11:16:13Z</time>
      </trkpt>
      <trkpt lat="46.06076" lon="4.44135">
        <ele>858</ele>
        <time>2025-10-04T11:16:14Z</time>
      </trkpt>
      <trkpt lat="46.06072" lon="4.44134">
        <ele>857.6</ele>
        <time>2025-10-04T11:16:15Z</time>
      </trkpt>
      <trkpt lat="46.06069" lon="4.44134">
        <ele>857.2</ele>
        <time>2025-10-04T11:16:16Z</time>
      </trkpt>
      <trkpt lat="46.06069" lon="4.44133">
        <ele>856.8</ele>
        <time>2025-10-04T11:16:17Z</time>
      </trkpt>
      <trkpt lat="46.06069" lon="4.44133">
        <ele>856.8</ele>
        <time>2025-10-04T11:16:18Z</time>
      </trkpt>
      <trkpt lat="46.06069" lon="4.44133">
        <ele>856.4</ele>
        <time>2025-10-04T11:16:19Z</time>
      </trkpt>
      <trkpt lat="46.06065" lon="4.44143">
        <ele>856.2</ele>
        <time>2025-10-04T11:17:11Z</time>
      </trkpt>
      <trkpt lat="46.06062" lon="4.44143">
        <ele>856.2</ele>
        <time>2025-10-04T11:17:12Z</time>
      </trkpt>
      <trkpt lat="46.06059" lon="4.4414">
        <ele>856</ele>
        <time>2025-10-04T11:17:13Z</time>
      </trkpt>
      <trkpt lat="46.06056" lon="4.44139">
        <ele>856</ele>
        <time>2025-10-04T11:17:14Z</time>
      </trkpt>
      <trkpt lat="46.06053" lon="4.44139">
        <ele>856</ele>
        <time>2025-10-04T11:17:15Z</time>
      </trkpt>
      <trkpt lat="46.06047" lon="4.44135">
        <ele>856</ele>
        <time>2025-10-04T11:17:16Z</time>
      </trkpt>
      <trkpt lat="46.06043" lon="4.44134">
        <ele>855.8</ele>
        <time>2025-10-04T11:17:17Z</time>
      </trkpt>
      <trkpt lat="46.06039" lon="4.44135">
        <ele>855.8</ele>
        <time>2025-10-04T11:17:18Z</time>
      </trkpt>
      <trkpt lat="46.06035" lon="4.44134">
        <ele>855.8</ele>
        <time>2025-10-04T11:17:19Z</time>
      </trkpt>
      <trkpt lat="46.06031" lon="4.44132">
        <ele>855.4</ele>
        <time>2025-10-04T11:17:20Z</time>
      </trkpt>
      <trkpt lat="46.06027" lon="4.44132">
        <ele>855.4</ele>
        <time>2025-10-04T11:17:21Z</time>
      </trkpt>
      <trkpt lat="46.06022" lon="4.44131">
        <ele>855.4</ele>
        <time>2025-10-04T11:17:22Z</time>
      </trkpt>
      <trkpt lat="46.06018" lon="4.44129">
        <ele>855</ele>
        <time>2025-10-04T11:17:23Z</time>
      </trkpt>
      <trkpt lat="46.06015" lon="4.44129">
        <ele>855</ele>
        <time>2025-10-04T11:17:24Z</time>
      </trkpt>
      <trkpt lat="46.0601" lon="4.44128">
        <ele>854.8</ele>
        <time>2025-10-04T11:17:25Z</time>
      </trkpt>
      <trkpt lat="46.06006" lon="4.44126">
        <ele>854.8</ele>
        <time>2025-10-04T11:17:26Z</time>
      </trkpt>
      <trkpt lat="46.06001" lon="4.44125">
        <ele>854.8</ele>
        <time>2025-10-04T11:17:27Z</time>
      </trkpt>
      <trkpt lat="46.05998" lon="4.44123">
        <ele>854.8</ele>
        <time>2025-10-04T11:17:28Z</time>
      </trkpt>
      <trkpt lat="46.05995" lon="4.44121">
        <ele>855.2</ele>
        <time>2025-10-04T11:17:29Z</time>
      </trkpt>
      <trkpt lat="46.05991" lon="4.44121">
        <ele>855.2</ele>
        <time>2025-10-04T11:17:30Z</time>
      </trkpt>
      <trkpt lat="46.05988" lon="4.4412">
        <ele>855.4</ele>
        <time>2025-10-04T11:17:31Z</time>
      </trkpt>
      <trkpt lat="46.05984" lon="4.4412">
        <ele>855.4</ele>
        <time>2025-10-04T11:17:32Z</time>
      </trkpt>
      <trkpt lat="46.05982" lon="4.4412">
        <ele>855.8</ele>
        <time>2025-10-04T11:17:33Z</time>
      </trkpt>
      <trkpt lat="46.05979" lon="4.44119">
        <ele>855.8</ele>
        <time>2025-10-04T11:17:34Z</time>
      </trkpt>
      <trkpt lat="46.05977" lon="4.44119">
        <ele>856.2</ele>
        <time>2025-10-04T11:17:35Z</time>
      </trkpt>
      <trkpt lat="46.05974" lon="4.44119">
        <ele>856.4</ele>
        <time>2025-10-04T11:17:36Z</time>
      </trkpt>
      <trkpt lat="46.05971" lon="4.4412">
        <ele>856.8</ele>
        <time>2025-10-04T11:17:37Z</time>
      </trkpt>
      <trkpt lat="46.05969" lon="4.44121">
        <ele>857.2</ele>
        <time>2025-10-04T11:17:38Z</time>
      </trkpt>
      <trkpt lat="46.05968" lon="4.44121">
        <ele>857.6</ele>
        <time>2025-10-04T11:17:39Z</time>
      </trkpt>
      <trkpt lat="46.05966" lon="4.44121">
        <ele>857.8</ele>
        <time>2025-10-04T11:17:40Z</time>
      </trkpt>
      <trkpt lat="46.05964" lon="4.44122">
        <ele>858.2</ele>
        <time>2025-10-04T11:17:41Z</time>
      </trkpt>
      <trkpt lat="46.05962" lon="4.44122">
        <ele>858.4</ele>
        <time>2025-10-04T11:17:42Z</time>
      </trkpt>
      <trkpt lat="46.05959" lon="4.44124">
        <ele>858.6</ele>
        <time>2025-10-04T11:17:43Z</time>
      </trkpt>
      <trkpt lat="46.05957" lon="4.44125">
        <ele>858.6</ele>
        <time>2025-10-04T11:17:44Z</time>
      </trkpt>
      <trkpt lat="46.05955" lon="4.44126">
        <ele>859</ele>
        <time>2025-10-04T11:17:45Z</time>
      </trkpt>
      <trkpt lat="46.05953" lon="4.44126">
        <ele>859.4</ele>
        <time>2025-10-04T11:17:46Z</time>
      </trkpt>
      <trkpt lat="46.05952" lon="4.44127">
        <ele>859.4</ele>
        <time>2025-10-04T11:17:47Z</time>
      </trkpt>
      <trkpt lat="46.0595" lon="4.44127">
        <ele>859.4</ele>
        <time>2025-10-04T11:17:48Z</time>
      </trkpt>
      <trkpt lat="46.05948" lon="4.44127">
        <ele>859.8</ele>
        <time>2025-10-04T11:17:49Z</time>
      </trkpt>
      <trkpt lat="46.05946" lon="4.44128">
        <ele>859.8</ele>
        <time>2025-10-04T11:17:50Z</time>
      </trkpt>
      <trkpt lat="46.05944" lon="4.44128">
        <ele>859.8</ele>
        <time>2025-10-04T11:17:51Z</time>
      </trkpt>
      <trkpt lat="46.05942" lon="4.44127">
        <ele>860.2</ele>
        <time>2025-10-04T11:17:52Z</time>
      </trkpt>
      <trkpt lat="46.0594" lon="4.44126">
        <ele>860.2</ele>
        <time>2025-10-04T11:17:53Z</time>
      </trkpt>
      <trkpt lat="46.05938" lon="4.44125">
        <ele>860.4</ele>
        <time>2025-10-04T11:17:54Z</time>
      </trkpt>
      <trkpt lat="46.05936" lon="4.44125">
        <ele>860.4</ele>
        <time>2025-10-04T11:17:55Z</time>
      </trkpt>
      <trkpt lat="46.05934" lon="4.44125">
        <ele>860.8</ele>
        <time>2025-10-04T11:17:56Z</time>
      </trkpt>
      <trkpt lat="46.05933" lon="4.44126">
        <ele>860.8</ele>
        <time>2025-10-04T11:17:57Z</time>
      </trkpt>
      <trkpt lat="46.05932" lon="4.44126">
        <ele>861.2</ele>
        <time>2025-10-04T11:17:58Z</time>
      </trkpt>
      <trkpt lat="46.0593" lon="4.44126">
        <ele>861.2</ele>
        <time>2025-10-04T11:17:59Z</time>
      </trkpt>
      <trkpt lat="46.05929" lon="4.44126">
        <ele>861.2</ele>
        <time>2025-10-04T11:18:00Z</time>
      </trkpt>
      <trkpt lat="46.05927" lon="4.44126">
        <ele>861.4</ele>
        <time>2025-10-04T11:18:01Z</time>
      </trkpt>
      <trkpt lat="46.05925" lon="4.44126">
        <ele>861</ele>
        <time>2025-10-04T11:18:02Z</time>
      </trkpt>
      <trkpt lat="46.05923" lon="4.44125">
        <ele>861.2</ele>
        <time>2025-10-04T11:18:03Z</time>
      </trkpt>
      <trkpt lat="46.05921" lon="4.44125">
        <ele>861.6</ele>
        <time>2025-10-04T11:18:04Z</time>
      </trkpt>
      <trkpt lat="46.05919" lon="4.44126">
        <ele>862</ele>
        <time>2025-10-04T11:18:05Z</time>
      </trkpt>
      <trkpt lat="46.05918" lon="4.44126">
        <ele>862</ele>
        <time>2025-10-04T11:18:06Z</time>
      </trkpt>
      <trkpt lat="46.05916" lon="4.44126">
        <ele>862.4</ele>
        <time>2025-10-04T11:18:07Z</time>
      </trkpt>
      <trkpt lat="46.05914" lon="4.44126">
        <ele>862.4</ele>
        <time>2025-10-04T11:18:08Z</time>
      </trkpt>
      <trkpt lat="46.05912" lon="4.44126">
        <ele>862.4</ele>
        <time>2025-10-04T11:18:09Z</time>
      </trkpt>
      <trkpt lat="46.0591" lon="4.44126">
        <ele>862.4</ele>
        <time>2025-10-04T11:18:10Z</time>
      </trkpt>
      <trkpt lat="46.05908" lon="4.44125">
        <ele>862.4</ele>
        <time>2025-10-04T11:18:11Z</time>
      </trkpt>
      <trkpt lat="46.05907" lon="4.44125">
        <ele>862.2</ele>
        <time>2025-10-04T11:18:12Z</time>
      </trkpt>
      <trkpt lat="46.05905" lon="4.44124">
        <ele>862.2</ele>
        <time>2025-10-04T11:18:13Z</time>
      </trkpt>
      <trkpt lat="46.05903" lon="4.44124">
        <ele>862.2</ele>
        <time>2025-10-04T11:18:14Z</time>
      </trkpt>
      <trkpt lat="46.05901" lon="4.44125">
        <ele>862.4</ele>
        <time>2025-10-04T11:18:15Z</time>
      </trkpt>
      <trkpt lat="46.05899" lon="4.44125">
        <ele>862.6</ele>
        <time>2025-10-04T11:18:16Z</time>
      </trkpt>
      <trkpt lat="46.05897" lon="4.44125">
        <ele>862.6</ele>
        <time>2025-10-04T11:18:17Z</time>
      </trkpt>
      <trkpt lat="46.05895" lon="4.44124">
        <ele>862.6</ele>
        <time>2025-10-04T11:18:18Z</time>
      </trkpt>
      <trkpt lat="46.05893" lon="4.44124">
        <ele>862.2</ele>
        <time>2025-10-04T11:18:19Z</time>
      </trkpt>
      <trkpt lat="46.05891" lon="4.44124">
        <ele>862.8</ele>
        <time>2025-10-04T11:18:20Z</time>
      </trkpt>
      <trkpt lat="46.05889" lon="4.44124">
        <ele>862.8</ele>
        <time>2025-10-04T11:18:21Z</time>
      </trkpt>
      <trkpt lat="46.05888" lon="4.44123">
        <ele>863.2</ele>
        <time>2025-10-04T11:18:22Z</time>
      </trkpt>
      <trkpt lat="46.05886" lon="4.44123">
        <ele>863.8</ele>
        <time>2025-10-04T11:18:23Z</time>
      </trkpt>
      <trkpt lat="46.05884" lon="4.44123">
        <ele>864.2</ele>
        <time>2025-10-04T11:18:24Z</time>
      </trkpt>
      <trkpt lat="46.05882" lon="4.44123">
        <ele>864.2</ele>
        <time>2025-10-04T11:18:25Z</time>
      </trkpt>
      <trkpt lat="46.0588" lon="4.44123">
        <ele>864.2</ele>
        <time>2025-10-04T11:18:26Z</time>
      </trkpt>
      <trkpt lat="46.05879" lon="4.44122">
        <ele>864.2</ele>
        <time>2025-10-04T11:18:27Z</time>
      </trkpt>
      <trkpt lat="46.05877" lon="4.44122">
        <ele>864.2</ele>
        <time>2025-10-04T11:18:28Z</time>
      </trkpt>
      <trkpt lat="46.05875" lon="4.44122">
        <ele>864.2</ele>
        <time>2025-10-04T11:18:29Z</time>
      </trkpt>
      <trkpt lat="46.05873" lon="4.44123">
        <ele>864.2</ele>
        <time>2025-10-04T11:18:30Z</time>
      </trkpt>
      <trkpt lat="46.05871" lon="4.44123">
        <ele>864.2</ele>
        <time>2025-10-04T11:18:31Z</time>
      </trkpt>
      <trkpt lat="46.05869" lon="4.44123">
        <ele>864.6</ele>
        <time>2025-10-04T11:18:32Z</time>
      </trkpt>
      <trkpt lat="46.05868" lon="4.44122">
        <ele>864.6</ele>
        <time>2025-10-04T11:18:33Z</time>
      </trkpt>
      <trkpt lat="46.05866" lon="4.44122">
        <ele>864.8</ele>
        <time>2025-10-04T11:18:34Z</time>
      </trkpt>
      <trkpt lat="46.05864" lon="4.44121">
        <ele>865.2</ele>
        <time>2025-10-04T11:18:35Z</time>
      </trkpt>
      <trkpt lat="46.05862" lon="4.4412">
        <ele>865.2</ele>
        <time>2025-10-04T11:18:36Z</time>
      </trkpt>
      <trkpt lat="46.0586" lon="4.4412">
        <ele>865.2</ele>
        <time>2025-10-04T11:18:37Z</time>
      </trkpt>
      <trkpt lat="46.05858" lon="4.44119">
        <ele>865.4</ele>
        <time>2025-10-04T11:18:38Z</time>
      </trkpt>
      <trkpt lat="46.05856" lon="4.44118">
        <ele>865.6</ele>
        <time>2025-10-04T11:18:39Z</time>
      </trkpt>
      <trkpt lat="46.05855" lon="4.44118">
        <ele>865.6</ele>
        <time>2025-10-04T11:18:40Z</time>
      </trkpt>
      <trkpt lat="46.05853" lon="4.44117">
        <ele>865.6</ele>
        <time>2025-10-04T11:18:41Z</time>
      </trkpt>
      <trkpt lat="46.05851" lon="4.44117">
        <ele>865.8</ele>
        <time>2025-10-04T11:18:42Z</time>
      </trkpt>
      <trkpt lat="46.05849" lon="4.44116">
        <ele>865.8</ele>
        <time>2025-10-04T11:18:43Z</time>
      </trkpt>
      <trkpt lat="46.05847" lon="4.44116">
        <ele>866.2</ele>
        <time>2025-10-04T11:18:44Z</time>
      </trkpt>
      <trkpt lat="46.05846" lon="4.44115">
        <ele>866.6</ele>
        <time>2025-10-04T11:18:45Z</time>
      </trkpt>
      <trkpt lat="46.05844" lon="4.44114">
        <ele>866.6</ele>
        <time>2025-10-04T11:18:46Z</time>
      </trkpt>
      <trkpt lat="46.05842" lon="4.44113">
        <ele>866.8</ele>
        <time>2025-10-04T11:18:47Z</time>
      </trkpt>
      <trkpt lat="46.0584" lon="4.44111">
        <ele>866.8</ele>
        <time>2025-10-04T11:18:48Z</time>
      </trkpt>
      <trkpt lat="46.05838" lon="4.4411">
        <ele>867</ele>
        <time>2025-10-04T11:18:49Z</time>
      </trkpt>
      <trkpt lat="46.05836" lon="4.44109">
        <ele>867</ele>
        <time>2025-10-04T11:18:50Z</time>
      </trkpt>
      <trkpt lat="46.05835" lon="4.44108">
        <ele>867.4</ele>
        <time>2025-10-04T11:18:51Z</time>
      </trkpt>
      <trkpt lat="46.05834" lon="4.44107">
        <ele>867.4</ele>
        <time>2025-10-04T11:18:52Z</time>
      </trkpt>
      <trkpt lat="46.05832" lon="4.44105">
        <ele>867.8</ele>
        <time>2025-10-04T11:18:53Z</time>
      </trkpt>
      <trkpt lat="46.05831" lon="4.44104">
        <ele>867.8</ele>
        <time>2025-10-04T11:18:54Z</time>
      </trkpt>
      <trkpt lat="46.0583" lon="4.44102">
        <ele>868.2</ele>
        <time>2025-10-04T11:18:55Z</time>
      </trkpt>
      <trkpt lat="46.05828" lon="4.44101">
        <ele>868.2</ele>
        <time>2025-10-04T11:18:56Z</time>
      </trkpt>
      <trkpt lat="46.05827" lon="4.441">
        <ele>868.2</ele>
        <time>2025-10-04T11:18:57Z</time>
      </trkpt>
      <trkpt lat="46.05826" lon="4.44099">
        <ele>868.8</ele>
        <time>2025-10-04T11:18:58Z</time>
      </trkpt>
      <trkpt lat="46.05824" lon="4.44098">
        <ele>869.2</ele>
        <time>2025-10-04T11:18:59Z</time>
      </trkpt>
      <trkpt lat="46.05822" lon="4.44097">
        <ele>869.2</ele>
        <time>2025-10-04T11:19:00Z</time>
      </trkpt>
      <trkpt lat="46.0582" lon="4.44096">
        <ele>869.6</ele>
        <time>2025-10-04T11:19:01Z</time>
      </trkpt>
      <trkpt lat="46.05818" lon="4.44096">
        <ele>869.6</ele>
        <time>2025-10-04T11:19:02Z</time>
      </trkpt>
      <trkpt lat="46.05817" lon="4.44095">
        <ele>869.6</ele>
        <time>2025-10-04T11:19:03Z</time>
      </trkpt>
      <trkpt lat="46.05815" lon="4.44094">
        <ele>870</ele>
        <time>2025-10-04T11:19:04Z</time>
      </trkpt>
      <trkpt lat="46.05813" lon="4.44093">
        <ele>870</ele>
        <time>2025-10-04T11:19:05Z</time>
      </trkpt>
      <trkpt lat="46.05811" lon="4.44092">
        <ele>870</ele>
        <time>2025-10-04T11:19:06Z</time>
      </trkpt>
      <trkpt lat="46.05809" lon="4.44092">
        <ele>870.2</ele>
        <time>2025-10-04T11:19:07Z</time>
      </trkpt>
      <trkpt lat="46.05807" lon="4.44092">
        <ele>870.2</ele>
        <time>2025-10-04T11:19:08Z</time>
      </trkpt>
      <trkpt lat="46.05805" lon="4.44091">
        <ele>870.2</ele>
        <time>2025-10-04T11:19:09Z</time>
      </trkpt>
      <trkpt lat="46.05803" lon="4.4409">
        <ele>870.2</ele>
        <time>2025-10-04T11:19:10Z</time>
      </trkpt>
      <trkpt lat="46.05802" lon="4.4409">
        <ele>870.2</ele>
        <time>2025-10-04T11:19:11Z</time>
      </trkpt>
      <trkpt lat="46.058" lon="4.4409">
        <ele>870.4</ele>
        <time>2025-10-04T11:19:12Z</time>
      </trkpt>
      <trkpt lat="46.05798" lon="4.4409">
        <ele>870.4</ele>
        <time>2025-10-04T11:19:13Z</time>
      </trkpt>
      <trkpt lat="46.05796" lon="4.4409">
        <ele>870.4</ele>
        <time>2025-10-04T11:19:14Z</time>
      </trkpt>
      <trkpt lat="46.05795" lon="4.4409">
        <ele>870.6</ele>
        <time>2025-10-04T11:19:15Z</time>
      </trkpt>
      <trkpt lat="46.05793" lon="4.4409">
        <ele>870.8</ele>
        <time>2025-10-04T11:19:16Z</time>
      </trkpt>
      <trkpt lat="46.05791" lon="4.4409">
        <ele>871.4</ele>
        <time>2025-10-04T11:19:17Z</time>
      </trkpt>
      <trkpt lat="46.05789" lon="4.4409">
        <ele>871.4</ele>
        <time>2025-10-04T11:19:18Z</time>
      </trkpt>
      <trkpt lat="46.05787" lon="4.44091">
        <ele>871.6</ele>
        <time>2025-10-04T11:19:19Z</time>
      </trkpt>
      <trkpt lat="46.05786" lon="4.44091">
        <ele>871.6</ele>
        <time>2025-10-04T11:19:20Z</time>
      </trkpt>
      <trkpt lat="46.05784" lon="4.44092">
        <ele>871.6</ele>
        <time>2025-10-04T11:19:21Z</time>
      </trkpt>
      <trkpt lat="46.05782" lon="4.44092">
        <ele>871.6</ele>
        <time>2025-10-04T11:19:22Z</time>
      </trkpt>
      <trkpt lat="46.0578" lon="4.44093">
        <ele>871.8</ele>
        <time>2025-10-04T11:19:23Z</time>
      </trkpt>
      <trkpt lat="46.05779" lon="4.44094">
        <ele>871.8</ele>
        <time>2025-10-04T11:19:24Z</time>
      </trkpt>
      <trkpt lat="46.05777" lon="4.44095">
        <ele>872.2</ele>
        <time>2025-10-04T11:19:25Z</time>
      </trkpt>
      <trkpt lat="46.05775" lon="4.44096">
        <ele>872.6</ele>
        <time>2025-10-04T11:19:26Z</time>
      </trkpt>
      <trkpt lat="46.05773" lon="4.44097">
        <ele>872.8</ele>
        <time>2025-10-04T11:19:27Z</time>
      </trkpt>
      <trkpt lat="46.05771" lon="4.44097">
        <ele>873</ele>
        <time>2025-10-04T11:19:28Z</time>
      </trkpt>
      <trkpt lat="46.05769" lon="4.44098">
        <ele>873.4</ele>
        <time>2025-10-04T11:19:29Z</time>
      </trkpt>
      <trkpt lat="46.05767" lon="4.44099">
        <ele>873.4</ele>
        <time>2025-10-04T11:19:30Z</time>
      </trkpt>
      <trkpt lat="46.05765" lon="4.441">
        <ele>873.4</ele>
        <time>2025-10-04T11:19:31Z</time>
      </trkpt>
      <trkpt lat="46.05763" lon="4.44101">
        <ele>873.4</ele>
        <time>2025-10-04T11:19:32Z</time>
      </trkpt>
      <trkpt lat="46.0576" lon="4.44103">
        <ele>873.4</ele>
        <time>2025-10-04T11:19:33Z</time>
      </trkpt>
      <trkpt lat="46.05758" lon="4.44104">
        <ele>873.4</ele>
        <time>2025-10-04T11:19:34Z</time>
      </trkpt>
      <trkpt lat="46.05756" lon="4.44105">
        <ele>873.4</ele>
        <time>2025-10-04T11:19:35Z</time>
      </trkpt>
      <trkpt lat="46.05753" lon="4.44106">
        <ele>873.6</ele>
        <time>2025-10-04T11:19:36Z</time>
      </trkpt>
      <trkpt lat="46.05751" lon="4.44107">
        <ele>873.6</ele>
        <time>2025-10-04T11:19:37Z</time>
      </trkpt>
      <trkpt lat="46.05748" lon="4.44108">
        <ele>873.6</ele>
        <time>2025-10-04T11:19:38Z</time>
      </trkpt>
      <trkpt lat="46.05746" lon="4.44109">
        <ele>873.6</ele>
        <time>2025-10-04T11:19:39Z</time>
      </trkpt>
      <trkpt lat="46.05744" lon="4.44109">
        <ele>873.6</ele>
        <time>2025-10-04T11:19:40Z</time>
      </trkpt>
      <trkpt lat="46.05742" lon="4.44108">
        <ele>873.6</ele>
        <time>2025-10-04T11:19:41Z</time>
      </trkpt>
      <trkpt lat="46.05742" lon="4.44108">
        <ele>873.8</ele>
        <time>2025-10-04T11:19:42Z</time>
      </trkpt>
      <trkpt lat="46.05741" lon="4.44107">
        <ele>873.8</ele>
        <time>2025-10-04T11:19:43Z</time>
      </trkpt>
      <trkpt lat="46.05741" lon="4.44107">
        <ele>874.2</ele>
        <time>2025-10-04T11:19:44Z</time>
      </trkpt>
      <trkpt lat="46.05741" lon="4.44107">
        <ele>874.2</ele>
        <time>2025-10-04T11:19:45Z</time>
      </trkpt>
      <trkpt lat="46.05741" lon="4.44107">
        <ele>874.4</ele>
        <time>2025-10-04T11:19:46Z</time>
      </trkpt>
      <trkpt lat="46.05741" lon="4.44109">
        <ele>875.2</ele>
        <time>2025-10-04T11:19:53Z</time>
      </trkpt>
      <trkpt lat="46.05741" lon="4.4411">
        <ele>875.2</ele>
        <time>2025-10-04T11:19:54Z</time>
      </trkpt>
      <trkpt lat="46.05741" lon="4.44111">
        <ele>875.2</ele>
        <time>2025-10-04T11:19:55Z</time>
      </trkpt>
      <trkpt lat="46.05741" lon="4.44111">
        <ele>875</ele>
        <time>2025-10-04T11:19:56Z</time>
      </trkpt>
      <trkpt lat="46.05742" lon="4.44111">
        <ele>875</ele>
        <time>2025-10-04T11:19:57Z</time>
      </trkpt>
      <trkpt lat="46.05746" lon="4.44105">
        <ele>875.4</ele>
        <time>2025-10-04T11:22:13Z</time>
      </trkpt>
      <trkpt lat="46.05745" lon="4.44105">
        <ele>875.4</ele>
        <time>2025-10-04T11:22:14Z</time>
      </trkpt>
      <trkpt lat="46.05744" lon="4.44105">
        <ele>875.4</ele>
        <time>2025-10-04T11:22:15Z</time>
      </trkpt>
      <trkpt lat="46.05744" lon="4.44106">
        <ele>875.4</ele>
        <time>2025-10-04T11:22:16Z</time>
      </trkpt>
      <trkpt lat="46.05744" lon="4.44106">
        <ele>875.4</ele>
        <time>2025-10-04T11:22:17Z</time>
      </trkpt>
      <trkpt lat="46.0574" lon="4.44105">
        <ele>875.4</ele>
        <time>2025-10-04T11:22:28Z</time>
      </trkpt>
      <trkpt lat="46.05738" lon="4.44105">
        <ele>875.4</ele>
        <time>2025-10-04T11:22:29Z</time>
      </trkpt>
      <trkpt lat="46.05735" lon="4.44105">
        <ele>875.4</ele>
        <time>2025-10-04T11:22:30Z</time>
      </trkpt>
      <trkpt lat="46.05732" lon="4.44105">
        <ele>875.6</ele>
        <time>2025-10-04T11:22:31Z</time>
      </trkpt>
      <trkpt lat="46.05729" lon="4.44104">
        <ele>875.6</ele>
        <time>2025-10-04T11:22:32Z</time>
      </trkpt>
      <trkpt lat="46.05726" lon="4.44104">
        <ele>875.6</ele>
        <time>2025-10-04T11:22:33Z</time>
      </trkpt>
      <trkpt lat="46.05723" lon="4.44103">
        <ele>875.2</ele>
        <time>2025-10-04T11:22:34Z</time>
      </trkpt>
      <trkpt lat="46.05719" lon="4.44103">
        <ele>875.2</ele>
        <time>2025-10-04T11:22:35Z</time>
      </trkpt>
      <trkpt lat="46.05716" lon="4.44102">
        <ele>874.8</ele>
        <time>2025-10-04T11:22:36Z</time>
      </trkpt>
      <trkpt lat="46.05712" lon="4.44101">
        <ele>874.8</ele>
        <time>2025-10-04T11:22:37Z</time>
      </trkpt>
      <trkpt lat="46.05707" lon="4.44098">
        <ele>874.4</ele>
        <time>2025-10-04T11:22:38Z</time>
      </trkpt>
      <trkpt lat="46.05703" lon="4.44096">
        <ele>874.2</ele>
        <time>2025-10-04T11:22:39Z</time>
      </trkpt>
      <trkpt lat="46.05698" lon="4.44091">
        <ele>873.6</ele>
        <time>2025-10-04T11:22:40Z</time>
      </trkpt>
      <trkpt lat="46.05692" lon="4.44086">
        <ele>872.8</ele>
        <time>2025-10-04T11:22:41Z</time>
      </trkpt>
      <trkpt lat="46.05685" lon="4.4408">
        <ele>872</ele>
        <time>2025-10-04T11:22:42Z</time>
      </trkpt>
      <trkpt lat="46.05678" lon="4.44073">
        <ele>870.8</ele>
        <time>2025-10-04T11:22:43Z</time>
      </trkpt>
      <trkpt lat="46.05672" lon="4.44066">
        <ele>869.4</ele>
        <time>2025-10-04T11:22:44Z</time>
      </trkpt>
      <trkpt lat="46.05662" lon="4.44059">
        <ele>868.4</ele>
        <time>2025-10-04T11:22:45Z</time>
      </trkpt>
      <trkpt lat="46.05658" lon="4.44054">
        <ele>867.6</ele>
        <time>2025-10-04T11:22:46Z</time>
      </trkpt>
      <trkpt lat="46.05652" lon="4.44049">
        <ele>866.8</ele>
        <time>2025-10-04T11:22:47Z</time>
      </trkpt>
      <trkpt lat="46.05655" lon="4.44051">
        <ele>866.2</ele>
        <time>2025-10-04T11:22:48Z</time>
      </trkpt>
      <trkpt lat="46.05655" lon="4.44052">
        <ele>865.6</ele>
        <time>2025-10-04T11:22:49Z</time>
      </trkpt>
      <trkpt lat="46.05654" lon="4.44052">
        <ele>865.2</ele>
        <time>2025-10-04T11:22:50Z</time>
      </trkpt>
      <trkpt lat="46.05653" lon="4.44052">
        <ele>864.8</ele>
        <time>2025-10-04T11:22:51Z</time>
      </trkpt>
      <trkpt lat="46.05652" lon="4.4405">
        <ele>864.8</ele>
        <time>2025-10-04T11:22:52Z</time>
      </trkpt>
      <trkpt lat="46.05651" lon="4.44049">
        <ele>864.6</ele>
        <time>2025-10-04T11:22:53Z</time>
      </trkpt>
      <trkpt lat="46.0565" lon="4.44046">
        <ele>864.6</ele>
        <time>2025-10-04T11:22:54Z</time>
      </trkpt>
      <trkpt lat="46.05649" lon="4.44045">
        <ele>864</ele>
        <time>2025-10-04T11:22:55Z</time>
      </trkpt>
      <trkpt lat="46.05649" lon="4.44045">
        <ele>864</ele>
        <time>2025-10-04T11:22:56Z</time>
      </trkpt>
      <trkpt lat="46.05647" lon="4.44042">
        <ele>863.8</ele>
        <time>2025-10-04T11:22:57Z</time>
      </trkpt>
      <trkpt lat="46.05646" lon="4.4404">
        <ele>863.2</ele>
        <time>2025-10-04T11:22:58Z</time>
      </trkpt>
      <trkpt lat="46.05644" lon="4.44037">
        <ele>862.6</ele>
        <time>2025-10-04T11:22:59Z</time>
      </trkpt>
      <trkpt lat="46.05642" lon="4.44032">
        <ele>861.4</ele>
        <time>2025-10-04T11:23:00Z</time>
      </trkpt>
      <trkpt lat="46.0564" lon="4.44029">
        <ele>860.2</ele>
        <time>2025-10-04T11:23:01Z</time>
      </trkpt>
      <trkpt lat="46.05637" lon="4.44021">
        <ele>858.8</ele>
        <time>2025-10-04T11:23:02Z</time>
      </trkpt>
      <trkpt lat="46.05632" lon="4.44009">
        <ele>857.4</ele>
        <time>2025-10-04T11:23:03Z</time>
      </trkpt>
      <trkpt lat="46.05626" lon="4.43995">
        <ele>855.4</ele>
        <time>2025-10-04T11:23:04Z</time>
      </trkpt>
      <trkpt lat="46.05621" lon="4.43981">
        <ele>853.2</ele>
        <time>2025-10-04T11:23:05Z</time>
      </trkpt>
      <trkpt lat="46.0561" lon="4.43969">
        <ele>850.8</ele>
        <time>2025-10-04T11:23:06Z</time>
      </trkpt>
      <trkpt lat="46.05601" lon="4.43957">
        <ele>849</ele>
        <time>2025-10-04T11:23:07Z</time>
      </trkpt>
      <trkpt lat="46.05592" lon="4.43945">
        <ele>847</ele>
        <time>2025-10-04T11:23:08Z</time>
      </trkpt>
      <trkpt lat="46.05582" lon="4.43933">
        <ele>845.4</ele>
        <time>2025-10-04T11:23:09Z</time>
      </trkpt>
      <trkpt lat="46.05573" lon="4.43922">
        <ele>843.4</ele>
        <time>2025-10-04T11:23:10Z</time>
      </trkpt>
      <trkpt lat="46.05563" lon="4.43911">
        <ele>842.6</ele>
        <time>2025-10-04T11:23:11Z</time>
      </trkpt>
      <trkpt lat="46.05553" lon="4.439">
        <ele>842</ele>
        <time>2025-10-04T11:23:12Z</time>
      </trkpt>
      <trkpt lat="46.05544" lon="4.43891">
        <ele>842</ele>
        <time>2025-10-04T11:23:13Z</time>
      </trkpt>
      <trkpt lat="46.05535" lon="4.43883">
        <ele>841.4</ele>
        <time>2025-10-04T11:23:14Z</time>
      </trkpt>
      <trkpt lat="46.05528" lon="4.43878">
        <ele>841.4</ele>
        <time>2025-10-04T11:23:15Z</time>
      </trkpt>
      <trkpt lat="46.0552" lon="4.43869">
        <ele>841.2</ele>
        <time>2025-10-04T11:23:16Z</time>
      </trkpt>
      <trkpt lat="46.05513" lon="4.43863">
        <ele>840.8</ele>
        <time>2025-10-04T11:23:17Z</time>
      </trkpt>
      <trkpt lat="46.05506" lon="4.43855">
        <ele>840.2</ele>
        <time>2025-10-04T11:23:18Z</time>
      </trkpt>
      <trkpt lat="46.055" lon="4.43846">
        <ele>840.6</ele>
        <time>2025-10-04T11:23:19Z</time>
      </trkpt>
      <trkpt lat="46.05493" lon="4.43838">
        <ele>840</ele>
        <time>2025-10-04T11:23:20Z</time>
      </trkpt>
      <trkpt lat="46.05489" lon="4.43832">
        <ele>840.4</ele>
        <time>2025-10-04T11:23:21Z</time>
      </trkpt>
      <trkpt lat="46.05483" lon="4.43824">
        <ele>840.4</ele>
        <time>2025-10-04T11:23:22Z</time>
      </trkpt>
      <trkpt lat="46.05476" lon="4.43818">
        <ele>842.2</ele>
        <time>2025-10-04T11:23:23Z</time>
      </trkpt>
      <trkpt lat="46.05471" lon="4.43812">
        <ele>841.6</ele>
        <time>2025-10-04T11:23:24Z</time>
      </trkpt>
      <trkpt lat="46.05466" lon="4.43803">
        <ele>842.8</ele>
        <time>2025-10-04T11:23:25Z</time>
      </trkpt>
      <trkpt lat="46.0546" lon="4.43796">
        <ele>842</ele>
        <time>2025-10-04T11:23:26Z</time>
      </trkpt>
      <trkpt lat="46.05456" lon="4.43788">
        <ele>840.6</ele>
        <time>2025-10-04T11:23:27Z</time>
      </trkpt>
      <trkpt lat="46.05451" lon="4.43781">
        <ele>840.6</ele>
        <time>2025-10-04T11:23:28Z</time>
      </trkpt>
      <trkpt lat="46.05445" lon="4.43774">
        <ele>840.6</ele>
        <time>2025-10-04T11:23:29Z</time>
      </trkpt>
      <trkpt lat="46.0544" lon="4.43767">
        <ele>840.6</ele>
        <time>2025-10-04T11:23:30Z</time>
      </trkpt>
      <trkpt lat="46.05435" lon="4.4376">
        <ele>841</ele>
        <time>2025-10-04T11:23:31Z</time>
      </trkpt>
      <trkpt lat="46.0543" lon="4.43753">
        <ele>841</ele>
        <time>2025-10-04T11:23:32Z</time>
      </trkpt>
      <trkpt lat="46.05425" lon="4.43747">
        <ele>841</ele>
        <time>2025-10-04T11:23:33Z</time>
      </trkpt>
      <trkpt lat="46.05421" lon="4.4374">
        <ele>840.4</ele>
        <time>2025-10-04T11:23:34Z</time>
      </trkpt>
      <trkpt lat="46.05416" lon="4.43734">
        <ele>840.4</ele>
        <time>2025-10-04T11:23:35Z</time>
      </trkpt>
      <trkpt lat="46.05416" lon="4.43734">
        <ele>840.8</ele>
        <time>2025-10-04T11:23:36Z</time>
      </trkpt>
      <trkpt lat="46.05412" lon="4.43728">
        <ele>840.8</ele>
        <time>2025-10-04T11:23:37Z</time>
      </trkpt>
      <trkpt lat="46.05407" lon="4.43722">
        <ele>841</ele>
        <time>2025-10-04T11:23:38Z</time>
      </trkpt>
      <trkpt lat="46.05403" lon="4.43716">
        <ele>841</ele>
        <time>2025-10-04T11:23:39Z</time>
      </trkpt>
      <trkpt lat="46.05401" lon="4.4371">
        <ele>841.4</ele>
        <time>2025-10-04T11:23:40Z</time>
      </trkpt>
      <trkpt lat="46.05398" lon="4.43704">
        <ele>841.8</ele>
        <time>2025-10-04T11:23:41Z</time>
      </trkpt>
      <trkpt lat="46.05395" lon="4.43699">
        <ele>842</ele>
        <time>2025-10-04T11:23:42Z</time>
      </trkpt>
      <trkpt lat="46.05391" lon="4.43694">
        <ele>842</ele>
        <time>2025-10-04T11:23:43Z</time>
      </trkpt>
      <trkpt lat="46.05388" lon="4.43689">
        <ele>842</ele>
        <time>2025-10-04T11:23:44Z</time>
      </trkpt>
      <trkpt lat="46.05384" lon="4.43684">
        <ele>842</ele>
        <time>2025-10-04T11:23:45Z</time>
      </trkpt>
      <trkpt lat="46.05381" lon="4.43679">
        <ele>842</ele>
        <time>2025-10-04T11:23:46Z</time>
      </trkpt>
      <trkpt lat="46.05376" lon="4.43674">
        <ele>842.4</ele>
        <time>2025-10-04T11:23:47Z</time>
      </trkpt>
      <trkpt lat="46.05373" lon="4.43672">
        <ele>842.6</ele>
        <time>2025-10-04T11:23:48Z</time>
      </trkpt>
      <trkpt lat="46.05369" lon="4.43671">
        <ele>843.2</ele>
        <time>2025-10-04T11:23:49Z</time>
      </trkpt>
      <trkpt lat="46.05368" lon="4.4367">
        <ele>843.4</ele>
        <time>2025-10-04T11:23:50Z</time>
      </trkpt>
      <trkpt lat="46.05365" lon="4.43668">
        <ele>843.8</ele>
        <time>2025-10-04T11:23:51Z</time>
      </trkpt>
      <trkpt lat="46.05361" lon="4.43667">
        <ele>844</ele>
        <time>2025-10-04T11:23:52Z</time>
      </trkpt>
      <trkpt lat="46.05359" lon="4.43665">
        <ele>844</ele>
        <time>2025-10-04T11:23:53Z</time>
      </trkpt>
      <trkpt lat="46.05357" lon="4.43663">
        <ele>844.4</ele>
        <time>2025-10-04T11:23:54Z</time>
      </trkpt>
      <trkpt lat="46.05353" lon="4.43661">
        <ele>844.8</ele>
        <time>2025-10-04T11:23:55Z</time>
      </trkpt>
      <trkpt lat="46.05352" lon="4.4366">
        <ele>845.2</ele>
        <time>2025-10-04T11:23:56Z</time>
      </trkpt>
      <trkpt lat="46.0535" lon="4.43657">
        <ele>845.6</ele>
        <time>2025-10-04T11:23:57Z</time>
      </trkpt>
      <trkpt lat="46.05347" lon="4.43656">
        <ele>845.6</ele>
        <time>2025-10-04T11:23:58Z</time>
      </trkpt>
      <trkpt lat="46.05344" lon="4.43655">
        <ele>845.6</ele>
        <time>2025-10-04T11:23:59Z</time>
      </trkpt>
      <trkpt lat="46.05342" lon="4.43653">
        <ele>845.6</ele>
        <time>2025-10-04T11:24:00Z</time>
      </trkpt>
      <trkpt lat="46.0534" lon="4.43651">
        <ele>845.6</ele>
        <time>2025-10-04T11:24:01Z</time>
      </trkpt>
      <trkpt lat="46.05337" lon="4.43648">
        <ele>845.8</ele>
        <time>2025-10-04T11:24:02Z</time>
      </trkpt>
      <trkpt lat="46.05334" lon="4.43647">
        <ele>845.8</ele>
        <time>2025-10-04T11:24:03Z</time>
      </trkpt>
      <trkpt lat="46.05332" lon="4.43645">
        <ele>845.8</ele>
        <time>2025-10-04T11:24:04Z</time>
      </trkpt>
      <trkpt lat="46.0533" lon="4.43644">
        <ele>846.2</ele>
        <time>2025-10-04T11:24:05Z</time>
      </trkpt>
      <trkpt lat="46.05328" lon="4.43643">
        <ele>846.2</ele>
        <time>2025-10-04T11:24:06Z</time>
      </trkpt>
      <trkpt lat="46.05327" lon="4.43642">
        <ele>846.4</ele>
        <time>2025-10-04T11:24:07Z</time>
      </trkpt>
      <trkpt lat="46.05325" lon="4.4364">
        <ele>846.4</ele>
        <time>2025-10-04T11:24:08Z</time>
      </trkpt>
      <trkpt lat="46.05322" lon="4.43639">
        <ele>846.8</ele>
        <time>2025-10-04T11:24:09Z</time>
      </trkpt>
      <trkpt lat="46.0532" lon="4.43637">
        <ele>847.2</ele>
        <time>2025-10-04T11:24:10Z</time>
      </trkpt>
      <trkpt lat="46.05318" lon="4.43636">
        <ele>847.6</ele>
        <time>2025-10-04T11:24:11Z</time>
      </trkpt>
      <trkpt lat="46.05316" lon="4.43635">
        <ele>847.6</ele>
        <time>2025-10-04T11:24:12Z</time>
      </trkpt>
      <trkpt lat="46.05314" lon="4.43634">
        <ele>848</ele>
        <time>2025-10-04T11:24:13Z</time>
      </trkpt>
      <trkpt lat="46.05312" lon="4.43633">
        <ele>848</ele>
        <time>2025-10-04T11:24:14Z</time>
      </trkpt>
      <trkpt lat="46.0531" lon="4.43632">
        <ele>848</ele>
        <time>2025-10-04T11:24:15Z</time>
      </trkpt>
      <trkpt lat="46.05308" lon="4.43631">
        <ele>848.2</ele>
        <time>2025-10-04T11:24:16Z</time>
      </trkpt>
      <trkpt lat="46.05306" lon="4.4363">
        <ele>848.2</ele>
        <time>2025-10-04T11:24:17Z</time>
      </trkpt>
      <trkpt lat="46.05304" lon="4.43628">
        <ele>848.2</ele>
        <time>2025-10-04T11:24:18Z</time>
      </trkpt>
      <trkpt lat="46.05301" lon="4.43626">
        <ele>848.2</ele>
        <time>2025-10-04T11:24:19Z</time>
      </trkpt>
      <trkpt lat="46.05299" lon="4.43625">
        <ele>848.6</ele>
        <time>2025-10-04T11:24:20Z</time>
      </trkpt>
      <trkpt lat="46.05295" lon="4.43623">
        <ele>848.6</ele>
        <time>2025-10-04T11:24:21Z</time>
      </trkpt>
      <trkpt lat="46.05292" lon="4.43621">
        <ele>848.6</ele>
        <time>2025-10-04T11:24:22Z</time>
      </trkpt>
      <trkpt lat="46.0529" lon="4.43619">
        <ele>848.6</ele>
        <time>2025-10-04T11:24:23Z</time>
      </trkpt>
      <trkpt lat="46.05287" lon="4.43616">
        <ele>848.2</ele>
        <time>2025-10-04T11:24:24Z</time>
      </trkpt>
      <trkpt lat="46.05282" lon="4.43613">
        <ele>848</ele>
        <time>2025-10-04T11:24:25Z</time>
      </trkpt>
      <trkpt lat="46.05279" lon="4.43611">
        <ele>847.6</ele>
        <time>2025-10-04T11:24:26Z</time>
      </trkpt>
      <trkpt lat="46.05275" lon="4.43608">
        <ele>847.6</ele>
        <time>2025-10-04T11:24:27Z</time>
      </trkpt>
      <trkpt lat="46.05271" lon="4.43605">
        <ele>847.4</ele>
        <time>2025-10-04T11:24:28Z</time>
      </trkpt>
      <trkpt lat="46.05266" lon="4.43602">
        <ele>847.4</ele>
        <time>2025-10-04T11:24:29Z</time>
      </trkpt>
      <trkpt lat="46.05263" lon="4.43599">
        <ele>847</ele>
        <time>2025-10-04T11:24:30Z</time>
      </trkpt>
      <trkpt lat="46.05258" lon="4.43593">
        <ele>847</ele>
        <time>2025-10-04T11:24:31Z</time>
      </trkpt>
      <trkpt lat="46.05251" lon="4.43589">
        <ele>846.6</ele>
        <time>2025-10-04T11:24:32Z</time>
      </trkpt>
      <trkpt lat="46.05244" lon="4.43583">
        <ele>846</ele>
        <time>2025-10-04T11:24:33Z</time>
      </trkpt>
      <trkpt lat="46.05235" lon="4.43579">
        <ele>845.4</ele>
        <time>2025-10-04T11:24:34Z</time>
      </trkpt>
      <trkpt lat="46.05229" lon="4.43572">
        <ele>844.4</ele>
        <time>2025-10-04T11:24:35Z</time>
      </trkpt>
      <trkpt lat="46.05223" lon="4.43566">
        <ele>843.2</ele>
        <time>2025-10-04T11:24:36Z</time>
      </trkpt>
      <trkpt lat="46.05215" lon="4.4356">
        <ele>842.4</ele>
        <time>2025-10-04T11:24:37Z</time>
      </trkpt>
      <trkpt lat="46.05199" lon="4.4355">
        <ele>841.8</ele>
        <time>2025-10-04T11:24:38Z</time>
      </trkpt>
      <trkpt lat="46.05189" lon="4.4355">
        <ele>841.4</ele>
        <time>2025-10-04T11:24:39Z</time>
      </trkpt>
      <trkpt lat="46.05181" lon="4.43546">
        <ele>840.8</ele>
        <time>2025-10-04T11:24:40Z</time>
      </trkpt>
      <trkpt lat="46.05174" lon="4.43545">
        <ele>840</ele>
        <time>2025-10-04T11:24:41Z</time>
      </trkpt>
      <trkpt lat="46.05165" lon="4.43545">
        <ele>839.2</ele>
        <time>2025-10-04T11:24:42Z</time>
      </trkpt>
      <trkpt lat="46.05159" lon="4.43544">
        <ele>838.6</ele>
        <time>2025-10-04T11:24:43Z</time>
      </trkpt>
      <trkpt lat="46.05154" lon="4.43545">
        <ele>837.8</ele>
        <time>2025-10-04T11:24:44Z</time>
      </trkpt>
      <trkpt lat="46.05147" lon="4.43547">
        <ele>837</ele>
        <time>2025-10-04T11:24:45Z</time>
      </trkpt>
      <trkpt lat="46.05141" lon="4.43547">
        <ele>835.6</ele>
        <time>2025-10-04T11:24:46Z</time>
      </trkpt>
      <trkpt lat="46.05133" lon="4.43547">
        <ele>834.2</ele>
        <time>2025-10-04T11:24:47Z</time>
      </trkpt>
      <trkpt lat="46.05121" lon="4.43549">
        <ele>831.6</ele>
        <time>2025-10-04T11:24:48Z</time>
      </trkpt>
      <trkpt lat="46.05108" lon="4.43542">
        <ele>830.6</ele>
        <time>2025-10-04T11:24:49Z</time>
      </trkpt>
      <trkpt lat="46.05097" lon="4.43541">
        <ele>828</ele>
        <time>2025-10-04T11:24:50Z</time>
      </trkpt>
      <trkpt lat="46.05084" lon="4.43535">
        <ele>826.2</ele>
        <time>2025-10-04T11:24:51Z</time>
      </trkpt>
      <trkpt lat="46.05077" lon="4.43533">
        <ele>823.8</ele>
        <time>2025-10-04T11:24:52Z</time>
      </trkpt>
      <trkpt lat="46.05066" lon="4.4353">
        <ele>821.4</ele>
        <time>2025-10-04T11:24:53Z</time>
      </trkpt>
      <trkpt lat="46.05057" lon="4.43529">
        <ele>819.2</ele>
        <time>2025-10-04T11:24:54Z</time>
      </trkpt>
      <trkpt lat="46.05046" lon="4.4353">
        <ele>817.2</ele>
        <time>2025-10-04T11:24:55Z</time>
      </trkpt>
      <trkpt lat="46.05033" lon="4.4353">
        <ele>815.8</ele>
        <time>2025-10-04T11:24:56Z</time>
      </trkpt>
      <trkpt lat="46.05022" lon="4.43536">
        <ele>814</ele>
        <time>2025-10-04T11:24:57Z</time>
      </trkpt>
      <trkpt lat="46.05011" lon="4.43539">
        <ele>812.2</ele>
        <time>2025-10-04T11:24:58Z</time>
      </trkpt>
      <trkpt lat="46.05" lon="4.43543">
        <ele>810.4</ele>
        <time>2025-10-04T11:24:59Z</time>
      </trkpt>
      <trkpt lat="46.04989" lon="4.43545">
        <ele>808.4</ele>
        <time>2025-10-04T11:25:00Z</time>
      </trkpt>
      <trkpt lat="46.04979" lon="4.43544">
        <ele>806</ele>
        <time>2025-10-04T11:25:01Z</time>
      </trkpt>
      <trkpt lat="46.04968" lon="4.43542">
        <ele>804.2</ele>
        <time>2025-10-04T11:25:02Z</time>
      </trkpt>
      <trkpt lat="46.04957" lon="4.43537">
        <ele>802.8</ele>
        <time>2025-10-04T11:25:03Z</time>
      </trkpt>
      <trkpt lat="46.04948" lon="4.43532">
        <ele>801.4</ele>
        <time>2025-10-04T11:25:04Z</time>
      </trkpt>
      <trkpt lat="46.04938" lon="4.43525">
        <ele>799.8</ele>
        <time>2025-10-04T11:25:05Z</time>
      </trkpt>
      <trkpt lat="46.0493" lon="4.43519">
        <ele>798.6</ele>
        <time>2025-10-04T11:25:06Z</time>
      </trkpt>
      <trkpt lat="46.04922" lon="4.43513">
        <ele>797.2</ele>
        <time>2025-10-04T11:25:07Z</time>
      </trkpt>
      <trkpt lat="46.04913" lon="4.43506">
        <ele>795.2</ele>
        <time>2025-10-04T11:25:08Z</time>
      </trkpt>
      <trkpt lat="46.04905" lon="4.43498">
        <ele>793.6</ele>
        <time>2025-10-04T11:25:09Z</time>
      </trkpt>
      <trkpt lat="46.04896" lon="4.43489">
        <ele>791.8</ele>
        <time>2025-10-04T11:25:10Z</time>
      </trkpt>
      <trkpt lat="46.04888" lon="4.43483">
        <ele>789.6</ele>
        <time>2025-10-04T11:25:11Z</time>
      </trkpt>
      <trkpt lat="46.04878" lon="4.43476">
        <ele>787.6</ele>
        <time>2025-10-04T11:25:12Z</time>
      </trkpt>
      <trkpt lat="46.04869" lon="4.43469">
        <ele>785.6</ele>
        <time>2025-10-04T11:25:13Z</time>
      </trkpt>
      <trkpt lat="46.04861" lon="4.43464">
        <ele>783.8</ele>
        <time>2025-10-04T11:25:14Z</time>
      </trkpt>
      <trkpt lat="46.04852" lon="4.43458">
        <ele>782.4</ele>
        <time>2025-10-04T11:25:15Z</time>
      </trkpt>
      <trkpt lat="46.04843" lon="4.43452">
        <ele>780.4</ele>
        <time>2025-10-04T11:25:16Z</time>
      </trkpt>
      <trkpt lat="46.04833" lon="4.43449">
        <ele>778.6</ele>
        <time>2025-10-04T11:25:17Z</time>
      </trkpt>
      <trkpt lat="46.04824" lon="4.43449">
        <ele>777.2</ele>
        <time>2025-10-04T11:25:18Z</time>
      </trkpt>
      <trkpt lat="46.04814" lon="4.43447">
        <ele>775.8</ele>
        <time>2025-10-04T11:25:19Z</time>
      </trkpt>
      <trkpt lat="46.04804" lon="4.43442">
        <ele>774.4</ele>
        <time>2025-10-04T11:25:20Z</time>
      </trkpt>
      <trkpt lat="46.04793" lon="4.43437">
        <ele>773</ele>
        <time>2025-10-04T11:25:21Z</time>
      </trkpt>
      <trkpt lat="46.04783" lon="4.43433">
        <ele>771</ele>
        <time>2025-10-04T11:25:22Z</time>
      </trkpt>
      <trkpt lat="46.04772" lon="4.43426">
        <ele>769.2</ele>
        <time>2025-10-04T11:25:23Z</time>
      </trkpt>
      <trkpt lat="46.04761" lon="4.43419">
        <ele>767</ele>
        <time>2025-10-04T11:25:24Z</time>
      </trkpt>
      <trkpt lat="46.04749" lon="4.43413">
        <ele>764.6</ele>
        <time>2025-10-04T11:25:25Z</time>
      </trkpt>
      <trkpt lat="46.04736" lon="4.43409">
        <ele>762.8</ele>
        <time>2025-10-04T11:25:26Z</time>
      </trkpt>
      <trkpt lat="46.04724" lon="4.43403">
        <ele>761.2</ele>
        <time>2025-10-04T11:25:27Z</time>
      </trkpt>
      <trkpt lat="46.04712" lon="4.43401">
        <ele>760</ele>
        <time>2025-10-04T11:25:28Z</time>
      </trkpt>
      <trkpt lat="46.04702" lon="4.43398">
        <ele>759.2</ele>
        <time>2025-10-04T11:25:29Z</time>
      </trkpt>
      <trkpt lat="46.04701" lon="4.43392">
        <ele>758.2</ele>
        <time>2025-10-04T11:25:30Z</time>
      </trkpt>
      <trkpt lat="46.04695" lon="4.43389">
        <ele>757.2</ele>
        <time>2025-10-04T11:25:31Z</time>
      </trkpt>
      <trkpt lat="46.04685" lon="4.43387">
        <ele>756</ele>
        <time>2025-10-04T11:25:32Z</time>
      </trkpt>
      <trkpt lat="46.04678" lon="4.43384">
        <ele>754.8</ele>
        <time>2025-10-04T11:25:33Z</time>
      </trkpt>
      <trkpt lat="46.04672" lon="4.4338">
        <ele>753.8</ele>
        <time>2025-10-04T11:25:34Z</time>
      </trkpt>
      <trkpt lat="46.04666" lon="4.43375">
        <ele>752.4</ele>
        <time>2025-10-04T11:25:35Z</time>
      </trkpt>
      <trkpt lat="46.04661" lon="4.43368">
        <ele>751.4</ele>
        <time>2025-10-04T11:25:36Z</time>
      </trkpt>
      <trkpt lat="46.04655" lon="4.4336">
        <ele>750.2</ele>
        <time>2025-10-04T11:25:37Z</time>
      </trkpt>
      <trkpt lat="46.04649" lon="4.43351">
        <ele>749.2</ele>
        <time>2025-10-04T11:25:38Z</time>
      </trkpt>
      <trkpt lat="46.04644" lon="4.4334">
        <ele>748.4</ele>
        <time>2025-10-04T11:25:39Z</time>
      </trkpt>
      <trkpt lat="46.04637" lon="4.43328">
        <ele>747.4</ele>
        <time>2025-10-04T11:25:40Z</time>
      </trkpt>
      <trkpt lat="46.04631" lon="4.43318">
        <ele>746.2</ele>
        <time>2025-10-04T11:25:41Z</time>
      </trkpt>
      <trkpt lat="46.04625" lon="4.43308">
        <ele>745</ele>
        <time>2025-10-04T11:25:42Z</time>
      </trkpt>
      <trkpt lat="46.04618" lon="4.43299">
        <ele>743.6</ele>
        <time>2025-10-04T11:25:43Z</time>
      </trkpt>
      <trkpt lat="46.04612" lon="4.4329">
        <ele>742.8</ele>
        <time>2025-10-04T11:25:44Z</time>
      </trkpt>
      <trkpt lat="46.04606" lon="4.43281">
        <ele>742.4</ele>
        <time>2025-10-04T11:25:45Z</time>
      </trkpt>
      <trkpt lat="46.046" lon="4.43273">
        <ele>742</ele>
        <time>2025-10-04T11:25:46Z</time>
      </trkpt>
      <trkpt lat="46.04595" lon="4.43267">
        <ele>742</ele>
        <time>2025-10-04T11:25:47Z</time>
      </trkpt>
      <trkpt lat="46.04591" lon="4.43262">
        <ele>741.8</ele>
        <time>2025-10-04T11:25:48Z</time>
      </trkpt>
      <trkpt lat="46.04586" lon="4.43257">
        <ele>741.4</ele>
        <time>2025-10-04T11:25:49Z</time>
      </trkpt>
      <trkpt lat="46.04582" lon="4.43253">
        <ele>741.4</ele>
        <time>2025-10-04T11:25:50Z</time>
      </trkpt>
      <trkpt lat="46.04577" lon="4.43252">
        <ele>741.4</ele>
        <time>2025-10-04T11:25:51Z</time>
      </trkpt>
      <trkpt lat="46.04573" lon="4.43259">
        <ele>741.4</ele>
        <time>2025-10-04T11:25:52Z</time>
      </trkpt>
      <trkpt lat="46.04569" lon="4.43264">
        <ele>741.8</ele>
        <time>2025-10-04T11:25:53Z</time>
      </trkpt>
      <trkpt lat="46.04565" lon="4.43268">
        <ele>742.4</ele>
        <time>2025-10-04T11:25:54Z</time>
      </trkpt>
      <trkpt lat="46.04561" lon="4.43271">
        <ele>742.6</ele>
        <time>2025-10-04T11:25:55Z</time>
      </trkpt>
      <trkpt lat="46.04556" lon="4.43275">
        <ele>742.6</ele>
        <time>2025-10-04T11:25:56Z</time>
      </trkpt>
      <trkpt lat="46.04552" lon="4.43279">
        <ele>742.6</ele>
        <time>2025-10-04T11:25:57Z</time>
      </trkpt>
      <trkpt lat="46.04547" lon="4.43282">
        <ele>742.6</ele>
        <time>2025-10-04T11:25:58Z</time>
      </trkpt>
      <trkpt lat="46.04543" lon="4.43286">
        <ele>742.6</ele>
        <time>2025-10-04T11:25:59Z</time>
      </trkpt>
      <trkpt lat="46.04538" lon="4.43292">
        <ele>742.4</ele>
        <time>2025-10-04T11:26:00Z</time>
      </trkpt>
      <trkpt lat="46.04532" lon="4.43295">
        <ele>742.4</ele>
        <time>2025-10-04T11:26:01Z</time>
      </trkpt>
      <trkpt lat="46.04526" lon="4.43301">
        <ele>741.8</ele>
        <time>2025-10-04T11:26:02Z</time>
      </trkpt>
      <trkpt lat="46.0452" lon="4.43307">
        <ele>741.8</ele>
        <time>2025-10-04T11:26:03Z</time>
      </trkpt>
      <trkpt lat="46.04515" lon="4.43311">
        <ele>741.4</ele>
        <time>2025-10-04T11:26:04Z</time>
      </trkpt>
      <trkpt lat="46.04512" lon="4.43316">
        <ele>741.4</ele>
        <time>2025-10-04T11:26:05Z</time>
      </trkpt>
      <trkpt lat="46.04504" lon="4.43313">
        <ele>741</ele>
        <time>2025-10-04T11:26:06Z</time>
      </trkpt>
      <trkpt lat="46.04499" lon="4.43313">
        <ele>741</ele>
        <time>2025-10-04T11:26:07Z</time>
      </trkpt>
      <trkpt lat="46.04492" lon="4.43314">
        <ele>740.8</ele>
        <time>2025-10-04T11:26:08Z</time>
      </trkpt>
      <trkpt lat="46.04486" lon="4.43315">
        <ele>740.8</ele>
        <time>2025-10-04T11:26:09Z</time>
      </trkpt>
      <trkpt lat="46.04481" lon="4.43309">
        <ele>741.2</ele>
        <time>2025-10-04T11:26:10Z</time>
      </trkpt>
      <trkpt lat="46.04477" lon="4.43307">
        <ele>741.2</ele>
        <time>2025-10-04T11:26:11Z</time>
      </trkpt>
      <trkpt lat="46.0447" lon="4.43304">
        <ele>740.6</ele>
        <time>2025-10-04T11:26:12Z</time>
      </trkpt>
      <trkpt lat="46.04466" lon="4.433">
        <ele>741.2</ele>
        <time>2025-10-04T11:26:13Z</time>
      </trkpt>
      <trkpt lat="46.04463" lon="4.43301">
        <ele>741.6</ele>
        <time>2025-10-04T11:26:14Z</time>
      </trkpt>
      <trkpt lat="46.04459" lon="4.43298">
        <ele>741.8</ele>
        <time>2025-10-04T11:26:15Z</time>
      </trkpt>
      <trkpt lat="46.04455" lon="4.43299">
        <ele>742</ele>
        <time>2025-10-04T11:26:16Z</time>
      </trkpt>
      <trkpt lat="46.0445" lon="4.43299">
        <ele>742</ele>
        <time>2025-10-04T11:26:17Z</time>
      </trkpt>
      <trkpt lat="46.04447" lon="4.43298">
        <ele>742.6</ele>
        <time>2025-10-04T11:26:18Z</time>
      </trkpt>
      <trkpt lat="46.04445" lon="4.43295">
        <ele>742.8</ele>
        <time>2025-10-04T11:26:19Z</time>
      </trkpt>
      <trkpt lat="46.04443" lon="4.43298">
        <ele>742.8</ele>
        <time>2025-10-04T11:26:20Z</time>
      </trkpt>
      <trkpt lat="46.0444" lon="4.43297">
        <ele>743.2</ele>
        <time>2025-10-04T11:26:21Z</time>
      </trkpt>
      <trkpt lat="46.04437" lon="4.43296">
        <ele>743.2</ele>
        <time>2025-10-04T11:26:22Z</time>
      </trkpt>
      <trkpt lat="46.04434" lon="4.43296">
        <ele>743.2</ele>
        <time>2025-10-04T11:26:23Z</time>
      </trkpt>
      <trkpt lat="46.04431" lon="4.43295">
        <ele>743.6</ele>
        <time>2025-10-04T11:26:24Z</time>
      </trkpt>
      <trkpt lat="46.04429" lon="4.43293">
        <ele>744</ele>
        <time>2025-10-04T11:26:25Z</time>
      </trkpt>
      <trkpt lat="46.04427" lon="4.43292">
        <ele>744</ele>
        <time>2025-10-04T11:26:26Z</time>
      </trkpt>
      <trkpt lat="46.04424" lon="4.43291">
        <ele>744</ele>
        <time>2025-10-04T11:26:27Z</time>
      </trkpt>
      <trkpt lat="46.04422" lon="4.4329">
        <ele>744.2</ele>
        <time>2025-10-04T11:26:28Z</time>
      </trkpt>
      <trkpt lat="46.04418" lon="4.4329">
        <ele>744.4</ele>
        <time>2025-10-04T11:26:29Z</time>
      </trkpt>
      <trkpt lat="46.04414" lon="4.43289">
        <ele>744.4</ele>
        <time>2025-10-04T11:26:30Z</time>
      </trkpt>
      <trkpt lat="46.0441" lon="4.4329">
        <ele>745</ele>
        <time>2025-10-04T11:26:31Z</time>
      </trkpt>
      <trkpt lat="46.04406" lon="4.43291">
        <ele>745.2</ele>
        <time>2025-10-04T11:26:32Z</time>
      </trkpt>
      <trkpt lat="46.04402" lon="4.43292">
        <ele>745.6</ele>
        <time>2025-10-04T11:26:33Z</time>
      </trkpt>
      <trkpt lat="46.044" lon="4.43292">
        <ele>745.8</ele>
        <time>2025-10-04T11:26:34Z</time>
      </trkpt>
      <trkpt lat="46.04397" lon="4.43292">
        <ele>745.8</ele>
        <time>2025-10-04T11:26:35Z</time>
      </trkpt>
      <trkpt lat="46.04394" lon="4.43293">
        <ele>746.2</ele>
        <time>2025-10-04T11:26:36Z</time>
      </trkpt>
      <trkpt lat="46.04391" lon="4.43294">
        <ele>746.2</ele>
        <time>2025-10-04T11:26:37Z</time>
      </trkpt>
      <trkpt lat="46.04388" lon="4.43295">
        <ele>746.2</ele>
        <time>2025-10-04T11:26:38Z</time>
      </trkpt>
      <trkpt lat="46.04385" lon="4.43296">
        <ele>745.8</ele>
        <time>2025-10-04T11:26:39Z</time>
      </trkpt>
      <trkpt lat="46.04383" lon="4.43297">
        <ele>746.4</ele>
        <time>2025-10-04T11:26:40Z</time>
      </trkpt>
      <trkpt lat="46.04379" lon="4.43298">
        <ele>746.4</ele>
        <time>2025-10-04T11:26:41Z</time>
      </trkpt>
      <trkpt lat="46.04375" lon="4.43299">
        <ele>746.8</ele>
        <time>2025-10-04T11:26:42Z</time>
      </trkpt>
      <trkpt lat="46.04372" lon="4.43299">
        <ele>746.8</ele>
        <time>2025-10-04T11:26:43Z</time>
      </trkpt>
      <trkpt lat="46.04368" lon="4.43299">
        <ele>747</ele>
        <time>2025-10-04T11:26:44Z</time>
      </trkpt>
      <trkpt lat="46.04365" lon="4.43299">
        <ele>747.4</ele>
        <time>2025-10-04T11:26:45Z</time>
      </trkpt>
      <trkpt lat="46.04361" lon="4.43299">
        <ele>747.4</ele>
        <time>2025-10-04T11:26:46Z</time>
      </trkpt>
      <trkpt lat="46.04358" lon="4.433">
        <ele>747.2</ele>
        <time>2025-10-04T11:26:47Z</time>
      </trkpt>
      <trkpt lat="46.04354" lon="4.433">
        <ele>747.2</ele>
        <time>2025-10-04T11:26:48Z</time>
      </trkpt>
      <trkpt lat="46.04351" lon="4.43301">
        <ele>747.2</ele>
        <time>2025-10-04T11:26:49Z</time>
      </trkpt>
      <trkpt lat="46.04347" lon="4.43301">
        <ele>747.2</ele>
        <time>2025-10-04T11:26:50Z</time>
      </trkpt>
      <trkpt lat="46.04344" lon="4.43301">
        <ele>747.2</ele>
        <time>2025-10-04T11:26:51Z</time>
      </trkpt>
      <trkpt lat="46.0434" lon="4.433">
        <ele>747.2</ele>
        <time>2025-10-04T11:26:52Z</time>
      </trkpt>
      <trkpt lat="46.04336" lon="4.433">
        <ele>747.2</ele>
        <time>2025-10-04T11:26:53Z</time>
      </trkpt>
      <trkpt lat="46.04332" lon="4.433">
        <ele>747.2</ele>
        <time>2025-10-04T11:26:54Z</time>
      </trkpt>
      <trkpt lat="46.04328" lon="4.43301">
        <ele>747.2</ele>
        <time>2025-10-04T11:26:55Z</time>
      </trkpt>
      <trkpt lat="46.04324" lon="4.43301">
        <ele>747.4</ele>
        <time>2025-10-04T11:26:56Z</time>
      </trkpt>
      <trkpt lat="46.04321" lon="4.43302">
        <ele>747.4</ele>
        <time>2025-10-04T11:26:57Z</time>
      </trkpt>
      <trkpt lat="46.04317" lon="4.43303">
        <ele>747.2</ele>
        <time>2025-10-04T11:26:58Z</time>
      </trkpt>
      <trkpt lat="46.04313" lon="4.43304">
        <ele>747.2</ele>
        <time>2025-10-04T11:26:59Z</time>
      </trkpt>
      <trkpt lat="46.04309" lon="4.43306">
        <ele>747.4</ele>
        <time>2025-10-04T11:27:00Z</time>
      </trkpt>
      <trkpt lat="46.04305" lon="4.4331">
        <ele>747.4</ele>
        <time>2025-10-04T11:27:01Z</time>
      </trkpt>
      <trkpt lat="46.04301" lon="4.43313">
        <ele>747.2</ele>
        <time>2025-10-04T11:27:02Z</time>
      </trkpt>
      <trkpt lat="46.04297" lon="4.43317">
        <ele>747.2</ele>
        <time>2025-10-04T11:27:03Z</time>
      </trkpt>
      <trkpt lat="46.04293" lon="4.4332">
        <ele>747.2</ele>
        <time>2025-10-04T11:27:04Z</time>
      </trkpt>
      <trkpt lat="46.0429" lon="4.43323">
        <ele>747.4</ele>
        <time>2025-10-04T11:27:05Z</time>
      </trkpt>
      <trkpt lat="46.04285" lon="4.43328">
        <ele>747</ele>
        <time>2025-10-04T11:27:06Z</time>
      </trkpt>
      <trkpt lat="46.04282" lon="4.43333">
        <ele>747</ele>
        <time>2025-10-04T11:27:07Z</time>
      </trkpt>
      <trkpt lat="46.04278" lon="4.43336">
        <ele>747</ele>
        <time>2025-10-04T11:27:08Z</time>
      </trkpt>
      <trkpt lat="46.04275" lon="4.4334">
        <ele>747</ele>
        <time>2025-10-04T11:27:09Z</time>
      </trkpt>
      <trkpt lat="46.0427" lon="4.43344">
        <ele>747.4</ele>
        <time>2025-10-04T11:27:10Z</time>
      </trkpt>
      <trkpt lat="46.04266" lon="4.43347">
        <ele>747.4</ele>
        <time>2025-10-04T11:27:11Z</time>
      </trkpt>
      <trkpt lat="46.04262" lon="4.4335">
        <ele>747.4</ele>
        <time>2025-10-04T11:27:12Z</time>
      </trkpt>
      <trkpt lat="46.04259" lon="4.43353">
        <ele>747.4</ele>
        <time>2025-10-04T11:27:13Z</time>
      </trkpt>
      <trkpt lat="46.04256" lon="4.43355">
        <ele>747.2</ele>
        <time>2025-10-04T11:27:14Z</time>
      </trkpt>
      <trkpt lat="46.04253" lon="4.43359">
        <ele>747.4</ele>
        <time>2025-10-04T11:27:15Z</time>
      </trkpt>
      <trkpt lat="46.0425" lon="4.43361">
        <ele>747.4</ele>
        <time>2025-10-04T11:27:16Z</time>
      </trkpt>
      <trkpt lat="46.04248" lon="4.43362">
        <ele>747.4</ele>
        <time>2025-10-04T11:27:17Z</time>
      </trkpt>
      <trkpt lat="46.04247" lon="4.43363">
        <ele>747.2</ele>
        <time>2025-10-04T11:27:18Z</time>
      </trkpt>
      <trkpt lat="46.04248" lon="4.43363">
        <ele>747.2</ele>
        <time>2025-10-04T11:27:19Z</time>
      </trkpt>
      <trkpt lat="46.04248" lon="4.43363">
        <ele>747.2</ele>
        <time>2025-10-04T11:27:20Z</time>
      </trkpt>
      <trkpt lat="46.04249" lon="4.43367">
        <ele>747.4</ele>
        <time>2025-10-04T11:28:33Z</time>
      </trkpt>
      <trkpt lat="46.04247" lon="4.43368">
        <ele>747.2</ele>
        <time>2025-10-04T11:28:34Z</time>
      </trkpt>
      <trkpt lat="46.04244" lon="4.43369">
        <ele>747.4</ele>
        <time>2025-10-04T11:28:35Z</time>
      </trkpt>
      <trkpt lat="46.04241" lon="4.43371">
        <ele>747.2</ele>
        <time>2025-10-04T11:28:36Z</time>
      </trkpt>
      <trkpt lat="46.04238" lon="4.43373">
        <ele>747.2</ele>
        <time>2025-10-04T11:28:37Z</time>
      </trkpt>
      <trkpt lat="46.04235" lon="4.43376">
        <ele>747</ele>
        <time>2025-10-04T11:28:38Z</time>
      </trkpt>
      <trkpt lat="46.04231" lon="4.43379">
        <ele>747</ele>
        <time>2025-10-04T11:28:39Z</time>
      </trkpt>
      <trkpt lat="46.04227" lon="4.43381">
        <ele>746</ele>
        <time>2025-10-04T11:28:40Z</time>
      </trkpt>
      <trkpt lat="46.04222" lon="4.43383">
        <ele>746</ele>
        <time>2025-10-04T11:28:41Z</time>
      </trkpt>
      <trkpt lat="46.04218" lon="4.43385">
        <ele>746</ele>
        <time>2025-10-04T11:28:42Z</time>
      </trkpt>
      <trkpt lat="46.04213" lon="4.43387">
        <ele>746</ele>
        <time>2025-10-04T11:28:43Z</time>
      </trkpt>
      <trkpt lat="46.04202" lon="4.43389">
        <ele>746</ele>
        <time>2025-10-04T11:28:44Z</time>
      </trkpt>
      <trkpt lat="46.04197" lon="4.4339">
        <ele>745.8</ele>
        <time>2025-10-04T11:28:45Z</time>
      </trkpt>
      <trkpt lat="46.04192" lon="4.43392">
        <ele>745.4</ele>
        <time>2025-10-04T11:28:46Z</time>
      </trkpt>
      <trkpt lat="46.04187" lon="4.43393">
        <ele>745</ele>
        <time>2025-10-04T11:28:47Z</time>
      </trkpt>
      <trkpt lat="46.04182" lon="4.43394">
        <ele>745</ele>
        <time>2025-10-04T11:28:48Z</time>
      </trkpt>
      <trkpt lat="46.04177" lon="4.43394">
        <ele>744.4</ele>
        <time>2025-10-04T11:28:49Z</time>
      </trkpt>
      <trkpt lat="46.04172" lon="4.43398">
        <ele>744</ele>
        <time>2025-10-04T11:28:50Z</time>
      </trkpt>
      <trkpt lat="46.04167" lon="4.43401">
        <ele>743.6</ele>
        <time>2025-10-04T11:28:51Z</time>
      </trkpt>
      <trkpt lat="46.04163" lon="4.43397">
        <ele>743.2</ele>
        <time>2025-10-04T11:28:52Z</time>
      </trkpt>
      <trkpt lat="46.04156" lon="4.43396">
        <ele>742.8</ele>
        <time>2025-10-04T11:28:53Z</time>
      </trkpt>
      <trkpt lat="46.04149" lon="4.43399">
        <ele>742.6</ele>
        <time>2025-10-04T11:28:54Z</time>
      </trkpt>
      <trkpt lat="46.04143" lon="4.434">
        <ele>742.6</ele>
        <time>2025-10-04T11:28:55Z</time>
      </trkpt>
      <trkpt lat="46.04135" lon="4.43402">
        <ele>742.2</ele>
        <time>2025-10-04T11:28:56Z</time>
      </trkpt>
      <trkpt lat="46.04127" lon="4.43404">
        <ele>741.8</ele>
        <time>2025-10-04T11:28:57Z</time>
      </trkpt>
      <trkpt lat="46.0412" lon="4.43406">
        <ele>741.6</ele>
        <time>2025-10-04T11:28:58Z</time>
      </trkpt>
      <trkpt lat="46.04114" lon="4.43409">
        <ele>741.4</ele>
        <time>2025-10-04T11:28:59Z</time>
      </trkpt>
      <trkpt lat="46.04106" lon="4.4341">
        <ele>740.8</ele>
        <time>2025-10-04T11:29:00Z</time>
      </trkpt>
      <trkpt lat="46.041" lon="4.43413">
        <ele>740.8</ele>
        <time>2025-10-04T11:29:01Z</time>
      </trkpt>
      <trkpt lat="46.04094" lon="4.43415">
        <ele>740.8</ele>
        <time>2025-10-04T11:29:02Z</time>
      </trkpt>
      <trkpt lat="46.04089" lon="4.43416">
        <ele>741.2</ele>
        <time>2025-10-04T11:29:03Z</time>
      </trkpt>
      <trkpt lat="46.04083" lon="4.43417">
        <ele>741</ele>
        <time>2025-10-04T11:29:04Z</time>
      </trkpt>
      <trkpt lat="46.04077" lon="4.43418">
        <ele>741.2</ele>
        <time>2025-10-04T11:29:05Z</time>
      </trkpt>
      <trkpt lat="46.04073" lon="4.43416">
        <ele>741.2</ele>
        <time>2025-10-04T11:29:06Z</time>
      </trkpt>
      <trkpt lat="46.04066" lon="4.4342">
        <ele>741.2</ele>
        <time>2025-10-04T11:29:07Z</time>
      </trkpt>
      <trkpt lat="46.04061" lon="4.43422">
        <ele>741.4</ele>
        <time>2025-10-04T11:29:08Z</time>
      </trkpt>
      <trkpt lat="46.04056" lon="4.43424">
        <ele>741.2</ele>
        <time>2025-10-04T11:29:09Z</time>
      </trkpt>
      <trkpt lat="46.04051" lon="4.43426">
        <ele>741.2</ele>
        <time>2025-10-04T11:29:10Z</time>
      </trkpt>
      <trkpt lat="46.04043" lon="4.43431">
        <ele>741.2</ele>
        <time>2025-10-04T11:29:11Z</time>
      </trkpt>
      <trkpt lat="46.04038" lon="4.4343">
        <ele>741.2</ele>
        <time>2025-10-04T11:29:12Z</time>
      </trkpt>
      <trkpt lat="46.04035" lon="4.43433">
        <ele>741.2</ele>
        <time>2025-10-04T11:29:13Z</time>
      </trkpt>
      <trkpt lat="46.04029" lon="4.43435">
        <ele>741.8</ele>
        <time>2025-10-04T11:29:14Z</time>
      </trkpt>
      <trkpt lat="46.04023" lon="4.43437">
        <ele>741.8</ele>
        <time>2025-10-04T11:29:15Z</time>
      </trkpt>
      <trkpt lat="46.04019" lon="4.4344">
        <ele>742</ele>
        <time>2025-10-04T11:29:16Z</time>
      </trkpt>
      <trkpt lat="46.04018" lon="4.43434">
        <ele>742</ele>
        <time>2025-10-04T11:29:17Z</time>
      </trkpt>
      <trkpt lat="46.04012" lon="4.43438">
        <ele>742.2</ele>
        <time>2025-10-04T11:29:18Z</time>
      </trkpt>
      <trkpt lat="46.04007" lon="4.4344">
        <ele>742.6</ele>
        <time>2025-10-04T11:29:19Z</time>
      </trkpt>
      <trkpt lat="46.04002" lon="4.43444">
        <ele>742.6</ele>
        <time>2025-10-04T11:29:20Z</time>
      </trkpt>
      <trkpt lat="46.03999" lon="4.4344">
        <ele>742.6</ele>
        <time>2025-10-04T11:29:21Z</time>
      </trkpt>
      <trkpt lat="46.03994" lon="4.4344">
        <ele>742.6</ele>
        <time>2025-10-04T11:29:22Z</time>
      </trkpt>
      <trkpt lat="46.03989" lon="4.4344">
        <ele>741.8</ele>
        <time>2025-10-04T11:29:23Z</time>
      </trkpt>
      <trkpt lat="46.03984" lon="4.43439">
        <ele>742.4</ele>
        <time>2025-10-04T11:29:24Z</time>
      </trkpt>
      <trkpt lat="46.03979" lon="4.4344">
        <ele>741.6</ele>
        <time>2025-10-04T11:29:25Z</time>
      </trkpt>
      <trkpt lat="46.03973" lon="4.43441">
        <ele>742</ele>
        <time>2025-10-04T11:29:26Z</time>
      </trkpt>
      <trkpt lat="46.03968" lon="4.43439">
        <ele>742</ele>
        <time>2025-10-04T11:29:27Z</time>
      </trkpt>
      <trkpt lat="46.03963" lon="4.43437">
        <ele>741.2</ele>
        <time>2025-10-04T11:29:28Z</time>
      </trkpt>
      <trkpt lat="46.03958" lon="4.43435">
        <ele>741.6</ele>
        <time>2025-10-04T11:29:29Z</time>
      </trkpt>
      <trkpt lat="46.03952" lon="4.43434">
        <ele>741.2</ele>
        <time>2025-10-04T11:29:30Z</time>
      </trkpt>
      <trkpt lat="46.03947" lon="4.43433">
        <ele>740.2</ele>
        <time>2025-10-04T11:29:31Z</time>
      </trkpt>
      <trkpt lat="46.03941" lon="4.4343">
        <ele>740.2</ele>
        <time>2025-10-04T11:29:32Z</time>
      </trkpt>
      <trkpt lat="46.03936" lon="4.43429">
        <ele>740.2</ele>
        <time>2025-10-04T11:29:33Z</time>
      </trkpt>
      <trkpt lat="46.03931" lon="4.43426">
        <ele>739.8</ele>
        <time>2025-10-04T11:29:34Z</time>
      </trkpt>
      <trkpt lat="46.03924" lon="4.43424">
        <ele>739.2</ele>
        <time>2025-10-04T11:29:35Z</time>
      </trkpt>
      <trkpt lat="46.03919" lon="4.43421">
        <ele>739</ele>
        <time>2025-10-04T11:29:36Z</time>
      </trkpt>
      <trkpt lat="46.03913" lon="4.43422">
        <ele>738.2</ele>
        <time>2025-10-04T11:29:37Z</time>
      </trkpt>
      <trkpt lat="46.03907" lon="4.43419">
        <ele>737.8</ele>
        <time>2025-10-04T11:29:38Z</time>
      </trkpt>
      <trkpt lat="46.03903" lon="4.43419">
        <ele>738.2</ele>
        <time>2025-10-04T11:29:39Z</time>
      </trkpt>
      <trkpt lat="46.039" lon="4.4342">
        <ele>738.2</ele>
        <time>2025-10-04T11:29:40Z</time>
      </trkpt>
      <trkpt lat="46.03898" lon="4.43421">
        <ele>738.2</ele>
        <time>2025-10-04T11:29:41Z</time>
      </trkpt>
      <trkpt lat="46.03895" lon="4.4342">
        <ele>738.4</ele>
        <time>2025-10-04T11:29:42Z</time>
      </trkpt>
      <trkpt lat="46.03892" lon="4.43421">
        <ele>738.4</ele>
        <time>2025-10-04T11:29:43Z</time>
      </trkpt>
      <trkpt lat="46.03889" lon="4.43421">
        <ele>738.8</ele>
        <time>2025-10-04T11:29:44Z</time>
      </trkpt>
      <trkpt lat="46.03887" lon="4.4342">
        <ele>738.8</ele>
        <time>2025-10-04T11:29:45Z</time>
      </trkpt>
      <trkpt lat="46.03884" lon="4.4342">
        <ele>738.8</ele>
        <time>2025-10-04T11:29:46Z</time>
      </trkpt>
      <trkpt lat="46.03882" lon="4.4342">
        <ele>738.8</ele>
        <time>2025-10-04T11:29:47Z</time>
      </trkpt>
      <trkpt lat="46.03881" lon="4.4342">
        <ele>738.8</ele>
        <time>2025-10-04T11:29:48Z</time>
      </trkpt>
      <trkpt lat="46.03878" lon="4.4342">
        <ele>738</ele>
        <time>2025-10-04T11:29:49Z</time>
      </trkpt>
      <trkpt lat="46.03875" lon="4.4342">
        <ele>738.4</ele>
        <time>2025-10-04T11:29:50Z</time>
      </trkpt>
      <trkpt lat="46.03872" lon="4.4342">
        <ele>738.4</ele>
        <time>2025-10-04T11:29:51Z</time>
      </trkpt>
      <trkpt lat="46.03868" lon="4.43419">
        <ele>738.4</ele>
        <time>2025-10-04T11:29:52Z</time>
      </trkpt>
      <trkpt lat="46.03864" lon="4.43418">
        <ele>738.4</ele>
        <time>2025-10-04T11:29:53Z</time>
      </trkpt>
      <trkpt lat="46.0386" lon="4.43417">
        <ele>738.6</ele>
        <time>2025-10-04T11:29:54Z</time>
      </trkpt>
      <trkpt lat="46.03855" lon="4.43417">
        <ele>738.6</ele>
        <time>2025-10-04T11:29:55Z</time>
      </trkpt>
      <trkpt lat="46.03851" lon="4.43415">
        <ele>738.2</ele>
        <time>2025-10-04T11:29:56Z</time>
      </trkpt>
      <trkpt lat="46.03846" lon="4.43415">
        <ele>738.2</ele>
        <time>2025-10-04T11:29:57Z</time>
      </trkpt>
      <trkpt lat="46.03841" lon="4.43415">
        <ele>738.2</ele>
        <time>2025-10-04T11:29:58Z</time>
      </trkpt>
      <trkpt lat="46.03836" lon="4.43414">
        <ele>737.6</ele>
        <time>2025-10-04T11:29:59Z</time>
      </trkpt>
      <trkpt lat="46.0383" lon="4.43414">
        <ele>737.6</ele>
        <time>2025-10-04T11:30:00Z</time>
      </trkpt>
      <trkpt lat="46.03824" lon="4.43414">
        <ele>737.2</ele>
        <time>2025-10-04T11:30:01Z</time>
      </trkpt>
      <trkpt lat="46.03818" lon="4.43413">
        <ele>737.2</ele>
        <time>2025-10-04T11:30:02Z</time>
      </trkpt>
      <trkpt lat="46.03813" lon="4.43413">
        <ele>736.6</ele>
        <time>2025-10-04T11:30:03Z</time>
      </trkpt>
      <trkpt lat="46.03807" lon="4.43413">
        <ele>736</ele>
        <time>2025-10-04T11:30:04Z</time>
      </trkpt>
      <trkpt lat="46.03802" lon="4.43412">
        <ele>735.8</ele>
        <time>2025-10-04T11:30:05Z</time>
      </trkpt>
      <trkpt lat="46.03796" lon="4.43413">
        <ele>735.8</ele>
        <time>2025-10-04T11:30:06Z</time>
      </trkpt>
      <trkpt lat="46.0379" lon="4.43412">
        <ele>735.8</ele>
        <time>2025-10-04T11:30:07Z</time>
      </trkpt>
      <trkpt lat="46.03785" lon="4.43411">
        <ele>735.8</ele>
        <time>2025-10-04T11:30:08Z</time>
      </trkpt>
      <trkpt lat="46.0378" lon="4.4341">
        <ele>735.8</ele>
        <time>2025-10-04T11:30:09Z</time>
      </trkpt>
      <trkpt lat="46.03774" lon="4.43409">
        <ele>735.4</ele>
        <time>2025-10-04T11:30:10Z</time>
      </trkpt>
      <trkpt lat="46.03769" lon="4.43408">
        <ele>735.4</ele>
        <time>2025-10-04T11:30:11Z</time>
      </trkpt>
      <trkpt lat="46.03763" lon="4.43406">
        <ele>735</ele>
        <time>2025-10-04T11:30:12Z</time>
      </trkpt>
      <trkpt lat="46.03758" lon="4.43404">
        <ele>734.4</ele>
        <time>2025-10-04T11:30:13Z</time>
      </trkpt>
      <trkpt lat="46.03752" lon="4.43403">
        <ele>734</ele>
        <time>2025-10-04T11:30:14Z</time>
      </trkpt>
      <trkpt lat="46.03745" lon="4.43402">
        <ele>734.4</ele>
        <time>2025-10-04T11:30:15Z</time>
      </trkpt>
      <trkpt lat="46.0374" lon="4.43399">
        <ele>734.4</ele>
        <time>2025-10-04T11:30:16Z</time>
      </trkpt>
      <trkpt lat="46.03734" lon="4.43397">
        <ele>735.4</ele>
        <time>2025-10-04T11:30:17Z</time>
      </trkpt>
      <trkpt lat="46.03729" lon="4.43394">
        <ele>735</ele>
        <time>2025-10-04T11:30:18Z</time>
      </trkpt>
      <trkpt lat="46.03724" lon="4.43392">
        <ele>735</ele>
        <time>2025-10-04T11:30:19Z</time>
      </trkpt>
      <trkpt lat="46.03718" lon="4.43388">
        <ele>734.4</ele>
        <time>2025-10-04T11:30:20Z</time>
      </trkpt>
      <trkpt lat="46.03713" lon="4.43385">
        <ele>734.8</ele>
        <time>2025-10-04T11:30:21Z</time>
      </trkpt>
      <trkpt lat="46.03709" lon="4.4338">
        <ele>734.4</ele>
        <time>2025-10-04T11:30:22Z</time>
      </trkpt>
      <trkpt lat="46.03704" lon="4.43375">
        <ele>733.4</ele>
        <time>2025-10-04T11:30:23Z</time>
      </trkpt>
      <trkpt lat="46.03699" lon="4.43368">
        <ele>733.4</ele>
        <time>2025-10-04T11:30:24Z</time>
      </trkpt>
      <trkpt lat="46.03695" lon="4.43362">
        <ele>733.4</ele>
        <time>2025-10-04T11:30:25Z</time>
      </trkpt>
      <trkpt lat="46.03691" lon="4.43354">
        <ele>733.8</ele>
        <time>2025-10-04T11:30:26Z</time>
      </trkpt>
      <trkpt lat="46.03687" lon="4.43347">
        <ele>733.4</ele>
        <time>2025-10-04T11:30:27Z</time>
      </trkpt>
      <trkpt lat="46.03687" lon="4.43347">
        <ele>732</ele>
        <time>2025-10-04T11:30:28Z</time>
      </trkpt>
      <trkpt lat="46.03687" lon="4.43347">
        <ele>732</ele>
        <time>2025-10-04T11:30:29Z</time>
      </trkpt>
      <trkpt lat="46.03667" lon="4.4332">
        <ele>732.2</ele>
        <time>2025-10-04T11:30:31Z</time>
      </trkpt>
      <trkpt lat="46.03662" lon="4.43314">
        <ele>732.2</ele>
        <time>2025-10-04T11:30:32Z</time>
      </trkpt>
      <trkpt lat="46.03657" lon="4.43306">
        <ele>731.6</ele>
        <time>2025-10-04T11:30:33Z</time>
      </trkpt>
      <trkpt lat="46.03651" lon="4.43301">
        <ele>731</ele>
        <time>2025-10-04T11:30:34Z</time>
      </trkpt>
      <trkpt lat="46.03646" lon="4.43296">
        <ele>730.6</ele>
        <time>2025-10-04T11:30:35Z</time>
      </trkpt>
      <trkpt lat="46.03641" lon="4.43292">
        <ele>729.8</ele>
        <time>2025-10-04T11:30:36Z</time>
      </trkpt>
      <trkpt lat="46.03637" lon="4.43288">
        <ele>730.8</ele>
        <time>2025-10-04T11:30:37Z</time>
      </trkpt>
      <trkpt lat="46.03635" lon="4.43286">
        <ele>730.4</ele>
        <time>2025-10-04T11:30:38Z</time>
      </trkpt>
      <trkpt lat="46.03633" lon="4.43282">
        <ele>729.6</ele>
        <time>2025-10-04T11:30:39Z</time>
      </trkpt>
      <trkpt lat="46.03631" lon="4.43279">
        <ele>729.4</ele>
        <time>2025-10-04T11:30:40Z</time>
      </trkpt>
      <trkpt lat="46.03629" lon="4.43274">
        <ele>729.4</ele>
        <time>2025-10-04T11:30:41Z</time>
      </trkpt>
      <trkpt lat="46.03627" lon="4.43273">
        <ele>729.2</ele>
        <time>2025-10-04T11:30:42Z</time>
      </trkpt>
      <trkpt lat="46.03624" lon="4.43269">
        <ele>729.2</ele>
        <time>2025-10-04T11:30:43Z</time>
      </trkpt>
      <trkpt lat="46.03621" lon="4.43266">
        <ele>728.8</ele>
        <time>2025-10-04T11:30:44Z</time>
      </trkpt>
      <trkpt lat="46.03618" lon="4.43262">
        <ele>728</ele>
        <time>2025-10-04T11:30:45Z</time>
      </trkpt>
      <trkpt lat="46.03614" lon="4.43258">
        <ele>728</ele>
        <time>2025-10-04T11:30:46Z</time>
      </trkpt>
      <trkpt lat="46.03611" lon="4.43255">
        <ele>727.6</ele>
        <time>2025-10-04T11:30:47Z</time>
      </trkpt>
      <trkpt lat="46.03608" lon="4.43251">
        <ele>727.2</ele>
        <time>2025-10-04T11:30:48Z</time>
      </trkpt>
      <trkpt lat="46.03603" lon="4.43246">
        <ele>727.6</ele>
        <time>2025-10-04T11:30:49Z</time>
      </trkpt>
      <trkpt lat="46.03598" lon="4.4324">
        <ele>726.2</ele>
        <time>2025-10-04T11:30:50Z</time>
      </trkpt>
      <trkpt lat="46.03594" lon="4.43234">
        <ele>725.6</ele>
        <time>2025-10-04T11:30:51Z</time>
      </trkpt>
      <trkpt lat="46.03588" lon="4.43229">
        <ele>724.8</ele>
        <time>2025-10-04T11:30:52Z</time>
      </trkpt>
      <trkpt lat="46.03583" lon="4.43224">
        <ele>724.2</ele>
        <time>2025-10-04T11:30:53Z</time>
      </trkpt>
      <trkpt lat="46.03578" lon="4.43219">
        <ele>723.6</ele>
        <time>2025-10-04T11:30:54Z</time>
      </trkpt>
      <trkpt lat="46.03572" lon="4.43213">
        <ele>723</ele>
        <time>2025-10-04T11:30:55Z</time>
      </trkpt>
      <trkpt lat="46.03567" lon="4.43207">
        <ele>722.4</ele>
        <time>2025-10-04T11:30:56Z</time>
      </trkpt>
      <trkpt lat="46.03562" lon="4.43201">
        <ele>720.6</ele>
        <time>2025-10-04T11:30:57Z</time>
      </trkpt>
      <trkpt lat="46.03558" lon="4.43196">
        <ele>720.4</ele>
        <time>2025-10-04T11:30:58Z</time>
      </trkpt>
      <trkpt lat="46.03555" lon="4.4319">
        <ele>720.4</ele>
        <time>2025-10-04T11:30:59Z</time>
      </trkpt>
      <trkpt lat="46.03553" lon="4.43186">
        <ele>720.4</ele>
        <time>2025-10-04T11:31:00Z</time>
      </trkpt>
      <trkpt lat="46.0355" lon="4.43181">
        <ele>720.4</ele>
        <time>2025-10-04T11:31:01Z</time>
      </trkpt>
      <trkpt lat="46.03551" lon="4.4318">
        <ele>720.6</ele>
        <time>2025-10-04T11:31:02Z</time>
      </trkpt>
      <trkpt lat="46.03549" lon="4.43177">
        <ele>721</ele>
        <time>2025-10-04T11:31:03Z</time>
      </trkpt>
      <trkpt lat="46.03546" lon="4.43175">
        <ele>721</ele>
        <time>2025-10-04T11:31:04Z</time>
      </trkpt>
      <trkpt lat="46.03543" lon="4.43173">
        <ele>721</ele>
        <time>2025-10-04T11:31:05Z</time>
      </trkpt>
      <trkpt lat="46.03539" lon="4.43171">
        <ele>721</ele>
        <time>2025-10-04T11:31:06Z</time>
      </trkpt>
      <trkpt lat="46.03535" lon="4.43171">
        <ele>721</ele>
        <time>2025-10-04T11:31:07Z</time>
      </trkpt>
      <trkpt lat="46.0353" lon="4.4317">
        <ele>721</ele>
        <time>2025-10-04T11:31:08Z</time>
      </trkpt>
      <trkpt lat="46.03526" lon="4.4317">
        <ele>720.6</ele>
        <time>2025-10-04T11:31:09Z</time>
      </trkpt>
      <trkpt lat="46.03521" lon="4.4317">
        <ele>720.6</ele>
        <time>2025-10-04T11:31:10Z</time>
      </trkpt>
      <trkpt lat="46.03517" lon="4.4317">
        <ele>720.6</ele>
        <time>2025-10-04T11:31:11Z</time>
      </trkpt>
      <trkpt lat="46.03512" lon="4.43169">
        <ele>720.6</ele>
        <time>2025-10-04T11:31:12Z</time>
      </trkpt>
      <trkpt lat="46.03507" lon="4.43169">
        <ele>720.2</ele>
        <time>2025-10-04T11:31:13Z</time>
      </trkpt>
      <trkpt lat="46.03501" lon="4.43168">
        <ele>720.2</ele>
        <time>2025-10-04T11:31:14Z</time>
      </trkpt>
      <trkpt lat="46.03496" lon="4.43168">
        <ele>720</ele>
        <time>2025-10-04T11:31:15Z</time>
      </trkpt>
      <trkpt lat="46.03491" lon="4.43168">
        <ele>719.8</ele>
        <time>2025-10-04T11:31:16Z</time>
      </trkpt>
      <trkpt lat="46.03486" lon="4.43168">
        <ele>719.8</ele>
        <time>2025-10-04T11:31:17Z</time>
      </trkpt>
      <trkpt lat="46.0348" lon="4.43169">
        <ele>719.8</ele>
        <time>2025-10-04T11:31:18Z</time>
      </trkpt>
      <trkpt lat="46.03475" lon="4.43169">
        <ele>719.8</ele>
        <time>2025-10-04T11:31:19Z</time>
      </trkpt>
      <trkpt lat="46.0347" lon="4.43168">
        <ele>719.8</ele>
        <time>2025-10-04T11:31:20Z</time>
      </trkpt>
      <trkpt lat="46.03465" lon="4.43165">
        <ele>719.8</ele>
        <time>2025-10-04T11:31:21Z</time>
      </trkpt>
      <trkpt lat="46.0346" lon="4.43161">
        <ele>720</ele>
        <time>2025-10-04T11:31:22Z</time>
      </trkpt>
      <trkpt lat="46.03456" lon="4.43156">
        <ele>720</ele>
        <time>2025-10-04T11:31:23Z</time>
      </trkpt>
      <trkpt lat="46.03452" lon="4.4315">
        <ele>719.6</ele>
        <time>2025-10-04T11:31:24Z</time>
      </trkpt>
      <trkpt lat="46.03448" lon="4.43145">
        <ele>719.6</ele>
        <time>2025-10-04T11:31:25Z</time>
      </trkpt>
      <trkpt lat="46.03444" lon="4.43139">
        <ele>719.6</ele>
        <time>2025-10-04T11:31:26Z</time>
      </trkpt>
      <trkpt lat="46.0344" lon="4.43133">
        <ele>719.6</ele>
        <time>2025-10-04T11:31:27Z</time>
      </trkpt>
      <trkpt lat="46.03436" lon="4.43127">
        <ele>719.6</ele>
        <time>2025-10-04T11:31:28Z</time>
      </trkpt>
      <trkpt lat="46.03432" lon="4.4312">
        <ele>719.6</ele>
        <time>2025-10-04T11:31:29Z</time>
      </trkpt>
      <trkpt lat="46.03428" lon="4.43114">
        <ele>719.6</ele>
        <time>2025-10-04T11:31:30Z</time>
      </trkpt>
      <trkpt lat="46.03425" lon="4.43107">
        <ele>719.4</ele>
        <time>2025-10-04T11:31:31Z</time>
      </trkpt>
      <trkpt lat="46.03421" lon="4.43101">
        <ele>719.4</ele>
        <time>2025-10-04T11:31:32Z</time>
      </trkpt>
      <trkpt lat="46.03417" lon="4.43094">
        <ele>719.4</ele>
        <time>2025-10-04T11:31:33Z</time>
      </trkpt>
      <trkpt lat="46.03412" lon="4.43088">
        <ele>719.6</ele>
        <time>2025-10-04T11:31:34Z</time>
      </trkpt>
      <trkpt lat="46.03408" lon="4.43082">
        <ele>719.8</ele>
        <time>2025-10-04T11:31:35Z</time>
      </trkpt>
      <trkpt lat="46.03405" lon="4.43076">
        <ele>719.8</ele>
        <time>2025-10-04T11:31:36Z</time>
      </trkpt>
      <trkpt lat="46.03405" lon="4.43076">
        <ele>719.8</ele>
        <time>2025-10-04T11:31:37Z</time>
      </trkpt>
      <trkpt lat="46.034" lon="4.4307">
        <ele>719.8</ele>
        <time>2025-10-04T11:31:38Z</time>
      </trkpt>
      <trkpt lat="46.03396" lon="4.43064">
        <ele>719.8</ele>
        <time>2025-10-04T11:31:39Z</time>
      </trkpt>
      <trkpt lat="46.03393" lon="4.43058">
        <ele>719.8</ele>
        <time>2025-10-04T11:31:40Z</time>
      </trkpt>
      <trkpt lat="46.03389" lon="4.43052">
        <ele>719.8</ele>
        <time>2025-10-04T11:31:41Z</time>
      </trkpt>
      <trkpt lat="46.03384" lon="4.43046">
        <ele>719.8</ele>
        <time>2025-10-04T11:31:42Z</time>
      </trkpt>
      <trkpt lat="46.03381" lon="4.4304">
        <ele>719.8</ele>
        <time>2025-10-04T11:31:43Z</time>
      </trkpt>
      <trkpt lat="46.03377" lon="4.43034">
        <ele>719.6</ele>
        <time>2025-10-04T11:31:44Z</time>
      </trkpt>
      <trkpt lat="46.03372" lon="4.43028">
        <ele>719.6</ele>
        <time>2025-10-04T11:31:45Z</time>
      </trkpt>
      <trkpt lat="46.03368" lon="4.43021">
        <ele>719.6</ele>
        <time>2025-10-04T11:31:46Z</time>
      </trkpt>
      <trkpt lat="46.03365" lon="4.43015">
        <ele>719.6</ele>
        <time>2025-10-04T11:31:47Z</time>
      </trkpt>
      <trkpt lat="46.03361" lon="4.43008">
        <ele>719.4</ele>
        <time>2025-10-04T11:31:48Z</time>
      </trkpt>
      <trkpt lat="46.03358" lon="4.43001">
        <ele>719.4</ele>
        <time>2025-10-04T11:31:49Z</time>
      </trkpt>
      <trkpt lat="46.03355" lon="4.42994">
        <ele>719.4</ele>
        <time>2025-10-04T11:31:50Z</time>
      </trkpt>
      <trkpt lat="46.03352" lon="4.42987">
        <ele>719.4</ele>
        <time>2025-10-04T11:31:51Z</time>
      </trkpt>
      <trkpt lat="46.0335" lon="4.42981">
        <ele>719</ele>
        <time>2025-10-04T11:31:52Z</time>
      </trkpt>
      <trkpt lat="46.03347" lon="4.42976">
        <ele>719</ele>
        <time>2025-10-04T11:31:53Z</time>
      </trkpt>
      <trkpt lat="46.03344" lon="4.42971">
        <ele>719.6</ele>
        <time>2025-10-04T11:31:54Z</time>
      </trkpt>
      <trkpt lat="46.0334" lon="4.42967">
        <ele>719.6</ele>
        <time>2025-10-04T11:31:55Z</time>
      </trkpt>
      <trkpt lat="46.03336" lon="4.42963">
        <ele>720</ele>
        <time>2025-10-04T11:31:56Z</time>
      </trkpt>
      <trkpt lat="46.03332" lon="4.42958">
        <ele>720</ele>
        <time>2025-10-04T11:31:57Z</time>
      </trkpt>
      <trkpt lat="46.03328" lon="4.42955">
        <ele>720</ele>
        <time>2025-10-04T11:31:58Z</time>
      </trkpt>
      <trkpt lat="46.03325" lon="4.4295">
        <ele>720.2</ele>
        <time>2025-10-04T11:31:59Z</time>
      </trkpt>
      <trkpt lat="46.03321" lon="4.42947">
        <ele>720</ele>
        <time>2025-10-04T11:32:00Z</time>
      </trkpt>
      <trkpt lat="46.03318" lon="4.42942">
        <ele>720.4</ele>
        <time>2025-10-04T11:32:01Z</time>
      </trkpt>
      <trkpt lat="46.03316" lon="4.42937">
        <ele>720.4</ele>
        <time>2025-10-04T11:32:02Z</time>
      </trkpt>
      <trkpt lat="46.03312" lon="4.42933">
        <ele>720.8</ele>
        <time>2025-10-04T11:32:03Z</time>
      </trkpt>
      <trkpt lat="46.03309" lon="4.42929">
        <ele>720.8</ele>
        <time>2025-10-04T11:32:04Z</time>
      </trkpt>
      <trkpt lat="46.03306" lon="4.42925">
        <ele>721</ele>
        <time>2025-10-04T11:32:05Z</time>
      </trkpt>
      <trkpt lat="46.03304" lon="4.42922">
        <ele>721.6</ele>
        <time>2025-10-04T11:32:06Z</time>
      </trkpt>
      <trkpt lat="46.03301" lon="4.42919">
        <ele>721.6</ele>
        <time>2025-10-04T11:32:07Z</time>
      </trkpt>
      <trkpt lat="46.03299" lon="4.42916">
        <ele>722</ele>
        <time>2025-10-04T11:32:08Z</time>
      </trkpt>
      <trkpt lat="46.03296" lon="4.42913">
        <ele>722</ele>
        <time>2025-10-04T11:32:09Z</time>
      </trkpt>
      <trkpt lat="46.03293" lon="4.42912">
        <ele>722.4</ele>
        <time>2025-10-04T11:32:10Z</time>
      </trkpt>
      <trkpt lat="46.0329" lon="4.42911">
        <ele>723</ele>
        <time>2025-10-04T11:32:11Z</time>
      </trkpt>
      <trkpt lat="46.03288" lon="4.42908">
        <ele>723</ele>
        <time>2025-10-04T11:32:12Z</time>
      </trkpt>
      <trkpt lat="46.03286" lon="4.42906">
        <ele>723</ele>
        <time>2025-10-04T11:32:13Z</time>
      </trkpt>
      <trkpt lat="46.03285" lon="4.42905">
        <ele>723</ele>
        <time>2025-10-04T11:32:14Z</time>
      </trkpt>
      <trkpt lat="46.03283" lon="4.42905">
        <ele>723</ele>
        <time>2025-10-04T11:32:15Z</time>
      </trkpt>
      <trkpt lat="46.03281" lon="4.42905">
        <ele>723</ele>
        <time>2025-10-04T11:32:16Z</time>
      </trkpt>
      <trkpt lat="46.0328" lon="4.42905">
        <ele>723</ele>
        <time>2025-10-04T11:32:17Z</time>
      </trkpt>
      <trkpt lat="46.0328" lon="4.42905">
        <ele>723</ele>
        <time>2025-10-04T11:32:18Z</time>
      </trkpt>
      <trkpt lat="46.0328" lon="4.42905">
        <ele>723</ele>
        <time>2025-10-04T11:32:19Z</time>
      </trkpt>
      <trkpt lat="46.03286" lon="4.42906">
        <ele>723.8</ele>
        <time>2025-10-04T11:34:47Z</time>
      </trkpt>
      <trkpt lat="46.03287" lon="4.42905">
        <ele>723.8</ele>
        <time>2025-10-04T11:34:48Z</time>
      </trkpt>
      <trkpt lat="46.03286" lon="4.42904">
        <ele>723.8</ele>
        <time>2025-10-04T11:34:49Z</time>
      </trkpt>
      <trkpt lat="46.03286" lon="4.42904">
        <ele>723.8</ele>
        <time>2025-10-04T11:34:50Z</time>
      </trkpt>
      <trkpt lat="46.03286" lon="4.42902">
        <ele>723.6</ele>
        <time>2025-10-04T11:34:51Z</time>
      </trkpt>
      <trkpt lat="46.03286" lon="4.42899">
        <ele>723.6</ele>
        <time>2025-10-04T11:34:52Z</time>
      </trkpt>
      <trkpt lat="46.03286" lon="4.42897">
        <ele>723.6</ele>
        <time>2025-10-04T11:34:53Z</time>
      </trkpt>
      <trkpt lat="46.03285" lon="4.42895">
        <ele>723.6</ele>
        <time>2025-10-04T11:34:54Z</time>
      </trkpt>
      <trkpt lat="46.03283" lon="4.42892">
        <ele>723.6</ele>
        <time>2025-10-04T11:34:55Z</time>
      </trkpt>
      <trkpt lat="46.03282" lon="4.42889">
        <ele>723.8</ele>
        <time>2025-10-04T11:34:56Z</time>
      </trkpt>
      <trkpt lat="46.0328" lon="4.42887">
        <ele>723.8</ele>
        <time>2025-10-04T11:34:57Z</time>
      </trkpt>
      <trkpt lat="46.03278" lon="4.42885">
        <ele>723.8</ele>
        <time>2025-10-04T11:34:58Z</time>
      </trkpt>
      <trkpt lat="46.03277" lon="4.42882">
        <ele>723.8</ele>
        <time>2025-10-04T11:34:59Z</time>
      </trkpt>
      <trkpt lat="46.03275" lon="4.42879">
        <ele>724.2</ele>
        <time>2025-10-04T11:35:00Z</time>
      </trkpt>
      <trkpt lat="46.03273" lon="4.42876">
        <ele>724.2</ele>
        <time>2025-10-04T11:35:01Z</time>
      </trkpt>
      <trkpt lat="46.0327" lon="4.42873">
        <ele>724.6</ele>
        <time>2025-10-04T11:35:02Z</time>
      </trkpt>
      <trkpt lat="46.03269" lon="4.42871">
        <ele>724.8</ele>
        <time>2025-10-04T11:35:03Z</time>
      </trkpt>
      <trkpt lat="46.03267" lon="4.42868">
        <ele>724.8</ele>
        <time>2025-10-04T11:35:04Z</time>
      </trkpt>
      <trkpt lat="46.03265" lon="4.42865">
        <ele>725.2</ele>
        <time>2025-10-04T11:35:05Z</time>
      </trkpt>
      <trkpt lat="46.03262" lon="4.42863">
        <ele>725.6</ele>
        <time>2025-10-04T11:35:06Z</time>
      </trkpt>
      <trkpt lat="46.0326" lon="4.42861">
        <ele>725.2</ele>
        <time>2025-10-04T11:35:07Z</time>
      </trkpt>
      <trkpt lat="46.03259" lon="4.4286">
        <ele>725.6</ele>
        <time>2025-10-04T11:35:08Z</time>
      </trkpt>
      <trkpt lat="46.03257" lon="4.42858">
        <ele>725.6</ele>
        <time>2025-10-04T11:35:09Z</time>
      </trkpt>
      <trkpt lat="46.03255" lon="4.42855">
        <ele>726</ele>
        <time>2025-10-04T11:35:10Z</time>
      </trkpt>
      <trkpt lat="46.03255" lon="4.42855">
        <ele>726.2</ele>
        <time>2025-10-04T11:35:11Z</time>
      </trkpt>
      <trkpt lat="46.03253" lon="4.42853">
        <ele>726.6</ele>
        <time>2025-10-04T11:35:12Z</time>
      </trkpt>
      <trkpt lat="46.03251" lon="4.42851">
        <ele>727.2</ele>
        <time>2025-10-04T11:35:13Z</time>
      </trkpt>
      <trkpt lat="46.0325" lon="4.42849">
        <ele>727.2</ele>
        <time>2025-10-04T11:35:14Z</time>
      </trkpt>
      <trkpt lat="46.03249" lon="4.42847">
        <ele>726.6</ele>
        <time>2025-10-04T11:35:15Z</time>
      </trkpt>
      <trkpt lat="46.03249" lon="4.42844">
        <ele>727.8</ele>
        <time>2025-10-04T11:35:16Z</time>
      </trkpt>
      <trkpt lat="46.03248" lon="4.42842">
        <ele>727.8</ele>
        <time>2025-10-04T11:35:17Z</time>
      </trkpt>
      <trkpt lat="46.03246" lon="4.42839">
        <ele>727.8</ele>
        <time>2025-10-04T11:35:18Z</time>
      </trkpt>
      <trkpt lat="46.03243" lon="4.42837">
        <ele>727.8</ele>
        <time>2025-10-04T11:35:19Z</time>
      </trkpt>
      <trkpt lat="46.0324" lon="4.42835">
        <ele>727.8</ele>
        <time>2025-10-04T11:35:20Z</time>
      </trkpt>
      <trkpt lat="46.03238" lon="4.42834">
        <ele>727.8</ele>
        <time>2025-10-04T11:35:21Z</time>
      </trkpt>
      <trkpt lat="46.03236" lon="4.42832">
        <ele>728</ele>
        <time>2025-10-04T11:35:22Z</time>
      </trkpt>
      <trkpt lat="46.03233" lon="4.4283">
        <ele>728</ele>
        <time>2025-10-04T11:35:23Z</time>
      </trkpt>
      <trkpt lat="46.03231" lon="4.42828">
        <ele>728.4</ele>
        <time>2025-10-04T11:35:24Z</time>
      </trkpt>
      <trkpt lat="46.03228" lon="4.42826">
        <ele>728.8</ele>
        <time>2025-10-04T11:35:25Z</time>
      </trkpt>
      <trkpt lat="46.03226" lon="4.42824">
        <ele>729</ele>
        <time>2025-10-04T11:35:26Z</time>
      </trkpt>
      <trkpt lat="46.03224" lon="4.42822">
        <ele>729</ele>
        <time>2025-10-04T11:35:27Z</time>
      </trkpt>
      <trkpt lat="46.03222" lon="4.42819">
        <ele>729</ele>
        <time>2025-10-04T11:35:28Z</time>
      </trkpt>
      <trkpt lat="46.0322" lon="4.42816">
        <ele>729.2</ele>
        <time>2025-10-04T11:35:29Z</time>
      </trkpt>
      <trkpt lat="46.03218" lon="4.42813">
        <ele>729.2</ele>
        <time>2025-10-04T11:35:30Z</time>
      </trkpt>
      <trkpt lat="46.03216" lon="4.4281">
        <ele>729.8</ele>
        <time>2025-10-04T11:35:31Z</time>
      </trkpt>
      <trkpt lat="46.03215" lon="4.42808">
        <ele>729.8</ele>
        <time>2025-10-04T11:35:32Z</time>
      </trkpt>
      <trkpt lat="46.03213" lon="4.42806">
        <ele>730</ele>
        <time>2025-10-04T11:35:33Z</time>
      </trkpt>
      <trkpt lat="46.03211" lon="4.42804">
        <ele>730.2</ele>
        <time>2025-10-04T11:35:34Z</time>
      </trkpt>
      <trkpt lat="46.0321" lon="4.42802">
        <ele>730.2</ele>
        <time>2025-10-04T11:35:35Z</time>
      </trkpt>
      <trkpt lat="46.03208" lon="4.428">
        <ele>730.8</ele>
        <time>2025-10-04T11:35:36Z</time>
      </trkpt>
      <trkpt lat="46.03207" lon="4.42798">
        <ele>730.8</ele>
        <time>2025-10-04T11:35:37Z</time>
      </trkpt>
      <trkpt lat="46.03204" lon="4.42794">
        <ele>730.8</ele>
        <time>2025-10-04T11:35:38Z</time>
      </trkpt>
      <trkpt lat="46.03203" lon="4.42791">
        <ele>731</ele>
        <time>2025-10-04T11:35:39Z</time>
      </trkpt>
      <trkpt lat="46.03202" lon="4.42789">
        <ele>731</ele>
        <time>2025-10-04T11:35:40Z</time>
      </trkpt>
      <trkpt lat="46.032" lon="4.42786">
        <ele>731.2</ele>
        <time>2025-10-04T11:35:41Z</time>
      </trkpt>
      <trkpt lat="46.03198" lon="4.42783">
        <ele>731.2</ele>
        <time>2025-10-04T11:35:42Z</time>
      </trkpt>
      <trkpt lat="46.03196" lon="4.4278">
        <ele>731.2</ele>
        <time>2025-10-04T11:35:43Z</time>
      </trkpt>
      <trkpt lat="46.03194" lon="4.42778">
        <ele>731.6</ele>
        <time>2025-10-04T11:35:44Z</time>
      </trkpt>
      <trkpt lat="46.03192" lon="4.42776">
        <ele>731.8</ele>
        <time>2025-10-04T11:35:45Z</time>
      </trkpt>
      <trkpt lat="46.03191" lon="4.42773">
        <ele>731.8</ele>
        <time>2025-10-04T11:35:46Z</time>
      </trkpt>
      <trkpt lat="46.03189" lon="4.4277">
        <ele>731.8</ele>
        <time>2025-10-04T11:35:47Z</time>
      </trkpt>
      <trkpt lat="46.03187" lon="4.42767">
        <ele>731.8</ele>
        <time>2025-10-04T11:35:48Z</time>
      </trkpt>
      <trkpt lat="46.03185" lon="4.42764">
        <ele>731.8</ele>
        <time>2025-10-04T11:35:49Z</time>
      </trkpt>
      <trkpt lat="46.03182" lon="4.42761">
        <ele>731.8</ele>
        <time>2025-10-04T11:35:50Z</time>
      </trkpt>
      <trkpt lat="46.0318" lon="4.42758">
        <ele>731.8</ele>
        <time>2025-10-04T11:35:51Z</time>
      </trkpt>
      <trkpt lat="46.03178" lon="4.42755">
        <ele>732.2</ele>
        <time>2025-10-04T11:35:52Z</time>
      </trkpt>
      <trkpt lat="46.03177" lon="4.42752">
        <ele>732.2</ele>
        <time>2025-10-04T11:35:53Z</time>
      </trkpt>
      <trkpt lat="46.03175" lon="4.42749">
        <ele>732.2</ele>
        <time>2025-10-04T11:35:54Z</time>
      </trkpt>
      <trkpt lat="46.03175" lon="4.42746">
        <ele>732.6</ele>
        <time>2025-10-04T11:35:55Z</time>
      </trkpt>
      <trkpt lat="46.03174" lon="4.42743">
        <ele>733.4</ele>
        <time>2025-10-04T11:35:56Z</time>
      </trkpt>
      <trkpt lat="46.03172" lon="4.42735">
        <ele>733.4</ele>
        <time>2025-10-04T11:35:57Z</time>
      </trkpt>
      <trkpt lat="46.03171" lon="4.42732">
        <ele>733.4</ele>
        <time>2025-10-04T11:35:58Z</time>
      </trkpt>
      <trkpt lat="46.03171" lon="4.4273">
        <ele>733.8</ele>
        <time>2025-10-04T11:35:59Z</time>
      </trkpt>
      <trkpt lat="46.0317" lon="4.42727">
        <ele>734</ele>
        <time>2025-10-04T11:36:00Z</time>
      </trkpt>
      <trkpt lat="46.03169" lon="4.42724">
        <ele>734.2</ele>
        <time>2025-10-04T11:36:01Z</time>
      </trkpt>
      <trkpt lat="46.03167" lon="4.4272">
        <ele>734.6</ele>
        <time>2025-10-04T11:36:02Z</time>
      </trkpt>
      <trkpt lat="46.03166" lon="4.42717">
        <ele>734.2</ele>
        <time>2025-10-04T11:36:03Z</time>
      </trkpt>
      <trkpt lat="46.03164" lon="4.42715">
        <ele>734.2</ele>
        <time>2025-10-04T11:36:04Z</time>
      </trkpt>
      <trkpt lat="46.03163" lon="4.42714">
        <ele>734.8</ele>
        <time>2025-10-04T11:36:05Z</time>
      </trkpt>
      <trkpt lat="46.03161" lon="4.42712">
        <ele>734.8</ele>
        <time>2025-10-04T11:36:06Z</time>
      </trkpt>
      <trkpt lat="46.03159" lon="4.42709">
        <ele>735</ele>
        <time>2025-10-04T11:36:07Z</time>
      </trkpt>
      <trkpt lat="46.03157" lon="4.42706">
        <ele>735</ele>
        <time>2025-10-04T11:36:08Z</time>
      </trkpt>
      <trkpt lat="46.03156" lon="4.42703">
        <ele>735</ele>
        <time>2025-10-04T11:36:09Z</time>
      </trkpt>
      <trkpt lat="46.03154" lon="4.427">
        <ele>735</ele>
        <time>2025-10-04T11:36:10Z</time>
      </trkpt>
      <trkpt lat="46.03152" lon="4.42697">
        <ele>735</ele>
        <time>2025-10-04T11:36:11Z</time>
      </trkpt>
      <trkpt lat="46.0315" lon="4.42694">
        <ele>735</ele>
        <time>2025-10-04T11:36:12Z</time>
      </trkpt>
      <trkpt lat="46.03148" lon="4.42691">
        <ele>735</ele>
        <time>2025-10-04T11:36:13Z</time>
      </trkpt>
      <trkpt lat="46.03146" lon="4.42688">
        <ele>735.2</ele>
        <time>2025-10-04T11:36:14Z</time>
      </trkpt>
      <trkpt lat="46.03144" lon="4.42686">
        <ele>735.2</ele>
        <time>2025-10-04T11:36:15Z</time>
      </trkpt>
      <trkpt lat="46.03142" lon="4.42683">
        <ele>735.2</ele>
        <time>2025-10-04T11:36:16Z</time>
      </trkpt>
      <trkpt lat="46.03139" lon="4.42681">
        <ele>735.2</ele>
        <time>2025-10-04T11:36:17Z</time>
      </trkpt>
      <trkpt lat="46.03137" lon="4.42678">
        <ele>735.4</ele>
        <time>2025-10-04T11:36:18Z</time>
      </trkpt>
      <trkpt lat="46.03135" lon="4.42675">
        <ele>735.4</ele>
        <time>2025-10-04T11:36:19Z</time>
      </trkpt>
      <trkpt lat="46.03133" lon="4.42672">
        <ele>735.8</ele>
        <time>2025-10-04T11:36:20Z</time>
      </trkpt>
      <trkpt lat="46.03132" lon="4.4267">
        <ele>735.8</ele>
        <time>2025-10-04T11:36:21Z</time>
      </trkpt>
      <trkpt lat="46.0313" lon="4.42668">
        <ele>735.8</ele>
        <time>2025-10-04T11:36:22Z</time>
      </trkpt>
      <trkpt lat="46.03128" lon="4.42665">
        <ele>736.2</ele>
        <time>2025-10-04T11:36:23Z</time>
      </trkpt>
      <trkpt lat="46.03126" lon="4.42663">
        <ele>736</ele>
        <time>2025-10-04T11:36:24Z</time>
      </trkpt>
      <trkpt lat="46.03124" lon="4.4266">
        <ele>736</ele>
        <time>2025-10-04T11:36:25Z</time>
      </trkpt>
      <trkpt lat="46.03123" lon="4.42658">
        <ele>736.2</ele>
        <time>2025-10-04T11:36:26Z</time>
      </trkpt>
      <trkpt lat="46.03121" lon="4.42655">
        <ele>736.2</ele>
        <time>2025-10-04T11:36:27Z</time>
      </trkpt>
      <trkpt lat="46.03118" lon="4.42652">
        <ele>736.2</ele>
        <time>2025-10-04T11:36:28Z</time>
      </trkpt>
      <trkpt lat="46.03116" lon="4.42649">
        <ele>736.6</ele>
        <time>2025-10-04T11:36:29Z</time>
      </trkpt>
      <trkpt lat="46.03114" lon="4.42646">
        <ele>736.8</ele>
        <time>2025-10-04T11:36:30Z</time>
      </trkpt>
      <trkpt lat="46.03113" lon="4.42644">
        <ele>736.8</ele>
        <time>2025-10-04T11:36:31Z</time>
      </trkpt>
      <trkpt lat="46.03111" lon="4.4264">
        <ele>737.2</ele>
        <time>2025-10-04T11:36:32Z</time>
      </trkpt>
      <trkpt lat="46.03109" lon="4.42637">
        <ele>737.2</ele>
        <time>2025-10-04T11:36:33Z</time>
      </trkpt>
      <trkpt lat="46.03107" lon="4.42634">
        <ele>737.6</ele>
        <time>2025-10-04T11:36:34Z</time>
      </trkpt>
      <trkpt lat="46.03105" lon="4.42632">
        <ele>737.6</ele>
        <time>2025-10-04T11:36:35Z</time>
      </trkpt>
      <trkpt lat="46.03103" lon="4.4263">
        <ele>737.8</ele>
        <time>2025-10-04T11:36:36Z</time>
      </trkpt>
      <trkpt lat="46.03102" lon="4.42627">
        <ele>737.8</ele>
        <time>2025-10-04T11:36:37Z</time>
      </trkpt>
      <trkpt lat="46.031" lon="4.42625">
        <ele>737.8</ele>
        <time>2025-10-04T11:36:38Z</time>
      </trkpt>
      <trkpt lat="46.03099" lon="4.42623">
        <ele>738</ele>
        <time>2025-10-04T11:36:39Z</time>
      </trkpt>
      <trkpt lat="46.03097" lon="4.4262">
        <ele>738</ele>
        <time>2025-10-04T11:36:40Z</time>
      </trkpt>
      <trkpt lat="46.03095" lon="4.42618">
        <ele>738.6</ele>
        <time>2025-10-04T11:36:41Z</time>
      </trkpt>
      <trkpt lat="46.03093" lon="4.42615">
        <ele>738.8</ele>
        <time>2025-10-04T11:36:42Z</time>
      </trkpt>
      <trkpt lat="46.03092" lon="4.42612">
        <ele>739</ele>
        <time>2025-10-04T11:36:43Z</time>
      </trkpt>
      <trkpt lat="46.0309" lon="4.42609">
        <ele>739.2</ele>
        <time>2025-10-04T11:36:44Z</time>
      </trkpt>
      <trkpt lat="46.03088" lon="4.42607">
        <ele>739.4</ele>
        <time>2025-10-04T11:36:45Z</time>
      </trkpt>
      <trkpt lat="46.03086" lon="4.42605">
        <ele>739.4</ele>
        <time>2025-10-04T11:36:46Z</time>
      </trkpt>
      <trkpt lat="46.03084" lon="4.42603">
        <ele>739.6</ele>
        <time>2025-10-04T11:36:47Z</time>
      </trkpt>
      <trkpt lat="46.03083" lon="4.426">
        <ele>739.6</ele>
        <time>2025-10-04T11:36:48Z</time>
      </trkpt>
      <trkpt lat="46.03081" lon="4.42597">
        <ele>739.6</ele>
        <time>2025-10-04T11:36:49Z</time>
      </trkpt>
      <trkpt lat="46.03079" lon="4.42594">
        <ele>740</ele>
        <time>2025-10-04T11:36:50Z</time>
      </trkpt>
      <trkpt lat="46.03078" lon="4.42592">
        <ele>739.6</ele>
        <time>2025-10-04T11:36:51Z</time>
      </trkpt>
      <trkpt lat="46.03076" lon="4.4259">
        <ele>739.6</ele>
        <time>2025-10-04T11:36:52Z</time>
      </trkpt>
      <trkpt lat="46.03075" lon="4.42587">
        <ele>739.6</ele>
        <time>2025-10-04T11:36:53Z</time>
      </trkpt>
      <trkpt lat="46.03074" lon="4.42583">
        <ele>739.6</ele>
        <time>2025-10-04T11:36:54Z</time>
      </trkpt>
      <trkpt lat="46.03073" lon="4.42579">
        <ele>739.6</ele>
        <time>2025-10-04T11:36:55Z</time>
      </trkpt>
      <trkpt lat="46.03072" lon="4.42577">
        <ele>740</ele>
        <time>2025-10-04T11:36:56Z</time>
      </trkpt>
      <trkpt lat="46.03071" lon="4.42575">
        <ele>740</ele>
        <time>2025-10-04T11:36:57Z</time>
      </trkpt>
      <trkpt lat="46.0307" lon="4.42573">
        <ele>739.6</ele>
        <time>2025-10-04T11:36:58Z</time>
      </trkpt>
      <trkpt lat="46.03068" lon="4.4257">
        <ele>739.6</ele>
        <time>2025-10-04T11:36:59Z</time>
      </trkpt>
      <trkpt lat="46.03063" lon="4.42564">
        <ele>739.2</ele>
        <time>2025-10-04T11:37:00Z</time>
      </trkpt>
      <trkpt lat="46.03061" lon="4.42563">
        <ele>739</ele>
        <time>2025-10-04T11:37:01Z</time>
      </trkpt>
      <trkpt lat="46.03059" lon="4.42558">
        <ele>739.2</ele>
        <time>2025-10-04T11:37:02Z</time>
      </trkpt>
      <trkpt lat="46.03057" lon="4.42554">
        <ele>739.2</ele>
        <time>2025-10-04T11:37:03Z</time>
      </trkpt>
      <trkpt lat="46.03054" lon="4.42549">
        <ele>739.2</ele>
        <time>2025-10-04T11:37:04Z</time>
      </trkpt>
      <trkpt lat="46.03051" lon="4.42547">
        <ele>739.2</ele>
        <time>2025-10-04T11:37:05Z</time>
      </trkpt>
      <trkpt lat="46.03047" lon="4.42544">
        <ele>739.6</ele>
        <time>2025-10-04T11:37:06Z</time>
      </trkpt>
      <trkpt lat="46.03042" lon="4.42541">
        <ele>739.6</ele>
        <time>2025-10-04T11:37:07Z</time>
      </trkpt>
      <trkpt lat="46.03037" lon="4.42538">
        <ele>739.6</ele>
        <time>2025-10-04T11:37:08Z</time>
      </trkpt>
      <trkpt lat="46.03033" lon="4.42535">
        <ele>739.8</ele>
        <time>2025-10-04T11:37:09Z</time>
      </trkpt>
      <trkpt lat="46.0303" lon="4.42533">
        <ele>739.8</ele>
        <time>2025-10-04T11:37:10Z</time>
      </trkpt>
      <trkpt lat="46.03028" lon="4.4253">
        <ele>741</ele>
        <time>2025-10-04T11:37:11Z</time>
      </trkpt>
      <trkpt lat="46.03024" lon="4.42528">
        <ele>741</ele>
        <time>2025-10-04T11:37:12Z</time>
      </trkpt>
      <trkpt lat="46.03021" lon="4.42525">
        <ele>741</ele>
        <time>2025-10-04T11:37:13Z</time>
      </trkpt>
      <trkpt lat="46.0302" lon="4.42524">
        <ele>741.2</ele>
        <time>2025-10-04T11:37:14Z</time>
      </trkpt>
      <trkpt lat="46.03018" lon="4.42521">
        <ele>741.2</ele>
        <time>2025-10-04T11:37:15Z</time>
      </trkpt>
      <trkpt lat="46.03016" lon="4.42519">
        <ele>741.2</ele>
        <time>2025-10-04T11:37:16Z</time>
      </trkpt>
      <trkpt lat="46.03012" lon="4.42516">
        <ele>741.6</ele>
        <time>2025-10-04T11:37:17Z</time>
      </trkpt>
      <trkpt lat="46.0301" lon="4.42515">
        <ele>741.6</ele>
        <time>2025-10-04T11:37:18Z</time>
      </trkpt>
      <trkpt lat="46.03009" lon="4.42514">
        <ele>741.6</ele>
        <time>2025-10-04T11:37:19Z</time>
      </trkpt>
      <trkpt lat="46.03007" lon="4.42512">
        <ele>741.8</ele>
        <time>2025-10-04T11:37:20Z</time>
      </trkpt>
      <trkpt lat="46.03004" lon="4.4251">
        <ele>742.2</ele>
        <time>2025-10-04T11:37:21Z</time>
      </trkpt>
      <trkpt lat="46.03003" lon="4.42509">
        <ele>742.2</ele>
        <time>2025-10-04T11:37:22Z</time>
      </trkpt>
      <trkpt lat="46.03001" lon="4.42508">
        <ele>742.2</ele>
        <time>2025-10-04T11:37:23Z</time>
      </trkpt>
      <trkpt lat="46.02999" lon="4.42506">
        <ele>742.4</ele>
        <time>2025-10-04T11:37:24Z</time>
      </trkpt>
      <trkpt lat="46.02996" lon="4.42506">
        <ele>742.4</ele>
        <time>2025-10-04T11:37:25Z</time>
      </trkpt>
      <trkpt lat="46.02994" lon="4.42504">
        <ele>742.4</ele>
        <time>2025-10-04T11:37:26Z</time>
      </trkpt>
      <trkpt lat="46.02992" lon="4.42503">
        <ele>742.4</ele>
        <time>2025-10-04T11:37:27Z</time>
      </trkpt>
      <trkpt lat="46.02989" lon="4.42502">
        <ele>743.4</ele>
        <time>2025-10-04T11:37:28Z</time>
      </trkpt>
      <trkpt lat="46.02987" lon="4.42501">
        <ele>743.4</ele>
        <time>2025-10-04T11:37:29Z</time>
      </trkpt>
      <trkpt lat="46.02984" lon="4.42499">
        <ele>743.4</ele>
        <time>2025-10-04T11:37:30Z</time>
      </trkpt>
      <trkpt lat="46.02981" lon="4.42498">
        <ele>743.4</ele>
        <time>2025-10-04T11:37:31Z</time>
      </trkpt>
      <trkpt lat="46.02978" lon="4.42496">
        <ele>743.6</ele>
        <time>2025-10-04T11:37:32Z</time>
      </trkpt>
      <trkpt lat="46.02976" lon="4.42494">
        <ele>743.6</ele>
        <time>2025-10-04T11:37:33Z</time>
      </trkpt>
      <trkpt lat="46.02973" lon="4.42493">
        <ele>743.6</ele>
        <time>2025-10-04T11:37:34Z</time>
      </trkpt>
      <trkpt lat="46.02971" lon="4.42491">
        <ele>744</ele>
        <time>2025-10-04T11:37:35Z</time>
      </trkpt>
      <trkpt lat="46.02968" lon="4.4249">
        <ele>744</ele>
        <time>2025-10-04T11:37:36Z</time>
      </trkpt>
      <trkpt lat="46.02965" lon="4.42489">
        <ele>744</ele>
        <time>2025-10-04T11:37:37Z</time>
      </trkpt>
      <trkpt lat="46.02962" lon="4.42488">
        <ele>744</ele>
        <time>2025-10-04T11:37:38Z</time>
      </trkpt>
      <trkpt lat="46.0296" lon="4.42487">
        <ele>744</ele>
        <time>2025-10-04T11:37:39Z</time>
      </trkpt>
      <trkpt lat="46.02956" lon="4.42487">
        <ele>744</ele>
        <time>2025-10-04T11:37:40Z</time>
      </trkpt>
      <trkpt lat="46.02952" lon="4.42486">
        <ele>744.2</ele>
        <time>2025-10-04T11:37:41Z</time>
      </trkpt>
      <trkpt lat="46.02949" lon="4.42486">
        <ele>744.2</ele>
        <time>2025-10-04T11:37:42Z</time>
      </trkpt>
      <trkpt lat="46.02946" lon="4.42485">
        <ele>744.2</ele>
        <time>2025-10-04T11:37:43Z</time>
      </trkpt>
      <trkpt lat="46.02943" lon="4.42484">
        <ele>744.2</ele>
        <time>2025-10-04T11:37:44Z</time>
      </trkpt>
      <trkpt lat="46.02939" lon="4.42483">
        <ele>744.2</ele>
        <time>2025-10-04T11:37:45Z</time>
      </trkpt>
      <trkpt lat="46.02935" lon="4.42482">
        <ele>744</ele>
        <time>2025-10-04T11:37:46Z</time>
      </trkpt>
      <trkpt lat="46.02932" lon="4.4248">
        <ele>743.8</ele>
        <time>2025-10-04T11:37:47Z</time>
      </trkpt>
      <trkpt lat="46.02929" lon="4.42479">
        <ele>743.8</ele>
        <time>2025-10-04T11:37:48Z</time>
      </trkpt>
      <trkpt lat="46.02926" lon="4.42479">
        <ele>744</ele>
        <time>2025-10-04T11:37:49Z</time>
      </trkpt>
      <trkpt lat="46.02923" lon="4.42478">
        <ele>744</ele>
        <time>2025-10-04T11:37:50Z</time>
      </trkpt>
      <trkpt lat="46.0292" lon="4.42477">
        <ele>744</ele>
        <time>2025-10-04T11:37:51Z</time>
      </trkpt>
      <trkpt lat="46.02917" lon="4.42476">
        <ele>744</ele>
        <time>2025-10-04T11:37:52Z</time>
      </trkpt>
      <trkpt lat="46.02913" lon="4.42474">
        <ele>743.6</ele>
        <time>2025-10-04T11:37:53Z</time>
      </trkpt>
      <trkpt lat="46.02909" lon="4.42473">
        <ele>743.6</ele>
        <time>2025-10-04T11:37:54Z</time>
      </trkpt>
      <trkpt lat="46.02906" lon="4.42472">
        <ele>743.4</ele>
        <time>2025-10-04T11:37:55Z</time>
      </trkpt>
      <trkpt lat="46.02903" lon="4.42471">
        <ele>743.4</ele>
        <time>2025-10-04T11:37:56Z</time>
      </trkpt>
      <trkpt lat="46.029" lon="4.42469">
        <ele>743.4</ele>
        <time>2025-10-04T11:37:57Z</time>
      </trkpt>
      <trkpt lat="46.02897" lon="4.42467">
        <ele>744.2</ele>
        <time>2025-10-04T11:37:58Z</time>
      </trkpt>
      <trkpt lat="46.02894" lon="4.42464">
        <ele>743.8</ele>
        <time>2025-10-04T11:37:59Z</time>
      </trkpt>
      <trkpt lat="46.02891" lon="4.42462">
        <ele>742.8</ele>
        <time>2025-10-04T11:38:00Z</time>
      </trkpt>
      <trkpt lat="46.02888" lon="4.42459">
        <ele>743</ele>
        <time>2025-10-04T11:38:01Z</time>
      </trkpt>
      <trkpt lat="46.02884" lon="4.42453">
        <ele>743</ele>
        <time>2025-10-04T11:38:02Z</time>
      </trkpt>
      <trkpt lat="46.02881" lon="4.42449">
        <ele>742.4</ele>
        <time>2025-10-04T11:38:03Z</time>
      </trkpt>
      <trkpt lat="46.02878" lon="4.42445">
        <ele>742.4</ele>
        <time>2025-10-04T11:38:04Z</time>
      </trkpt>
      <trkpt lat="46.02874" lon="4.42443">
        <ele>742.4</ele>
        <time>2025-10-04T11:38:05Z</time>
      </trkpt>
      <trkpt lat="46.0287" lon="4.42439">
        <ele>742.4</ele>
        <time>2025-10-04T11:38:06Z</time>
      </trkpt>
      <trkpt lat="46.02866" lon="4.42435">
        <ele>741.6</ele>
        <time>2025-10-04T11:38:07Z</time>
      </trkpt>
      <trkpt lat="46.02862" lon="4.42433">
        <ele>741.4</ele>
        <time>2025-10-04T11:38:08Z</time>
      </trkpt>
      <trkpt lat="46.02858" lon="4.42429">
        <ele>741.4</ele>
        <time>2025-10-04T11:38:09Z</time>
      </trkpt>
      <trkpt lat="46.02855" lon="4.42426">
        <ele>741.6</ele>
        <time>2025-10-04T11:38:10Z</time>
      </trkpt>
      <trkpt lat="46.02852" lon="4.42423">
        <ele>741.6</ele>
        <time>2025-10-04T11:38:11Z</time>
      </trkpt>
      <trkpt lat="46.02848" lon="4.4242">
        <ele>740.6</ele>
        <time>2025-10-04T11:38:12Z</time>
      </trkpt>
      <trkpt lat="46.02844" lon="4.42418">
        <ele>740.6</ele>
        <time>2025-10-04T11:38:13Z</time>
      </trkpt>
      <trkpt lat="46.02841" lon="4.42416">
        <ele>740.2</ele>
        <time>2025-10-04T11:38:14Z</time>
      </trkpt>
      <trkpt lat="46.02836" lon="4.42412">
        <ele>740.2</ele>
        <time>2025-10-04T11:38:15Z</time>
      </trkpt>
      <trkpt lat="46.02831" lon="4.42409">
        <ele>740.2</ele>
        <time>2025-10-04T11:38:16Z</time>
      </trkpt>
      <trkpt lat="46.02827" lon="4.42406">
        <ele>739.8</ele>
        <time>2025-10-04T11:38:17Z</time>
      </trkpt>
      <trkpt lat="46.02822" lon="4.42404">
        <ele>739.8</ele>
        <time>2025-10-04T11:38:18Z</time>
      </trkpt>
      <trkpt lat="46.02818" lon="4.424">
        <ele>739.8</ele>
        <time>2025-10-04T11:38:19Z</time>
      </trkpt>
      <trkpt lat="46.02813" lon="4.42397">
        <ele>739.8</ele>
        <time>2025-10-04T11:38:20Z</time>
      </trkpt>
      <trkpt lat="46.02808" lon="4.42396">
        <ele>739.2</ele>
        <time>2025-10-04T11:38:21Z</time>
      </trkpt>
      <trkpt lat="46.02803" lon="4.42393">
        <ele>739.2</ele>
        <time>2025-10-04T11:38:22Z</time>
      </trkpt>
      <trkpt lat="46.02799" lon="4.42391">
        <ele>739.2</ele>
        <time>2025-10-04T11:38:23Z</time>
      </trkpt>
      <trkpt lat="46.02795" lon="4.42389">
        <ele>739</ele>
        <time>2025-10-04T11:38:24Z</time>
      </trkpt>
      <trkpt lat="46.0279" lon="4.42387">
        <ele>739</ele>
        <time>2025-10-04T11:38:25Z</time>
      </trkpt>
      <trkpt lat="46.02785" lon="4.42385">
        <ele>738.6</ele>
        <time>2025-10-04T11:38:26Z</time>
      </trkpt>
      <trkpt lat="46.02779" lon="4.42384">
        <ele>738.4</ele>
        <time>2025-10-04T11:38:27Z</time>
      </trkpt>
      <trkpt lat="46.02774" lon="4.42382">
        <ele>737.8</ele>
        <time>2025-10-04T11:38:28Z</time>
      </trkpt>
      <trkpt lat="46.02769" lon="4.42381">
        <ele>737.8</ele>
        <time>2025-10-04T11:38:29Z</time>
      </trkpt>
      <trkpt lat="46.02764" lon="4.42381">
        <ele>737.4</ele>
        <time>2025-10-04T11:38:30Z</time>
      </trkpt>
      <trkpt lat="46.02761" lon="4.42379">
        <ele>737</ele>
        <time>2025-10-04T11:38:31Z</time>
      </trkpt>
      <trkpt lat="46.0276" lon="4.42378">
        <ele>737</ele>
        <time>2025-10-04T11:38:32Z</time>
      </trkpt>
      <trkpt lat="46.02759" lon="4.42378">
        <ele>737</ele>
        <time>2025-10-04T11:38:33Z</time>
      </trkpt>
      <trkpt lat="46.02758" lon="4.42377">
        <ele>737</ele>
        <time>2025-10-04T11:38:34Z</time>
      </trkpt>
      <trkpt lat="46.02758" lon="4.42378">
        <ele>737</ele>
        <time>2025-10-04T11:38:35Z</time>
      </trkpt>
      <trkpt lat="46.02758" lon="4.42378">
        <ele>737</ele>
        <time>2025-10-04T11:38:36Z</time>
      </trkpt>
      <trkpt lat="46.02759" lon="4.4238">
        <ele>736.8</ele>
        <time>2025-10-04T11:38:41Z</time>
      </trkpt>
      <trkpt lat="46.0276" lon="4.42381">
        <ele>736.8</ele>
        <time>2025-10-04T11:38:42Z</time>
      </trkpt>
      <trkpt lat="46.02759" lon="4.42381">
        <ele>736.8</ele>
        <time>2025-10-04T11:38:43Z</time>
      </trkpt>
      <trkpt lat="46.02756" lon="4.42382">
        <ele>737.2</ele>
        <time>2025-10-04T11:39:05Z</time>
      </trkpt>
      <trkpt lat="46.02755" lon="4.42383">
        <ele>737.4</ele>
        <time>2025-10-04T11:39:06Z</time>
      </trkpt>
      <trkpt lat="46.02753" lon="4.42383">
        <ele>737.4</ele>
        <time>2025-10-04T11:39:07Z</time>
      </trkpt>
      <trkpt lat="46.02751" lon="4.42382">
        <ele>737.4</ele>
        <time>2025-10-04T11:39:08Z</time>
      </trkpt>
      <trkpt lat="46.02748" lon="4.42382">
        <ele>737.4</ele>
        <time>2025-10-04T11:39:09Z</time>
      </trkpt>
      <trkpt lat="46.02744" lon="4.42382">
        <ele>737.4</ele>
        <time>2025-10-04T11:39:10Z</time>
      </trkpt>
      <trkpt lat="46.02741" lon="4.42382">
        <ele>737.2</ele>
        <time>2025-10-04T11:39:11Z</time>
      </trkpt>
      <trkpt lat="46.02738" lon="4.42383">
        <ele>737.2</ele>
        <time>2025-10-04T11:39:12Z</time>
      </trkpt>
      <trkpt lat="46.02734" lon="4.42383">
        <ele>736.8</ele>
        <time>2025-10-04T11:39:13Z</time>
      </trkpt>
      <trkpt lat="46.0273" lon="4.42384">
        <ele>736.8</ele>
        <time>2025-10-04T11:39:14Z</time>
      </trkpt>
      <trkpt lat="46.02727" lon="4.42384">
        <ele>737.2</ele>
        <time>2025-10-04T11:39:15Z</time>
      </trkpt>
      <trkpt lat="46.02724" lon="4.42383">
        <ele>737.2</ele>
        <time>2025-10-04T11:39:16Z</time>
      </trkpt>
      <trkpt lat="46.02721" lon="4.42382">
        <ele>737.6</ele>
        <time>2025-10-04T11:39:17Z</time>
      </trkpt>
      <trkpt lat="46.02718" lon="4.42381">
        <ele>737.6</ele>
        <time>2025-10-04T11:39:18Z</time>
      </trkpt>
      <trkpt lat="46.02714" lon="4.4238">
        <ele>737.6</ele>
        <time>2025-10-04T11:39:19Z</time>
      </trkpt>
      <trkpt lat="46.02711" lon="4.42379">
        <ele>737.6</ele>
        <time>2025-10-04T11:39:20Z</time>
      </trkpt>
      <trkpt lat="46.02708" lon="4.42378">
        <ele>737.6</ele>
        <time>2025-10-04T11:39:21Z</time>
      </trkpt>
      <trkpt lat="46.02705" lon="4.42378">
        <ele>738</ele>
        <time>2025-10-04T11:39:22Z</time>
      </trkpt>
      <trkpt lat="46.02702" lon="4.42377">
        <ele>738</ele>
        <time>2025-10-04T11:39:23Z</time>
      </trkpt>
      <trkpt lat="46.02699" lon="4.42377">
        <ele>738.2</ele>
        <time>2025-10-04T11:39:24Z</time>
      </trkpt>
      <trkpt lat="46.02696" lon="4.42377">
        <ele>738.2</ele>
        <time>2025-10-04T11:39:25Z</time>
      </trkpt>
      <trkpt lat="46.02694" lon="4.42377">
        <ele>738.2</ele>
        <time>2025-10-04T11:39:26Z</time>
      </trkpt>
      <trkpt lat="46.02692" lon="4.42377">
        <ele>738</ele>
        <time>2025-10-04T11:39:27Z</time>
      </trkpt>
      <trkpt lat="46.0269" lon="4.42377">
        <ele>738</ele>
        <time>2025-10-04T11:39:28Z</time>
      </trkpt>
      <trkpt lat="46.02689" lon="4.42377">
        <ele>738</ele>
        <time>2025-10-04T11:39:29Z</time>
      </trkpt>
      <trkpt lat="46.02688" lon="4.42378">
        <ele>738</ele>
        <time>2025-10-04T11:39:30Z</time>
      </trkpt>
      <trkpt lat="46.02687" lon="4.42378">
        <ele>738</ele>
        <time>2025-10-04T11:39:31Z</time>
      </trkpt>
      <trkpt lat="46.02687" lon="4.42378">
        <ele>738</ele>
        <time>2025-10-04T11:39:32Z</time>
      </trkpt>
      <trkpt lat="46.02687" lon="4.42378">
        <ele>738</ele>
        <time>2025-10-04T11:39:33Z</time>
      </trkpt>
      <trkpt lat="46.02686" lon="4.42377">
        <ele>737.6</ele>
        <time>2025-10-04T11:40:12Z</time>
      </trkpt>
      <trkpt lat="46.02684" lon="4.42378">
        <ele>737.6</ele>
        <time>2025-10-04T11:40:13Z</time>
      </trkpt>
      <trkpt lat="46.02682" lon="4.42379">
        <ele>738</ele>
        <time>2025-10-04T11:40:14Z</time>
      </trkpt>
      <trkpt lat="46.02679" lon="4.4238">
        <ele>738</ele>
        <time>2025-10-04T11:40:15Z</time>
      </trkpt>
      <trkpt lat="46.02676" lon="4.4238">
        <ele>738</ele>
        <time>2025-10-04T11:40:16Z</time>
      </trkpt>
      <trkpt lat="46.0267" lon="4.42383">
        <ele>738</ele>
        <time>2025-10-04T11:40:17Z</time>
      </trkpt>
      <trkpt lat="46.02666" lon="4.42384">
        <ele>737.4</ele>
        <time>2025-10-04T11:40:18Z</time>
      </trkpt>
      <trkpt lat="46.02662" lon="4.42386">
        <ele>737.4</ele>
        <time>2025-10-04T11:40:19Z</time>
      </trkpt>
      <trkpt lat="46.02658" lon="4.42387">
        <ele>737</ele>
        <time>2025-10-04T11:40:20Z</time>
      </trkpt>
      <trkpt lat="46.02655" lon="4.42389">
        <ele>737</ele>
        <time>2025-10-04T11:40:21Z</time>
      </trkpt>
      <trkpt lat="46.02651" lon="4.42391">
        <ele>736.8</ele>
        <time>2025-10-04T11:40:22Z</time>
      </trkpt>
      <trkpt lat="46.02647" lon="4.42394">
        <ele>736.8</ele>
        <time>2025-10-04T11:40:23Z</time>
      </trkpt>
      <trkpt lat="46.02643" lon="4.42397">
        <ele>736.8</ele>
        <time>2025-10-04T11:40:24Z</time>
      </trkpt>
      <trkpt lat="46.02639" lon="4.42401">
        <ele>736.2</ele>
        <time>2025-10-04T11:40:25Z</time>
      </trkpt>
      <trkpt lat="46.02635" lon="4.42404">
        <ele>736.2</ele>
        <time>2025-10-04T11:40:26Z</time>
      </trkpt>
      <trkpt lat="46.02632" lon="4.42407">
        <ele>736.2</ele>
        <time>2025-10-04T11:40:27Z</time>
      </trkpt>
      <trkpt lat="46.0263" lon="4.42408">
        <ele>736.2</ele>
        <time>2025-10-04T11:40:28Z</time>
      </trkpt>
      <trkpt lat="46.02627" lon="4.42409">
        <ele>736.2</ele>
        <time>2025-10-04T11:40:29Z</time>
      </trkpt>
      <trkpt lat="46.02625" lon="4.42408">
        <ele>736.2</ele>
        <time>2025-10-04T11:40:30Z</time>
      </trkpt>
      <trkpt lat="46.02622" lon="4.4241">
        <ele>736.2</ele>
        <time>2025-10-04T11:40:31Z</time>
      </trkpt>
      <trkpt lat="46.02622" lon="4.42412">
        <ele>736.2</ele>
        <time>2025-10-04T11:40:32Z</time>
      </trkpt>
      <trkpt lat="46.02621" lon="4.42413">
        <ele>736.2</ele>
        <time>2025-10-04T11:40:33Z</time>
      </trkpt>
      <trkpt lat="46.02621" lon="4.42413">
        <ele>736.2</ele>
        <time>2025-10-04T11:40:34Z</time>
      </trkpt>
      <trkpt lat="46.02621" lon="4.42413">
        <ele>736.2</ele>
        <time>2025-10-04T11:40:35Z</time>
      </trkpt>
      <trkpt lat="46.0262" lon="4.42414">
        <ele>736.2</ele>
        <time>2025-10-04T11:40:36Z</time>
      </trkpt>
      <trkpt lat="46.02616" lon="4.42416">
        <ele>736.4</ele>
        <time>2025-10-04T11:40:41Z</time>
      </trkpt>
      <trkpt lat="46.02615" lon="4.42416">
        <ele>736.4</ele>
        <time>2025-10-04T11:40:42Z</time>
      </trkpt>
      <trkpt lat="46.02615" lon="4.42416">
        <ele>736.4</ele>
        <time>2025-10-04T11:40:43Z</time>
      </trkpt>
      <trkpt lat="46.02616" lon="4.42416">
        <ele>736.4</ele>
        <time>2025-10-04T11:40:44Z</time>
      </trkpt>
      <trkpt lat="46.02617" lon="4.42416">
        <ele>736.4</ele>
        <time>2025-10-04T11:40:45Z</time>
      </trkpt>
      <trkpt lat="46.02617" lon="4.42415">
        <ele>736.4</ele>
        <time>2025-10-04T11:40:46Z</time>
      </trkpt>
      <trkpt lat="46.02628" lon="4.42417">
        <ele>736</ele>
        <time>2025-10-04T11:48:28Z</time>
      </trkpt>
      <trkpt lat="46.02627" lon="4.42417">
        <ele>736</ele>
        <time>2025-10-04T11:48:29Z</time>
      </trkpt>
      <trkpt lat="46.02627" lon="4.42417">
        <ele>736</ele>
        <time>2025-10-04T11:48:30Z</time>
      </trkpt>
      <trkpt lat="46.02624" lon="4.42415">
        <ele>736.2</ele>
        <time>2025-10-04T11:54:06Z</time>
      </trkpt>
      <trkpt lat="46.02624" lon="4.42416">
        <ele>736.2</ele>
        <time>2025-10-04T11:54:07Z</time>
      </trkpt>
      <trkpt lat="46.02623" lon="4.42416">
        <ele>736.2</ele>
        <time>2025-10-04T11:54:08Z</time>
      </trkpt>
      <trkpt lat="46.02623" lon="4.42417">
        <ele>736</ele>
        <time>2025-10-04T11:54:09Z</time>
      </trkpt>
      <trkpt lat="46.02623" lon="4.42419">
        <ele>735.8</ele>
        <time>2025-10-04T11:54:10Z</time>
      </trkpt>
      <trkpt lat="46.02623" lon="4.42421">
        <ele>735.8</ele>
        <time>2025-10-04T11:54:11Z</time>
      </trkpt>
      <trkpt lat="46.02622" lon="4.42424">
        <ele>735.8</ele>
        <time>2025-10-04T11:54:12Z</time>
      </trkpt>
      <trkpt lat="46.0262" lon="4.42427">
        <ele>735.8</ele>
        <time>2025-10-04T11:54:13Z</time>
      </trkpt>
      <trkpt lat="46.02619" lon="4.42431">
        <ele>735.8</ele>
        <time>2025-10-04T11:54:14Z</time>
      </trkpt>
      <trkpt lat="46.02617" lon="4.42434">
        <ele>735.8</ele>
        <time>2025-10-04T11:54:15Z</time>
      </trkpt>
      <trkpt lat="46.02615" lon="4.42436">
        <ele>735.8</ele>
        <time>2025-10-04T11:54:16Z</time>
      </trkpt>
      <trkpt lat="46.02612" lon="4.42439">
        <ele>735.8</ele>
        <time>2025-10-04T11:54:17Z</time>
      </trkpt>
      <trkpt lat="46.0261" lon="4.42442">
        <ele>735.2</ele>
        <time>2025-10-04T11:54:18Z</time>
      </trkpt>
      <trkpt lat="46.02607" lon="4.42446">
        <ele>735.6</ele>
        <time>2025-10-04T11:54:19Z</time>
      </trkpt>
      <trkpt lat="46.02604" lon="4.42449">
        <ele>735.6</ele>
        <time>2025-10-04T11:54:20Z</time>
      </trkpt>
      <trkpt lat="46.02596" lon="4.42455">
        <ele>735.2</ele>
        <time>2025-10-04T11:54:21Z</time>
      </trkpt>
      <trkpt lat="46.02603" lon="4.42449">
        <ele>735.2</ele>
        <time>2025-10-04T11:54:22Z</time>
      </trkpt>
      <trkpt lat="46.02602" lon="4.4245">
        <ele>734.8</ele>
        <time>2025-10-04T11:54:23Z</time>
      </trkpt>
      <trkpt lat="46.02598" lon="4.42455">
        <ele>734.8</ele>
        <time>2025-10-04T11:54:24Z</time>
      </trkpt>
      <trkpt lat="46.02596" lon="4.4246">
        <ele>734.8</ele>
        <time>2025-10-04T11:54:25Z</time>
      </trkpt>
      <trkpt lat="46.02592" lon="4.42466">
        <ele>734.8</ele>
        <time>2025-10-04T11:54:26Z</time>
      </trkpt>
      <trkpt lat="46.0259" lon="4.4247">
        <ele>734.8</ele>
        <time>2025-10-04T11:54:27Z</time>
      </trkpt>
      <trkpt lat="46.02584" lon="4.42473">
        <ele>734.8</ele>
        <time>2025-10-04T11:54:28Z</time>
      </trkpt>
      <trkpt lat="46.02584" lon="4.42476">
        <ele>734.8</ele>
        <time>2025-10-04T11:54:29Z</time>
      </trkpt>
      <trkpt lat="46.02581" lon="4.42479">
        <ele>734.8</ele>
        <time>2025-10-04T11:54:30Z</time>
      </trkpt>
      <trkpt lat="46.02578" lon="4.42482">
        <ele>734.8</ele>
        <time>2025-10-04T11:54:31Z</time>
      </trkpt>
      <trkpt lat="46.02567" lon="4.42489">
        <ele>734.8</ele>
        <time>2025-10-04T11:54:32Z</time>
      </trkpt>
      <trkpt lat="46.02566" lon="4.42491">
        <ele>734.8</ele>
        <time>2025-10-04T11:54:33Z</time>
      </trkpt>
      <trkpt lat="46.02562" lon="4.42494">
        <ele>734.8</ele>
        <time>2025-10-04T11:54:34Z</time>
      </trkpt>
      <trkpt lat="46.0256" lon="4.42498">
        <ele>734.8</ele>
        <time>2025-10-04T11:54:35Z</time>
      </trkpt>
      <trkpt lat="46.02555" lon="4.42505">
        <ele>734.8</ele>
        <time>2025-10-04T11:54:36Z</time>
      </trkpt>
      <trkpt lat="46.0255" lon="4.42509">
        <ele>734.8</ele>
        <time>2025-10-04T11:54:37Z</time>
      </trkpt>
      <trkpt lat="46.02546" lon="4.42513">
        <ele>734.6</ele>
        <time>2025-10-04T11:54:38Z</time>
      </trkpt>
      <trkpt lat="46.02542" lon="4.42517">
        <ele>734.6</ele>
        <time>2025-10-04T11:54:39Z</time>
      </trkpt>
      <trkpt lat="46.02538" lon="4.42519">
        <ele>735</ele>
        <time>2025-10-04T11:54:40Z</time>
      </trkpt>
      <trkpt lat="46.02531" lon="4.42523">
        <ele>735</ele>
        <time>2025-10-04T11:54:41Z</time>
      </trkpt>
      <trkpt lat="46.02526" lon="4.42526">
        <ele>735.4</ele>
        <time>2025-10-04T11:54:42Z</time>
      </trkpt>
      <trkpt lat="46.02523" lon="4.42529">
        <ele>735.8</ele>
        <time>2025-10-04T11:54:43Z</time>
      </trkpt>
      <trkpt lat="46.02519" lon="4.4253">
        <ele>735.8</ele>
        <time>2025-10-04T11:54:44Z</time>
      </trkpt>
      <trkpt lat="46.02516" lon="4.42533">
        <ele>735.8</ele>
        <time>2025-10-04T11:54:45Z</time>
      </trkpt>
      <trkpt lat="46.02514" lon="4.42535">
        <ele>736.4</ele>
        <time>2025-10-04T11:54:46Z</time>
      </trkpt>
      <trkpt lat="46.02512" lon="4.42537">
        <ele>736.4</ele>
        <time>2025-10-04T11:54:47Z</time>
      </trkpt>
      <trkpt lat="46.02509" lon="4.42539">
        <ele>736.4</ele>
        <time>2025-10-04T11:54:48Z</time>
      </trkpt>
      <trkpt lat="46.02508" lon="4.4254">
        <ele>736.8</ele>
        <time>2025-10-04T11:54:49Z</time>
      </trkpt>
      <trkpt lat="46.02507" lon="4.42541">
        <ele>737.2</ele>
        <time>2025-10-04T11:54:50Z</time>
      </trkpt>
      <trkpt lat="46.02507" lon="4.4254">
        <ele>737.2</ele>
        <time>2025-10-04T11:54:51Z</time>
      </trkpt>
      <trkpt lat="46.02505" lon="4.42542">
        <ele>737.2</ele>
        <time>2025-10-04T11:54:52Z</time>
      </trkpt>
      <trkpt lat="46.02503" lon="4.42545">
        <ele>737.4</ele>
        <time>2025-10-04T11:54:53Z</time>
      </trkpt>
      <trkpt lat="46.02501" lon="4.42547">
        <ele>738</ele>
        <time>2025-10-04T11:54:54Z</time>
      </trkpt>
      <trkpt lat="46.02501" lon="4.42547">
        <ele>738</ele>
        <time>2025-10-04T11:54:55Z</time>
      </trkpt>
      <trkpt lat="46.025" lon="4.42549">
        <ele>738.2</ele>
        <time>2025-10-04T11:54:56Z</time>
      </trkpt>
      <trkpt lat="46.02499" lon="4.42551">
        <ele>738.2</ele>
        <time>2025-10-04T11:54:57Z</time>
      </trkpt>
      <trkpt lat="46.02498" lon="4.42553">
        <ele>738.2</ele>
        <time>2025-10-04T11:54:58Z</time>
      </trkpt>
      <trkpt lat="46.02496" lon="4.42554">
        <ele>738.8</ele>
        <time>2025-10-04T11:54:59Z</time>
      </trkpt>
      <trkpt lat="46.02495" lon="4.42556">
        <ele>738.8</ele>
        <time>2025-10-04T11:55:00Z</time>
      </trkpt>
      <trkpt lat="46.02493" lon="4.42559">
        <ele>739</ele>
        <time>2025-10-04T11:55:01Z</time>
      </trkpt>
      <trkpt lat="46.02492" lon="4.42562">
        <ele>739</ele>
        <time>2025-10-04T11:55:02Z</time>
      </trkpt>
      <trkpt lat="46.0249" lon="4.42566">
        <ele>739.4</ele>
        <time>2025-10-04T11:55:03Z</time>
      </trkpt>
      <trkpt lat="46.02488" lon="4.42569">
        <ele>739.4</ele>
        <time>2025-10-04T11:55:04Z</time>
      </trkpt>
      <trkpt lat="46.02486" lon="4.42572">
        <ele>739.6</ele>
        <time>2025-10-04T11:55:05Z</time>
      </trkpt>
      <trkpt lat="46.02484" lon="4.42575">
        <ele>739.8</ele>
        <time>2025-10-04T11:55:06Z</time>
      </trkpt>
      <trkpt lat="46.02483" lon="4.42578">
        <ele>740</ele>
        <time>2025-10-04T11:55:07Z</time>
      </trkpt>
      <trkpt lat="46.02482" lon="4.4258">
        <ele>740</ele>
        <time>2025-10-04T11:55:08Z</time>
      </trkpt>
      <trkpt lat="46.0248" lon="4.42582">
        <ele>740.6</ele>
        <time>2025-10-04T11:55:09Z</time>
      </trkpt>
      <trkpt lat="46.02479" lon="4.42585">
        <ele>740.6</ele>
        <time>2025-10-04T11:55:10Z</time>
      </trkpt>
      <trkpt lat="46.02477" lon="4.42589">
        <ele>740.6</ele>
        <time>2025-10-04T11:55:11Z</time>
      </trkpt>
      <trkpt lat="46.02476" lon="4.42593">
        <ele>740.6</ele>
        <time>2025-10-04T11:55:12Z</time>
      </trkpt>
      <trkpt lat="46.02475" lon="4.42596">
        <ele>740.8</ele>
        <time>2025-10-04T11:55:13Z</time>
      </trkpt>
      <trkpt lat="46.02474" lon="4.42598">
        <ele>740.8</ele>
        <time>2025-10-04T11:55:14Z</time>
      </trkpt>
      <trkpt lat="46.02473" lon="4.426">
        <ele>741.4</ele>
        <time>2025-10-04T11:55:15Z</time>
      </trkpt>
      <trkpt lat="46.02472" lon="4.42602">
        <ele>741.4</ele>
        <time>2025-10-04T11:55:16Z</time>
      </trkpt>
      <trkpt lat="46.02472" lon="4.42603">
        <ele>741.8</ele>
        <time>2025-10-04T11:55:17Z</time>
      </trkpt>
      <trkpt lat="46.02472" lon="4.42604">
        <ele>741.8</ele>
        <time>2025-10-04T11:55:18Z</time>
      </trkpt>
      <trkpt lat="46.02471" lon="4.42607">
        <ele>742</ele>
        <time>2025-10-04T11:55:19Z</time>
      </trkpt>
      <trkpt lat="46.02471" lon="4.42609">
        <ele>742</ele>
        <time>2025-10-04T11:55:20Z</time>
      </trkpt>
      <trkpt lat="46.0247" lon="4.42612">
        <ele>742</ele>
        <time>2025-10-04T11:55:21Z</time>
      </trkpt>
      <trkpt lat="46.02468" lon="4.42615">
        <ele>742</ele>
        <time>2025-10-04T11:55:22Z</time>
      </trkpt>
      <trkpt lat="46.02466" lon="4.42618">
        <ele>742</ele>
        <time>2025-10-04T11:55:23Z</time>
      </trkpt>
      <trkpt lat="46.02464" lon="4.42622">
        <ele>742.2</ele>
        <time>2025-10-04T11:55:24Z</time>
      </trkpt>
      <trkpt lat="46.02463" lon="4.42626">
        <ele>742.2</ele>
        <time>2025-10-04T11:55:25Z</time>
      </trkpt>
      <trkpt lat="46.02461" lon="4.4263">
        <ele>742.8</ele>
        <time>2025-10-04T11:55:26Z</time>
      </trkpt>
      <trkpt lat="46.02458" lon="4.42634">
        <ele>742.8</ele>
        <time>2025-10-04T11:55:27Z</time>
      </trkpt>
      <trkpt lat="46.02456" lon="4.42638">
        <ele>743</ele>
        <time>2025-10-04T11:55:28Z</time>
      </trkpt>
      <trkpt lat="46.02454" lon="4.42642">
        <ele>742.8</ele>
        <time>2025-10-04T11:55:29Z</time>
      </trkpt>
      <trkpt lat="46.02452" lon="4.42646">
        <ele>742.8</ele>
        <time>2025-10-04T11:55:30Z</time>
      </trkpt>
      <trkpt lat="46.02451" lon="4.42649">
        <ele>743</ele>
        <time>2025-10-04T11:55:31Z</time>
      </trkpt>
      <trkpt lat="46.0245" lon="4.42652">
        <ele>742.8</ele>
        <time>2025-10-04T11:55:32Z</time>
      </trkpt>
      <trkpt lat="46.02448" lon="4.42656">
        <ele>742.8</ele>
        <time>2025-10-04T11:55:33Z</time>
      </trkpt>
      <trkpt lat="46.02447" lon="4.4266">
        <ele>742.6</ele>
        <time>2025-10-04T11:55:34Z</time>
      </trkpt>
      <trkpt lat="46.02445" lon="4.42664">
        <ele>742.6</ele>
        <time>2025-10-04T11:55:35Z</time>
      </trkpt>
      <trkpt lat="46.0244" lon="4.42672">
        <ele>742.2</ele>
        <time>2025-10-04T11:55:36Z</time>
      </trkpt>
      <trkpt lat="46.02437" lon="4.42675">
        <ele>742.2</ele>
        <time>2025-10-04T11:55:37Z</time>
      </trkpt>
      <trkpt lat="46.02431" lon="4.42679">
        <ele>742.2</ele>
        <time>2025-10-04T11:55:38Z</time>
      </trkpt>
      <trkpt lat="46.02428" lon="4.42684">
        <ele>742.2</ele>
        <time>2025-10-04T11:55:39Z</time>
      </trkpt>
      <trkpt lat="46.02425" lon="4.42688">
        <ele>742.2</ele>
        <time>2025-10-04T11:55:40Z</time>
      </trkpt>
      <trkpt lat="46.02423" lon="4.42691">
        <ele>742.6</ele>
        <time>2025-10-04T11:55:41Z</time>
      </trkpt>
      <trkpt lat="46.02419" lon="4.42693">
        <ele>742.8</ele>
        <time>2025-10-04T11:55:42Z</time>
      </trkpt>
      <trkpt lat="46.02415" lon="4.42696">
        <ele>742.8</ele>
        <time>2025-10-04T11:55:43Z</time>
      </trkpt>
      <trkpt lat="46.02413" lon="4.42698">
        <ele>742.4</ele>
        <time>2025-10-04T11:55:44Z</time>
      </trkpt>
      <trkpt lat="46.0241" lon="4.427">
        <ele>742.4</ele>
        <time>2025-10-04T11:55:45Z</time>
      </trkpt>
      <trkpt lat="46.02407" lon="4.42704">
        <ele>742.4</ele>
        <time>2025-10-04T11:55:46Z</time>
      </trkpt>
      <trkpt lat="46.02404" lon="4.42708">
        <ele>742.4</ele>
        <time>2025-10-04T11:55:47Z</time>
      </trkpt>
      <trkpt lat="46.02401" lon="4.42711">
        <ele>742.4</ele>
        <time>2025-10-04T11:55:48Z</time>
      </trkpt>
      <trkpt lat="46.02397" lon="4.42715">
        <ele>742.8</ele>
        <time>2025-10-04T11:55:49Z</time>
      </trkpt>
      <trkpt lat="46.02395" lon="4.42718">
        <ele>742.8</ele>
        <time>2025-10-04T11:55:50Z</time>
      </trkpt>
      <trkpt lat="46.02392" lon="4.4272">
        <ele>742</ele>
        <time>2025-10-04T11:55:51Z</time>
      </trkpt>
      <trkpt lat="46.0239" lon="4.42723">
        <ele>742.6</ele>
        <time>2025-10-04T11:55:52Z</time>
      </trkpt>
      <trkpt lat="46.02387" lon="4.42725">
        <ele>742.6</ele>
        <time>2025-10-04T11:55:53Z</time>
      </trkpt>
      <trkpt lat="46.02385" lon="4.42727">
        <ele>742.8</ele>
        <time>2025-10-04T11:55:54Z</time>
      </trkpt>
      <trkpt lat="46.02384" lon="4.42729">
        <ele>742.8</ele>
        <time>2025-10-04T11:55:55Z</time>
      </trkpt>
      <trkpt lat="46.02383" lon="4.4273">
        <ele>743.2</ele>
        <time>2025-10-04T11:55:56Z</time>
      </trkpt>
      <trkpt lat="46.02382" lon="4.42731">
        <ele>743.4</ele>
        <time>2025-10-04T11:55:57Z</time>
      </trkpt>
      <trkpt lat="46.02381" lon="4.42732">
        <ele>743.6</ele>
        <time>2025-10-04T11:55:58Z</time>
      </trkpt>
      <trkpt lat="46.0238" lon="4.42734">
        <ele>744</ele>
        <time>2025-10-04T11:55:59Z</time>
      </trkpt>
      <trkpt lat="46.02379" lon="4.42735">
        <ele>744.2</ele>
        <time>2025-10-04T11:56:00Z</time>
      </trkpt>
      <trkpt lat="46.02378" lon="4.42736">
        <ele>744.6</ele>
        <time>2025-10-04T11:56:01Z</time>
      </trkpt>
      <trkpt lat="46.02377" lon="4.42738">
        <ele>744.2</ele>
        <time>2025-10-04T11:56:02Z</time>
      </trkpt>
      <trkpt lat="46.02375" lon="4.42741">
        <ele>744.6</ele>
        <time>2025-10-04T11:56:03Z</time>
      </trkpt>
      <trkpt lat="46.02374" lon="4.42743">
        <ele>745</ele>
        <time>2025-10-04T11:56:04Z</time>
      </trkpt>
      <trkpt lat="46.02373" lon="4.42744">
        <ele>745.4</ele>
        <time>2025-10-04T11:56:05Z</time>
      </trkpt>
      <trkpt lat="46.02373" lon="4.42745">
        <ele>745.4</ele>
        <time>2025-10-04T11:56:06Z</time>
      </trkpt>
      <trkpt lat="46.02373" lon="4.42746">
        <ele>745.8</ele>
        <time>2025-10-04T11:56:07Z</time>
      </trkpt>
      <trkpt lat="46.02373" lon="4.42747">
        <ele>746</ele>
        <time>2025-10-04T11:56:08Z</time>
      </trkpt>
      <trkpt lat="46.02372" lon="4.42749">
        <ele>746</ele>
        <time>2025-10-04T11:56:09Z</time>
      </trkpt>
      <trkpt lat="46.02372" lon="4.42749">
        <ele>746.4</ele>
        <time>2025-10-04T11:56:10Z</time>
      </trkpt>
      <trkpt lat="46.02372" lon="4.42749">
        <ele>746.4</ele>
        <time>2025-10-04T11:56:11Z</time>
      </trkpt>
      <trkpt lat="46.0237" lon="4.4275">
        <ele>746.8</ele>
        <time>2025-10-04T11:56:12Z</time>
      </trkpt>
      <trkpt lat="46.02368" lon="4.4275">
        <ele>746.8</ele>
        <time>2025-10-04T11:56:13Z</time>
      </trkpt>
      <trkpt lat="46.02367" lon="4.42751">
        <ele>747.2</ele>
        <time>2025-10-04T11:56:14Z</time>
      </trkpt>
      <trkpt lat="46.02366" lon="4.42751">
        <ele>747.2</ele>
        <time>2025-10-04T11:56:15Z</time>
      </trkpt>
      <trkpt lat="46.02365" lon="4.42752">
        <ele>747.2</ele>
        <time>2025-10-04T11:56:16Z</time>
      </trkpt>
      <trkpt lat="46.02364" lon="4.42754">
        <ele>747.6</ele>
        <time>2025-10-04T11:56:17Z</time>
      </trkpt>
      <trkpt lat="46.02362" lon="4.42755">
        <ele>747.6</ele>
        <time>2025-10-04T11:56:18Z</time>
      </trkpt>
      <trkpt lat="46.0236" lon="4.42756">
        <ele>747.6</ele>
        <time>2025-10-04T11:56:19Z</time>
      </trkpt>
      <trkpt lat="46.02358" lon="4.42758">
        <ele>747.8</ele>
        <time>2025-10-04T11:56:20Z</time>
      </trkpt>
      <trkpt lat="46.02356" lon="4.4276">
        <ele>747.8</ele>
        <time>2025-10-04T11:56:21Z</time>
      </trkpt>
      <trkpt lat="46.02354" lon="4.42762">
        <ele>748</ele>
        <time>2025-10-04T11:56:22Z</time>
      </trkpt>
      <trkpt lat="46.02352" lon="4.42764">
        <ele>748</ele>
        <time>2025-10-04T11:56:23Z</time>
      </trkpt>
      <trkpt lat="46.0235" lon="4.42766">
        <ele>748.4</ele>
        <time>2025-10-04T11:56:24Z</time>
      </trkpt>
      <trkpt lat="46.02349" lon="4.42767">
        <ele>748.4</ele>
        <time>2025-10-04T11:56:25Z</time>
      </trkpt>
      <trkpt lat="46.02347" lon="4.42769">
        <ele>748.8</ele>
        <time>2025-10-04T11:56:26Z</time>
      </trkpt>
      <trkpt lat="46.02345" lon="4.42772">
        <ele>749.2</ele>
        <time>2025-10-04T11:56:27Z</time>
      </trkpt>
      <trkpt lat="46.02343" lon="4.42775">
        <ele>749.2</ele>
        <time>2025-10-04T11:56:28Z</time>
      </trkpt>
      <trkpt lat="46.02341" lon="4.42777">
        <ele>749.4</ele>
        <time>2025-10-04T11:56:29Z</time>
      </trkpt>
      <trkpt lat="46.0234" lon="4.42777">
        <ele>749.4</ele>
        <time>2025-10-04T11:56:30Z</time>
      </trkpt>
      <trkpt lat="46.0234" lon="4.42778">
        <ele>749.8</ele>
        <time>2025-10-04T11:56:31Z</time>
      </trkpt>
      <trkpt lat="46.0234" lon="4.42778">
        <ele>749.8</ele>
        <time>2025-10-04T11:56:32Z</time>
      </trkpt>
      <trkpt lat="46.02339" lon="4.42779">
        <ele>750.2</ele>
        <time>2025-10-04T11:56:33Z</time>
      </trkpt>
      <trkpt lat="46.02337" lon="4.42781">
        <ele>750.2</ele>
        <time>2025-10-04T11:56:34Z</time>
      </trkpt>
      <trkpt lat="46.02336" lon="4.42782">
        <ele>750.4</ele>
        <time>2025-10-04T11:56:35Z</time>
      </trkpt>
      <trkpt lat="46.02334" lon="4.42784">
        <ele>750.4</ele>
        <time>2025-10-04T11:56:36Z</time>
      </trkpt>
      <trkpt lat="46.02332" lon="4.42786">
        <ele>751</ele>
        <time>2025-10-04T11:56:37Z</time>
      </trkpt>
      <trkpt lat="46.0233" lon="4.42788">
        <ele>751.2</ele>
        <time>2025-10-04T11:56:38Z</time>
      </trkpt>
      <trkpt lat="46.02328" lon="4.4279">
        <ele>751.2</ele>
        <time>2025-10-04T11:56:39Z</time>
      </trkpt>
      <trkpt lat="46.02326" lon="4.42791">
        <ele>751.4</ele>
        <time>2025-10-04T11:56:40Z</time>
      </trkpt>
      <trkpt lat="46.02324" lon="4.42792">
        <ele>751.4</ele>
        <time>2025-10-04T11:56:41Z</time>
      </trkpt>
      <trkpt lat="46.02322" lon="4.42793">
        <ele>751.8</ele>
        <time>2025-10-04T11:56:42Z</time>
      </trkpt>
      <trkpt lat="46.0232" lon="4.42793">
        <ele>751.8</ele>
        <time>2025-10-04T11:56:43Z</time>
      </trkpt>
      <trkpt lat="46.02318" lon="4.42794">
        <ele>751.8</ele>
        <time>2025-10-04T11:56:44Z</time>
      </trkpt>
      <trkpt lat="46.02316" lon="4.42795">
        <ele>752</ele>
        <time>2025-10-04T11:56:45Z</time>
      </trkpt>
      <trkpt lat="46.02314" lon="4.42796">
        <ele>752.2</ele>
        <time>2025-10-04T11:56:46Z</time>
      </trkpt>
      <trkpt lat="46.02313" lon="4.42796">
        <ele>752.2</ele>
        <time>2025-10-04T11:56:47Z</time>
      </trkpt>
      <trkpt lat="46.02311" lon="4.42797">
        <ele>752.6</ele>
        <time>2025-10-04T11:56:48Z</time>
      </trkpt>
      <trkpt lat="46.02309" lon="4.42797">
        <ele>752.6</ele>
        <time>2025-10-04T11:56:49Z</time>
      </trkpt>
      <trkpt lat="46.02307" lon="4.42798">
        <ele>753</ele>
        <time>2025-10-04T11:56:50Z</time>
      </trkpt>
      <trkpt lat="46.02306" lon="4.42798">
        <ele>753</ele>
        <time>2025-10-04T11:56:51Z</time>
      </trkpt>
      <trkpt lat="46.02305" lon="4.42798">
        <ele>753</ele>
        <time>2025-10-04T11:56:52Z</time>
      </trkpt>
      <trkpt lat="46.02303" lon="4.42797">
        <ele>753.4</ele>
        <time>2025-10-04T11:56:53Z</time>
      </trkpt>
      <trkpt lat="46.02301" lon="4.42795">
        <ele>753.4</ele>
        <time>2025-10-04T11:56:54Z</time>
      </trkpt>
      <trkpt lat="46.023" lon="4.42795">
        <ele>753.8</ele>
        <time>2025-10-04T11:56:55Z</time>
      </trkpt>
      <trkpt lat="46.02299" lon="4.42795">
        <ele>753.8</ele>
        <time>2025-10-04T11:56:56Z</time>
      </trkpt>
      <trkpt lat="46.02298" lon="4.42796">
        <ele>753.8</ele>
        <time>2025-10-04T11:56:57Z</time>
      </trkpt>
      <trkpt lat="46.02295" lon="4.42796">
        <ele>754</ele>
        <time>2025-10-04T11:56:58Z</time>
      </trkpt>
      <trkpt lat="46.02293" lon="4.42797">
        <ele>754</ele>
        <time>2025-10-04T11:56:59Z</time>
      </trkpt>
      <trkpt lat="46.02291" lon="4.42797">
        <ele>754.6</ele>
        <time>2025-10-04T11:57:00Z</time>
      </trkpt>
      <trkpt lat="46.0229" lon="4.42797">
        <ele>754.6</ele>
        <time>2025-10-04T11:57:01Z</time>
      </trkpt>
      <trkpt lat="46.0229" lon="4.42797">
        <ele>754.6</ele>
        <time>2025-10-04T11:57:02Z</time>
      </trkpt>
      <trkpt lat="46.02288" lon="4.42797">
        <ele>754.6</ele>
        <time>2025-10-04T11:57:03Z</time>
      </trkpt>
      <trkpt lat="46.02287" lon="4.42797">
        <ele>755</ele>
        <time>2025-10-04T11:57:04Z</time>
      </trkpt>
      <trkpt lat="46.02285" lon="4.42797">
        <ele>755</ele>
        <time>2025-10-04T11:57:05Z</time>
      </trkpt>
      <trkpt lat="46.02282" lon="4.42797">
        <ele>754.6</ele>
        <time>2025-10-04T11:57:06Z</time>
      </trkpt>
      <trkpt lat="46.02281" lon="4.42798">
        <ele>754.6</ele>
        <time>2025-10-04T11:57:07Z</time>
      </trkpt>
      <trkpt lat="46.02279" lon="4.42798">
        <ele>754.6</ele>
        <time>2025-10-04T11:57:08Z</time>
      </trkpt>
      <trkpt lat="46.02276" lon="4.42798">
        <ele>754.8</ele>
        <time>2025-10-04T11:57:09Z</time>
      </trkpt>
      <trkpt lat="46.02273" lon="4.42798">
        <ele>755.2</ele>
        <time>2025-10-04T11:57:10Z</time>
      </trkpt>
      <trkpt lat="46.0227" lon="4.42798">
        <ele>755.2</ele>
        <time>2025-10-04T11:57:11Z</time>
      </trkpt>
      <trkpt lat="46.02267" lon="4.42798">
        <ele>755.2</ele>
        <time>2025-10-04T11:57:12Z</time>
      </trkpt>
      <trkpt lat="46.02264" lon="4.42798">
        <ele>755.2</ele>
        <time>2025-10-04T11:57:13Z</time>
      </trkpt>
      <trkpt lat="46.02261" lon="4.42797">
        <ele>755.2</ele>
        <time>2025-10-04T11:57:14Z</time>
      </trkpt>
      <trkpt lat="46.02258" lon="4.42796">
        <ele>755.4</ele>
        <time>2025-10-04T11:57:15Z</time>
      </trkpt>
      <trkpt lat="46.02256" lon="4.42795">
        <ele>755.4</ele>
        <time>2025-10-04T11:57:16Z</time>
      </trkpt>
      <trkpt lat="46.02254" lon="4.42793">
        <ele>755.8</ele>
        <time>2025-10-04T11:57:17Z</time>
      </trkpt>
      <trkpt lat="46.02251" lon="4.42791">
        <ele>755.8</ele>
        <time>2025-10-04T11:57:18Z</time>
      </trkpt>
      <trkpt lat="46.02248" lon="4.42789">
        <ele>755.8</ele>
        <time>2025-10-04T11:57:19Z</time>
      </trkpt>
      <trkpt lat="46.02245" lon="4.42788">
        <ele>755.8</ele>
        <time>2025-10-04T11:57:20Z</time>
      </trkpt>
      <trkpt lat="46.02242" lon="4.42787">
        <ele>756</ele>
        <time>2025-10-04T11:57:21Z</time>
      </trkpt>
      <trkpt lat="46.02239" lon="4.42785">
        <ele>756</ele>
        <time>2025-10-04T11:57:22Z</time>
      </trkpt>
      <trkpt lat="46.02236" lon="4.42784">
        <ele>756</ele>
        <time>2025-10-04T11:57:23Z</time>
      </trkpt>
      <trkpt lat="46.02233" lon="4.42783">
        <ele>756</ele>
        <time>2025-10-04T11:57:24Z</time>
      </trkpt>
      <trkpt lat="46.0223" lon="4.42782">
        <ele>756</ele>
        <time>2025-10-04T11:57:25Z</time>
      </trkpt>
      <trkpt lat="46.02228" lon="4.42782">
        <ele>756</ele>
        <time>2025-10-04T11:57:26Z</time>
      </trkpt>
      <trkpt lat="46.02225" lon="4.42781">
        <ele>756</ele>
        <time>2025-10-04T11:57:27Z</time>
      </trkpt>
      <trkpt lat="46.02222" lon="4.42781">
        <ele>756</ele>
        <time>2025-10-04T11:57:28Z</time>
      </trkpt>
      <trkpt lat="46.02218" lon="4.4278">
        <ele>756.4</ele>
        <time>2025-10-04T11:57:29Z</time>
      </trkpt>
      <trkpt lat="46.02216" lon="4.42778">
        <ele>756.8</ele>
        <time>2025-10-04T11:57:30Z</time>
      </trkpt>
      <trkpt lat="46.02213" lon="4.42776">
        <ele>757.2</ele>
        <time>2025-10-04T11:57:31Z</time>
      </trkpt>
      <trkpt lat="46.0221" lon="4.42773">
        <ele>757.2</ele>
        <time>2025-10-04T11:57:32Z</time>
      </trkpt>
      <trkpt lat="46.02207" lon="4.42771">
        <ele>757.2</ele>
        <time>2025-10-04T11:57:33Z</time>
      </trkpt>
      <trkpt lat="46.02205" lon="4.4277">
        <ele>757.4</ele>
        <time>2025-10-04T11:57:34Z</time>
      </trkpt>
      <trkpt lat="46.02203" lon="4.42768">
        <ele>757.4</ele>
        <time>2025-10-04T11:57:35Z</time>
      </trkpt>
      <trkpt lat="46.02201" lon="4.42767">
        <ele>757.4</ele>
        <time>2025-10-04T11:57:36Z</time>
      </trkpt>
      <trkpt lat="46.02198" lon="4.42766">
        <ele>757.6</ele>
        <time>2025-10-04T11:57:37Z</time>
      </trkpt>
      <trkpt lat="46.02196" lon="4.42765">
        <ele>757.6</ele>
        <time>2025-10-04T11:57:38Z</time>
      </trkpt>
      <trkpt lat="46.02194" lon="4.42764">
        <ele>758</ele>
        <time>2025-10-04T11:57:39Z</time>
      </trkpt>
      <trkpt lat="46.02191" lon="4.42763">
        <ele>758.2</ele>
        <time>2025-10-04T11:57:40Z</time>
      </trkpt>
      <trkpt lat="46.02189" lon="4.42763">
        <ele>758.2</ele>
        <time>2025-10-04T11:57:41Z</time>
      </trkpt>
      <trkpt lat="46.02187" lon="4.42763">
        <ele>758.6</ele>
        <time>2025-10-04T11:57:42Z</time>
      </trkpt>
      <trkpt lat="46.02185" lon="4.42763">
        <ele>758.6</ele>
        <time>2025-10-04T11:57:43Z</time>
      </trkpt>
      <trkpt lat="46.02184" lon="4.42763">
        <ele>759</ele>
        <time>2025-10-04T11:57:44Z</time>
      </trkpt>
      <trkpt lat="46.02182" lon="4.42762">
        <ele>759</ele>
        <time>2025-10-04T11:57:45Z</time>
      </trkpt>
      <trkpt lat="46.0218" lon="4.4276">
        <ele>759.4</ele>
        <time>2025-10-04T11:57:46Z</time>
      </trkpt>
      <trkpt lat="46.02178" lon="4.42758">
        <ele>759.6</ele>
        <time>2025-10-04T11:57:47Z</time>
      </trkpt>
      <trkpt lat="46.02177" lon="4.42756">
        <ele>759.8</ele>
        <time>2025-10-04T11:57:48Z</time>
      </trkpt>
      <trkpt lat="46.02175" lon="4.42754">
        <ele>759.8</ele>
        <time>2025-10-04T11:57:49Z</time>
      </trkpt>
      <trkpt lat="46.02173" lon="4.42752">
        <ele>760</ele>
        <time>2025-10-04T11:57:50Z</time>
      </trkpt>
      <trkpt lat="46.02171" lon="4.4275">
        <ele>760</ele>
        <time>2025-10-04T11:57:51Z</time>
      </trkpt>
      <trkpt lat="46.02167" lon="4.42748">
        <ele>760</ele>
        <time>2025-10-04T11:57:52Z</time>
      </trkpt>
      <trkpt lat="46.02165" lon="4.42747">
        <ele>760</ele>
        <time>2025-10-04T11:57:53Z</time>
      </trkpt>
      <trkpt lat="46.02163" lon="4.42746">
        <ele>760.2</ele>
        <time>2025-10-04T11:57:54Z</time>
      </trkpt>
      <trkpt lat="46.02161" lon="4.42745">
        <ele>760.2</ele>
        <time>2025-10-04T11:57:55Z</time>
      </trkpt>
      <trkpt lat="46.02158" lon="4.42743">
        <ele>760.2</ele>
        <time>2025-10-04T11:57:56Z</time>
      </trkpt>
      <trkpt lat="46.02156" lon="4.42742">
        <ele>760.2</ele>
        <time>2025-10-04T11:57:57Z</time>
      </trkpt>
      <trkpt lat="46.02153" lon="4.42741">
        <ele>760.2</ele>
        <time>2025-10-04T11:57:58Z</time>
      </trkpt>
      <trkpt lat="46.0215" lon="4.4274">
        <ele>760.6</ele>
        <time>2025-10-04T11:57:59Z</time>
      </trkpt>
      <trkpt lat="46.02148" lon="4.42739">
        <ele>760.6</ele>
        <time>2025-10-04T11:58:00Z</time>
      </trkpt>
      <trkpt lat="46.02146" lon="4.42739">
        <ele>760.6</ele>
        <time>2025-10-04T11:58:01Z</time>
      </trkpt>
      <trkpt lat="46.02143" lon="4.42738">
        <ele>760.6</ele>
        <time>2025-10-04T11:58:02Z</time>
      </trkpt>
      <trkpt lat="46.0214" lon="4.42738">
        <ele>760.8</ele>
        <time>2025-10-04T11:58:03Z</time>
      </trkpt>
      <trkpt lat="46.02138" lon="4.42737">
        <ele>761</ele>
        <time>2025-10-04T11:58:04Z</time>
      </trkpt>
      <trkpt lat="46.02135" lon="4.42736">
        <ele>761</ele>
        <time>2025-10-04T11:58:05Z</time>
      </trkpt>
      <trkpt lat="46.02131" lon="4.42736">
        <ele>761.4</ele>
        <time>2025-10-04T11:58:06Z</time>
      </trkpt>
      <trkpt lat="46.02128" lon="4.42735">
        <ele>761.4</ele>
        <time>2025-10-04T11:58:07Z</time>
      </trkpt>
      <trkpt lat="46.02124" lon="4.42735">
        <ele>761.4</ele>
        <time>2025-10-04T11:58:08Z</time>
      </trkpt>
      <trkpt lat="46.02121" lon="4.42734">
        <ele>761.4</ele>
        <time>2025-10-04T11:58:09Z</time>
      </trkpt>
      <trkpt lat="46.02119" lon="4.42733">
        <ele>761.4</ele>
        <time>2025-10-04T11:58:10Z</time>
      </trkpt>
      <trkpt lat="46.02116" lon="4.42731">
        <ele>761.4</ele>
        <time>2025-10-04T11:58:11Z</time>
      </trkpt>
      <trkpt lat="46.02113" lon="4.4273">
        <ele>761.4</ele>
        <time>2025-10-04T11:58:12Z</time>
      </trkpt>
      <trkpt lat="46.02111" lon="4.42729">
        <ele>761.4</ele>
        <time>2025-10-04T11:58:13Z</time>
      </trkpt>
      <trkpt lat="46.02108" lon="4.42727">
        <ele>761.6</ele>
        <time>2025-10-04T11:58:14Z</time>
      </trkpt>
      <trkpt lat="46.02106" lon="4.42723">
        <ele>761.6</ele>
        <time>2025-10-04T11:58:15Z</time>
      </trkpt>
      <trkpt lat="46.02104" lon="4.42719">
        <ele>761.6</ele>
        <time>2025-10-04T11:58:16Z</time>
      </trkpt>
      <trkpt lat="46.021" lon="4.42716">
        <ele>761.6</ele>
        <time>2025-10-04T11:58:17Z</time>
      </trkpt>
      <trkpt lat="46.02097" lon="4.42713">
        <ele>761.6</ele>
        <time>2025-10-04T11:58:18Z</time>
      </trkpt>
      <trkpt lat="46.02093" lon="4.42711">
        <ele>761.2</ele>
        <time>2025-10-04T11:58:19Z</time>
      </trkpt>
      <trkpt lat="46.02088" lon="4.42704">
        <ele>761.4</ele>
        <time>2025-10-04T11:58:20Z</time>
      </trkpt>
      <trkpt lat="46.02084" lon="4.42702">
        <ele>761.4</ele>
        <time>2025-10-04T11:58:21Z</time>
      </trkpt>
      <trkpt lat="46.02084" lon="4.42702">
        <ele>761.4</ele>
        <time>2025-10-04T11:58:22Z</time>
      </trkpt>
      <trkpt lat="46.0208" lon="4.42699">
        <ele>761.4</ele>
        <time>2025-10-04T11:58:23Z</time>
      </trkpt>
      <trkpt lat="46.02075" lon="4.42696">
        <ele>761.2</ele>
        <time>2025-10-04T11:58:24Z</time>
      </trkpt>
      <trkpt lat="46.02072" lon="4.42694">
        <ele>760.8</ele>
        <time>2025-10-04T11:58:25Z</time>
      </trkpt>
      <trkpt lat="46.02068" lon="4.42692">
        <ele>760.4</ele>
        <time>2025-10-04T11:58:26Z</time>
      </trkpt>
      <trkpt lat="46.02061" lon="4.42689">
        <ele>760.2</ele>
        <time>2025-10-04T11:58:27Z</time>
      </trkpt>
      <trkpt lat="46.02056" lon="4.42689">
        <ele>760.2</ele>
        <time>2025-10-04T11:58:28Z</time>
      </trkpt>
      <trkpt lat="46.02052" lon="4.42688">
        <ele>760.2</ele>
        <time>2025-10-04T11:58:29Z</time>
      </trkpt>
      <trkpt lat="46.02048" lon="4.42686">
        <ele>759.8</ele>
        <time>2025-10-04T11:58:30Z</time>
      </trkpt>
      <trkpt lat="46.02041" lon="4.42688">
        <ele>759</ele>
        <time>2025-10-04T11:58:31Z</time>
      </trkpt>
      <trkpt lat="46.02036" lon="4.42686">
        <ele>759.4</ele>
        <time>2025-10-04T11:58:32Z</time>
      </trkpt>
      <trkpt lat="46.02031" lon="4.42686">
        <ele>759.8</ele>
        <time>2025-10-04T11:58:33Z</time>
      </trkpt>
      <trkpt lat="46.02026" lon="4.42685">
        <ele>759.8</ele>
        <time>2025-10-04T11:58:34Z</time>
      </trkpt>
      <trkpt lat="46.02025" lon="4.42679">
        <ele>760.2</ele>
        <time>2025-10-04T11:58:35Z</time>
      </trkpt>
      <trkpt lat="46.02021" lon="4.42677">
        <ele>760.6</ele>
        <time>2025-10-04T11:58:36Z</time>
      </trkpt>
      <trkpt lat="46.02017" lon="4.42678">
        <ele>760.2</ele>
        <time>2025-10-04T11:58:37Z</time>
      </trkpt>
      <trkpt lat="46.02014" lon="4.42676">
        <ele>760.6</ele>
        <time>2025-10-04T11:58:38Z</time>
      </trkpt>
      <trkpt lat="46.0201" lon="4.42675">
        <ele>760.8</ele>
        <time>2025-10-04T11:58:39Z</time>
      </trkpt>
      <trkpt lat="46.02008" lon="4.42672">
        <ele>761</ele>
        <time>2025-10-04T11:58:40Z</time>
      </trkpt>
      <trkpt lat="46.02006" lon="4.42672">
        <ele>761.2</ele>
        <time>2025-10-04T11:58:41Z</time>
      </trkpt>
      <trkpt lat="46.02002" lon="4.42672">
        <ele>761.6</ele>
        <time>2025-10-04T11:58:42Z</time>
      </trkpt>
      <trkpt lat="46.01999" lon="4.42671">
        <ele>761.6</ele>
        <time>2025-10-04T11:58:43Z</time>
      </trkpt>
      <trkpt lat="46.01996" lon="4.42671">
        <ele>761.6</ele>
        <time>2025-10-04T11:58:44Z</time>
      </trkpt>
      <trkpt lat="46.01992" lon="4.42671">
        <ele>761.6</ele>
        <time>2025-10-04T11:58:45Z</time>
      </trkpt>
      <trkpt lat="46.01988" lon="4.42672">
        <ele>761.8</ele>
        <time>2025-10-04T11:58:46Z</time>
      </trkpt>
      <trkpt lat="46.01984" lon="4.42673">
        <ele>762.2</ele>
        <time>2025-10-04T11:58:47Z</time>
      </trkpt>
      <trkpt lat="46.01981" lon="4.42673">
        <ele>761.4</ele>
        <time>2025-10-04T11:58:48Z</time>
      </trkpt>
      <trkpt lat="46.01978" lon="4.42673">
        <ele>762</ele>
        <time>2025-10-04T11:58:49Z</time>
      </trkpt>
      <trkpt lat="46.01975" lon="4.42674">
        <ele>762.4</ele>
        <time>2025-10-04T11:58:50Z</time>
      </trkpt>
      <trkpt lat="46.01971" lon="4.42675">
        <ele>762.4</ele>
        <time>2025-10-04T11:58:51Z</time>
      </trkpt>
      <trkpt lat="46.01968" lon="4.42677">
        <ele>762.4</ele>
        <time>2025-10-04T11:58:52Z</time>
      </trkpt>
      <trkpt lat="46.01966" lon="4.42679">
        <ele>762.8</ele>
        <time>2025-10-04T11:58:53Z</time>
      </trkpt>
      <trkpt lat="46.01964" lon="4.42682">
        <ele>762.8</ele>
        <time>2025-10-04T11:58:54Z</time>
      </trkpt>
      <trkpt lat="46.01959" lon="4.42687">
        <ele>763.2</ele>
        <time>2025-10-04T11:58:55Z</time>
      </trkpt>
      <trkpt lat="46.01957" lon="4.42689">
        <ele>763.6</ele>
        <time>2025-10-04T11:58:56Z</time>
      </trkpt>
      <trkpt lat="46.01955" lon="4.42691">
        <ele>763.6</ele>
        <time>2025-10-04T11:58:57Z</time>
      </trkpt>
      <trkpt lat="46.01953" lon="4.42692">
        <ele>764</ele>
        <time>2025-10-04T11:58:58Z</time>
      </trkpt>
      <trkpt lat="46.01951" lon="4.42694">
        <ele>764</ele>
        <time>2025-10-04T11:58:59Z</time>
      </trkpt>
      <trkpt lat="46.01949" lon="4.42695">
        <ele>764.4</ele>
        <time>2025-10-04T11:59:00Z</time>
      </trkpt>
      <trkpt lat="46.01947" lon="4.42697">
        <ele>764.4</ele>
        <time>2025-10-04T11:59:01Z</time>
      </trkpt>
      <trkpt lat="46.01946" lon="4.42699">
        <ele>764.8</ele>
        <time>2025-10-04T11:59:02Z</time>
      </trkpt>
      <trkpt lat="46.01944" lon="4.42701">
        <ele>764.8</ele>
        <time>2025-10-04T11:59:03Z</time>
      </trkpt>
      <trkpt lat="46.01943" lon="4.42703">
        <ele>765</ele>
        <time>2025-10-04T11:59:04Z</time>
      </trkpt>
      <trkpt lat="46.01942" lon="4.42704">
        <ele>765.2</ele>
        <time>2025-10-04T11:59:05Z</time>
      </trkpt>
      <trkpt lat="46.0194" lon="4.42706">
        <ele>765.6</ele>
        <time>2025-10-04T11:59:06Z</time>
      </trkpt>
      <trkpt lat="46.01939" lon="4.42707">
        <ele>766</ele>
        <time>2025-10-04T11:59:07Z</time>
      </trkpt>
      <trkpt lat="46.01937" lon="4.42708">
        <ele>766.2</ele>
        <time>2025-10-04T11:59:08Z</time>
      </trkpt>
      <trkpt lat="46.01937" lon="4.42709">
        <ele>767</ele>
        <time>2025-10-04T11:59:09Z</time>
      </trkpt>
      <trkpt lat="46.01937" lon="4.4271">
        <ele>767</ele>
        <time>2025-10-04T11:59:10Z</time>
      </trkpt>
      <trkpt lat="46.01937" lon="4.42709">
        <ele>767</ele>
        <time>2025-10-04T11:59:11Z</time>
      </trkpt>
      <trkpt lat="46.01938" lon="4.4271">
        <ele>767</ele>
        <time>2025-10-04T11:59:16Z</time>
      </trkpt>
      <trkpt lat="46.01938" lon="4.4271">
        <ele>767</ele>
        <time>2025-10-04T11:59:17Z</time>
      </trkpt>
      <trkpt lat="46.01938" lon="4.4271">
        <ele>767</ele>
        <time>2025-10-04T11:59:18Z</time>
      </trkpt>
      <trkpt lat="46.01938" lon="4.4271">
        <ele>767</ele>
        <time>2025-10-04T11:59:19Z</time>
      </trkpt>
      <trkpt lat="46.01939" lon="4.42708">
        <ele>767</ele>
        <time>2025-10-04T11:59:25Z</time>
      </trkpt>
      <trkpt lat="46.0194" lon="4.42707">
        <ele>766.8</ele>
        <time>2025-10-04T11:59:26Z</time>
      </trkpt>
      <trkpt lat="46.01941" lon="4.42707">
        <ele>766.8</ele>
        <time>2025-10-04T11:59:27Z</time>
      </trkpt>
      <trkpt lat="46.01941" lon="4.42707">
        <ele>766.6</ele>
        <time>2025-10-04T11:59:28Z</time>
      </trkpt>
      <trkpt lat="46.01941" lon="4.42708">
        <ele>766.6</ele>
        <time>2025-10-04T11:59:29Z</time>
      </trkpt>
      <trkpt lat="46.0194" lon="4.42709">
        <ele>766.6</ele>
        <time>2025-10-04T11:59:30Z</time>
      </trkpt>
      <trkpt lat="46.0193" lon="4.42711">
        <ele>766</ele>
        <time>2025-10-04T11:59:57Z</time>
      </trkpt>
      <trkpt lat="46.0193" lon="4.42712">
        <ele>766</ele>
        <time>2025-10-04T11:59:58Z</time>
      </trkpt>
      <trkpt lat="46.01929" lon="4.42714">
        <ele>766</ele>
        <time>2025-10-04T11:59:59Z</time>
      </trkpt>
      <trkpt lat="46.01929" lon="4.42716">
        <ele>766.2</ele>
        <time>2025-10-04T12:00:00Z</time>
      </trkpt>
      <trkpt lat="46.0193" lon="4.42717">
        <ele>766.6</ele>
        <time>2025-10-04T12:00:01Z</time>
      </trkpt>
      <trkpt lat="46.01929" lon="4.42718">
        <ele>766.6</ele>
        <time>2025-10-04T12:00:02Z</time>
      </trkpt>
      <trkpt lat="46.01929" lon="4.42719">
        <ele>766.8</ele>
        <time>2025-10-04T12:00:03Z</time>
      </trkpt>
      <trkpt lat="46.01929" lon="4.4272">
        <ele>766.8</ele>
        <time>2025-10-04T12:00:04Z</time>
      </trkpt>
      <trkpt lat="46.01928" lon="4.4272">
        <ele>767.2</ele>
        <time>2025-10-04T12:00:05Z</time>
      </trkpt>
      <trkpt lat="46.01928" lon="4.4272">
        <ele>767.2</ele>
        <time>2025-10-04T12:00:06Z</time>
      </trkpt>
      <trkpt lat="46.01928" lon="4.4272">
        <ele>767.4</ele>
        <time>2025-10-04T12:00:07Z</time>
      </trkpt>
      <trkpt lat="46.01928" lon="4.42719">
        <ele>767.4</ele>
        <time>2025-10-04T12:00:08Z</time>
      </trkpt>
      <trkpt lat="46.01928" lon="4.42714">
        <ele>767.4</ele>
        <time>2025-10-04T12:04:04Z</time>
      </trkpt>
      <trkpt lat="46.01928" lon="4.42714">
        <ele>767.4</ele>
        <time>2025-10-04T12:04:05Z</time>
      </trkpt>
      <trkpt lat="46.01928" lon="4.42714">
        <ele>767.2</ele>
        <time>2025-10-04T12:04:06Z</time>
      </trkpt>
      <trkpt lat="46.01927" lon="4.42715">
        <ele>766.8</ele>
        <time>2025-10-04T12:04:08Z</time>
      </trkpt>
      <trkpt lat="46.01927" lon="4.42716">
        <ele>766.8</ele>
        <time>2025-10-04T12:04:09Z</time>
      </trkpt>
      <trkpt lat="46.01928" lon="4.42715">
        <ele>767.6</ele>
        <time>2025-10-04T12:05:09Z</time>
      </trkpt>
      <trkpt lat="46.01926" lon="4.42716">
        <ele>767.6</ele>
        <time>2025-10-04T12:05:10Z</time>
      </trkpt>
      <trkpt lat="46.01925" lon="4.42718">
        <ele>767.6</ele>
        <time>2025-10-04T12:05:11Z</time>
      </trkpt>
      <trkpt lat="46.01924" lon="4.4272">
        <ele>767.4</ele>
        <time>2025-10-04T12:05:12Z</time>
      </trkpt>
      <trkpt lat="46.01923" lon="4.42721">
        <ele>767.4</ele>
        <time>2025-10-04T12:05:13Z</time>
      </trkpt>
      <trkpt lat="46.01922" lon="4.42722">
        <ele>767.6</ele>
        <time>2025-10-04T12:05:14Z</time>
      </trkpt>
      <trkpt lat="46.0192" lon="4.42723">
        <ele>767.6</ele>
        <time>2025-10-04T12:05:15Z</time>
      </trkpt>
      <trkpt lat="46.01919" lon="4.42724">
        <ele>767.6</ele>
        <time>2025-10-04T12:05:16Z</time>
      </trkpt>
      <trkpt lat="46.01917" lon="4.42726">
        <ele>767.8</ele>
        <time>2025-10-04T12:05:17Z</time>
      </trkpt>
      <trkpt lat="46.01916" lon="4.42727">
        <ele>767.8</ele>
        <time>2025-10-04T12:05:18Z</time>
      </trkpt>
      <trkpt lat="46.01915" lon="4.42728">
        <ele>767.8</ele>
        <time>2025-10-04T12:05:19Z</time>
      </trkpt>
      <trkpt lat="46.01913" lon="4.42729">
        <ele>768.2</ele>
        <time>2025-10-04T12:05:20Z</time>
      </trkpt>
      <trkpt lat="46.01912" lon="4.42731">
        <ele>768.4</ele>
        <time>2025-10-04T12:05:21Z</time>
      </trkpt>
      <trkpt lat="46.0191" lon="4.42733">
        <ele>768.8</ele>
        <time>2025-10-04T12:05:22Z</time>
      </trkpt>
      <trkpt lat="46.01909" lon="4.42735">
        <ele>769</ele>
        <time>2025-10-04T12:05:23Z</time>
      </trkpt>
      <trkpt lat="46.01908" lon="4.42736">
        <ele>769.6</ele>
        <time>2025-10-04T12:05:24Z</time>
      </trkpt>
      <trkpt lat="46.01906" lon="4.42738">
        <ele>770</ele>
        <time>2025-10-04T12:05:25Z</time>
      </trkpt>
      <trkpt lat="46.01905" lon="4.42739">
        <ele>770.4</ele>
        <time>2025-10-04T12:05:26Z</time>
      </trkpt>
      <trkpt lat="46.01903" lon="4.4274">
        <ele>770.4</ele>
        <time>2025-10-04T12:05:27Z</time>
      </trkpt>
      <trkpt lat="46.01901" lon="4.42742">
        <ele>770.8</ele>
        <time>2025-10-04T12:05:28Z</time>
      </trkpt>
      <trkpt lat="46.01899" lon="4.42743">
        <ele>771.2</ele>
        <time>2025-10-04T12:05:29Z</time>
      </trkpt>
      <trkpt lat="46.01898" lon="4.42744">
        <ele>771.2</ele>
        <time>2025-10-04T12:05:30Z</time>
      </trkpt>
      <trkpt lat="46.01896" lon="4.42746">
        <ele>771.4</ele>
        <time>2025-10-04T12:05:31Z</time>
      </trkpt>
      <trkpt lat="46.01893" lon="4.42748">
        <ele>771.8</ele>
        <time>2025-10-04T12:05:32Z</time>
      </trkpt>
      <trkpt lat="46.01891" lon="4.42749">
        <ele>771.8</ele>
        <time>2025-10-04T12:05:33Z</time>
      </trkpt>
      <trkpt lat="46.01889" lon="4.42751">
        <ele>772.4</ele>
        <time>2025-10-04T12:05:34Z</time>
      </trkpt>
      <trkpt lat="46.01887" lon="4.42751">
        <ele>772.6</ele>
        <time>2025-10-04T12:05:35Z</time>
      </trkpt>
      <trkpt lat="46.01885" lon="4.42752">
        <ele>772.6</ele>
        <time>2025-10-04T12:05:36Z</time>
      </trkpt>
      <trkpt lat="46.01883" lon="4.42753">
        <ele>772.6</ele>
        <time>2025-10-04T12:05:37Z</time>
      </trkpt>
      <trkpt lat="46.0188" lon="4.42753">
        <ele>772.4</ele>
        <time>2025-10-04T12:05:38Z</time>
      </trkpt>
      <trkpt lat="46.01878" lon="4.42753">
        <ele>772.4</ele>
        <time>2025-10-04T12:05:39Z</time>
      </trkpt>
      <trkpt lat="46.01875" lon="4.42752">
        <ele>773</ele>
        <time>2025-10-04T12:05:40Z</time>
      </trkpt>
      <trkpt lat="46.01872" lon="4.42751">
        <ele>773.6</ele>
        <time>2025-10-04T12:05:41Z</time>
      </trkpt>
      <trkpt lat="46.0187" lon="4.4275">
        <ele>773.8</ele>
        <time>2025-10-04T12:05:42Z</time>
      </trkpt>
      <trkpt lat="46.01869" lon="4.4275">
        <ele>773.8</ele>
        <time>2025-10-04T12:05:43Z</time>
      </trkpt>
      <trkpt lat="46.01867" lon="4.4275">
        <ele>774.4</ele>
        <time>2025-10-04T12:05:44Z</time>
      </trkpt>
      <trkpt lat="46.01865" lon="4.42749">
        <ele>774.8</ele>
        <time>2025-10-04T12:05:45Z</time>
      </trkpt>
      <trkpt lat="46.01863" lon="4.42749">
        <ele>774.8</ele>
        <time>2025-10-04T12:05:46Z</time>
      </trkpt>
      <trkpt lat="46.01861" lon="4.42748">
        <ele>774.8</ele>
        <time>2025-10-04T12:05:47Z</time>
      </trkpt>
      <trkpt lat="46.01859" lon="4.42748">
        <ele>774.8</ele>
        <time>2025-10-04T12:05:48Z</time>
      </trkpt>
      <trkpt lat="46.01858" lon="4.42747">
        <ele>775</ele>
        <time>2025-10-04T12:05:49Z</time>
      </trkpt>
      <trkpt lat="46.01857" lon="4.42747">
        <ele>775.2</ele>
        <time>2025-10-04T12:05:50Z</time>
      </trkpt>
      <trkpt lat="46.01855" lon="4.42747">
        <ele>775.2</ele>
        <time>2025-10-04T12:05:51Z</time>
      </trkpt>
      <trkpt lat="46.01853" lon="4.42747">
        <ele>775.2</ele>
        <time>2025-10-04T12:05:52Z</time>
      </trkpt>
      <trkpt lat="46.0185" lon="4.42746">
        <ele>775.6</ele>
        <time>2025-10-04T12:05:53Z</time>
      </trkpt>
      <trkpt lat="46.01849" lon="4.42745">
        <ele>775.6</ele>
        <time>2025-10-04T12:05:54Z</time>
      </trkpt>
      <trkpt lat="46.01844" lon="4.42743">
        <ele>775.6</ele>
        <time>2025-10-04T12:05:55Z</time>
      </trkpt>
      <trkpt lat="46.01841" lon="4.42743">
        <ele>775.8</ele>
        <time>2025-10-04T12:05:56Z</time>
      </trkpt>
      <trkpt lat="46.01838" lon="4.42742">
        <ele>775.8</ele>
        <time>2025-10-04T12:05:57Z</time>
      </trkpt>
      <trkpt lat="46.01836" lon="4.42742">
        <ele>775.8</ele>
        <time>2025-10-04T12:05:58Z</time>
      </trkpt>
      <trkpt lat="46.01834" lon="4.42741">
        <ele>776</ele>
        <time>2025-10-04T12:05:59Z</time>
      </trkpt>
      <trkpt lat="46.01832" lon="4.42741">
        <ele>776</ele>
        <time>2025-10-04T12:06:00Z</time>
      </trkpt>
      <trkpt lat="46.0183" lon="4.42741">
        <ele>776.4</ele>
        <time>2025-10-04T12:06:01Z</time>
      </trkpt>
      <trkpt lat="46.01828" lon="4.42741">
        <ele>776.4</ele>
        <time>2025-10-04T12:06:02Z</time>
      </trkpt>
      <trkpt lat="46.01825" lon="4.4274">
        <ele>776.4</ele>
        <time>2025-10-04T12:06:03Z</time>
      </trkpt>
      <trkpt lat="46.01822" lon="4.42739">
        <ele>776.4</ele>
        <time>2025-10-04T12:06:04Z</time>
      </trkpt>
      <trkpt lat="46.01819" lon="4.42738">
        <ele>776.4</ele>
        <time>2025-10-04T12:06:05Z</time>
      </trkpt>
      <trkpt lat="46.01816" lon="4.42736">
        <ele>776.4</ele>
        <time>2025-10-04T12:06:06Z</time>
      </trkpt>
      <trkpt lat="46.01813" lon="4.42735">
        <ele>776.6</ele>
        <time>2025-10-04T12:06:07Z</time>
      </trkpt>
      <trkpt lat="46.0181" lon="4.42733">
        <ele>776.8</ele>
        <time>2025-10-04T12:06:08Z</time>
      </trkpt>
      <trkpt lat="46.01808" lon="4.42733">
        <ele>776.8</ele>
        <time>2025-10-04T12:06:09Z</time>
      </trkpt>
      <trkpt lat="46.01805" lon="4.42733">
        <ele>777.2</ele>
        <time>2025-10-04T12:06:10Z</time>
      </trkpt>
      <trkpt lat="46.01802" lon="4.42733">
        <ele>777.2</ele>
        <time>2025-10-04T12:06:11Z</time>
      </trkpt>
      <trkpt lat="46.01799" lon="4.42733">
        <ele>777.4</ele>
        <time>2025-10-04T12:06:12Z</time>
      </trkpt>
      <trkpt lat="46.01797" lon="4.42733">
        <ele>777.4</ele>
        <time>2025-10-04T12:06:13Z</time>
      </trkpt>
      <trkpt lat="46.01796" lon="4.42732">
        <ele>777.4</ele>
        <time>2025-10-04T12:06:14Z</time>
      </trkpt>
      <trkpt lat="46.01795" lon="4.42731">
        <ele>777.6</ele>
        <time>2025-10-04T12:06:15Z</time>
      </trkpt>
      <trkpt lat="46.01795" lon="4.42731">
        <ele>777.6</ele>
        <time>2025-10-04T12:06:16Z</time>
      </trkpt>
      <trkpt lat="46.01795" lon="4.4273">
        <ele>777.6</ele>
        <time>2025-10-04T12:06:17Z</time>
      </trkpt>
      <trkpt lat="46.01795" lon="4.4273">
        <ele>777.6</ele>
        <time>2025-10-04T12:06:18Z</time>
      </trkpt>
      <trkpt lat="46.01794" lon="4.42734">
        <ele>777.6</ele>
        <time>2025-10-04T12:06:36Z</time>
      </trkpt>
      <trkpt lat="46.01794" lon="4.42735">
        <ele>777.4</ele>
        <time>2025-10-04T12:06:37Z</time>
      </trkpt>
      <trkpt lat="46.01794" lon="4.42735">
        <ele>777.4</ele>
        <time>2025-10-04T12:06:38Z</time>
      </trkpt>
      <trkpt lat="46.01793" lon="4.42736">
        <ele>777</ele>
        <time>2025-10-04T12:06:39Z</time>
      </trkpt>
      <trkpt lat="46.01792" lon="4.42736">
        <ele>777</ele>
        <time>2025-10-04T12:06:40Z</time>
      </trkpt>
      <trkpt lat="46.01788" lon="4.42735">
        <ele>776.8</ele>
        <time>2025-10-04T12:06:41Z</time>
      </trkpt>
      <trkpt lat="46.01785" lon="4.42735">
        <ele>776.6</ele>
        <time>2025-10-04T12:06:42Z</time>
      </trkpt>
      <trkpt lat="46.01782" lon="4.42734">
        <ele>776.6</ele>
        <time>2025-10-04T12:06:43Z</time>
      </trkpt>
      <trkpt lat="46.01778" lon="4.42731">
        <ele>776.6</ele>
        <time>2025-10-04T12:06:44Z</time>
      </trkpt>
      <trkpt lat="46.01775" lon="4.42728">
        <ele>776.6</ele>
        <time>2025-10-04T12:06:45Z</time>
      </trkpt>
      <trkpt lat="46.01771" lon="4.42723">
        <ele>776.6</ele>
        <time>2025-10-04T12:06:46Z</time>
      </trkpt>
      <trkpt lat="46.01768" lon="4.42719">
        <ele>776.6</ele>
        <time>2025-10-04T12:06:47Z</time>
      </trkpt>
      <trkpt lat="46.01764" lon="4.42716">
        <ele>776.6</ele>
        <time>2025-10-04T12:06:48Z</time>
      </trkpt>
      <trkpt lat="46.01761" lon="4.42713">
        <ele>776.6</ele>
        <time>2025-10-04T12:06:49Z</time>
      </trkpt>
      <trkpt lat="46.01757" lon="4.4271">
        <ele>776.6</ele>
        <time>2025-10-04T12:06:50Z</time>
      </trkpt>
      <trkpt lat="46.01753" lon="4.42707">
        <ele>776.2</ele>
        <time>2025-10-04T12:06:51Z</time>
      </trkpt>
      <trkpt lat="46.0175" lon="4.42704">
        <ele>776.4</ele>
        <time>2025-10-04T12:06:52Z</time>
      </trkpt>
      <trkpt lat="46.01746" lon="4.42701">
        <ele>776.4</ele>
        <time>2025-10-04T12:06:53Z</time>
      </trkpt>
      <trkpt lat="46.01743" lon="4.42697">
        <ele>776.4</ele>
        <time>2025-10-04T12:06:54Z</time>
      </trkpt>
      <trkpt lat="46.0174" lon="4.42694">
        <ele>776.4</ele>
        <time>2025-10-04T12:06:55Z</time>
      </trkpt>
      <trkpt lat="46.01738" lon="4.42691">
        <ele>776</ele>
        <time>2025-10-04T12:06:56Z</time>
      </trkpt>
      <trkpt lat="46.01735" lon="4.42687">
        <ele>776.6</ele>
        <time>2025-10-04T12:06:57Z</time>
      </trkpt>
      <trkpt lat="46.01732" lon="4.42684">
        <ele>775.8</ele>
        <time>2025-10-04T12:06:58Z</time>
      </trkpt>
      <trkpt lat="46.0173" lon="4.42681">
        <ele>776.2</ele>
        <time>2025-10-04T12:06:59Z</time>
      </trkpt>
      <trkpt lat="46.01728" lon="4.42678">
        <ele>776.8</ele>
        <time>2025-10-04T12:07:00Z</time>
      </trkpt>
      <trkpt lat="46.01726" lon="4.42675">
        <ele>777</ele>
        <time>2025-10-04T12:07:01Z</time>
      </trkpt>
      <trkpt lat="46.01724" lon="4.42672">
        <ele>777.4</ele>
        <time>2025-10-04T12:07:02Z</time>
      </trkpt>
      <trkpt lat="46.01722" lon="4.42669">
        <ele>777.6</ele>
        <time>2025-10-04T12:07:03Z</time>
      </trkpt>
      <trkpt lat="46.0172" lon="4.42667">
        <ele>778</ele>
        <time>2025-10-04T12:07:04Z</time>
      </trkpt>
      <trkpt lat="46.01718" lon="4.42665">
        <ele>778.2</ele>
        <time>2025-10-04T12:07:05Z</time>
      </trkpt>
      <trkpt lat="46.01716" lon="4.42664">
        <ele>778.6</ele>
        <time>2025-10-04T12:07:06Z</time>
      </trkpt>
      <trkpt lat="46.01714" lon="4.42662">
        <ele>778.8</ele>
        <time>2025-10-04T12:07:07Z</time>
      </trkpt>
      <trkpt lat="46.01713" lon="4.42661">
        <ele>779.4</ele>
        <time>2025-10-04T12:07:08Z</time>
      </trkpt>
      <trkpt lat="46.01711" lon="4.4266">
        <ele>779.4</ele>
        <time>2025-10-04T12:07:09Z</time>
      </trkpt>
      <trkpt lat="46.0171" lon="4.42659">
        <ele>779.6</ele>
        <time>2025-10-04T12:07:10Z</time>
      </trkpt>
      <trkpt lat="46.01708" lon="4.42657">
        <ele>780</ele>
        <time>2025-10-04T12:07:11Z</time>
      </trkpt>
      <trkpt lat="46.01707" lon="4.42656">
        <ele>780</ele>
        <time>2025-10-04T12:07:12Z</time>
      </trkpt>
      <trkpt lat="46.01706" lon="4.42655">
        <ele>780.2</ele>
        <time>2025-10-04T12:07:13Z</time>
      </trkpt>
      <trkpt lat="46.01705" lon="4.42654">
        <ele>780.2</ele>
        <time>2025-10-04T12:07:14Z</time>
      </trkpt>
      <trkpt lat="46.01704" lon="4.42653">
        <ele>781</ele>
        <time>2025-10-04T12:07:15Z</time>
      </trkpt>
      <trkpt lat="46.01702" lon="4.42652">
        <ele>781.4</ele>
        <time>2025-10-04T12:07:16Z</time>
      </trkpt>
      <trkpt lat="46.01701" lon="4.4265">
        <ele>781.4</ele>
        <time>2025-10-04T12:07:17Z</time>
      </trkpt>
      <trkpt lat="46.01699" lon="4.42649">
        <ele>781.8</ele>
        <time>2025-10-04T12:07:18Z</time>
      </trkpt>
      <trkpt lat="46.01698" lon="4.42648">
        <ele>782.2</ele>
        <time>2025-10-04T12:07:19Z</time>
      </trkpt>
      <trkpt lat="46.01697" lon="4.42646">
        <ele>782.4</ele>
        <time>2025-10-04T12:07:20Z</time>
      </trkpt>
      <trkpt lat="46.01695" lon="4.42645">
        <ele>782.6</ele>
        <time>2025-10-04T12:07:21Z</time>
      </trkpt>
      <trkpt lat="46.01694" lon="4.42644">
        <ele>783</ele>
        <time>2025-10-04T12:07:22Z</time>
      </trkpt>
      <trkpt lat="46.01692" lon="4.42642">
        <ele>783</ele>
        <time>2025-10-04T12:07:23Z</time>
      </trkpt>
      <trkpt lat="46.0169" lon="4.42641">
        <ele>783</ele>
        <time>2025-10-04T12:07:24Z</time>
      </trkpt>
      <trkpt lat="46.01689" lon="4.42639">
        <ele>783.4</ele>
        <time>2025-10-04T12:07:25Z</time>
      </trkpt>
      <trkpt lat="46.01687" lon="4.42638">
        <ele>783.6</ele>
        <time>2025-10-04T12:07:26Z</time>
      </trkpt>
      <trkpt lat="46.01686" lon="4.42636">
        <ele>783.8</ele>
        <time>2025-10-04T12:07:27Z</time>
      </trkpt>
      <trkpt lat="46.01685" lon="4.42634">
        <ele>783.8</ele>
        <time>2025-10-04T12:07:28Z</time>
      </trkpt>
      <trkpt lat="46.01683" lon="4.42633">
        <ele>784.4</ele>
        <time>2025-10-04T12:07:29Z</time>
      </trkpt>
      <trkpt lat="46.01682" lon="4.42631">
        <ele>784.8</ele>
        <time>2025-10-04T12:07:30Z</time>
      </trkpt>
      <trkpt lat="46.0168" lon="4.42629">
        <ele>784.8</ele>
        <time>2025-10-04T12:07:31Z</time>
      </trkpt>
      <trkpt lat="46.01679" lon="4.42626">
        <ele>785.2</ele>
        <time>2025-10-04T12:07:32Z</time>
      </trkpt>
      <trkpt lat="46.01677" lon="4.42624">
        <ele>785.2</ele>
        <time>2025-10-04T12:07:33Z</time>
      </trkpt>
      <trkpt lat="46.01676" lon="4.42622">
        <ele>785.8</ele>
        <time>2025-10-04T12:07:34Z</time>
      </trkpt>
      <trkpt lat="46.01675" lon="4.42621">
        <ele>786</ele>
        <time>2025-10-04T12:07:35Z</time>
      </trkpt>
      <trkpt lat="46.01674" lon="4.42619">
        <ele>786.2</ele>
        <time>2025-10-04T12:07:36Z</time>
      </trkpt>
      <trkpt lat="46.01673" lon="4.42617">
        <ele>786.2</ele>
        <time>2025-10-04T12:07:37Z</time>
      </trkpt>
      <trkpt lat="46.01671" lon="4.42615">
        <ele>786.4</ele>
        <time>2025-10-04T12:07:38Z</time>
      </trkpt>
      <trkpt lat="46.0167" lon="4.42614">
        <ele>786.4</ele>
        <time>2025-10-04T12:07:39Z</time>
      </trkpt>
      <trkpt lat="46.01669" lon="4.42612">
        <ele>786.4</ele>
        <time>2025-10-04T12:07:40Z</time>
      </trkpt>
      <trkpt lat="46.01667" lon="4.4261">
        <ele>786.4</ele>
        <time>2025-10-04T12:07:41Z</time>
      </trkpt>
      <trkpt lat="46.01667" lon="4.42609">
        <ele>786.4</ele>
        <time>2025-10-04T12:07:42Z</time>
      </trkpt>
      <trkpt lat="46.01666" lon="4.42607">
        <ele>786.8</ele>
        <time>2025-10-04T12:07:43Z</time>
      </trkpt>
      <trkpt lat="46.01664" lon="4.42604">
        <ele>786.8</ele>
        <time>2025-10-04T12:07:44Z</time>
      </trkpt>
      <trkpt lat="46.01663" lon="4.42602">
        <ele>787</ele>
        <time>2025-10-04T12:07:45Z</time>
      </trkpt>
      <trkpt lat="46.01662" lon="4.42599">
        <ele>787.4</ele>
        <time>2025-10-04T12:07:46Z</time>
      </trkpt>
      <trkpt lat="46.01661" lon="4.42597">
        <ele>787.6</ele>
        <time>2025-10-04T12:07:47Z</time>
      </trkpt>
      <trkpt lat="46.01659" lon="4.42594">
        <ele>787.8</ele>
        <time>2025-10-04T12:07:48Z</time>
      </trkpt>
      <trkpt lat="46.01657" lon="4.42592">
        <ele>788</ele>
        <time>2025-10-04T12:07:49Z</time>
      </trkpt>
      <trkpt lat="46.01655" lon="4.4259">
        <ele>788</ele>
        <time>2025-10-04T12:07:50Z</time>
      </trkpt>
      <trkpt lat="46.01654" lon="4.42589">
        <ele>788</ele>
        <time>2025-10-04T12:07:51Z</time>
      </trkpt>
      <trkpt lat="46.01652" lon="4.42587">
        <ele>788.2</ele>
        <time>2025-10-04T12:07:52Z</time>
      </trkpt>
      <trkpt lat="46.01651" lon="4.42585">
        <ele>788.2</ele>
        <time>2025-10-04T12:07:53Z</time>
      </trkpt>
      <trkpt lat="46.0165" lon="4.42584">
        <ele>788.2</ele>
        <time>2025-10-04T12:07:54Z</time>
      </trkpt>
      <trkpt lat="46.01649" lon="4.42582">
        <ele>788.6</ele>
        <time>2025-10-04T12:07:55Z</time>
      </trkpt>
      <trkpt lat="46.01647" lon="4.42581">
        <ele>788.6</ele>
        <time>2025-10-04T12:07:56Z</time>
      </trkpt>
      <trkpt lat="46.01645" lon="4.4258">
        <ele>788.6</ele>
        <time>2025-10-04T12:07:57Z</time>
      </trkpt>
      <trkpt lat="46.01642" lon="4.4258">
        <ele>789</ele>
        <time>2025-10-04T12:07:58Z</time>
      </trkpt>
      <trkpt lat="46.01641" lon="4.42579">
        <ele>789</ele>
        <time>2025-10-04T12:07:59Z</time>
      </trkpt>
      <trkpt lat="46.01639" lon="4.42577">
        <ele>789</ele>
        <time>2025-10-04T12:08:00Z</time>
      </trkpt>
      <trkpt lat="46.01639" lon="4.42575">
        <ele>789.2</ele>
        <time>2025-10-04T12:08:01Z</time>
      </trkpt>
      <trkpt lat="46.01638" lon="4.42574">
        <ele>789.2</ele>
        <time>2025-10-04T12:08:02Z</time>
      </trkpt>
      <trkpt lat="46.01637" lon="4.42572">
        <ele>789.2</ele>
        <time>2025-10-04T12:08:03Z</time>
      </trkpt>
      <trkpt lat="46.01635" lon="4.4257">
        <ele>789.2</ele>
        <time>2025-10-04T12:08:04Z</time>
      </trkpt>
      <trkpt lat="46.01633" lon="4.42569">
        <ele>789.4</ele>
        <time>2025-10-04T12:08:05Z</time>
      </trkpt>
      <trkpt lat="46.01632" lon="4.42567">
        <ele>789.4</ele>
        <time>2025-10-04T12:08:06Z</time>
      </trkpt>
      <trkpt lat="46.0163" lon="4.42566">
        <ele>789.6</ele>
        <time>2025-10-04T12:08:07Z</time>
      </trkpt>
      <trkpt lat="46.01627" lon="4.42566">
        <ele>789.6</ele>
        <time>2025-10-04T12:08:08Z</time>
      </trkpt>
      <trkpt lat="46.01625" lon="4.42566">
        <ele>789.6</ele>
        <time>2025-10-04T12:08:09Z</time>
      </trkpt>
      <trkpt lat="46.01623" lon="4.42565">
        <ele>790.2</ele>
        <time>2025-10-04T12:08:10Z</time>
      </trkpt>
      <trkpt lat="46.01622" lon="4.42565">
        <ele>790.2</ele>
        <time>2025-10-04T12:08:11Z</time>
      </trkpt>
      <trkpt lat="46.0162" lon="4.42564">
        <ele>790.2</ele>
        <time>2025-10-04T12:08:12Z</time>
      </trkpt>
      <trkpt lat="46.01619" lon="4.42563">
        <ele>790.6</ele>
        <time>2025-10-04T12:08:13Z</time>
      </trkpt>
      <trkpt lat="46.01617" lon="4.42561">
        <ele>790.6</ele>
        <time>2025-10-04T12:08:14Z</time>
      </trkpt>
      <trkpt lat="46.01616" lon="4.42559">
        <ele>790.6</ele>
        <time>2025-10-04T12:08:15Z</time>
      </trkpt>
      <trkpt lat="46.01614" lon="4.42557">
        <ele>790.6</ele>
        <time>2025-10-04T12:08:16Z</time>
      </trkpt>
      <trkpt lat="46.01613" lon="4.42555">
        <ele>790.6</ele>
        <time>2025-10-04T12:08:17Z</time>
      </trkpt>
      <trkpt lat="46.01612" lon="4.42553">
        <ele>790.6</ele>
        <time>2025-10-04T12:08:18Z</time>
      </trkpt>
      <trkpt lat="46.01611" lon="4.4255">
        <ele>790.6</ele>
        <time>2025-10-04T12:08:19Z</time>
      </trkpt>
      <trkpt lat="46.01609" lon="4.42547">
        <ele>790.6</ele>
        <time>2025-10-04T12:08:20Z</time>
      </trkpt>
      <trkpt lat="46.01608" lon="4.42544">
        <ele>790.6</ele>
        <time>2025-10-04T12:08:21Z</time>
      </trkpt>
      <trkpt lat="46.01606" lon="4.4254">
        <ele>790.6</ele>
        <time>2025-10-04T12:08:22Z</time>
      </trkpt>
      <trkpt lat="46.01604" lon="4.42537">
        <ele>790.6</ele>
        <time>2025-10-04T12:08:23Z</time>
      </trkpt>
      <trkpt lat="46.01602" lon="4.42533">
        <ele>790</ele>
        <time>2025-10-04T12:08:24Z</time>
      </trkpt>
      <trkpt lat="46.01599" lon="4.42528">
        <ele>790</ele>
        <time>2025-10-04T12:08:25Z</time>
      </trkpt>
      <trkpt lat="46.01596" lon="4.42522">
        <ele>789.6</ele>
        <time>2025-10-04T12:08:26Z</time>
      </trkpt>
      <trkpt lat="46.01592" lon="4.42517">
        <ele>789.2</ele>
        <time>2025-10-04T12:08:27Z</time>
      </trkpt>
      <trkpt lat="46.01588" lon="4.42514">
        <ele>788.8</ele>
        <time>2025-10-04T12:08:28Z</time>
      </trkpt>
      <trkpt lat="46.01584" lon="4.42509">
        <ele>788.4</ele>
        <time>2025-10-04T12:08:29Z</time>
      </trkpt>
      <trkpt lat="46.01578" lon="4.42506">
        <ele>788</ele>
        <time>2025-10-04T12:08:30Z</time>
      </trkpt>
      <trkpt lat="46.01578" lon="4.42502">
        <ele>787.8</ele>
        <time>2025-10-04T12:08:31Z</time>
      </trkpt>
      <trkpt lat="46.01575" lon="4.42501">
        <ele>787.8</ele>
        <time>2025-10-04T12:08:32Z</time>
      </trkpt>
      <trkpt lat="46.01571" lon="4.42499">
        <ele>787.4</ele>
        <time>2025-10-04T12:08:33Z</time>
      </trkpt>
      <trkpt lat="46.01567" lon="4.42496">
        <ele>787.4</ele>
        <time>2025-10-04T12:08:34Z</time>
      </trkpt>
      <trkpt lat="46.01562" lon="4.42497">
        <ele>787</ele>
        <time>2025-10-04T12:08:35Z</time>
      </trkpt>
      <trkpt lat="46.0156" lon="4.42495">
        <ele>786</ele>
        <time>2025-10-04T12:08:36Z</time>
      </trkpt>
      <trkpt lat="46.01558" lon="4.42493">
        <ele>786.4</ele>
        <time>2025-10-04T12:08:37Z</time>
      </trkpt>
      <trkpt lat="46.01553" lon="4.42491">
        <ele>787</ele>
        <time>2025-10-04T12:08:38Z</time>
      </trkpt>
      <trkpt lat="46.0155" lon="4.42491">
        <ele>787.2</ele>
        <time>2025-10-04T12:08:39Z</time>
      </trkpt>
      <trkpt lat="46.01547" lon="4.42488">
        <ele>787.6</ele>
        <time>2025-10-04T12:08:40Z</time>
      </trkpt>
      <trkpt lat="46.01544" lon="4.42486">
        <ele>787.8</ele>
        <time>2025-10-04T12:08:41Z</time>
      </trkpt>
      <trkpt lat="46.01541" lon="4.42484">
        <ele>787.4</ele>
        <time>2025-10-04T12:08:42Z</time>
      </trkpt>
      <trkpt lat="46.01541" lon="4.42484">
        <ele>787.8</ele>
        <time>2025-10-04T12:08:43Z</time>
      </trkpt>
      <trkpt lat="46.01538" lon="4.42482">
        <ele>787.8</ele>
        <time>2025-10-04T12:08:44Z</time>
      </trkpt>
      <trkpt lat="46.01535" lon="4.42479">
        <ele>787.8</ele>
        <time>2025-10-04T12:08:45Z</time>
      </trkpt>
      <trkpt lat="46.01531" lon="4.42477">
        <ele>788</ele>
        <time>2025-10-04T12:08:46Z</time>
      </trkpt>
      <trkpt lat="46.01524" lon="4.42474">
        <ele>788</ele>
        <time>2025-10-04T12:08:47Z</time>
      </trkpt>
      <trkpt lat="46.0152" lon="4.42471">
        <ele>788.4</ele>
        <time>2025-10-04T12:08:48Z</time>
      </trkpt>
      <trkpt lat="46.01518" lon="4.4247">
        <ele>788.4</ele>
        <time>2025-10-04T12:08:49Z</time>
      </trkpt>
      <trkpt lat="46.01514" lon="4.42467">
        <ele>788.4</ele>
        <time>2025-10-04T12:08:50Z</time>
      </trkpt>
      <trkpt lat="46.01509" lon="4.42464">
        <ele>788.4</ele>
        <time>2025-10-04T12:08:51Z</time>
      </trkpt>
      <trkpt lat="46.01507" lon="4.4246">
        <ele>788.4</ele>
        <time>2025-10-04T12:08:52Z</time>
      </trkpt>
      <trkpt lat="46.01503" lon="4.42457">
        <ele>788.8</ele>
        <time>2025-10-04T12:08:53Z</time>
      </trkpt>
      <trkpt lat="46.01498" lon="4.42455">
        <ele>789.2</ele>
        <time>2025-10-04T12:08:54Z</time>
      </trkpt>
      <trkpt lat="46.01495" lon="4.42451">
        <ele>789.6</ele>
        <time>2025-10-04T12:08:55Z</time>
      </trkpt>
      <trkpt lat="46.01492" lon="4.42449">
        <ele>790</ele>
        <time>2025-10-04T12:08:56Z</time>
      </trkpt>
      <trkpt lat="46.01489" lon="4.42447">
        <ele>790</ele>
        <time>2025-10-04T12:08:57Z</time>
      </trkpt>
      <trkpt lat="46.01486" lon="4.42446">
        <ele>790.2</ele>
        <time>2025-10-04T12:08:58Z</time>
      </trkpt>
      <trkpt lat="46.01483" lon="4.42444">
        <ele>790.8</ele>
        <time>2025-10-04T12:08:59Z</time>
      </trkpt>
      <trkpt lat="46.01479" lon="4.42442">
        <ele>790.8</ele>
        <time>2025-10-04T12:09:00Z</time>
      </trkpt>
      <trkpt lat="46.01476" lon="4.4244">
        <ele>791.2</ele>
        <time>2025-10-04T12:09:01Z</time>
      </trkpt>
      <trkpt lat="46.01473" lon="4.42439">
        <ele>791.6</ele>
        <time>2025-10-04T12:09:02Z</time>
      </trkpt>
      <trkpt lat="46.0147" lon="4.42438">
        <ele>791.6</ele>
        <time>2025-10-04T12:09:03Z</time>
      </trkpt>
      <trkpt lat="46.01467" lon="4.42437">
        <ele>792</ele>
        <time>2025-10-04T12:09:04Z</time>
      </trkpt>
      <trkpt lat="46.01464" lon="4.42437">
        <ele>792.4</ele>
        <time>2025-10-04T12:09:05Z</time>
      </trkpt>
      <trkpt lat="46.0146" lon="4.42436">
        <ele>792.6</ele>
        <time>2025-10-04T12:09:06Z</time>
      </trkpt>
      <trkpt lat="46.01457" lon="4.42437">
        <ele>792.6</ele>
        <time>2025-10-04T12:09:07Z</time>
      </trkpt>
      <trkpt lat="46.01455" lon="4.42437">
        <ele>792.6</ele>
        <time>2025-10-04T12:09:08Z</time>
      </trkpt>
      <trkpt lat="46.01451" lon="4.42437">
        <ele>793</ele>
        <time>2025-10-04T12:09:09Z</time>
      </trkpt>
      <trkpt lat="46.01449" lon="4.42437">
        <ele>793</ele>
        <time>2025-10-04T12:09:10Z</time>
      </trkpt>
      <trkpt lat="46.01446" lon="4.42436">
        <ele>793.6</ele>
        <time>2025-10-04T12:09:11Z</time>
      </trkpt>
      <trkpt lat="46.01444" lon="4.42436">
        <ele>794</ele>
        <time>2025-10-04T12:09:12Z</time>
      </trkpt>
      <trkpt lat="46.01442" lon="4.42436">
        <ele>794.2</ele>
        <time>2025-10-04T12:09:13Z</time>
      </trkpt>
      <trkpt lat="46.0144" lon="4.42435">
        <ele>794.2</ele>
        <time>2025-10-04T12:09:14Z</time>
      </trkpt>
      <trkpt lat="46.01438" lon="4.42434">
        <ele>794.6</ele>
        <time>2025-10-04T12:09:15Z</time>
      </trkpt>
      <trkpt lat="46.01437" lon="4.42433">
        <ele>795</ele>
        <time>2025-10-04T12:09:16Z</time>
      </trkpt>
      <trkpt lat="46.01434" lon="4.42432">
        <ele>795.2</ele>
        <time>2025-10-04T12:09:17Z</time>
      </trkpt>
      <trkpt lat="46.01433" lon="4.42432">
        <ele>795.2</ele>
        <time>2025-10-04T12:09:18Z</time>
      </trkpt>
      <trkpt lat="46.01431" lon="4.42431">
        <ele>795.4</ele>
        <time>2025-10-04T12:09:19Z</time>
      </trkpt>
      <trkpt lat="46.0143" lon="4.4243">
        <ele>795.4</ele>
        <time>2025-10-04T12:09:20Z</time>
      </trkpt>
      <trkpt lat="46.01429" lon="4.4243">
        <ele>795.8</ele>
        <time>2025-10-04T12:09:21Z</time>
      </trkpt>
      <trkpt lat="46.01428" lon="4.42429">
        <ele>795.8</ele>
        <time>2025-10-04T12:09:22Z</time>
      </trkpt>
      <trkpt lat="46.01426" lon="4.42428">
        <ele>796</ele>
        <time>2025-10-04T12:09:23Z</time>
      </trkpt>
      <trkpt lat="46.01425" lon="4.42428">
        <ele>796</ele>
        <time>2025-10-04T12:09:24Z</time>
      </trkpt>
      <trkpt lat="46.01423" lon="4.42427">
        <ele>796.4</ele>
        <time>2025-10-04T12:09:25Z</time>
      </trkpt>
      <trkpt lat="46.01422" lon="4.42427">
        <ele>796.6</ele>
        <time>2025-10-04T12:09:26Z</time>
      </trkpt>
      <trkpt lat="46.01421" lon="4.42427">
        <ele>796.8</ele>
        <time>2025-10-04T12:09:27Z</time>
      </trkpt>
      <trkpt lat="46.0142" lon="4.42426">
        <ele>796.8</ele>
        <time>2025-10-04T12:09:28Z</time>
      </trkpt>
      <trkpt lat="46.01418" lon="4.42425">
        <ele>796.8</ele>
        <time>2025-10-04T12:09:29Z</time>
      </trkpt>
      <trkpt lat="46.01417" lon="4.42424">
        <ele>797</ele>
        <time>2025-10-04T12:09:30Z</time>
      </trkpt>
      <trkpt lat="46.01416" lon="4.42424">
        <ele>797</ele>
        <time>2025-10-04T12:09:31Z</time>
      </trkpt>
      <trkpt lat="46.01414" lon="4.42423">
        <ele>797.6</ele>
        <time>2025-10-04T12:09:32Z</time>
      </trkpt>
      <trkpt lat="46.01413" lon="4.42423">
        <ele>797.8</ele>
        <time>2025-10-04T12:09:33Z</time>
      </trkpt>
      <trkpt lat="46.01412" lon="4.42423">
        <ele>798</ele>
        <time>2025-10-04T12:09:34Z</time>
      </trkpt>
      <trkpt lat="46.01411" lon="4.42422">
        <ele>798</ele>
        <time>2025-10-04T12:09:35Z</time>
      </trkpt>
      <trkpt lat="46.0141" lon="4.42422">
        <ele>798.6</ele>
        <time>2025-10-04T12:09:36Z</time>
      </trkpt>
      <trkpt lat="46.01408" lon="4.42422">
        <ele>799</ele>
        <time>2025-10-04T12:09:37Z</time>
      </trkpt>
      <trkpt lat="46.01407" lon="4.42421">
        <ele>799.2</ele>
        <time>2025-10-04T12:09:38Z</time>
      </trkpt>
      <trkpt lat="46.01406" lon="4.42421">
        <ele>799.2</ele>
        <time>2025-10-04T12:09:39Z</time>
      </trkpt>
      <trkpt lat="46.01404" lon="4.42421">
        <ele>799.4</ele>
        <time>2025-10-04T12:09:40Z</time>
      </trkpt>
      <trkpt lat="46.01402" lon="4.42421">
        <ele>799.6</ele>
        <time>2025-10-04T12:09:41Z</time>
      </trkpt>
      <trkpt lat="46.01401" lon="4.42422">
        <ele>799.6</ele>
        <time>2025-10-04T12:09:42Z</time>
      </trkpt>
      <trkpt lat="46.014" lon="4.42422">
        <ele>800</ele>
        <time>2025-10-04T12:09:43Z</time>
      </trkpt>
      <trkpt lat="46.01399" lon="4.42421">
        <ele>800.4</ele>
        <time>2025-10-04T12:09:44Z</time>
      </trkpt>
      <trkpt lat="46.01398" lon="4.42421">
        <ele>800.4</ele>
        <time>2025-10-04T12:09:45Z</time>
      </trkpt>
      <trkpt lat="46.01397" lon="4.42421">
        <ele>800.6</ele>
        <time>2025-10-04T12:09:46Z</time>
      </trkpt>
      <trkpt lat="46.01396" lon="4.42421">
        <ele>801</ele>
        <time>2025-10-04T12:09:47Z</time>
      </trkpt>
      <trkpt lat="46.01394" lon="4.42421">
        <ele>801</ele>
        <time>2025-10-04T12:09:48Z</time>
      </trkpt>
      <trkpt lat="46.01393" lon="4.42421">
        <ele>801.4</ele>
        <time>2025-10-04T12:09:49Z</time>
      </trkpt>
      <trkpt lat="46.01392" lon="4.4242">
        <ele>801.6</ele>
        <time>2025-10-04T12:09:50Z</time>
      </trkpt>
      <trkpt lat="46.0139" lon="4.4242">
        <ele>801.8</ele>
        <time>2025-10-04T12:09:51Z</time>
      </trkpt>
      <trkpt lat="46.01389" lon="4.4242">
        <ele>801.8</ele>
        <time>2025-10-04T12:09:52Z</time>
      </trkpt>
      <trkpt lat="46.01388" lon="4.4242">
        <ele>802.2</ele>
        <time>2025-10-04T12:09:53Z</time>
      </trkpt>
      <trkpt lat="46.01387" lon="4.4242">
        <ele>802.2</ele>
        <time>2025-10-04T12:09:54Z</time>
      </trkpt>
      <trkpt lat="46.01386" lon="4.4242">
        <ele>802.2</ele>
        <time>2025-10-04T12:09:55Z</time>
      </trkpt>
      <trkpt lat="46.01384" lon="4.4242">
        <ele>802.2</ele>
        <time>2025-10-04T12:09:56Z</time>
      </trkpt>
      <trkpt lat="46.01383" lon="4.4242">
        <ele>802.4</ele>
        <time>2025-10-04T12:09:57Z</time>
      </trkpt>
      <trkpt lat="46.01382" lon="4.4242">
        <ele>802.4</ele>
        <time>2025-10-04T12:09:58Z</time>
      </trkpt>
      <trkpt lat="46.01381" lon="4.42421">
        <ele>802.8</ele>
        <time>2025-10-04T12:09:59Z</time>
      </trkpt>
      <trkpt lat="46.0138" lon="4.42421">
        <ele>802.8</ele>
        <time>2025-10-04T12:10:00Z</time>
      </trkpt>
      <trkpt lat="46.01378" lon="4.4242">
        <ele>803.2</ele>
        <time>2025-10-04T12:10:01Z</time>
      </trkpt>
      <trkpt lat="46.01377" lon="4.4242">
        <ele>803.6</ele>
        <time>2025-10-04T12:10:02Z</time>
      </trkpt>
      <trkpt lat="46.01375" lon="4.4242">
        <ele>803.6</ele>
        <time>2025-10-04T12:10:03Z</time>
      </trkpt>
      <trkpt lat="46.01374" lon="4.42421">
        <ele>803.6</ele>
        <time>2025-10-04T12:10:04Z</time>
      </trkpt>
      <trkpt lat="46.01373" lon="4.42421">
        <ele>803.8</ele>
        <time>2025-10-04T12:10:05Z</time>
      </trkpt>
      <trkpt lat="46.01372" lon="4.42421">
        <ele>804.2</ele>
        <time>2025-10-04T12:10:06Z</time>
      </trkpt>
      <trkpt lat="46.01371" lon="4.42421">
        <ele>804.2</ele>
        <time>2025-10-04T12:10:07Z</time>
      </trkpt>
      <trkpt lat="46.01369" lon="4.42421">
        <ele>804.6</ele>
        <time>2025-10-04T12:10:08Z</time>
      </trkpt>
      <trkpt lat="46.01368" lon="4.42421">
        <ele>805</ele>
        <time>2025-10-04T12:10:09Z</time>
      </trkpt>
      <trkpt lat="46.01366" lon="4.42421">
        <ele>805</ele>
        <time>2025-10-04T12:10:10Z</time>
      </trkpt>
      <trkpt lat="46.01365" lon="4.42421">
        <ele>805.4</ele>
        <time>2025-10-04T12:10:11Z</time>
      </trkpt>
      <trkpt lat="46.01365" lon="4.42422">
        <ele>805.4</ele>
        <time>2025-10-04T12:10:12Z</time>
      </trkpt>
      <trkpt lat="46.01364" lon="4.42422">
        <ele>805.6</ele>
        <time>2025-10-04T12:10:13Z</time>
      </trkpt>
      <trkpt lat="46.01362" lon="4.42422">
        <ele>805.6</ele>
        <time>2025-10-04T12:10:14Z</time>
      </trkpt>
      <trkpt lat="46.01361" lon="4.42421">
        <ele>805.8</ele>
        <time>2025-10-04T12:10:15Z</time>
      </trkpt>
      <trkpt lat="46.0136" lon="4.42421">
        <ele>805.8</ele>
        <time>2025-10-04T12:10:16Z</time>
      </trkpt>
      <trkpt lat="46.01359" lon="4.42422">
        <ele>805.8</ele>
        <time>2025-10-04T12:10:17Z</time>
      </trkpt>
      <trkpt lat="46.01357" lon="4.42422">
        <ele>805.8</ele>
        <time>2025-10-04T12:10:18Z</time>
      </trkpt>
      <trkpt lat="46.01356" lon="4.42422">
        <ele>806.2</ele>
        <time>2025-10-04T12:10:19Z</time>
      </trkpt>
      <trkpt lat="46.01354" lon="4.42422">
        <ele>806.2</ele>
        <time>2025-10-04T12:10:20Z</time>
      </trkpt>
      <trkpt lat="46.01353" lon="4.42422">
        <ele>806.4</ele>
        <time>2025-10-04T12:10:21Z</time>
      </trkpt>
      <trkpt lat="46.01351" lon="4.42422">
        <ele>806.4</ele>
        <time>2025-10-04T12:10:22Z</time>
      </trkpt>
      <trkpt lat="46.01349" lon="4.42422">
        <ele>806.8</ele>
        <time>2025-10-04T12:10:23Z</time>
      </trkpt>
      <trkpt lat="46.01347" lon="4.42422">
        <ele>807.2</ele>
        <time>2025-10-04T12:10:24Z</time>
      </trkpt>
      <trkpt lat="46.01346" lon="4.42421">
        <ele>807.8</ele>
        <time>2025-10-04T12:10:25Z</time>
      </trkpt>
      <trkpt lat="46.01344" lon="4.42421">
        <ele>808.2</ele>
        <time>2025-10-04T12:10:26Z</time>
      </trkpt>
      <trkpt lat="46.01343" lon="4.4242">
        <ele>808.6</ele>
        <time>2025-10-04T12:10:27Z</time>
      </trkpt>
      <trkpt lat="46.0134" lon="4.42419">
        <ele>809</ele>
        <time>2025-10-04T12:10:28Z</time>
      </trkpt>
      <trkpt lat="46.01338" lon="4.42419">
        <ele>809</ele>
        <time>2025-10-04T12:10:29Z</time>
      </trkpt>
      <trkpt lat="46.01335" lon="4.4242">
        <ele>809.2</ele>
        <time>2025-10-04T12:10:30Z</time>
      </trkpt>
      <trkpt lat="46.01333" lon="4.4242">
        <ele>809.2</ele>
        <time>2025-10-04T12:10:31Z</time>
      </trkpt>
      <trkpt lat="46.01331" lon="4.4242">
        <ele>809.2</ele>
        <time>2025-10-04T12:10:32Z</time>
      </trkpt>
      <trkpt lat="46.01329" lon="4.4242">
        <ele>809.2</ele>
        <time>2025-10-04T12:10:33Z</time>
      </trkpt>
      <trkpt lat="46.01327" lon="4.42419">
        <ele>809.2</ele>
        <time>2025-10-04T12:10:34Z</time>
      </trkpt>
      <trkpt lat="46.01325" lon="4.42418">
        <ele>809.2</ele>
        <time>2025-10-04T12:10:35Z</time>
      </trkpt>
      <trkpt lat="46.01323" lon="4.42417">
        <ele>809.2</ele>
        <time>2025-10-04T12:10:36Z</time>
      </trkpt>
      <trkpt lat="46.0132" lon="4.42416">
        <ele>809.2</ele>
        <time>2025-10-04T12:10:37Z</time>
      </trkpt>
      <trkpt lat="46.01318" lon="4.42414">
        <ele>808.8</ele>
        <time>2025-10-04T12:10:38Z</time>
      </trkpt>
      <trkpt lat="46.01316" lon="4.42413">
        <ele>808.8</ele>
        <time>2025-10-04T12:10:39Z</time>
      </trkpt>
      <trkpt lat="46.01313" lon="4.42412">
        <ele>808.8</ele>
        <time>2025-10-04T12:10:40Z</time>
      </trkpt>
      <trkpt lat="46.01311" lon="4.42412">
        <ele>808.8</ele>
        <time>2025-10-04T12:10:41Z</time>
      </trkpt>
      <trkpt lat="46.01308" lon="4.4241">
        <ele>808.6</ele>
        <time>2025-10-04T12:10:42Z</time>
      </trkpt>
      <trkpt lat="46.01306" lon="4.42409">
        <ele>808.6</ele>
        <time>2025-10-04T12:10:43Z</time>
      </trkpt>
      <trkpt lat="46.01302" lon="4.42408">
        <ele>808.6</ele>
        <time>2025-10-04T12:10:44Z</time>
      </trkpt>
      <trkpt lat="46.01298" lon="4.42406">
        <ele>808.8</ele>
        <time>2025-10-04T12:10:45Z</time>
      </trkpt>
      <trkpt lat="46.01294" lon="4.42406">
        <ele>808.8</ele>
        <time>2025-10-04T12:10:46Z</time>
      </trkpt>
      <trkpt lat="46.01291" lon="4.42405">
        <ele>808.8</ele>
        <time>2025-10-04T12:10:47Z</time>
      </trkpt>
      <trkpt lat="46.01285" lon="4.42405">
        <ele>808.8</ele>
        <time>2025-10-04T12:10:48Z</time>
      </trkpt>
      <trkpt lat="46.01278" lon="4.42404">
        <ele>808.2</ele>
        <time>2025-10-04T12:10:49Z</time>
      </trkpt>
      <trkpt lat="46.01273" lon="4.42402">
        <ele>807.6</ele>
        <time>2025-10-04T12:10:50Z</time>
      </trkpt>
      <trkpt lat="46.01269" lon="4.42402">
        <ele>806.8</ele>
        <time>2025-10-04T12:10:51Z</time>
      </trkpt>
      <trkpt lat="46.01264" lon="4.42404">
        <ele>806.6</ele>
        <time>2025-10-04T12:10:52Z</time>
      </trkpt>
      <trkpt lat="46.01259" lon="4.42402">
        <ele>805.8</ele>
        <time>2025-10-04T12:10:53Z</time>
      </trkpt>
      <trkpt lat="46.01254" lon="4.42403">
        <ele>805</ele>
        <time>2025-10-04T12:10:54Z</time>
      </trkpt>
      <trkpt lat="46.01248" lon="4.42402">
        <ele>804.8</ele>
        <time>2025-10-04T12:10:55Z</time>
      </trkpt>
      <trkpt lat="46.01242" lon="4.424">
        <ele>803.8</ele>
        <time>2025-10-04T12:10:56Z</time>
      </trkpt>
      <trkpt lat="46.01235" lon="4.42399">
        <ele>803</ele>
        <time>2025-10-04T12:10:57Z</time>
      </trkpt>
      <trkpt lat="46.01225" lon="4.42396">
        <ele>801.2</ele>
        <time>2025-10-04T12:10:58Z</time>
      </trkpt>
      <trkpt lat="46.01215" lon="4.42392">
        <ele>800</ele>
        <time>2025-10-04T12:10:59Z</time>
      </trkpt>
      <trkpt lat="46.01205" lon="4.42388">
        <ele>798.2</ele>
        <time>2025-10-04T12:11:00Z</time>
      </trkpt>
      <trkpt lat="46.01195" lon="4.42383">
        <ele>797</ele>
        <time>2025-10-04T12:11:01Z</time>
      </trkpt>
      <trkpt lat="46.01184" lon="4.42378">
        <ele>794.2</ele>
        <time>2025-10-04T12:11:02Z</time>
      </trkpt>
      <trkpt lat="46.01174" lon="4.42371">
        <ele>793.4</ele>
        <time>2025-10-04T12:11:03Z</time>
      </trkpt>
      <trkpt lat="46.01163" lon="4.42364">
        <ele>792.2</ele>
        <time>2025-10-04T12:11:04Z</time>
      </trkpt>
      <trkpt lat="46.01156" lon="4.42356">
        <ele>791.6</ele>
        <time>2025-10-04T12:11:05Z</time>
      </trkpt>
      <trkpt lat="46.0115" lon="4.4235">
        <ele>790.8</ele>
        <time>2025-10-04T12:11:06Z</time>
      </trkpt>
      <trkpt lat="46.01145" lon="4.42349">
        <ele>789.8</ele>
        <time>2025-10-04T12:11:07Z</time>
      </trkpt>
      <trkpt lat="46.01142" lon="4.42347">
        <ele>789.2</ele>
        <time>2025-10-04T12:11:08Z</time>
      </trkpt>
      <trkpt lat="46.01137" lon="4.42344">
        <ele>788.8</ele>
        <time>2025-10-04T12:11:09Z</time>
      </trkpt>
      <trkpt lat="46.01132" lon="4.42341">
        <ele>788</ele>
        <time>2025-10-04T12:11:10Z</time>
      </trkpt>
      <trkpt lat="46.01126" lon="4.4234">
        <ele>787</ele>
        <time>2025-10-04T12:11:11Z</time>
      </trkpt>
      <trkpt lat="46.0112" lon="4.42338">
        <ele>785.6</ele>
        <time>2025-10-04T12:11:12Z</time>
      </trkpt>
      <trkpt lat="46.01113" lon="4.42339">
        <ele>784.6</ele>
        <time>2025-10-04T12:11:13Z</time>
      </trkpt>
      <trkpt lat="46.01106" lon="4.42341">
        <ele>783.6</ele>
        <time>2025-10-04T12:11:14Z</time>
      </trkpt>
      <trkpt lat="46.01099" lon="4.42342">
        <ele>783</ele>
        <time>2025-10-04T12:11:15Z</time>
      </trkpt>
      <trkpt lat="46.01092" lon="4.42343">
        <ele>782.4</ele>
        <time>2025-10-04T12:11:16Z</time>
      </trkpt>
      <trkpt lat="46.01085" lon="4.42344">
        <ele>781</ele>
        <time>2025-10-04T12:11:17Z</time>
      </trkpt>
      <trkpt lat="46.01076" lon="4.42341">
        <ele>779.8</ele>
        <time>2025-10-04T12:11:18Z</time>
      </trkpt>
      <trkpt lat="46.01067" lon="4.4234">
        <ele>779</ele>
        <time>2025-10-04T12:11:19Z</time>
      </trkpt>
      <trkpt lat="46.01058" lon="4.42337">
        <ele>777.8</ele>
        <time>2025-10-04T12:11:20Z</time>
      </trkpt>
      <trkpt lat="46.0105" lon="4.42333">
        <ele>776.6</ele>
        <time>2025-10-04T12:11:21Z</time>
      </trkpt>
      <trkpt lat="46.01042" lon="4.42329">
        <ele>776.6</ele>
        <time>2025-10-04T12:11:22Z</time>
      </trkpt>
      <trkpt lat="46.01033" lon="4.42325">
        <ele>776.2</ele>
        <time>2025-10-04T12:11:23Z</time>
      </trkpt>
      <trkpt lat="46.01028" lon="4.42311">
        <ele>775.8</ele>
        <time>2025-10-04T12:11:24Z</time>
      </trkpt>
      <trkpt lat="46.01021" lon="4.42304">
        <ele>775.8</ele>
        <time>2025-10-04T12:11:25Z</time>
      </trkpt>
      <trkpt lat="46.01014" lon="4.42301">
        <ele>774.8</ele>
        <time>2025-10-04T12:11:26Z</time>
      </trkpt>
      <trkpt lat="46.01005" lon="4.42296">
        <ele>773.8</ele>
        <time>2025-10-04T12:11:27Z</time>
      </trkpt>
      <trkpt lat="46.00995" lon="4.42293">
        <ele>772.8</ele>
        <time>2025-10-04T12:11:28Z</time>
      </trkpt>
      <trkpt lat="46.00986" lon="4.42288">
        <ele>772.4</ele>
        <time>2025-10-04T12:11:29Z</time>
      </trkpt>
      <trkpt lat="46.00977" lon="4.42284">
        <ele>772.6</ele>
        <time>2025-10-04T12:11:30Z</time>
      </trkpt>
      <trkpt lat="46.00969" lon="4.42279">
        <ele>772.2</ele>
        <time>2025-10-04T12:11:31Z</time>
      </trkpt>
      <trkpt lat="46.0096" lon="4.42275">
        <ele>771.6</ele>
        <time>2025-10-04T12:11:32Z</time>
      </trkpt>
      <trkpt lat="46.00954" lon="4.4227">
        <ele>771.4</ele>
        <time>2025-10-04T12:11:33Z</time>
      </trkpt>
      <trkpt lat="46.00947" lon="4.42267">
        <ele>771.4</ele>
        <time>2025-10-04T12:11:34Z</time>
      </trkpt>
      <trkpt lat="46.0094" lon="4.42264">
        <ele>770.8</ele>
        <time>2025-10-04T12:11:35Z</time>
      </trkpt>
      <trkpt lat="46.00935" lon="4.42261">
        <ele>770.8</ele>
        <time>2025-10-04T12:11:36Z</time>
      </trkpt>
      <trkpt lat="46.00932" lon="4.4226">
        <ele>771.2</ele>
        <time>2025-10-04T12:11:37Z</time>
      </trkpt>
      <trkpt lat="46.0093" lon="4.42259">
        <ele>771.4</ele>
        <time>2025-10-04T12:11:38Z</time>
      </trkpt>
      <trkpt lat="46.00929" lon="4.42258">
        <ele>771.4</ele>
        <time>2025-10-04T12:11:39Z</time>
      </trkpt>
      <trkpt lat="46.00927" lon="4.42257">
        <ele>771.8</ele>
        <time>2025-10-04T12:11:40Z</time>
      </trkpt>
      <trkpt lat="46.00926" lon="4.42256">
        <ele>771.8</ele>
        <time>2025-10-04T12:11:41Z</time>
      </trkpt>
      <trkpt lat="46.00924" lon="4.42256">
        <ele>771.8</ele>
        <time>2025-10-04T12:11:42Z</time>
      </trkpt>
      <trkpt lat="46.00923" lon="4.42255">
        <ele>771.8</ele>
        <time>2025-10-04T12:11:43Z</time>
      </trkpt>
      <trkpt lat="46.00921" lon="4.42253">
        <ele>771.8</ele>
        <time>2025-10-04T12:11:44Z</time>
      </trkpt>
      <trkpt lat="46.0092" lon="4.42251">
        <ele>771.8</ele>
        <time>2025-10-04T12:11:45Z</time>
      </trkpt>
      <trkpt lat="46.00917" lon="4.4225">
        <ele>771.8</ele>
        <time>2025-10-04T12:11:46Z</time>
      </trkpt>
      <trkpt lat="46.00915" lon="4.42248">
        <ele>771.8</ele>
        <time>2025-10-04T12:11:47Z</time>
      </trkpt>
      <trkpt lat="46.00913" lon="4.42247">
        <ele>771.8</ele>
        <time>2025-10-04T12:11:48Z</time>
      </trkpt>
      <trkpt lat="46.00911" lon="4.42246">
        <ele>771.8</ele>
        <time>2025-10-04T12:11:49Z</time>
      </trkpt>
      <trkpt lat="46.00908" lon="4.42244">
        <ele>771.8</ele>
        <time>2025-10-04T12:11:50Z</time>
      </trkpt>
      <trkpt lat="46.00906" lon="4.42241">
        <ele>771.8</ele>
        <time>2025-10-04T12:11:51Z</time>
      </trkpt>
      <trkpt lat="46.00903" lon="4.42239">
        <ele>771.8</ele>
        <time>2025-10-04T12:11:52Z</time>
      </trkpt>
      <trkpt lat="46.00903" lon="4.42239">
        <ele>771.8</ele>
        <time>2025-10-04T12:11:53Z</time>
      </trkpt>
      <trkpt lat="46.009" lon="4.42236">
        <ele>771.8</ele>
        <time>2025-10-04T12:11:54Z</time>
      </trkpt>
      <trkpt lat="46.00897" lon="4.42233">
        <ele>771.4</ele>
        <time>2025-10-04T12:11:55Z</time>
      </trkpt>
      <trkpt lat="46.00894" lon="4.4223">
        <ele>771.4</ele>
        <time>2025-10-04T12:11:56Z</time>
      </trkpt>
      <trkpt lat="46.0089" lon="4.42227">
        <ele>771.4</ele>
        <time>2025-10-04T12:11:57Z</time>
      </trkpt>
      <trkpt lat="46.00887" lon="4.42225">
        <ele>771.4</ele>
        <time>2025-10-04T12:11:58Z</time>
      </trkpt>
      <trkpt lat="46.00882" lon="4.42223">
        <ele>771.4</ele>
        <time>2025-10-04T12:11:59Z</time>
      </trkpt>
      <trkpt lat="46.00877" lon="4.42221">
        <ele>771.8</ele>
        <time>2025-10-04T12:12:00Z</time>
      </trkpt>
      <trkpt lat="46.00874" lon="4.4222">
        <ele>771.8</ele>
        <time>2025-10-04T12:12:01Z</time>
      </trkpt>
      <trkpt lat="46.00872" lon="4.42218">
        <ele>771.6</ele>
        <time>2025-10-04T12:12:02Z</time>
      </trkpt>
      <trkpt lat="46.00866" lon="4.4221">
        <ele>771.4</ele>
        <time>2025-10-04T12:12:03Z</time>
      </trkpt>
      <trkpt lat="46.00864" lon="4.42209">
        <ele>770.8</ele>
        <time>2025-10-04T12:12:04Z</time>
      </trkpt>
      <trkpt lat="46.0086" lon="4.42203">
        <ele>770.8</ele>
        <time>2025-10-04T12:12:05Z</time>
      </trkpt>
      <trkpt lat="46.00855" lon="4.42203">
        <ele>770.8</ele>
        <time>2025-10-04T12:12:06Z</time>
      </trkpt>
      <trkpt lat="46.00853" lon="4.42201">
        <ele>770.8</ele>
        <time>2025-10-04T12:12:07Z</time>
      </trkpt>
      <trkpt lat="46.00849" lon="4.42198">
        <ele>770.8</ele>
        <time>2025-10-04T12:12:08Z</time>
      </trkpt>
      <trkpt lat="46.00847" lon="4.42197">
        <ele>770.8</ele>
        <time>2025-10-04T12:12:09Z</time>
      </trkpt>
      <trkpt lat="46.00844" lon="4.42194">
        <ele>770.8</ele>
        <time>2025-10-04T12:12:10Z</time>
      </trkpt>
      <trkpt lat="46.00841" lon="4.42192">
        <ele>770.8</ele>
        <time>2025-10-04T12:12:11Z</time>
      </trkpt>
      <trkpt lat="46.00838" lon="4.42189">
        <ele>770.8</ele>
        <time>2025-10-04T12:12:12Z</time>
      </trkpt>
      <trkpt lat="46.00835" lon="4.42184">
        <ele>770.8</ele>
        <time>2025-10-04T12:12:13Z</time>
      </trkpt>
      <trkpt lat="46.00832" lon="4.42181">
        <ele>770.8</ele>
        <time>2025-10-04T12:12:14Z</time>
      </trkpt>
      <trkpt lat="46.00829" lon="4.42178">
        <ele>770.8</ele>
        <time>2025-10-04T12:12:15Z</time>
      </trkpt>
      <trkpt lat="46.00827" lon="4.42176">
        <ele>770.6</ele>
        <time>2025-10-04T12:12:16Z</time>
      </trkpt>
      <trkpt lat="46.00825" lon="4.42174">
        <ele>770.6</ele>
        <time>2025-10-04T12:12:17Z</time>
      </trkpt>
      <trkpt lat="46.00822" lon="4.42171">
        <ele>770.8</ele>
        <time>2025-10-04T12:12:18Z</time>
      </trkpt>
      <trkpt lat="46.00819" lon="4.42169">
        <ele>770.8</ele>
        <time>2025-10-04T12:12:19Z</time>
      </trkpt>
      <trkpt lat="46.00815" lon="4.42167">
        <ele>770.8</ele>
        <time>2025-10-04T12:12:20Z</time>
      </trkpt>
      <trkpt lat="46.00812" lon="4.42166">
        <ele>770.6</ele>
        <time>2025-10-04T12:12:21Z</time>
      </trkpt>
      <trkpt lat="46.0081" lon="4.42165">
        <ele>770.6</ele>
        <time>2025-10-04T12:12:22Z</time>
      </trkpt>
      <trkpt lat="46.00806" lon="4.42164">
        <ele>770.6</ele>
        <time>2025-10-04T12:12:23Z</time>
      </trkpt>
      <trkpt lat="46.00803" lon="4.42162">
        <ele>770.6</ele>
        <time>2025-10-04T12:12:24Z</time>
      </trkpt>
      <trkpt lat="46.00799" lon="4.4216">
        <ele>770</ele>
        <time>2025-10-04T12:12:25Z</time>
      </trkpt>
      <trkpt lat="46.00796" lon="4.42158">
        <ele>770</ele>
        <time>2025-10-04T12:12:26Z</time>
      </trkpt>
      <trkpt lat="46.00792" lon="4.42156">
        <ele>770.6</ele>
        <time>2025-10-04T12:12:27Z</time>
      </trkpt>
      <trkpt lat="46.00788" lon="4.42153">
        <ele>770.6</ele>
        <time>2025-10-04T12:12:28Z</time>
      </trkpt>
      <trkpt lat="46.00784" lon="4.4215">
        <ele>770.2</ele>
        <time>2025-10-04T12:12:29Z</time>
      </trkpt>
      <trkpt lat="46.00771" lon="4.42142">
        <ele>770.2</ele>
        <time>2025-10-04T12:12:30Z</time>
      </trkpt>
      <trkpt lat="46.00767" lon="4.42139">
        <ele>770.2</ele>
        <time>2025-10-04T12:12:31Z</time>
      </trkpt>
      <trkpt lat="46.00763" lon="4.42134">
        <ele>770.8</ele>
        <time>2025-10-04T12:12:32Z</time>
      </trkpt>
      <trkpt lat="46.0076" lon="4.42133">
        <ele>771.2</ele>
        <time>2025-10-04T12:12:33Z</time>
      </trkpt>
      <trkpt lat="46.00757" lon="4.42131">
        <ele>771.2</ele>
        <time>2025-10-04T12:12:34Z</time>
      </trkpt>
      <trkpt lat="46.00754" lon="4.42127">
        <ele>771.4</ele>
        <time>2025-10-04T12:12:35Z</time>
      </trkpt>
      <trkpt lat="46.00751" lon="4.42123">
        <ele>771.4</ele>
        <time>2025-10-04T12:12:36Z</time>
      </trkpt>
      <trkpt lat="46.00749" lon="4.42119">
        <ele>771.4</ele>
        <time>2025-10-04T12:12:37Z</time>
      </trkpt>
      <trkpt lat="46.00745" lon="4.42118">
        <ele>771.4</ele>
        <time>2025-10-04T12:12:38Z</time>
      </trkpt>
      <trkpt lat="46.00741" lon="4.42115">
        <ele>771.2</ele>
        <time>2025-10-04T12:12:39Z</time>
      </trkpt>
      <trkpt lat="46.00736" lon="4.42109">
        <ele>771.2</ele>
        <time>2025-10-04T12:12:40Z</time>
      </trkpt>
      <trkpt lat="46.00732" lon="4.42104">
        <ele>770.8</ele>
        <time>2025-10-04T12:12:41Z</time>
      </trkpt>
      <trkpt lat="46.00729" lon="4.421">
        <ele>770.6</ele>
        <time>2025-10-04T12:12:42Z</time>
      </trkpt>
      <trkpt lat="46.00728" lon="4.42097">
        <ele>770.2</ele>
        <time>2025-10-04T12:12:43Z</time>
      </trkpt>
      <trkpt lat="46.00724" lon="4.42092">
        <ele>770.2</ele>
        <time>2025-10-04T12:12:44Z</time>
      </trkpt>
      <trkpt lat="46.00718" lon="4.42084">
        <ele>769.2</ele>
        <time>2025-10-04T12:12:45Z</time>
      </trkpt>
      <trkpt lat="46.00714" lon="4.42075">
        <ele>768.4</ele>
        <time>2025-10-04T12:12:46Z</time>
      </trkpt>
      <trkpt lat="46.00709" lon="4.42068">
        <ele>768</ele>
        <time>2025-10-04T12:12:47Z</time>
      </trkpt>
      <trkpt lat="46.00704" lon="4.42059">
        <ele>767.2</ele>
        <time>2025-10-04T12:12:48Z</time>
      </trkpt>
      <trkpt lat="46.00701" lon="4.42045">
        <ele>765.8</ele>
        <time>2025-10-04T12:12:49Z</time>
      </trkpt>
      <trkpt lat="46.007" lon="4.4203">
        <ele>765</ele>
        <time>2025-10-04T12:12:50Z</time>
      </trkpt>
      <trkpt lat="46.00698" lon="4.42018">
        <ele>764.2</ele>
        <time>2025-10-04T12:12:51Z</time>
      </trkpt>
      <trkpt lat="46.00697" lon="4.42009">
        <ele>763</ele>
        <time>2025-10-04T12:12:52Z</time>
      </trkpt>
      <trkpt lat="46.00697" lon="4.41998">
        <ele>762.6</ele>
        <time>2025-10-04T12:12:53Z</time>
      </trkpt>
      <trkpt lat="46.00693" lon="4.41985">
        <ele>761.4</ele>
        <time>2025-10-04T12:12:54Z</time>
      </trkpt>
      <trkpt lat="46.00687" lon="4.41971">
        <ele>760.6</ele>
        <time>2025-10-04T12:12:55Z</time>
      </trkpt>
      <trkpt lat="46.00683" lon="4.41959">
        <ele>760.2</ele>
        <time>2025-10-04T12:12:56Z</time>
      </trkpt>
      <trkpt lat="46.00678" lon="4.41945">
        <ele>759.4</ele>
        <time>2025-10-04T12:12:57Z</time>
      </trkpt>
      <trkpt lat="46.00672" lon="4.41932">
        <ele>759</ele>
        <time>2025-10-04T12:12:58Z</time>
      </trkpt>
      <trkpt lat="46.00665" lon="4.41922">
        <ele>758.8</ele>
        <time>2025-10-04T12:12:59Z</time>
      </trkpt>
      <trkpt lat="46.00661" lon="4.4191">
        <ele>758.2</ele>
        <time>2025-10-04T12:13:00Z</time>
      </trkpt>
      <trkpt lat="46.00658" lon="4.41901">
        <ele>758.6</ele>
        <time>2025-10-04T12:13:01Z</time>
      </trkpt>
      <trkpt lat="46.00655" lon="4.41892">
        <ele>758.6</ele>
        <time>2025-10-04T12:13:02Z</time>
      </trkpt>
      <trkpt lat="46.00652" lon="4.41883">
        <ele>759.2</ele>
        <time>2025-10-04T12:13:03Z</time>
      </trkpt>
      <trkpt lat="46.0065" lon="4.41874">
        <ele>759.4</ele>
        <time>2025-10-04T12:13:04Z</time>
      </trkpt>
      <trkpt lat="46.00647" lon="4.41867">
        <ele>760</ele>
        <time>2025-10-04T12:13:05Z</time>
      </trkpt>
      <trkpt lat="46.00643" lon="4.41859">
        <ele>760.2</ele>
        <time>2025-10-04T12:13:06Z</time>
      </trkpt>
      <trkpt lat="46.00643" lon="4.41855">
        <ele>760.6</ele>
        <time>2025-10-04T12:13:07Z</time>
      </trkpt>
      <trkpt lat="46.00638" lon="4.4185">
        <ele>760.6</ele>
        <time>2025-10-04T12:13:08Z</time>
      </trkpt>
      <trkpt lat="46.00635" lon="4.41847">
        <ele>761</ele>
        <time>2025-10-04T12:13:09Z</time>
      </trkpt>
      <trkpt lat="46.00631" lon="4.41843">
        <ele>761</ele>
        <time>2025-10-04T12:13:10Z</time>
      </trkpt>
      <trkpt lat="46.00629" lon="4.41838">
        <ele>761.4</ele>
        <time>2025-10-04T12:13:11Z</time>
      </trkpt>
      <trkpt lat="46.00626" lon="4.41834">
        <ele>761.6</ele>
        <time>2025-10-04T12:13:12Z</time>
      </trkpt>
      <trkpt lat="46.00624" lon="4.41829">
        <ele>762</ele>
        <time>2025-10-04T12:13:13Z</time>
      </trkpt>
      <trkpt lat="46.00621" lon="4.41826">
        <ele>762.4</ele>
        <time>2025-10-04T12:13:14Z</time>
      </trkpt>
      <trkpt lat="46.00622" lon="4.41822">
        <ele>762.4</ele>
        <time>2025-10-04T12:13:15Z</time>
      </trkpt>
      <trkpt lat="46.00621" lon="4.41815">
        <ele>762.8</ele>
        <time>2025-10-04T12:13:16Z</time>
      </trkpt>
      <trkpt lat="46.00616" lon="4.4181">
        <ele>762.8</ele>
        <time>2025-10-04T12:13:17Z</time>
      </trkpt>
      <trkpt lat="46.00613" lon="4.41807">
        <ele>762.8</ele>
        <time>2025-10-04T12:13:18Z</time>
      </trkpt>
      <trkpt lat="46.00611" lon="4.41805">
        <ele>763.2</ele>
        <time>2025-10-04T12:13:19Z</time>
      </trkpt>
      <trkpt lat="46.00608" lon="4.41803">
        <ele>763.2</ele>
        <time>2025-10-04T12:13:20Z</time>
      </trkpt>
      <trkpt lat="46.00605" lon="4.41799">
        <ele>763.6</ele>
        <time>2025-10-04T12:13:21Z</time>
      </trkpt>
      <trkpt lat="46.00603" lon="4.41797">
        <ele>764</ele>
        <time>2025-10-04T12:13:22Z</time>
      </trkpt>
      <trkpt lat="46.006" lon="4.41795">
        <ele>764.2</ele>
        <time>2025-10-04T12:13:23Z</time>
      </trkpt>
      <trkpt lat="46.00598" lon="4.41792">
        <ele>764.8</ele>
        <time>2025-10-04T12:13:24Z</time>
      </trkpt>
      <trkpt lat="46.00595" lon="4.4179">
        <ele>765</ele>
        <time>2025-10-04T12:13:25Z</time>
      </trkpt>
      <trkpt lat="46.00593" lon="4.41788">
        <ele>765</ele>
        <time>2025-10-04T12:13:26Z</time>
      </trkpt>
      <trkpt lat="46.00592" lon="4.41786">
        <ele>765</ele>
        <time>2025-10-04T12:13:27Z</time>
      </trkpt>
      <trkpt lat="46.0059" lon="4.41783">
        <ele>765</ele>
        <time>2025-10-04T12:13:28Z</time>
      </trkpt>
      <trkpt lat="46.00588" lon="4.4178">
        <ele>765.2</ele>
        <time>2025-10-04T12:13:29Z</time>
      </trkpt>
      <trkpt lat="46.00586" lon="4.41777">
        <ele>765.4</ele>
        <time>2025-10-04T12:13:30Z</time>
      </trkpt>
      <trkpt lat="46.00584" lon="4.41772">
        <ele>765.4</ele>
        <time>2025-10-04T12:13:31Z</time>
      </trkpt>
      <trkpt lat="46.00583" lon="4.41769">
        <ele>765.8</ele>
        <time>2025-10-04T12:13:32Z</time>
      </trkpt>
      <trkpt lat="46.00581" lon="4.41766">
        <ele>766</ele>
        <time>2025-10-04T12:13:33Z</time>
      </trkpt>
      <trkpt lat="46.00579" lon="4.41764">
        <ele>766</ele>
        <time>2025-10-04T12:13:34Z</time>
      </trkpt>
      <trkpt lat="46.00577" lon="4.41761">
        <ele>766.2</ele>
        <time>2025-10-04T12:13:35Z</time>
      </trkpt>
      <trkpt lat="46.00576" lon="4.41759">
        <ele>766.2</ele>
        <time>2025-10-04T12:13:36Z</time>
      </trkpt>
      <trkpt lat="46.00575" lon="4.41757">
        <ele>766.8</ele>
        <time>2025-10-04T12:13:37Z</time>
      </trkpt>
      <trkpt lat="46.00573" lon="4.41754">
        <ele>767</ele>
        <time>2025-10-04T12:13:38Z</time>
      </trkpt>
      <trkpt lat="46.00571" lon="4.41752">
        <ele>767.2</ele>
        <time>2025-10-04T12:13:39Z</time>
      </trkpt>
      <trkpt lat="46.0057" lon="4.41748">
        <ele>767.2</ele>
        <time>2025-10-04T12:13:40Z</time>
      </trkpt>
      <trkpt lat="46.00568" lon="4.41745">
        <ele>767.8</ele>
        <time>2025-10-04T12:13:41Z</time>
      </trkpt>
      <trkpt lat="46.00566" lon="4.41742">
        <ele>767.8</ele>
        <time>2025-10-04T12:13:42Z</time>
      </trkpt>
      <trkpt lat="46.00565" lon="4.41739">
        <ele>768</ele>
        <time>2025-10-04T12:13:43Z</time>
      </trkpt>
      <trkpt lat="46.00564" lon="4.41737">
        <ele>768.2</ele>
        <time>2025-10-04T12:13:44Z</time>
      </trkpt>
      <trkpt lat="46.00562" lon="4.41735">
        <ele>768.2</ele>
        <time>2025-10-04T12:13:45Z</time>
      </trkpt>
      <trkpt lat="46.0056" lon="4.41733">
        <ele>768.6</ele>
        <time>2025-10-04T12:13:46Z</time>
      </trkpt>
      <trkpt lat="46.00558" lon="4.4173">
        <ele>768.6</ele>
        <time>2025-10-04T12:13:47Z</time>
      </trkpt>
      <trkpt lat="46.00556" lon="4.41727">
        <ele>769.2</ele>
        <time>2025-10-04T12:13:48Z</time>
      </trkpt>
      <trkpt lat="46.00554" lon="4.41724">
        <ele>769.2</ele>
        <time>2025-10-04T12:13:49Z</time>
      </trkpt>
      <trkpt lat="46.00552" lon="4.41721">
        <ele>769.4</ele>
        <time>2025-10-04T12:13:50Z</time>
      </trkpt>
      <trkpt lat="46.0055" lon="4.41717">
        <ele>769.8</ele>
        <time>2025-10-04T12:13:51Z</time>
      </trkpt>
      <trkpt lat="46.00549" lon="4.41715">
        <ele>769.8</ele>
        <time>2025-10-04T12:13:52Z</time>
      </trkpt>
      <trkpt lat="46.00547" lon="4.41712">
        <ele>770</ele>
        <time>2025-10-04T12:13:53Z</time>
      </trkpt>
      <trkpt lat="46.00546" lon="4.41708">
        <ele>770.2</ele>
        <time>2025-10-04T12:13:54Z</time>
      </trkpt>
      <trkpt lat="46.00544" lon="4.41705">
        <ele>770.6</ele>
        <time>2025-10-04T12:13:55Z</time>
      </trkpt>
      <trkpt lat="46.00542" lon="4.41702">
        <ele>770.6</ele>
        <time>2025-10-04T12:13:56Z</time>
      </trkpt>
      <trkpt lat="46.0054" lon="4.41698">
        <ele>770.8</ele>
        <time>2025-10-04T12:13:57Z</time>
      </trkpt>
      <trkpt lat="46.00539" lon="4.41694">
        <ele>771</ele>
        <time>2025-10-04T12:13:58Z</time>
      </trkpt>
      <trkpt lat="46.00538" lon="4.41691">
        <ele>771.4</ele>
        <time>2025-10-04T12:13:59Z</time>
      </trkpt>
      <trkpt lat="46.00536" lon="4.41688">
        <ele>771.4</ele>
        <time>2025-10-04T12:14:00Z</time>
      </trkpt>
      <trkpt lat="46.00535" lon="4.41685">
        <ele>771.6</ele>
        <time>2025-10-04T12:14:01Z</time>
      </trkpt>
      <trkpt lat="46.00534" lon="4.41682">
        <ele>771.8</ele>
        <time>2025-10-04T12:14:02Z</time>
      </trkpt>
      <trkpt lat="46.00533" lon="4.41679">
        <ele>771.8</ele>
        <time>2025-10-04T12:14:03Z</time>
      </trkpt>
      <trkpt lat="46.00531" lon="4.41677">
        <ele>772</ele>
        <time>2025-10-04T12:14:04Z</time>
      </trkpt>
      <trkpt lat="46.0053" lon="4.41675">
        <ele>772</ele>
        <time>2025-10-04T12:14:05Z</time>
      </trkpt>
      <trkpt lat="46.00528" lon="4.41673">
        <ele>772.2</ele>
        <time>2025-10-04T12:14:06Z</time>
      </trkpt>
      <trkpt lat="46.00527" lon="4.4167">
        <ele>772.2</ele>
        <time>2025-10-04T12:14:07Z</time>
      </trkpt>
      <trkpt lat="46.00526" lon="4.41668">
        <ele>772.4</ele>
        <time>2025-10-04T12:14:08Z</time>
      </trkpt>
      <trkpt lat="46.00525" lon="4.41665">
        <ele>772.4</ele>
        <time>2025-10-04T12:14:09Z</time>
      </trkpt>
      <trkpt lat="46.00524" lon="4.41664">
        <ele>772.8</ele>
        <time>2025-10-04T12:14:10Z</time>
      </trkpt>
      <trkpt lat="46.00522" lon="4.41663">
        <ele>772.8</ele>
        <time>2025-10-04T12:14:11Z</time>
      </trkpt>
      <trkpt lat="46.00521" lon="4.41661">
        <ele>773.2</ele>
        <time>2025-10-04T12:14:12Z</time>
      </trkpt>
      <trkpt lat="46.0052" lon="4.41659">
        <ele>773.2</ele>
        <time>2025-10-04T12:14:13Z</time>
      </trkpt>
      <trkpt lat="46.00519" lon="4.41657">
        <ele>773.4</ele>
        <time>2025-10-04T12:14:14Z</time>
      </trkpt>
      <trkpt lat="46.00518" lon="4.41655">
        <ele>773.4</ele>
        <time>2025-10-04T12:14:15Z</time>
      </trkpt>
      <trkpt lat="46.00517" lon="4.41653">
        <ele>773.8</ele>
        <time>2025-10-04T12:14:16Z</time>
      </trkpt>
      <trkpt lat="46.00516" lon="4.4165">
        <ele>774</ele>
        <time>2025-10-04T12:14:17Z</time>
      </trkpt>
      <trkpt lat="46.00514" lon="4.41647">
        <ele>774.4</ele>
        <time>2025-10-04T12:14:18Z</time>
      </trkpt>
      <trkpt lat="46.00514" lon="4.41645">
        <ele>774.4</ele>
        <time>2025-10-04T12:14:19Z</time>
      </trkpt>
      <trkpt lat="46.00513" lon="4.41644">
        <ele>774.8</ele>
        <time>2025-10-04T12:14:20Z</time>
      </trkpt>
      <trkpt lat="46.00512" lon="4.41642">
        <ele>775</ele>
        <time>2025-10-04T12:14:21Z</time>
      </trkpt>
      <trkpt lat="46.00511" lon="4.4164">
        <ele>775.2</ele>
        <time>2025-10-04T12:14:22Z</time>
      </trkpt>
      <trkpt lat="46.0051" lon="4.41638">
        <ele>775.4</ele>
        <time>2025-10-04T12:14:23Z</time>
      </trkpt>
      <trkpt lat="46.00509" lon="4.41636">
        <ele>775.4</ele>
        <time>2025-10-04T12:14:24Z</time>
      </trkpt>
      <trkpt lat="46.00508" lon="4.41633">
        <ele>775.8</ele>
        <time>2025-10-04T12:14:25Z</time>
      </trkpt>
      <trkpt lat="46.00508" lon="4.4163">
        <ele>775.8</ele>
        <time>2025-10-04T12:14:26Z</time>
      </trkpt>
      <trkpt lat="46.00508" lon="4.41626">
        <ele>776.2</ele>
        <time>2025-10-04T12:14:27Z</time>
      </trkpt>
      <trkpt lat="46.00508" lon="4.41622">
        <ele>776.2</ele>
        <time>2025-10-04T12:14:28Z</time>
      </trkpt>
      <trkpt lat="46.00507" lon="4.4162">
        <ele>776.2</ele>
        <time>2025-10-04T12:14:29Z</time>
      </trkpt>
      <trkpt lat="46.00505" lon="4.41618">
        <ele>776.4</ele>
        <time>2025-10-04T12:14:30Z</time>
      </trkpt>
      <trkpt lat="46.00504" lon="4.41617">
        <ele>776.4</ele>
        <time>2025-10-04T12:14:31Z</time>
      </trkpt>
      <trkpt lat="46.00503" lon="4.41616">
        <ele>776.4</ele>
        <time>2025-10-04T12:14:32Z</time>
      </trkpt>
      <trkpt lat="46.00501" lon="4.41614">
        <ele>776.4</ele>
        <time>2025-10-04T12:14:33Z</time>
      </trkpt>
      <trkpt lat="46.005" lon="4.41612">
        <ele>776.8</ele>
        <time>2025-10-04T12:14:34Z</time>
      </trkpt>
      <trkpt lat="46.00499" lon="4.4161">
        <ele>776.8</ele>
        <time>2025-10-04T12:14:35Z</time>
      </trkpt>
      <trkpt lat="46.00498" lon="4.41608">
        <ele>777</ele>
        <time>2025-10-04T12:14:36Z</time>
      </trkpt>
      <trkpt lat="46.00497" lon="4.41605">
        <ele>777</ele>
        <time>2025-10-04T12:14:37Z</time>
      </trkpt>
      <trkpt lat="46.00496" lon="4.41602">
        <ele>777.4</ele>
        <time>2025-10-04T12:14:38Z</time>
      </trkpt>
      <trkpt lat="46.00494" lon="4.41601">
        <ele>777.4</ele>
        <time>2025-10-04T12:14:39Z</time>
      </trkpt>
      <trkpt lat="46.00492" lon="4.41598">
        <ele>777.4</ele>
        <time>2025-10-04T12:14:40Z</time>
      </trkpt>
      <trkpt lat="46.0049" lon="4.41595">
        <ele>777.4</ele>
        <time>2025-10-04T12:14:41Z</time>
      </trkpt>
      <trkpt lat="46.00489" lon="4.41592">
        <ele>777.6</ele>
        <time>2025-10-04T12:14:42Z</time>
      </trkpt>
      <trkpt lat="46.00487" lon="4.41589">
        <ele>777.8</ele>
        <time>2025-10-04T12:14:43Z</time>
      </trkpt>
      <trkpt lat="46.00486" lon="4.41587">
        <ele>778</ele>
        <time>2025-10-04T12:14:44Z</time>
      </trkpt>
      <trkpt lat="46.00485" lon="4.41584">
        <ele>778</ele>
        <time>2025-10-04T12:14:45Z</time>
      </trkpt>
      <trkpt lat="46.00483" lon="4.41581">
        <ele>778.4</ele>
        <time>2025-10-04T12:14:46Z</time>
      </trkpt>
      <trkpt lat="46.00482" lon="4.41577">
        <ele>778.4</ele>
        <time>2025-10-04T12:14:47Z</time>
      </trkpt>
      <trkpt lat="46.00481" lon="4.41574">
        <ele>778.6</ele>
        <time>2025-10-04T12:14:48Z</time>
      </trkpt>
      <trkpt lat="46.0048" lon="4.41571">
        <ele>778.6</ele>
        <time>2025-10-04T12:14:49Z</time>
      </trkpt>
      <trkpt lat="46.0048" lon="4.41567">
        <ele>778.4</ele>
        <time>2025-10-04T12:14:50Z</time>
      </trkpt>
      <trkpt lat="46.0048" lon="4.41564">
        <ele>778.4</ele>
        <time>2025-10-04T12:14:51Z</time>
      </trkpt>
      <trkpt lat="46.00479" lon="4.41562">
        <ele>778.4</ele>
        <time>2025-10-04T12:14:52Z</time>
      </trkpt>
      <trkpt lat="46.00479" lon="4.41559">
        <ele>778.4</ele>
        <time>2025-10-04T12:14:53Z</time>
      </trkpt>
      <trkpt lat="46.00478" lon="4.41555">
        <ele>778.6</ele>
        <time>2025-10-04T12:14:54Z</time>
      </trkpt>
      <trkpt lat="46.00478" lon="4.41551">
        <ele>778.6</ele>
        <time>2025-10-04T12:14:55Z</time>
      </trkpt>
      <trkpt lat="46.00477" lon="4.41546">
        <ele>778.8</ele>
        <time>2025-10-04T12:14:56Z</time>
      </trkpt>
      <trkpt lat="46.00475" lon="4.41542">
        <ele>778.8</ele>
        <time>2025-10-04T12:14:57Z</time>
      </trkpt>
      <trkpt lat="46.00474" lon="4.41537">
        <ele>779.2</ele>
        <time>2025-10-04T12:14:58Z</time>
      </trkpt>
      <trkpt lat="46.00472" lon="4.41533">
        <ele>778.8</ele>
        <time>2025-10-04T12:14:59Z</time>
      </trkpt>
      <trkpt lat="46.0047" lon="4.41529">
        <ele>778.6</ele>
        <time>2025-10-04T12:15:00Z</time>
      </trkpt>
      <trkpt lat="46.00469" lon="4.41524">
        <ele>778.4</ele>
        <time>2025-10-04T12:15:01Z</time>
      </trkpt>
      <trkpt lat="46.00467" lon="4.41513">
        <ele>778</ele>
        <time>2025-10-04T12:15:02Z</time>
      </trkpt>
      <trkpt lat="46.00466" lon="4.41505">
        <ele>777.8</ele>
        <time>2025-10-04T12:15:03Z</time>
      </trkpt>
      <trkpt lat="46.00463" lon="4.41497">
        <ele>777</ele>
        <time>2025-10-04T12:15:04Z</time>
      </trkpt>
      <trkpt lat="46.0046" lon="4.4149">
        <ele>776.6</ele>
        <time>2025-10-04T12:15:05Z</time>
      </trkpt>
      <trkpt lat="46.00458" lon="4.41482">
        <ele>776.2</ele>
        <time>2025-10-04T12:15:06Z</time>
      </trkpt>
      <trkpt lat="46.00455" lon="4.41471">
        <ele>775.8</ele>
        <time>2025-10-04T12:15:07Z</time>
      </trkpt>
      <trkpt lat="46.00452" lon="4.41463">
        <ele>775.2</ele>
        <time>2025-10-04T12:15:08Z</time>
      </trkpt>
      <trkpt lat="46.00445" lon="4.41456">
        <ele>775</ele>
        <time>2025-10-04T12:15:09Z</time>
      </trkpt>
      <trkpt lat="46.0044" lon="4.41451">
        <ele>774.4</ele>
        <time>2025-10-04T12:15:10Z</time>
      </trkpt>
      <trkpt lat="46.00434" lon="4.41444">
        <ele>774</ele>
        <time>2025-10-04T12:15:11Z</time>
      </trkpt>
      <trkpt lat="46.00429" lon="4.41437">
        <ele>773.8</ele>
        <time>2025-10-04T12:15:12Z</time>
      </trkpt>
      <trkpt lat="46.00424" lon="4.41432">
        <ele>773.8</ele>
        <time>2025-10-04T12:15:13Z</time>
      </trkpt>
      <trkpt lat="46.00419" lon="4.41426">
        <ele>773.4</ele>
        <time>2025-10-04T12:15:14Z</time>
      </trkpt>
      <trkpt lat="46.00415" lon="4.4142">
        <ele>773.2</ele>
        <time>2025-10-04T12:15:15Z</time>
      </trkpt>
      <trkpt lat="46.0041" lon="4.41417">
        <ele>773.2</ele>
        <time>2025-10-04T12:15:16Z</time>
      </trkpt>
      <trkpt lat="46.00405" lon="4.41413">
        <ele>773.2</ele>
        <time>2025-10-04T12:15:17Z</time>
      </trkpt>
      <trkpt lat="46.004" lon="4.4141">
        <ele>773.2</ele>
        <time>2025-10-04T12:15:18Z</time>
      </trkpt>
      <trkpt lat="46.00395" lon="4.41406">
        <ele>772.8</ele>
        <time>2025-10-04T12:15:19Z</time>
      </trkpt>
      <trkpt lat="46.0039" lon="4.41401">
        <ele>772.6</ele>
        <time>2025-10-04T12:15:20Z</time>
      </trkpt>
      <trkpt lat="46.00386" lon="4.41397">
        <ele>772</ele>
        <time>2025-10-04T12:15:21Z</time>
      </trkpt>
      <trkpt lat="46.00379" lon="4.41396">
        <ele>771.6</ele>
        <time>2025-10-04T12:15:22Z</time>
      </trkpt>
      <trkpt lat="46.00376" lon="4.41393">
        <ele>770.8</ele>
        <time>2025-10-04T12:15:23Z</time>
      </trkpt>
      <trkpt lat="46.00369" lon="4.41391">
        <ele>770.4</ele>
        <time>2025-10-04T12:15:24Z</time>
      </trkpt>
      <trkpt lat="46.00363" lon="4.41392">
        <ele>770.4</ele>
        <time>2025-10-04T12:15:25Z</time>
      </trkpt>
      <trkpt lat="46.00359" lon="4.41394">
        <ele>770.6</ele>
        <time>2025-10-04T12:15:26Z</time>
      </trkpt>
      <trkpt lat="46.00353" lon="4.41391">
        <ele>770.6</ele>
        <time>2025-10-04T12:15:27Z</time>
      </trkpt>
      <trkpt lat="46.00348" lon="4.41394">
        <ele>770.8</ele>
        <time>2025-10-04T12:15:28Z</time>
      </trkpt>
      <trkpt lat="46.00343" lon="4.41396">
        <ele>770.8</ele>
        <time>2025-10-04T12:15:29Z</time>
      </trkpt>
      <trkpt lat="46.00338" lon="4.41398">
        <ele>770.8</ele>
        <time>2025-10-04T12:15:30Z</time>
      </trkpt>
      <trkpt lat="46.00333" lon="4.414">
        <ele>770.6</ele>
        <time>2025-10-04T12:15:31Z</time>
      </trkpt>
      <trkpt lat="46.00328" lon="4.41401">
        <ele>770</ele>
        <time>2025-10-04T12:15:32Z</time>
      </trkpt>
      <trkpt lat="46.00323" lon="4.41402">
        <ele>770</ele>
        <time>2025-10-04T12:15:33Z</time>
      </trkpt>
      <trkpt lat="46.00317" lon="4.41403">
        <ele>770.4</ele>
        <time>2025-10-04T12:15:34Z</time>
      </trkpt>
      <trkpt lat="46.00312" lon="4.41407">
        <ele>770.4</ele>
        <time>2025-10-04T12:15:35Z</time>
      </trkpt>
      <trkpt lat="46.00306" lon="4.41409">
        <ele>770.8</ele>
        <time>2025-10-04T12:15:36Z</time>
      </trkpt>
      <trkpt lat="46.00302" lon="4.41411">
        <ele>770.8</ele>
        <time>2025-10-04T12:15:37Z</time>
      </trkpt>
      <trkpt lat="46.00296" lon="4.41414">
        <ele>770.8</ele>
        <time>2025-10-04T12:15:38Z</time>
      </trkpt>
      <trkpt lat="46.00291" lon="4.41417">
        <ele>770.4</ele>
        <time>2025-10-04T12:15:39Z</time>
      </trkpt>
      <trkpt lat="46.00287" lon="4.41421">
        <ele>770.2</ele>
        <time>2025-10-04T12:15:40Z</time>
      </trkpt>
      <trkpt lat="46.00282" lon="4.4142">
        <ele>770.2</ele>
        <time>2025-10-04T12:15:41Z</time>
      </trkpt>
      <trkpt lat="46.00275" lon="4.41423">
        <ele>769.8</ele>
        <time>2025-10-04T12:15:42Z</time>
      </trkpt>
      <trkpt lat="46.0027" lon="4.41424">
        <ele>769</ele>
        <time>2025-10-04T12:15:43Z</time>
      </trkpt>
      <trkpt lat="46.00263" lon="4.41426">
        <ele>769</ele>
        <time>2025-10-04T12:15:44Z</time>
      </trkpt>
      <trkpt lat="46.00255" lon="4.41428">
        <ele>768.6</ele>
        <time>2025-10-04T12:15:45Z</time>
      </trkpt>
      <trkpt lat="46.00249" lon="4.4143">
        <ele>768.6</ele>
        <time>2025-10-04T12:15:46Z</time>
      </trkpt>
      <trkpt lat="46.00243" lon="4.41432">
        <ele>768.6</ele>
        <time>2025-10-04T12:15:47Z</time>
      </trkpt>
      <trkpt lat="46.00237" lon="4.41433">
        <ele>768.6</ele>
        <time>2025-10-04T12:15:48Z</time>
      </trkpt>
      <trkpt lat="46.00231" lon="4.41436">
        <ele>768.6</ele>
        <time>2025-10-04T12:15:49Z</time>
      </trkpt>
      <trkpt lat="46.00227" lon="4.41438">
        <ele>768.6</ele>
        <time>2025-10-04T12:15:50Z</time>
      </trkpt>
      <trkpt lat="46.00222" lon="4.4144">
        <ele>768.6</ele>
        <time>2025-10-04T12:15:51Z</time>
      </trkpt>
      <trkpt lat="46.00222" lon="4.4144">
        <ele>768.6</ele>
        <time>2025-10-04T12:15:52Z</time>
      </trkpt>
      <trkpt lat="46.00222" lon="4.4144">
        <ele>769</ele>
        <time>2025-10-04T12:15:53Z</time>
      </trkpt>
      <trkpt lat="46.00204" lon="4.41451">
        <ele>769</ele>
        <time>2025-10-04T12:15:55Z</time>
      </trkpt>
      <trkpt lat="46.002" lon="4.41451">
        <ele>769.2</ele>
        <time>2025-10-04T12:15:56Z</time>
      </trkpt>
      <trkpt lat="46.00197" lon="4.41453">
        <ele>769.2</ele>
        <time>2025-10-04T12:15:57Z</time>
      </trkpt>
      <trkpt lat="46.00193" lon="4.41454">
        <ele>769.4</ele>
        <time>2025-10-04T12:15:58Z</time>
      </trkpt>
      <trkpt lat="46.0019" lon="4.41456">
        <ele>769.4</ele>
        <time>2025-10-04T12:15:59Z</time>
      </trkpt>
      <trkpt lat="46.00186" lon="4.41458">
        <ele>769.6</ele>
        <time>2025-10-04T12:16:00Z</time>
      </trkpt>
      <trkpt lat="46.0018" lon="4.41458">
        <ele>769.6</ele>
        <time>2025-10-04T12:16:01Z</time>
      </trkpt>
      <trkpt lat="46.00176" lon="4.41458">
        <ele>769.6</ele>
        <time>2025-10-04T12:16:02Z</time>
      </trkpt>
      <trkpt lat="46.00173" lon="4.41459">
        <ele>770</ele>
        <time>2025-10-04T12:16:03Z</time>
      </trkpt>
      <trkpt lat="46.0017" lon="4.4146">
        <ele>770</ele>
        <time>2025-10-04T12:16:04Z</time>
      </trkpt>
      <trkpt lat="46.00168" lon="4.41462">
        <ele>770.4</ele>
        <time>2025-10-04T12:16:05Z</time>
      </trkpt>
      <trkpt lat="46.00163" lon="4.41462">
        <ele>770.4</ele>
        <time>2025-10-04T12:16:06Z</time>
      </trkpt>
      <trkpt lat="46.0016" lon="4.41463">
        <ele>770.6</ele>
        <time>2025-10-04T12:16:07Z</time>
      </trkpt>
      <trkpt lat="46.00154" lon="4.41464">
        <ele>770.6</ele>
        <time>2025-10-04T12:16:08Z</time>
      </trkpt>
      <trkpt lat="46.00149" lon="4.41464">
        <ele>771</ele>
        <time>2025-10-04T12:16:09Z</time>
      </trkpt>
      <trkpt lat="46.00145" lon="4.41465">
        <ele>771.2</ele>
        <time>2025-10-04T12:16:10Z</time>
      </trkpt>
      <trkpt lat="46.00142" lon="4.41467">
        <ele>771.6</ele>
        <time>2025-10-04T12:16:11Z</time>
      </trkpt>
      <trkpt lat="46.00138" lon="4.41468">
        <ele>771.8</ele>
        <time>2025-10-04T12:16:12Z</time>
      </trkpt>
      <trkpt lat="46.00134" lon="4.41469">
        <ele>772.2</ele>
        <time>2025-10-04T12:16:13Z</time>
      </trkpt>
      <trkpt lat="46.0013" lon="4.41469">
        <ele>772.2</ele>
        <time>2025-10-04T12:16:14Z</time>
      </trkpt>
      <trkpt lat="46.00126" lon="4.41471">
        <ele>772.6</ele>
        <time>2025-10-04T12:16:15Z</time>
      </trkpt>
      <trkpt lat="46.00122" lon="4.41474">
        <ele>772.6</ele>
        <time>2025-10-04T12:16:16Z</time>
      </trkpt>
      <trkpt lat="46.00119" lon="4.41477">
        <ele>773</ele>
        <time>2025-10-04T12:16:17Z</time>
      </trkpt>
      <trkpt lat="46.00117" lon="4.41478">
        <ele>773</ele>
        <time>2025-10-04T12:16:18Z</time>
      </trkpt>
      <trkpt lat="46.00114" lon="4.41479">
        <ele>773.6</ele>
        <time>2025-10-04T12:16:19Z</time>
      </trkpt>
      <trkpt lat="46.00114" lon="4.41479">
        <ele>774</ele>
        <time>2025-10-04T12:16:20Z</time>
      </trkpt>
      <trkpt lat="46.00112" lon="4.41481">
        <ele>774</ele>
        <time>2025-10-04T12:16:21Z</time>
      </trkpt>
      <trkpt lat="46.0011" lon="4.41482">
        <ele>774.2</ele>
        <time>2025-10-04T12:16:22Z</time>
      </trkpt>
      <trkpt lat="46.00108" lon="4.41483">
        <ele>774.4</ele>
        <time>2025-10-04T12:16:23Z</time>
      </trkpt>
      <trkpt lat="46.00107" lon="4.41484">
        <ele>774.8</ele>
        <time>2025-10-04T12:16:24Z</time>
      </trkpt>
      <trkpt lat="46.00106" lon="4.41485">
        <ele>775.2</ele>
        <time>2025-10-04T12:16:25Z</time>
      </trkpt>
      <trkpt lat="46.00105" lon="4.41487">
        <ele>775.4</ele>
        <time>2025-10-04T12:16:26Z</time>
      </trkpt>
      <trkpt lat="46.00104" lon="4.41489">
        <ele>775.6</ele>
        <time>2025-10-04T12:16:27Z</time>
      </trkpt>
      <trkpt lat="46.00103" lon="4.41491">
        <ele>776</ele>
        <time>2025-10-04T12:16:28Z</time>
      </trkpt>
      <trkpt lat="46.00101" lon="4.41493">
        <ele>776</ele>
        <time>2025-10-04T12:16:29Z</time>
      </trkpt>
      <trkpt lat="46.001" lon="4.41496">
        <ele>776.4</ele>
        <time>2025-10-04T12:16:30Z</time>
      </trkpt>
      <trkpt lat="46.00099" lon="4.41497">
        <ele>776.8</ele>
        <time>2025-10-04T12:16:31Z</time>
      </trkpt>
      <trkpt lat="46.00097" lon="4.41499">
        <ele>777</ele>
        <time>2025-10-04T12:16:32Z</time>
      </trkpt>
      <trkpt lat="46.00095" lon="4.415">
        <ele>777.4</ele>
        <time>2025-10-04T12:16:33Z</time>
      </trkpt>
      <trkpt lat="46.00094" lon="4.41501">
        <ele>777.6</ele>
        <time>2025-10-04T12:16:34Z</time>
      </trkpt>
      <trkpt lat="46.00093" lon="4.41503">
        <ele>777.8</ele>
        <time>2025-10-04T12:16:35Z</time>
      </trkpt>
      <trkpt lat="46.00091" lon="4.41505">
        <ele>778.2</ele>
        <time>2025-10-04T12:16:36Z</time>
      </trkpt>
      <trkpt lat="46.00089" lon="4.41507">
        <ele>778.6</ele>
        <time>2025-10-04T12:16:37Z</time>
      </trkpt>
      <trkpt lat="46.00088" lon="4.41509">
        <ele>778.8</ele>
        <time>2025-10-04T12:16:38Z</time>
      </trkpt>
      <trkpt lat="46.00087" lon="4.41511">
        <ele>778.8</ele>
        <time>2025-10-04T12:16:39Z</time>
      </trkpt>
      <trkpt lat="46.00086" lon="4.41512">
        <ele>779.2</ele>
        <time>2025-10-04T12:16:40Z</time>
      </trkpt>
      <trkpt lat="46.00084" lon="4.41513">
        <ele>779.2</ele>
        <time>2025-10-04T12:16:41Z</time>
      </trkpt>
      <trkpt lat="46.00082" lon="4.41514">
        <ele>779.6</ele>
        <time>2025-10-04T12:16:42Z</time>
      </trkpt>
      <trkpt lat="46.00081" lon="4.41515">
        <ele>779.8</ele>
        <time>2025-10-04T12:16:43Z</time>
      </trkpt>
      <trkpt lat="46.0008" lon="4.41518">
        <ele>780</ele>
        <time>2025-10-04T12:16:44Z</time>
      </trkpt>
      <trkpt lat="46.00079" lon="4.4152">
        <ele>780</ele>
        <time>2025-10-04T12:16:45Z</time>
      </trkpt>
      <trkpt lat="46.00079" lon="4.41522">
        <ele>780.4</ele>
        <time>2025-10-04T12:16:46Z</time>
      </trkpt>
      <trkpt lat="46.00077" lon="4.41524">
        <ele>780.4</ele>
        <time>2025-10-04T12:16:47Z</time>
      </trkpt>
      <trkpt lat="46.00076" lon="4.41525">
        <ele>780.8</ele>
        <time>2025-10-04T12:16:48Z</time>
      </trkpt>
      <trkpt lat="46.00074" lon="4.41526">
        <ele>780.8</ele>
        <time>2025-10-04T12:16:49Z</time>
      </trkpt>
      <trkpt lat="46.00071" lon="4.41527">
        <ele>781</ele>
        <time>2025-10-04T12:16:50Z</time>
      </trkpt>
      <trkpt lat="46.00068" lon="4.41529">
        <ele>781.2</ele>
        <time>2025-10-04T12:16:51Z</time>
      </trkpt>
      <trkpt lat="46.00065" lon="4.4153">
        <ele>781.2</ele>
        <time>2025-10-04T12:16:52Z</time>
      </trkpt>
      <trkpt lat="46.00063" lon="4.41533">
        <ele>781.6</ele>
        <time>2025-10-04T12:16:53Z</time>
      </trkpt>
      <trkpt lat="46.00061" lon="4.41535">
        <ele>781.6</ele>
        <time>2025-10-04T12:16:54Z</time>
      </trkpt>
      <trkpt lat="46.0006" lon="4.41537">
        <ele>781.8</ele>
        <time>2025-10-04T12:16:55Z</time>
      </trkpt>
      <trkpt lat="46.00058" lon="4.4154">
        <ele>781.8</ele>
        <time>2025-10-04T12:16:56Z</time>
      </trkpt>
      <trkpt lat="46.00056" lon="4.41543">
        <ele>781.8</ele>
        <time>2025-10-04T12:16:57Z</time>
      </trkpt>
      <trkpt lat="46.00053" lon="4.41545">
        <ele>782</ele>
        <time>2025-10-04T12:16:58Z</time>
      </trkpt>
      <trkpt lat="46.00051" lon="4.41548">
        <ele>782</ele>
        <time>2025-10-04T12:16:59Z</time>
      </trkpt>
      <trkpt lat="46.00049" lon="4.4155">
        <ele>782.4</ele>
        <time>2025-10-04T12:17:00Z</time>
      </trkpt>
      <trkpt lat="46.00048" lon="4.41552">
        <ele>782.4</ele>
        <time>2025-10-04T12:17:01Z</time>
      </trkpt>
      <trkpt lat="46.00045" lon="4.41554">
        <ele>782.6</ele>
        <time>2025-10-04T12:17:02Z</time>
      </trkpt>
      <trkpt lat="46.00043" lon="4.41556">
        <ele>782.6</ele>
        <time>2025-10-04T12:17:03Z</time>
      </trkpt>
      <trkpt lat="46.00042" lon="4.41558">
        <ele>782.6</ele>
        <time>2025-10-04T12:17:04Z</time>
      </trkpt>
      <trkpt lat="46.0004" lon="4.41559">
        <ele>782.8</ele>
        <time>2025-10-04T12:17:05Z</time>
      </trkpt>
      <trkpt lat="46.00038" lon="4.41562">
        <ele>782.8</ele>
        <time>2025-10-04T12:17:06Z</time>
      </trkpt>
      <trkpt lat="46.00037" lon="4.41565">
        <ele>782.8</ele>
        <time>2025-10-04T12:17:07Z</time>
      </trkpt>
      <trkpt lat="46.00036" lon="4.41567">
        <ele>783.2</ele>
        <time>2025-10-04T12:17:08Z</time>
      </trkpt>
      <trkpt lat="46.00035" lon="4.41569">
        <ele>783.2</ele>
        <time>2025-10-04T12:17:09Z</time>
      </trkpt>
      <trkpt lat="46.00033" lon="4.41573">
        <ele>783.2</ele>
        <time>2025-10-04T12:17:10Z</time>
      </trkpt>
      <trkpt lat="46.00031" lon="4.41577">
        <ele>783.4</ele>
        <time>2025-10-04T12:17:11Z</time>
      </trkpt>
      <trkpt lat="46.0003" lon="4.41582">
        <ele>783.4</ele>
        <time>2025-10-04T12:17:12Z</time>
      </trkpt>
      <trkpt lat="46.00028" lon="4.41586">
        <ele>783.4</ele>
        <time>2025-10-04T12:17:13Z</time>
      </trkpt>
      <trkpt lat="46.00027" lon="4.4159">
        <ele>783.6</ele>
        <time>2025-10-04T12:17:14Z</time>
      </trkpt>
      <trkpt lat="46.00026" lon="4.41595">
        <ele>783.6</ele>
        <time>2025-10-04T12:17:15Z</time>
      </trkpt>
      <trkpt lat="46.00024" lon="4.41599">
        <ele>783.6</ele>
        <time>2025-10-04T12:17:16Z</time>
      </trkpt>
      <trkpt lat="46.00023" lon="4.41602">
        <ele>784</ele>
        <time>2025-10-04T12:17:17Z</time>
      </trkpt>
      <trkpt lat="46.00021" lon="4.41606">
        <ele>784</ele>
        <time>2025-10-04T12:17:18Z</time>
      </trkpt>
      <trkpt lat="46.00019" lon="4.41611">
        <ele>784</ele>
        <time>2025-10-04T12:17:19Z</time>
      </trkpt>
      <trkpt lat="46.00017" lon="4.41616">
        <ele>784</ele>
        <time>2025-10-04T12:17:20Z</time>
      </trkpt>
      <trkpt lat="46.00016" lon="4.41621">
        <ele>784.2</ele>
        <time>2025-10-04T12:17:21Z</time>
      </trkpt>
      <trkpt lat="46.00015" lon="4.41626">
        <ele>784.2</ele>
        <time>2025-10-04T12:17:22Z</time>
      </trkpt>
      <trkpt lat="46.00015" lon="4.41631">
        <ele>784.2</ele>
        <time>2025-10-04T12:17:23Z</time>
      </trkpt>
      <trkpt lat="46.00015" lon="4.41634">
        <ele>784.6</ele>
        <time>2025-10-04T12:17:24Z</time>
      </trkpt>
      <trkpt lat="46.00014" lon="4.41638">
        <ele>784.6</ele>
        <time>2025-10-04T12:17:25Z</time>
      </trkpt>
      <trkpt lat="46.00013" lon="4.41643">
        <ele>784.8</ele>
        <time>2025-10-04T12:17:26Z</time>
      </trkpt>
      <trkpt lat="46.00011" lon="4.41647">
        <ele>784.8</ele>
        <time>2025-10-04T12:17:27Z</time>
      </trkpt>
      <trkpt lat="46.00011" lon="4.41651">
        <ele>785.2</ele>
        <time>2025-10-04T12:17:28Z</time>
      </trkpt>
      <trkpt lat="46.0001" lon="4.41656">
        <ele>785.2</ele>
        <time>2025-10-04T12:17:29Z</time>
      </trkpt>
      <trkpt lat="46.00009" lon="4.4166">
        <ele>785.6</ele>
        <time>2025-10-04T12:17:30Z</time>
      </trkpt>
      <trkpt lat="46.00008" lon="4.41663">
        <ele>785.6</ele>
        <time>2025-10-04T12:17:31Z</time>
      </trkpt>
      <trkpt lat="46.00007" lon="4.41668">
        <ele>785.8</ele>
        <time>2025-10-04T12:17:32Z</time>
      </trkpt>
      <trkpt lat="46.00007" lon="4.41672">
        <ele>785.8</ele>
        <time>2025-10-04T12:17:33Z</time>
      </trkpt>
      <trkpt lat="46.00006" lon="4.41676">
        <ele>785.8</ele>
        <time>2025-10-04T12:17:34Z</time>
      </trkpt>
      <trkpt lat="46.00005" lon="4.4168">
        <ele>785.8</ele>
        <time>2025-10-04T12:17:35Z</time>
      </trkpt>
      <trkpt lat="46.00003" lon="4.41685">
        <ele>786.2</ele>
        <time>2025-10-04T12:17:36Z</time>
      </trkpt>
      <trkpt lat="46.00001" lon="4.41689">
        <ele>786.2</ele>
        <time>2025-10-04T12:17:37Z</time>
      </trkpt>
      <trkpt lat="46" lon="4.41694">
        <ele>786.6</ele>
        <time>2025-10-04T12:17:38Z</time>
      </trkpt>
      <trkpt lat="45.99999" lon="4.41699">
        <ele>787</ele>
        <time>2025-10-04T12:17:39Z</time>
      </trkpt>
      <trkpt lat="45.99999" lon="4.41703">
        <ele>787.2</ele>
        <time>2025-10-04T12:17:40Z</time>
      </trkpt>
      <trkpt lat="45.99997" lon="4.41707">
        <ele>787.2</ele>
        <time>2025-10-04T12:17:41Z</time>
      </trkpt>
      <trkpt lat="45.99995" lon="4.4171">
        <ele>787.6</ele>
        <time>2025-10-04T12:17:42Z</time>
      </trkpt>
      <trkpt lat="45.99993" lon="4.41713">
        <ele>787.6</ele>
        <time>2025-10-04T12:17:43Z</time>
      </trkpt>
      <trkpt lat="45.99991" lon="4.41716">
        <ele>788</ele>
        <time>2025-10-04T12:17:44Z</time>
      </trkpt>
      <trkpt lat="45.9999" lon="4.41719">
        <ele>788</ele>
        <time>2025-10-04T12:17:45Z</time>
      </trkpt>
      <trkpt lat="45.99989" lon="4.4172">
        <ele>788.2</ele>
        <time>2025-10-04T12:17:46Z</time>
      </trkpt>
      <trkpt lat="45.9999" lon="4.41723">
        <ele>788.2</ele>
        <time>2025-10-04T12:17:47Z</time>
      </trkpt>
      <trkpt lat="45.9999" lon="4.41725">
        <ele>788.2</ele>
        <time>2025-10-04T12:17:48Z</time>
      </trkpt>
      <trkpt lat="45.99991" lon="4.41727">
        <ele>788.6</ele>
        <time>2025-10-04T12:17:49Z</time>
      </trkpt>
      <trkpt lat="45.99991" lon="4.41728">
        <ele>788.6</ele>
        <time>2025-10-04T12:17:50Z</time>
      </trkpt>
      <trkpt lat="45.9999" lon="4.4173">
        <ele>788.6</ele>
        <time>2025-10-04T12:17:51Z</time>
      </trkpt>
      <trkpt lat="45.99989" lon="4.41733">
        <ele>788.6</ele>
        <time>2025-10-04T12:17:52Z</time>
      </trkpt>
      <trkpt lat="45.99987" lon="4.41734">
        <ele>788.6</ele>
        <time>2025-10-04T12:17:53Z</time>
      </trkpt>
      <trkpt lat="45.99987" lon="4.41735">
        <ele>788.6</ele>
        <time>2025-10-04T12:17:54Z</time>
      </trkpt>
      <trkpt lat="45.99986" lon="4.41736">
        <ele>788.6</ele>
        <time>2025-10-04T12:17:55Z</time>
      </trkpt>
      <trkpt lat="45.99986" lon="4.41736">
        <ele>788.6</ele>
        <time>2025-10-04T12:17:56Z</time>
      </trkpt>
      <trkpt lat="45.99976" lon="4.41744">
        <ele>788.4</ele>
        <time>2025-10-04T12:20:37Z</time>
      </trkpt>
      <trkpt lat="45.99975" lon="4.41746">
        <ele>788.4</ele>
        <time>2025-10-04T12:20:38Z</time>
      </trkpt>
      <trkpt lat="45.99975" lon="4.41748">
        <ele>788.4</ele>
        <time>2025-10-04T12:20:39Z</time>
      </trkpt>
      <trkpt lat="45.99975" lon="4.4175">
        <ele>788.4</ele>
        <time>2025-10-04T12:20:40Z</time>
      </trkpt>
      <trkpt lat="45.99974" lon="4.41753">
        <ele>788.4</ele>
        <time>2025-10-04T12:20:41Z</time>
      </trkpt>
      <trkpt lat="45.99972" lon="4.41756">
        <ele>788.4</ele>
        <time>2025-10-04T12:20:42Z</time>
      </trkpt>
      <trkpt lat="45.99969" lon="4.4176">
        <ele>788.4</ele>
        <time>2025-10-04T12:20:43Z</time>
      </trkpt>
      <trkpt lat="45.99966" lon="4.41764">
        <ele>788.4</ele>
        <time>2025-10-04T12:20:44Z</time>
      </trkpt>
      <trkpt lat="45.99963" lon="4.41768">
        <ele>788.4</ele>
        <time>2025-10-04T12:20:45Z</time>
      </trkpt>
      <trkpt lat="45.9996" lon="4.41774">
        <ele>788.4</ele>
        <time>2025-10-04T12:20:46Z</time>
      </trkpt>
      <trkpt lat="45.99957" lon="4.41778">
        <ele>789</ele>
        <time>2025-10-04T12:20:47Z</time>
      </trkpt>
      <trkpt lat="45.99955" lon="4.41782">
        <ele>789</ele>
        <time>2025-10-04T12:20:48Z</time>
      </trkpt>
      <trkpt lat="45.99954" lon="4.41784">
        <ele>789.2</ele>
        <time>2025-10-04T12:20:49Z</time>
      </trkpt>
      <trkpt lat="45.99952" lon="4.41787">
        <ele>789.2</ele>
        <time>2025-10-04T12:20:50Z</time>
      </trkpt>
      <trkpt lat="45.9995" lon="4.4179">
        <ele>789.2</ele>
        <time>2025-10-04T12:20:51Z</time>
      </trkpt>
      <trkpt lat="45.99947" lon="4.41794">
        <ele>789.2</ele>
        <time>2025-10-04T12:20:52Z</time>
      </trkpt>
      <trkpt lat="45.99939" lon="4.41805">
        <ele>788.8</ele>
        <time>2025-10-04T12:20:53Z</time>
      </trkpt>
      <trkpt lat="45.99936" lon="4.41808">
        <ele>788.8</ele>
        <time>2025-10-04T12:20:54Z</time>
      </trkpt>
      <trkpt lat="45.99934" lon="4.4181">
        <ele>788.4</ele>
        <time>2025-10-04T12:20:55Z</time>
      </trkpt>
      <trkpt lat="45.99928" lon="4.41818">
        <ele>788.2</ele>
        <time>2025-10-04T12:20:56Z</time>
      </trkpt>
      <trkpt lat="45.99923" lon="4.41824">
        <ele>788</ele>
        <time>2025-10-04T12:20:57Z</time>
      </trkpt>
      <trkpt lat="45.99919" lon="4.4183">
        <ele>787.6</ele>
        <time>2025-10-04T12:20:58Z</time>
      </trkpt>
      <trkpt lat="45.99915" lon="4.41834">
        <ele>787.4</ele>
        <time>2025-10-04T12:20:59Z</time>
      </trkpt>
      <trkpt lat="45.9991" lon="4.41839">
        <ele>787</ele>
        <time>2025-10-04T12:21:00Z</time>
      </trkpt>
      <trkpt lat="45.99906" lon="4.41844">
        <ele>787</ele>
        <time>2025-10-04T12:21:01Z</time>
      </trkpt>
      <trkpt lat="45.99902" lon="4.41849">
        <ele>786.6</ele>
        <time>2025-10-04T12:21:02Z</time>
      </trkpt>
      <trkpt lat="45.99898" lon="4.41854">
        <ele>786.2</ele>
        <time>2025-10-04T12:21:03Z</time>
      </trkpt>
      <trkpt lat="45.99893" lon="4.41859">
        <ele>786.2</ele>
        <time>2025-10-04T12:21:04Z</time>
      </trkpt>
      <trkpt lat="45.9989" lon="4.41864">
        <ele>786.2</ele>
        <time>2025-10-04T12:21:05Z</time>
      </trkpt>
      <trkpt lat="45.99885" lon="4.41869">
        <ele>786.2</ele>
        <time>2025-10-04T12:21:06Z</time>
      </trkpt>
      <trkpt lat="45.99881" lon="4.41873">
        <ele>786.2</ele>
        <time>2025-10-04T12:21:07Z</time>
      </trkpt>
      <trkpt lat="45.99877" lon="4.41878">
        <ele>786</ele>
        <time>2025-10-04T12:21:08Z</time>
      </trkpt>
      <trkpt lat="45.99873" lon="4.41882">
        <ele>786</ele>
        <time>2025-10-04T12:21:09Z</time>
      </trkpt>
      <trkpt lat="45.9987" lon="4.41884">
        <ele>786</ele>
        <time>2025-10-04T12:21:10Z</time>
      </trkpt>
      <trkpt lat="45.99866" lon="4.41887">
        <ele>786</ele>
        <time>2025-10-04T12:21:11Z</time>
      </trkpt>
      <trkpt lat="45.99863" lon="4.41889">
        <ele>786</ele>
        <time>2025-10-04T12:21:12Z</time>
      </trkpt>
      <trkpt lat="45.9986" lon="4.41892">
        <ele>786.6</ele>
        <time>2025-10-04T12:21:13Z</time>
      </trkpt>
      <trkpt lat="45.99857" lon="4.41894">
        <ele>786.8</ele>
        <time>2025-10-04T12:21:14Z</time>
      </trkpt>
      <trkpt lat="45.99854" lon="4.41895">
        <ele>786.8</ele>
        <time>2025-10-04T12:21:15Z</time>
      </trkpt>
      <trkpt lat="45.99851" lon="4.41897">
        <ele>786.8</ele>
        <time>2025-10-04T12:21:16Z</time>
      </trkpt>
      <trkpt lat="45.99848" lon="4.41899">
        <ele>786.8</ele>
        <time>2025-10-04T12:21:17Z</time>
      </trkpt>
      <trkpt lat="45.99846" lon="4.41899">
        <ele>787</ele>
        <time>2025-10-04T12:21:18Z</time>
      </trkpt>
      <trkpt lat="45.99843" lon="4.419">
        <ele>787</ele>
        <time>2025-10-04T12:21:19Z</time>
      </trkpt>
      <trkpt lat="45.99841" lon="4.419">
        <ele>787</ele>
        <time>2025-10-04T12:21:20Z</time>
      </trkpt>
      <trkpt lat="45.99838" lon="4.419">
        <ele>787</ele>
        <time>2025-10-04T12:21:21Z</time>
      </trkpt>
      <trkpt lat="45.99836" lon="4.41901">
        <ele>786.6</ele>
        <time>2025-10-04T12:21:22Z</time>
      </trkpt>
      <trkpt lat="45.99833" lon="4.41902">
        <ele>786.6</ele>
        <time>2025-10-04T12:21:23Z</time>
      </trkpt>
      <trkpt lat="45.9983" lon="4.41905">
        <ele>787</ele>
        <time>2025-10-04T12:21:24Z</time>
      </trkpt>
      <trkpt lat="45.99828" lon="4.41907">
        <ele>787.2</ele>
        <time>2025-10-04T12:21:25Z</time>
      </trkpt>
      <trkpt lat="45.99825" lon="4.41908">
        <ele>787.2</ele>
        <time>2025-10-04T12:21:26Z</time>
      </trkpt>
      <trkpt lat="45.99822" lon="4.41909">
        <ele>787.6</ele>
        <time>2025-10-04T12:21:27Z</time>
      </trkpt>
      <trkpt lat="45.99819" lon="4.41909">
        <ele>787.6</ele>
        <time>2025-10-04T12:21:28Z</time>
      </trkpt>
      <trkpt lat="45.99817" lon="4.4191">
        <ele>787.8</ele>
        <time>2025-10-04T12:21:29Z</time>
      </trkpt>
      <trkpt lat="45.99813" lon="4.4191">
        <ele>787.8</ele>
        <time>2025-10-04T12:21:30Z</time>
      </trkpt>
      <trkpt lat="45.9981" lon="4.4191">
        <ele>788</ele>
        <time>2025-10-04T12:21:31Z</time>
      </trkpt>
      <trkpt lat="45.99807" lon="4.41909">
        <ele>788</ele>
        <time>2025-10-04T12:21:32Z</time>
      </trkpt>
      <trkpt lat="45.99805" lon="4.41908">
        <ele>788.4</ele>
        <time>2025-10-04T12:21:33Z</time>
      </trkpt>
      <trkpt lat="45.99802" lon="4.41907">
        <ele>788.4</ele>
        <time>2025-10-04T12:21:34Z</time>
      </trkpt>
      <trkpt lat="45.99799" lon="4.41907">
        <ele>788.6</ele>
        <time>2025-10-04T12:21:35Z</time>
      </trkpt>
      <trkpt lat="45.99797" lon="4.41906">
        <ele>788.6</ele>
        <time>2025-10-04T12:21:36Z</time>
      </trkpt>
      <trkpt lat="45.99795" lon="4.41906">
        <ele>789</ele>
        <time>2025-10-04T12:21:37Z</time>
      </trkpt>
      <trkpt lat="45.99793" lon="4.41905">
        <ele>789</ele>
        <time>2025-10-04T12:21:38Z</time>
      </trkpt>
      <trkpt lat="45.99791" lon="4.41904">
        <ele>789.2</ele>
        <time>2025-10-04T12:21:39Z</time>
      </trkpt>
      <trkpt lat="45.99789" lon="4.41903">
        <ele>789.6</ele>
        <time>2025-10-04T12:21:40Z</time>
      </trkpt>
      <trkpt lat="45.99787" lon="4.41902">
        <ele>789.8</ele>
        <time>2025-10-04T12:21:41Z</time>
      </trkpt>
      <trkpt lat="45.99785" lon="4.41902">
        <ele>790.2</ele>
        <time>2025-10-04T12:21:42Z</time>
      </trkpt>
      <trkpt lat="45.99783" lon="4.41902">
        <ele>790.2</ele>
        <time>2025-10-04T12:21:43Z</time>
      </trkpt>
      <trkpt lat="45.99782" lon="4.41901">
        <ele>790.2</ele>
        <time>2025-10-04T12:21:44Z</time>
      </trkpt>
      <trkpt lat="45.99781" lon="4.41901">
        <ele>790.6</ele>
        <time>2025-10-04T12:21:45Z</time>
      </trkpt>
      <trkpt lat="45.9978" lon="4.419">
        <ele>790.8</ele>
        <time>2025-10-04T12:21:46Z</time>
      </trkpt>
      <trkpt lat="45.99777" lon="4.41899">
        <ele>790.8</ele>
        <time>2025-10-04T12:21:47Z</time>
      </trkpt>
      <trkpt lat="45.99775" lon="4.41897">
        <ele>791.4</ele>
        <time>2025-10-04T12:21:48Z</time>
      </trkpt>
      <trkpt lat="45.99773" lon="4.41896">
        <ele>791.6</ele>
        <time>2025-10-04T12:21:49Z</time>
      </trkpt>
      <trkpt lat="45.9977" lon="4.41895">
        <ele>792</ele>
        <time>2025-10-04T12:21:50Z</time>
      </trkpt>
      <trkpt lat="45.9977" lon="4.41895">
        <ele>792.2</ele>
        <time>2025-10-04T12:21:51Z</time>
      </trkpt>
      <trkpt lat="45.99769" lon="4.41894">
        <ele>792.2</ele>
        <time>2025-10-04T12:21:52Z</time>
      </trkpt>
      <trkpt lat="45.99767" lon="4.41894">
        <ele>792.6</ele>
        <time>2025-10-04T12:21:53Z</time>
      </trkpt>
      <trkpt lat="45.99766" lon="4.41894">
        <ele>792.6</ele>
        <time>2025-10-04T12:21:54Z</time>
      </trkpt>
      <trkpt lat="45.99764" lon="4.41894">
        <ele>793</ele>
        <time>2025-10-04T12:21:55Z</time>
      </trkpt>
      <trkpt lat="45.99763" lon="4.41894">
        <ele>793.4</ele>
        <time>2025-10-04T12:21:56Z</time>
      </trkpt>
      <trkpt lat="45.99761" lon="4.41893">
        <ele>793.6</ele>
        <time>2025-10-04T12:21:57Z</time>
      </trkpt>
      <trkpt lat="45.9976" lon="4.41892">
        <ele>794</ele>
        <time>2025-10-04T12:21:58Z</time>
      </trkpt>
      <trkpt lat="45.99758" lon="4.41892">
        <ele>794</ele>
        <time>2025-10-04T12:21:59Z</time>
      </trkpt>
      <trkpt lat="45.99757" lon="4.41891">
        <ele>794.2</ele>
        <time>2025-10-04T12:22:00Z</time>
      </trkpt>
      <trkpt lat="45.99755" lon="4.4189">
        <ele>794.2</ele>
        <time>2025-10-04T12:22:01Z</time>
      </trkpt>
      <trkpt lat="45.99754" lon="4.41889">
        <ele>794.2</ele>
        <time>2025-10-04T12:22:02Z</time>
      </trkpt>
      <trkpt lat="45.99752" lon="4.41887">
        <ele>794.4</ele>
        <time>2025-10-04T12:22:03Z</time>
      </trkpt>
      <trkpt lat="45.99749" lon="4.41885">
        <ele>794.4</ele>
        <time>2025-10-04T12:22:04Z</time>
      </trkpt>
      <trkpt lat="45.99748" lon="4.41882">
        <ele>794.6</ele>
        <time>2025-10-04T12:22:05Z</time>
      </trkpt>
      <trkpt lat="45.99747" lon="4.41881">
        <ele>795</ele>
        <time>2025-10-04T12:22:06Z</time>
      </trkpt>
      <trkpt lat="45.99746" lon="4.41879">
        <ele>795</ele>
        <time>2025-10-04T12:22:07Z</time>
      </trkpt>
      <trkpt lat="45.99744" lon="4.41877">
        <ele>795.4</ele>
        <time>2025-10-04T12:22:08Z</time>
      </trkpt>
      <trkpt lat="45.99743" lon="4.41876">
        <ele>795.4</ele>
        <time>2025-10-04T12:22:09Z</time>
      </trkpt>
      <trkpt lat="45.99741" lon="4.41876">
        <ele>795.6</ele>
        <time>2025-10-04T12:22:10Z</time>
      </trkpt>
      <trkpt lat="45.9974" lon="4.41876">
        <ele>795.6</ele>
        <time>2025-10-04T12:22:11Z</time>
      </trkpt>
      <trkpt lat="45.99738" lon="4.41875">
        <ele>796</ele>
        <time>2025-10-04T12:22:12Z</time>
      </trkpt>
      <trkpt lat="45.99737" lon="4.41874">
        <ele>796.2</ele>
        <time>2025-10-04T12:22:13Z</time>
      </trkpt>
      <trkpt lat="45.99736" lon="4.41873">
        <ele>796.4</ele>
        <time>2025-10-04T12:22:14Z</time>
      </trkpt>
      <trkpt lat="45.99735" lon="4.41872">
        <ele>796.4</ele>
        <time>2025-10-04T12:22:15Z</time>
      </trkpt>
      <trkpt lat="45.99733" lon="4.41872">
        <ele>796.4</ele>
        <time>2025-10-04T12:22:16Z</time>
      </trkpt>
      <trkpt lat="45.99731" lon="4.41873">
        <ele>796.8</ele>
        <time>2025-10-04T12:22:17Z</time>
      </trkpt>
      <trkpt lat="45.9973" lon="4.41873">
        <ele>797.2</ele>
        <time>2025-10-04T12:22:18Z</time>
      </trkpt>
      <trkpt lat="45.99729" lon="4.41873">
        <ele>797.4</ele>
        <time>2025-10-04T12:22:19Z</time>
      </trkpt>
      <trkpt lat="45.99728" lon="4.41872">
        <ele>797.6</ele>
        <time>2025-10-04T12:22:20Z</time>
      </trkpt>
      <trkpt lat="45.99726" lon="4.41873">
        <ele>797.8</ele>
        <time>2025-10-04T12:22:21Z</time>
      </trkpt>
      <trkpt lat="45.99725" lon="4.41873">
        <ele>798.2</ele>
        <time>2025-10-04T12:22:22Z</time>
      </trkpt>
      <trkpt lat="45.99724" lon="4.41873">
        <ele>798.2</ele>
        <time>2025-10-04T12:22:23Z</time>
      </trkpt>
      <trkpt lat="45.99723" lon="4.41872">
        <ele>798.6</ele>
        <time>2025-10-04T12:22:24Z</time>
      </trkpt>
      <trkpt lat="45.99721" lon="4.41872">
        <ele>798.6</ele>
        <time>2025-10-04T12:22:25Z</time>
      </trkpt>
      <trkpt lat="45.99719" lon="4.41871">
        <ele>798.8</ele>
        <time>2025-10-04T12:22:26Z</time>
      </trkpt>
      <trkpt lat="45.99718" lon="4.41872">
        <ele>798.8</ele>
        <time>2025-10-04T12:22:27Z</time>
      </trkpt>
      <trkpt lat="45.99718" lon="4.41872">
        <ele>799.4</ele>
        <time>2025-10-04T12:22:28Z</time>
      </trkpt>
      <trkpt lat="45.99716" lon="4.41873">
        <ele>799.4</ele>
        <time>2025-10-04T12:22:29Z</time>
      </trkpt>
      <trkpt lat="45.99714" lon="4.41873">
        <ele>799.8</ele>
        <time>2025-10-04T12:22:30Z</time>
      </trkpt>
      <trkpt lat="45.99712" lon="4.41873">
        <ele>800</ele>
        <time>2025-10-04T12:22:31Z</time>
      </trkpt>
      <trkpt lat="45.99711" lon="4.41873">
        <ele>800.4</ele>
        <time>2025-10-04T12:22:32Z</time>
      </trkpt>
      <trkpt lat="45.9971" lon="4.41873">
        <ele>800.4</ele>
        <time>2025-10-04T12:22:33Z</time>
      </trkpt>
      <trkpt lat="45.9971" lon="4.41874">
        <ele>800.4</ele>
        <time>2025-10-04T12:22:34Z</time>
      </trkpt>
      <trkpt lat="45.99709" lon="4.41875">
        <ele>800.6</ele>
        <time>2025-10-04T12:22:35Z</time>
      </trkpt>
      <trkpt lat="45.99708" lon="4.41875">
        <ele>800.6</ele>
        <time>2025-10-04T12:22:36Z</time>
      </trkpt>
      <trkpt lat="45.99707" lon="4.41876">
        <ele>801</ele>
        <time>2025-10-04T12:22:37Z</time>
      </trkpt>
      <trkpt lat="45.99706" lon="4.41876">
        <ele>801.2</ele>
        <time>2025-10-04T12:22:38Z</time>
      </trkpt>
      <trkpt lat="45.99704" lon="4.41876">
        <ele>801.2</ele>
        <time>2025-10-04T12:22:39Z</time>
      </trkpt>
      <trkpt lat="45.99702" lon="4.41876">
        <ele>801.4</ele>
        <time>2025-10-04T12:22:40Z</time>
      </trkpt>
      <trkpt lat="45.99701" lon="4.41876">
        <ele>801.4</ele>
        <time>2025-10-04T12:22:41Z</time>
      </trkpt>
      <trkpt lat="45.997" lon="4.41877">
        <ele>801.4</ele>
        <time>2025-10-04T12:22:42Z</time>
      </trkpt>
      <trkpt lat="45.99699" lon="4.41878">
        <ele>801.8</ele>
        <time>2025-10-04T12:22:43Z</time>
      </trkpt>
      <trkpt lat="45.99697" lon="4.41878">
        <ele>801.8</ele>
        <time>2025-10-04T12:22:44Z</time>
      </trkpt>
      <trkpt lat="45.99696" lon="4.41878">
        <ele>801.8</ele>
        <time>2025-10-04T12:22:45Z</time>
      </trkpt>
      <trkpt lat="45.99695" lon="4.41877">
        <ele>802.2</ele>
        <time>2025-10-04T12:22:46Z</time>
      </trkpt>
      <trkpt lat="45.99693" lon="4.41877">
        <ele>802.2</ele>
        <time>2025-10-04T12:22:47Z</time>
      </trkpt>
      <trkpt lat="45.99691" lon="4.41877">
        <ele>802.6</ele>
        <time>2025-10-04T12:22:48Z</time>
      </trkpt>
      <trkpt lat="45.9969" lon="4.41877">
        <ele>802.6</ele>
        <time>2025-10-04T12:22:49Z</time>
      </trkpt>
      <trkpt lat="45.99689" lon="4.41877">
        <ele>802.8</ele>
        <time>2025-10-04T12:22:50Z</time>
      </trkpt>
      <trkpt lat="45.99687" lon="4.41877">
        <ele>802.8</ele>
        <time>2025-10-04T12:22:51Z</time>
      </trkpt>
      <trkpt lat="45.99686" lon="4.41877">
        <ele>803.2</ele>
        <time>2025-10-04T12:22:52Z</time>
      </trkpt>
      <trkpt lat="45.99684" lon="4.41877">
        <ele>803.2</ele>
        <time>2025-10-04T12:22:53Z</time>
      </trkpt>
      <trkpt lat="45.99683" lon="4.41876">
        <ele>803.8</ele>
        <time>2025-10-04T12:22:54Z</time>
      </trkpt>
      <trkpt lat="45.99681" lon="4.41877">
        <ele>803.8</ele>
        <time>2025-10-04T12:22:55Z</time>
      </trkpt>
      <trkpt lat="45.99679" lon="4.41877">
        <ele>803.8</ele>
        <time>2025-10-04T12:22:56Z</time>
      </trkpt>
      <trkpt lat="45.99676" lon="4.41879">
        <ele>804</ele>
        <time>2025-10-04T12:22:57Z</time>
      </trkpt>
      <trkpt lat="45.99674" lon="4.4188">
        <ele>804.4</ele>
        <time>2025-10-04T12:22:58Z</time>
      </trkpt>
      <trkpt lat="45.99672" lon="4.41881">
        <ele>804.4</ele>
        <time>2025-10-04T12:22:59Z</time>
      </trkpt>
      <trkpt lat="45.99671" lon="4.41882">
        <ele>804.6</ele>
        <time>2025-10-04T12:23:00Z</time>
      </trkpt>
      <trkpt lat="45.99669" lon="4.41882">
        <ele>805</ele>
        <time>2025-10-04T12:23:01Z</time>
      </trkpt>
      <trkpt lat="45.99668" lon="4.41883">
        <ele>805</ele>
        <time>2025-10-04T12:23:02Z</time>
      </trkpt>
      <trkpt lat="45.99667" lon="4.41883">
        <ele>805</ele>
        <time>2025-10-04T12:23:03Z</time>
      </trkpt>
      <trkpt lat="45.99666" lon="4.41884">
        <ele>805.2</ele>
        <time>2025-10-04T12:23:04Z</time>
      </trkpt>
      <trkpt lat="45.99664" lon="4.41886">
        <ele>805.2</ele>
        <time>2025-10-04T12:23:05Z</time>
      </trkpt>
      <trkpt lat="45.99663" lon="4.41887">
        <ele>805.2</ele>
        <time>2025-10-04T12:23:06Z</time>
      </trkpt>
      <trkpt lat="45.99662" lon="4.41888">
        <ele>805.2</ele>
        <time>2025-10-04T12:23:07Z</time>
      </trkpt>
      <trkpt lat="45.99661" lon="4.41888">
        <ele>805.4</ele>
        <time>2025-10-04T12:23:08Z</time>
      </trkpt>
      <trkpt lat="45.99659" lon="4.41888">
        <ele>805.4</ele>
        <time>2025-10-04T12:23:09Z</time>
      </trkpt>
      <trkpt lat="45.99657" lon="4.41888">
        <ele>805.4</ele>
        <time>2025-10-04T12:23:10Z</time>
      </trkpt>
      <trkpt lat="45.99655" lon="4.41888">
        <ele>805.4</ele>
        <time>2025-10-04T12:23:11Z</time>
      </trkpt>
      <trkpt lat="45.99653" lon="4.41889">
        <ele>805.8</ele>
        <time>2025-10-04T12:23:12Z</time>
      </trkpt>
      <trkpt lat="45.99651" lon="4.41889">
        <ele>805.8</ele>
        <time>2025-10-04T12:23:13Z</time>
      </trkpt>
      <trkpt lat="45.99648" lon="4.4189">
        <ele>805.8</ele>
        <time>2025-10-04T12:23:14Z</time>
      </trkpt>
      <trkpt lat="45.99646" lon="4.4189">
        <ele>805.8</ele>
        <time>2025-10-04T12:23:15Z</time>
      </trkpt>
      <trkpt lat="45.99642" lon="4.41889">
        <ele>805.2</ele>
        <time>2025-10-04T12:23:16Z</time>
      </trkpt>
      <trkpt lat="45.99638" lon="4.4189">
        <ele>805.2</ele>
        <time>2025-10-04T12:23:17Z</time>
      </trkpt>
      <trkpt lat="45.99632" lon="4.4189">
        <ele>805.2</ele>
        <time>2025-10-04T12:23:18Z</time>
      </trkpt>
      <trkpt lat="45.99627" lon="4.41889">
        <ele>804.8</ele>
        <time>2025-10-04T12:23:19Z</time>
      </trkpt>
      <trkpt lat="45.99622" lon="4.41889">
        <ele>804.4</ele>
        <time>2025-10-04T12:23:20Z</time>
      </trkpt>
      <trkpt lat="45.99616" lon="4.4189">
        <ele>804</ele>
        <time>2025-10-04T12:23:21Z</time>
      </trkpt>
      <trkpt lat="45.99611" lon="4.41888">
        <ele>803.6</ele>
        <time>2025-10-04T12:23:22Z</time>
      </trkpt>
      <trkpt lat="45.99607" lon="4.41889">
        <ele>803.2</ele>
        <time>2025-10-04T12:23:23Z</time>
      </trkpt>
      <trkpt lat="45.99602" lon="4.41889">
        <ele>803</ele>
        <time>2025-10-04T12:23:24Z</time>
      </trkpt>
      <trkpt lat="45.99595" lon="4.41887">
        <ele>803</ele>
        <time>2025-10-04T12:23:25Z</time>
      </trkpt>
      <trkpt lat="45.99592" lon="4.41889">
        <ele>803</ele>
        <time>2025-10-04T12:23:26Z</time>
      </trkpt>
      <trkpt lat="45.99588" lon="4.41887">
        <ele>802.6</ele>
        <time>2025-10-04T12:23:27Z</time>
      </trkpt>
      <trkpt lat="45.99582" lon="4.41886">
        <ele>802.6</ele>
        <time>2025-10-04T12:23:28Z</time>
      </trkpt>
      <trkpt lat="45.99578" lon="4.41884">
        <ele>802.6</ele>
        <time>2025-10-04T12:23:29Z</time>
      </trkpt>
      <trkpt lat="45.99574" lon="4.41883">
        <ele>802.6</ele>
        <time>2025-10-04T12:23:30Z</time>
      </trkpt>
      <trkpt lat="45.9957" lon="4.41881">
        <ele>802.6</ele>
        <time>2025-10-04T12:23:31Z</time>
      </trkpt>
      <trkpt lat="45.99564" lon="4.41881">
        <ele>802.6</ele>
        <time>2025-10-04T12:23:32Z</time>
      </trkpt>
      <trkpt lat="45.99562" lon="4.41877">
        <ele>802.6</ele>
        <time>2025-10-04T12:23:33Z</time>
      </trkpt>
      <trkpt lat="45.99559" lon="4.41874">
        <ele>803</ele>
        <time>2025-10-04T12:23:34Z</time>
      </trkpt>
      <trkpt lat="45.99553" lon="4.41873">
        <ele>803</ele>
        <time>2025-10-04T12:23:35Z</time>
      </trkpt>
      <trkpt lat="45.99549" lon="4.41869">
        <ele>802.6</ele>
        <time>2025-10-04T12:23:36Z</time>
      </trkpt>
      <trkpt lat="45.99545" lon="4.41868">
        <ele>802.6</ele>
        <time>2025-10-04T12:23:37Z</time>
      </trkpt>
      <trkpt lat="45.99542" lon="4.41868">
        <ele>802.6</ele>
        <time>2025-10-04T12:23:38Z</time>
      </trkpt>
      <trkpt lat="45.99537" lon="4.41865">
        <ele>803</ele>
        <time>2025-10-04T12:23:39Z</time>
      </trkpt>
      <trkpt lat="45.99534" lon="4.41863">
        <ele>803</ele>
        <time>2025-10-04T12:23:40Z</time>
      </trkpt>
      <trkpt lat="45.99531" lon="4.41861">
        <ele>803.4</ele>
        <time>2025-10-04T12:23:41Z</time>
      </trkpt>
      <trkpt lat="45.99527" lon="4.4186">
        <ele>803.4</ele>
        <time>2025-10-04T12:23:42Z</time>
      </trkpt>
      <trkpt lat="45.99527" lon="4.41859">
        <ele>803.4</ele>
        <time>2025-10-04T12:23:43Z</time>
      </trkpt>
      <trkpt lat="45.99524" lon="4.41857">
        <ele>803.8</ele>
        <time>2025-10-04T12:23:44Z</time>
      </trkpt>
      <trkpt lat="45.99522" lon="4.41853">
        <ele>803.6</ele>
        <time>2025-10-04T12:23:45Z</time>
      </trkpt>
      <trkpt lat="45.9952" lon="4.4185">
        <ele>804.4</ele>
        <time>2025-10-04T12:23:46Z</time>
      </trkpt>
      <trkpt lat="45.99516" lon="4.41848">
        <ele>804.8</ele>
        <time>2025-10-04T12:23:47Z</time>
      </trkpt>
      <trkpt lat="45.99513" lon="4.41847">
        <ele>804.4</ele>
        <time>2025-10-04T12:23:48Z</time>
      </trkpt>
      <trkpt lat="45.99511" lon="4.41845">
        <ele>805.2</ele>
        <time>2025-10-04T12:23:49Z</time>
      </trkpt>
      <trkpt lat="45.99509" lon="4.41844">
        <ele>805.4</ele>
        <time>2025-10-04T12:23:50Z</time>
      </trkpt>
      <trkpt lat="45.99508" lon="4.41843">
        <ele>805.8</ele>
        <time>2025-10-04T12:23:51Z</time>
      </trkpt>
      <trkpt lat="45.99507" lon="4.41842">
        <ele>806.8</ele>
        <time>2025-10-04T12:23:52Z</time>
      </trkpt>
      <trkpt lat="45.99506" lon="4.41841">
        <ele>806.8</ele>
        <time>2025-10-04T12:23:53Z</time>
      </trkpt>
      <trkpt lat="45.99505" lon="4.41839">
        <ele>807</ele>
        <time>2025-10-04T12:23:54Z</time>
      </trkpt>
      <trkpt lat="45.99503" lon="4.41838">
        <ele>807</ele>
        <time>2025-10-04T12:23:55Z</time>
      </trkpt>
      <trkpt lat="45.99502" lon="4.41836">
        <ele>806.4</ele>
        <time>2025-10-04T12:23:56Z</time>
      </trkpt>
      <trkpt lat="45.99501" lon="4.41834">
        <ele>807.2</ele>
        <time>2025-10-04T12:23:57Z</time>
      </trkpt>
      <trkpt lat="45.99499" lon="4.41832">
        <ele>806.8</ele>
        <time>2025-10-04T12:23:58Z</time>
      </trkpt>
      <trkpt lat="45.99498" lon="4.4183">
        <ele>805.6</ele>
        <time>2025-10-04T12:23:59Z</time>
      </trkpt>
      <trkpt lat="45.99496" lon="4.41828">
        <ele>806.4</ele>
        <time>2025-10-04T12:24:00Z</time>
      </trkpt>
      <trkpt lat="45.99494" lon="4.41827">
        <ele>806.6</ele>
        <time>2025-10-04T12:24:01Z</time>
      </trkpt>
      <trkpt lat="45.99493" lon="4.41825">
        <ele>807</ele>
        <time>2025-10-04T12:24:02Z</time>
      </trkpt>
      <trkpt lat="45.99492" lon="4.41825">
        <ele>807</ele>
        <time>2025-10-04T12:24:03Z</time>
      </trkpt>
      <trkpt lat="45.99492" lon="4.41825">
        <ele>807.2</ele>
        <time>2025-10-04T12:24:04Z</time>
      </trkpt>
      <trkpt lat="45.99492" lon="4.41825">
        <ele>807.2</ele>
        <time>2025-10-04T12:24:05Z</time>
      </trkpt>
      <trkpt lat="45.9949" lon="4.41825">
        <ele>807.2</ele>
        <time>2025-10-04T12:24:06Z</time>
      </trkpt>
      <trkpt lat="45.99488" lon="4.41824">
        <ele>807.2</ele>
        <time>2025-10-04T12:24:07Z</time>
      </trkpt>
      <trkpt lat="45.99487" lon="4.41823">
        <ele>807.2</ele>
        <time>2025-10-04T12:24:08Z</time>
      </trkpt>
      <trkpt lat="45.99486" lon="4.41823">
        <ele>807.2</ele>
        <time>2025-10-04T12:24:09Z</time>
      </trkpt>
      <trkpt lat="45.99484" lon="4.41823">
        <ele>807.2</ele>
        <time>2025-10-04T12:24:10Z</time>
      </trkpt>
      <trkpt lat="45.99482" lon="4.41824">
        <ele>807.4</ele>
        <time>2025-10-04T12:24:11Z</time>
      </trkpt>
      <trkpt lat="45.9948" lon="4.41824">
        <ele>807.4</ele>
        <time>2025-10-04T12:24:12Z</time>
      </trkpt>
      <trkpt lat="45.99478" lon="4.41824">
        <ele>807.8</ele>
        <time>2025-10-04T12:24:13Z</time>
      </trkpt>
      <trkpt lat="45.99476" lon="4.41825">
        <ele>807.8</ele>
        <time>2025-10-04T12:24:14Z</time>
      </trkpt>
      <trkpt lat="45.99475" lon="4.41825">
        <ele>808</ele>
        <time>2025-10-04T12:24:15Z</time>
      </trkpt>
      <trkpt lat="45.99472" lon="4.41826">
        <ele>808</ele>
        <time>2025-10-04T12:24:16Z</time>
      </trkpt>
      <trkpt lat="45.9947" lon="4.41827">
        <ele>808</ele>
        <time>2025-10-04T12:24:17Z</time>
      </trkpt>
      <trkpt lat="45.99469" lon="4.41827">
        <ele>808.2</ele>
        <time>2025-10-04T12:24:18Z</time>
      </trkpt>
      <trkpt lat="45.9947" lon="4.41827">
        <ele>808.2</ele>
        <time>2025-10-04T12:24:19Z</time>
      </trkpt>
      <trkpt lat="45.99471" lon="4.41827">
        <ele>808.2</ele>
        <time>2025-10-04T12:24:20Z</time>
      </trkpt>
      <trkpt lat="45.99474" lon="4.41828">
        <ele>808.6</ele>
        <time>2025-10-04T12:26:03Z</time>
      </trkpt>
      <trkpt lat="45.99473" lon="4.4183">
        <ele>808.6</ele>
        <time>2025-10-04T12:26:04Z</time>
      </trkpt>
      <trkpt lat="45.99471" lon="4.41832">
        <ele>808.6</ele>
        <time>2025-10-04T12:26:05Z</time>
      </trkpt>
      <trkpt lat="45.99468" lon="4.41834">
        <ele>808.4</ele>
        <time>2025-10-04T12:26:06Z</time>
      </trkpt>
      <trkpt lat="45.99466" lon="4.41835">
        <ele>808.4</ele>
        <time>2025-10-04T12:26:07Z</time>
      </trkpt>
      <trkpt lat="45.99463" lon="4.41836">
        <ele>808</ele>
        <time>2025-10-04T12:26:08Z</time>
      </trkpt>
      <trkpt lat="45.99459" lon="4.41839">
        <ele>808.6</ele>
        <time>2025-10-04T12:26:09Z</time>
      </trkpt>
      <trkpt lat="45.99456" lon="4.41841">
        <ele>808.6</ele>
        <time>2025-10-04T12:26:10Z</time>
      </trkpt>
      <trkpt lat="45.99452" lon="4.41843">
        <ele>808.6</ele>
        <time>2025-10-04T12:26:11Z</time>
      </trkpt>
      <trkpt lat="45.99449" lon="4.41845">
        <ele>809</ele>
        <time>2025-10-04T12:26:12Z</time>
      </trkpt>
      <trkpt lat="45.99447" lon="4.41847">
        <ele>809</ele>
        <time>2025-10-04T12:26:13Z</time>
      </trkpt>
      <trkpt lat="45.99444" lon="4.41849">
        <ele>809</ele>
        <time>2025-10-04T12:26:14Z</time>
      </trkpt>
      <trkpt lat="45.99443" lon="4.41851">
        <ele>809.4</ele>
        <time>2025-10-04T12:26:15Z</time>
      </trkpt>
      <trkpt lat="45.99441" lon="4.41853">
        <ele>809.4</ele>
        <time>2025-10-04T12:26:16Z</time>
      </trkpt>
      <trkpt lat="45.9944" lon="4.41854">
        <ele>809.6</ele>
        <time>2025-10-04T12:26:17Z</time>
      </trkpt>
      <trkpt lat="45.99438" lon="4.41856">
        <ele>810</ele>
        <time>2025-10-04T12:26:18Z</time>
      </trkpt>
      <trkpt lat="45.99437" lon="4.41858">
        <ele>810</ele>
        <time>2025-10-04T12:26:19Z</time>
      </trkpt>
      <trkpt lat="45.99437" lon="4.41859">
        <ele>810.2</ele>
        <time>2025-10-04T12:26:20Z</time>
      </trkpt>
      <trkpt lat="45.99436" lon="4.4186">
        <ele>810.2</ele>
        <time>2025-10-04T12:26:21Z</time>
      </trkpt>
      <trkpt lat="45.99434" lon="4.41861">
        <ele>810.2</ele>
        <time>2025-10-04T12:26:22Z</time>
      </trkpt>
      <trkpt lat="45.99433" lon="4.41862">
        <ele>810.2</ele>
        <time>2025-10-04T12:26:23Z</time>
      </trkpt>
      <trkpt lat="45.99431" lon="4.41863">
        <ele>810.2</ele>
        <time>2025-10-04T12:26:24Z</time>
      </trkpt>
      <trkpt lat="45.9943" lon="4.41865">
        <ele>810.4</ele>
        <time>2025-10-04T12:26:25Z</time>
      </trkpt>
      <trkpt lat="45.99427" lon="4.41866">
        <ele>810.4</ele>
        <time>2025-10-04T12:26:26Z</time>
      </trkpt>
      <trkpt lat="45.99425" lon="4.41868">
        <ele>810.4</ele>
        <time>2025-10-04T12:26:27Z</time>
      </trkpt>
      <trkpt lat="45.99422" lon="4.41869">
        <ele>810.4</ele>
        <time>2025-10-04T12:26:28Z</time>
      </trkpt>
      <trkpt lat="45.99418" lon="4.4187">
        <ele>810</ele>
        <time>2025-10-04T12:26:29Z</time>
      </trkpt>
      <trkpt lat="45.99414" lon="4.41872">
        <ele>809.8</ele>
        <time>2025-10-04T12:26:30Z</time>
      </trkpt>
      <trkpt lat="45.9941" lon="4.41875">
        <ele>809.4</ele>
        <time>2025-10-04T12:26:31Z</time>
      </trkpt>
      <trkpt lat="45.99406" lon="4.41877">
        <ele>809.2</ele>
        <time>2025-10-04T12:26:32Z</time>
      </trkpt>
      <trkpt lat="45.99401" lon="4.4188">
        <ele>808.8</ele>
        <time>2025-10-04T12:26:33Z</time>
      </trkpt>
      <trkpt lat="45.99397" lon="4.41883">
        <ele>808.6</ele>
        <time>2025-10-04T12:26:34Z</time>
      </trkpt>
      <trkpt lat="45.99392" lon="4.41891">
        <ele>808.6</ele>
        <time>2025-10-04T12:26:35Z</time>
      </trkpt>
      <trkpt lat="45.99388" lon="4.41895">
        <ele>808.2</ele>
        <time>2025-10-04T12:26:36Z</time>
      </trkpt>
      <trkpt lat="45.99382" lon="4.41899">
        <ele>808.2</ele>
        <time>2025-10-04T12:26:37Z</time>
      </trkpt>
      <trkpt lat="45.99381" lon="4.41902">
        <ele>808</ele>
        <time>2025-10-04T12:26:38Z</time>
      </trkpt>
      <trkpt lat="45.99381" lon="4.41902">
        <ele>808</ele>
        <time>2025-10-04T12:26:39Z</time>
      </trkpt>
      <trkpt lat="45.99377" lon="4.41905">
        <ele>808</ele>
        <time>2025-10-04T12:26:40Z</time>
      </trkpt>
      <trkpt lat="45.99373" lon="4.41907">
        <ele>808</ele>
        <time>2025-10-04T12:26:41Z</time>
      </trkpt>
      <trkpt lat="45.99371" lon="4.41911">
        <ele>808</ele>
        <time>2025-10-04T12:26:42Z</time>
      </trkpt>
      <trkpt lat="45.99365" lon="4.41913">
        <ele>808</ele>
        <time>2025-10-04T12:26:43Z</time>
      </trkpt>
      <trkpt lat="45.99362" lon="4.41915">
        <ele>808</ele>
        <time>2025-10-04T12:26:44Z</time>
      </trkpt>
      <trkpt lat="45.99362" lon="4.41914">
        <ele>808</ele>
        <time>2025-10-04T12:26:45Z</time>
      </trkpt>
      <trkpt lat="45.99359" lon="4.41917">
        <ele>808</ele>
        <time>2025-10-04T12:26:46Z</time>
      </trkpt>
      <trkpt lat="45.99354" lon="4.4192">
        <ele>808</ele>
        <time>2025-10-04T12:26:47Z</time>
      </trkpt>
      <trkpt lat="45.99354" lon="4.4192">
        <ele>808.6</ele>
        <time>2025-10-04T12:26:48Z</time>
      </trkpt>
      <trkpt lat="45.99354" lon="4.4192">
        <ele>808.8</ele>
        <time>2025-10-04T12:26:49Z</time>
      </trkpt>
      <trkpt lat="45.99336" lon="4.41927">
        <ele>809.4</ele>
        <time>2025-10-04T12:26:50Z</time>
      </trkpt>
      <trkpt lat="45.99328" lon="4.4193">
        <ele>809.4</ele>
        <time>2025-10-04T12:26:51Z</time>
      </trkpt>
      <trkpt lat="45.99325" lon="4.4193">
        <ele>809.4</ele>
        <time>2025-10-04T12:26:52Z</time>
      </trkpt>
      <trkpt lat="45.99324" lon="4.4193">
        <ele>809.8</ele>
        <time>2025-10-04T12:26:53Z</time>
      </trkpt>
      <trkpt lat="45.99322" lon="4.4193">
        <ele>810.2</ele>
        <time>2025-10-04T12:26:54Z</time>
      </trkpt>
      <trkpt lat="45.99319" lon="4.41932">
        <ele>810.6</ele>
        <time>2025-10-04T12:26:55Z</time>
      </trkpt>
      <trkpt lat="45.99317" lon="4.41933">
        <ele>811</ele>
        <time>2025-10-04T12:26:56Z</time>
      </trkpt>
      <trkpt lat="45.99314" lon="4.41935">
        <ele>811</ele>
        <time>2025-10-04T12:26:57Z</time>
      </trkpt>
      <trkpt lat="45.99312" lon="4.41935">
        <ele>811.4</ele>
        <time>2025-10-04T12:26:58Z</time>
      </trkpt>
      <trkpt lat="45.9931" lon="4.41936">
        <ele>811.6</ele>
        <time>2025-10-04T12:26:59Z</time>
      </trkpt>
      <trkpt lat="45.99308" lon="4.41937">
        <ele>811.8</ele>
        <time>2025-10-04T12:27:00Z</time>
      </trkpt>
      <trkpt lat="45.99307" lon="4.4194">
        <ele>811.8</ele>
        <time>2025-10-04T12:27:01Z</time>
      </trkpt>
      <trkpt lat="45.99305" lon="4.41941">
        <ele>812.2</ele>
        <time>2025-10-04T12:27:02Z</time>
      </trkpt>
      <trkpt lat="45.99303" lon="4.41942">
        <ele>812.6</ele>
        <time>2025-10-04T12:27:03Z</time>
      </trkpt>
      <trkpt lat="45.99302" lon="4.41944">
        <ele>812.8</ele>
        <time>2025-10-04T12:27:04Z</time>
      </trkpt>
      <trkpt lat="45.993" lon="4.41946">
        <ele>813</ele>
        <time>2025-10-04T12:27:05Z</time>
      </trkpt>
      <trkpt lat="45.99299" lon="4.41947">
        <ele>813</ele>
        <time>2025-10-04T12:27:06Z</time>
      </trkpt>
      <trkpt lat="45.99297" lon="4.41948">
        <ele>813</ele>
        <time>2025-10-04T12:27:07Z</time>
      </trkpt>
      <trkpt lat="45.99296" lon="4.41949">
        <ele>813.6</ele>
        <time>2025-10-04T12:27:08Z</time>
      </trkpt>
      <trkpt lat="45.99295" lon="4.4195">
        <ele>813.6</ele>
        <time>2025-10-04T12:27:09Z</time>
      </trkpt>
      <trkpt lat="45.99293" lon="4.41952">
        <ele>813.8</ele>
        <time>2025-10-04T12:27:10Z</time>
      </trkpt>
      <trkpt lat="45.99292" lon="4.41953">
        <ele>813.8</ele>
        <time>2025-10-04T12:27:11Z</time>
      </trkpt>
      <trkpt lat="45.9929" lon="4.41955">
        <ele>814</ele>
        <time>2025-10-04T12:27:12Z</time>
      </trkpt>
      <trkpt lat="45.99288" lon="4.41956">
        <ele>814.4</ele>
        <time>2025-10-04T12:27:13Z</time>
      </trkpt>
      <trkpt lat="45.99287" lon="4.41958">
        <ele>814.8</ele>
        <time>2025-10-04T12:27:14Z</time>
      </trkpt>
      <trkpt lat="45.99286" lon="4.4196">
        <ele>814.8</ele>
        <time>2025-10-04T12:27:15Z</time>
      </trkpt>
      <trkpt lat="45.99285" lon="4.41962">
        <ele>814.8</ele>
        <time>2025-10-04T12:27:16Z</time>
      </trkpt>
      <trkpt lat="45.99284" lon="4.41964">
        <ele>815</ele>
        <time>2025-10-04T12:27:17Z</time>
      </trkpt>
      <trkpt lat="45.99284" lon="4.41966">
        <ele>815</ele>
        <time>2025-10-04T12:27:18Z</time>
      </trkpt>
      <trkpt lat="45.99283" lon="4.41969">
        <ele>815</ele>
        <time>2025-10-04T12:27:19Z</time>
      </trkpt>
      <trkpt lat="45.99281" lon="4.41972">
        <ele>815.4</ele>
        <time>2025-10-04T12:27:20Z</time>
      </trkpt>
      <trkpt lat="45.99279" lon="4.41975">
        <ele>815.4</ele>
        <time>2025-10-04T12:27:21Z</time>
      </trkpt>
      <trkpt lat="45.99278" lon="4.41977">
        <ele>815.4</ele>
        <time>2025-10-04T12:27:22Z</time>
      </trkpt>
      <trkpt lat="45.99277" lon="4.41979">
        <ele>815.4</ele>
        <time>2025-10-04T12:27:23Z</time>
      </trkpt>
      <trkpt lat="45.99277" lon="4.41981">
        <ele>815.6</ele>
        <time>2025-10-04T12:27:24Z</time>
      </trkpt>
      <trkpt lat="45.99276" lon="4.41983">
        <ele>815.6</ele>
        <time>2025-10-04T12:27:25Z</time>
      </trkpt>
      <trkpt lat="45.99276" lon="4.41986">
        <ele>815.8</ele>
        <time>2025-10-04T12:27:26Z</time>
      </trkpt>
      <trkpt lat="45.99276" lon="4.41987">
        <ele>815.8</ele>
        <time>2025-10-04T12:27:27Z</time>
      </trkpt>
      <trkpt lat="45.99275" lon="4.41989">
        <ele>815.8</ele>
        <time>2025-10-04T12:27:28Z</time>
      </trkpt>
      <trkpt lat="45.99274" lon="4.41992">
        <ele>815.8</ele>
        <time>2025-10-04T12:27:29Z</time>
      </trkpt>
      <trkpt lat="45.99273" lon="4.41994">
        <ele>815.8</ele>
        <time>2025-10-04T12:27:30Z</time>
      </trkpt>
      <trkpt lat="45.99273" lon="4.41998">
        <ele>815.8</ele>
        <time>2025-10-04T12:27:31Z</time>
      </trkpt>
      <trkpt lat="45.99273" lon="4.42001">
        <ele>816.2</ele>
        <time>2025-10-04T12:27:32Z</time>
      </trkpt>
      <trkpt lat="45.99273" lon="4.42003">
        <ele>816.2</ele>
        <time>2025-10-04T12:27:33Z</time>
      </trkpt>
      <trkpt lat="45.99272" lon="4.42005">
        <ele>816.2</ele>
        <time>2025-10-04T12:27:34Z</time>
      </trkpt>
      <trkpt lat="45.9927" lon="4.42008">
        <ele>816.4</ele>
        <time>2025-10-04T12:27:35Z</time>
      </trkpt>
      <trkpt lat="45.99269" lon="4.42011">
        <ele>816.4</ele>
        <time>2025-10-04T12:27:36Z</time>
      </trkpt>
      <trkpt lat="45.99268" lon="4.42014">
        <ele>816.6</ele>
        <time>2025-10-04T12:27:37Z</time>
      </trkpt>
      <trkpt lat="45.99268" lon="4.42017">
        <ele>816.8</ele>
        <time>2025-10-04T12:27:38Z</time>
      </trkpt>
      <trkpt lat="45.99267" lon="4.42019">
        <ele>817.2</ele>
        <time>2025-10-04T12:27:39Z</time>
      </trkpt>
      <trkpt lat="45.99264" lon="4.42022">
        <ele>817.4</ele>
        <time>2025-10-04T12:27:40Z</time>
      </trkpt>
      <trkpt lat="45.99262" lon="4.42025">
        <ele>817.6</ele>
        <time>2025-10-04T12:27:41Z</time>
      </trkpt>
      <trkpt lat="45.99261" lon="4.42027">
        <ele>817.6</ele>
        <time>2025-10-04T12:27:42Z</time>
      </trkpt>
      <trkpt lat="45.99261" lon="4.4203">
        <ele>818</ele>
        <time>2025-10-04T12:27:43Z</time>
      </trkpt>
      <trkpt lat="45.99261" lon="4.42032">
        <ele>818</ele>
        <time>2025-10-04T12:27:44Z</time>
      </trkpt>
      <trkpt lat="45.9926" lon="4.42035">
        <ele>818.4</ele>
        <time>2025-10-04T12:27:45Z</time>
      </trkpt>
      <trkpt lat="45.99259" lon="4.42038">
        <ele>818.4</ele>
        <time>2025-10-04T12:27:46Z</time>
      </trkpt>
      <trkpt lat="45.99259" lon="4.4204">
        <ele>818.8</ele>
        <time>2025-10-04T12:27:47Z</time>
      </trkpt>
      <trkpt lat="45.99258" lon="4.42043">
        <ele>818.8</ele>
        <time>2025-10-04T12:27:48Z</time>
      </trkpt>
      <trkpt lat="45.99257" lon="4.42045">
        <ele>819</ele>
        <time>2025-10-04T12:27:49Z</time>
      </trkpt>
      <trkpt lat="45.99256" lon="4.42048">
        <ele>819</ele>
        <time>2025-10-04T12:27:50Z</time>
      </trkpt>
      <trkpt lat="45.99255" lon="4.4205">
        <ele>819.4</ele>
        <time>2025-10-04T12:27:51Z</time>
      </trkpt>
      <trkpt lat="45.99255" lon="4.42053">
        <ele>819.6</ele>
        <time>2025-10-04T12:27:52Z</time>
      </trkpt>
      <trkpt lat="45.99254" lon="4.42056">
        <ele>819.8</ele>
        <time>2025-10-04T12:27:53Z</time>
      </trkpt>
      <trkpt lat="45.99254" lon="4.42058">
        <ele>819.8</ele>
        <time>2025-10-04T12:27:54Z</time>
      </trkpt>
      <trkpt lat="45.99254" lon="4.4206">
        <ele>820.2</ele>
        <time>2025-10-04T12:27:55Z</time>
      </trkpt>
      <trkpt lat="45.99254" lon="4.42063">
        <ele>820.2</ele>
        <time>2025-10-04T12:27:56Z</time>
      </trkpt>
      <trkpt lat="45.99254" lon="4.42065">
        <ele>820.2</ele>
        <time>2025-10-04T12:27:57Z</time>
      </trkpt>
      <trkpt lat="45.99254" lon="4.42067">
        <ele>820.6</ele>
        <time>2025-10-04T12:27:58Z</time>
      </trkpt>
      <trkpt lat="45.99254" lon="4.4207">
        <ele>820.6</ele>
        <time>2025-10-04T12:27:59Z</time>
      </trkpt>
      <trkpt lat="45.99253" lon="4.42071">
        <ele>820.8</ele>
        <time>2025-10-04T12:28:00Z</time>
      </trkpt>
      <trkpt lat="45.99252" lon="4.42073">
        <ele>820.8</ele>
        <time>2025-10-04T12:28:01Z</time>
      </trkpt>
      <trkpt lat="45.99251" lon="4.42076">
        <ele>820.8</ele>
        <time>2025-10-04T12:28:02Z</time>
      </trkpt>
      <trkpt lat="45.9925" lon="4.42078">
        <ele>821.2</ele>
        <time>2025-10-04T12:28:03Z</time>
      </trkpt>
      <trkpt lat="45.99249" lon="4.4208">
        <ele>821.2</ele>
        <time>2025-10-04T12:28:04Z</time>
      </trkpt>
      <trkpt lat="45.99248" lon="4.42083">
        <ele>821.4</ele>
        <time>2025-10-04T12:28:05Z</time>
      </trkpt>
      <trkpt lat="45.99248" lon="4.42085">
        <ele>821.4</ele>
        <time>2025-10-04T12:28:06Z</time>
      </trkpt>
      <trkpt lat="45.99248" lon="4.42086">
        <ele>821.8</ele>
        <time>2025-10-04T12:28:07Z</time>
      </trkpt>
      <trkpt lat="45.99248" lon="4.42087">
        <ele>822</ele>
        <time>2025-10-04T12:28:08Z</time>
      </trkpt>
      <trkpt lat="45.99247" lon="4.42089">
        <ele>822</ele>
        <time>2025-10-04T12:28:09Z</time>
      </trkpt>
      <trkpt lat="45.99247" lon="4.42092">
        <ele>822</ele>
        <time>2025-10-04T12:28:10Z</time>
      </trkpt>
      <trkpt lat="45.99246" lon="4.42095">
        <ele>822.2</ele>
        <time>2025-10-04T12:28:11Z</time>
      </trkpt>
      <trkpt lat="45.99246" lon="4.42097">
        <ele>822.6</ele>
        <time>2025-10-04T12:28:12Z</time>
      </trkpt>
      <trkpt lat="45.99245" lon="4.42099">
        <ele>822.6</ele>
        <time>2025-10-04T12:28:13Z</time>
      </trkpt>
      <trkpt lat="45.99245" lon="4.42101">
        <ele>822.8</ele>
        <time>2025-10-04T12:28:14Z</time>
      </trkpt>
      <trkpt lat="45.99246" lon="4.42103">
        <ele>823</ele>
        <time>2025-10-04T12:28:15Z</time>
      </trkpt>
      <trkpt lat="45.99246" lon="4.42105">
        <ele>823</ele>
        <time>2025-10-04T12:28:16Z</time>
      </trkpt>
      <trkpt lat="45.99246" lon="4.42107">
        <ele>823.2</ele>
        <time>2025-10-04T12:28:17Z</time>
      </trkpt>
      <trkpt lat="45.99245" lon="4.42109">
        <ele>823.2</ele>
        <time>2025-10-04T12:28:18Z</time>
      </trkpt>
      <trkpt lat="45.99244" lon="4.42109">
        <ele>823.4</ele>
        <time>2025-10-04T12:28:19Z</time>
      </trkpt>
      <trkpt lat="45.99244" lon="4.4211">
        <ele>823.6</ele>
        <time>2025-10-04T12:28:20Z</time>
      </trkpt>
      <trkpt lat="45.99243" lon="4.42112">
        <ele>823.6</ele>
        <time>2025-10-04T12:28:21Z</time>
      </trkpt>
      <trkpt lat="45.99242" lon="4.42113">
        <ele>823.6</ele>
        <time>2025-10-04T12:28:22Z</time>
      </trkpt>
      <trkpt lat="45.99241" lon="4.42115">
        <ele>824.2</ele>
        <time>2025-10-04T12:28:23Z</time>
      </trkpt>
      <trkpt lat="45.9924" lon="4.42118">
        <ele>824.2</ele>
        <time>2025-10-04T12:28:24Z</time>
      </trkpt>
      <trkpt lat="45.9924" lon="4.4212">
        <ele>824.4</ele>
        <time>2025-10-04T12:28:25Z</time>
      </trkpt>
      <trkpt lat="45.99239" lon="4.42123">
        <ele>824.4</ele>
        <time>2025-10-04T12:28:26Z</time>
      </trkpt>
      <trkpt lat="45.99239" lon="4.42125">
        <ele>824.6</ele>
        <time>2025-10-04T12:28:27Z</time>
      </trkpt>
      <trkpt lat="45.99238" lon="4.42127">
        <ele>824.6</ele>
        <time>2025-10-04T12:28:28Z</time>
      </trkpt>
      <trkpt lat="45.99237" lon="4.42129">
        <ele>824.6</ele>
        <time>2025-10-04T12:28:29Z</time>
      </trkpt>
      <trkpt lat="45.99237" lon="4.42133">
        <ele>825</ele>
        <time>2025-10-04T12:28:30Z</time>
      </trkpt>
      <trkpt lat="45.99236" lon="4.42136">
        <ele>825</ele>
        <time>2025-10-04T12:28:31Z</time>
      </trkpt>
      <trkpt lat="45.99235" lon="4.42138">
        <ele>825.2</ele>
        <time>2025-10-04T12:28:32Z</time>
      </trkpt>
      <trkpt lat="45.99234" lon="4.42141">
        <ele>825.4</ele>
        <time>2025-10-04T12:28:33Z</time>
      </trkpt>
      <trkpt lat="45.99234" lon="4.42142">
        <ele>825.4</ele>
        <time>2025-10-04T12:28:34Z</time>
      </trkpt>
      <trkpt lat="45.99233" lon="4.42144">
        <ele>826</ele>
        <time>2025-10-04T12:28:35Z</time>
      </trkpt>
      <trkpt lat="45.99233" lon="4.42146">
        <ele>825.6</ele>
        <time>2025-10-04T12:28:36Z</time>
      </trkpt>
      <trkpt lat="45.99234" lon="4.42147">
        <ele>826.2</ele>
        <time>2025-10-04T12:28:37Z</time>
      </trkpt>
      <trkpt lat="45.99234" lon="4.42149">
        <ele>826.4</ele>
        <time>2025-10-04T12:28:38Z</time>
      </trkpt>
      <trkpt lat="45.99235" lon="4.42152">
        <ele>826.6</ele>
        <time>2025-10-04T12:28:39Z</time>
      </trkpt>
      <trkpt lat="45.99234" lon="4.42154">
        <ele>826.6</ele>
        <time>2025-10-04T12:28:40Z</time>
      </trkpt>
      <trkpt lat="45.99234" lon="4.42157">
        <ele>827</ele>
        <time>2025-10-04T12:28:41Z</time>
      </trkpt>
      <trkpt lat="45.99234" lon="4.42161">
        <ele>827</ele>
        <time>2025-10-04T12:28:42Z</time>
      </trkpt>
      <trkpt lat="45.99234" lon="4.42163">
        <ele>827.6</ele>
        <time>2025-10-04T12:28:43Z</time>
      </trkpt>
      <trkpt lat="45.99234" lon="4.42165">
        <ele>827.6</ele>
        <time>2025-10-04T12:28:44Z</time>
      </trkpt>
      <trkpt lat="45.99234" lon="4.42165">
        <ele>827.8</ele>
        <time>2025-10-04T12:28:45Z</time>
      </trkpt>
      <trkpt lat="45.99234" lon="4.42167">
        <ele>828.2</ele>
        <time>2025-10-04T12:28:46Z</time>
      </trkpt>
      <trkpt lat="45.99234" lon="4.42169">
        <ele>828.2</ele>
        <time>2025-10-04T12:28:47Z</time>
      </trkpt>
      <trkpt lat="45.99234" lon="4.4217">
        <ele>828.2</ele>
        <time>2025-10-04T12:28:48Z</time>
      </trkpt>
      <trkpt lat="45.99234" lon="4.42172">
        <ele>828.2</ele>
        <time>2025-10-04T12:28:49Z</time>
      </trkpt>
      <trkpt lat="45.99235" lon="4.42174">
        <ele>828.6</ele>
        <time>2025-10-04T12:28:50Z</time>
      </trkpt>
      <trkpt lat="45.99235" lon="4.42176">
        <ele>828.8</ele>
        <time>2025-10-04T12:28:51Z</time>
      </trkpt>
      <trkpt lat="45.99236" lon="4.42178">
        <ele>828.8</ele>
        <time>2025-10-04T12:28:52Z</time>
      </trkpt>
      <trkpt lat="45.99236" lon="4.42181">
        <ele>829.2</ele>
        <time>2025-10-04T12:28:53Z</time>
      </trkpt>
      <trkpt lat="45.99236" lon="4.42183">
        <ele>829.6</ele>
        <time>2025-10-04T12:28:54Z</time>
      </trkpt>
      <trkpt lat="45.99236" lon="4.42186">
        <ele>829.6</ele>
        <time>2025-10-04T12:28:55Z</time>
      </trkpt>
      <trkpt lat="45.99236" lon="4.42189">
        <ele>830</ele>
        <time>2025-10-04T12:28:56Z</time>
      </trkpt>
      <trkpt lat="45.99236" lon="4.42191">
        <ele>830</ele>
        <time>2025-10-04T12:28:57Z</time>
      </trkpt>
      <trkpt lat="45.99235" lon="4.42192">
        <ele>830</ele>
        <time>2025-10-04T12:28:58Z</time>
      </trkpt>
      <trkpt lat="45.99235" lon="4.42195">
        <ele>830.2</ele>
        <time>2025-10-04T12:28:59Z</time>
      </trkpt>
      <trkpt lat="45.99235" lon="4.42197">
        <ele>830.2</ele>
        <time>2025-10-04T12:29:00Z</time>
      </trkpt>
      <trkpt lat="45.99234" lon="4.42198">
        <ele>830.4</ele>
        <time>2025-10-04T12:29:01Z</time>
      </trkpt>
      <trkpt lat="45.99234" lon="4.42201">
        <ele>830.4</ele>
        <time>2025-10-04T12:29:02Z</time>
      </trkpt>
      <trkpt lat="45.99233" lon="4.42203">
        <ele>830.8</ele>
        <time>2025-10-04T12:29:03Z</time>
      </trkpt>
      <trkpt lat="45.99233" lon="4.42205">
        <ele>831</ele>
        <time>2025-10-04T12:29:04Z</time>
      </trkpt>
      <trkpt lat="45.99233" lon="4.42206">
        <ele>831.4</ele>
        <time>2025-10-04T12:29:05Z</time>
      </trkpt>
      <trkpt lat="45.99232" lon="4.42208">
        <ele>831.4</ele>
        <time>2025-10-04T12:29:06Z</time>
      </trkpt>
      <trkpt lat="45.99233" lon="4.4221">
        <ele>831.8</ele>
        <time>2025-10-04T12:29:07Z</time>
      </trkpt>
      <trkpt lat="45.99234" lon="4.42212">
        <ele>832</ele>
        <time>2025-10-04T12:29:08Z</time>
      </trkpt>
      <trkpt lat="45.99234" lon="4.42213">
        <ele>832.2</ele>
        <time>2025-10-04T12:29:09Z</time>
      </trkpt>
      <trkpt lat="45.99234" lon="4.42214">
        <ele>832.6</ele>
        <time>2025-10-04T12:29:10Z</time>
      </trkpt>
      <trkpt lat="45.99234" lon="4.42214">
        <ele>833</ele>
        <time>2025-10-04T12:29:11Z</time>
      </trkpt>
      <trkpt lat="45.99232" lon="4.4222">
        <ele>833</ele>
        <time>2025-10-04T12:29:12Z</time>
      </trkpt>
      <trkpt lat="45.99231" lon="4.42222">
        <ele>833</ele>
        <time>2025-10-04T12:29:13Z</time>
      </trkpt>
      <trkpt lat="45.9923" lon="4.42225">
        <ele>833</ele>
        <time>2025-10-04T12:29:14Z</time>
      </trkpt>
      <trkpt lat="45.99228" lon="4.42227">
        <ele>833.2</ele>
        <time>2025-10-04T12:29:15Z</time>
      </trkpt>
      <trkpt lat="45.99227" lon="4.42229">
        <ele>833.2</ele>
        <time>2025-10-04T12:29:16Z</time>
      </trkpt>
      <trkpt lat="45.99226" lon="4.42231">
        <ele>833.4</ele>
        <time>2025-10-04T12:29:17Z</time>
      </trkpt>
      <trkpt lat="45.99225" lon="4.42232">
        <ele>833.4</ele>
        <time>2025-10-04T12:29:18Z</time>
      </trkpt>
      <trkpt lat="45.99225" lon="4.42234">
        <ele>833.8</ele>
        <time>2025-10-04T12:29:19Z</time>
      </trkpt>
      <trkpt lat="45.99226" lon="4.42236">
        <ele>834</ele>
        <time>2025-10-04T12:29:20Z</time>
      </trkpt>
      <trkpt lat="45.99226" lon="4.42238">
        <ele>834.2</ele>
        <time>2025-10-04T12:29:21Z</time>
      </trkpt>
      <trkpt lat="45.99226" lon="4.4224">
        <ele>834.6</ele>
        <time>2025-10-04T12:29:22Z</time>
      </trkpt>
      <trkpt lat="45.99226" lon="4.42241">
        <ele>834.6</ele>
        <time>2025-10-04T12:29:23Z</time>
      </trkpt>
      <trkpt lat="45.99226" lon="4.42243">
        <ele>834.8</ele>
        <time>2025-10-04T12:29:24Z</time>
      </trkpt>
      <trkpt lat="45.99226" lon="4.42245">
        <ele>835.4</ele>
        <time>2025-10-04T12:29:25Z</time>
      </trkpt>
      <trkpt lat="45.99226" lon="4.42246">
        <ele>835.6</ele>
        <time>2025-10-04T12:29:26Z</time>
      </trkpt>
      <trkpt lat="45.99226" lon="4.42248">
        <ele>835.6</ele>
        <time>2025-10-04T12:29:27Z</time>
      </trkpt>
      <trkpt lat="45.99226" lon="4.42249">
        <ele>835.8</ele>
        <time>2025-10-04T12:29:28Z</time>
      </trkpt>
      <trkpt lat="45.99226" lon="4.4225">
        <ele>836.2</ele>
        <time>2025-10-04T12:29:29Z</time>
      </trkpt>
      <trkpt lat="45.99226" lon="4.42251">
        <ele>836.6</ele>
        <time>2025-10-04T12:29:30Z</time>
      </trkpt>
      <trkpt lat="45.99226" lon="4.42253">
        <ele>836.6</ele>
        <time>2025-10-04T12:29:31Z</time>
      </trkpt>
      <trkpt lat="45.99226" lon="4.42253">
        <ele>836.8</ele>
        <time>2025-10-04T12:29:32Z</time>
      </trkpt>
      <trkpt lat="45.99226" lon="4.42255">
        <ele>837.2</ele>
        <time>2025-10-04T12:29:33Z</time>
      </trkpt>
      <trkpt lat="45.99226" lon="4.42256">
        <ele>837.2</ele>
        <time>2025-10-04T12:29:34Z</time>
      </trkpt>
      <trkpt lat="45.99226" lon="4.42258">
        <ele>837.6</ele>
        <time>2025-10-04T12:29:35Z</time>
      </trkpt>
      <trkpt lat="45.99225" lon="4.4226">
        <ele>837.6</ele>
        <time>2025-10-04T12:29:36Z</time>
      </trkpt>
      <trkpt lat="45.99225" lon="4.42262">
        <ele>837.6</ele>
        <time>2025-10-04T12:29:37Z</time>
      </trkpt>
      <trkpt lat="45.99224" lon="4.42264">
        <ele>837.8</ele>
        <time>2025-10-04T12:29:38Z</time>
      </trkpt>
      <trkpt lat="45.99224" lon="4.42265">
        <ele>837.8</ele>
        <time>2025-10-04T12:29:39Z</time>
      </trkpt>
      <trkpt lat="45.99225" lon="4.42266">
        <ele>838.2</ele>
        <time>2025-10-04T12:29:40Z</time>
      </trkpt>
      <trkpt lat="45.99225" lon="4.42267">
        <ele>838.4</ele>
        <time>2025-10-04T12:29:41Z</time>
      </trkpt>
      <trkpt lat="45.99225" lon="4.42268">
        <ele>838.4</ele>
        <time>2025-10-04T12:29:42Z</time>
      </trkpt>
      <trkpt lat="45.99225" lon="4.4227">
        <ele>838.6</ele>
        <time>2025-10-04T12:29:43Z</time>
      </trkpt>
      <trkpt lat="45.99226" lon="4.42272">
        <ele>839</ele>
        <time>2025-10-04T12:29:44Z</time>
      </trkpt>
      <trkpt lat="45.99226" lon="4.42274">
        <ele>839.2</ele>
        <time>2025-10-04T12:29:45Z</time>
      </trkpt>
      <trkpt lat="45.99227" lon="4.42276">
        <ele>839.4</ele>
        <time>2025-10-04T12:29:46Z</time>
      </trkpt>
      <trkpt lat="45.99227" lon="4.42278">
        <ele>839.4</ele>
        <time>2025-10-04T12:29:47Z</time>
      </trkpt>
      <trkpt lat="45.99227" lon="4.4228">
        <ele>839.6</ele>
        <time>2025-10-04T12:29:48Z</time>
      </trkpt>
      <trkpt lat="45.99226" lon="4.42282">
        <ele>840</ele>
        <time>2025-10-04T12:29:49Z</time>
      </trkpt>
      <trkpt lat="45.99225" lon="4.42283">
        <ele>840</ele>
        <time>2025-10-04T12:29:50Z</time>
      </trkpt>
      <trkpt lat="45.99225" lon="4.42283">
        <ele>840</ele>
        <time>2025-10-04T12:29:51Z</time>
      </trkpt>
      <trkpt lat="45.99224" lon="4.42284">
        <ele>840.2</ele>
        <time>2025-10-04T12:29:52Z</time>
      </trkpt>
      <trkpt lat="45.99224" lon="4.42285">
        <ele>840.4</ele>
        <time>2025-10-04T12:29:53Z</time>
      </trkpt>
      <trkpt lat="45.99223" lon="4.42287">
        <ele>840.4</ele>
        <time>2025-10-04T12:29:54Z</time>
      </trkpt>
      <trkpt lat="45.99223" lon="4.42288">
        <ele>840.8</ele>
        <time>2025-10-04T12:29:55Z</time>
      </trkpt>
      <trkpt lat="45.99223" lon="4.42289">
        <ele>841</ele>
        <time>2025-10-04T12:29:56Z</time>
      </trkpt>
      <trkpt lat="45.99223" lon="4.42291">
        <ele>841</ele>
        <time>2025-10-04T12:29:57Z</time>
      </trkpt>
      <trkpt lat="45.99223" lon="4.42294">
        <ele>841.2</ele>
        <time>2025-10-04T12:29:58Z</time>
      </trkpt>
      <trkpt lat="45.99223" lon="4.42296">
        <ele>841.6</ele>
        <time>2025-10-04T12:29:59Z</time>
      </trkpt>
      <trkpt lat="45.99223" lon="4.42298">
        <ele>841.6</ele>
        <time>2025-10-04T12:30:00Z</time>
      </trkpt>
      <trkpt lat="45.99223" lon="4.423">
        <ele>842</ele>
        <time>2025-10-04T12:30:01Z</time>
      </trkpt>
      <trkpt lat="45.99222" lon="4.42302">
        <ele>842</ele>
        <time>2025-10-04T12:30:02Z</time>
      </trkpt>
      <trkpt lat="45.99222" lon="4.42304">
        <ele>842</ele>
        <time>2025-10-04T12:30:03Z</time>
      </trkpt>
      <trkpt lat="45.99221" lon="4.42305">
        <ele>842.2</ele>
        <time>2025-10-04T12:30:04Z</time>
      </trkpt>
      <trkpt lat="45.9922" lon="4.42306">
        <ele>842.6</ele>
        <time>2025-10-04T12:30:05Z</time>
      </trkpt>
      <trkpt lat="45.99219" lon="4.42307">
        <ele>843</ele>
        <time>2025-10-04T12:30:06Z</time>
      </trkpt>
      <trkpt lat="45.99218" lon="4.42309">
        <ele>843.4</ele>
        <time>2025-10-04T12:30:07Z</time>
      </trkpt>
      <trkpt lat="45.99218" lon="4.4231">
        <ele>843.4</ele>
        <time>2025-10-04T12:30:08Z</time>
      </trkpt>
      <trkpt lat="45.99218" lon="4.42311">
        <ele>843.8</ele>
        <time>2025-10-04T12:30:09Z</time>
      </trkpt>
      <trkpt lat="45.99217" lon="4.42313">
        <ele>843.8</ele>
        <time>2025-10-04T12:30:10Z</time>
      </trkpt>
      <trkpt lat="45.99217" lon="4.42314">
        <ele>844.2</ele>
        <time>2025-10-04T12:30:11Z</time>
      </trkpt>
      <trkpt lat="45.99215" lon="4.42316">
        <ele>844.6</ele>
        <time>2025-10-04T12:30:12Z</time>
      </trkpt>
      <trkpt lat="45.99214" lon="4.42319">
        <ele>844.6</ele>
        <time>2025-10-04T12:30:13Z</time>
      </trkpt>
      <trkpt lat="45.99214" lon="4.4232">
        <ele>845</ele>
        <time>2025-10-04T12:30:14Z</time>
      </trkpt>
      <trkpt lat="45.99213" lon="4.42321">
        <ele>845.2</ele>
        <time>2025-10-04T12:30:15Z</time>
      </trkpt>
      <trkpt lat="45.99213" lon="4.42322">
        <ele>845.2</ele>
        <time>2025-10-04T12:30:16Z</time>
      </trkpt>
      <trkpt lat="45.99213" lon="4.42323">
        <ele>845.6</ele>
        <time>2025-10-04T12:30:17Z</time>
      </trkpt>
      <trkpt lat="45.99212" lon="4.42324">
        <ele>846</ele>
        <time>2025-10-04T12:30:18Z</time>
      </trkpt>
      <trkpt lat="45.9921" lon="4.42326">
        <ele>846.2</ele>
        <time>2025-10-04T12:30:19Z</time>
      </trkpt>
      <trkpt lat="45.9921" lon="4.42327">
        <ele>846.2</ele>
        <time>2025-10-04T12:30:20Z</time>
      </trkpt>
      <trkpt lat="45.99209" lon="4.42328">
        <ele>846.6</ele>
        <time>2025-10-04T12:30:21Z</time>
      </trkpt>
      <trkpt lat="45.99208" lon="4.42331">
        <ele>846.8</ele>
        <time>2025-10-04T12:30:22Z</time>
      </trkpt>
      <trkpt lat="45.99208" lon="4.42333">
        <ele>846.8</ele>
        <time>2025-10-04T12:30:23Z</time>
      </trkpt>
      <trkpt lat="45.99208" lon="4.42334">
        <ele>847</ele>
        <time>2025-10-04T12:30:24Z</time>
      </trkpt>
      <trkpt lat="45.99208" lon="4.42336">
        <ele>847</ele>
        <time>2025-10-04T12:30:25Z</time>
      </trkpt>
      <trkpt lat="45.99207" lon="4.42338">
        <ele>847.4</ele>
        <time>2025-10-04T12:30:26Z</time>
      </trkpt>
      <trkpt lat="45.99206" lon="4.4234">
        <ele>848</ele>
        <time>2025-10-04T12:30:27Z</time>
      </trkpt>
      <trkpt lat="45.99205" lon="4.42343">
        <ele>848</ele>
        <time>2025-10-04T12:30:28Z</time>
      </trkpt>
      <trkpt lat="45.99205" lon="4.42345">
        <ele>848</ele>
        <time>2025-10-04T12:30:29Z</time>
      </trkpt>
      <trkpt lat="45.99205" lon="4.42347">
        <ele>848.6</ele>
        <time>2025-10-04T12:30:30Z</time>
      </trkpt>
      <trkpt lat="45.99205" lon="4.42349">
        <ele>848.8</ele>
        <time>2025-10-04T12:30:31Z</time>
      </trkpt>
      <trkpt lat="45.99205" lon="4.42351">
        <ele>848.6</ele>
        <time>2025-10-04T12:30:32Z</time>
      </trkpt>
      <trkpt lat="45.99205" lon="4.42353">
        <ele>848.8</ele>
        <time>2025-10-04T12:30:33Z</time>
      </trkpt>
      <trkpt lat="45.99204" lon="4.42355">
        <ele>848.8</ele>
        <time>2025-10-04T12:30:34Z</time>
      </trkpt>
      <trkpt lat="45.99204" lon="4.42357">
        <ele>848</ele>
        <time>2025-10-04T12:30:35Z</time>
      </trkpt>
      <trkpt lat="45.99204" lon="4.42359">
        <ele>848</ele>
        <time>2025-10-04T12:30:36Z</time>
      </trkpt>
      <trkpt lat="45.99204" lon="4.42361">
        <ele>848.4</ele>
        <time>2025-10-04T12:30:37Z</time>
      </trkpt>
      <trkpt lat="45.99204" lon="4.42363">
        <ele>848.8</ele>
        <time>2025-10-04T12:30:38Z</time>
      </trkpt>
      <trkpt lat="45.99203" lon="4.42366">
        <ele>849</ele>
        <time>2025-10-04T12:30:39Z</time>
      </trkpt>
      <trkpt lat="45.99202" lon="4.42369">
        <ele>849.2</ele>
        <time>2025-10-04T12:30:40Z</time>
      </trkpt>
      <trkpt lat="45.99201" lon="4.42371">
        <ele>849.6</ele>
        <time>2025-10-04T12:30:41Z</time>
      </trkpt>
      <trkpt lat="45.99199" lon="4.42372">
        <ele>849.6</ele>
        <time>2025-10-04T12:30:42Z</time>
      </trkpt>
      <trkpt lat="45.99199" lon="4.42372">
        <ele>849.6</ele>
        <time>2025-10-04T12:30:43Z</time>
      </trkpt>
      <trkpt lat="45.99198" lon="4.42374">
        <ele>849.6</ele>
        <time>2025-10-04T12:30:44Z</time>
      </trkpt>
      <trkpt lat="45.99197" lon="4.42376">
        <ele>849.8</ele>
        <time>2025-10-04T12:30:45Z</time>
      </trkpt>
      <trkpt lat="45.99196" lon="4.42377">
        <ele>849.8</ele>
        <time>2025-10-04T12:30:46Z</time>
      </trkpt>
      <trkpt lat="45.99196" lon="4.42378">
        <ele>849.6</ele>
        <time>2025-10-04T12:30:47Z</time>
      </trkpt>
      <trkpt lat="45.99195" lon="4.4238">
        <ele>849.6</ele>
        <time>2025-10-04T12:30:48Z</time>
      </trkpt>
      <trkpt lat="45.99194" lon="4.42381">
        <ele>849.6</ele>
        <time>2025-10-04T12:30:49Z</time>
      </trkpt>
      <trkpt lat="45.99193" lon="4.42383">
        <ele>849.4</ele>
        <time>2025-10-04T12:30:50Z</time>
      </trkpt>
      <trkpt lat="45.99191" lon="4.42384">
        <ele>849.4</ele>
        <time>2025-10-04T12:30:51Z</time>
      </trkpt>
      <trkpt lat="45.9919" lon="4.42385">
        <ele>849.4</ele>
        <time>2025-10-04T12:30:52Z</time>
      </trkpt>
      <trkpt lat="45.99188" lon="4.42387">
        <ele>849</ele>
        <time>2025-10-04T12:30:53Z</time>
      </trkpt>
      <trkpt lat="45.99187" lon="4.42389">
        <ele>848.8</ele>
        <time>2025-10-04T12:30:54Z</time>
      </trkpt>
      <trkpt lat="45.99185" lon="4.42393">
        <ele>848.6</ele>
        <time>2025-10-04T12:30:55Z</time>
      </trkpt>
      <trkpt lat="45.99183" lon="4.42398">
        <ele>848.2</ele>
        <time>2025-10-04T12:30:56Z</time>
      </trkpt>
      <trkpt lat="45.9918" lon="4.42403">
        <ele>848.2</ele>
        <time>2025-10-04T12:30:57Z</time>
      </trkpt>
      <trkpt lat="45.99174" lon="4.42414">
        <ele>848</ele>
        <time>2025-10-04T12:30:58Z</time>
      </trkpt>
      <trkpt lat="45.99171" lon="4.4242">
        <ele>847.8</ele>
        <time>2025-10-04T12:30:59Z</time>
      </trkpt>
      <trkpt lat="45.99167" lon="4.42427">
        <ele>847.8</ele>
        <time>2025-10-04T12:31:00Z</time>
      </trkpt>
      <trkpt lat="45.99164" lon="4.42433">
        <ele>847.2</ele>
        <time>2025-10-04T12:31:01Z</time>
      </trkpt>
      <trkpt lat="45.9916" lon="4.4244">
        <ele>846.8</ele>
        <time>2025-10-04T12:31:02Z</time>
      </trkpt>
      <trkpt lat="45.99156" lon="4.42448">
        <ele>846.2</ele>
        <time>2025-10-04T12:31:03Z</time>
      </trkpt>
      <trkpt lat="45.99151" lon="4.42454">
        <ele>845.8</ele>
        <time>2025-10-04T12:31:04Z</time>
      </trkpt>
      <trkpt lat="45.99146" lon="4.42459">
        <ele>844.8</ele>
        <time>2025-10-04T12:31:05Z</time>
      </trkpt>
      <trkpt lat="45.99142" lon="4.42464">
        <ele>844.4</ele>
        <time>2025-10-04T12:31:06Z</time>
      </trkpt>
      <trkpt lat="45.99135" lon="4.42471">
        <ele>844.4</ele>
        <time>2025-10-04T12:31:07Z</time>
      </trkpt>
      <trkpt lat="45.99132" lon="4.42475">
        <ele>844</ele>
        <time>2025-10-04T12:31:08Z</time>
      </trkpt>
      <trkpt lat="45.99126" lon="4.4248">
        <ele>843.6</ele>
        <time>2025-10-04T12:31:09Z</time>
      </trkpt>
      <trkpt lat="45.9912" lon="4.42484">
        <ele>843.2</ele>
        <time>2025-10-04T12:31:10Z</time>
      </trkpt>
      <trkpt lat="45.99117" lon="4.42488">
        <ele>843</ele>
        <time>2025-10-04T12:31:11Z</time>
      </trkpt>
      <trkpt lat="45.99113" lon="4.42491">
        <ele>842.2</ele>
        <time>2025-10-04T12:31:12Z</time>
      </trkpt>
      <trkpt lat="45.99107" lon="4.42495">
        <ele>841.4</ele>
        <time>2025-10-04T12:31:13Z</time>
      </trkpt>
      <trkpt lat="45.99103" lon="4.425">
        <ele>841</ele>
        <time>2025-10-04T12:31:14Z</time>
      </trkpt>
      <trkpt lat="45.99098" lon="4.42503">
        <ele>839.6</ele>
        <time>2025-10-04T12:31:15Z</time>
      </trkpt>
      <trkpt lat="45.99095" lon="4.42507">
        <ele>839</ele>
        <time>2025-10-04T12:31:16Z</time>
      </trkpt>
      <trkpt lat="45.99089" lon="4.42514">
        <ele>837.8</ele>
        <time>2025-10-04T12:31:17Z</time>
      </trkpt>
      <trkpt lat="45.99085" lon="4.4252">
        <ele>837.2</ele>
        <time>2025-10-04T12:31:18Z</time>
      </trkpt>
      <trkpt lat="45.9908" lon="4.42527">
        <ele>836.4</ele>
        <time>2025-10-04T12:31:19Z</time>
      </trkpt>
      <trkpt lat="45.99073" lon="4.4254">
        <ele>835.4</ele>
        <time>2025-10-04T12:31:20Z</time>
      </trkpt>
      <trkpt lat="45.99069" lon="4.42547">
        <ele>834</ele>
        <time>2025-10-04T12:31:21Z</time>
      </trkpt>
      <trkpt lat="45.99064" lon="4.42554">
        <ele>833.4</ele>
        <time>2025-10-04T12:31:22Z</time>
      </trkpt>
      <trkpt lat="45.99061" lon="4.42561">
        <ele>831.8</ele>
        <time>2025-10-04T12:31:23Z</time>
      </trkpt>
      <trkpt lat="45.99057" lon="4.42571">
        <ele>831</ele>
        <time>2025-10-04T12:31:24Z</time>
      </trkpt>
      <trkpt lat="45.99052" lon="4.42578">
        <ele>830.6</ele>
        <time>2025-10-04T12:31:25Z</time>
      </trkpt>
      <trkpt lat="45.99048" lon="4.42586">
        <ele>830.8</ele>
        <time>2025-10-04T12:31:26Z</time>
      </trkpt>
      <trkpt lat="45.99044" lon="4.42593">
        <ele>829.2</ele>
        <time>2025-10-04T12:31:27Z</time>
      </trkpt>
      <trkpt lat="45.99041" lon="4.42602">
        <ele>828.4</ele>
        <time>2025-10-04T12:31:28Z</time>
      </trkpt>
      <trkpt lat="45.99038" lon="4.42609">
        <ele>827.6</ele>
        <time>2025-10-04T12:31:29Z</time>
      </trkpt>
      <trkpt lat="45.99036" lon="4.42616">
        <ele>827.4</ele>
        <time>2025-10-04T12:31:30Z</time>
      </trkpt>
      <trkpt lat="45.99033" lon="4.42623">
        <ele>826.6</ele>
        <time>2025-10-04T12:31:31Z</time>
      </trkpt>
      <trkpt lat="45.99031" lon="4.42622">
        <ele>825.8</ele>
        <time>2025-10-04T12:31:32Z</time>
      </trkpt>
      <trkpt lat="45.99028" lon="4.42627">
        <ele>825.2</ele>
        <time>2025-10-04T12:31:33Z</time>
      </trkpt>
      <trkpt lat="45.99025" lon="4.42635">
        <ele>824.2</ele>
        <time>2025-10-04T12:31:34Z</time>
      </trkpt>
      <trkpt lat="45.99021" lon="4.42641">
        <ele>823.8</ele>
        <time>2025-10-04T12:31:35Z</time>
      </trkpt>
      <trkpt lat="45.99019" lon="4.42646">
        <ele>822.8</ele>
        <time>2025-10-04T12:31:36Z</time>
      </trkpt>
      <trkpt lat="45.99017" lon="4.42653">
        <ele>822</ele>
        <time>2025-10-04T12:31:37Z</time>
      </trkpt>
      <trkpt lat="45.99015" lon="4.42658">
        <ele>820.6</ele>
        <time>2025-10-04T12:31:38Z</time>
      </trkpt>
      <trkpt lat="45.99013" lon="4.42664">
        <ele>819.6</ele>
        <time>2025-10-04T12:31:39Z</time>
      </trkpt>
      <trkpt lat="45.99012" lon="4.42673">
        <ele>819</ele>
        <time>2025-10-04T12:31:40Z</time>
      </trkpt>
      <trkpt lat="45.9901" lon="4.42681">
        <ele>818.2</ele>
        <time>2025-10-04T12:31:41Z</time>
      </trkpt>
      <trkpt lat="45.99009" lon="4.42691">
        <ele>817.6</ele>
        <time>2025-10-04T12:31:42Z</time>
      </trkpt>
      <trkpt lat="45.99008" lon="4.42697">
        <ele>816.8</ele>
        <time>2025-10-04T12:31:43Z</time>
      </trkpt>
      <trkpt lat="45.99008" lon="4.42707">
        <ele>815.4</ele>
        <time>2025-10-04T12:31:44Z</time>
      </trkpt>
      <trkpt lat="45.99006" lon="4.42718">
        <ele>814</ele>
        <time>2025-10-04T12:31:45Z</time>
      </trkpt>
      <trkpt lat="45.99004" lon="4.42731">
        <ele>812</ele>
        <time>2025-10-04T12:31:46Z</time>
      </trkpt>
      <trkpt lat="45.99" lon="4.42746">
        <ele>811.2</ele>
        <time>2025-10-04T12:31:47Z</time>
      </trkpt>
      <trkpt lat="45.98996" lon="4.42759">
        <ele>809.4</ele>
        <time>2025-10-04T12:31:48Z</time>
      </trkpt>
      <trkpt lat="45.98991" lon="4.4277">
        <ele>808.8</ele>
        <time>2025-10-04T12:31:49Z</time>
      </trkpt>
      <trkpt lat="45.98985" lon="4.42781">
        <ele>808</ele>
        <time>2025-10-04T12:31:50Z</time>
      </trkpt>
      <trkpt lat="45.98978" lon="4.42792">
        <ele>807.4</ele>
        <time>2025-10-04T12:31:51Z</time>
      </trkpt>
      <trkpt lat="45.98973" lon="4.42801">
        <ele>806.4</ele>
        <time>2025-10-04T12:31:52Z</time>
      </trkpt>
      <trkpt lat="45.98966" lon="4.42808">
        <ele>806</ele>
        <time>2025-10-04T12:31:53Z</time>
      </trkpt>
      <trkpt lat="45.9896" lon="4.42814">
        <ele>806.4</ele>
        <time>2025-10-04T12:31:54Z</time>
      </trkpt>
      <trkpt lat="45.98954" lon="4.42819">
        <ele>806</ele>
        <time>2025-10-04T12:31:55Z</time>
      </trkpt>
      <trkpt lat="45.9895" lon="4.42827">
        <ele>805.4</ele>
        <time>2025-10-04T12:31:56Z</time>
      </trkpt>
      <trkpt lat="45.98946" lon="4.42834">
        <ele>804.8</ele>
        <time>2025-10-04T12:31:57Z</time>
      </trkpt>
      <trkpt lat="45.98941" lon="4.42843">
        <ele>804.2</ele>
        <time>2025-10-04T12:31:58Z</time>
      </trkpt>
      <trkpt lat="45.98942" lon="4.42848">
        <ele>803.4</ele>
        <time>2025-10-04T12:31:59Z</time>
      </trkpt>
      <trkpt lat="45.98939" lon="4.42857">
        <ele>803</ele>
        <time>2025-10-04T12:32:00Z</time>
      </trkpt>
      <trkpt lat="45.98936" lon="4.42869">
        <ele>802</ele>
        <time>2025-10-04T12:32:01Z</time>
      </trkpt>
      <trkpt lat="45.98932" lon="4.42878">
        <ele>800.6</ele>
        <time>2025-10-04T12:32:02Z</time>
      </trkpt>
      <trkpt lat="45.98927" lon="4.4289">
        <ele>800.6</ele>
        <time>2025-10-04T12:32:03Z</time>
      </trkpt>
      <trkpt lat="45.98924" lon="4.429">
        <ele>800</ele>
        <time>2025-10-04T12:32:04Z</time>
      </trkpt>
      <trkpt lat="45.98922" lon="4.42909">
        <ele>799.6</ele>
        <time>2025-10-04T12:32:05Z</time>
      </trkpt>
      <trkpt lat="45.9892" lon="4.42917">
        <ele>799</ele>
        <time>2025-10-04T12:32:06Z</time>
      </trkpt>
      <trkpt lat="45.98918" lon="4.42925">
        <ele>798.6</ele>
        <time>2025-10-04T12:32:07Z</time>
      </trkpt>
      <trkpt lat="45.98914" lon="4.42928">
        <ele>798.2</ele>
        <time>2025-10-04T12:32:08Z</time>
      </trkpt>
      <trkpt lat="45.98914" lon="4.42932">
        <ele>797.6</ele>
        <time>2025-10-04T12:32:09Z</time>
      </trkpt>
      <trkpt lat="45.98912" lon="4.42934">
        <ele>797.8</ele>
        <time>2025-10-04T12:32:10Z</time>
      </trkpt>
      <trkpt lat="45.98909" lon="4.4294">
        <ele>797.4</ele>
        <time>2025-10-04T12:32:11Z</time>
      </trkpt>
      <trkpt lat="45.98908" lon="4.42948">
        <ele>797</ele>
        <time>2025-10-04T12:32:12Z</time>
      </trkpt>
      <trkpt lat="45.98907" lon="4.42952">
        <ele>796.6</ele>
        <time>2025-10-04T12:32:13Z</time>
      </trkpt>
      <trkpt lat="45.98905" lon="4.4296">
        <ele>796.2</ele>
        <time>2025-10-04T12:32:14Z</time>
      </trkpt>
      <trkpt lat="45.98905" lon="4.42967">
        <ele>796.2</ele>
        <time>2025-10-04T12:32:15Z</time>
      </trkpt>
      <trkpt lat="45.98903" lon="4.42972">
        <ele>795.4</ele>
        <time>2025-10-04T12:32:16Z</time>
      </trkpt>
      <trkpt lat="45.98903" lon="4.42978">
        <ele>795</ele>
        <time>2025-10-04T12:32:17Z</time>
      </trkpt>
      <trkpt lat="45.98902" lon="4.42979">
        <ele>794.6</ele>
        <time>2025-10-04T12:32:18Z</time>
      </trkpt>
      <trkpt lat="45.98902" lon="4.42982">
        <ele>794</ele>
        <time>2025-10-04T12:32:19Z</time>
      </trkpt>
      <trkpt lat="45.98901" lon="4.42984">
        <ele>793.6</ele>
        <time>2025-10-04T12:32:20Z</time>
      </trkpt>
      <trkpt lat="45.98901" lon="4.42985">
        <ele>793.6</ele>
        <time>2025-10-04T12:32:21Z</time>
      </trkpt>
      <trkpt lat="45.98901" lon="4.42985">
        <ele>793.2</ele>
        <time>2025-10-04T12:32:22Z</time>
      </trkpt>
      <trkpt lat="45.989" lon="4.42986">
        <ele>792.8</ele>
        <time>2025-10-04T12:32:23Z</time>
      </trkpt>
      <trkpt lat="45.989" lon="4.42987">
        <ele>792.6</ele>
        <time>2025-10-04T12:32:24Z</time>
      </trkpt>
      <trkpt lat="45.989" lon="4.4299">
        <ele>792.2</ele>
        <time>2025-10-04T12:32:25Z</time>
      </trkpt>
      <trkpt lat="45.989" lon="4.42993">
        <ele>792.6</ele>
        <time>2025-10-04T12:32:26Z</time>
      </trkpt>
      <trkpt lat="45.98899" lon="4.42998">
        <ele>792.2</ele>
        <time>2025-10-04T12:32:27Z</time>
      </trkpt>
      <trkpt lat="45.98899" lon="4.43002">
        <ele>792.2</ele>
        <time>2025-10-04T12:32:28Z</time>
      </trkpt>
      <trkpt lat="45.98899" lon="4.43006">
        <ele>791.6</ele>
        <time>2025-10-04T12:32:29Z</time>
      </trkpt>
      <trkpt lat="45.98898" lon="4.43011">
        <ele>791.2</ele>
        <time>2025-10-04T12:32:30Z</time>
      </trkpt>
      <trkpt lat="45.98897" lon="4.43018">
        <ele>791</ele>
        <time>2025-10-04T12:32:31Z</time>
      </trkpt>
      <trkpt lat="45.98895" lon="4.43024">
        <ele>790.4</ele>
        <time>2025-10-04T12:32:32Z</time>
      </trkpt>
      <trkpt lat="45.98893" lon="4.4303">
        <ele>789.8</ele>
        <time>2025-10-04T12:32:33Z</time>
      </trkpt>
      <trkpt lat="45.9889" lon="4.43035">
        <ele>789.4</ele>
        <time>2025-10-04T12:32:34Z</time>
      </trkpt>
      <trkpt lat="45.98887" lon="4.43043">
        <ele>788.4</ele>
        <time>2025-10-04T12:32:35Z</time>
      </trkpt>
      <trkpt lat="45.98884" lon="4.43046">
        <ele>787.8</ele>
        <time>2025-10-04T12:32:36Z</time>
      </trkpt>
      <trkpt lat="45.98881" lon="4.43051">
        <ele>788.2</ele>
        <time>2025-10-04T12:32:37Z</time>
      </trkpt>
      <trkpt lat="45.98878" lon="4.43057">
        <ele>788.2</ele>
        <time>2025-10-04T12:32:38Z</time>
      </trkpt>
      <trkpt lat="45.98875" lon="4.43063">
        <ele>787.4</ele>
        <time>2025-10-04T12:32:39Z</time>
      </trkpt>
      <trkpt lat="45.98871" lon="4.43065">
        <ele>784.4</ele>
        <time>2025-10-04T12:32:40Z</time>
      </trkpt>
      <trkpt lat="45.98868" lon="4.4307">
        <ele>784.4</ele>
        <time>2025-10-04T12:32:41Z</time>
      </trkpt>
      <trkpt lat="45.98867" lon="4.4307">
        <ele>784.2</ele>
        <time>2025-10-04T12:32:42Z</time>
      </trkpt>
      <trkpt lat="45.98864" lon="4.43072">
        <ele>784.2</ele>
        <time>2025-10-04T12:32:43Z</time>
      </trkpt>
      <trkpt lat="45.98862" lon="4.43072">
        <ele>784</ele>
        <time>2025-10-04T12:32:44Z</time>
      </trkpt>
      <trkpt lat="45.9886" lon="4.43072">
        <ele>783.6</ele>
        <time>2025-10-04T12:32:45Z</time>
      </trkpt>
      <trkpt lat="45.98857" lon="4.43073">
        <ele>783.2</ele>
        <time>2025-10-04T12:32:46Z</time>
      </trkpt>
      <trkpt lat="45.98855" lon="4.43074">
        <ele>782.8</ele>
        <time>2025-10-04T12:32:47Z</time>
      </trkpt>
      <trkpt lat="45.98853" lon="4.43074">
        <ele>782.6</ele>
        <time>2025-10-04T12:32:48Z</time>
      </trkpt>
      <trkpt lat="45.98853" lon="4.43074">
        <ele>782.6</ele>
        <time>2025-10-04T12:32:49Z</time>
      </trkpt>
      <trkpt lat="45.98853" lon="4.43073">
        <ele>782.2</ele>
        <time>2025-10-04T12:32:50Z</time>
      </trkpt>
      <trkpt lat="45.98849" lon="4.43072">
        <ele>769.6</ele>
        <time>2025-10-04T12:34:51Z</time>
      </trkpt>
      <trkpt lat="45.98848" lon="4.43073">
        <ele>769.4</ele>
        <time>2025-10-04T12:34:52Z</time>
      </trkpt>
      <trkpt lat="45.98846" lon="4.43074">
        <ele>769</ele>
        <time>2025-10-04T12:34:53Z</time>
      </trkpt>
      <trkpt lat="45.98845" lon="4.43075">
        <ele>768.6</ele>
        <time>2025-10-04T12:34:54Z</time>
      </trkpt>
      <trkpt lat="45.98844" lon="4.43076">
        <ele>768.2</ele>
        <time>2025-10-04T12:34:55Z</time>
      </trkpt>
      <trkpt lat="45.98843" lon="4.43077">
        <ele>767.8</ele>
        <time>2025-10-04T12:34:56Z</time>
      </trkpt>
      <trkpt lat="45.98842" lon="4.43078">
        <ele>767.8</ele>
        <time>2025-10-04T12:34:57Z</time>
      </trkpt>
      <trkpt lat="45.98842" lon="4.43078">
        <ele>767.8</ele>
        <time>2025-10-04T12:34:58Z</time>
      </trkpt>
      <trkpt lat="45.98841" lon="4.43078">
        <ele>767.6</ele>
        <time>2025-10-04T12:34:59Z</time>
      </trkpt>
      <trkpt lat="45.9884" lon="4.43078">
        <ele>767.6</ele>
        <time>2025-10-04T12:35:00Z</time>
      </trkpt>
      <trkpt lat="45.9884" lon="4.43079">
        <ele>767.4</ele>
        <time>2025-10-04T12:35:01Z</time>
      </trkpt>
      <trkpt lat="45.98841" lon="4.43079">
        <ele>767.4</ele>
        <time>2025-10-04T12:35:02Z</time>
      </trkpt>
      <trkpt lat="45.98839" lon="4.43076">
        <ele>766.4</ele>
        <time>2025-10-04T12:35:29Z</time>
      </trkpt>
      <trkpt lat="45.98839" lon="4.43076">
        <ele>766.4</ele>
        <time>2025-10-04T12:35:30Z</time>
      </trkpt>
      <trkpt lat="45.98838" lon="4.43077">
        <ele>766.8</ele>
        <time>2025-10-04T12:35:31Z</time>
      </trkpt>
      <trkpt lat="45.98838" lon="4.43078">
        <ele>766.8</ele>
        <time>2025-10-04T12:35:32Z</time>
      </trkpt>
      <trkpt lat="45.98837" lon="4.4308">
        <ele>767.2</ele>
        <time>2025-10-04T12:35:33Z</time>
      </trkpt>
      <trkpt lat="45.98837" lon="4.43081">
        <ele>767.2</ele>
        <time>2025-10-04T12:35:34Z</time>
      </trkpt>
      <trkpt lat="45.98837" lon="4.43081">
        <ele>767.2</ele>
        <time>2025-10-04T12:35:35Z</time>
      </trkpt>
      <trkpt lat="45.98838" lon="4.43082">
        <ele>767.4</ele>
        <time>2025-10-04T12:35:36Z</time>
      </trkpt>
      <trkpt lat="45.98839" lon="4.43083">
        <ele>767.4</ele>
        <time>2025-10-04T12:35:37Z</time>
      </trkpt>
      <trkpt lat="45.98839" lon="4.43085">
        <ele>767.4</ele>
        <time>2025-10-04T12:35:38Z</time>
      </trkpt>
      <trkpt lat="45.98838" lon="4.43086">
        <ele>767.4</ele>
        <time>2025-10-04T12:35:39Z</time>
      </trkpt>
      <trkpt lat="45.98838" lon="4.43088">
        <ele>767.4</ele>
        <time>2025-10-04T12:35:40Z</time>
      </trkpt>
      <trkpt lat="45.98837" lon="4.43089">
        <ele>767.4</ele>
        <time>2025-10-04T12:35:41Z</time>
      </trkpt>
      <trkpt lat="45.98837" lon="4.4309">
        <ele>767.4</ele>
        <time>2025-10-04T12:35:42Z</time>
      </trkpt>
      <trkpt lat="45.98836" lon="4.43091">
        <ele>767.4</ele>
        <time>2025-10-04T12:35:43Z</time>
      </trkpt>
      <trkpt lat="45.98836" lon="4.43091">
        <ele>767.4</ele>
        <time>2025-10-04T12:35:44Z</time>
      </trkpt>
      <trkpt lat="45.98836" lon="4.43091">
        <ele>767.4</ele>
        <time>2025-10-04T12:35:45Z</time>
      </trkpt>
      <trkpt lat="45.98836" lon="4.43091">
        <ele>767.4</ele>
        <time>2025-10-04T12:35:46Z</time>
      </trkpt>
      <trkpt lat="45.98836" lon="4.43092">
        <ele>767.4</ele>
        <time>2025-10-04T12:35:47Z</time>
      </trkpt>
      <trkpt lat="45.98835" lon="4.43092">
        <ele>767.4</ele>
        <time>2025-10-04T12:35:48Z</time>
      </trkpt>
      <trkpt lat="45.98834" lon="4.43093">
        <ele>767.4</ele>
        <time>2025-10-04T12:35:49Z</time>
      </trkpt>
      <trkpt lat="45.98833" lon="4.43093">
        <ele>767.4</ele>
        <time>2025-10-04T12:35:50Z</time>
      </trkpt>
      <trkpt lat="45.98832" lon="4.43094">
        <ele>767.4</ele>
        <time>2025-10-04T12:35:51Z</time>
      </trkpt>
      <trkpt lat="45.98831" lon="4.43094">
        <ele>767.4</ele>
        <time>2025-10-04T12:35:52Z</time>
      </trkpt>
      <trkpt lat="45.98831" lon="4.43094">
        <ele>767.2</ele>
        <time>2025-10-04T12:35:53Z</time>
      </trkpt>
      <trkpt lat="45.98831" lon="4.43094">
        <ele>767.2</ele>
        <time>2025-10-04T12:35:54Z</time>
      </trkpt>
      <trkpt lat="45.98831" lon="4.43094">
        <ele>767</ele>
        <time>2025-10-04T12:35:55Z</time>
      </trkpt>
      <trkpt lat="45.98831" lon="4.43095">
        <ele>767</ele>
        <time>2025-10-04T12:35:56Z</time>
      </trkpt>
      <trkpt lat="45.98831" lon="4.43096">
        <ele>767</ele>
        <time>2025-10-04T12:35:57Z</time>
      </trkpt>
      <trkpt lat="45.98831" lon="4.43097">
        <ele>766.8</ele>
        <time>2025-10-04T12:35:58Z</time>
      </trkpt>
      <trkpt lat="45.98831" lon="4.43096">
        <ele>766.8</ele>
        <time>2025-10-04T12:35:59Z</time>
      </trkpt>
      <trkpt lat="45.98831" lon="4.43095">
        <ele>766.8</ele>
        <time>2025-10-04T12:36:00Z</time>
      </trkpt>
      <trkpt lat="45.98828" lon="4.43095">
        <ele>766.4</ele>
        <time>2025-10-04T12:36:06Z</time>
      </trkpt>
      <trkpt lat="45.98828" lon="4.43095">
        <ele>766.4</ele>
        <time>2025-10-04T12:36:07Z</time>
      </trkpt>
      <trkpt lat="45.98827" lon="4.43095">
        <ele>766.2</ele>
        <time>2025-10-04T12:36:08Z</time>
      </trkpt>
      <trkpt lat="45.98827" lon="4.43096">
        <ele>766.2</ele>
        <time>2025-10-04T12:36:09Z</time>
      </trkpt>
      <trkpt lat="45.98823" lon="4.43092">
        <ele>765.2</ele>
        <time>2025-10-04T12:38:53Z</time>
      </trkpt>
      <trkpt lat="45.98823" lon="4.43092">
        <ele>764.2</ele>
        <time>2025-10-04T12:38:54Z</time>
      </trkpt>
      <trkpt lat="45.98823" lon="4.43093">
        <ele>764.8</ele>
        <time>2025-10-04T12:38:55Z</time>
      </trkpt>
      <trkpt lat="45.98823" lon="4.43092">
        <ele>765.2</ele>
        <time>2025-10-04T12:38:56Z</time>
      </trkpt>
      <trkpt lat="45.98819" lon="4.43084">
        <ele>764.6</ele>
        <time>2025-10-04T12:42:36Z</time>
      </trkpt>
      <trkpt lat="45.98819" lon="4.43084">
        <ele>764.2</ele>
        <time>2025-10-04T12:42:37Z</time>
      </trkpt>
      <trkpt lat="45.98819" lon="4.43084">
        <ele>763.8</ele>
        <time>2025-10-04T12:42:38Z</time>
      </trkpt>
      <trkpt lat="45.98817" lon="4.43081">
        <ele>763.6</ele>
        <time>2025-10-04T12:42:39Z</time>
      </trkpt>
      <trkpt lat="45.98815" lon="4.43079">
        <ele>763.2</ele>
        <time>2025-10-04T12:42:40Z</time>
      </trkpt>
      <trkpt lat="45.98816" lon="4.4308">
        <ele>763.2</ele>
        <time>2025-10-04T12:42:41Z</time>
      </trkpt>
      <trkpt lat="45.98816" lon="4.43081">
        <ele>763</ele>
        <time>2025-10-04T12:42:42Z</time>
      </trkpt>
      <trkpt lat="45.98817" lon="4.43081">
        <ele>763</ele>
        <time>2025-10-04T12:42:43Z</time>
      </trkpt>
      <trkpt lat="45.98815" lon="4.4308">
        <ele>763</ele>
        <time>2025-10-04T12:42:48Z</time>
      </trkpt>
      <trkpt lat="45.98815" lon="4.43081">
        <ele>762.8</ele>
        <time>2025-10-04T12:42:49Z</time>
      </trkpt>
      <trkpt lat="45.98815" lon="4.43082">
        <ele>762.8</ele>
        <time>2025-10-04T12:42:50Z</time>
      </trkpt>
      <trkpt lat="45.98816" lon="4.43084">
        <ele>762.8</ele>
        <time>2025-10-04T12:42:51Z</time>
      </trkpt>
      <trkpt lat="45.98816" lon="4.43084">
        <ele>762.8</ele>
        <time>2025-10-04T12:42:52Z</time>
      </trkpt>
      <trkpt lat="45.98816" lon="4.43087">
        <ele>761.6</ele>
        <time>2025-10-04T12:42:57Z</time>
      </trkpt>
      <trkpt lat="45.98814" lon="4.43088">
        <ele>760.8</ele>
        <time>2025-10-04T12:42:58Z</time>
      </trkpt>
      <trkpt lat="45.98812" lon="4.43089">
        <ele>760.4</ele>
        <time>2025-10-04T12:42:59Z</time>
      </trkpt>
      <trkpt lat="45.98809" lon="4.4309">
        <ele>760.4</ele>
        <time>2025-10-04T12:43:00Z</time>
      </trkpt>
      <trkpt lat="45.98806" lon="4.43092">
        <ele>760.4</ele>
        <time>2025-10-04T12:43:01Z</time>
      </trkpt>
      <trkpt lat="45.98802" lon="4.43092">
        <ele>759.8</ele>
        <time>2025-10-04T12:43:02Z</time>
      </trkpt>
      <trkpt lat="45.98799" lon="4.43094">
        <ele>759.2</ele>
        <time>2025-10-04T12:43:03Z</time>
      </trkpt>
      <trkpt lat="45.98797" lon="4.43095">
        <ele>758.4</ele>
        <time>2025-10-04T12:43:04Z</time>
      </trkpt>
      <trkpt lat="45.98794" lon="4.43095">
        <ele>758.4</ele>
        <time>2025-10-04T12:43:05Z</time>
      </trkpt>
      <trkpt lat="45.98793" lon="4.43096">
        <ele>757.8</ele>
        <time>2025-10-04T12:43:06Z</time>
      </trkpt>
      <trkpt lat="45.98792" lon="4.43096">
        <ele>757.4</ele>
        <time>2025-10-04T12:43:07Z</time>
      </trkpt>
      <trkpt lat="45.98789" lon="4.43096">
        <ele>757.4</ele>
        <time>2025-10-04T12:43:08Z</time>
      </trkpt>
      <trkpt lat="45.98787" lon="4.43096">
        <ele>757.4</ele>
        <time>2025-10-04T12:43:09Z</time>
      </trkpt>
      <trkpt lat="45.98782" lon="4.43091">
        <ele>757.4</ele>
        <time>2025-10-04T12:43:10Z</time>
      </trkpt>
      <trkpt lat="45.98778" lon="4.43091">
        <ele>757</ele>
        <time>2025-10-04T12:43:11Z</time>
      </trkpt>
      <trkpt lat="45.98774" lon="4.43092">
        <ele>755.6</ele>
        <time>2025-10-04T12:43:12Z</time>
      </trkpt>
      <trkpt lat="45.98771" lon="4.43091">
        <ele>755.4</ele>
        <time>2025-10-04T12:43:13Z</time>
      </trkpt>
      <trkpt lat="45.98767" lon="4.43093">
        <ele>755.2</ele>
        <time>2025-10-04T12:43:14Z</time>
      </trkpt>
      <trkpt lat="45.98762" lon="4.43094">
        <ele>755.2</ele>
        <time>2025-10-04T12:43:15Z</time>
      </trkpt>
      <trkpt lat="45.98758" lon="4.43095">
        <ele>754.6</ele>
        <time>2025-10-04T12:43:16Z</time>
      </trkpt>
      <trkpt lat="45.98754" lon="4.43096">
        <ele>754</ele>
        <time>2025-10-04T12:43:17Z</time>
      </trkpt>
      <trkpt lat="45.9875" lon="4.43099">
        <ele>753.2</ele>
        <time>2025-10-04T12:43:18Z</time>
      </trkpt>
      <trkpt lat="45.98744" lon="4.43103">
        <ele>751.8</ele>
        <time>2025-10-04T12:43:19Z</time>
      </trkpt>
      <trkpt lat="45.98741" lon="4.43108">
        <ele>751</ele>
        <time>2025-10-04T12:43:20Z</time>
      </trkpt>
      <trkpt lat="45.98735" lon="4.43115">
        <ele>750.2</ele>
        <time>2025-10-04T12:43:21Z</time>
      </trkpt>
      <trkpt lat="45.98731" lon="4.43122">
        <ele>749.6</ele>
        <time>2025-10-04T12:43:22Z</time>
      </trkpt>
      <trkpt lat="45.98727" lon="4.43128">
        <ele>749.6</ele>
        <time>2025-10-04T12:43:23Z</time>
      </trkpt>
      <trkpt lat="45.98723" lon="4.43134">
        <ele>749</ele>
        <time>2025-10-04T12:43:24Z</time>
      </trkpt>
      <trkpt lat="45.98719" lon="4.43138">
        <ele>748.6</ele>
        <time>2025-10-04T12:43:25Z</time>
      </trkpt>
      <trkpt lat="45.98714" lon="4.43143">
        <ele>748.8</ele>
        <time>2025-10-04T12:43:26Z</time>
      </trkpt>
      <trkpt lat="45.98709" lon="4.43148">
        <ele>748.2</ele>
        <time>2025-10-04T12:43:27Z</time>
      </trkpt>
      <trkpt lat="45.98703" lon="4.43152">
        <ele>747</ele>
        <time>2025-10-04T12:43:28Z</time>
      </trkpt>
      <trkpt lat="45.98697" lon="4.43157">
        <ele>746</ele>
        <time>2025-10-04T12:43:29Z</time>
      </trkpt>
      <trkpt lat="45.98692" lon="4.43164">
        <ele>745.4</ele>
        <time>2025-10-04T12:43:30Z</time>
      </trkpt>
      <trkpt lat="45.98687" lon="4.43168">
        <ele>745.4</ele>
        <time>2025-10-04T12:43:31Z</time>
      </trkpt>
      <trkpt lat="45.98683" lon="4.43176">
        <ele>745.2</ele>
        <time>2025-10-04T12:43:32Z</time>
      </trkpt>
      <trkpt lat="45.9868" lon="4.43184">
        <ele>744.8</ele>
        <time>2025-10-04T12:43:33Z</time>
      </trkpt>
      <trkpt lat="45.98677" lon="4.43191">
        <ele>744.8</ele>
        <time>2025-10-04T12:43:34Z</time>
      </trkpt>
      <trkpt lat="45.98673" lon="4.43196">
        <ele>744.4</ele>
        <time>2025-10-04T12:43:35Z</time>
      </trkpt>
      <trkpt lat="45.9867" lon="4.43201">
        <ele>744.4</ele>
        <time>2025-10-04T12:43:36Z</time>
      </trkpt>
      <trkpt lat="45.98666" lon="4.43209">
        <ele>744.4</ele>
        <time>2025-10-04T12:43:37Z</time>
      </trkpt>
      <trkpt lat="45.98663" lon="4.43215">
        <ele>744.4</ele>
        <time>2025-10-04T12:43:38Z</time>
      </trkpt>
      <trkpt lat="45.98659" lon="4.43221">
        <ele>744.4</ele>
        <time>2025-10-04T12:43:39Z</time>
      </trkpt>
      <trkpt lat="45.98656" lon="4.43229">
        <ele>744.4</ele>
        <time>2025-10-04T12:43:40Z</time>
      </trkpt>
      <trkpt lat="45.98657" lon="4.4323">
        <ele>744.4</ele>
        <time>2025-10-04T12:43:41Z</time>
      </trkpt>
      <trkpt lat="45.98654" lon="4.43234">
        <ele>744.4</ele>
        <time>2025-10-04T12:43:42Z</time>
      </trkpt>
      <trkpt lat="45.98652" lon="4.43238">
        <ele>744.4</ele>
        <time>2025-10-04T12:43:43Z</time>
      </trkpt>
      <trkpt lat="45.98648" lon="4.43241">
        <ele>744.8</ele>
        <time>2025-10-04T12:43:44Z</time>
      </trkpt>
      <trkpt lat="45.98646" lon="4.43245">
        <ele>744.8</ele>
        <time>2025-10-04T12:43:45Z</time>
      </trkpt>
      <trkpt lat="45.98644" lon="4.4325">
        <ele>744.8</ele>
        <time>2025-10-04T12:43:46Z</time>
      </trkpt>
      <trkpt lat="45.98642" lon="4.43255">
        <ele>745</ele>
        <time>2025-10-04T12:43:47Z</time>
      </trkpt>
      <trkpt lat="45.9864" lon="4.43259">
        <ele>745</ele>
        <time>2025-10-04T12:43:48Z</time>
      </trkpt>
      <trkpt lat="45.98638" lon="4.43262">
        <ele>745</ele>
        <time>2025-10-04T12:43:49Z</time>
      </trkpt>
      <trkpt lat="45.98636" lon="4.43266">
        <ele>745.4</ele>
        <time>2025-10-04T12:43:50Z</time>
      </trkpt>
      <trkpt lat="45.98634" lon="4.4327">
        <ele>745.4</ele>
        <time>2025-10-04T12:43:51Z</time>
      </trkpt>
      <trkpt lat="45.98632" lon="4.43274">
        <ele>745.4</ele>
        <time>2025-10-04T12:43:52Z</time>
      </trkpt>
      <trkpt lat="45.9863" lon="4.43277">
        <ele>745.4</ele>
        <time>2025-10-04T12:43:53Z</time>
      </trkpt>
      <trkpt lat="45.98629" lon="4.4328">
        <ele>745.6</ele>
        <time>2025-10-04T12:43:54Z</time>
      </trkpt>
      <trkpt lat="45.98627" lon="4.43283">
        <ele>745.6</ele>
        <time>2025-10-04T12:43:55Z</time>
      </trkpt>
      <trkpt lat="45.98626" lon="4.43286">
        <ele>746.2</ele>
        <time>2025-10-04T12:43:56Z</time>
      </trkpt>
      <trkpt lat="45.98625" lon="4.43289">
        <ele>746.4</ele>
        <time>2025-10-04T12:43:57Z</time>
      </trkpt>
      <trkpt lat="45.98624" lon="4.43291">
        <ele>747</ele>
        <time>2025-10-04T12:43:58Z</time>
      </trkpt>
      <trkpt lat="45.98623" lon="4.43293">
        <ele>747.4</ele>
        <time>2025-10-04T12:43:59Z</time>
      </trkpt>
      <trkpt lat="45.98621" lon="4.43295">
        <ele>747.6</ele>
        <time>2025-10-04T12:44:00Z</time>
      </trkpt>
      <trkpt lat="45.98619" lon="4.43297">
        <ele>748</ele>
        <time>2025-10-04T12:44:01Z</time>
      </trkpt>
      <trkpt lat="45.98617" lon="4.43299">
        <ele>748.6</ele>
        <time>2025-10-04T12:44:02Z</time>
      </trkpt>
      <trkpt lat="45.98615" lon="4.43302">
        <ele>749</ele>
        <time>2025-10-04T12:44:03Z</time>
      </trkpt>
      <trkpt lat="45.98613" lon="4.43305">
        <ele>749</ele>
        <time>2025-10-04T12:44:04Z</time>
      </trkpt>
      <trkpt lat="45.98612" lon="4.43308">
        <ele>749.4</ele>
        <time>2025-10-04T12:44:05Z</time>
      </trkpt>
      <trkpt lat="45.9861" lon="4.4331">
        <ele>749.6</ele>
        <time>2025-10-04T12:44:06Z</time>
      </trkpt>
      <trkpt lat="45.98609" lon="4.43312">
        <ele>749.6</ele>
        <time>2025-10-04T12:44:07Z</time>
      </trkpt>
      <trkpt lat="45.98608" lon="4.43314">
        <ele>750</ele>
        <time>2025-10-04T12:44:08Z</time>
      </trkpt>
      <trkpt lat="45.98606" lon="4.43316">
        <ele>750.4</ele>
        <time>2025-10-04T12:44:09Z</time>
      </trkpt>
      <trkpt lat="45.98604" lon="4.43318">
        <ele>750.4</ele>
        <time>2025-10-04T12:44:10Z</time>
      </trkpt>
      <trkpt lat="45.98602" lon="4.4332">
        <ele>750.6</ele>
        <time>2025-10-04T12:44:11Z</time>
      </trkpt>
      <trkpt lat="45.98601" lon="4.43322">
        <ele>750.6</ele>
        <time>2025-10-04T12:44:12Z</time>
      </trkpt>
      <trkpt lat="45.986" lon="4.43323">
        <ele>750.6</ele>
        <time>2025-10-04T12:44:13Z</time>
      </trkpt>
      <trkpt lat="45.98598" lon="4.43325">
        <ele>750.8</ele>
        <time>2025-10-04T12:44:14Z</time>
      </trkpt>
      <trkpt lat="45.98596" lon="4.43326">
        <ele>751.2</ele>
        <time>2025-10-04T12:44:15Z</time>
      </trkpt>
      <trkpt lat="45.98594" lon="4.43328">
        <ele>751.2</ele>
        <time>2025-10-04T12:44:16Z</time>
      </trkpt>
      <trkpt lat="45.98593" lon="4.4333">
        <ele>751.2</ele>
        <time>2025-10-04T12:44:17Z</time>
      </trkpt>
      <trkpt lat="45.98592" lon="4.43333">
        <ele>751.2</ele>
        <time>2025-10-04T12:44:18Z</time>
      </trkpt>
      <trkpt lat="45.98591" lon="4.43335">
        <ele>751.2</ele>
        <time>2025-10-04T12:44:19Z</time>
      </trkpt>
      <trkpt lat="45.9859" lon="4.43338">
        <ele>750.8</ele>
        <time>2025-10-04T12:44:20Z</time>
      </trkpt>
      <trkpt lat="45.98589" lon="4.43341">
        <ele>750.8</ele>
        <time>2025-10-04T12:44:21Z</time>
      </trkpt>
      <trkpt lat="45.98587" lon="4.43343">
        <ele>750.8</ele>
        <time>2025-10-04T12:44:22Z</time>
      </trkpt>
      <trkpt lat="45.98586" lon="4.43346">
        <ele>750.8</ele>
        <time>2025-10-04T12:44:23Z</time>
      </trkpt>
      <trkpt lat="45.98585" lon="4.43349">
        <ele>750.8</ele>
        <time>2025-10-04T12:44:24Z</time>
      </trkpt>
      <trkpt lat="45.98584" lon="4.4335">
        <ele>750.8</ele>
        <time>2025-10-04T12:44:25Z</time>
      </trkpt>
      <trkpt lat="45.98584" lon="4.43352">
        <ele>750.8</ele>
        <time>2025-10-04T12:44:26Z</time>
      </trkpt>
      <trkpt lat="45.98584" lon="4.43352">
        <ele>750.8</ele>
        <time>2025-10-04T12:44:27Z</time>
      </trkpt>
      <trkpt lat="45.98584" lon="4.43353">
        <ele>750.8</ele>
        <time>2025-10-04T12:44:28Z</time>
      </trkpt>
      <trkpt lat="45.98584" lon="4.43353">
        <ele>750.8</ele>
        <time>2025-10-04T12:44:29Z</time>
      </trkpt>
      <trkpt lat="45.98585" lon="4.43361">
        <ele>750.4</ele>
        <time>2025-10-04T12:44:35Z</time>
      </trkpt>
      <trkpt lat="45.98585" lon="4.43364">
        <ele>750.4</ele>
        <time>2025-10-04T12:44:36Z</time>
      </trkpt>
      <trkpt lat="45.98585" lon="4.43364">
        <ele>750.2</ele>
        <time>2025-10-04T12:44:37Z</time>
      </trkpt>
      <trkpt lat="45.98585" lon="4.43368">
        <ele>750.2</ele>
        <time>2025-10-04T12:44:38Z</time>
      </trkpt>
      <trkpt lat="45.98584" lon="4.43372">
        <ele>750</ele>
        <time>2025-10-04T12:44:39Z</time>
      </trkpt>
      <trkpt lat="45.98582" lon="4.43377">
        <ele>750</ele>
        <time>2025-10-04T12:44:40Z</time>
      </trkpt>
      <trkpt lat="45.98581" lon="4.43381">
        <ele>750</ele>
        <time>2025-10-04T12:44:41Z</time>
      </trkpt>
      <trkpt lat="45.9858" lon="4.43384">
        <ele>750</ele>
        <time>2025-10-04T12:44:42Z</time>
      </trkpt>
      <trkpt lat="45.98578" lon="4.43388">
        <ele>750</ele>
        <time>2025-10-04T12:44:43Z</time>
      </trkpt>
      <trkpt lat="45.98577" lon="4.43393">
        <ele>750.2</ele>
        <time>2025-10-04T12:44:44Z</time>
      </trkpt>
      <trkpt lat="45.98576" lon="4.43398">
        <ele>749</ele>
        <time>2025-10-04T12:44:45Z</time>
      </trkpt>
      <trkpt lat="45.98574" lon="4.43403">
        <ele>749</ele>
        <time>2025-10-04T12:44:46Z</time>
      </trkpt>
      <trkpt lat="45.98573" lon="4.43408">
        <ele>748.8</ele>
        <time>2025-10-04T12:44:47Z</time>
      </trkpt>
      <trkpt lat="45.98569" lon="4.43414">
        <ele>748.6</ele>
        <time>2025-10-04T12:44:48Z</time>
      </trkpt>
      <trkpt lat="45.98568" lon="4.4342">
        <ele>748</ele>
        <time>2025-10-04T12:44:49Z</time>
      </trkpt>
      <trkpt lat="45.98567" lon="4.43425">
        <ele>748</ele>
        <time>2025-10-04T12:44:50Z</time>
      </trkpt>
      <trkpt lat="45.98565" lon="4.43431">
        <ele>747.8</ele>
        <time>2025-10-04T12:44:51Z</time>
      </trkpt>
      <trkpt lat="45.98563" lon="4.43436">
        <ele>747.6</ele>
        <time>2025-10-04T12:44:52Z</time>
      </trkpt>
      <trkpt lat="45.98563" lon="4.43443">
        <ele>747.4</ele>
        <time>2025-10-04T12:44:53Z</time>
      </trkpt>
      <trkpt lat="45.98561" lon="4.43449">
        <ele>747.4</ele>
        <time>2025-10-04T12:44:54Z</time>
      </trkpt>
      <trkpt lat="45.9856" lon="4.43453">
        <ele>747.4</ele>
        <time>2025-10-04T12:44:55Z</time>
      </trkpt>
      <trkpt lat="45.98558" lon="4.43458">
        <ele>747.2</ele>
        <time>2025-10-04T12:44:56Z</time>
      </trkpt>
      <trkpt lat="45.98557" lon="4.43463">
        <ele>747.2</ele>
        <time>2025-10-04T12:44:57Z</time>
      </trkpt>
      <trkpt lat="45.98556" lon="4.43467">
        <ele>747.2</ele>
        <time>2025-10-04T12:44:58Z</time>
      </trkpt>
      <trkpt lat="45.98556" lon="4.43472">
        <ele>747.2</ele>
        <time>2025-10-04T12:44:59Z</time>
      </trkpt>
      <trkpt lat="45.98555" lon="4.43476">
        <ele>747.2</ele>
        <time>2025-10-04T12:45:00Z</time>
      </trkpt>
      <trkpt lat="45.98555" lon="4.43478">
        <ele>747.2</ele>
        <time>2025-10-04T12:45:01Z</time>
      </trkpt>
      <trkpt lat="45.98555" lon="4.4348">
        <ele>747.4</ele>
        <time>2025-10-04T12:45:02Z</time>
      </trkpt>
      <trkpt lat="45.98555" lon="4.43481">
        <ele>747.4</ele>
        <time>2025-10-04T12:45:03Z</time>
      </trkpt>
      <trkpt lat="45.98555" lon="4.43481">
        <ele>747.4</ele>
        <time>2025-10-04T12:45:04Z</time>
      </trkpt>
      <trkpt lat="45.98556" lon="4.43481">
        <ele>747.6</ele>
        <time>2025-10-04T12:45:05Z</time>
      </trkpt>
      <trkpt lat="45.98556" lon="4.43481">
        <ele>747.6</ele>
        <time>2025-10-04T12:45:06Z</time>
      </trkpt>
      <trkpt lat="45.98556" lon="4.43481">
        <ele>747.6</ele>
        <time>2025-10-04T12:45:07Z</time>
      </trkpt>
      <trkpt lat="45.98557" lon="4.43476">
        <ele>745.8</ele>
        <time>2025-10-04T12:51:19Z</time>
      </trkpt>
      <trkpt lat="45.98557" lon="4.43476">
        <ele>745.8</ele>
        <time>2025-10-04T12:51:20Z</time>
      </trkpt>
      <trkpt lat="45.98557" lon="4.43476">
        <ele>745.8</ele>
        <time>2025-10-04T12:51:21Z</time>
      </trkpt>
      <trkpt lat="45.98556" lon="4.43478">
        <ele>745.8</ele>
        <time>2025-10-04T12:51:22Z</time>
      </trkpt>
      <trkpt lat="45.98555" lon="4.43479">
        <ele>745.2</ele>
        <time>2025-10-04T12:51:23Z</time>
      </trkpt>
      <trkpt lat="45.98554" lon="4.43481">
        <ele>745.2</ele>
        <time>2025-10-04T12:51:24Z</time>
      </trkpt>
      <trkpt lat="45.98554" lon="4.43483">
        <ele>745.2</ele>
        <time>2025-10-04T12:51:25Z</time>
      </trkpt>
      <trkpt lat="45.98553" lon="4.43486">
        <ele>745.2</ele>
        <time>2025-10-04T12:51:26Z</time>
      </trkpt>
      <trkpt lat="45.98553" lon="4.4349">
        <ele>745.6</ele>
        <time>2025-10-04T12:51:27Z</time>
      </trkpt>
      <trkpt lat="45.98553" lon="4.43494">
        <ele>745.6</ele>
        <time>2025-10-04T12:51:28Z</time>
      </trkpt>
      <trkpt lat="45.98554" lon="4.43498">
        <ele>745.6</ele>
        <time>2025-10-04T12:51:29Z</time>
      </trkpt>
      <trkpt lat="45.98554" lon="4.435">
        <ele>745.8</ele>
        <time>2025-10-04T12:51:30Z</time>
      </trkpt>
      <trkpt lat="45.98554" lon="4.435">
        <ele>745.8</ele>
        <time>2025-10-04T12:51:31Z</time>
      </trkpt>
      <trkpt lat="45.98554" lon="4.435">
        <ele>746</ele>
        <time>2025-10-04T12:51:32Z</time>
      </trkpt>
      <trkpt lat="45.98554" lon="4.43499">
        <ele>746</ele>
        <time>2025-10-04T12:51:33Z</time>
      </trkpt>
      <trkpt lat="45.98554" lon="4.43504">
        <ele>746</ele>
        <time>2025-10-04T12:51:40Z</time>
      </trkpt>
      <trkpt lat="45.98554" lon="4.43508">
        <ele>745</ele>
        <time>2025-10-04T12:51:41Z</time>
      </trkpt>
      <trkpt lat="45.98553" lon="4.43511">
        <ele>745</ele>
        <time>2025-10-04T12:51:42Z</time>
      </trkpt>
      <trkpt lat="45.98552" lon="4.43515">
        <ele>743.8</ele>
        <time>2025-10-04T12:51:43Z</time>
      </trkpt>
      <trkpt lat="45.98551" lon="4.4352">
        <ele>744.2</ele>
        <time>2025-10-04T12:51:44Z</time>
      </trkpt>
      <trkpt lat="45.98551" lon="4.43524">
        <ele>743.6</ele>
        <time>2025-10-04T12:51:45Z</time>
      </trkpt>
      <trkpt lat="45.98551" lon="4.43529">
        <ele>743.6</ele>
        <time>2025-10-04T12:51:46Z</time>
      </trkpt>
      <trkpt lat="45.98551" lon="4.43534">
        <ele>743.2</ele>
        <time>2025-10-04T12:51:47Z</time>
      </trkpt>
      <trkpt lat="45.9855" lon="4.43542">
        <ele>743.4</ele>
        <time>2025-10-04T12:51:48Z</time>
      </trkpt>
      <trkpt lat="45.98548" lon="4.43548">
        <ele>743</ele>
        <time>2025-10-04T12:51:49Z</time>
      </trkpt>
      <trkpt lat="45.98548" lon="4.43554">
        <ele>743</ele>
        <time>2025-10-04T12:51:50Z</time>
      </trkpt>
      <trkpt lat="45.98548" lon="4.4356">
        <ele>742.4</ele>
        <time>2025-10-04T12:51:51Z</time>
      </trkpt>
      <trkpt lat="45.98542" lon="4.43567">
        <ele>741.8</ele>
        <time>2025-10-04T12:51:52Z</time>
      </trkpt>
      <trkpt lat="45.98541" lon="4.43576">
        <ele>741</ele>
        <time>2025-10-04T12:51:53Z</time>
      </trkpt>
      <trkpt lat="45.9854" lon="4.43582">
        <ele>740.4</ele>
        <time>2025-10-04T12:51:54Z</time>
      </trkpt>
      <trkpt lat="45.98538" lon="4.4359">
        <ele>739.6</ele>
        <time>2025-10-04T12:51:55Z</time>
      </trkpt>
      <trkpt lat="45.98537" lon="4.43596">
        <ele>739.4</ele>
        <time>2025-10-04T12:51:56Z</time>
      </trkpt>
      <trkpt lat="45.98537" lon="4.43603">
        <ele>739.4</ele>
        <time>2025-10-04T12:51:57Z</time>
      </trkpt>
      <trkpt lat="45.98537" lon="4.4361">
        <ele>738.2</ele>
        <time>2025-10-04T12:51:58Z</time>
      </trkpt>
      <trkpt lat="45.98537" lon="4.43615">
        <ele>737.4</ele>
        <time>2025-10-04T12:51:59Z</time>
      </trkpt>
      <trkpt lat="45.98539" lon="4.43622">
        <ele>736.8</ele>
        <time>2025-10-04T12:52:00Z</time>
      </trkpt>
      <trkpt lat="45.98539" lon="4.4363">
        <ele>736</ele>
        <time>2025-10-04T12:52:01Z</time>
      </trkpt>
      <trkpt lat="45.9854" lon="4.43639">
        <ele>735.2</ele>
        <time>2025-10-04T12:52:02Z</time>
      </trkpt>
      <trkpt lat="45.98538" lon="4.43648">
        <ele>734.8</ele>
        <time>2025-10-04T12:52:03Z</time>
      </trkpt>
      <trkpt lat="45.98537" lon="4.43657">
        <ele>734.2</ele>
        <time>2025-10-04T12:52:04Z</time>
      </trkpt>
      <trkpt lat="45.98534" lon="4.43664">
        <ele>735</ele>
        <time>2025-10-04T12:52:05Z</time>
      </trkpt>
      <trkpt lat="45.98534" lon="4.43669">
        <ele>734.4</ele>
        <time>2025-10-04T12:52:06Z</time>
      </trkpt>
      <trkpt lat="45.98532" lon="4.43679">
        <ele>733.8</ele>
        <time>2025-10-04T12:52:07Z</time>
      </trkpt>
      <trkpt lat="45.98533" lon="4.43685">
        <ele>733.2</ele>
        <time>2025-10-04T12:52:08Z</time>
      </trkpt>
      <trkpt lat="45.9853" lon="4.43693">
        <ele>732.4</ele>
        <time>2025-10-04T12:52:09Z</time>
      </trkpt>
      <trkpt lat="45.98529" lon="4.43701">
        <ele>732</ele>
        <time>2025-10-04T12:52:10Z</time>
      </trkpt>
      <trkpt lat="45.98527" lon="4.43709">
        <ele>731.4</ele>
        <time>2025-10-04T12:52:11Z</time>
      </trkpt>
      <trkpt lat="45.98524" lon="4.43715">
        <ele>731</ele>
        <time>2025-10-04T12:52:12Z</time>
      </trkpt>
      <trkpt lat="45.98524" lon="4.43715">
        <ele>731</ele>
        <time>2025-10-04T12:52:13Z</time>
      </trkpt>
      <trkpt lat="45.98523" lon="4.43723">
        <ele>731</ele>
        <time>2025-10-04T12:52:14Z</time>
      </trkpt>
      <trkpt lat="45.98521" lon="4.43731">
        <ele>731</ele>
        <time>2025-10-04T12:52:15Z</time>
      </trkpt>
      <trkpt lat="45.98519" lon="4.43739">
        <ele>730.8</ele>
        <time>2025-10-04T12:52:16Z</time>
      </trkpt>
      <trkpt lat="45.98517" lon="4.43748">
        <ele>730.2</ele>
        <time>2025-10-04T12:52:17Z</time>
      </trkpt>
      <trkpt lat="45.98515" lon="4.43755">
        <ele>729.6</ele>
        <time>2025-10-04T12:52:18Z</time>
      </trkpt>
      <trkpt lat="45.98512" lon="4.43762">
        <ele>729.6</ele>
        <time>2025-10-04T12:52:19Z</time>
      </trkpt>
      <trkpt lat="45.9851" lon="4.43769">
        <ele>729</ele>
        <time>2025-10-04T12:52:20Z</time>
      </trkpt>
      <trkpt lat="45.9851" lon="4.43775">
        <ele>728.4</ele>
        <time>2025-10-04T12:52:21Z</time>
      </trkpt>
      <trkpt lat="45.9851" lon="4.43779">
        <ele>728.4</ele>
        <time>2025-10-04T12:52:22Z</time>
      </trkpt>
      <trkpt lat="45.98508" lon="4.43784">
        <ele>727.8</ele>
        <time>2025-10-04T12:52:23Z</time>
      </trkpt>
      <trkpt lat="45.98508" lon="4.43788">
        <ele>727.8</ele>
        <time>2025-10-04T12:52:24Z</time>
      </trkpt>
      <trkpt lat="45.98506" lon="4.43792">
        <ele>727.4</ele>
        <time>2025-10-04T12:52:25Z</time>
      </trkpt>
      <trkpt lat="45.98506" lon="4.43796">
        <ele>727.4</ele>
        <time>2025-10-04T12:52:26Z</time>
      </trkpt>
      <trkpt lat="45.98506" lon="4.438">
        <ele>727</ele>
        <time>2025-10-04T12:52:27Z</time>
      </trkpt>
      <trkpt lat="45.98504" lon="4.43804">
        <ele>726.8</ele>
        <time>2025-10-04T12:52:28Z</time>
      </trkpt>
      <trkpt lat="45.98502" lon="4.43807">
        <ele>726.8</ele>
        <time>2025-10-04T12:52:29Z</time>
      </trkpt>
      <trkpt lat="45.98501" lon="4.4381">
        <ele>726.6</ele>
        <time>2025-10-04T12:52:30Z</time>
      </trkpt>
      <trkpt lat="45.985" lon="4.43814">
        <ele>725.8</ele>
        <time>2025-10-04T12:52:31Z</time>
      </trkpt>
      <trkpt lat="45.98499" lon="4.43817">
        <ele>725.8</ele>
        <time>2025-10-04T12:52:32Z</time>
      </trkpt>
      <trkpt lat="45.98498" lon="4.4382">
        <ele>725.4</ele>
        <time>2025-10-04T12:52:33Z</time>
      </trkpt>
      <trkpt lat="45.98497" lon="4.43824">
        <ele>725</ele>
        <time>2025-10-04T12:52:34Z</time>
      </trkpt>
      <trkpt lat="45.98495" lon="4.43828">
        <ele>724.8</ele>
        <time>2025-10-04T12:52:35Z</time>
      </trkpt>
      <trkpt lat="45.98494" lon="4.43831">
        <ele>724.4</ele>
        <time>2025-10-04T12:52:36Z</time>
      </trkpt>
      <trkpt lat="45.98492" lon="4.43833">
        <ele>724.4</ele>
        <time>2025-10-04T12:52:37Z</time>
      </trkpt>
      <trkpt lat="45.98491" lon="4.43836">
        <ele>724</ele>
        <time>2025-10-04T12:52:38Z</time>
      </trkpt>
      <trkpt lat="45.9849" lon="4.43837">
        <ele>724</ele>
        <time>2025-10-04T12:52:39Z</time>
      </trkpt>
      <trkpt lat="45.9849" lon="4.43838">
        <ele>724</ele>
        <time>2025-10-04T12:52:40Z</time>
      </trkpt>
      <trkpt lat="45.9849" lon="4.43839">
        <ele>724</ele>
        <time>2025-10-04T12:52:41Z</time>
      </trkpt>
      <trkpt lat="45.98491" lon="4.4384">
        <ele>723.6</ele>
        <time>2025-10-04T12:52:42Z</time>
      </trkpt>
      <trkpt lat="45.9849" lon="4.43842">
        <ele>723.4</ele>
        <time>2025-10-04T12:52:43Z</time>
      </trkpt>
      <trkpt lat="45.98489" lon="4.43845">
        <ele>723</ele>
        <time>2025-10-04T12:52:44Z</time>
      </trkpt>
      <trkpt lat="45.98488" lon="4.43847">
        <ele>722.8</ele>
        <time>2025-10-04T12:52:45Z</time>
      </trkpt>
      <trkpt lat="45.98486" lon="4.43848">
        <ele>722.8</ele>
        <time>2025-10-04T12:52:46Z</time>
      </trkpt>
      <trkpt lat="45.98484" lon="4.43849">
        <ele>722.8</ele>
        <time>2025-10-04T12:52:47Z</time>
      </trkpt>
      <trkpt lat="45.98482" lon="4.43851">
        <ele>722.8</ele>
        <time>2025-10-04T12:52:48Z</time>
      </trkpt>
      <trkpt lat="45.9848" lon="4.43854">
        <ele>722.4</ele>
        <time>2025-10-04T12:52:49Z</time>
      </trkpt>
      <trkpt lat="45.98479" lon="4.43858">
        <ele>722.4</ele>
        <time>2025-10-04T12:52:50Z</time>
      </trkpt>
      <trkpt lat="45.98478" lon="4.43862">
        <ele>722.4</ele>
        <time>2025-10-04T12:52:51Z</time>
      </trkpt>
      <trkpt lat="45.98477" lon="4.43865">
        <ele>722.4</ele>
        <time>2025-10-04T12:52:52Z</time>
      </trkpt>
      <trkpt lat="45.98476" lon="4.43869">
        <ele>722.4</ele>
        <time>2025-10-04T12:52:53Z</time>
      </trkpt>
      <trkpt lat="45.98474" lon="4.43872">
        <ele>722.6</ele>
        <time>2025-10-04T12:52:54Z</time>
      </trkpt>
      <trkpt lat="45.98472" lon="4.43875">
        <ele>723.2</ele>
        <time>2025-10-04T12:52:55Z</time>
      </trkpt>
      <trkpt lat="45.98471" lon="4.43877">
        <ele>723</ele>
        <time>2025-10-04T12:52:56Z</time>
      </trkpt>
      <trkpt lat="45.9847" lon="4.43879">
        <ele>723.6</ele>
        <time>2025-10-04T12:52:57Z</time>
      </trkpt>
      <trkpt lat="45.98468" lon="4.4388">
        <ele>724.4</ele>
        <time>2025-10-04T12:52:58Z</time>
      </trkpt>
      <trkpt lat="45.98466" lon="4.43882">
        <ele>724.8</ele>
        <time>2025-10-04T12:52:59Z</time>
      </trkpt>
      <trkpt lat="45.98465" lon="4.43882">
        <ele>724.8</ele>
        <time>2025-10-04T12:53:00Z</time>
      </trkpt>
      <trkpt lat="45.98463" lon="4.43883">
        <ele>725</ele>
        <time>2025-10-04T12:53:01Z</time>
      </trkpt>
      <trkpt lat="45.98462" lon="4.43884">
        <ele>725.2</ele>
        <time>2025-10-04T12:53:02Z</time>
      </trkpt>
      <trkpt lat="45.98461" lon="4.43885">
        <ele>725.6</ele>
        <time>2025-10-04T12:53:03Z</time>
      </trkpt>
      <trkpt lat="45.9846" lon="4.43887">
        <ele>725.6</ele>
        <time>2025-10-04T12:53:04Z</time>
      </trkpt>
      <trkpt lat="45.98459" lon="4.43888">
        <ele>726</ele>
        <time>2025-10-04T12:53:05Z</time>
      </trkpt>
      <trkpt lat="45.98458" lon="4.4389">
        <ele>726.4</ele>
        <time>2025-10-04T12:53:06Z</time>
      </trkpt>
      <trkpt lat="45.98458" lon="4.43892">
        <ele>726.6</ele>
        <time>2025-10-04T12:53:07Z</time>
      </trkpt>
      <trkpt lat="45.98458" lon="4.43893">
        <ele>726.6</ele>
        <time>2025-10-04T12:53:08Z</time>
      </trkpt>
      <trkpt lat="45.98458" lon="4.43895">
        <ele>727.2</ele>
        <time>2025-10-04T12:53:09Z</time>
      </trkpt>
      <trkpt lat="45.98457" lon="4.43895">
        <ele>727.2</ele>
        <time>2025-10-04T12:53:10Z</time>
      </trkpt>
      <trkpt lat="45.98455" lon="4.43895">
        <ele>727.6</ele>
        <time>2025-10-04T12:53:11Z</time>
      </trkpt>
      <trkpt lat="45.98453" lon="4.43896">
        <ele>727.6</ele>
        <time>2025-10-04T12:53:12Z</time>
      </trkpt>
      <trkpt lat="45.98451" lon="4.43896">
        <ele>727.8</ele>
        <time>2025-10-04T12:53:13Z</time>
      </trkpt>
      <trkpt lat="45.9845" lon="4.43897">
        <ele>728</ele>
        <time>2025-10-04T12:53:14Z</time>
      </trkpt>
      <trkpt lat="45.98449" lon="4.43898">
        <ele>728</ele>
        <time>2025-10-04T12:53:15Z</time>
      </trkpt>
      <trkpt lat="45.98447" lon="4.43899">
        <ele>728.4</ele>
        <time>2025-10-04T12:53:16Z</time>
      </trkpt>
      <trkpt lat="45.98446" lon="4.439">
        <ele>728.6</ele>
        <time>2025-10-04T12:53:17Z</time>
      </trkpt>
      <trkpt lat="45.98444" lon="4.43901">
        <ele>728.6</ele>
        <time>2025-10-04T12:53:18Z</time>
      </trkpt>
      <trkpt lat="45.98442" lon="4.43902">
        <ele>729.2</ele>
        <time>2025-10-04T12:53:19Z</time>
      </trkpt>
      <trkpt lat="45.98441" lon="4.43902">
        <ele>729.2</ele>
        <time>2025-10-04T12:53:20Z</time>
      </trkpt>
      <trkpt lat="45.9844" lon="4.43903">
        <ele>729.4</ele>
        <time>2025-10-04T12:53:21Z</time>
      </trkpt>
      <trkpt lat="45.9844" lon="4.43903">
        <ele>729.8</ele>
        <time>2025-10-04T12:53:22Z</time>
      </trkpt>
      <trkpt lat="45.9844" lon="4.43903">
        <ele>729.8</ele>
        <time>2025-10-04T12:53:23Z</time>
      </trkpt>
      <trkpt lat="45.98439" lon="4.43903">
        <ele>730.2</ele>
        <time>2025-10-04T12:53:24Z</time>
      </trkpt>
      <trkpt lat="45.98439" lon="4.43904">
        <ele>730.4</ele>
        <time>2025-10-04T12:53:25Z</time>
      </trkpt>
      <trkpt lat="45.98438" lon="4.43904">
        <ele>730.4</ele>
        <time>2025-10-04T12:53:26Z</time>
      </trkpt>
      <trkpt lat="45.98437" lon="4.43905">
        <ele>730.8</ele>
        <time>2025-10-04T12:53:27Z</time>
      </trkpt>
      <trkpt lat="45.98436" lon="4.43905">
        <ele>731</ele>
        <time>2025-10-04T12:53:28Z</time>
      </trkpt>
      <trkpt lat="45.98435" lon="4.43906">
        <ele>731.2</ele>
        <time>2025-10-04T12:53:29Z</time>
      </trkpt>
      <trkpt lat="45.98434" lon="4.43906">
        <ele>731.2</ele>
        <time>2025-10-04T12:53:30Z</time>
      </trkpt>
      <trkpt lat="45.98433" lon="4.43906">
        <ele>731.8</ele>
        <time>2025-10-04T12:53:31Z</time>
      </trkpt>
      <trkpt lat="45.98432" lon="4.43907">
        <ele>731.8</ele>
        <time>2025-10-04T12:53:32Z</time>
      </trkpt>
      <trkpt lat="45.9843" lon="4.43908">
        <ele>732</ele>
        <time>2025-10-04T12:53:33Z</time>
      </trkpt>
      <trkpt lat="45.98429" lon="4.43908">
        <ele>732.2</ele>
        <time>2025-10-04T12:53:34Z</time>
      </trkpt>
      <trkpt lat="45.98427" lon="4.43909">
        <ele>732.6</ele>
        <time>2025-10-04T12:53:35Z</time>
      </trkpt>
      <trkpt lat="45.98426" lon="4.43909">
        <ele>733</ele>
        <time>2025-10-04T12:53:36Z</time>
      </trkpt>
      <trkpt lat="45.98424" lon="4.43908">
        <ele>733</ele>
        <time>2025-10-04T12:53:37Z</time>
      </trkpt>
      <trkpt lat="45.98423" lon="4.43908">
        <ele>733.2</ele>
        <time>2025-10-04T12:53:38Z</time>
      </trkpt>
      <trkpt lat="45.98423" lon="4.43908">
        <ele>733.6</ele>
        <time>2025-10-04T12:53:39Z</time>
      </trkpt>
      <trkpt lat="45.98422" lon="4.43908">
        <ele>733.6</ele>
        <time>2025-10-04T12:53:40Z</time>
      </trkpt>
      <trkpt lat="45.98421" lon="4.43908">
        <ele>734.2</ele>
        <time>2025-10-04T12:53:41Z</time>
      </trkpt>
      <trkpt lat="45.98419" lon="4.43909">
        <ele>734.4</ele>
        <time>2025-10-04T12:53:42Z</time>
      </trkpt>
      <trkpt lat="45.98417" lon="4.4391">
        <ele>734.8</ele>
        <time>2025-10-04T12:53:43Z</time>
      </trkpt>
      <trkpt lat="45.98415" lon="4.4391">
        <ele>735</ele>
        <time>2025-10-04T12:53:44Z</time>
      </trkpt>
      <trkpt lat="45.98414" lon="4.43911">
        <ele>735.4</ele>
        <time>2025-10-04T12:53:45Z</time>
      </trkpt>
      <trkpt lat="45.98413" lon="4.43911">
        <ele>735.6</ele>
        <time>2025-10-04T12:53:46Z</time>
      </trkpt>
      <trkpt lat="45.98411" lon="4.43911">
        <ele>736</ele>
        <time>2025-10-04T12:53:47Z</time>
      </trkpt>
      <trkpt lat="45.98409" lon="4.43911">
        <ele>736.2</ele>
        <time>2025-10-04T12:53:48Z</time>
      </trkpt>
      <trkpt lat="45.98408" lon="4.43911">
        <ele>736.6</ele>
        <time>2025-10-04T12:53:49Z</time>
      </trkpt>
      <trkpt lat="45.98408" lon="4.43913">
        <ele>736.8</ele>
        <time>2025-10-04T12:53:50Z</time>
      </trkpt>
      <trkpt lat="45.98406" lon="4.43915">
        <ele>737</ele>
        <time>2025-10-04T12:53:51Z</time>
      </trkpt>
      <trkpt lat="45.98405" lon="4.43916">
        <ele>737</ele>
        <time>2025-10-04T12:53:52Z</time>
      </trkpt>
      <trkpt lat="45.98405" lon="4.43916">
        <ele>737</ele>
        <time>2025-10-04T12:53:53Z</time>
      </trkpt>
      <trkpt lat="45.98404" lon="4.43916">
        <ele>737.2</ele>
        <time>2025-10-04T12:53:54Z</time>
      </trkpt>
      <trkpt lat="45.98404" lon="4.43916">
        <ele>737.2</ele>
        <time>2025-10-04T12:53:55Z</time>
      </trkpt>
      <trkpt lat="45.98403" lon="4.43916">
        <ele>737.6</ele>
        <time>2025-10-04T12:53:56Z</time>
      </trkpt>
      <trkpt lat="45.98402" lon="4.43915">
        <ele>737.8</ele>
        <time>2025-10-04T12:53:57Z</time>
      </trkpt>
      <trkpt lat="45.984" lon="4.43915">
        <ele>738.2</ele>
        <time>2025-10-04T12:53:58Z</time>
      </trkpt>
      <trkpt lat="45.984" lon="4.43915">
        <ele>738.4</ele>
        <time>2025-10-04T12:53:59Z</time>
      </trkpt>
      <trkpt lat="45.98399" lon="4.43916">
        <ele>738.6</ele>
        <time>2025-10-04T12:54:00Z</time>
      </trkpt>
      <trkpt lat="45.98398" lon="4.43917">
        <ele>739</ele>
        <time>2025-10-04T12:54:01Z</time>
      </trkpt>
      <trkpt lat="45.98397" lon="4.43918">
        <ele>739</ele>
        <time>2025-10-04T12:54:02Z</time>
      </trkpt>
      <trkpt lat="45.98396" lon="4.43918">
        <ele>739.2</ele>
        <time>2025-10-04T12:54:03Z</time>
      </trkpt>
      <trkpt lat="45.98396" lon="4.43918">
        <ele>739.6</ele>
        <time>2025-10-04T12:54:04Z</time>
      </trkpt>
      <trkpt lat="45.98394" lon="4.43918">
        <ele>739.8</ele>
        <time>2025-10-04T12:54:05Z</time>
      </trkpt>
      <trkpt lat="45.98392" lon="4.43918">
        <ele>739.8</ele>
        <time>2025-10-04T12:54:06Z</time>
      </trkpt>
      <trkpt lat="45.98392" lon="4.43918">
        <ele>739.8</ele>
        <time>2025-10-04T12:54:07Z</time>
      </trkpt>
      <trkpt lat="45.98391" lon="4.43919">
        <ele>740.2</ele>
        <time>2025-10-04T12:54:08Z</time>
      </trkpt>
      <trkpt lat="45.9839" lon="4.4392">
        <ele>740.4</ele>
        <time>2025-10-04T12:54:09Z</time>
      </trkpt>
      <trkpt lat="45.9839" lon="4.4392">
        <ele>740.4</ele>
        <time>2025-10-04T12:54:10Z</time>
      </trkpt>
      <trkpt lat="45.98389" lon="4.4392">
        <ele>740.8</ele>
        <time>2025-10-04T12:54:11Z</time>
      </trkpt>
      <trkpt lat="45.98388" lon="4.4392">
        <ele>741.2</ele>
        <time>2025-10-04T12:54:12Z</time>
      </trkpt>
      <trkpt lat="45.98387" lon="4.43919">
        <ele>741.2</ele>
        <time>2025-10-04T12:54:13Z</time>
      </trkpt>
      <trkpt lat="45.98386" lon="4.43919">
        <ele>741.4</ele>
        <time>2025-10-04T12:54:14Z</time>
      </trkpt>
      <trkpt lat="45.98386" lon="4.43918">
        <ele>741.8</ele>
        <time>2025-10-04T12:54:15Z</time>
      </trkpt>
      <trkpt lat="45.98385" lon="4.43918">
        <ele>741.8</ele>
        <time>2025-10-04T12:54:16Z</time>
      </trkpt>
      <trkpt lat="45.98385" lon="4.43918">
        <ele>742</ele>
        <time>2025-10-04T12:54:17Z</time>
      </trkpt>
      <trkpt lat="45.98384" lon="4.43918">
        <ele>742</ele>
        <time>2025-10-04T12:54:18Z</time>
      </trkpt>
      <trkpt lat="45.98384" lon="4.43918">
        <ele>742</ele>
        <time>2025-10-04T12:54:19Z</time>
      </trkpt>
      <trkpt lat="45.98384" lon="4.43919">
        <ele>742</ele>
        <time>2025-10-04T12:54:20Z</time>
      </trkpt>
      <trkpt lat="45.98383" lon="4.43919">
        <ele>741.4</ele>
        <time>2025-10-04T12:54:21Z</time>
      </trkpt>
      <trkpt lat="45.98381" lon="4.4392">
        <ele>742.6</ele>
        <time>2025-10-04T12:54:40Z</time>
      </trkpt>
      <trkpt lat="45.98379" lon="4.43921">
        <ele>743</ele>
        <time>2025-10-04T12:54:41Z</time>
      </trkpt>
      <trkpt lat="45.98377" lon="4.43921">
        <ele>743.2</ele>
        <time>2025-10-04T12:54:42Z</time>
      </trkpt>
      <trkpt lat="45.98376" lon="4.43921">
        <ele>743.4</ele>
        <time>2025-10-04T12:54:43Z</time>
      </trkpt>
      <trkpt lat="45.98374" lon="4.4392">
        <ele>743.6</ele>
        <time>2025-10-04T12:54:44Z</time>
      </trkpt>
      <trkpt lat="45.98371" lon="4.43919">
        <ele>744</ele>
        <time>2025-10-04T12:54:45Z</time>
      </trkpt>
      <trkpt lat="45.9837" lon="4.43919">
        <ele>744</ele>
        <time>2025-10-04T12:54:46Z</time>
      </trkpt>
      <trkpt lat="45.98368" lon="4.43919">
        <ele>744.2</ele>
        <time>2025-10-04T12:54:47Z</time>
      </trkpt>
      <trkpt lat="45.98367" lon="4.43919">
        <ele>744.6</ele>
        <time>2025-10-04T12:54:48Z</time>
      </trkpt>
      <trkpt lat="45.98365" lon="4.4392">
        <ele>744.6</ele>
        <time>2025-10-04T12:54:49Z</time>
      </trkpt>
      <trkpt lat="45.98364" lon="4.4392">
        <ele>744.8</ele>
        <time>2025-10-04T12:54:50Z</time>
      </trkpt>
      <trkpt lat="45.98362" lon="4.4392">
        <ele>744.8</ele>
        <time>2025-10-04T12:54:51Z</time>
      </trkpt>
      <trkpt lat="45.9836" lon="4.43921">
        <ele>745</ele>
        <time>2025-10-04T12:54:52Z</time>
      </trkpt>
      <trkpt lat="45.98359" lon="4.43921">
        <ele>745.2</ele>
        <time>2025-10-04T12:54:53Z</time>
      </trkpt>
      <trkpt lat="45.98358" lon="4.43921">
        <ele>745.4</ele>
        <time>2025-10-04T12:54:54Z</time>
      </trkpt>
      <trkpt lat="45.98357" lon="4.43921">
        <ele>745.8</ele>
        <time>2025-10-04T12:54:55Z</time>
      </trkpt>
      <trkpt lat="45.98355" lon="4.43922">
        <ele>746.2</ele>
        <time>2025-10-04T12:54:56Z</time>
      </trkpt>
      <trkpt lat="45.98352" lon="4.43923">
        <ele>746.4</ele>
        <time>2025-10-04T12:54:57Z</time>
      </trkpt>
      <trkpt lat="45.98351" lon="4.43924">
        <ele>746.4</ele>
        <time>2025-10-04T12:54:58Z</time>
      </trkpt>
      <trkpt lat="45.98349" lon="4.43925">
        <ele>746.8</ele>
        <time>2025-10-04T12:54:59Z</time>
      </trkpt>
      <trkpt lat="45.98347" lon="4.43926">
        <ele>747</ele>
        <time>2025-10-04T12:55:00Z</time>
      </trkpt>
      <trkpt lat="45.98346" lon="4.43927">
        <ele>747</ele>
        <time>2025-10-04T12:55:01Z</time>
      </trkpt>
      <trkpt lat="45.98344" lon="4.43928">
        <ele>747.4</ele>
        <time>2025-10-04T12:55:02Z</time>
      </trkpt>
      <trkpt lat="45.98343" lon="4.43928">
        <ele>747.4</ele>
        <time>2025-10-04T12:55:03Z</time>
      </trkpt>
      <trkpt lat="45.98342" lon="4.43929">
        <ele>747.8</ele>
        <time>2025-10-04T12:55:04Z</time>
      </trkpt>
      <trkpt lat="45.98341" lon="4.43928">
        <ele>748.2</ele>
        <time>2025-10-04T12:55:05Z</time>
      </trkpt>
      <trkpt lat="45.98341" lon="4.43928">
        <ele>748.2</ele>
        <time>2025-10-04T12:55:06Z</time>
      </trkpt>
      <trkpt lat="45.9834" lon="4.43927">
        <ele>748.4</ele>
        <time>2025-10-04T12:55:07Z</time>
      </trkpt>
      <trkpt lat="45.9834" lon="4.43927">
        <ele>748.4</ele>
        <time>2025-10-04T12:55:08Z</time>
      </trkpt>
      <trkpt lat="45.98339" lon="4.43927">
        <ele>748.8</ele>
        <time>2025-10-04T12:55:09Z</time>
      </trkpt>
      <trkpt lat="45.98338" lon="4.43928">
        <ele>749</ele>
        <time>2025-10-04T12:55:10Z</time>
      </trkpt>
      <trkpt lat="45.98336" lon="4.43928">
        <ele>749</ele>
        <time>2025-10-04T12:55:11Z</time>
      </trkpt>
      <trkpt lat="45.98336" lon="4.43929">
        <ele>749.4</ele>
        <time>2025-10-04T12:55:12Z</time>
      </trkpt>
      <trkpt lat="45.98334" lon="4.4393">
        <ele>749.8</ele>
        <time>2025-10-04T12:55:13Z</time>
      </trkpt>
      <trkpt lat="45.98332" lon="4.43931">
        <ele>750</ele>
        <time>2025-10-04T12:55:14Z</time>
      </trkpt>
      <trkpt lat="45.98331" lon="4.43932">
        <ele>750</ele>
        <time>2025-10-04T12:55:15Z</time>
      </trkpt>
      <trkpt lat="45.9833" lon="4.43932">
        <ele>749.6</ele>
        <time>2025-10-04T12:55:16Z</time>
      </trkpt>
      <trkpt lat="45.98329" lon="4.43932">
        <ele>750</ele>
        <time>2025-10-04T12:55:17Z</time>
      </trkpt>
      <trkpt lat="45.98329" lon="4.43932">
        <ele>750.6</ele>
        <time>2025-10-04T12:55:18Z</time>
      </trkpt>
      <trkpt lat="45.98328" lon="4.43932">
        <ele>750.8</ele>
        <time>2025-10-04T12:55:19Z</time>
      </trkpt>
      <trkpt lat="45.98326" lon="4.43932">
        <ele>751.4</ele>
        <time>2025-10-04T12:55:20Z</time>
      </trkpt>
      <trkpt lat="45.98325" lon="4.43932">
        <ele>751.8</ele>
        <time>2025-10-04T12:55:21Z</time>
      </trkpt>
      <trkpt lat="45.98322" lon="4.43931">
        <ele>752</ele>
        <time>2025-10-04T12:55:22Z</time>
      </trkpt>
      <trkpt lat="45.9832" lon="4.43931">
        <ele>752.4</ele>
        <time>2025-10-04T12:55:23Z</time>
      </trkpt>
      <trkpt lat="45.98318" lon="4.43932">
        <ele>752.6</ele>
        <time>2025-10-04T12:55:24Z</time>
      </trkpt>
      <trkpt lat="45.98316" lon="4.43933">
        <ele>752.8</ele>
        <time>2025-10-04T12:55:25Z</time>
      </trkpt>
      <trkpt lat="45.98315" lon="4.43933">
        <ele>753</ele>
        <time>2025-10-04T12:55:26Z</time>
      </trkpt>
      <trkpt lat="45.98314" lon="4.43934">
        <ele>753.4</ele>
        <time>2025-10-04T12:55:27Z</time>
      </trkpt>
      <trkpt lat="45.98313" lon="4.43935">
        <ele>753.8</ele>
        <time>2025-10-04T12:55:28Z</time>
      </trkpt>
      <trkpt lat="45.98312" lon="4.43936">
        <ele>754</ele>
        <time>2025-10-04T12:55:29Z</time>
      </trkpt>
      <trkpt lat="45.98312" lon="4.43937">
        <ele>754.4</ele>
        <time>2025-10-04T12:55:30Z</time>
      </trkpt>
      <trkpt lat="45.98311" lon="4.43938">
        <ele>754.8</ele>
        <time>2025-10-04T12:55:31Z</time>
      </trkpt>
      <trkpt lat="45.98309" lon="4.43939">
        <ele>755</ele>
        <time>2025-10-04T12:55:32Z</time>
      </trkpt>
      <trkpt lat="45.98308" lon="4.43939">
        <ele>755.4</ele>
        <time>2025-10-04T12:55:33Z</time>
      </trkpt>
      <trkpt lat="45.98307" lon="4.43939">
        <ele>755.6</ele>
        <time>2025-10-04T12:55:34Z</time>
      </trkpt>
      <trkpt lat="45.98306" lon="4.4394">
        <ele>755.8</ele>
        <time>2025-10-04T12:55:35Z</time>
      </trkpt>
      <trkpt lat="45.98306" lon="4.4394">
        <ele>756.2</ele>
        <time>2025-10-04T12:55:36Z</time>
      </trkpt>
      <trkpt lat="45.98305" lon="4.4394">
        <ele>756.2</ele>
        <time>2025-10-04T12:55:37Z</time>
      </trkpt>
      <trkpt lat="45.98304" lon="4.4394">
        <ele>756.6</ele>
        <time>2025-10-04T12:55:38Z</time>
      </trkpt>
      <trkpt lat="45.98303" lon="4.4394">
        <ele>756.6</ele>
        <time>2025-10-04T12:55:39Z</time>
      </trkpt>
      <trkpt lat="45.98302" lon="4.43941">
        <ele>756.8</ele>
        <time>2025-10-04T12:55:40Z</time>
      </trkpt>
      <trkpt lat="45.98301" lon="4.43941">
        <ele>756.8</ele>
        <time>2025-10-04T12:55:41Z</time>
      </trkpt>
      <trkpt lat="45.983" lon="4.43942">
        <ele>756.8</ele>
        <time>2025-10-04T12:55:42Z</time>
      </trkpt>
      <trkpt lat="45.98299" lon="4.43942">
        <ele>757.2</ele>
        <time>2025-10-04T12:55:43Z</time>
      </trkpt>
      <trkpt lat="45.98299" lon="4.43942">
        <ele>757.4</ele>
        <time>2025-10-04T12:55:44Z</time>
      </trkpt>
      <trkpt lat="45.98298" lon="4.43943">
        <ele>757.4</ele>
        <time>2025-10-04T12:55:45Z</time>
      </trkpt>
      <trkpt lat="45.98297" lon="4.43943">
        <ele>757.6</ele>
        <time>2025-10-04T12:55:46Z</time>
      </trkpt>
      <trkpt lat="45.98296" lon="4.43944">
        <ele>757.6</ele>
        <time>2025-10-04T12:55:47Z</time>
      </trkpt>
      <trkpt lat="45.98295" lon="4.43945">
        <ele>757.6</ele>
        <time>2025-10-04T12:55:48Z</time>
      </trkpt>
      <trkpt lat="45.98294" lon="4.43946">
        <ele>758</ele>
        <time>2025-10-04T12:55:49Z</time>
      </trkpt>
      <trkpt lat="45.98293" lon="4.43947">
        <ele>758</ele>
        <time>2025-10-04T12:55:50Z</time>
      </trkpt>
      <trkpt lat="45.98293" lon="4.43947">
        <ele>758</ele>
        <time>2025-10-04T12:55:51Z</time>
      </trkpt>
      <trkpt lat="45.98292" lon="4.43949">
        <ele>758</ele>
        <time>2025-10-04T12:55:52Z</time>
      </trkpt>
      <trkpt lat="45.98291" lon="4.4395">
        <ele>758.4</ele>
        <time>2025-10-04T12:55:53Z</time>
      </trkpt>
      <trkpt lat="45.9829" lon="4.43951">
        <ele>758.4</ele>
        <time>2025-10-04T12:55:54Z</time>
      </trkpt>
      <trkpt lat="45.98289" lon="4.43952">
        <ele>758.4</ele>
        <time>2025-10-04T12:55:55Z</time>
      </trkpt>
      <trkpt lat="45.98288" lon="4.43953">
        <ele>758.4</ele>
        <time>2025-10-04T12:55:56Z</time>
      </trkpt>
      <trkpt lat="45.98286" lon="4.43954">
        <ele>758.4</ele>
        <time>2025-10-04T12:55:57Z</time>
      </trkpt>
      <trkpt lat="45.98286" lon="4.43955">
        <ele>758.6</ele>
        <time>2025-10-04T12:55:58Z</time>
      </trkpt>
      <trkpt lat="45.98285" lon="4.43956">
        <ele>758.6</ele>
        <time>2025-10-04T12:55:59Z</time>
      </trkpt>
      <trkpt lat="45.98285" lon="4.43956">
        <ele>758.6</ele>
        <time>2025-10-04T12:56:00Z</time>
      </trkpt>
      <trkpt lat="45.98285" lon="4.43957">
        <ele>759</ele>
        <time>2025-10-04T12:56:01Z</time>
      </trkpt>
      <trkpt lat="45.98284" lon="4.43958">
        <ele>759</ele>
        <time>2025-10-04T12:56:02Z</time>
      </trkpt>
      <trkpt lat="45.98283" lon="4.43959">
        <ele>759.2</ele>
        <time>2025-10-04T12:56:03Z</time>
      </trkpt>
      <trkpt lat="45.98282" lon="4.43961">
        <ele>759.2</ele>
        <time>2025-10-04T12:56:04Z</time>
      </trkpt>
      <trkpt lat="45.98281" lon="4.43963">
        <ele>759.8</ele>
        <time>2025-10-04T12:56:05Z</time>
      </trkpt>
      <trkpt lat="45.98279" lon="4.43964">
        <ele>760.2</ele>
        <time>2025-10-04T12:56:06Z</time>
      </trkpt>
      <trkpt lat="45.98279" lon="4.43965">
        <ele>760.6</ele>
        <time>2025-10-04T12:56:07Z</time>
      </trkpt>
      <trkpt lat="45.98277" lon="4.43967">
        <ele>761</ele>
        <time>2025-10-04T12:56:08Z</time>
      </trkpt>
      <trkpt lat="45.98276" lon="4.43969">
        <ele>761.4</ele>
        <time>2025-10-04T12:56:09Z</time>
      </trkpt>
      <trkpt lat="45.98275" lon="4.4397">
        <ele>761.4</ele>
        <time>2025-10-04T12:56:10Z</time>
      </trkpt>
      <trkpt lat="45.98274" lon="4.4397">
        <ele>762</ele>
        <time>2025-10-04T12:56:11Z</time>
      </trkpt>
      <trkpt lat="45.98272" lon="4.4397">
        <ele>762.2</ele>
        <time>2025-10-04T12:56:12Z</time>
      </trkpt>
      <trkpt lat="45.98271" lon="4.4397">
        <ele>762.2</ele>
        <time>2025-10-04T12:56:13Z</time>
      </trkpt>
      <trkpt lat="45.9827" lon="4.43971">
        <ele>762.6</ele>
        <time>2025-10-04T12:56:14Z</time>
      </trkpt>
      <trkpt lat="45.98269" lon="4.43972">
        <ele>763</ele>
        <time>2025-10-04T12:56:15Z</time>
      </trkpt>
      <trkpt lat="45.98267" lon="4.43973">
        <ele>763</ele>
        <time>2025-10-04T12:56:16Z</time>
      </trkpt>
      <trkpt lat="45.98266" lon="4.43973">
        <ele>763.2</ele>
        <time>2025-10-04T12:56:17Z</time>
      </trkpt>
      <trkpt lat="45.98264" lon="4.43974">
        <ele>763.4</ele>
        <time>2025-10-04T12:56:18Z</time>
      </trkpt>
      <trkpt lat="45.98263" lon="4.43975">
        <ele>763.8</ele>
        <time>2025-10-04T12:56:19Z</time>
      </trkpt>
      <trkpt lat="45.98261" lon="4.43977">
        <ele>764</ele>
        <time>2025-10-04T12:56:20Z</time>
      </trkpt>
      <trkpt lat="45.9826" lon="4.43978">
        <ele>764</ele>
        <time>2025-10-04T12:56:21Z</time>
      </trkpt>
      <trkpt lat="45.98258" lon="4.43979">
        <ele>764</ele>
        <time>2025-10-04T12:56:22Z</time>
      </trkpt>
      <trkpt lat="45.98257" lon="4.4398">
        <ele>764</ele>
        <time>2025-10-04T12:56:23Z</time>
      </trkpt>
      <trkpt lat="45.98256" lon="4.43981">
        <ele>764.2</ele>
        <time>2025-10-04T12:56:24Z</time>
      </trkpt>
      <trkpt lat="45.98255" lon="4.43982">
        <ele>764.2</ele>
        <time>2025-10-04T12:56:25Z</time>
      </trkpt>
      <trkpt lat="45.98254" lon="4.43983">
        <ele>764.6</ele>
        <time>2025-10-04T12:56:26Z</time>
      </trkpt>
      <trkpt lat="45.98253" lon="4.43983">
        <ele>764.6</ele>
        <time>2025-10-04T12:56:27Z</time>
      </trkpt>
      <trkpt lat="45.98252" lon="4.43984">
        <ele>764.8</ele>
        <time>2025-10-04T12:56:28Z</time>
      </trkpt>
      <trkpt lat="45.98252" lon="4.43985">
        <ele>764.8</ele>
        <time>2025-10-04T12:56:29Z</time>
      </trkpt>
      <trkpt lat="45.98251" lon="4.43986">
        <ele>765.2</ele>
        <time>2025-10-04T12:56:30Z</time>
      </trkpt>
      <trkpt lat="45.9825" lon="4.43987">
        <ele>765.4</ele>
        <time>2025-10-04T12:56:31Z</time>
      </trkpt>
      <trkpt lat="45.98248" lon="4.43988">
        <ele>765.8</ele>
        <time>2025-10-04T12:56:32Z</time>
      </trkpt>
      <trkpt lat="45.98248" lon="4.43989">
        <ele>765.8</ele>
        <time>2025-10-04T12:56:33Z</time>
      </trkpt>
      <trkpt lat="45.98248" lon="4.43989">
        <ele>765.8</ele>
        <time>2025-10-04T12:56:34Z</time>
      </trkpt>
      <trkpt lat="45.98242" lon="4.43993">
        <ele>766.6</ele>
        <time>2025-10-04T12:58:00Z</time>
      </trkpt>
      <trkpt lat="45.98241" lon="4.43994">
        <ele>766.4</ele>
        <time>2025-10-04T12:58:01Z</time>
      </trkpt>
      <trkpt lat="45.9824" lon="4.43995">
        <ele>766.4</ele>
        <time>2025-10-04T12:58:02Z</time>
      </trkpt>
      <trkpt lat="45.9824" lon="4.43995">
        <ele>766.4</ele>
        <time>2025-10-04T12:58:03Z</time>
      </trkpt>
      <trkpt lat="45.9824" lon="4.43996">
        <ele>766.4</ele>
        <time>2025-10-04T12:58:04Z</time>
      </trkpt>
      <trkpt lat="45.9824" lon="4.43996">
        <ele>766.4</ele>
        <time>2025-10-04T12:58:05Z</time>
      </trkpt>
      <trkpt lat="45.98239" lon="4.43996">
        <ele>766.8</ele>
        <time>2025-10-04T12:58:06Z</time>
      </trkpt>
      <trkpt lat="45.98239" lon="4.43997">
        <ele>766.8</ele>
        <time>2025-10-04T12:58:07Z</time>
      </trkpt>
      <trkpt lat="45.98239" lon="4.43999">
        <ele>767.4</ele>
        <time>2025-10-04T12:58:08Z</time>
      </trkpt>
      <trkpt lat="45.98239" lon="4.43999">
        <ele>767.4</ele>
        <time>2025-10-04T12:58:09Z</time>
      </trkpt>
      <trkpt lat="45.98239" lon="4.44">
        <ele>767.4</ele>
        <time>2025-10-04T12:58:10Z</time>
      </trkpt>
      <trkpt lat="45.98239" lon="4.43999">
        <ele>767.4</ele>
        <time>2025-10-04T12:58:11Z</time>
      </trkpt>
      <trkpt lat="45.98235" lon="4.44002">
        <ele>768.2</ele>
        <time>2025-10-04T12:58:16Z</time>
      </trkpt>
      <trkpt lat="45.98234" lon="4.44004">
        <ele>768.2</ele>
        <time>2025-10-04T12:58:17Z</time>
      </trkpt>
      <trkpt lat="45.98233" lon="4.44006">
        <ele>768.2</ele>
        <time>2025-10-04T12:58:18Z</time>
      </trkpt>
      <trkpt lat="45.98232" lon="4.44009">
        <ele>769</ele>
        <time>2025-10-04T12:58:19Z</time>
      </trkpt>
      <trkpt lat="45.98231" lon="4.44011">
        <ele>769.2</ele>
        <time>2025-10-04T12:58:20Z</time>
      </trkpt>
      <trkpt lat="45.9823" lon="4.44013">
        <ele>769.2</ele>
        <time>2025-10-04T12:58:21Z</time>
      </trkpt>
      <trkpt lat="45.9823" lon="4.44015">
        <ele>769.2</ele>
        <time>2025-10-04T12:58:22Z</time>
      </trkpt>
      <trkpt lat="45.9823" lon="4.44017">
        <ele>769.4</ele>
        <time>2025-10-04T12:58:23Z</time>
      </trkpt>
      <trkpt lat="45.9823" lon="4.44019">
        <ele>769.8</ele>
        <time>2025-10-04T12:58:24Z</time>
      </trkpt>
      <trkpt lat="45.98229" lon="4.44021">
        <ele>770</ele>
        <time>2025-10-04T12:58:25Z</time>
      </trkpt>
      <trkpt lat="45.98229" lon="4.44022">
        <ele>770.4</ele>
        <time>2025-10-04T12:58:26Z</time>
      </trkpt>
      <trkpt lat="45.98228" lon="4.44023">
        <ele>770.6</ele>
        <time>2025-10-04T12:58:27Z</time>
      </trkpt>
      <trkpt lat="45.98228" lon="4.44025">
        <ele>771.2</ele>
        <time>2025-10-04T12:58:28Z</time>
      </trkpt>
      <trkpt lat="45.98227" lon="4.44028">
        <ele>771.4</ele>
        <time>2025-10-04T12:58:29Z</time>
      </trkpt>
      <trkpt lat="45.98227" lon="4.44029">
        <ele>771.4</ele>
        <time>2025-10-04T12:58:30Z</time>
      </trkpt>
      <trkpt lat="45.98227" lon="4.44031">
        <ele>771.4</ele>
        <time>2025-10-04T12:58:31Z</time>
      </trkpt>
      <trkpt lat="45.98227" lon="4.44033">
        <ele>771.8</ele>
        <time>2025-10-04T12:58:32Z</time>
      </trkpt>
      <trkpt lat="45.98227" lon="4.44034">
        <ele>772.2</ele>
        <time>2025-10-04T12:58:33Z</time>
      </trkpt>
      <trkpt lat="45.98226" lon="4.44036">
        <ele>772.6</ele>
        <time>2025-10-04T12:58:34Z</time>
      </trkpt>
      <trkpt lat="45.98226" lon="4.44038">
        <ele>773</ele>
        <time>2025-10-04T12:58:35Z</time>
      </trkpt>
      <trkpt lat="45.98226" lon="4.4404">
        <ele>773.4</ele>
        <time>2025-10-04T12:58:36Z</time>
      </trkpt>
      <trkpt lat="45.98226" lon="4.44042">
        <ele>773.6</ele>
        <time>2025-10-04T12:58:37Z</time>
      </trkpt>
      <trkpt lat="45.98226" lon="4.44043">
        <ele>774</ele>
        <time>2025-10-04T12:58:38Z</time>
      </trkpt>
      <trkpt lat="45.98227" lon="4.44044">
        <ele>774.4</ele>
        <time>2025-10-04T12:58:39Z</time>
      </trkpt>
      <trkpt lat="45.98228" lon="4.44044">
        <ele>774.4</ele>
        <time>2025-10-04T12:58:40Z</time>
      </trkpt>
      <trkpt lat="45.98228" lon="4.44044">
        <ele>774.6</ele>
        <time>2025-10-04T12:58:41Z</time>
      </trkpt>
      <trkpt lat="45.98229" lon="4.44045">
        <ele>775</ele>
        <time>2025-10-04T12:58:42Z</time>
      </trkpt>
      <trkpt lat="45.9823" lon="4.44046">
        <ele>775.2</ele>
        <time>2025-10-04T12:58:43Z</time>
      </trkpt>
      <trkpt lat="45.98231" lon="4.44047">
        <ele>775.4</ele>
        <time>2025-10-04T12:58:44Z</time>
      </trkpt>
      <trkpt lat="45.98232" lon="4.44047">
        <ele>775.4</ele>
        <time>2025-10-04T12:58:45Z</time>
      </trkpt>
      <trkpt lat="45.98233" lon="4.44047">
        <ele>775.8</ele>
        <time>2025-10-04T12:58:46Z</time>
      </trkpt>
      <trkpt lat="45.98234" lon="4.44048">
        <ele>775.8</ele>
        <time>2025-10-04T12:58:47Z</time>
      </trkpt>
      <trkpt lat="45.98236" lon="4.44048">
        <ele>776.2</ele>
        <time>2025-10-04T12:58:48Z</time>
      </trkpt>
      <trkpt lat="45.98237" lon="4.44048">
        <ele>776.4</ele>
        <time>2025-10-04T12:58:49Z</time>
      </trkpt>
      <trkpt lat="45.98238" lon="4.44048">
        <ele>776.4</ele>
        <time>2025-10-04T12:58:50Z</time>
      </trkpt>
      <trkpt lat="45.98239" lon="4.44048">
        <ele>776.6</ele>
        <time>2025-10-04T12:58:51Z</time>
      </trkpt>
      <trkpt lat="45.98239" lon="4.44048">
        <ele>777</ele>
        <time>2025-10-04T12:58:52Z</time>
      </trkpt>
      <trkpt lat="45.9824" lon="4.44049">
        <ele>777.4</ele>
        <time>2025-10-04T12:58:53Z</time>
      </trkpt>
      <trkpt lat="45.98241" lon="4.4405">
        <ele>777.4</ele>
        <time>2025-10-04T12:58:54Z</time>
      </trkpt>
      <trkpt lat="45.98243" lon="4.44051">
        <ele>778</ele>
        <time>2025-10-04T12:58:55Z</time>
      </trkpt>
      <trkpt lat="45.98244" lon="4.44053">
        <ele>778</ele>
        <time>2025-10-04T12:58:56Z</time>
      </trkpt>
      <trkpt lat="45.98246" lon="4.44054">
        <ele>778</ele>
        <time>2025-10-04T12:58:57Z</time>
      </trkpt>
      <trkpt lat="45.98248" lon="4.44055">
        <ele>778.2</ele>
        <time>2025-10-04T12:58:58Z</time>
      </trkpt>
      <trkpt lat="45.98249" lon="4.44057">
        <ele>778.2</ele>
        <time>2025-10-04T12:58:59Z</time>
      </trkpt>
      <trkpt lat="45.98251" lon="4.44058">
        <ele>778.6</ele>
        <time>2025-10-04T12:59:00Z</time>
      </trkpt>
      <trkpt lat="45.98252" lon="4.44059">
        <ele>778.6</ele>
        <time>2025-10-04T12:59:01Z</time>
      </trkpt>
      <trkpt lat="45.98253" lon="4.44061">
        <ele>778.8</ele>
        <time>2025-10-04T12:59:02Z</time>
      </trkpt>
      <trkpt lat="45.98254" lon="4.44062">
        <ele>778.8</ele>
        <time>2025-10-04T12:59:03Z</time>
      </trkpt>
      <trkpt lat="45.98255" lon="4.44064">
        <ele>779.2</ele>
        <time>2025-10-04T12:59:04Z</time>
      </trkpt>
      <trkpt lat="45.98257" lon="4.44065">
        <ele>779.4</ele>
        <time>2025-10-04T12:59:05Z</time>
      </trkpt>
      <trkpt lat="45.98258" lon="4.44066">
        <ele>779.4</ele>
        <time>2025-10-04T12:59:06Z</time>
      </trkpt>
      <trkpt lat="45.98259" lon="4.44068">
        <ele>779.6</ele>
        <time>2025-10-04T12:59:07Z</time>
      </trkpt>
      <trkpt lat="45.98259" lon="4.44068">
        <ele>779.6</ele>
        <time>2025-10-04T12:59:08Z</time>
      </trkpt>
      <trkpt lat="45.9826" lon="4.44069">
        <ele>779.6</ele>
        <time>2025-10-04T12:59:09Z</time>
      </trkpt>
      <trkpt lat="45.9826" lon="4.44071">
        <ele>780</ele>
        <time>2025-10-04T12:59:10Z</time>
      </trkpt>
      <trkpt lat="45.98261" lon="4.44073">
        <ele>780</ele>
        <time>2025-10-04T12:59:11Z</time>
      </trkpt>
      <trkpt lat="45.98262" lon="4.44075">
        <ele>780</ele>
        <time>2025-10-04T12:59:12Z</time>
      </trkpt>
      <trkpt lat="45.98262" lon="4.44078">
        <ele>780.2</ele>
        <time>2025-10-04T12:59:13Z</time>
      </trkpt>
      <trkpt lat="45.98263" lon="4.4408">
        <ele>780.2</ele>
        <time>2025-10-04T12:59:14Z</time>
      </trkpt>
      <trkpt lat="45.98263" lon="4.44081">
        <ele>780.2</ele>
        <time>2025-10-04T12:59:15Z</time>
      </trkpt>
      <trkpt lat="45.98263" lon="4.44083">
        <ele>780.6</ele>
        <time>2025-10-04T12:59:16Z</time>
      </trkpt>
      <trkpt lat="45.98264" lon="4.44084">
        <ele>780.6</ele>
        <time>2025-10-04T12:59:17Z</time>
      </trkpt>
      <trkpt lat="45.98264" lon="4.44086">
        <ele>780.8</ele>
        <time>2025-10-04T12:59:18Z</time>
      </trkpt>
      <trkpt lat="45.98265" lon="4.44087">
        <ele>780.8</ele>
        <time>2025-10-04T12:59:19Z</time>
      </trkpt>
      <trkpt lat="45.98265" lon="4.44088">
        <ele>781</ele>
        <time>2025-10-04T12:59:20Z</time>
      </trkpt>
      <trkpt lat="45.98266" lon="4.44095">
        <ele>784.6</ele>
        <time>2025-10-04T12:59:33Z</time>
      </trkpt>
      <trkpt lat="45.98266" lon="4.44099">
        <ele>784.8</ele>
        <time>2025-10-04T12:59:34Z</time>
      </trkpt>
      <trkpt lat="45.98266" lon="4.44104">
        <ele>785</ele>
        <time>2025-10-04T12:59:35Z</time>
      </trkpt>
      <trkpt lat="45.98267" lon="4.44107">
        <ele>785</ele>
        <time>2025-10-04T12:59:36Z</time>
      </trkpt>
      <trkpt lat="45.98267" lon="4.4411">
        <ele>785</ele>
        <time>2025-10-04T12:59:37Z</time>
      </trkpt>
      <trkpt lat="45.98267" lon="4.44113">
        <ele>785.2</ele>
        <time>2025-10-04T12:59:38Z</time>
      </trkpt>
      <trkpt lat="45.98266" lon="4.44115">
        <ele>785.6</ele>
        <time>2025-10-04T12:59:39Z</time>
      </trkpt>
      <trkpt lat="45.98266" lon="4.44116">
        <ele>785.8</ele>
        <time>2025-10-04T12:59:40Z</time>
      </trkpt>
      <trkpt lat="45.98266" lon="4.44118">
        <ele>786.2</ele>
        <time>2025-10-04T12:59:41Z</time>
      </trkpt>
      <trkpt lat="45.98267" lon="4.44121">
        <ele>786.4</ele>
        <time>2025-10-04T12:59:42Z</time>
      </trkpt>
      <trkpt lat="45.98267" lon="4.44125">
        <ele>786.4</ele>
        <time>2025-10-04T12:59:43Z</time>
      </trkpt>
      <trkpt lat="45.98268" lon="4.44128">
        <ele>786.6</ele>
        <time>2025-10-04T12:59:44Z</time>
      </trkpt>
      <trkpt lat="45.98268" lon="4.4413">
        <ele>786.6</ele>
        <time>2025-10-04T12:59:45Z</time>
      </trkpt>
      <trkpt lat="45.98268" lon="4.44133">
        <ele>787</ele>
        <time>2025-10-04T12:59:46Z</time>
      </trkpt>
      <trkpt lat="45.98268" lon="4.44135">
        <ele>787.2</ele>
        <time>2025-10-04T12:59:47Z</time>
      </trkpt>
      <trkpt lat="45.98268" lon="4.44137">
        <ele>787.4</ele>
        <time>2025-10-04T12:59:48Z</time>
      </trkpt>
      <trkpt lat="45.98268" lon="4.44139">
        <ele>787.4</ele>
        <time>2025-10-04T12:59:49Z</time>
      </trkpt>
      <trkpt lat="45.98268" lon="4.44141">
        <ele>787.8</ele>
        <time>2025-10-04T12:59:50Z</time>
      </trkpt>
      <trkpt lat="45.98267" lon="4.44142">
        <ele>788.2</ele>
        <time>2025-10-04T12:59:51Z</time>
      </trkpt>
      <trkpt lat="45.98267" lon="4.44144">
        <ele>788.4</ele>
        <time>2025-10-04T12:59:52Z</time>
      </trkpt>
      <trkpt lat="45.98267" lon="4.44145">
        <ele>788.8</ele>
        <time>2025-10-04T12:59:53Z</time>
      </trkpt>
      <trkpt lat="45.98267" lon="4.44147">
        <ele>788.8</ele>
        <time>2025-10-04T12:59:54Z</time>
      </trkpt>
      <trkpt lat="45.98267" lon="4.44148">
        <ele>789</ele>
        <time>2025-10-04T12:59:55Z</time>
      </trkpt>
      <trkpt lat="45.98267" lon="4.4415">
        <ele>789</ele>
        <time>2025-10-04T12:59:56Z</time>
      </trkpt>
      <trkpt lat="45.98267" lon="4.44152">
        <ele>789.4</ele>
        <time>2025-10-04T12:59:57Z</time>
      </trkpt>
      <trkpt lat="45.98267" lon="4.44156">
        <ele>789.4</ele>
        <time>2025-10-04T12:59:58Z</time>
      </trkpt>
      <trkpt lat="45.98267" lon="4.44159">
        <ele>789.8</ele>
        <time>2025-10-04T12:59:59Z</time>
      </trkpt>
      <trkpt lat="45.98268" lon="4.44162">
        <ele>789.8</ele>
        <time>2025-10-04T13:00:00Z</time>
      </trkpt>
      <trkpt lat="45.98269" lon="4.44165">
        <ele>790.2</ele>
        <time>2025-10-04T13:00:01Z</time>
      </trkpt>
      <trkpt lat="45.98269" lon="4.44169">
        <ele>790.2</ele>
        <time>2025-10-04T13:00:02Z</time>
      </trkpt>
      <trkpt lat="45.9827" lon="4.44171">
        <ele>790.4</ele>
        <time>2025-10-04T13:00:03Z</time>
      </trkpt>
      <trkpt lat="45.98269" lon="4.44172">
        <ele>790.4</ele>
        <time>2025-10-04T13:00:04Z</time>
      </trkpt>
      <trkpt lat="45.9827" lon="4.44174">
        <ele>790.6</ele>
        <time>2025-10-04T13:00:05Z</time>
      </trkpt>
      <trkpt lat="45.98269" lon="4.44177">
        <ele>790.6</ele>
        <time>2025-10-04T13:00:06Z</time>
      </trkpt>
      <trkpt lat="45.98269" lon="4.4418">
        <ele>791</ele>
        <time>2025-10-04T13:00:07Z</time>
      </trkpt>
      <trkpt lat="45.98268" lon="4.44182">
        <ele>791</ele>
        <time>2025-10-04T13:00:08Z</time>
      </trkpt>
      <trkpt lat="45.98268" lon="4.44184">
        <ele>791.2</ele>
        <time>2025-10-04T13:00:09Z</time>
      </trkpt>
      <trkpt lat="45.98268" lon="4.44186">
        <ele>791.6</ele>
        <time>2025-10-04T13:00:10Z</time>
      </trkpt>
      <trkpt lat="45.98268" lon="4.44188">
        <ele>791.6</ele>
        <time>2025-10-04T13:00:11Z</time>
      </trkpt>
      <trkpt lat="45.98268" lon="4.44191">
        <ele>791.6</ele>
        <time>2025-10-04T13:00:12Z</time>
      </trkpt>
      <trkpt lat="45.98268" lon="4.44193">
        <ele>791.8</ele>
        <time>2025-10-04T13:00:13Z</time>
      </trkpt>
      <trkpt lat="45.98268" lon="4.44195">
        <ele>791.8</ele>
        <time>2025-10-04T13:00:14Z</time>
      </trkpt>
      <trkpt lat="45.98268" lon="4.44198">
        <ele>791.8</ele>
        <time>2025-10-04T13:00:15Z</time>
      </trkpt>
      <trkpt lat="45.98268" lon="4.44199">
        <ele>791.8</ele>
        <time>2025-10-04T13:00:16Z</time>
      </trkpt>
      <trkpt lat="45.98267" lon="4.44201">
        <ele>792.2</ele>
        <time>2025-10-04T13:00:17Z</time>
      </trkpt>
      <trkpt lat="45.98267" lon="4.44202">
        <ele>792.4</ele>
        <time>2025-10-04T13:00:18Z</time>
      </trkpt>
      <trkpt lat="45.98267" lon="4.44204">
        <ele>792.6</ele>
        <time>2025-10-04T13:00:19Z</time>
      </trkpt>
      <trkpt lat="45.98267" lon="4.44206">
        <ele>792.6</ele>
        <time>2025-10-04T13:00:20Z</time>
      </trkpt>
      <trkpt lat="45.98267" lon="4.44208">
        <ele>792.6</ele>
        <time>2025-10-04T13:00:21Z</time>
      </trkpt>
      <trkpt lat="45.98267" lon="4.4421">
        <ele>793</ele>
        <time>2025-10-04T13:00:22Z</time>
      </trkpt>
      <trkpt lat="45.98268" lon="4.44213">
        <ele>793</ele>
        <time>2025-10-04T13:00:23Z</time>
      </trkpt>
      <trkpt lat="45.98268" lon="4.44216">
        <ele>793.2</ele>
        <time>2025-10-04T13:00:24Z</time>
      </trkpt>
      <trkpt lat="45.98268" lon="4.44217">
        <ele>793.4</ele>
        <time>2025-10-04T13:00:25Z</time>
      </trkpt>
      <trkpt lat="45.98268" lon="4.44219">
        <ele>793.6</ele>
        <time>2025-10-04T13:00:26Z</time>
      </trkpt>
      <trkpt lat="45.98269" lon="4.44221">
        <ele>793.6</ele>
        <time>2025-10-04T13:00:27Z</time>
      </trkpt>
      <trkpt lat="45.98268" lon="4.44223">
        <ele>794</ele>
        <time>2025-10-04T13:00:28Z</time>
      </trkpt>
      <trkpt lat="45.98268" lon="4.44225">
        <ele>794.2</ele>
        <time>2025-10-04T13:00:29Z</time>
      </trkpt>
      <trkpt lat="45.98268" lon="4.44227">
        <ele>794.6</ele>
        <time>2025-10-04T13:00:30Z</time>
      </trkpt>
      <trkpt lat="45.98267" lon="4.44229">
        <ele>794.6</ele>
        <time>2025-10-04T13:00:31Z</time>
      </trkpt>
      <trkpt lat="45.98267" lon="4.44231">
        <ele>795</ele>
        <time>2025-10-04T13:00:32Z</time>
      </trkpt>
      <trkpt lat="45.98267" lon="4.44233">
        <ele>795.6</ele>
        <time>2025-10-04T13:00:33Z</time>
      </trkpt>
      <trkpt lat="45.98267" lon="4.44236">
        <ele>795.6</ele>
        <time>2025-10-04T13:00:34Z</time>
      </trkpt>
      <trkpt lat="45.98267" lon="4.44239">
        <ele>795.6</ele>
        <time>2025-10-04T13:00:35Z</time>
      </trkpt>
      <trkpt lat="45.98267" lon="4.44242">
        <ele>795.6</ele>
        <time>2025-10-04T13:00:36Z</time>
      </trkpt>
      <trkpt lat="45.98268" lon="4.44246">
        <ele>795.6</ele>
        <time>2025-10-04T13:00:37Z</time>
      </trkpt>
      <trkpt lat="45.98268" lon="4.44247">
        <ele>796</ele>
        <time>2025-10-04T13:00:38Z</time>
      </trkpt>
      <trkpt lat="45.98267" lon="4.44249">
        <ele>796</ele>
        <time>2025-10-04T13:00:39Z</time>
      </trkpt>
      <trkpt lat="45.98267" lon="4.44252">
        <ele>796.2</ele>
        <time>2025-10-04T13:00:40Z</time>
      </trkpt>
      <trkpt lat="45.98265" lon="4.44255">
        <ele>796.6</ele>
        <time>2025-10-04T13:00:41Z</time>
      </trkpt>
      <trkpt lat="45.98265" lon="4.44258">
        <ele>796.8</ele>
        <time>2025-10-04T13:00:42Z</time>
      </trkpt>
      <trkpt lat="45.98265" lon="4.44261">
        <ele>797</ele>
        <time>2025-10-04T13:00:43Z</time>
      </trkpt>
      <trkpt lat="45.98264" lon="4.44263">
        <ele>797</ele>
        <time>2025-10-04T13:00:44Z</time>
      </trkpt>
      <trkpt lat="45.98264" lon="4.44266">
        <ele>797</ele>
        <time>2025-10-04T13:00:45Z</time>
      </trkpt>
      <trkpt lat="45.98262" lon="4.44268">
        <ele>797.6</ele>
        <time>2025-10-04T13:00:46Z</time>
      </trkpt>
      <trkpt lat="45.98262" lon="4.44271">
        <ele>797.6</ele>
        <time>2025-10-04T13:00:47Z</time>
      </trkpt>
      <trkpt lat="45.98261" lon="4.44274">
        <ele>798</ele>
        <time>2025-10-04T13:00:48Z</time>
      </trkpt>
      <trkpt lat="45.98261" lon="4.44277">
        <ele>798</ele>
        <time>2025-10-04T13:00:49Z</time>
      </trkpt>
      <trkpt lat="45.98261" lon="4.4428">
        <ele>798</ele>
        <time>2025-10-04T13:00:50Z</time>
      </trkpt>
      <trkpt lat="45.9826" lon="4.44283">
        <ele>798</ele>
        <time>2025-10-04T13:00:51Z</time>
      </trkpt>
      <trkpt lat="45.98259" lon="4.44286">
        <ele>798</ele>
        <time>2025-10-04T13:00:52Z</time>
      </trkpt>
      <trkpt lat="45.98259" lon="4.44289">
        <ele>798</ele>
        <time>2025-10-04T13:00:53Z</time>
      </trkpt>
      <trkpt lat="45.98258" lon="4.44292">
        <ele>798</ele>
        <time>2025-10-04T13:00:54Z</time>
      </trkpt>
      <trkpt lat="45.98258" lon="4.44295">
        <ele>798</ele>
        <time>2025-10-04T13:00:55Z</time>
      </trkpt>
      <trkpt lat="45.98257" lon="4.44299">
        <ele>798</ele>
        <time>2025-10-04T13:00:56Z</time>
      </trkpt>
      <trkpt lat="45.98257" lon="4.44301">
        <ele>798</ele>
        <time>2025-10-04T13:00:57Z</time>
      </trkpt>
      <trkpt lat="45.98256" lon="4.44302">
        <ele>798</ele>
        <time>2025-10-04T13:00:58Z</time>
      </trkpt>
      <trkpt lat="45.98256" lon="4.44305">
        <ele>798</ele>
        <time>2025-10-04T13:00:59Z</time>
      </trkpt>
      <trkpt lat="45.98255" lon="4.44308">
        <ele>798</ele>
        <time>2025-10-04T13:01:00Z</time>
      </trkpt>
      <trkpt lat="45.98256" lon="4.44311">
        <ele>798</ele>
        <time>2025-10-04T13:01:01Z</time>
      </trkpt>
      <trkpt lat="45.98256" lon="4.44314">
        <ele>798</ele>
        <time>2025-10-04T13:01:02Z</time>
      </trkpt>
      <trkpt lat="45.98256" lon="4.44317">
        <ele>798</ele>
        <time>2025-10-04T13:01:03Z</time>
      </trkpt>
      <trkpt lat="45.98255" lon="4.44319">
        <ele>797.6</ele>
        <time>2025-10-04T13:01:04Z</time>
      </trkpt>
      <trkpt lat="45.98254" lon="4.44321">
        <ele>797.6</ele>
        <time>2025-10-04T13:01:05Z</time>
      </trkpt>
      <trkpt lat="45.98254" lon="4.44323">
        <ele>797.6</ele>
        <time>2025-10-04T13:01:06Z</time>
      </trkpt>
      <trkpt lat="45.98254" lon="4.44325">
        <ele>797.6</ele>
        <time>2025-10-04T13:01:07Z</time>
      </trkpt>
      <trkpt lat="45.98254" lon="4.44329">
        <ele>797.6</ele>
        <time>2025-10-04T13:01:08Z</time>
      </trkpt>
      <trkpt lat="45.98254" lon="4.44333">
        <ele>797.6</ele>
        <time>2025-10-04T13:01:09Z</time>
      </trkpt>
      <trkpt lat="45.98254" lon="4.44335">
        <ele>797.6</ele>
        <time>2025-10-04T13:01:10Z</time>
      </trkpt>
      <trkpt lat="45.98255" lon="4.44338">
        <ele>797.6</ele>
        <time>2025-10-04T13:01:11Z</time>
      </trkpt>
      <trkpt lat="45.98256" lon="4.4434">
        <ele>797.4</ele>
        <time>2025-10-04T13:01:12Z</time>
      </trkpt>
      <trkpt lat="45.98257" lon="4.44343">
        <ele>797.4</ele>
        <time>2025-10-04T13:01:13Z</time>
      </trkpt>
      <trkpt lat="45.98257" lon="4.44347">
        <ele>797.4</ele>
        <time>2025-10-04T13:01:14Z</time>
      </trkpt>
      <trkpt lat="45.98258" lon="4.4435">
        <ele>797.4</ele>
        <time>2025-10-04T13:01:15Z</time>
      </trkpt>
      <trkpt lat="45.98258" lon="4.44354">
        <ele>797.8</ele>
        <time>2025-10-04T13:01:16Z</time>
      </trkpt>
      <trkpt lat="45.98258" lon="4.44358">
        <ele>797.8</ele>
        <time>2025-10-04T13:01:17Z</time>
      </trkpt>
      <trkpt lat="45.98258" lon="4.44362">
        <ele>798.4</ele>
        <time>2025-10-04T13:01:18Z</time>
      </trkpt>
      <trkpt lat="45.98259" lon="4.44366">
        <ele>798.4</ele>
        <time>2025-10-04T13:01:19Z</time>
      </trkpt>
      <trkpt lat="45.9826" lon="4.4437">
        <ele>798.4</ele>
        <time>2025-10-04T13:01:20Z</time>
      </trkpt>
      <trkpt lat="45.98261" lon="4.44374">
        <ele>798.4</ele>
        <time>2025-10-04T13:01:21Z</time>
      </trkpt>
      <trkpt lat="45.98261" lon="4.44378">
        <ele>798.4</ele>
        <time>2025-10-04T13:01:22Z</time>
      </trkpt>
      <trkpt lat="45.98261" lon="4.44382">
        <ele>798.6</ele>
        <time>2025-10-04T13:01:23Z</time>
      </trkpt>
      <trkpt lat="45.9826" lon="4.44384">
        <ele>798.6</ele>
        <time>2025-10-04T13:01:24Z</time>
      </trkpt>
      <trkpt lat="45.9826" lon="4.44387">
        <ele>798.6</ele>
        <time>2025-10-04T13:01:25Z</time>
      </trkpt>
      <trkpt lat="45.98259" lon="4.4439">
        <ele>799</ele>
        <time>2025-10-04T13:01:26Z</time>
      </trkpt>
      <trkpt lat="45.98259" lon="4.44393">
        <ele>799.2</ele>
        <time>2025-10-04T13:01:27Z</time>
      </trkpt>
      <trkpt lat="45.9826" lon="4.44397">
        <ele>799.4</ele>
        <time>2025-10-04T13:01:28Z</time>
      </trkpt>
      <trkpt lat="45.98261" lon="4.44401">
        <ele>799.4</ele>
        <time>2025-10-04T13:01:29Z</time>
      </trkpt>
      <trkpt lat="45.98261" lon="4.44405">
        <ele>799.8</ele>
        <time>2025-10-04T13:01:30Z</time>
      </trkpt>
      <trkpt lat="45.98261" lon="4.4441">
        <ele>799.8</ele>
        <time>2025-10-04T13:01:31Z</time>
      </trkpt>
      <trkpt lat="45.98261" lon="4.44414">
        <ele>800</ele>
        <time>2025-10-04T13:01:32Z</time>
      </trkpt>
      <trkpt lat="45.98261" lon="4.44417">
        <ele>800</ele>
        <time>2025-10-04T13:01:33Z</time>
      </trkpt>
      <trkpt lat="45.9826" lon="4.44422">
        <ele>800.2</ele>
        <time>2025-10-04T13:01:34Z</time>
      </trkpt>
      <trkpt lat="45.98259" lon="4.44427">
        <ele>800.2</ele>
        <time>2025-10-04T13:01:35Z</time>
      </trkpt>
      <trkpt lat="45.98258" lon="4.4443">
        <ele>800.4</ele>
        <time>2025-10-04T13:01:36Z</time>
      </trkpt>
      <trkpt lat="45.98257" lon="4.44435">
        <ele>800.4</ele>
        <time>2025-10-04T13:01:37Z</time>
      </trkpt>
      <trkpt lat="45.98257" lon="4.4444">
        <ele>800.4</ele>
        <time>2025-10-04T13:01:38Z</time>
      </trkpt>
      <trkpt lat="45.98256" lon="4.44445">
        <ele>800.4</ele>
        <time>2025-10-04T13:01:39Z</time>
      </trkpt>
      <trkpt lat="45.98256" lon="4.44449">
        <ele>800.4</ele>
        <time>2025-10-04T13:01:40Z</time>
      </trkpt>
      <trkpt lat="45.98255" lon="4.44454">
        <ele>800.2</ele>
        <time>2025-10-04T13:01:41Z</time>
      </trkpt>
      <trkpt lat="45.98254" lon="4.44459">
        <ele>800.2</ele>
        <time>2025-10-04T13:01:42Z</time>
      </trkpt>
      <trkpt lat="45.98253" lon="4.44463">
        <ele>800.2</ele>
        <time>2025-10-04T13:01:43Z</time>
      </trkpt>
      <trkpt lat="45.98252" lon="4.44467">
        <ele>800.6</ele>
        <time>2025-10-04T13:01:44Z</time>
      </trkpt>
      <trkpt lat="45.98251" lon="4.44472">
        <ele>800.8</ele>
        <time>2025-10-04T13:01:45Z</time>
      </trkpt>
      <trkpt lat="45.9825" lon="4.44476">
        <ele>800.8</ele>
        <time>2025-10-04T13:01:46Z</time>
      </trkpt>
      <trkpt lat="45.98249" lon="4.4448">
        <ele>801.2</ele>
        <time>2025-10-04T13:01:47Z</time>
      </trkpt>
      <trkpt lat="45.98248" lon="4.44485">
        <ele>801.4</ele>
        <time>2025-10-04T13:01:48Z</time>
      </trkpt>
      <trkpt lat="45.98246" lon="4.44489">
        <ele>801.8</ele>
        <time>2025-10-04T13:01:49Z</time>
      </trkpt>
      <trkpt lat="45.98245" lon="4.44493">
        <ele>802</ele>
        <time>2025-10-04T13:01:50Z</time>
      </trkpt>
      <trkpt lat="45.98244" lon="4.44497">
        <ele>802</ele>
        <time>2025-10-04T13:01:51Z</time>
      </trkpt>
      <trkpt lat="45.98243" lon="4.44501">
        <ele>802.4</ele>
        <time>2025-10-04T13:01:52Z</time>
      </trkpt>
      <trkpt lat="45.98242" lon="4.44504">
        <ele>802.6</ele>
        <time>2025-10-04T13:01:53Z</time>
      </trkpt>
      <trkpt lat="45.9824" lon="4.44508">
        <ele>803</ele>
        <time>2025-10-04T13:01:54Z</time>
      </trkpt>
      <trkpt lat="45.98238" lon="4.44511">
        <ele>803.2</ele>
        <time>2025-10-04T13:01:55Z</time>
      </trkpt>
      <trkpt lat="45.98238" lon="4.44511">
        <ele>803.6</ele>
        <time>2025-10-04T13:01:56Z</time>
      </trkpt>
      <trkpt lat="45.98238" lon="4.44511">
        <ele>803.2</ele>
        <time>2025-10-04T13:01:57Z</time>
      </trkpt>
      <trkpt lat="45.98238" lon="4.44511">
        <ele>802.8</ele>
        <time>2025-10-04T13:01:58Z</time>
      </trkpt>
      <trkpt lat="45.9823" lon="4.44523">
        <ele>802.8</ele>
        <time>2025-10-04T13:01:59Z</time>
      </trkpt>
      <trkpt lat="45.98228" lon="4.44526">
        <ele>802.8</ele>
        <time>2025-10-04T13:02:00Z</time>
      </trkpt>
      <trkpt lat="45.98226" lon="4.44529">
        <ele>802.8</ele>
        <time>2025-10-04T13:02:01Z</time>
      </trkpt>
      <trkpt lat="45.98224" lon="4.44532">
        <ele>802.6</ele>
        <time>2025-10-04T13:02:02Z</time>
      </trkpt>
      <trkpt lat="45.98222" lon="4.44535">
        <ele>802.6</ele>
        <time>2025-10-04T13:02:03Z</time>
      </trkpt>
      <trkpt lat="45.98221" lon="4.44537">
        <ele>802.6</ele>
        <time>2025-10-04T13:02:04Z</time>
      </trkpt>
      <trkpt lat="45.9822" lon="4.44539">
        <ele>802.8</ele>
        <time>2025-10-04T13:02:05Z</time>
      </trkpt>
      <trkpt lat="45.9822" lon="4.44541">
        <ele>802.8</ele>
        <time>2025-10-04T13:02:06Z</time>
      </trkpt>
      <trkpt lat="45.9822" lon="4.44543">
        <ele>802.2</ele>
        <time>2025-10-04T13:02:07Z</time>
      </trkpt>
      <trkpt lat="45.98219" lon="4.44546">
        <ele>802.2</ele>
        <time>2025-10-04T13:02:08Z</time>
      </trkpt>
      <trkpt lat="45.98217" lon="4.44548">
        <ele>802.2</ele>
        <time>2025-10-04T13:02:09Z</time>
      </trkpt>
      <trkpt lat="45.98217" lon="4.44548">
        <ele>802.2</ele>
        <time>2025-10-04T13:02:10Z</time>
      </trkpt>
      <trkpt lat="45.98215" lon="4.44549">
        <ele>802.2</ele>
        <time>2025-10-04T13:02:11Z</time>
      </trkpt>
      <trkpt lat="45.98213" lon="4.4455">
        <ele>801.8</ele>
        <time>2025-10-04T13:02:12Z</time>
      </trkpt>
      <trkpt lat="45.9821" lon="4.44551">
        <ele>801.4</ele>
        <time>2025-10-04T13:02:13Z</time>
      </trkpt>
      <trkpt lat="45.98208" lon="4.44553">
        <ele>800.8</ele>
        <time>2025-10-04T13:02:14Z</time>
      </trkpt>
      <trkpt lat="45.98207" lon="4.44555">
        <ele>801</ele>
        <time>2025-10-04T13:02:15Z</time>
      </trkpt>
      <trkpt lat="45.98205" lon="4.44557">
        <ele>801.6</ele>
        <time>2025-10-04T13:02:16Z</time>
      </trkpt>
      <trkpt lat="45.98203" lon="4.4456">
        <ele>801.8</ele>
        <time>2025-10-04T13:02:17Z</time>
      </trkpt>
      <trkpt lat="45.98202" lon="4.44562">
        <ele>802.2</ele>
        <time>2025-10-04T13:02:18Z</time>
      </trkpt>
      <trkpt lat="45.982" lon="4.44565">
        <ele>802.4</ele>
        <time>2025-10-04T13:02:19Z</time>
      </trkpt>
      <trkpt lat="45.98199" lon="4.44566">
        <ele>802.4</ele>
        <time>2025-10-04T13:02:20Z</time>
      </trkpt>
      <trkpt lat="45.98198" lon="4.44567">
        <ele>802.4</ele>
        <time>2025-10-04T13:02:21Z</time>
      </trkpt>
      <trkpt lat="45.98197" lon="4.44568">
        <ele>802.4</ele>
        <time>2025-10-04T13:02:22Z</time>
      </trkpt>
      <trkpt lat="45.98194" lon="4.4457">
        <ele>802.6</ele>
        <time>2025-10-04T13:02:23Z</time>
      </trkpt>
      <trkpt lat="45.98192" lon="4.44571">
        <ele>803.2</ele>
        <time>2025-10-04T13:02:24Z</time>
      </trkpt>
      <trkpt lat="45.98191" lon="4.44573">
        <ele>803.6</ele>
        <time>2025-10-04T13:02:25Z</time>
      </trkpt>
      <trkpt lat="45.98189" lon="4.44574">
        <ele>803.4</ele>
        <time>2025-10-04T13:02:26Z</time>
      </trkpt>
      <trkpt lat="45.98187" lon="4.44575">
        <ele>803.4</ele>
        <time>2025-10-04T13:02:27Z</time>
      </trkpt>
      <trkpt lat="45.98187" lon="4.44574">
        <ele>803.6</ele>
        <time>2025-10-04T13:02:28Z</time>
      </trkpt>
      <trkpt lat="45.98186" lon="4.44574">
        <ele>803.8</ele>
        <time>2025-10-04T13:02:29Z</time>
      </trkpt>
      <trkpt lat="45.98184" lon="4.44574">
        <ele>804.2</ele>
        <time>2025-10-04T13:02:30Z</time>
      </trkpt>
      <trkpt lat="45.98182" lon="4.44575">
        <ele>804.4</ele>
        <time>2025-10-04T13:02:31Z</time>
      </trkpt>
      <trkpt lat="45.9818" lon="4.44575">
        <ele>804.4</ele>
        <time>2025-10-04T13:02:32Z</time>
      </trkpt>
      <trkpt lat="45.98178" lon="4.44577">
        <ele>804.4</ele>
        <time>2025-10-04T13:02:33Z</time>
      </trkpt>
      <trkpt lat="45.98176" lon="4.44578">
        <ele>804.8</ele>
        <time>2025-10-04T13:02:34Z</time>
      </trkpt>
      <trkpt lat="45.98173" lon="4.44579">
        <ele>805</ele>
        <time>2025-10-04T13:02:35Z</time>
      </trkpt>
      <trkpt lat="45.98171" lon="4.4458">
        <ele>805</ele>
        <time>2025-10-04T13:02:36Z</time>
      </trkpt>
      <trkpt lat="45.98169" lon="4.4458">
        <ele>805.4</ele>
        <time>2025-10-04T13:02:37Z</time>
      </trkpt>
      <trkpt lat="45.98166" lon="4.44582">
        <ele>805.8</ele>
        <time>2025-10-04T13:02:38Z</time>
      </trkpt>
      <trkpt lat="45.98164" lon="4.44582">
        <ele>806.2</ele>
        <time>2025-10-04T13:02:39Z</time>
      </trkpt>
      <trkpt lat="45.98163" lon="4.44582">
        <ele>806.6</ele>
        <time>2025-10-04T13:02:40Z</time>
      </trkpt>
      <trkpt lat="45.98161" lon="4.44582">
        <ele>806.8</ele>
        <time>2025-10-04T13:02:41Z</time>
      </trkpt>
      <trkpt lat="45.9816" lon="4.44581">
        <ele>807</ele>
        <time>2025-10-04T13:02:42Z</time>
      </trkpt>
      <trkpt lat="45.98158" lon="4.44582">
        <ele>807</ele>
        <time>2025-10-04T13:02:43Z</time>
      </trkpt>
      <trkpt lat="45.98156" lon="4.44582">
        <ele>807.4</ele>
        <time>2025-10-04T13:02:44Z</time>
      </trkpt>
      <trkpt lat="45.98155" lon="4.44582">
        <ele>807.6</ele>
        <time>2025-10-04T13:02:45Z</time>
      </trkpt>
      <trkpt lat="45.98153" lon="4.44583">
        <ele>807.6</ele>
        <time>2025-10-04T13:02:46Z</time>
      </trkpt>
      <trkpt lat="45.98151" lon="4.44584">
        <ele>807.6</ele>
        <time>2025-10-04T13:02:47Z</time>
      </trkpt>
      <trkpt lat="45.98149" lon="4.44585">
        <ele>807.6</ele>
        <time>2025-10-04T13:02:48Z</time>
      </trkpt>
      <trkpt lat="45.98147" lon="4.44586">
        <ele>807.6</ele>
        <time>2025-10-04T13:02:49Z</time>
      </trkpt>
      <trkpt lat="45.98146" lon="4.44586">
        <ele>807.8</ele>
        <time>2025-10-04T13:02:50Z</time>
      </trkpt>
      <trkpt lat="45.98144" lon="4.44586">
        <ele>808.4</ele>
        <time>2025-10-04T13:02:51Z</time>
      </trkpt>
      <trkpt lat="45.98143" lon="4.44587">
        <ele>809</ele>
        <time>2025-10-04T13:02:52Z</time>
      </trkpt>
      <trkpt lat="45.98141" lon="4.44588">
        <ele>809.4</ele>
        <time>2025-10-04T13:02:53Z</time>
      </trkpt>
      <trkpt lat="45.9814" lon="4.44588">
        <ele>809.6</ele>
        <time>2025-10-04T13:02:54Z</time>
      </trkpt>
      <trkpt lat="45.98139" lon="4.44589">
        <ele>809.6</ele>
        <time>2025-10-04T13:02:55Z</time>
      </trkpt>
      <trkpt lat="45.98139" lon="4.44589">
        <ele>809.6</ele>
        <time>2025-10-04T13:02:56Z</time>
      </trkpt>
      <trkpt lat="45.98139" lon="4.44589">
        <ele>809.6</ele>
        <time>2025-10-04T13:02:57Z</time>
      </trkpt>
      <trkpt lat="45.98138" lon="4.44588">
        <ele>810</ele>
        <time>2025-10-04T13:03:08Z</time>
      </trkpt>
      <trkpt lat="45.98136" lon="4.44588">
        <ele>810</ele>
        <time>2025-10-04T13:03:09Z</time>
      </trkpt>
      <trkpt lat="45.98135" lon="4.44587">
        <ele>810.6</ele>
        <time>2025-10-04T13:03:10Z</time>
      </trkpt>
      <trkpt lat="45.98134" lon="4.44587">
        <ele>810.6</ele>
        <time>2025-10-04T13:03:11Z</time>
      </trkpt>
      <trkpt lat="45.98132" lon="4.44587">
        <ele>810.6</ele>
        <time>2025-10-04T13:03:12Z</time>
      </trkpt>
      <trkpt lat="45.98131" lon="4.44587">
        <ele>810.6</ele>
        <time>2025-10-04T13:03:13Z</time>
      </trkpt>
      <trkpt lat="45.9813" lon="4.44588">
        <ele>810.8</ele>
        <time>2025-10-04T13:03:14Z</time>
      </trkpt>
      <trkpt lat="45.98128" lon="4.44589">
        <ele>810.8</ele>
        <time>2025-10-04T13:03:15Z</time>
      </trkpt>
      <trkpt lat="45.98127" lon="4.4459">
        <ele>811.2</ele>
        <time>2025-10-04T13:03:16Z</time>
      </trkpt>
      <trkpt lat="45.98125" lon="4.4459">
        <ele>811.2</ele>
        <time>2025-10-04T13:03:17Z</time>
      </trkpt>
      <trkpt lat="45.98124" lon="4.44591">
        <ele>811.2</ele>
        <time>2025-10-04T13:03:18Z</time>
      </trkpt>
      <trkpt lat="45.98123" lon="4.44591">
        <ele>811.2</ele>
        <time>2025-10-04T13:03:19Z</time>
      </trkpt>
      <trkpt lat="45.98122" lon="4.44591">
        <ele>811.2</ele>
        <time>2025-10-04T13:03:20Z</time>
      </trkpt>
      <trkpt lat="45.9812" lon="4.44592">
        <ele>811.2</ele>
        <time>2025-10-04T13:03:21Z</time>
      </trkpt>
      <trkpt lat="45.98119" lon="4.44593">
        <ele>811.2</ele>
        <time>2025-10-04T13:03:22Z</time>
      </trkpt>
      <trkpt lat="45.98118" lon="4.44594">
        <ele>811.2</ele>
        <time>2025-10-04T13:03:23Z</time>
      </trkpt>
      <trkpt lat="45.98117" lon="4.44594">
        <ele>811.2</ele>
        <time>2025-10-04T13:03:24Z</time>
      </trkpt>
      <trkpt lat="45.98115" lon="4.44594">
        <ele>811.4</ele>
        <time>2025-10-04T13:03:25Z</time>
      </trkpt>
      <trkpt lat="45.98114" lon="4.44595">
        <ele>811.8</ele>
        <time>2025-10-04T13:03:26Z</time>
      </trkpt>
      <trkpt lat="45.98112" lon="4.44595">
        <ele>812</ele>
        <time>2025-10-04T13:03:27Z</time>
      </trkpt>
      <trkpt lat="45.98111" lon="4.44596">
        <ele>812.6</ele>
        <time>2025-10-04T13:03:28Z</time>
      </trkpt>
      <trkpt lat="45.9811" lon="4.44596">
        <ele>813.2</ele>
        <time>2025-10-04T13:03:29Z</time>
      </trkpt>
      <trkpt lat="45.98108" lon="4.44597">
        <ele>813.6</ele>
        <time>2025-10-04T13:03:30Z</time>
      </trkpt>
      <trkpt lat="45.98107" lon="4.44598">
        <ele>814.2</ele>
        <time>2025-10-04T13:03:31Z</time>
      </trkpt>
      <trkpt lat="45.98106" lon="4.44599">
        <ele>815</ele>
        <time>2025-10-04T13:03:32Z</time>
      </trkpt>
      <trkpt lat="45.98104" lon="4.44599">
        <ele>815.6</ele>
        <time>2025-10-04T13:03:33Z</time>
      </trkpt>
      <trkpt lat="45.98103" lon="4.446">
        <ele>816.2</ele>
        <time>2025-10-04T13:03:34Z</time>
      </trkpt>
      <trkpt lat="45.98102" lon="4.44601">
        <ele>816.6</ele>
        <time>2025-10-04T13:03:35Z</time>
      </trkpt>
      <trkpt lat="45.981" lon="4.44601">
        <ele>817</ele>
        <time>2025-10-04T13:03:36Z</time>
      </trkpt>
      <trkpt lat="45.98098" lon="4.44602">
        <ele>817</ele>
        <time>2025-10-04T13:03:37Z</time>
      </trkpt>
      <trkpt lat="45.98097" lon="4.44603">
        <ele>817</ele>
        <time>2025-10-04T13:03:38Z</time>
      </trkpt>
      <trkpt lat="45.98097" lon="4.44603">
        <ele>817</ele>
        <time>2025-10-04T13:03:39Z</time>
      </trkpt>
      <trkpt lat="45.98096" lon="4.44602">
        <ele>817</ele>
        <time>2025-10-04T13:03:40Z</time>
      </trkpt>
      <trkpt lat="45.98095" lon="4.44602">
        <ele>817</ele>
        <time>2025-10-04T13:03:41Z</time>
      </trkpt>
      <trkpt lat="45.98093" lon="4.44602">
        <ele>817.4</ele>
        <time>2025-10-04T13:03:42Z</time>
      </trkpt>
      <trkpt lat="45.98092" lon="4.44602">
        <ele>817</ele>
        <time>2025-10-04T13:03:43Z</time>
      </trkpt>
      <trkpt lat="45.98091" lon="4.44602">
        <ele>817.2</ele>
        <time>2025-10-04T13:03:44Z</time>
      </trkpt>
      <trkpt lat="45.98091" lon="4.44602">
        <ele>817.8</ele>
        <time>2025-10-04T13:03:45Z</time>
      </trkpt>
      <trkpt lat="45.9809" lon="4.44602">
        <ele>818</ele>
        <time>2025-10-04T13:03:46Z</time>
      </trkpt>
      <trkpt lat="45.98089" lon="4.44603">
        <ele>818.2</ele>
        <time>2025-10-04T13:03:47Z</time>
      </trkpt>
      <trkpt lat="45.98087" lon="4.44603">
        <ele>818.6</ele>
        <time>2025-10-04T13:03:48Z</time>
      </trkpt>
      <trkpt lat="45.98086" lon="4.44604">
        <ele>819</ele>
        <time>2025-10-04T13:03:49Z</time>
      </trkpt>
      <trkpt lat="45.98084" lon="4.44604">
        <ele>819.8</ele>
        <time>2025-10-04T13:03:50Z</time>
      </trkpt>
      <trkpt lat="45.98082" lon="4.44605">
        <ele>820</ele>
        <time>2025-10-04T13:03:51Z</time>
      </trkpt>
      <trkpt lat="45.9808" lon="4.44606">
        <ele>820.4</ele>
        <time>2025-10-04T13:03:52Z</time>
      </trkpt>
      <trkpt lat="45.98078" lon="4.44607">
        <ele>820.6</ele>
        <time>2025-10-04T13:03:53Z</time>
      </trkpt>
      <trkpt lat="45.98076" lon="4.44607">
        <ele>820.6</ele>
        <time>2025-10-04T13:03:54Z</time>
      </trkpt>
      <trkpt lat="45.98074" lon="4.44608">
        <ele>820.6</ele>
        <time>2025-10-04T13:03:55Z</time>
      </trkpt>
      <trkpt lat="45.98072" lon="4.44608">
        <ele>820.6</ele>
        <time>2025-10-04T13:03:56Z</time>
      </trkpt>
      <trkpt lat="45.98071" lon="4.44608">
        <ele>820.6</ele>
        <time>2025-10-04T13:03:57Z</time>
      </trkpt>
      <trkpt lat="45.98069" lon="4.44607">
        <ele>820.6</ele>
        <time>2025-10-04T13:03:58Z</time>
      </trkpt>
      <trkpt lat="45.98067" lon="4.44607">
        <ele>820.6</ele>
        <time>2025-10-04T13:03:59Z</time>
      </trkpt>
      <trkpt lat="45.98065" lon="4.44607">
        <ele>820.6</ele>
        <time>2025-10-04T13:04:00Z</time>
      </trkpt>
      <trkpt lat="45.98063" lon="4.44607">
        <ele>820.6</ele>
        <time>2025-10-04T13:04:01Z</time>
      </trkpt>
      <trkpt lat="45.98062" lon="4.44607">
        <ele>820.8</ele>
        <time>2025-10-04T13:04:02Z</time>
      </trkpt>
      <trkpt lat="45.9806" lon="4.44606">
        <ele>821.2</ele>
        <time>2025-10-04T13:04:03Z</time>
      </trkpt>
      <trkpt lat="45.98058" lon="4.44606">
        <ele>821.2</ele>
        <time>2025-10-04T13:04:04Z</time>
      </trkpt>
      <trkpt lat="45.98056" lon="4.44606">
        <ele>821.4</ele>
        <time>2025-10-04T13:04:05Z</time>
      </trkpt>
      <trkpt lat="45.98054" lon="4.44606">
        <ele>821.4</ele>
        <time>2025-10-04T13:04:06Z</time>
      </trkpt>
      <trkpt lat="45.98052" lon="4.44607">
        <ele>821.8</ele>
        <time>2025-10-04T13:04:07Z</time>
      </trkpt>
      <trkpt lat="45.9805" lon="4.44607">
        <ele>821.8</ele>
        <time>2025-10-04T13:04:08Z</time>
      </trkpt>
      <trkpt lat="45.98048" lon="4.44607">
        <ele>821.8</ele>
        <time>2025-10-04T13:04:09Z</time>
      </trkpt>
      <trkpt lat="45.98046" lon="4.44607">
        <ele>821.8</ele>
        <time>2025-10-04T13:04:10Z</time>
      </trkpt>
      <trkpt lat="45.98044" lon="4.44607">
        <ele>821.8</ele>
        <time>2025-10-04T13:04:11Z</time>
      </trkpt>
      <trkpt lat="45.98042" lon="4.44607">
        <ele>822.2</ele>
        <time>2025-10-04T13:04:12Z</time>
      </trkpt>
      <trkpt lat="45.9804" lon="4.44607">
        <ele>822.8</ele>
        <time>2025-10-04T13:04:13Z</time>
      </trkpt>
      <trkpt lat="45.98038" lon="4.44607">
        <ele>823.2</ele>
        <time>2025-10-04T13:04:14Z</time>
      </trkpt>
      <trkpt lat="45.98036" lon="4.44608">
        <ele>823.4</ele>
        <time>2025-10-04T13:04:15Z</time>
      </trkpt>
      <trkpt lat="45.98034" lon="4.44608">
        <ele>823.8</ele>
        <time>2025-10-04T13:04:16Z</time>
      </trkpt>
      <trkpt lat="45.98032" lon="4.44608">
        <ele>824</ele>
        <time>2025-10-04T13:04:17Z</time>
      </trkpt>
      <trkpt lat="45.9803" lon="4.44608">
        <ele>823.8</ele>
        <time>2025-10-04T13:04:18Z</time>
      </trkpt>
      <trkpt lat="45.98028" lon="4.44608">
        <ele>823.8</ele>
        <time>2025-10-04T13:04:19Z</time>
      </trkpt>
      <trkpt lat="45.98026" lon="4.44608">
        <ele>823.8</ele>
        <time>2025-10-04T13:04:20Z</time>
      </trkpt>
      <trkpt lat="45.98025" lon="4.44608">
        <ele>824.2</ele>
        <time>2025-10-04T13:04:21Z</time>
      </trkpt>
      <trkpt lat="45.98022" lon="4.44609">
        <ele>824.4</ele>
        <time>2025-10-04T13:04:22Z</time>
      </trkpt>
      <trkpt lat="45.9802" lon="4.44609">
        <ele>824.8</ele>
        <time>2025-10-04T13:04:23Z</time>
      </trkpt>
      <trkpt lat="45.98019" lon="4.4461">
        <ele>824.8</ele>
        <time>2025-10-04T13:04:24Z</time>
      </trkpt>
      <trkpt lat="45.98017" lon="4.4461">
        <ele>825</ele>
        <time>2025-10-04T13:04:25Z</time>
      </trkpt>
      <trkpt lat="45.98015" lon="4.4461">
        <ele>825.2</ele>
        <time>2025-10-04T13:04:26Z</time>
      </trkpt>
      <trkpt lat="45.98013" lon="4.4461">
        <ele>825.8</ele>
        <time>2025-10-04T13:04:27Z</time>
      </trkpt>
      <trkpt lat="45.9801" lon="4.44611">
        <ele>826.6</ele>
        <time>2025-10-04T13:04:28Z</time>
      </trkpt>
      <trkpt lat="45.98008" lon="4.44613">
        <ele>826.6</ele>
        <time>2025-10-04T13:04:29Z</time>
      </trkpt>
      <trkpt lat="45.98006" lon="4.44614">
        <ele>826.6</ele>
        <time>2025-10-04T13:04:30Z</time>
      </trkpt>
      <trkpt lat="45.98005" lon="4.44615">
        <ele>826.6</ele>
        <time>2025-10-04T13:04:31Z</time>
      </trkpt>
      <trkpt lat="45.98004" lon="4.44616">
        <ele>826.4</ele>
        <time>2025-10-04T13:04:32Z</time>
      </trkpt>
      <trkpt lat="45.98003" lon="4.44617">
        <ele>826.4</ele>
        <time>2025-10-04T13:04:33Z</time>
      </trkpt>
      <trkpt lat="45.98001" lon="4.44618">
        <ele>826.6</ele>
        <time>2025-10-04T13:04:34Z</time>
      </trkpt>
      <trkpt lat="45.97999" lon="4.44619">
        <ele>826.6</ele>
        <time>2025-10-04T13:04:35Z</time>
      </trkpt>
      <trkpt lat="45.97997" lon="4.44621">
        <ele>827.2</ele>
        <time>2025-10-04T13:04:36Z</time>
      </trkpt>
      <trkpt lat="45.97996" lon="4.44621">
        <ele>827.6</ele>
        <time>2025-10-04T13:04:37Z</time>
      </trkpt>
      <trkpt lat="45.97994" lon="4.44622">
        <ele>827.8</ele>
        <time>2025-10-04T13:04:38Z</time>
      </trkpt>
      <trkpt lat="45.97993" lon="4.44622">
        <ele>827.8</ele>
        <time>2025-10-04T13:04:39Z</time>
      </trkpt>
      <trkpt lat="45.97992" lon="4.44621">
        <ele>828.4</ele>
        <time>2025-10-04T13:04:40Z</time>
      </trkpt>
      <trkpt lat="45.9799" lon="4.44622">
        <ele>828.4</ele>
        <time>2025-10-04T13:04:41Z</time>
      </trkpt>
      <trkpt lat="45.97988" lon="4.44622">
        <ele>828.4</ele>
        <time>2025-10-04T13:04:42Z</time>
      </trkpt>
      <trkpt lat="45.97986" lon="4.44622">
        <ele>828.4</ele>
        <time>2025-10-04T13:04:43Z</time>
      </trkpt>
      <trkpt lat="45.97984" lon="4.44623">
        <ele>828.8</ele>
        <time>2025-10-04T13:04:44Z</time>
      </trkpt>
      <trkpt lat="45.97983" lon="4.44623">
        <ele>828.8</ele>
        <time>2025-10-04T13:04:45Z</time>
      </trkpt>
      <trkpt lat="45.97982" lon="4.44625">
        <ele>829.2</ele>
        <time>2025-10-04T13:04:46Z</time>
      </trkpt>
      <trkpt lat="45.97979" lon="4.44627">
        <ele>829.2</ele>
        <time>2025-10-04T13:04:47Z</time>
      </trkpt>
      <trkpt lat="45.97977" lon="4.44628">
        <ele>829.6</ele>
        <time>2025-10-04T13:04:48Z</time>
      </trkpt>
      <trkpt lat="45.97975" lon="4.44629">
        <ele>829.6</ele>
        <time>2025-10-04T13:04:49Z</time>
      </trkpt>
      <trkpt lat="45.97973" lon="4.4463">
        <ele>829.6</ele>
        <time>2025-10-04T13:04:50Z</time>
      </trkpt>
      <trkpt lat="45.97971" lon="4.44632">
        <ele>829.6</ele>
        <time>2025-10-04T13:04:51Z</time>
      </trkpt>
      <trkpt lat="45.97969" lon="4.44632">
        <ele>829.8</ele>
        <time>2025-10-04T13:04:52Z</time>
      </trkpt>
      <trkpt lat="45.97967" lon="4.44633">
        <ele>830</ele>
        <time>2025-10-04T13:04:53Z</time>
      </trkpt>
      <trkpt lat="45.97965" lon="4.44634">
        <ele>830</ele>
        <time>2025-10-04T13:04:54Z</time>
      </trkpt>
      <trkpt lat="45.97963" lon="4.44635">
        <ele>830.4</ele>
        <time>2025-10-04T13:04:55Z</time>
      </trkpt>
      <trkpt lat="45.97961" lon="4.44635">
        <ele>829.4</ele>
        <time>2025-10-04T13:04:56Z</time>
      </trkpt>
      <trkpt lat="45.9796" lon="4.44636">
        <ele>829.8</ele>
        <time>2025-10-04T13:04:57Z</time>
      </trkpt>
      <trkpt lat="45.97958" lon="4.44637">
        <ele>830.2</ele>
        <time>2025-10-04T13:04:58Z</time>
      </trkpt>
      <trkpt lat="45.97955" lon="4.44639">
        <ele>830.6</ele>
        <time>2025-10-04T13:04:59Z</time>
      </trkpt>
      <trkpt lat="45.97953" lon="4.4464">
        <ele>830.8</ele>
        <time>2025-10-04T13:05:00Z</time>
      </trkpt>
      <trkpt lat="45.97951" lon="4.44641">
        <ele>830.8</ele>
        <time>2025-10-04T13:05:01Z</time>
      </trkpt>
      <trkpt lat="45.97949" lon="4.44642">
        <ele>830.8</ele>
        <time>2025-10-04T13:05:02Z</time>
      </trkpt>
      <trkpt lat="45.97948" lon="4.44643">
        <ele>831.2</ele>
        <time>2025-10-04T13:05:03Z</time>
      </trkpt>
      <trkpt lat="45.97945" lon="4.44645">
        <ele>831.4</ele>
        <time>2025-10-04T13:05:04Z</time>
      </trkpt>
      <trkpt lat="45.97944" lon="4.44646">
        <ele>831.4</ele>
        <time>2025-10-04T13:05:05Z</time>
      </trkpt>
      <trkpt lat="45.97942" lon="4.44646">
        <ele>831.8</ele>
        <time>2025-10-04T13:05:06Z</time>
      </trkpt>
      <trkpt lat="45.97941" lon="4.44647">
        <ele>831.8</ele>
        <time>2025-10-04T13:05:07Z</time>
      </trkpt>
      <trkpt lat="45.97939" lon="4.44647">
        <ele>831.8</ele>
        <time>2025-10-04T13:05:08Z</time>
      </trkpt>
      <trkpt lat="45.97937" lon="4.44647">
        <ele>831.8</ele>
        <time>2025-10-04T13:05:09Z</time>
      </trkpt>
      <trkpt lat="45.97936" lon="4.44648">
        <ele>832</ele>
        <time>2025-10-04T13:05:10Z</time>
      </trkpt>
      <trkpt lat="45.97934" lon="4.44649">
        <ele>832.2</ele>
        <time>2025-10-04T13:05:11Z</time>
      </trkpt>
      <trkpt lat="45.97932" lon="4.4465">
        <ele>832.4</ele>
        <time>2025-10-04T13:05:12Z</time>
      </trkpt>
      <trkpt lat="45.9793" lon="4.44651">
        <ele>832.4</ele>
        <time>2025-10-04T13:05:13Z</time>
      </trkpt>
      <trkpt lat="45.97928" lon="4.44652">
        <ele>832.4</ele>
        <time>2025-10-04T13:05:14Z</time>
      </trkpt>
      <trkpt lat="45.97927" lon="4.44653">
        <ele>832.4</ele>
        <time>2025-10-04T13:05:15Z</time>
      </trkpt>
      <trkpt lat="45.97926" lon="4.44655">
        <ele>832.8</ele>
        <time>2025-10-04T13:05:16Z</time>
      </trkpt>
      <trkpt lat="45.97924" lon="4.44657">
        <ele>832.8</ele>
        <time>2025-10-04T13:05:17Z</time>
      </trkpt>
      <trkpt lat="45.97922" lon="4.44659">
        <ele>832.8</ele>
        <time>2025-10-04T13:05:18Z</time>
      </trkpt>
      <trkpt lat="45.9792" lon="4.4466">
        <ele>833.2</ele>
        <time>2025-10-04T13:05:19Z</time>
      </trkpt>
      <trkpt lat="45.97918" lon="4.44662">
        <ele>833.4</ele>
        <time>2025-10-04T13:05:20Z</time>
      </trkpt>
      <trkpt lat="45.97916" lon="4.44663">
        <ele>833.6</ele>
        <time>2025-10-04T13:05:21Z</time>
      </trkpt>
      <trkpt lat="45.97916" lon="4.44663">
        <ele>833.8</ele>
        <time>2025-10-04T13:05:22Z</time>
      </trkpt>
      <trkpt lat="45.97915" lon="4.44662">
        <ele>834.2</ele>
        <time>2025-10-04T13:05:23Z</time>
      </trkpt>
      <trkpt lat="45.97913" lon="4.44662">
        <ele>834.6</ele>
        <time>2025-10-04T13:05:24Z</time>
      </trkpt>
      <trkpt lat="45.97911" lon="4.44661">
        <ele>834.6</ele>
        <time>2025-10-04T13:05:25Z</time>
      </trkpt>
      <trkpt lat="45.97909" lon="4.44662">
        <ele>834.6</ele>
        <time>2025-10-04T13:05:26Z</time>
      </trkpt>
      <trkpt lat="45.97907" lon="4.44663">
        <ele>834</ele>
        <time>2025-10-04T13:05:27Z</time>
      </trkpt>
      <trkpt lat="45.97904" lon="4.44664">
        <ele>834</ele>
        <time>2025-10-04T13:05:28Z</time>
      </trkpt>
      <trkpt lat="45.97902" lon="4.44666">
        <ele>834.6</ele>
        <time>2025-10-04T13:05:29Z</time>
      </trkpt>
      <trkpt lat="45.979" lon="4.44667">
        <ele>834.6</ele>
        <time>2025-10-04T13:05:30Z</time>
      </trkpt>
      <trkpt lat="45.97897" lon="4.44669">
        <ele>835.6</ele>
        <time>2025-10-04T13:05:31Z</time>
      </trkpt>
      <trkpt lat="45.97895" lon="4.4467">
        <ele>835.8</ele>
        <time>2025-10-04T13:05:32Z</time>
      </trkpt>
      <trkpt lat="45.97892" lon="4.44672">
        <ele>835.8</ele>
        <time>2025-10-04T13:05:33Z</time>
      </trkpt>
      <trkpt lat="45.9789" lon="4.44673">
        <ele>836.4</ele>
        <time>2025-10-04T13:05:34Z</time>
      </trkpt>
      <trkpt lat="45.97888" lon="4.44674">
        <ele>836.4</ele>
        <time>2025-10-04T13:05:35Z</time>
      </trkpt>
      <trkpt lat="45.97887" lon="4.44675">
        <ele>836.6</ele>
        <time>2025-10-04T13:05:36Z</time>
      </trkpt>
      <trkpt lat="45.97885" lon="4.44676">
        <ele>836.6</ele>
        <time>2025-10-04T13:05:37Z</time>
      </trkpt>
      <trkpt lat="45.97883" lon="4.44677">
        <ele>836.2</ele>
        <time>2025-10-04T13:05:38Z</time>
      </trkpt>
      <trkpt lat="45.97881" lon="4.44678">
        <ele>836.2</ele>
        <time>2025-10-04T13:05:39Z</time>
      </trkpt>
      <trkpt lat="45.9788" lon="4.44679">
        <ele>836.2</ele>
        <time>2025-10-04T13:05:40Z</time>
      </trkpt>
      <trkpt lat="45.97878" lon="4.4468">
        <ele>836.2</ele>
        <time>2025-10-04T13:05:41Z</time>
      </trkpt>
      <trkpt lat="45.97875" lon="4.44681">
        <ele>836.8</ele>
        <time>2025-10-04T13:05:42Z</time>
      </trkpt>
      <trkpt lat="45.97873" lon="4.44683">
        <ele>836.8</ele>
        <time>2025-10-04T13:05:43Z</time>
      </trkpt>
      <trkpt lat="45.97872" lon="4.44685">
        <ele>837.2</ele>
        <time>2025-10-04T13:05:44Z</time>
      </trkpt>
      <trkpt lat="45.9787" lon="4.44686">
        <ele>837.2</ele>
        <time>2025-10-04T13:05:45Z</time>
      </trkpt>
      <trkpt lat="45.97869" lon="4.44688">
        <ele>837.2</ele>
        <time>2025-10-04T13:05:46Z</time>
      </trkpt>
      <trkpt lat="45.97867" lon="4.4469">
        <ele>837.2</ele>
        <time>2025-10-04T13:05:47Z</time>
      </trkpt>
      <trkpt lat="45.97866" lon="4.44693">
        <ele>837.4</ele>
        <time>2025-10-04T13:05:48Z</time>
      </trkpt>
      <trkpt lat="45.97865" lon="4.44695">
        <ele>837.8</ele>
        <time>2025-10-04T13:05:49Z</time>
      </trkpt>
      <trkpt lat="45.97863" lon="4.44696">
        <ele>838.2</ele>
        <time>2025-10-04T13:05:50Z</time>
      </trkpt>
      <trkpt lat="45.97862" lon="4.44697">
        <ele>838.6</ele>
        <time>2025-10-04T13:05:51Z</time>
      </trkpt>
      <trkpt lat="45.9786" lon="4.44697">
        <ele>838.8</ele>
        <time>2025-10-04T13:05:52Z</time>
      </trkpt>
      <trkpt lat="45.97858" lon="4.44698">
        <ele>838.8</ele>
        <time>2025-10-04T13:05:53Z</time>
      </trkpt>
      <trkpt lat="45.97856" lon="4.44698">
        <ele>838.8</ele>
        <time>2025-10-04T13:05:54Z</time>
      </trkpt>
      <trkpt lat="45.97853" lon="4.44699">
        <ele>838.8</ele>
        <time>2025-10-04T13:05:55Z</time>
      </trkpt>
      <trkpt lat="45.97851" lon="4.44698">
        <ele>838.8</ele>
        <time>2025-10-04T13:05:56Z</time>
      </trkpt>
      <trkpt lat="45.97848" lon="4.44699">
        <ele>838.8</ele>
        <time>2025-10-04T13:05:57Z</time>
      </trkpt>
      <trkpt lat="45.97844" lon="4.447">
        <ele>838.8</ele>
        <time>2025-10-04T13:05:58Z</time>
      </trkpt>
      <trkpt lat="45.97841" lon="4.44701">
        <ele>838.8</ele>
        <time>2025-10-04T13:05:59Z</time>
      </trkpt>
      <trkpt lat="45.97837" lon="4.44702">
        <ele>838.6</ele>
        <time>2025-10-04T13:06:00Z</time>
      </trkpt>
      <trkpt lat="45.97833" lon="4.44702">
        <ele>838.8</ele>
        <time>2025-10-04T13:06:01Z</time>
      </trkpt>
      <trkpt lat="45.97829" lon="4.44703">
        <ele>839.2</ele>
        <time>2025-10-04T13:06:02Z</time>
      </trkpt>
      <trkpt lat="45.97826" lon="4.44703">
        <ele>838.8</ele>
        <time>2025-10-04T13:06:03Z</time>
      </trkpt>
      <trkpt lat="45.97822" lon="4.44702">
        <ele>838.8</ele>
        <time>2025-10-04T13:06:04Z</time>
      </trkpt>
      <trkpt lat="45.97819" lon="4.447">
        <ele>838.8</ele>
        <time>2025-10-04T13:06:05Z</time>
      </trkpt>
      <trkpt lat="45.97816" lon="4.44698">
        <ele>838.6</ele>
        <time>2025-10-04T13:06:06Z</time>
      </trkpt>
      <trkpt lat="45.97814" lon="4.44697">
        <ele>838.6</ele>
        <time>2025-10-04T13:06:07Z</time>
      </trkpt>
      <trkpt lat="45.97811" lon="4.44697">
        <ele>838.6</ele>
        <time>2025-10-04T13:06:08Z</time>
      </trkpt>
      <trkpt lat="45.97809" lon="4.44697">
        <ele>838.6</ele>
        <time>2025-10-04T13:06:09Z</time>
      </trkpt>
      <trkpt lat="45.97806" lon="4.44697">
        <ele>839</ele>
        <time>2025-10-04T13:06:10Z</time>
      </trkpt>
      <trkpt lat="45.97803" lon="4.44698">
        <ele>839</ele>
        <time>2025-10-04T13:06:11Z</time>
      </trkpt>
      <trkpt lat="45.978" lon="4.44699">
        <ele>839</ele>
        <time>2025-10-04T13:06:12Z</time>
      </trkpt>
      <trkpt lat="45.97797" lon="4.44701">
        <ele>839.2</ele>
        <time>2025-10-04T13:06:13Z</time>
      </trkpt>
      <trkpt lat="45.97794" lon="4.44702">
        <ele>839.6</ele>
        <time>2025-10-04T13:06:14Z</time>
      </trkpt>
      <trkpt lat="45.97792" lon="4.44701">
        <ele>839.6</ele>
        <time>2025-10-04T13:06:15Z</time>
      </trkpt>
      <trkpt lat="45.97789" lon="4.447">
        <ele>839.6</ele>
        <time>2025-10-04T13:06:16Z</time>
      </trkpt>
      <trkpt lat="45.97786" lon="4.447">
        <ele>839.6</ele>
        <time>2025-10-04T13:06:17Z</time>
      </trkpt>
      <trkpt lat="45.97784" lon="4.44701">
        <ele>839.2</ele>
        <time>2025-10-04T13:06:18Z</time>
      </trkpt>
      <trkpt lat="45.97781" lon="4.44702">
        <ele>839.2</ele>
        <time>2025-10-04T13:06:19Z</time>
      </trkpt>
      <trkpt lat="45.97778" lon="4.44704">
        <ele>839</ele>
        <time>2025-10-04T13:06:20Z</time>
      </trkpt>
      <trkpt lat="45.97775" lon="4.44706">
        <ele>839.2</ele>
        <time>2025-10-04T13:06:21Z</time>
      </trkpt>
      <trkpt lat="45.97774" lon="4.44707">
        <ele>839.8</ele>
        <time>2025-10-04T13:06:22Z</time>
      </trkpt>
      <trkpt lat="45.97772" lon="4.44709">
        <ele>839.8</ele>
        <time>2025-10-04T13:06:23Z</time>
      </trkpt>
      <trkpt lat="45.97769" lon="4.44711">
        <ele>839.8</ele>
        <time>2025-10-04T13:06:24Z</time>
      </trkpt>
      <trkpt lat="45.97766" lon="4.44712">
        <ele>840</ele>
        <time>2025-10-04T13:06:25Z</time>
      </trkpt>
      <trkpt lat="45.97764" lon="4.44713">
        <ele>840</ele>
        <time>2025-10-04T13:06:26Z</time>
      </trkpt>
      <trkpt lat="45.97762" lon="4.44713">
        <ele>840</ele>
        <time>2025-10-04T13:06:27Z</time>
      </trkpt>
      <trkpt lat="45.9776" lon="4.44714">
        <ele>840.6</ele>
        <time>2025-10-04T13:06:28Z</time>
      </trkpt>
      <trkpt lat="45.97758" lon="4.44715">
        <ele>840.8</ele>
        <time>2025-10-04T13:06:29Z</time>
      </trkpt>
      <trkpt lat="45.97756" lon="4.44716">
        <ele>840.8</ele>
        <time>2025-10-04T13:06:30Z</time>
      </trkpt>
      <trkpt lat="45.97753" lon="4.44717">
        <ele>841</ele>
        <time>2025-10-04T13:06:31Z</time>
      </trkpt>
      <trkpt lat="45.97752" lon="4.44717">
        <ele>841</ele>
        <time>2025-10-04T13:06:32Z</time>
      </trkpt>
      <trkpt lat="45.97751" lon="4.44718">
        <ele>841.6</ele>
        <time>2025-10-04T13:06:33Z</time>
      </trkpt>
      <trkpt lat="45.9775" lon="4.44719">
        <ele>841.8</ele>
        <time>2025-10-04T13:06:34Z</time>
      </trkpt>
      <trkpt lat="45.97749" lon="4.4472">
        <ele>842</ele>
        <time>2025-10-04T13:06:35Z</time>
      </trkpt>
      <trkpt lat="45.97748" lon="4.44721">
        <ele>841.8</ele>
        <time>2025-10-04T13:06:36Z</time>
      </trkpt>
      <trkpt lat="45.97747" lon="4.44721">
        <ele>842.2</ele>
        <time>2025-10-04T13:06:37Z</time>
      </trkpt>
      <trkpt lat="45.97746" lon="4.44721">
        <ele>841.8</ele>
        <time>2025-10-04T13:06:38Z</time>
      </trkpt>
      <trkpt lat="45.97744" lon="4.44722">
        <ele>842.2</ele>
        <time>2025-10-04T13:06:39Z</time>
      </trkpt>
      <trkpt lat="45.97743" lon="4.44723">
        <ele>842.6</ele>
        <time>2025-10-04T13:06:40Z</time>
      </trkpt>
      <trkpt lat="45.97742" lon="4.44724">
        <ele>843</ele>
        <time>2025-10-04T13:06:41Z</time>
      </trkpt>
      <trkpt lat="45.9774" lon="4.44725">
        <ele>843.2</ele>
        <time>2025-10-04T13:06:42Z</time>
      </trkpt>
      <trkpt lat="45.97739" lon="4.44725">
        <ele>843.6</ele>
        <time>2025-10-04T13:06:43Z</time>
      </trkpt>
      <trkpt lat="45.97739" lon="4.44726">
        <ele>844</ele>
        <time>2025-10-04T13:06:44Z</time>
      </trkpt>
      <trkpt lat="45.97739" lon="4.44726">
        <ele>844</ele>
        <time>2025-10-04T13:06:45Z</time>
      </trkpt>
      <trkpt lat="45.97737" lon="4.44727">
        <ele>844</ele>
        <time>2025-10-04T13:06:46Z</time>
      </trkpt>
      <trkpt lat="45.97735" lon="4.44727">
        <ele>844.2</ele>
        <time>2025-10-04T13:06:47Z</time>
      </trkpt>
      <trkpt lat="45.97734" lon="4.44728">
        <ele>844.2</ele>
        <time>2025-10-04T13:06:48Z</time>
      </trkpt>
      <trkpt lat="45.97732" lon="4.44728">
        <ele>844.4</ele>
        <time>2025-10-04T13:06:49Z</time>
      </trkpt>
      <trkpt lat="45.97731" lon="4.44729">
        <ele>844.4</ele>
        <time>2025-10-04T13:06:50Z</time>
      </trkpt>
      <trkpt lat="45.97729" lon="4.44729">
        <ele>844.8</ele>
        <time>2025-10-04T13:06:51Z</time>
      </trkpt>
      <trkpt lat="45.97728" lon="4.4473">
        <ele>845.4</ele>
        <time>2025-10-04T13:06:52Z</time>
      </trkpt>
      <trkpt lat="45.97727" lon="4.4473">
        <ele>845.6</ele>
        <time>2025-10-04T13:06:53Z</time>
      </trkpt>
      <trkpt lat="45.97725" lon="4.4473">
        <ele>846.2</ele>
        <time>2025-10-04T13:06:54Z</time>
      </trkpt>
      <trkpt lat="45.97723" lon="4.44731">
        <ele>846.4</ele>
        <time>2025-10-04T13:06:55Z</time>
      </trkpt>
      <trkpt lat="45.97723" lon="4.44731">
        <ele>847</ele>
        <time>2025-10-04T13:06:56Z</time>
      </trkpt>
      <trkpt lat="45.97722" lon="4.44731">
        <ele>847.4</ele>
        <time>2025-10-04T13:06:57Z</time>
      </trkpt>
      <trkpt lat="45.97722" lon="4.44731">
        <ele>847.6</ele>
        <time>2025-10-04T13:06:58Z</time>
      </trkpt>
      <trkpt lat="45.97721" lon="4.44732">
        <ele>847.8</ele>
        <time>2025-10-04T13:06:59Z</time>
      </trkpt>
      <trkpt lat="45.9772" lon="4.44732">
        <ele>848</ele>
        <time>2025-10-04T13:07:00Z</time>
      </trkpt>
      <trkpt lat="45.97719" lon="4.44732">
        <ele>848</ele>
        <time>2025-10-04T13:07:01Z</time>
      </trkpt>
      <trkpt lat="45.97718" lon="4.44733">
        <ele>848</ele>
        <time>2025-10-04T13:07:02Z</time>
      </trkpt>
      <trkpt lat="45.97718" lon="4.44733">
        <ele>848.2</ele>
        <time>2025-10-04T13:07:03Z</time>
      </trkpt>
      <trkpt lat="45.97717" lon="4.44733">
        <ele>848.2</ele>
        <time>2025-10-04T13:07:04Z</time>
      </trkpt>
      <trkpt lat="45.97715" lon="4.44734">
        <ele>848.6</ele>
        <time>2025-10-04T13:07:05Z</time>
      </trkpt>
      <trkpt lat="45.97714" lon="4.44735">
        <ele>849</ele>
        <time>2025-10-04T13:07:06Z</time>
      </trkpt>
      <trkpt lat="45.97713" lon="4.44736">
        <ele>849.2</ele>
        <time>2025-10-04T13:07:07Z</time>
      </trkpt>
      <trkpt lat="45.97712" lon="4.44738">
        <ele>849.8</ele>
        <time>2025-10-04T13:07:08Z</time>
      </trkpt>
      <trkpt lat="45.9771" lon="4.44739">
        <ele>849.8</ele>
        <time>2025-10-04T13:07:09Z</time>
      </trkpt>
      <trkpt lat="45.97709" lon="4.44741">
        <ele>850.2</ele>
        <time>2025-10-04T13:07:10Z</time>
      </trkpt>
      <trkpt lat="45.97709" lon="4.44742">
        <ele>850.2</ele>
        <time>2025-10-04T13:07:11Z</time>
      </trkpt>
      <trkpt lat="45.97708" lon="4.44742">
        <ele>850.4</ele>
        <time>2025-10-04T13:07:12Z</time>
      </trkpt>
      <trkpt lat="45.97708" lon="4.44742">
        <ele>850.4</ele>
        <time>2025-10-04T13:07:13Z</time>
      </trkpt>
      <trkpt lat="45.97707" lon="4.44742">
        <ele>851</ele>
        <time>2025-10-04T13:07:14Z</time>
      </trkpt>
      <trkpt lat="45.97706" lon="4.44743">
        <ele>851</ele>
        <time>2025-10-04T13:07:15Z</time>
      </trkpt>
      <trkpt lat="45.97705" lon="4.44743">
        <ele>851.2</ele>
        <time>2025-10-04T13:07:16Z</time>
      </trkpt>
      <trkpt lat="45.97704" lon="4.44744">
        <ele>851.4</ele>
        <time>2025-10-04T13:07:17Z</time>
      </trkpt>
      <trkpt lat="45.97702" lon="4.44744">
        <ele>851.4</ele>
        <time>2025-10-04T13:07:18Z</time>
      </trkpt>
      <trkpt lat="45.977" lon="4.44745">
        <ele>851.6</ele>
        <time>2025-10-04T13:07:19Z</time>
      </trkpt>
      <trkpt lat="45.97699" lon="4.44746">
        <ele>851.6</ele>
        <time>2025-10-04T13:07:20Z</time>
      </trkpt>
      <trkpt lat="45.97697" lon="4.44748">
        <ele>852.2</ele>
        <time>2025-10-04T13:07:21Z</time>
      </trkpt>
      <trkpt lat="45.97696" lon="4.44749">
        <ele>852.6</ele>
        <time>2025-10-04T13:07:22Z</time>
      </trkpt>
      <trkpt lat="45.97694" lon="4.4475">
        <ele>852.8</ele>
        <time>2025-10-04T13:07:23Z</time>
      </trkpt>
      <trkpt lat="45.97693" lon="4.4475">
        <ele>852.8</ele>
        <time>2025-10-04T13:07:24Z</time>
      </trkpt>
      <trkpt lat="45.97692" lon="4.4475">
        <ele>853</ele>
        <time>2025-10-04T13:07:25Z</time>
      </trkpt>
      <trkpt lat="45.97691" lon="4.44751">
        <ele>853</ele>
        <time>2025-10-04T13:07:26Z</time>
      </trkpt>
      <trkpt lat="45.97691" lon="4.44751">
        <ele>853</ele>
        <time>2025-10-04T13:07:27Z</time>
      </trkpt>
      <trkpt lat="45.9769" lon="4.44752">
        <ele>853</ele>
        <time>2025-10-04T13:07:28Z</time>
      </trkpt>
      <trkpt lat="45.97685" lon="4.44756">
        <ele>853.2</ele>
        <time>2025-10-04T13:07:45Z</time>
      </trkpt>
      <trkpt lat="45.97685" lon="4.44756">
        <ele>853.2</ele>
        <time>2025-10-04T13:07:46Z</time>
      </trkpt>
      <trkpt lat="45.97683" lon="4.44756">
        <ele>853.2</ele>
        <time>2025-10-04T13:07:47Z</time>
      </trkpt>
      <trkpt lat="45.97683" lon="4.44756">
        <ele>853.2</ele>
        <time>2025-10-04T13:07:48Z</time>
      </trkpt>
      <trkpt lat="45.97682" lon="4.44756">
        <ele>853.4</ele>
        <time>2025-10-04T13:07:49Z</time>
      </trkpt>
      <trkpt lat="45.97681" lon="4.44756">
        <ele>853.4</ele>
        <time>2025-10-04T13:07:50Z</time>
      </trkpt>
      <trkpt lat="45.9768" lon="4.44756">
        <ele>853.4</ele>
        <time>2025-10-04T13:07:51Z</time>
      </trkpt>
      <trkpt lat="45.9768" lon="4.44757">
        <ele>853.4</ele>
        <time>2025-10-04T13:07:52Z</time>
      </trkpt>
      <trkpt lat="45.97681" lon="4.44757">
        <ele>853.4</ele>
        <time>2025-10-04T13:07:53Z</time>
      </trkpt>
      <trkpt lat="45.9768" lon="4.44758">
        <ele>853.2</ele>
        <time>2025-10-04T13:07:57Z</time>
      </trkpt>
      <trkpt lat="45.9768" lon="4.44758">
        <ele>853.2</ele>
        <time>2025-10-04T13:07:58Z</time>
      </trkpt>
      <trkpt lat="45.97681" lon="4.44759">
        <ele>852.8</ele>
        <time>2025-10-04T13:07:59Z</time>
      </trkpt>
      <trkpt lat="45.97682" lon="4.44765">
        <ele>853.4</ele>
        <time>2025-10-04T13:15:15Z</time>
      </trkpt>
      <trkpt lat="45.97682" lon="4.44764">
        <ele>853.8</ele>
        <time>2025-10-04T13:15:16Z</time>
      </trkpt>
      <trkpt lat="45.97679" lon="4.44764">
        <ele>853.4</ele>
        <time>2025-10-04T13:15:55Z</time>
      </trkpt>
      <trkpt lat="45.97679" lon="4.44764">
        <ele>853.4</ele>
        <time>2025-10-04T13:15:56Z</time>
      </trkpt>
      <trkpt lat="45.97679" lon="4.44763">
        <ele>853.8</ele>
        <time>2025-10-04T13:15:57Z</time>
      </trkpt>
      <trkpt lat="45.97676" lon="4.44766">
        <ele>852.8</ele>
        <time>2025-10-04T13:16:02Z</time>
      </trkpt>
      <trkpt lat="45.97674" lon="4.44767">
        <ele>852.4</ele>
        <time>2025-10-04T13:16:03Z</time>
      </trkpt>
      <trkpt lat="45.97673" lon="4.44768">
        <ele>852.2</ele>
        <time>2025-10-04T13:16:04Z</time>
      </trkpt>
      <trkpt lat="45.97672" lon="4.44769">
        <ele>852</ele>
        <time>2025-10-04T13:16:05Z</time>
      </trkpt>
      <trkpt lat="45.97671" lon="4.4477">
        <ele>852</ele>
        <time>2025-10-04T13:16:06Z</time>
      </trkpt>
      <trkpt lat="45.9767" lon="4.44772">
        <ele>851.8</ele>
        <time>2025-10-04T13:16:07Z</time>
      </trkpt>
      <trkpt lat="45.97668" lon="4.44774">
        <ele>851.4</ele>
        <time>2025-10-04T13:16:08Z</time>
      </trkpt>
      <trkpt lat="45.97666" lon="4.44777">
        <ele>851</ele>
        <time>2025-10-04T13:16:09Z</time>
      </trkpt>
      <trkpt lat="45.97664" lon="4.44779">
        <ele>851.8</ele>
        <time>2025-10-04T13:16:10Z</time>
      </trkpt>
      <trkpt lat="45.97661" lon="4.44783">
        <ele>851.8</ele>
        <time>2025-10-04T13:16:11Z</time>
      </trkpt>
      <trkpt lat="45.97658" lon="4.44786">
        <ele>851.8</ele>
        <time>2025-10-04T13:16:12Z</time>
      </trkpt>
      <trkpt lat="45.97655" lon="4.44788">
        <ele>851.6</ele>
        <time>2025-10-04T13:16:13Z</time>
      </trkpt>
      <trkpt lat="45.97653" lon="4.44789">
        <ele>851.2</ele>
        <time>2025-10-04T13:16:14Z</time>
      </trkpt>
      <trkpt lat="45.9765" lon="4.44789">
        <ele>851.2</ele>
        <time>2025-10-04T13:16:15Z</time>
      </trkpt>
      <trkpt lat="45.97644" lon="4.44794">
        <ele>850.8</ele>
        <time>2025-10-04T13:16:16Z</time>
      </trkpt>
      <trkpt lat="45.97641" lon="4.44797">
        <ele>851.2</ele>
        <time>2025-10-04T13:16:17Z</time>
      </trkpt>
      <trkpt lat="45.97638" lon="4.44802">
        <ele>851.2</ele>
        <time>2025-10-04T13:16:18Z</time>
      </trkpt>
      <trkpt lat="45.97636" lon="4.44802">
        <ele>851</ele>
        <time>2025-10-04T13:16:19Z</time>
      </trkpt>
      <trkpt lat="45.97633" lon="4.44802">
        <ele>850.6</ele>
        <time>2025-10-04T13:16:20Z</time>
      </trkpt>
      <trkpt lat="45.97628" lon="4.44808">
        <ele>850.4</ele>
        <time>2025-10-04T13:16:21Z</time>
      </trkpt>
      <trkpt lat="45.97627" lon="4.4481">
        <ele>850.2</ele>
        <time>2025-10-04T13:16:22Z</time>
      </trkpt>
      <trkpt lat="45.97622" lon="4.4481">
        <ele>849.8</ele>
        <time>2025-10-04T13:16:23Z</time>
      </trkpt>
      <trkpt lat="45.97619" lon="4.44813">
        <ele>849.8</ele>
        <time>2025-10-04T13:16:24Z</time>
      </trkpt>
      <trkpt lat="45.97616" lon="4.44815">
        <ele>849.6</ele>
        <time>2025-10-04T13:16:25Z</time>
      </trkpt>
      <trkpt lat="45.97613" lon="4.44819">
        <ele>849.6</ele>
        <time>2025-10-04T13:16:26Z</time>
      </trkpt>
      <trkpt lat="45.9761" lon="4.44825">
        <ele>849.6</ele>
        <time>2025-10-04T13:16:27Z</time>
      </trkpt>
      <trkpt lat="45.97606" lon="4.44828">
        <ele>849.8</ele>
        <time>2025-10-04T13:16:28Z</time>
      </trkpt>
      <trkpt lat="45.97603" lon="4.44833">
        <ele>849</ele>
        <time>2025-10-04T13:16:29Z</time>
      </trkpt>
      <trkpt lat="45.97599" lon="4.44836">
        <ele>848.6</ele>
        <time>2025-10-04T13:16:30Z</time>
      </trkpt>
      <trkpt lat="45.97595" lon="4.4484">
        <ele>848</ele>
        <time>2025-10-04T13:16:31Z</time>
      </trkpt>
      <trkpt lat="45.97591" lon="4.44846">
        <ele>847.2</ele>
        <time>2025-10-04T13:16:32Z</time>
      </trkpt>
      <trkpt lat="45.97587" lon="4.4485">
        <ele>846.8</ele>
        <time>2025-10-04T13:16:33Z</time>
      </trkpt>
      <trkpt lat="45.97584" lon="4.44852">
        <ele>847</ele>
        <time>2025-10-04T13:16:34Z</time>
      </trkpt>
      <trkpt lat="45.97581" lon="4.44854">
        <ele>847</ele>
        <time>2025-10-04T13:16:35Z</time>
      </trkpt>
      <trkpt lat="45.97578" lon="4.44859">
        <ele>847</ele>
        <time>2025-10-04T13:16:36Z</time>
      </trkpt>
      <trkpt lat="45.97576" lon="4.44862">
        <ele>847.4</ele>
        <time>2025-10-04T13:16:37Z</time>
      </trkpt>
      <trkpt lat="45.97574" lon="4.44866">
        <ele>847.4</ele>
        <time>2025-10-04T13:16:38Z</time>
      </trkpt>
      <trkpt lat="45.97572" lon="4.44869">
        <ele>847.2</ele>
        <time>2025-10-04T13:16:39Z</time>
      </trkpt>
      <trkpt lat="45.97568" lon="4.44873">
        <ele>847.2</ele>
        <time>2025-10-04T13:16:40Z</time>
      </trkpt>
      <trkpt lat="45.97565" lon="4.44876">
        <ele>846.6</ele>
        <time>2025-10-04T13:16:41Z</time>
      </trkpt>
      <trkpt lat="45.97563" lon="4.4488">
        <ele>845.8</ele>
        <time>2025-10-04T13:16:42Z</time>
      </trkpt>
      <trkpt lat="45.9756" lon="4.44885">
        <ele>845</ele>
        <time>2025-10-04T13:16:43Z</time>
      </trkpt>
      <trkpt lat="45.97558" lon="4.4489">
        <ele>845</ele>
        <time>2025-10-04T13:16:44Z</time>
      </trkpt>
      <trkpt lat="45.97556" lon="4.44894">
        <ele>845</ele>
        <time>2025-10-04T13:16:45Z</time>
      </trkpt>
      <trkpt lat="45.97554" lon="4.44899">
        <ele>845.6</ele>
        <time>2025-10-04T13:16:46Z</time>
      </trkpt>
      <trkpt lat="45.97552" lon="4.44904">
        <ele>844.6</ele>
        <time>2025-10-04T13:16:47Z</time>
      </trkpt>
      <trkpt lat="45.97551" lon="4.4491">
        <ele>844.6</ele>
        <time>2025-10-04T13:16:48Z</time>
      </trkpt>
      <trkpt lat="45.9755" lon="4.44916">
        <ele>844</ele>
        <time>2025-10-04T13:16:49Z</time>
      </trkpt>
      <trkpt lat="45.97549" lon="4.44921">
        <ele>843.2</ele>
        <time>2025-10-04T13:16:50Z</time>
      </trkpt>
      <trkpt lat="45.97548" lon="4.44926">
        <ele>843.2</ele>
        <time>2025-10-04T13:16:51Z</time>
      </trkpt>
      <trkpt lat="45.97545" lon="4.4493">
        <ele>841.6</ele>
        <time>2025-10-04T13:16:52Z</time>
      </trkpt>
      <trkpt lat="45.9754" lon="4.44933">
        <ele>838.8</ele>
        <time>2025-10-04T13:16:53Z</time>
      </trkpt>
      <trkpt lat="45.97537" lon="4.44939">
        <ele>838.4</ele>
        <time>2025-10-04T13:16:54Z</time>
      </trkpt>
      <trkpt lat="45.97536" lon="4.44946">
        <ele>838.2</ele>
        <time>2025-10-04T13:16:55Z</time>
      </trkpt>
      <trkpt lat="45.97534" lon="4.44951">
        <ele>838.2</ele>
        <time>2025-10-04T13:16:56Z</time>
      </trkpt>
      <trkpt lat="45.9753" lon="4.44955">
        <ele>838</ele>
        <time>2025-10-04T13:16:57Z</time>
      </trkpt>
      <trkpt lat="45.97528" lon="4.44959">
        <ele>837.6</ele>
        <time>2025-10-04T13:16:58Z</time>
      </trkpt>
      <trkpt lat="45.97525" lon="4.44964">
        <ele>837.6</ele>
        <time>2025-10-04T13:16:59Z</time>
      </trkpt>
      <trkpt lat="45.97523" lon="4.44971">
        <ele>837.4</ele>
        <time>2025-10-04T13:17:00Z</time>
      </trkpt>
      <trkpt lat="45.97521" lon="4.44975">
        <ele>837.4</ele>
        <time>2025-10-04T13:17:01Z</time>
      </trkpt>
      <trkpt lat="45.97519" lon="4.44979">
        <ele>837.2</ele>
        <time>2025-10-04T13:17:02Z</time>
      </trkpt>
      <trkpt lat="45.97518" lon="4.44982">
        <ele>837.2</ele>
        <time>2025-10-04T13:17:03Z</time>
      </trkpt>
      <trkpt lat="45.97516" lon="4.44986">
        <ele>837.2</ele>
        <time>2025-10-04T13:17:04Z</time>
      </trkpt>
      <trkpt lat="45.97515" lon="4.44989">
        <ele>837.2</ele>
        <time>2025-10-04T13:17:05Z</time>
      </trkpt>
      <trkpt lat="45.97513" lon="4.44994">
        <ele>837.4</ele>
        <time>2025-10-04T13:17:06Z</time>
      </trkpt>
      <trkpt lat="45.97511" lon="4.44995">
        <ele>837.2</ele>
        <time>2025-10-04T13:17:07Z</time>
      </trkpt>
      <trkpt lat="45.9751" lon="4.44995">
        <ele>837.2</ele>
        <time>2025-10-04T13:17:08Z</time>
      </trkpt>
      <trkpt lat="45.97507" lon="4.44995">
        <ele>836.8</ele>
        <time>2025-10-04T13:17:09Z</time>
      </trkpt>
      <trkpt lat="45.97504" lon="4.44997">
        <ele>836.2</ele>
        <time>2025-10-04T13:17:10Z</time>
      </trkpt>
      <trkpt lat="45.97502" lon="4.44998">
        <ele>836.2</ele>
        <time>2025-10-04T13:17:11Z</time>
      </trkpt>
      <trkpt lat="45.97499" lon="4.45001">
        <ele>836.2</ele>
        <time>2025-10-04T13:17:12Z</time>
      </trkpt>
      <trkpt lat="45.97497" lon="4.45003">
        <ele>836</ele>
        <time>2025-10-04T13:17:13Z</time>
      </trkpt>
      <trkpt lat="45.97494" lon="4.45006">
        <ele>835.8</ele>
        <time>2025-10-04T13:17:14Z</time>
      </trkpt>
      <trkpt lat="45.97492" lon="4.45007">
        <ele>835.4</ele>
        <time>2025-10-04T13:17:15Z</time>
      </trkpt>
      <trkpt lat="45.9749" lon="4.45008">
        <ele>835.4</ele>
        <time>2025-10-04T13:17:16Z</time>
      </trkpt>
      <trkpt lat="45.97489" lon="4.45007">
        <ele>835</ele>
        <time>2025-10-04T13:17:17Z</time>
      </trkpt>
      <trkpt lat="45.97487" lon="4.45006">
        <ele>835</ele>
        <time>2025-10-04T13:17:18Z</time>
      </trkpt>
      <trkpt lat="45.97486" lon="4.45006">
        <ele>835</ele>
        <time>2025-10-04T13:17:19Z</time>
      </trkpt>
      <trkpt lat="45.97485" lon="4.45007">
        <ele>834.8</ele>
        <time>2025-10-04T13:17:20Z</time>
      </trkpt>
      <trkpt lat="45.97482" lon="4.4501">
        <ele>834.8</ele>
        <time>2025-10-04T13:17:21Z</time>
      </trkpt>
      <trkpt lat="45.9748" lon="4.45013">
        <ele>834.6</ele>
        <time>2025-10-04T13:17:22Z</time>
      </trkpt>
      <trkpt lat="45.97478" lon="4.45015">
        <ele>834.6</ele>
        <time>2025-10-04T13:17:23Z</time>
      </trkpt>
      <trkpt lat="45.97476" lon="4.45017">
        <ele>834.2</ele>
        <time>2025-10-04T13:17:24Z</time>
      </trkpt>
      <trkpt lat="45.97472" lon="4.4502">
        <ele>833.8</ele>
        <time>2025-10-04T13:17:25Z</time>
      </trkpt>
      <trkpt lat="45.9747" lon="4.45022">
        <ele>833.2</ele>
        <time>2025-10-04T13:17:26Z</time>
      </trkpt>
      <trkpt lat="45.97468" lon="4.45023">
        <ele>833</ele>
        <time>2025-10-04T13:17:27Z</time>
      </trkpt>
      <trkpt lat="45.97462" lon="4.45029">
        <ele>832.6</ele>
        <time>2025-10-04T13:17:28Z</time>
      </trkpt>
      <trkpt lat="45.97459" lon="4.45032">
        <ele>832</ele>
        <time>2025-10-04T13:17:29Z</time>
      </trkpt>
      <trkpt lat="45.97458" lon="4.45032">
        <ele>831.4</ele>
        <time>2025-10-04T13:17:30Z</time>
      </trkpt>
      <trkpt lat="45.97453" lon="4.45033">
        <ele>830.8</ele>
        <time>2025-10-04T13:17:31Z</time>
      </trkpt>
      <trkpt lat="45.97451" lon="4.45035">
        <ele>829.8</ele>
        <time>2025-10-04T13:17:32Z</time>
      </trkpt>
      <trkpt lat="45.97446" lon="4.45035">
        <ele>829.8</ele>
        <time>2025-10-04T13:17:33Z</time>
      </trkpt>
      <trkpt lat="45.97444" lon="4.45038">
        <ele>829</ele>
        <time>2025-10-04T13:17:34Z</time>
      </trkpt>
      <trkpt lat="45.97441" lon="4.45041">
        <ele>828</ele>
        <time>2025-10-04T13:17:35Z</time>
      </trkpt>
      <trkpt lat="45.97439" lon="4.45044">
        <ele>827</ele>
        <time>2025-10-04T13:17:36Z</time>
      </trkpt>
      <trkpt lat="45.97437" lon="4.45046">
        <ele>826.4</ele>
        <time>2025-10-04T13:17:37Z</time>
      </trkpt>
      <trkpt lat="45.97435" lon="4.45044">
        <ele>825.8</ele>
        <time>2025-10-04T13:17:38Z</time>
      </trkpt>
      <trkpt lat="45.97432" lon="4.45046">
        <ele>825.2</ele>
        <time>2025-10-04T13:17:39Z</time>
      </trkpt>
      <trkpt lat="45.97431" lon="4.45047">
        <ele>824.8</ele>
        <time>2025-10-04T13:17:40Z</time>
      </trkpt>
      <trkpt lat="45.97429" lon="4.45049">
        <ele>824.4</ele>
        <time>2025-10-04T13:17:41Z</time>
      </trkpt>
      <trkpt lat="45.97428" lon="4.4505">
        <ele>823.4</ele>
        <time>2025-10-04T13:17:42Z</time>
      </trkpt>
      <trkpt lat="45.97426" lon="4.45051">
        <ele>823.8</ele>
        <time>2025-10-04T13:17:43Z</time>
      </trkpt>
      <trkpt lat="45.97423" lon="4.45053">
        <ele>823.2</ele>
        <time>2025-10-04T13:17:44Z</time>
      </trkpt>
      <trkpt lat="45.97421" lon="4.45054">
        <ele>823.2</ele>
        <time>2025-10-04T13:17:45Z</time>
      </trkpt>
      <trkpt lat="45.9742" lon="4.45055">
        <ele>823</ele>
        <time>2025-10-04T13:17:46Z</time>
      </trkpt>
      <trkpt lat="45.97418" lon="4.45056">
        <ele>823</ele>
        <time>2025-10-04T13:17:47Z</time>
      </trkpt>
      <trkpt lat="45.97418" lon="4.45056">
        <ele>823</ele>
        <time>2025-10-04T13:17:48Z</time>
      </trkpt>
      <trkpt lat="45.97415" lon="4.45058">
        <ele>822.4</ele>
        <time>2025-10-04T13:17:49Z</time>
      </trkpt>
      <trkpt lat="45.97412" lon="4.4506">
        <ele>821.8</ele>
        <time>2025-10-04T13:17:50Z</time>
      </trkpt>
      <trkpt lat="45.97405" lon="4.45067">
        <ele>820.8</ele>
        <time>2025-10-04T13:17:51Z</time>
      </trkpt>
      <trkpt lat="45.97402" lon="4.45068">
        <ele>819.6</ele>
        <time>2025-10-04T13:17:52Z</time>
      </trkpt>
      <trkpt lat="45.97401" lon="4.4507">
        <ele>819</ele>
        <time>2025-10-04T13:17:53Z</time>
      </trkpt>
      <trkpt lat="45.97397" lon="4.45072">
        <ele>817.8</ele>
        <time>2025-10-04T13:17:54Z</time>
      </trkpt>
      <trkpt lat="45.97394" lon="4.45073">
        <ele>816.8</ele>
        <time>2025-10-04T13:17:55Z</time>
      </trkpt>
      <trkpt lat="45.97392" lon="4.45074">
        <ele>816.4</ele>
        <time>2025-10-04T13:17:56Z</time>
      </trkpt>
      <trkpt lat="45.97388" lon="4.45076">
        <ele>815.6</ele>
        <time>2025-10-04T13:17:57Z</time>
      </trkpt>
      <trkpt lat="45.97388" lon="4.45078">
        <ele>815.4</ele>
        <time>2025-10-04T13:17:58Z</time>
      </trkpt>
      <trkpt lat="45.97386" lon="4.45079">
        <ele>815</ele>
        <time>2025-10-04T13:17:59Z</time>
      </trkpt>
      <trkpt lat="45.97381" lon="4.45083">
        <ele>814.8</ele>
        <time>2025-10-04T13:18:00Z</time>
      </trkpt>
      <trkpt lat="45.97379" lon="4.45083">
        <ele>814.6</ele>
        <time>2025-10-04T13:18:01Z</time>
      </trkpt>
      <trkpt lat="45.97377" lon="4.45084">
        <ele>814.4</ele>
        <time>2025-10-04T13:18:02Z</time>
      </trkpt>
      <trkpt lat="45.97376" lon="4.45087">
        <ele>814.4</ele>
        <time>2025-10-04T13:18:03Z</time>
      </trkpt>
      <trkpt lat="45.97375" lon="4.4509">
        <ele>814.4</ele>
        <time>2025-10-04T13:18:04Z</time>
      </trkpt>
      <trkpt lat="45.97374" lon="4.45093">
        <ele>814.4</ele>
        <time>2025-10-04T13:18:05Z</time>
      </trkpt>
      <trkpt lat="45.97373" lon="4.45095">
        <ele>814</ele>
        <time>2025-10-04T13:18:06Z</time>
      </trkpt>
      <trkpt lat="45.97373" lon="4.45097">
        <ele>813.8</ele>
        <time>2025-10-04T13:18:07Z</time>
      </trkpt>
      <trkpt lat="45.97373" lon="4.45098">
        <ele>813.8</ele>
        <time>2025-10-04T13:18:08Z</time>
      </trkpt>
      <trkpt lat="45.97373" lon="4.45099">
        <ele>813.4</ele>
        <time>2025-10-04T13:18:09Z</time>
      </trkpt>
      <trkpt lat="45.97375" lon="4.45101">
        <ele>812</ele>
        <time>2025-10-04T13:18:19Z</time>
      </trkpt>
      <trkpt lat="45.97373" lon="4.45102">
        <ele>812</ele>
        <time>2025-10-04T13:18:20Z</time>
      </trkpt>
      <trkpt lat="45.97373" lon="4.45103">
        <ele>812</ele>
        <time>2025-10-04T13:18:21Z</time>
      </trkpt>
      <trkpt lat="45.97373" lon="4.45104">
        <ele>812</ele>
        <time>2025-10-04T13:18:22Z</time>
      </trkpt>
      <trkpt lat="45.97372" lon="4.45105">
        <ele>812</ele>
        <time>2025-10-04T13:18:23Z</time>
      </trkpt>
      <trkpt lat="45.97371" lon="4.45108">
        <ele>812</ele>
        <time>2025-10-04T13:18:24Z</time>
      </trkpt>
      <trkpt lat="45.97369" lon="4.4511">
        <ele>812</ele>
        <time>2025-10-04T13:18:25Z</time>
      </trkpt>
      <trkpt lat="45.97368" lon="4.45111">
        <ele>811.6</ele>
        <time>2025-10-04T13:18:26Z</time>
      </trkpt>
      <trkpt lat="45.97366" lon="4.45113">
        <ele>811.6</ele>
        <time>2025-10-04T13:18:27Z</time>
      </trkpt>
      <trkpt lat="45.97364" lon="4.45116">
        <ele>811.2</ele>
        <time>2025-10-04T13:18:28Z</time>
      </trkpt>
      <trkpt lat="45.97363" lon="4.45118">
        <ele>810.8</ele>
        <time>2025-10-04T13:18:29Z</time>
      </trkpt>
      <trkpt lat="45.97361" lon="4.45121">
        <ele>810.4</ele>
        <time>2025-10-04T13:18:30Z</time>
      </trkpt>
      <trkpt lat="45.9736" lon="4.45123">
        <ele>810.2</ele>
        <time>2025-10-04T13:18:31Z</time>
      </trkpt>
      <trkpt lat="45.97358" lon="4.45126">
        <ele>809.8</ele>
        <time>2025-10-04T13:18:32Z</time>
      </trkpt>
      <trkpt lat="45.97357" lon="4.45128">
        <ele>809.4</ele>
        <time>2025-10-04T13:18:33Z</time>
      </trkpt>
      <trkpt lat="45.97356" lon="4.4513">
        <ele>808.8</ele>
        <time>2025-10-04T13:18:34Z</time>
      </trkpt>
      <trkpt lat="45.97353" lon="4.45138">
        <ele>808.2</ele>
        <time>2025-10-04T13:18:35Z</time>
      </trkpt>
      <trkpt lat="45.97352" lon="4.4514">
        <ele>807.8</ele>
        <time>2025-10-04T13:18:36Z</time>
      </trkpt>
      <trkpt lat="45.97352" lon="4.45143">
        <ele>807</ele>
        <time>2025-10-04T13:18:37Z</time>
      </trkpt>
      <trkpt lat="45.97351" lon="4.45144">
        <ele>806.6</ele>
        <time>2025-10-04T13:18:38Z</time>
      </trkpt>
      <trkpt lat="45.9735" lon="4.45146">
        <ele>806.2</ele>
        <time>2025-10-04T13:18:39Z</time>
      </trkpt>
      <trkpt lat="45.97349" lon="4.45147">
        <ele>805.8</ele>
        <time>2025-10-04T13:18:40Z</time>
      </trkpt>
      <trkpt lat="45.97348" lon="4.45149">
        <ele>805.6</ele>
        <time>2025-10-04T13:18:41Z</time>
      </trkpt>
      <trkpt lat="45.97347" lon="4.4515">
        <ele>805.6</ele>
        <time>2025-10-04T13:18:42Z</time>
      </trkpt>
      <trkpt lat="45.97346" lon="4.45151">
        <ele>805.2</ele>
        <time>2025-10-04T13:18:43Z</time>
      </trkpt>
      <trkpt lat="45.97345" lon="4.45152">
        <ele>804.8</ele>
        <time>2025-10-04T13:18:44Z</time>
      </trkpt>
      <trkpt lat="45.97344" lon="4.45154">
        <ele>804.4</ele>
        <time>2025-10-04T13:18:45Z</time>
      </trkpt>
      <trkpt lat="45.97344" lon="4.45156">
        <ele>804</ele>
        <time>2025-10-04T13:18:46Z</time>
      </trkpt>
      <trkpt lat="45.97343" lon="4.45158">
        <ele>803.4</ele>
        <time>2025-10-04T13:18:47Z</time>
      </trkpt>
      <trkpt lat="45.97342" lon="4.4516">
        <ele>803</ele>
        <time>2025-10-04T13:18:48Z</time>
      </trkpt>
      <trkpt lat="45.97341" lon="4.45161">
        <ele>802.6</ele>
        <time>2025-10-04T13:18:49Z</time>
      </trkpt>
      <trkpt lat="45.9734" lon="4.45164">
        <ele>802</ele>
        <time>2025-10-04T13:18:50Z</time>
      </trkpt>
      <trkpt lat="45.97339" lon="4.45166">
        <ele>802</ele>
        <time>2025-10-04T13:18:51Z</time>
      </trkpt>
      <trkpt lat="45.97337" lon="4.45169">
        <ele>801.4</ele>
        <time>2025-10-04T13:18:52Z</time>
      </trkpt>
      <trkpt lat="45.97335" lon="4.45172">
        <ele>801.4</ele>
        <time>2025-10-04T13:18:53Z</time>
      </trkpt>
      <trkpt lat="45.97334" lon="4.45174">
        <ele>800.2</ele>
        <time>2025-10-04T13:18:54Z</time>
      </trkpt>
      <trkpt lat="45.97333" lon="4.45178">
        <ele>799.8</ele>
        <time>2025-10-04T13:18:55Z</time>
      </trkpt>
      <trkpt lat="45.97332" lon="4.45181">
        <ele>799.2</ele>
        <time>2025-10-04T13:18:56Z</time>
      </trkpt>
      <trkpt lat="45.97331" lon="4.45183">
        <ele>798.6</ele>
        <time>2025-10-04T13:18:57Z</time>
      </trkpt>
      <trkpt lat="45.97329" lon="4.45187">
        <ele>798.2</ele>
        <time>2025-10-04T13:18:58Z</time>
      </trkpt>
      <trkpt lat="45.97328" lon="4.45189">
        <ele>798</ele>
        <time>2025-10-04T13:18:59Z</time>
      </trkpt>
      <trkpt lat="45.97327" lon="4.45192">
        <ele>798</ele>
        <time>2025-10-04T13:19:00Z</time>
      </trkpt>
      <trkpt lat="45.97326" lon="4.45194">
        <ele>797.6</ele>
        <time>2025-10-04T13:19:01Z</time>
      </trkpt>
      <trkpt lat="45.97324" lon="4.45197">
        <ele>797.2</ele>
        <time>2025-10-04T13:19:02Z</time>
      </trkpt>
      <trkpt lat="45.97322" lon="4.45199">
        <ele>796.4</ele>
        <time>2025-10-04T13:19:03Z</time>
      </trkpt>
      <trkpt lat="45.97321" lon="4.45202">
        <ele>796.4</ele>
        <time>2025-10-04T13:19:04Z</time>
      </trkpt>
      <trkpt lat="45.9732" lon="4.45205">
        <ele>796.4</ele>
        <time>2025-10-04T13:19:05Z</time>
      </trkpt>
      <trkpt lat="45.97318" lon="4.45208">
        <ele>795.8</ele>
        <time>2025-10-04T13:19:06Z</time>
      </trkpt>
      <trkpt lat="45.97317" lon="4.45209">
        <ele>795.4</ele>
        <time>2025-10-04T13:19:07Z</time>
      </trkpt>
      <trkpt lat="45.97317" lon="4.4521">
        <ele>794.8</ele>
        <time>2025-10-04T13:19:08Z</time>
      </trkpt>
      <trkpt lat="45.97316" lon="4.45211">
        <ele>794.8</ele>
        <time>2025-10-04T13:19:09Z</time>
      </trkpt>
      <trkpt lat="45.97316" lon="4.45213">
        <ele>794.4</ele>
        <time>2025-10-04T13:19:10Z</time>
      </trkpt>
      <trkpt lat="45.97316" lon="4.45216">
        <ele>794.2</ele>
        <time>2025-10-04T13:19:11Z</time>
      </trkpt>
      <trkpt lat="45.97315" lon="4.45218">
        <ele>793.6</ele>
        <time>2025-10-04T13:19:12Z</time>
      </trkpt>
      <trkpt lat="45.97314" lon="4.45222">
        <ele>793</ele>
        <time>2025-10-04T13:19:13Z</time>
      </trkpt>
      <trkpt lat="45.97312" lon="4.45225">
        <ele>793.4</ele>
        <time>2025-10-04T13:19:14Z</time>
      </trkpt>
      <trkpt lat="45.97309" lon="4.45229">
        <ele>792.4</ele>
        <time>2025-10-04T13:19:15Z</time>
      </trkpt>
      <trkpt lat="45.97306" lon="4.45234">
        <ele>792</ele>
        <time>2025-10-04T13:19:16Z</time>
      </trkpt>
      <trkpt lat="45.97303" lon="4.45238">
        <ele>791.2</ele>
        <time>2025-10-04T13:19:17Z</time>
      </trkpt>
      <trkpt lat="45.97299" lon="4.45241">
        <ele>790.6</ele>
        <time>2025-10-04T13:19:18Z</time>
      </trkpt>
      <trkpt lat="45.97296" lon="4.45241">
        <ele>790</ele>
        <time>2025-10-04T13:19:19Z</time>
      </trkpt>
      <trkpt lat="45.97293" lon="4.45242">
        <ele>789.6</ele>
        <time>2025-10-04T13:19:20Z</time>
      </trkpt>
      <trkpt lat="45.97289" lon="4.45242">
        <ele>788.8</ele>
        <time>2025-10-04T13:19:21Z</time>
      </trkpt>
      <trkpt lat="45.97285" lon="4.45242">
        <ele>788.8</ele>
        <time>2025-10-04T13:19:22Z</time>
      </trkpt>
      <trkpt lat="45.97281" lon="4.45243">
        <ele>788.8</ele>
        <time>2025-10-04T13:19:23Z</time>
      </trkpt>
      <trkpt lat="45.97279" lon="4.45244">
        <ele>788.8</ele>
        <time>2025-10-04T13:19:24Z</time>
      </trkpt>
      <trkpt lat="45.97277" lon="4.45246">
        <ele>788.8</ele>
        <time>2025-10-04T13:19:25Z</time>
      </trkpt>
      <trkpt lat="45.97277" lon="4.45248">
        <ele>788.8</ele>
        <time>2025-10-04T13:19:26Z</time>
      </trkpt>
      <trkpt lat="45.97276" lon="4.4525">
        <ele>788.8</ele>
        <time>2025-10-04T13:19:27Z</time>
      </trkpt>
      <trkpt lat="45.97275" lon="4.45251">
        <ele>788.8</ele>
        <time>2025-10-04T13:19:28Z</time>
      </trkpt>
      <trkpt lat="45.97274" lon="4.45252">
        <ele>789.2</ele>
        <time>2025-10-04T13:19:29Z</time>
      </trkpt>
      <trkpt lat="45.97273" lon="4.45252">
        <ele>789.2</ele>
        <time>2025-10-04T13:19:30Z</time>
      </trkpt>
      <trkpt lat="45.97272" lon="4.45253">
        <ele>789.2</ele>
        <time>2025-10-04T13:19:31Z</time>
      </trkpt>
      <trkpt lat="45.97272" lon="4.45255">
        <ele>789</ele>
        <time>2025-10-04T13:19:32Z</time>
      </trkpt>
      <trkpt lat="45.97272" lon="4.45257">
        <ele>789</ele>
        <time>2025-10-04T13:19:33Z</time>
      </trkpt>
      <trkpt lat="45.97272" lon="4.45258">
        <ele>788.6</ele>
        <time>2025-10-04T13:19:34Z</time>
      </trkpt>
      <trkpt lat="45.97273" lon="4.45259">
        <ele>788.6</ele>
        <time>2025-10-04T13:19:35Z</time>
      </trkpt>
      <trkpt lat="45.97274" lon="4.45259">
        <ele>787.8</ele>
        <time>2025-10-04T13:19:36Z</time>
      </trkpt>
      <trkpt lat="45.97275" lon="4.45258">
        <ele>787.4</ele>
        <time>2025-10-04T13:19:37Z</time>
      </trkpt>
      <trkpt lat="45.97277" lon="4.45256">
        <ele>787.2</ele>
        <time>2025-10-04T13:19:38Z</time>
      </trkpt>
      <trkpt lat="45.97278" lon="4.45254">
        <ele>787.2</ele>
        <time>2025-10-04T13:19:39Z</time>
      </trkpt>
      <trkpt lat="45.9728" lon="4.45251">
        <ele>787</ele>
        <time>2025-10-04T13:19:40Z</time>
      </trkpt>
      <trkpt lat="45.97282" lon="4.45246">
        <ele>787.6</ele>
        <time>2025-10-04T13:19:41Z</time>
      </trkpt>
      <trkpt lat="45.97285" lon="4.45243">
        <ele>787.6</ele>
        <time>2025-10-04T13:19:42Z</time>
      </trkpt>
      <trkpt lat="45.97288" lon="4.45241">
        <ele>787.8</ele>
        <time>2025-10-04T13:19:43Z</time>
      </trkpt>
      <trkpt lat="45.9729" lon="4.45241">
        <ele>788</ele>
        <time>2025-10-04T13:19:44Z</time>
      </trkpt>
      <trkpt lat="45.97292" lon="4.45241">
        <ele>788.2</ele>
        <time>2025-10-04T13:19:45Z</time>
      </trkpt>
      <trkpt lat="45.97294" lon="4.45242">
        <ele>788.6</ele>
        <time>2025-10-04T13:19:46Z</time>
      </trkpt>
      <trkpt lat="45.97296" lon="4.45243">
        <ele>789</ele>
        <time>2025-10-04T13:19:47Z</time>
      </trkpt>
      <trkpt lat="45.97298" lon="4.45244">
        <ele>789</ele>
        <time>2025-10-04T13:19:48Z</time>
      </trkpt>
      <trkpt lat="45.97299" lon="4.45244">
        <ele>789</ele>
        <time>2025-10-04T13:19:49Z</time>
      </trkpt>
      <trkpt lat="45.973" lon="4.45244">
        <ele>789</ele>
        <time>2025-10-04T13:19:50Z</time>
      </trkpt>
      <trkpt lat="45.97301" lon="4.45244">
        <ele>789</ele>
        <time>2025-10-04T13:19:51Z</time>
      </trkpt>
      <trkpt lat="45.97302" lon="4.45245">
        <ele>789</ele>
        <time>2025-10-04T13:19:52Z</time>
      </trkpt>
      <trkpt lat="45.97302" lon="4.45247">
        <ele>788.8</ele>
        <time>2025-10-04T13:19:53Z</time>
      </trkpt>
      <trkpt lat="45.97302" lon="4.45248">
        <ele>788.8</ele>
        <time>2025-10-04T13:19:54Z</time>
      </trkpt>
      <trkpt lat="45.97301" lon="4.45248">
        <ele>788.6</ele>
        <time>2025-10-04T13:19:55Z</time>
      </trkpt>
      <trkpt lat="45.973" lon="4.45248">
        <ele>788.6</ele>
        <time>2025-10-04T13:19:56Z</time>
      </trkpt>
      <trkpt lat="45.97298" lon="4.45247">
        <ele>788.6</ele>
        <time>2025-10-04T13:19:57Z</time>
      </trkpt>
      <trkpt lat="45.97297" lon="4.45246">
        <ele>788.6</ele>
        <time>2025-10-04T13:19:58Z</time>
      </trkpt>
      <trkpt lat="45.97296" lon="4.45244">
        <ele>788.6</ele>
        <time>2025-10-04T13:19:59Z</time>
      </trkpt>
      <trkpt lat="45.97296" lon="4.45243">
        <ele>788.6</ele>
        <time>2025-10-04T13:20:00Z</time>
      </trkpt>
      <trkpt lat="45.97294" lon="4.45241">
        <ele>788.6</ele>
        <time>2025-10-04T13:20:01Z</time>
      </trkpt>
      <trkpt lat="45.97292" lon="4.45241">
        <ele>788.6</ele>
        <time>2025-10-04T13:20:02Z</time>
      </trkpt>
      <trkpt lat="45.97291" lon="4.4524">
        <ele>788.2</ele>
        <time>2025-10-04T13:20:03Z</time>
      </trkpt>
      <trkpt lat="45.97288" lon="4.4524">
        <ele>788.2</ele>
        <time>2025-10-04T13:20:04Z</time>
      </trkpt>
      <trkpt lat="45.97286" lon="4.45241">
        <ele>788.6</ele>
        <time>2025-10-04T13:20:05Z</time>
      </trkpt>
      <trkpt lat="45.97284" lon="4.45242">
        <ele>788.6</ele>
        <time>2025-10-04T13:20:06Z</time>
      </trkpt>
      <trkpt lat="45.97283" lon="4.45242">
        <ele>788.6</ele>
        <time>2025-10-04T13:20:07Z</time>
      </trkpt>
      <trkpt lat="45.97282" lon="4.45242">
        <ele>788.6</ele>
        <time>2025-10-04T13:20:08Z</time>
      </trkpt>
      <trkpt lat="45.97281" lon="4.45242">
        <ele>788.6</ele>
        <time>2025-10-04T13:20:09Z</time>
      </trkpt>
      <trkpt lat="45.9728" lon="4.45242">
        <ele>788.6</ele>
        <time>2025-10-04T13:20:10Z</time>
      </trkpt>
      <trkpt lat="45.97278" lon="4.4524">
        <ele>788.6</ele>
        <time>2025-10-04T13:20:11Z</time>
      </trkpt>
      <trkpt lat="45.97277" lon="4.45238">
        <ele>788.2</ele>
        <time>2025-10-04T13:20:12Z</time>
      </trkpt>
      <trkpt lat="45.97276" lon="4.45236">
        <ele>788.2</ele>
        <time>2025-10-04T13:20:13Z</time>
      </trkpt>
      <trkpt lat="45.97274" lon="4.45234">
        <ele>788.2</ele>
        <time>2025-10-04T13:20:14Z</time>
      </trkpt>
      <trkpt lat="45.97272" lon="4.45231">
        <ele>788.2</ele>
        <time>2025-10-04T13:20:15Z</time>
      </trkpt>
      <trkpt lat="45.97269" lon="4.45228">
        <ele>787.8</ele>
        <time>2025-10-04T13:20:16Z</time>
      </trkpt>
      <trkpt lat="45.97267" lon="4.45224">
        <ele>787.6</ele>
        <time>2025-10-04T13:20:17Z</time>
      </trkpt>
      <trkpt lat="45.97265" lon="4.4522">
        <ele>787.2</ele>
        <time>2025-10-04T13:20:18Z</time>
      </trkpt>
      <trkpt lat="45.97263" lon="4.45216">
        <ele>787.2</ele>
        <time>2025-10-04T13:20:19Z</time>
      </trkpt>
      <trkpt lat="45.9726" lon="4.45212">
        <ele>786.8</ele>
        <time>2025-10-04T13:20:20Z</time>
      </trkpt>
      <trkpt lat="45.97258" lon="4.45207">
        <ele>786.8</ele>
        <time>2025-10-04T13:20:21Z</time>
      </trkpt>
      <trkpt lat="45.97256" lon="4.45204">
        <ele>786</ele>
        <time>2025-10-04T13:20:22Z</time>
      </trkpt>
      <trkpt lat="45.97254" lon="4.45201">
        <ele>785.6</ele>
        <time>2025-10-04T13:20:23Z</time>
      </trkpt>
      <trkpt lat="45.97253" lon="4.45198">
        <ele>785.2</ele>
        <time>2025-10-04T13:20:24Z</time>
      </trkpt>
      <trkpt lat="45.97251" lon="4.45195">
        <ele>784.8</ele>
        <time>2025-10-04T13:20:25Z</time>
      </trkpt>
      <trkpt lat="45.9725" lon="4.45193">
        <ele>784.4</ele>
        <time>2025-10-04T13:20:26Z</time>
      </trkpt>
      <trkpt lat="45.97249" lon="4.4519">
        <ele>784</ele>
        <time>2025-10-04T13:20:27Z</time>
      </trkpt>
      <trkpt lat="45.97248" lon="4.45187">
        <ele>783.8</ele>
        <time>2025-10-04T13:20:28Z</time>
      </trkpt>
      <trkpt lat="45.97247" lon="4.45184">
        <ele>783.4</ele>
        <time>2025-10-04T13:20:29Z</time>
      </trkpt>
      <trkpt lat="45.97245" lon="4.45181">
        <ele>783</ele>
        <time>2025-10-04T13:20:30Z</time>
      </trkpt>
      <trkpt lat="45.97244" lon="4.45176">
        <ele>782.8</ele>
        <time>2025-10-04T13:20:31Z</time>
      </trkpt>
      <trkpt lat="45.97241" lon="4.4517">
        <ele>782.4</ele>
        <time>2025-10-04T13:20:32Z</time>
      </trkpt>
      <trkpt lat="45.97239" lon="4.45165">
        <ele>782</ele>
        <time>2025-10-04T13:20:33Z</time>
      </trkpt>
      <trkpt lat="45.97236" lon="4.45158">
        <ele>781.6</ele>
        <time>2025-10-04T13:20:34Z</time>
      </trkpt>
      <trkpt lat="45.97233" lon="4.45151">
        <ele>781</ele>
        <time>2025-10-04T13:20:35Z</time>
      </trkpt>
      <trkpt lat="45.9723" lon="4.45143">
        <ele>780.4</ele>
        <time>2025-10-04T13:20:36Z</time>
      </trkpt>
      <trkpt lat="45.97228" lon="4.45135">
        <ele>779.4</ele>
        <time>2025-10-04T13:20:37Z</time>
      </trkpt>
      <trkpt lat="45.97225" lon="4.45128">
        <ele>778.6</ele>
        <time>2025-10-04T13:20:38Z</time>
      </trkpt>
      <trkpt lat="45.97222" lon="4.45119">
        <ele>778</ele>
        <time>2025-10-04T13:20:39Z</time>
      </trkpt>
      <trkpt lat="45.97219" lon="4.45111">
        <ele>777.4</ele>
        <time>2025-10-04T13:20:40Z</time>
      </trkpt>
      <trkpt lat="45.97218" lon="4.45104">
        <ele>776.6</ele>
        <time>2025-10-04T13:20:41Z</time>
      </trkpt>
      <trkpt lat="45.97216" lon="4.45093">
        <ele>775.6</ele>
        <time>2025-10-04T13:20:42Z</time>
      </trkpt>
      <trkpt lat="45.97214" lon="4.45084">
        <ele>775</ele>
        <time>2025-10-04T13:20:43Z</time>
      </trkpt>
      <trkpt lat="45.97212" lon="4.45076">
        <ele>774</ele>
        <time>2025-10-04T13:20:44Z</time>
      </trkpt>
      <trkpt lat="45.9721" lon="4.45069">
        <ele>773.6</ele>
        <time>2025-10-04T13:20:45Z</time>
      </trkpt>
      <trkpt lat="45.9721" lon="4.45062">
        <ele>773</ele>
        <time>2025-10-04T13:20:46Z</time>
      </trkpt>
      <trkpt lat="45.9721" lon="4.45056">
        <ele>772.4</ele>
        <time>2025-10-04T13:20:47Z</time>
      </trkpt>
      <trkpt lat="45.97209" lon="4.4505">
        <ele>771.8</ele>
        <time>2025-10-04T13:20:48Z</time>
      </trkpt>
      <trkpt lat="45.97207" lon="4.45046">
        <ele>771.6</ele>
        <time>2025-10-04T13:20:49Z</time>
      </trkpt>
      <trkpt lat="45.97207" lon="4.4504">
        <ele>771.4</ele>
        <time>2025-10-04T13:20:50Z</time>
      </trkpt>
      <trkpt lat="45.97205" lon="4.45035">
        <ele>771</ele>
        <time>2025-10-04T13:20:51Z</time>
      </trkpt>
      <trkpt lat="45.97204" lon="4.45031">
        <ele>770.6</ele>
        <time>2025-10-04T13:20:52Z</time>
      </trkpt>
      <trkpt lat="45.97202" lon="4.45026">
        <ele>770.2</ele>
        <time>2025-10-04T13:20:53Z</time>
      </trkpt>
      <trkpt lat="45.97201" lon="4.45022">
        <ele>769.8</ele>
        <time>2025-10-04T13:20:54Z</time>
      </trkpt>
      <trkpt lat="45.972" lon="4.45017">
        <ele>769.4</ele>
        <time>2025-10-04T13:20:55Z</time>
      </trkpt>
      <trkpt lat="45.97198" lon="4.45011">
        <ele>769</ele>
        <time>2025-10-04T13:20:56Z</time>
      </trkpt>
      <trkpt lat="45.97196" lon="4.45003">
        <ele>768.4</ele>
        <time>2025-10-04T13:20:57Z</time>
      </trkpt>
      <trkpt lat="45.97193" lon="4.44996">
        <ele>767.2</ele>
        <time>2025-10-04T13:20:58Z</time>
      </trkpt>
      <trkpt lat="45.97189" lon="4.44989">
        <ele>766.2</ele>
        <time>2025-10-04T13:20:59Z</time>
      </trkpt>
      <trkpt lat="45.97186" lon="4.44982">
        <ele>765</ele>
        <time>2025-10-04T13:21:00Z</time>
      </trkpt>
      <trkpt lat="45.97183" lon="4.44975">
        <ele>763.8</ele>
        <time>2025-10-04T13:21:01Z</time>
      </trkpt>
      <trkpt lat="45.9718" lon="4.44968">
        <ele>762.8</ele>
        <time>2025-10-04T13:21:02Z</time>
      </trkpt>
      <trkpt lat="45.97177" lon="4.44961">
        <ele>762.2</ele>
        <time>2025-10-04T13:21:03Z</time>
      </trkpt>
      <trkpt lat="45.97173" lon="4.44953">
        <ele>761</ele>
        <time>2025-10-04T13:21:04Z</time>
      </trkpt>
      <trkpt lat="45.97169" lon="4.44943">
        <ele>759.6</ele>
        <time>2025-10-04T13:21:05Z</time>
      </trkpt>
      <trkpt lat="45.97165" lon="4.44934">
        <ele>758.6</ele>
        <time>2025-10-04T13:21:06Z</time>
      </trkpt>
      <trkpt lat="45.97161" lon="4.44924">
        <ele>757.6</ele>
        <time>2025-10-04T13:21:07Z</time>
      </trkpt>
      <trkpt lat="45.97158" lon="4.44911">
        <ele>756.4</ele>
        <time>2025-10-04T13:21:08Z</time>
      </trkpt>
      <trkpt lat="45.97154" lon="4.449">
        <ele>755</ele>
        <time>2025-10-04T13:21:09Z</time>
      </trkpt>
      <trkpt lat="45.97149" lon="4.4489">
        <ele>753.8</ele>
        <time>2025-10-04T13:21:10Z</time>
      </trkpt>
      <trkpt lat="45.97145" lon="4.44879">
        <ele>752.8</ele>
        <time>2025-10-04T13:21:11Z</time>
      </trkpt>
      <trkpt lat="45.9714" lon="4.44869">
        <ele>752.2</ele>
        <time>2025-10-04T13:21:12Z</time>
      </trkpt>
      <trkpt lat="45.97136" lon="4.44859">
        <ele>751.4</ele>
        <time>2025-10-04T13:21:13Z</time>
      </trkpt>
      <trkpt lat="45.97132" lon="4.44849">
        <ele>751</ele>
        <time>2025-10-04T13:21:14Z</time>
      </trkpt>
      <trkpt lat="45.9713" lon="4.44839">
        <ele>750.6</ele>
        <time>2025-10-04T13:21:15Z</time>
      </trkpt>
      <trkpt lat="45.97126" lon="4.44831">
        <ele>750</ele>
        <time>2025-10-04T13:21:16Z</time>
      </trkpt>
      <trkpt lat="45.97123" lon="4.44822">
        <ele>749.6</ele>
        <time>2025-10-04T13:21:17Z</time>
      </trkpt>
      <trkpt lat="45.97119" lon="4.44813">
        <ele>748.8</ele>
        <time>2025-10-04T13:21:18Z</time>
      </trkpt>
      <trkpt lat="45.97115" lon="4.44803">
        <ele>748.2</ele>
        <time>2025-10-04T13:21:19Z</time>
      </trkpt>
      <trkpt lat="45.97112" lon="4.44794">
        <ele>747.8</ele>
        <time>2025-10-04T13:21:20Z</time>
      </trkpt>
      <trkpt lat="45.97109" lon="4.44787">
        <ele>747.4</ele>
        <time>2025-10-04T13:21:21Z</time>
      </trkpt>
      <trkpt lat="45.97108" lon="4.44778">
        <ele>746.8</ele>
        <time>2025-10-04T13:21:22Z</time>
      </trkpt>
      <trkpt lat="45.97106" lon="4.44772">
        <ele>746.4</ele>
        <time>2025-10-04T13:21:23Z</time>
      </trkpt>
      <trkpt lat="45.97106" lon="4.44761">
        <ele>745.8</ele>
        <time>2025-10-04T13:21:24Z</time>
      </trkpt>
      <trkpt lat="45.97106" lon="4.44753">
        <ele>745.6</ele>
        <time>2025-10-04T13:21:25Z</time>
      </trkpt>
      <trkpt lat="45.97105" lon="4.44743">
        <ele>745</ele>
        <time>2025-10-04T13:21:26Z</time>
      </trkpt>
      <trkpt lat="45.97104" lon="4.44734">
        <ele>744.8</ele>
        <time>2025-10-04T13:21:27Z</time>
      </trkpt>
      <trkpt lat="45.97104" lon="4.44726">
        <ele>744.2</ele>
        <time>2025-10-04T13:21:28Z</time>
      </trkpt>
      <trkpt lat="45.97104" lon="4.4472">
        <ele>743.2</ele>
        <time>2025-10-04T13:21:29Z</time>
      </trkpt>
      <trkpt lat="45.97102" lon="4.44713">
        <ele>742.6</ele>
        <time>2025-10-04T13:21:30Z</time>
      </trkpt>
      <trkpt lat="45.97098" lon="4.44709">
        <ele>742</ele>
        <time>2025-10-04T13:21:31Z</time>
      </trkpt>
      <trkpt lat="45.97097" lon="4.44705">
        <ele>741.6</ele>
        <time>2025-10-04T13:21:32Z</time>
      </trkpt>
      <trkpt lat="45.97094" lon="4.44703">
        <ele>741</ele>
        <time>2025-10-04T13:21:33Z</time>
      </trkpt>
      <trkpt lat="45.97091" lon="4.447">
        <ele>740.6</ele>
        <time>2025-10-04T13:21:34Z</time>
      </trkpt>
      <trkpt lat="45.9709" lon="4.44699">
        <ele>740.2</ele>
        <time>2025-10-04T13:21:35Z</time>
      </trkpt>
      <trkpt lat="45.97088" lon="4.447">
        <ele>739.6</ele>
        <time>2025-10-04T13:21:36Z</time>
      </trkpt>
      <trkpt lat="45.97086" lon="4.44699">
        <ele>738.6</ele>
        <time>2025-10-04T13:21:37Z</time>
      </trkpt>
      <trkpt lat="45.97083" lon="4.44697">
        <ele>739.6</ele>
        <time>2025-10-04T13:21:38Z</time>
      </trkpt>
      <trkpt lat="45.97082" lon="4.44697">
        <ele>739</ele>
        <time>2025-10-04T13:21:39Z</time>
      </trkpt>
      <trkpt lat="45.9708" lon="4.44697">
        <ele>738.6</ele>
        <time>2025-10-04T13:21:40Z</time>
      </trkpt>
      <trkpt lat="45.97078" lon="4.44698">
        <ele>738</ele>
        <time>2025-10-04T13:21:41Z</time>
      </trkpt>
      <trkpt lat="45.97076" lon="4.44699">
        <ele>737.4</ele>
        <time>2025-10-04T13:21:42Z</time>
      </trkpt>
      <trkpt lat="45.97073" lon="4.44699">
        <ele>737.2</ele>
        <time>2025-10-04T13:21:43Z</time>
      </trkpt>
      <trkpt lat="45.9707" lon="4.44698">
        <ele>736.8</ele>
        <time>2025-10-04T13:21:44Z</time>
      </trkpt>
      <trkpt lat="45.9707" lon="4.44698">
        <ele>736.8</ele>
        <time>2025-10-04T13:21:45Z</time>
      </trkpt>
      <trkpt lat="45.97067" lon="4.44697">
        <ele>736.8</ele>
        <time>2025-10-04T13:21:46Z</time>
      </trkpt>
      <trkpt lat="45.97066" lon="4.44695">
        <ele>736.8</ele>
        <time>2025-10-04T13:21:47Z</time>
      </trkpt>
      <trkpt lat="45.97066" lon="4.44693">
        <ele>736.8</ele>
        <time>2025-10-04T13:21:48Z</time>
      </trkpt>
      <trkpt lat="45.97065" lon="4.44691">
        <ele>736.8</ele>
        <time>2025-10-04T13:21:49Z</time>
      </trkpt>
      <trkpt lat="45.97065" lon="4.44689">
        <ele>737.2</ele>
        <time>2025-10-04T13:21:50Z</time>
      </trkpt>
      <trkpt lat="45.97065" lon="4.44688">
        <ele>737.2</ele>
        <time>2025-10-04T13:21:51Z</time>
      </trkpt>
      <trkpt lat="45.97064" lon="4.44686">
        <ele>737.4</ele>
        <time>2025-10-04T13:21:52Z</time>
      </trkpt>
      <trkpt lat="45.97062" lon="4.44685">
        <ele>737.8</ele>
        <time>2025-10-04T13:21:53Z</time>
      </trkpt>
      <trkpt lat="45.97061" lon="4.44684">
        <ele>738</ele>
        <time>2025-10-04T13:21:54Z</time>
      </trkpt>
      <trkpt lat="45.9706" lon="4.44682">
        <ele>738.2</ele>
        <time>2025-10-04T13:21:55Z</time>
      </trkpt>
      <trkpt lat="45.97059" lon="4.44679">
        <ele>738.6</ele>
        <time>2025-10-04T13:21:56Z</time>
      </trkpt>
      <trkpt lat="45.97059" lon="4.44677">
        <ele>738.8</ele>
        <time>2025-10-04T13:21:57Z</time>
      </trkpt>
      <trkpt lat="45.97058" lon="4.44675">
        <ele>739</ele>
        <time>2025-10-04T13:21:58Z</time>
      </trkpt>
      <trkpt lat="45.97057" lon="4.44673">
        <ele>739.2</ele>
        <time>2025-10-04T13:21:59Z</time>
      </trkpt>
      <trkpt lat="45.97055" lon="4.44672">
        <ele>739.2</ele>
        <time>2025-10-04T13:22:00Z</time>
      </trkpt>
      <trkpt lat="45.97054" lon="4.4467">
        <ele>739.4</ele>
        <time>2025-10-04T13:22:01Z</time>
      </trkpt>
      <trkpt lat="45.97053" lon="4.44668">
        <ele>739.8</ele>
        <time>2025-10-04T13:22:02Z</time>
      </trkpt>
      <trkpt lat="45.97052" lon="4.44665">
        <ele>740</ele>
        <time>2025-10-04T13:22:03Z</time>
      </trkpt>
      <trkpt lat="45.97051" lon="4.44663">
        <ele>740.4</ele>
        <time>2025-10-04T13:22:04Z</time>
      </trkpt>
      <trkpt lat="45.9705" lon="4.44661">
        <ele>740.6</ele>
        <time>2025-10-04T13:22:05Z</time>
      </trkpt>
      <trkpt lat="45.97049" lon="4.44658">
        <ele>741</ele>
        <time>2025-10-04T13:22:06Z</time>
      </trkpt>
      <trkpt lat="45.97048" lon="4.44656">
        <ele>741.2</ele>
        <time>2025-10-04T13:22:07Z</time>
      </trkpt>
      <trkpt lat="45.97047" lon="4.44654">
        <ele>741.6</ele>
        <time>2025-10-04T13:22:08Z</time>
      </trkpt>
      <trkpt lat="45.97046" lon="4.44652">
        <ele>741.8</ele>
        <time>2025-10-04T13:22:09Z</time>
      </trkpt>
      <trkpt lat="45.97045" lon="4.4465">
        <ele>742.2</ele>
        <time>2025-10-04T13:22:10Z</time>
      </trkpt>
      <trkpt lat="45.97043" lon="4.44649">
        <ele>742.4</ele>
        <time>2025-10-04T13:22:11Z</time>
      </trkpt>
      <trkpt lat="45.97042" lon="4.44647">
        <ele>742.6</ele>
        <time>2025-10-04T13:22:12Z</time>
      </trkpt>
      <trkpt lat="45.97041" lon="4.44646">
        <ele>743</ele>
        <time>2025-10-04T13:22:13Z</time>
      </trkpt>
      <trkpt lat="45.9704" lon="4.44644">
        <ele>743</ele>
        <time>2025-10-04T13:22:14Z</time>
      </trkpt>
      <trkpt lat="45.97038" lon="4.44642">
        <ele>743.2</ele>
        <time>2025-10-04T13:22:15Z</time>
      </trkpt>
      <trkpt lat="45.97037" lon="4.44641">
        <ele>743.6</ele>
        <time>2025-10-04T13:22:16Z</time>
      </trkpt>
      <trkpt lat="45.97036" lon="4.44639">
        <ele>743.6</ele>
        <time>2025-10-04T13:22:17Z</time>
      </trkpt>
      <trkpt lat="45.97034" lon="4.44637">
        <ele>743.6</ele>
        <time>2025-10-04T13:22:18Z</time>
      </trkpt>
      <trkpt lat="45.97032" lon="4.44635">
        <ele>743.6</ele>
        <time>2025-10-04T13:22:19Z</time>
      </trkpt>
      <trkpt lat="45.97031" lon="4.44632">
        <ele>743.6</ele>
        <time>2025-10-04T13:22:20Z</time>
      </trkpt>
      <trkpt lat="45.97029" lon="4.44629">
        <ele>743.6</ele>
        <time>2025-10-04T13:22:21Z</time>
      </trkpt>
      <trkpt lat="45.97027" lon="4.44627">
        <ele>743.4</ele>
        <time>2025-10-04T13:22:22Z</time>
      </trkpt>
      <trkpt lat="45.97025" lon="4.44624">
        <ele>743.4</ele>
        <time>2025-10-04T13:22:23Z</time>
      </trkpt>
      <trkpt lat="45.97023" lon="4.44622">
        <ele>743.4</ele>
        <time>2025-10-04T13:22:24Z</time>
      </trkpt>
      <trkpt lat="45.97022" lon="4.4462">
        <ele>743.4</ele>
        <time>2025-10-04T13:22:25Z</time>
      </trkpt>
      <trkpt lat="45.97018" lon="4.44615">
        <ele>743.4</ele>
        <time>2025-10-04T13:22:26Z</time>
      </trkpt>
      <trkpt lat="45.97017" lon="4.44613">
        <ele>743.4</ele>
        <time>2025-10-04T13:22:27Z</time>
      </trkpt>
      <trkpt lat="45.97016" lon="4.4461">
        <ele>743.4</ele>
        <time>2025-10-04T13:22:28Z</time>
      </trkpt>
      <trkpt lat="45.97014" lon="4.44608">
        <ele>743.8</ele>
        <time>2025-10-04T13:22:29Z</time>
      </trkpt>
      <trkpt lat="45.97013" lon="4.44605">
        <ele>743.8</ele>
        <time>2025-10-04T13:22:30Z</time>
      </trkpt>
      <trkpt lat="45.97011" lon="4.44603">
        <ele>743.8</ele>
        <time>2025-10-04T13:22:31Z</time>
      </trkpt>
      <trkpt lat="45.97009" lon="4.44601">
        <ele>743.8</ele>
        <time>2025-10-04T13:22:32Z</time>
      </trkpt>
      <trkpt lat="45.97008" lon="4.44599">
        <ele>744.2</ele>
        <time>2025-10-04T13:22:33Z</time>
      </trkpt>
      <trkpt lat="45.97006" lon="4.44597">
        <ele>744.2</ele>
        <time>2025-10-04T13:22:34Z</time>
      </trkpt>
      <trkpt lat="45.97004" lon="4.44595">
        <ele>744.2</ele>
        <time>2025-10-04T13:22:35Z</time>
      </trkpt>
      <trkpt lat="45.97002" lon="4.44593">
        <ele>744.6</ele>
        <time>2025-10-04T13:22:36Z</time>
      </trkpt>
      <trkpt lat="45.96999" lon="4.44592">
        <ele>744.6</ele>
        <time>2025-10-04T13:22:37Z</time>
      </trkpt>
      <trkpt lat="45.96997" lon="4.4459">
        <ele>744.6</ele>
        <time>2025-10-04T13:22:38Z</time>
      </trkpt>
      <trkpt lat="45.96995" lon="4.44588">
        <ele>744.8</ele>
        <time>2025-10-04T13:22:39Z</time>
      </trkpt>
      <trkpt lat="45.96993" lon="4.44586">
        <ele>744.8</ele>
        <time>2025-10-04T13:22:40Z</time>
      </trkpt>
      <trkpt lat="45.96991" lon="4.44584">
        <ele>744.8</ele>
        <time>2025-10-04T13:22:41Z</time>
      </trkpt>
      <trkpt lat="45.9699" lon="4.44582">
        <ele>744.4</ele>
        <time>2025-10-04T13:22:42Z</time>
      </trkpt>
      <trkpt lat="45.96989" lon="4.4458">
        <ele>744.6</ele>
        <time>2025-10-04T13:22:43Z</time>
      </trkpt>
      <trkpt lat="45.96987" lon="4.44579">
        <ele>744.6</ele>
        <time>2025-10-04T13:22:44Z</time>
      </trkpt>
      <trkpt lat="45.96986" lon="4.44578">
        <ele>744.6</ele>
        <time>2025-10-04T13:22:45Z</time>
      </trkpt>
      <trkpt lat="45.96985" lon="4.44577">
        <ele>744.6</ele>
        <time>2025-10-04T13:22:46Z</time>
      </trkpt>
      <trkpt lat="45.96985" lon="4.44577">
        <ele>745</ele>
        <time>2025-10-04T13:22:47Z</time>
      </trkpt>
      <trkpt lat="45.96985" lon="4.44576">
        <ele>745</ele>
        <time>2025-10-04T13:22:48Z</time>
      </trkpt>
      <trkpt lat="45.96986" lon="4.44577">
        <ele>745</ele>
        <time>2025-10-04T13:22:49Z</time>
      </trkpt>
      <trkpt lat="45.96986" lon="4.44577">
        <ele>745</ele>
        <time>2025-10-04T13:22:50Z</time>
      </trkpt>
      <trkpt lat="45.96988" lon="4.44576">
        <ele>745.2</ele>
        <time>2025-10-04T13:22:54Z</time>
      </trkpt>
      <trkpt lat="45.96988" lon="4.44577">
        <ele>745.4</ele>
        <time>2025-10-04T13:22:55Z</time>
      </trkpt>
      <trkpt lat="45.96988" lon="4.44577">
        <ele>745.4</ele>
        <time>2025-10-04T13:22:56Z</time>
      </trkpt>
      <trkpt lat="45.96987" lon="4.44573">
        <ele>744.8</ele>
        <time>2025-10-04T13:24:34Z</time>
      </trkpt>
      <trkpt lat="45.96987" lon="4.44574">
        <ele>744.8</ele>
        <time>2025-10-04T13:24:35Z</time>
      </trkpt>
      <trkpt lat="45.96987" lon="4.44574">
        <ele>744.8</ele>
        <time>2025-10-04T13:24:36Z</time>
      </trkpt>
      <trkpt lat="45.96986" lon="4.44576">
        <ele>744.8</ele>
        <time>2025-10-04T13:24:39Z</time>
      </trkpt>
      <trkpt lat="45.96984" lon="4.44574">
        <ele>745</ele>
        <time>2025-10-04T13:24:40Z</time>
      </trkpt>
      <trkpt lat="45.96983" lon="4.44573">
        <ele>745</ele>
        <time>2025-10-04T13:24:41Z</time>
      </trkpt>
      <trkpt lat="45.96981" lon="4.44571">
        <ele>745</ele>
        <time>2025-10-04T13:24:42Z</time>
      </trkpt>
      <trkpt lat="45.96979" lon="4.4457">
        <ele>745.6</ele>
        <time>2025-10-04T13:24:43Z</time>
      </trkpt>
      <trkpt lat="45.96978" lon="4.44568">
        <ele>745.6</ele>
        <time>2025-10-04T13:24:44Z</time>
      </trkpt>
      <trkpt lat="45.96976" lon="4.44567">
        <ele>745.8</ele>
        <time>2025-10-04T13:24:45Z</time>
      </trkpt>
      <trkpt lat="45.96974" lon="4.44566">
        <ele>745.8</ele>
        <time>2025-10-04T13:24:46Z</time>
      </trkpt>
      <trkpt lat="45.96972" lon="4.44565">
        <ele>746</ele>
        <time>2025-10-04T13:24:47Z</time>
      </trkpt>
      <trkpt lat="45.96971" lon="4.44563">
        <ele>746.2</ele>
        <time>2025-10-04T13:24:48Z</time>
      </trkpt>
      <trkpt lat="45.96969" lon="4.44561">
        <ele>746.2</ele>
        <time>2025-10-04T13:24:49Z</time>
      </trkpt>
      <trkpt lat="45.96968" lon="4.4456">
        <ele>746.2</ele>
        <time>2025-10-04T13:24:50Z</time>
      </trkpt>
      <trkpt lat="45.96966" lon="4.44559">
        <ele>746.2</ele>
        <time>2025-10-04T13:24:51Z</time>
      </trkpt>
      <trkpt lat="45.96964" lon="4.44559">
        <ele>746.6</ele>
        <time>2025-10-04T13:24:52Z</time>
      </trkpt>
      <trkpt lat="45.9696" lon="4.44558">
        <ele>746.6</ele>
        <time>2025-10-04T13:24:53Z</time>
      </trkpt>
      <trkpt lat="45.96958" lon="4.44559">
        <ele>746.6</ele>
        <time>2025-10-04T13:24:54Z</time>
      </trkpt>
      <trkpt lat="45.96956" lon="4.44559">
        <ele>746.6</ele>
        <time>2025-10-04T13:24:55Z</time>
      </trkpt>
      <trkpt lat="45.96954" lon="4.44558">
        <ele>746.8</ele>
        <time>2025-10-04T13:24:56Z</time>
      </trkpt>
      <trkpt lat="45.96953" lon="4.44557">
        <ele>746.8</ele>
        <time>2025-10-04T13:24:57Z</time>
      </trkpt>
      <trkpt lat="45.9695" lon="4.44556">
        <ele>747.2</ele>
        <time>2025-10-04T13:24:58Z</time>
      </trkpt>
      <trkpt lat="45.96948" lon="4.44555">
        <ele>747.2</ele>
        <time>2025-10-04T13:24:59Z</time>
      </trkpt>
      <trkpt lat="45.96946" lon="4.44555">
        <ele>747.2</ele>
        <time>2025-10-04T13:25:00Z</time>
      </trkpt>
      <trkpt lat="45.96944" lon="4.44556">
        <ele>747.2</ele>
        <time>2025-10-04T13:25:01Z</time>
      </trkpt>
      <trkpt lat="45.96941" lon="4.44556">
        <ele>747.2</ele>
        <time>2025-10-04T13:25:02Z</time>
      </trkpt>
      <trkpt lat="45.96939" lon="4.44555">
        <ele>747.2</ele>
        <time>2025-10-04T13:25:03Z</time>
      </trkpt>
      <trkpt lat="45.96937" lon="4.44555">
        <ele>747.2</ele>
        <time>2025-10-04T13:25:04Z</time>
      </trkpt>
      <trkpt lat="45.96935" lon="4.44555">
        <ele>747.2</ele>
        <time>2025-10-04T13:25:05Z</time>
      </trkpt>
      <trkpt lat="45.96933" lon="4.44556">
        <ele>747.2</ele>
        <time>2025-10-04T13:25:06Z</time>
      </trkpt>
      <trkpt lat="45.96929" lon="4.44558">
        <ele>747.2</ele>
        <time>2025-10-04T13:25:07Z</time>
      </trkpt>
      <trkpt lat="45.96927" lon="4.44558">
        <ele>747.2</ele>
        <time>2025-10-04T13:25:08Z</time>
      </trkpt>
      <trkpt lat="45.96925" lon="4.44558">
        <ele>747.2</ele>
        <time>2025-10-04T13:25:09Z</time>
      </trkpt>
      <trkpt lat="45.96923" lon="4.44557">
        <ele>747.2</ele>
        <time>2025-10-04T13:25:10Z</time>
      </trkpt>
      <trkpt lat="45.9692" lon="4.44557">
        <ele>747.2</ele>
        <time>2025-10-04T13:25:11Z</time>
      </trkpt>
      <trkpt lat="45.96918" lon="4.44556">
        <ele>746.8</ele>
        <time>2025-10-04T13:25:12Z</time>
      </trkpt>
      <trkpt lat="45.96915" lon="4.44556">
        <ele>746.8</ele>
        <time>2025-10-04T13:25:13Z</time>
      </trkpt>
      <trkpt lat="45.96913" lon="4.44555">
        <ele>746.8</ele>
        <time>2025-10-04T13:25:14Z</time>
      </trkpt>
      <trkpt lat="45.9691" lon="4.44555">
        <ele>746.8</ele>
        <time>2025-10-04T13:25:15Z</time>
      </trkpt>
      <trkpt lat="45.96908" lon="4.44555">
        <ele>746.8</ele>
        <time>2025-10-04T13:25:16Z</time>
      </trkpt>
      <trkpt lat="45.96906" lon="4.44555">
        <ele>747.2</ele>
        <time>2025-10-04T13:25:17Z</time>
      </trkpt>
      <trkpt lat="45.96903" lon="4.44555">
        <ele>747.2</ele>
        <time>2025-10-04T13:25:18Z</time>
      </trkpt>
      <trkpt lat="45.96901" lon="4.44554">
        <ele>747.2</ele>
        <time>2025-10-04T13:25:19Z</time>
      </trkpt>
      <trkpt lat="45.96898" lon="4.44554">
        <ele>747.2</ele>
        <time>2025-10-04T13:25:20Z</time>
      </trkpt>
      <trkpt lat="45.96896" lon="4.44554">
        <ele>747.4</ele>
        <time>2025-10-04T13:25:21Z</time>
      </trkpt>
      <trkpt lat="45.96894" lon="4.44554">
        <ele>747.4</ele>
        <time>2025-10-04T13:25:22Z</time>
      </trkpt>
      <trkpt lat="45.96891" lon="4.44553">
        <ele>747.6</ele>
        <time>2025-10-04T13:25:23Z</time>
      </trkpt>
      <trkpt lat="45.96889" lon="4.44553">
        <ele>747.6</ele>
        <time>2025-10-04T13:25:24Z</time>
      </trkpt>
      <trkpt lat="45.96887" lon="4.44552">
        <ele>747.6</ele>
        <time>2025-10-04T13:25:25Z</time>
      </trkpt>
      <trkpt lat="45.96884" lon="4.44552">
        <ele>747</ele>
        <time>2025-10-04T13:25:26Z</time>
      </trkpt>
      <trkpt lat="45.96882" lon="4.44551">
        <ele>747.4</ele>
        <time>2025-10-04T13:25:27Z</time>
      </trkpt>
      <trkpt lat="45.96879" lon="4.44551">
        <ele>747.4</ele>
        <time>2025-10-04T13:25:28Z</time>
      </trkpt>
      <trkpt lat="45.96876" lon="4.44549">
        <ele>747.6</ele>
        <time>2025-10-04T13:25:29Z</time>
      </trkpt>
      <trkpt lat="45.96874" lon="4.44549">
        <ele>747.6</ele>
        <time>2025-10-04T13:25:30Z</time>
      </trkpt>
      <trkpt lat="45.96872" lon="4.44548">
        <ele>747.6</ele>
        <time>2025-10-04T13:25:31Z</time>
      </trkpt>
      <trkpt lat="45.96869" lon="4.44547">
        <ele>748.2</ele>
        <time>2025-10-04T13:25:32Z</time>
      </trkpt>
      <trkpt lat="45.96867" lon="4.44546">
        <ele>748.2</ele>
        <time>2025-10-04T13:25:33Z</time>
      </trkpt>
      <trkpt lat="45.96865" lon="4.44545">
        <ele>748.4</ele>
        <time>2025-10-04T13:25:34Z</time>
      </trkpt>
      <trkpt lat="45.96863" lon="4.44544">
        <ele>748.8</ele>
        <time>2025-10-04T13:25:35Z</time>
      </trkpt>
      <trkpt lat="45.9686" lon="4.44543">
        <ele>749</ele>
        <time>2025-10-04T13:25:36Z</time>
      </trkpt>
      <trkpt lat="45.96858" lon="4.44542">
        <ele>749.2</ele>
        <time>2025-10-04T13:25:37Z</time>
      </trkpt>
      <trkpt lat="45.96856" lon="4.4454">
        <ele>749.2</ele>
        <time>2025-10-04T13:25:38Z</time>
      </trkpt>
      <trkpt lat="45.96853" lon="4.44539">
        <ele>749.6</ele>
        <time>2025-10-04T13:25:39Z</time>
      </trkpt>
      <trkpt lat="45.96851" lon="4.44538">
        <ele>749.6</ele>
        <time>2025-10-04T13:25:40Z</time>
      </trkpt>
      <trkpt lat="45.96849" lon="4.44537">
        <ele>749.6</ele>
        <time>2025-10-04T13:25:41Z</time>
      </trkpt>
      <trkpt lat="45.96846" lon="4.44535">
        <ele>749.6</ele>
        <time>2025-10-04T13:25:42Z</time>
      </trkpt>
      <trkpt lat="45.96845" lon="4.44535">
        <ele>750.2</ele>
        <time>2025-10-04T13:25:43Z</time>
      </trkpt>
      <trkpt lat="45.96844" lon="4.44533">
        <ele>750.6</ele>
        <time>2025-10-04T13:25:44Z</time>
      </trkpt>
      <trkpt lat="45.96842" lon="4.44531">
        <ele>750.8</ele>
        <time>2025-10-04T13:25:45Z</time>
      </trkpt>
      <trkpt lat="45.9684" lon="4.44531">
        <ele>750.8</ele>
        <time>2025-10-04T13:25:46Z</time>
      </trkpt>
      <trkpt lat="45.96838" lon="4.44531">
        <ele>751</ele>
        <time>2025-10-04T13:25:47Z</time>
      </trkpt>
      <trkpt lat="45.96836" lon="4.44531">
        <ele>751.4</ele>
        <time>2025-10-04T13:25:48Z</time>
      </trkpt>
      <trkpt lat="45.96833" lon="4.44531">
        <ele>751.4</ele>
        <time>2025-10-04T13:25:49Z</time>
      </trkpt>
      <trkpt lat="45.96831" lon="4.44532">
        <ele>751.8</ele>
        <time>2025-10-04T13:25:50Z</time>
      </trkpt>
      <trkpt lat="45.96829" lon="4.44532">
        <ele>752.2</ele>
        <time>2025-10-04T13:25:51Z</time>
      </trkpt>
      <trkpt lat="45.96826" lon="4.44532">
        <ele>752.4</ele>
        <time>2025-10-04T13:25:52Z</time>
      </trkpt>
      <trkpt lat="45.96824" lon="4.44532">
        <ele>752.4</ele>
        <time>2025-10-04T13:25:53Z</time>
      </trkpt>
      <trkpt lat="45.96821" lon="4.44533">
        <ele>752.4</ele>
        <time>2025-10-04T13:25:54Z</time>
      </trkpt>
      <trkpt lat="45.96818" lon="4.44533">
        <ele>752.4</ele>
        <time>2025-10-04T13:25:55Z</time>
      </trkpt>
      <trkpt lat="45.96816" lon="4.44534">
        <ele>752.6</ele>
        <time>2025-10-04T13:25:56Z</time>
      </trkpt>
      <trkpt lat="45.96813" lon="4.44534">
        <ele>752.4</ele>
        <time>2025-10-04T13:25:57Z</time>
      </trkpt>
      <trkpt lat="45.9681" lon="4.44535">
        <ele>752.2</ele>
        <time>2025-10-04T13:25:58Z</time>
      </trkpt>
      <trkpt lat="45.96807" lon="4.44535">
        <ele>752.2</ele>
        <time>2025-10-04T13:25:59Z</time>
      </trkpt>
      <trkpt lat="45.96805" lon="4.44535">
        <ele>752.2</ele>
        <time>2025-10-04T13:26:00Z</time>
      </trkpt>
      <trkpt lat="45.96802" lon="4.44535">
        <ele>752.2</ele>
        <time>2025-10-04T13:26:01Z</time>
      </trkpt>
      <trkpt lat="45.96799" lon="4.44536">
        <ele>752</ele>
        <time>2025-10-04T13:26:02Z</time>
      </trkpt>
      <trkpt lat="45.96796" lon="4.44536">
        <ele>752</ele>
        <time>2025-10-04T13:26:03Z</time>
      </trkpt>
      <trkpt lat="45.96793" lon="4.44537">
        <ele>751.6</ele>
        <time>2025-10-04T13:26:04Z</time>
      </trkpt>
      <trkpt lat="45.9679" lon="4.44537">
        <ele>751.6</ele>
        <time>2025-10-04T13:26:05Z</time>
      </trkpt>
      <trkpt lat="45.96787" lon="4.44538">
        <ele>751</ele>
        <time>2025-10-04T13:26:06Z</time>
      </trkpt>
      <trkpt lat="45.96783" lon="4.44538">
        <ele>750.6</ele>
        <time>2025-10-04T13:26:07Z</time>
      </trkpt>
      <trkpt lat="45.96779" lon="4.44538">
        <ele>750.4</ele>
        <time>2025-10-04T13:26:08Z</time>
      </trkpt>
      <trkpt lat="45.96776" lon="4.44538">
        <ele>750.2</ele>
        <time>2025-10-04T13:26:09Z</time>
      </trkpt>
      <trkpt lat="45.96774" lon="4.44538">
        <ele>750.2</ele>
        <time>2025-10-04T13:26:10Z</time>
      </trkpt>
      <trkpt lat="45.96771" lon="4.44538">
        <ele>749.8</ele>
        <time>2025-10-04T13:26:11Z</time>
      </trkpt>
      <trkpt lat="45.96767" lon="4.44537">
        <ele>749.8</ele>
        <time>2025-10-04T13:26:12Z</time>
      </trkpt>
      <trkpt lat="45.96764" lon="4.44537">
        <ele>749.6</ele>
        <time>2025-10-04T13:26:13Z</time>
      </trkpt>
      <trkpt lat="45.9676" lon="4.44537">
        <ele>749.2</ele>
        <time>2025-10-04T13:26:14Z</time>
      </trkpt>
      <trkpt lat="45.96757" lon="4.44537">
        <ele>749.2</ele>
        <time>2025-10-04T13:26:15Z</time>
      </trkpt>
      <trkpt lat="45.96754" lon="4.44537">
        <ele>749.2</ele>
        <time>2025-10-04T13:26:16Z</time>
      </trkpt>
      <trkpt lat="45.96751" lon="4.44537">
        <ele>749.6</ele>
        <time>2025-10-04T13:26:17Z</time>
      </trkpt>
      <trkpt lat="45.96748" lon="4.44538">
        <ele>749.6</ele>
        <time>2025-10-04T13:26:18Z</time>
      </trkpt>
      <trkpt lat="45.96745" lon="4.44538">
        <ele>749.6</ele>
        <time>2025-10-04T13:26:19Z</time>
      </trkpt>
      <trkpt lat="45.96741" lon="4.44538">
        <ele>749.6</ele>
        <time>2025-10-04T13:26:20Z</time>
      </trkpt>
      <trkpt lat="45.96738" lon="4.44538">
        <ele>749.4</ele>
        <time>2025-10-04T13:26:21Z</time>
      </trkpt>
      <trkpt lat="45.96735" lon="4.44538">
        <ele>749.4</ele>
        <time>2025-10-04T13:26:22Z</time>
      </trkpt>
      <trkpt lat="45.96732" lon="4.44538">
        <ele>749</ele>
        <time>2025-10-04T13:26:23Z</time>
      </trkpt>
      <trkpt lat="45.9673" lon="4.44538">
        <ele>748.4</ele>
        <time>2025-10-04T13:26:24Z</time>
      </trkpt>
      <trkpt lat="45.96727" lon="4.44538">
        <ele>749</ele>
        <time>2025-10-04T13:26:25Z</time>
      </trkpt>
      <trkpt lat="45.96724" lon="4.44538">
        <ele>750</ele>
        <time>2025-10-04T13:26:26Z</time>
      </trkpt>
      <trkpt lat="45.96721" lon="4.44538">
        <ele>750.6</ele>
        <time>2025-10-04T13:26:27Z</time>
      </trkpt>
      <trkpt lat="45.96718" lon="4.44538">
        <ele>751.2</ele>
        <time>2025-10-04T13:26:28Z</time>
      </trkpt>
      <trkpt lat="45.96714" lon="4.44537">
        <ele>751.6</ele>
        <time>2025-10-04T13:26:29Z</time>
      </trkpt>
      <trkpt lat="45.96711" lon="4.44537">
        <ele>752.2</ele>
        <time>2025-10-04T13:26:30Z</time>
      </trkpt>
      <trkpt lat="45.96708" lon="4.44536">
        <ele>753</ele>
        <time>2025-10-04T13:26:31Z</time>
      </trkpt>
      <trkpt lat="45.96706" lon="4.44536">
        <ele>753.6</ele>
        <time>2025-10-04T13:26:32Z</time>
      </trkpt>
      <trkpt lat="45.96703" lon="4.44535">
        <ele>754</ele>
        <time>2025-10-04T13:26:33Z</time>
      </trkpt>
      <trkpt lat="45.967" lon="4.44534">
        <ele>754.4</ele>
        <time>2025-10-04T13:26:34Z</time>
      </trkpt>
      <trkpt lat="45.96698" lon="4.44534">
        <ele>754.2</ele>
        <time>2025-10-04T13:26:35Z</time>
      </trkpt>
      <trkpt lat="45.96695" lon="4.44534">
        <ele>753.8</ele>
        <time>2025-10-04T13:26:36Z</time>
      </trkpt>
      <trkpt lat="45.96692" lon="4.44534">
        <ele>753.4</ele>
        <time>2025-10-04T13:26:37Z</time>
      </trkpt>
      <trkpt lat="45.9669" lon="4.44534">
        <ele>753</ele>
        <time>2025-10-04T13:26:38Z</time>
      </trkpt>
      <trkpt lat="45.96689" lon="4.44534">
        <ele>752.6</ele>
        <time>2025-10-04T13:26:39Z</time>
      </trkpt>
      <trkpt lat="45.96687" lon="4.44534">
        <ele>752.6</ele>
        <time>2025-10-04T13:26:40Z</time>
      </trkpt>
      <trkpt lat="45.96686" lon="4.44533">
        <ele>752.8</ele>
        <time>2025-10-04T13:26:41Z</time>
      </trkpt>
      <trkpt lat="45.96686" lon="4.44533">
        <ele>753</ele>
        <time>2025-10-04T13:26:42Z</time>
      </trkpt>
      <trkpt lat="45.96686" lon="4.44533">
        <ele>753</ele>
        <time>2025-10-04T13:26:43Z</time>
      </trkpt>
      <trkpt lat="45.96686" lon="4.44533">
        <ele>753</ele>
        <time>2025-10-04T13:26:44Z</time>
      </trkpt>
      <trkpt lat="45.96685" lon="4.44531">
        <ele>752.8</ele>
        <time>2025-10-04T13:26:53Z</time>
      </trkpt>
      <trkpt lat="45.96684" lon="4.44528">
        <ele>752.8</ele>
        <time>2025-10-04T13:26:54Z</time>
      </trkpt>
      <trkpt lat="45.96684" lon="4.44526">
        <ele>753</ele>
        <time>2025-10-04T13:26:55Z</time>
      </trkpt>
      <trkpt lat="45.96685" lon="4.44523">
        <ele>753</ele>
        <time>2025-10-04T13:26:56Z</time>
      </trkpt>
      <trkpt lat="45.96686" lon="4.44522">
        <ele>753</ele>
        <time>2025-10-04T13:26:57Z</time>
      </trkpt>
      <trkpt lat="45.96689" lon="4.4452">
        <ele>752.8</ele>
        <time>2025-10-04T13:26:58Z</time>
      </trkpt>
      <trkpt lat="45.9669" lon="4.44519">
        <ele>752.8</ele>
        <time>2025-10-04T13:26:59Z</time>
      </trkpt>
      <trkpt lat="45.96692" lon="4.44519">
        <ele>752.8</ele>
        <time>2025-10-04T13:27:00Z</time>
      </trkpt>
      <trkpt lat="45.96694" lon="4.44518">
        <ele>752.8</ele>
        <time>2025-10-04T13:27:01Z</time>
      </trkpt>
      <trkpt lat="45.96696" lon="4.44518">
        <ele>753</ele>
        <time>2025-10-04T13:27:02Z</time>
      </trkpt>
      <trkpt lat="45.96698" lon="4.44517">
        <ele>752.8</ele>
        <time>2025-10-04T13:27:03Z</time>
      </trkpt>
      <trkpt lat="45.967" lon="4.44515">
        <ele>753</ele>
        <time>2025-10-04T13:27:04Z</time>
      </trkpt>
      <trkpt lat="45.96702" lon="4.44514">
        <ele>753</ele>
        <time>2025-10-04T13:27:05Z</time>
      </trkpt>
      <trkpt lat="45.96704" lon="4.44513">
        <ele>753.6</ele>
        <time>2025-10-04T13:27:06Z</time>
      </trkpt>
      <trkpt lat="45.96706" lon="4.44512">
        <ele>753.6</ele>
        <time>2025-10-04T13:27:07Z</time>
      </trkpt>
      <trkpt lat="45.96709" lon="4.4451">
        <ele>753.6</ele>
        <time>2025-10-04T13:27:08Z</time>
      </trkpt>
      <trkpt lat="45.96711" lon="4.44508">
        <ele>753.6</ele>
        <time>2025-10-04T13:27:09Z</time>
      </trkpt>
      <trkpt lat="45.96713" lon="4.44507">
        <ele>753.6</ele>
        <time>2025-10-04T13:27:10Z</time>
      </trkpt>
      <trkpt lat="45.96716" lon="4.44505">
        <ele>753.6</ele>
        <time>2025-10-04T13:27:11Z</time>
      </trkpt>
      <trkpt lat="45.96719" lon="4.44504">
        <ele>753.8</ele>
        <time>2025-10-04T13:27:12Z</time>
      </trkpt>
      <trkpt lat="45.96721" lon="4.44502">
        <ele>753.8</ele>
        <time>2025-10-04T13:27:13Z</time>
      </trkpt>
      <trkpt lat="45.96724" lon="4.44501">
        <ele>753.8</ele>
        <time>2025-10-04T13:27:14Z</time>
      </trkpt>
      <trkpt lat="45.96726" lon="4.44499">
        <ele>753.4</ele>
        <time>2025-10-04T13:27:15Z</time>
      </trkpt>
      <trkpt lat="45.96729" lon="4.44497">
        <ele>753.8</ele>
        <time>2025-10-04T13:27:16Z</time>
      </trkpt>
      <trkpt lat="45.96731" lon="4.44496">
        <ele>753.8</ele>
        <time>2025-10-04T13:27:17Z</time>
      </trkpt>
      <trkpt lat="45.96733" lon="4.44495">
        <ele>754</ele>
        <time>2025-10-04T13:27:18Z</time>
      </trkpt>
      <trkpt lat="45.96735" lon="4.44493">
        <ele>754.4</ele>
        <time>2025-10-04T13:27:19Z</time>
      </trkpt>
      <trkpt lat="45.96739" lon="4.4449">
        <ele>754.4</ele>
        <time>2025-10-04T13:27:20Z</time>
      </trkpt>
      <trkpt lat="45.96741" lon="4.44489">
        <ele>755</ele>
        <time>2025-10-04T13:27:21Z</time>
      </trkpt>
      <trkpt lat="45.96744" lon="4.44488">
        <ele>755.6</ele>
        <time>2025-10-04T13:27:22Z</time>
      </trkpt>
      <trkpt lat="45.96745" lon="4.44487">
        <ele>755.6</ele>
        <time>2025-10-04T13:27:23Z</time>
      </trkpt>
      <trkpt lat="45.96747" lon="4.44486">
        <ele>756.2</ele>
        <time>2025-10-04T13:27:24Z</time>
      </trkpt>
      <trkpt lat="45.9675" lon="4.44485">
        <ele>756.2</ele>
        <time>2025-10-04T13:27:25Z</time>
      </trkpt>
      <trkpt lat="45.96752" lon="4.44483">
        <ele>756.4</ele>
        <time>2025-10-04T13:27:26Z</time>
      </trkpt>
      <trkpt lat="45.96754" lon="4.44482">
        <ele>757</ele>
        <time>2025-10-04T13:27:27Z</time>
      </trkpt>
      <trkpt lat="45.96756" lon="4.44481">
        <ele>757</ele>
        <time>2025-10-04T13:27:28Z</time>
      </trkpt>
      <trkpt lat="45.96758" lon="4.4448">
        <ele>757.2</ele>
        <time>2025-10-04T13:27:29Z</time>
      </trkpt>
      <trkpt lat="45.9676" lon="4.44479">
        <ele>757.6</ele>
        <time>2025-10-04T13:27:30Z</time>
      </trkpt>
      <trkpt lat="45.96761" lon="4.44478">
        <ele>757.8</ele>
        <time>2025-10-04T13:27:31Z</time>
      </trkpt>
      <trkpt lat="45.96762" lon="4.44477">
        <ele>757.8</ele>
        <time>2025-10-04T13:27:32Z</time>
      </trkpt>
      <trkpt lat="45.96764" lon="4.44476">
        <ele>757.8</ele>
        <time>2025-10-04T13:27:33Z</time>
      </trkpt>
      <trkpt lat="45.96765" lon="4.44476">
        <ele>757.8</ele>
        <time>2025-10-04T13:27:34Z</time>
      </trkpt>
      <trkpt lat="45.96766" lon="4.44475">
        <ele>758.2</ele>
        <time>2025-10-04T13:27:35Z</time>
      </trkpt>
      <trkpt lat="45.96767" lon="4.44475">
        <ele>758.4</ele>
        <time>2025-10-04T13:27:36Z</time>
      </trkpt>
      <trkpt lat="45.96768" lon="4.44474">
        <ele>758.4</ele>
        <time>2025-10-04T13:27:37Z</time>
      </trkpt>
      <trkpt lat="45.96769" lon="4.44473">
        <ele>758.8</ele>
        <time>2025-10-04T13:27:38Z</time>
      </trkpt>
      <trkpt lat="45.96771" lon="4.44472">
        <ele>759</ele>
        <time>2025-10-04T13:27:39Z</time>
      </trkpt>
      <trkpt lat="45.96772" lon="4.44471">
        <ele>759</ele>
        <time>2025-10-04T13:27:40Z</time>
      </trkpt>
      <trkpt lat="45.96773" lon="4.44471">
        <ele>759.4</ele>
        <time>2025-10-04T13:27:41Z</time>
      </trkpt>
      <trkpt lat="45.96773" lon="4.44471">
        <ele>759.4</ele>
        <time>2025-10-04T13:27:42Z</time>
      </trkpt>
      <trkpt lat="45.96772" lon="4.44471">
        <ele>759.4</ele>
        <time>2025-10-04T13:27:43Z</time>
      </trkpt>
      <trkpt lat="45.96776" lon="4.44467">
        <ele>759</ele>
        <time>2025-10-04T13:28:07Z</time>
      </trkpt>
      <trkpt lat="45.96778" lon="4.44466">
        <ele>759</ele>
        <time>2025-10-04T13:28:08Z</time>
      </trkpt>
      <trkpt lat="45.9678" lon="4.44465">
        <ele>759.2</ele>
        <time>2025-10-04T13:28:09Z</time>
      </trkpt>
      <trkpt lat="45.96781" lon="4.44465">
        <ele>759.4</ele>
        <time>2025-10-04T13:28:10Z</time>
      </trkpt>
      <trkpt lat="45.96782" lon="4.44464">
        <ele>759.8</ele>
        <time>2025-10-04T13:28:11Z</time>
      </trkpt>
      <trkpt lat="45.96784" lon="4.44463">
        <ele>760</ele>
        <time>2025-10-04T13:28:12Z</time>
      </trkpt>
      <trkpt lat="45.96785" lon="4.44463">
        <ele>760.6</ele>
        <time>2025-10-04T13:28:13Z</time>
      </trkpt>
      <trkpt lat="45.96787" lon="4.44462">
        <ele>760.6</ele>
        <time>2025-10-04T13:28:14Z</time>
      </trkpt>
      <trkpt lat="45.96788" lon="4.44462">
        <ele>760.8</ele>
        <time>2025-10-04T13:28:15Z</time>
      </trkpt>
      <trkpt lat="45.9679" lon="4.44462">
        <ele>760.8</ele>
        <time>2025-10-04T13:28:16Z</time>
      </trkpt>
      <trkpt lat="45.96791" lon="4.44461">
        <ele>761.2</ele>
        <time>2025-10-04T13:28:17Z</time>
      </trkpt>
      <trkpt lat="45.96792" lon="4.4446">
        <ele>761.2</ele>
        <time>2025-10-04T13:28:18Z</time>
      </trkpt>
      <trkpt lat="45.96794" lon="4.4446">
        <ele>761.2</ele>
        <time>2025-10-04T13:28:19Z</time>
      </trkpt>
      <trkpt lat="45.96795" lon="4.44459">
        <ele>761.2</ele>
        <time>2025-10-04T13:28:20Z</time>
      </trkpt>
      <trkpt lat="45.96796" lon="4.44458">
        <ele>761.2</ele>
        <time>2025-10-04T13:28:21Z</time>
      </trkpt>
      <trkpt lat="45.96797" lon="4.44457">
        <ele>762</ele>
        <time>2025-10-04T13:28:22Z</time>
      </trkpt>
      <trkpt lat="45.96798" lon="4.44456">
        <ele>762.4</ele>
        <time>2025-10-04T13:28:23Z</time>
      </trkpt>
      <trkpt lat="45.96799" lon="4.44454">
        <ele>762.6</ele>
        <time>2025-10-04T13:28:24Z</time>
      </trkpt>
      <trkpt lat="45.968" lon="4.44453">
        <ele>762.6</ele>
        <time>2025-10-04T13:28:25Z</time>
      </trkpt>
      <trkpt lat="45.96801" lon="4.44453">
        <ele>763</ele>
        <time>2025-10-04T13:28:26Z</time>
      </trkpt>
      <trkpt lat="45.96802" lon="4.44452">
        <ele>763</ele>
        <time>2025-10-04T13:28:27Z</time>
      </trkpt>
      <trkpt lat="45.96804" lon="4.4445">
        <ele>763</ele>
        <time>2025-10-04T13:28:28Z</time>
      </trkpt>
      <trkpt lat="45.96805" lon="4.44448">
        <ele>763.2</ele>
        <time>2025-10-04T13:28:29Z</time>
      </trkpt>
      <trkpt lat="45.96807" lon="4.44447">
        <ele>763.8</ele>
        <time>2025-10-04T13:28:30Z</time>
      </trkpt>
      <trkpt lat="45.96807" lon="4.44445">
        <ele>763.8</ele>
        <time>2025-10-04T13:28:31Z</time>
      </trkpt>
      <trkpt lat="45.96808" lon="4.44444">
        <ele>764.4</ele>
        <time>2025-10-04T13:28:32Z</time>
      </trkpt>
      <trkpt lat="45.96808" lon="4.44443">
        <ele>764.4</ele>
        <time>2025-10-04T13:28:33Z</time>
      </trkpt>
      <trkpt lat="45.96809" lon="4.44443">
        <ele>764.6</ele>
        <time>2025-10-04T13:28:34Z</time>
      </trkpt>
      <trkpt lat="45.96809" lon="4.44443">
        <ele>764.6</ele>
        <time>2025-10-04T13:28:35Z</time>
      </trkpt>
      <trkpt lat="45.96809" lon="4.44442">
        <ele>765</ele>
        <time>2025-10-04T13:28:36Z</time>
      </trkpt>
      <trkpt lat="45.9681" lon="4.44441">
        <ele>765</ele>
        <time>2025-10-04T13:28:37Z</time>
      </trkpt>
      <trkpt lat="45.96811" lon="4.44441">
        <ele>765.4</ele>
        <time>2025-10-04T13:28:38Z</time>
      </trkpt>
      <trkpt lat="45.96811" lon="4.44441">
        <ele>765.8</ele>
        <time>2025-10-04T13:28:39Z</time>
      </trkpt>
      <trkpt lat="45.96812" lon="4.44441">
        <ele>766</ele>
        <time>2025-10-04T13:28:40Z</time>
      </trkpt>
      <trkpt lat="45.96813" lon="4.4444">
        <ele>766.2</ele>
        <time>2025-10-04T13:28:41Z</time>
      </trkpt>
      <trkpt lat="45.96813" lon="4.4444">
        <ele>766.2</ele>
        <time>2025-10-04T13:28:42Z</time>
      </trkpt>
      <trkpt lat="45.96814" lon="4.44439">
        <ele>766.6</ele>
        <time>2025-10-04T13:28:43Z</time>
      </trkpt>
      <trkpt lat="45.96814" lon="4.44438">
        <ele>766.6</ele>
        <time>2025-10-04T13:28:44Z</time>
      </trkpt>
      <trkpt lat="45.96815" lon="4.44437">
        <ele>767</ele>
        <time>2025-10-04T13:28:45Z</time>
      </trkpt>
      <trkpt lat="45.96816" lon="4.44436">
        <ele>767.2</ele>
        <time>2025-10-04T13:28:46Z</time>
      </trkpt>
      <trkpt lat="45.96816" lon="4.44434">
        <ele>767.6</ele>
        <time>2025-10-04T13:28:47Z</time>
      </trkpt>
      <trkpt lat="45.96817" lon="4.44433">
        <ele>767.6</ele>
        <time>2025-10-04T13:28:48Z</time>
      </trkpt>
      <trkpt lat="45.96817" lon="4.44433">
        <ele>767.8</ele>
        <time>2025-10-04T13:28:49Z</time>
      </trkpt>
      <trkpt lat="45.96817" lon="4.44432">
        <ele>767.8</ele>
        <time>2025-10-04T13:28:50Z</time>
      </trkpt>
      <trkpt lat="45.96818" lon="4.44431">
        <ele>767.8</ele>
        <time>2025-10-04T13:28:51Z</time>
      </trkpt>
      <trkpt lat="45.96819" lon="4.44429">
        <ele>768.2</ele>
        <time>2025-10-04T13:28:52Z</time>
      </trkpt>
      <trkpt lat="45.96819" lon="4.44428">
        <ele>768.6</ele>
        <time>2025-10-04T13:28:53Z</time>
      </trkpt>
      <trkpt lat="45.9682" lon="4.44427">
        <ele>768.8</ele>
        <time>2025-10-04T13:28:54Z</time>
      </trkpt>
      <trkpt lat="45.9682" lon="4.44426">
        <ele>768.8</ele>
        <time>2025-10-04T13:28:55Z</time>
      </trkpt>
      <trkpt lat="45.96821" lon="4.44425">
        <ele>769</ele>
        <time>2025-10-04T13:28:56Z</time>
      </trkpt>
      <trkpt lat="45.96821" lon="4.44425">
        <ele>769</ele>
        <time>2025-10-04T13:28:57Z</time>
      </trkpt>
      <trkpt lat="45.96822" lon="4.44424">
        <ele>769.6</ele>
        <time>2025-10-04T13:28:58Z</time>
      </trkpt>
      <trkpt lat="45.96822" lon="4.44423">
        <ele>769.6</ele>
        <time>2025-10-04T13:28:59Z</time>
      </trkpt>
      <trkpt lat="45.96822" lon="4.44423">
        <ele>769.6</ele>
        <time>2025-10-04T13:29:00Z</time>
      </trkpt>
      <trkpt lat="45.96823" lon="4.44422">
        <ele>769.6</ele>
        <time>2025-10-04T13:29:01Z</time>
      </trkpt>
      <trkpt lat="45.96824" lon="4.4442">
        <ele>769.8</ele>
        <time>2025-10-04T13:29:02Z</time>
      </trkpt>
      <trkpt lat="45.96825" lon="4.44419">
        <ele>769.8</ele>
        <time>2025-10-04T13:29:03Z</time>
      </trkpt>
      <trkpt lat="45.96826" lon="4.44418">
        <ele>770.2</ele>
        <time>2025-10-04T13:29:04Z</time>
      </trkpt>
      <trkpt lat="45.96826" lon="4.44418">
        <ele>770.2</ele>
        <time>2025-10-04T13:29:05Z</time>
      </trkpt>
      <trkpt lat="45.96826" lon="4.44417">
        <ele>770.2</ele>
        <time>2025-10-04T13:29:06Z</time>
      </trkpt>
      <trkpt lat="45.96827" lon="4.44416">
        <ele>770.6</ele>
        <time>2025-10-04T13:29:07Z</time>
      </trkpt>
      <trkpt lat="45.96827" lon="4.44415">
        <ele>770.8</ele>
        <time>2025-10-04T13:29:08Z</time>
      </trkpt>
      <trkpt lat="45.96828" lon="4.44414">
        <ele>770.8</ele>
        <time>2025-10-04T13:29:09Z</time>
      </trkpt>
      <trkpt lat="45.96829" lon="4.44413">
        <ele>770.8</ele>
        <time>2025-10-04T13:29:10Z</time>
      </trkpt>
      <trkpt lat="45.96829" lon="4.44413">
        <ele>770.8</ele>
        <time>2025-10-04T13:29:11Z</time>
      </trkpt>
      <trkpt lat="45.9683" lon="4.44413">
        <ele>770.8</ele>
        <time>2025-10-04T13:29:12Z</time>
      </trkpt>
      <trkpt lat="45.96831" lon="4.44412">
        <ele>770.8</ele>
        <time>2025-10-04T13:29:13Z</time>
      </trkpt>
      <trkpt lat="45.96831" lon="4.44411">
        <ele>771.2</ele>
        <time>2025-10-04T13:29:14Z</time>
      </trkpt>
      <trkpt lat="45.96832" lon="4.44411">
        <ele>771.2</ele>
        <time>2025-10-04T13:29:15Z</time>
      </trkpt>
      <trkpt lat="45.96832" lon="4.44411">
        <ele>770.8</ele>
        <time>2025-10-04T13:29:16Z</time>
      </trkpt>
      <trkpt lat="45.96833" lon="4.44411">
        <ele>771.2</ele>
        <time>2025-10-04T13:29:17Z</time>
      </trkpt>
      <trkpt lat="45.96834" lon="4.4441">
        <ele>771.2</ele>
        <time>2025-10-04T13:29:18Z</time>
      </trkpt>
      <trkpt lat="45.96835" lon="4.4441">
        <ele>771.4</ele>
        <time>2025-10-04T13:29:19Z</time>
      </trkpt>
      <trkpt lat="45.96836" lon="4.4441">
        <ele>771.4</ele>
        <time>2025-10-04T13:29:20Z</time>
      </trkpt>
      <trkpt lat="45.96837" lon="4.44409">
        <ele>771.8</ele>
        <time>2025-10-04T13:29:21Z</time>
      </trkpt>
      <trkpt lat="45.96837" lon="4.44409">
        <ele>772</ele>
        <time>2025-10-04T13:29:22Z</time>
      </trkpt>
      <trkpt lat="45.96838" lon="4.44409">
        <ele>772</ele>
        <time>2025-10-04T13:29:23Z</time>
      </trkpt>
      <trkpt lat="45.96839" lon="4.44409">
        <ele>772</ele>
        <time>2025-10-04T13:29:24Z</time>
      </trkpt>
      <trkpt lat="45.96839" lon="4.44408">
        <ele>772.4</ele>
        <time>2025-10-04T13:29:25Z</time>
      </trkpt>
      <trkpt lat="45.9684" lon="4.44408">
        <ele>772.4</ele>
        <time>2025-10-04T13:29:26Z</time>
      </trkpt>
      <trkpt lat="45.96841" lon="4.44407">
        <ele>772.8</ele>
        <time>2025-10-04T13:29:27Z</time>
      </trkpt>
      <trkpt lat="45.96842" lon="4.44407">
        <ele>772.8</ele>
        <time>2025-10-04T13:29:28Z</time>
      </trkpt>
      <trkpt lat="45.96842" lon="4.44407">
        <ele>773.2</ele>
        <time>2025-10-04T13:29:29Z</time>
      </trkpt>
      <trkpt lat="45.96843" lon="4.44407">
        <ele>773.4</ele>
        <time>2025-10-04T13:29:30Z</time>
      </trkpt>
      <trkpt lat="45.96843" lon="4.44407">
        <ele>774</ele>
        <time>2025-10-04T13:29:31Z</time>
      </trkpt>
      <trkpt lat="45.96844" lon="4.44406">
        <ele>774.2</ele>
        <time>2025-10-04T13:29:32Z</time>
      </trkpt>
      <trkpt lat="45.96845" lon="4.44406">
        <ele>774.6</ele>
        <time>2025-10-04T13:29:33Z</time>
      </trkpt>
      <trkpt lat="45.96846" lon="4.44406">
        <ele>775</ele>
        <time>2025-10-04T13:29:34Z</time>
      </trkpt>
      <trkpt lat="45.96847" lon="4.44406">
        <ele>775.2</ele>
        <time>2025-10-04T13:29:35Z</time>
      </trkpt>
      <trkpt lat="45.96848" lon="4.44405">
        <ele>775.2</ele>
        <time>2025-10-04T13:29:36Z</time>
      </trkpt>
      <trkpt lat="45.96849" lon="4.44405">
        <ele>775.4</ele>
        <time>2025-10-04T13:29:37Z</time>
      </trkpt>
      <trkpt lat="45.96849" lon="4.44405">
        <ele>775.4</ele>
        <time>2025-10-04T13:29:38Z</time>
      </trkpt>
      <trkpt lat="45.96849" lon="4.44405">
        <ele>775.8</ele>
        <time>2025-10-04T13:29:39Z</time>
      </trkpt>
      <trkpt lat="45.9685" lon="4.44401">
        <ele>776</ele>
        <time>2025-10-04T13:29:53Z</time>
      </trkpt>
      <trkpt lat="45.9685" lon="4.44401">
        <ele>776</ele>
        <time>2025-10-04T13:29:54Z</time>
      </trkpt>
      <trkpt lat="45.96851" lon="4.444">
        <ele>776</ele>
        <time>2025-10-04T13:29:55Z</time>
      </trkpt>
      <trkpt lat="45.96852" lon="4.444">
        <ele>776.4</ele>
        <time>2025-10-04T13:29:56Z</time>
      </trkpt>
      <trkpt lat="45.96854" lon="4.44399">
        <ele>776.4</ele>
        <time>2025-10-04T13:29:57Z</time>
      </trkpt>
      <trkpt lat="45.96855" lon="4.44399">
        <ele>776.6</ele>
        <time>2025-10-04T13:29:58Z</time>
      </trkpt>
      <trkpt lat="45.96857" lon="4.44399">
        <ele>776.6</ele>
        <time>2025-10-04T13:29:59Z</time>
      </trkpt>
      <trkpt lat="45.96858" lon="4.44399">
        <ele>777</ele>
        <time>2025-10-04T13:30:00Z</time>
      </trkpt>
      <trkpt lat="45.96859" lon="4.44398">
        <ele>776.2</ele>
        <time>2025-10-04T13:30:01Z</time>
      </trkpt>
      <trkpt lat="45.9686" lon="4.44397">
        <ele>776.8</ele>
        <time>2025-10-04T13:30:02Z</time>
      </trkpt>
      <trkpt lat="45.96862" lon="4.44397">
        <ele>777</ele>
        <time>2025-10-04T13:30:03Z</time>
      </trkpt>
      <trkpt lat="45.96863" lon="4.44396">
        <ele>777.2</ele>
        <time>2025-10-04T13:30:04Z</time>
      </trkpt>
      <trkpt lat="45.96864" lon="4.44396">
        <ele>777.8</ele>
        <time>2025-10-04T13:30:05Z</time>
      </trkpt>
      <trkpt lat="45.96865" lon="4.44395">
        <ele>778.4</ele>
        <time>2025-10-04T13:30:06Z</time>
      </trkpt>
      <trkpt lat="45.96866" lon="4.44394">
        <ele>778.4</ele>
        <time>2025-10-04T13:30:07Z</time>
      </trkpt>
      <trkpt lat="45.96866" lon="4.44394">
        <ele>778.4</ele>
        <time>2025-10-04T13:30:08Z</time>
      </trkpt>
      <trkpt lat="45.96868" lon="4.44394">
        <ele>778.6</ele>
        <time>2025-10-04T13:30:09Z</time>
      </trkpt>
      <trkpt lat="45.9687" lon="4.44393">
        <ele>778.6</ele>
        <time>2025-10-04T13:30:10Z</time>
      </trkpt>
      <trkpt lat="45.96872" lon="4.44391">
        <ele>778.6</ele>
        <time>2025-10-04T13:30:11Z</time>
      </trkpt>
      <trkpt lat="45.96872" lon="4.4439">
        <ele>778.6</ele>
        <time>2025-10-04T13:30:12Z</time>
      </trkpt>
      <trkpt lat="45.96873" lon="4.44389">
        <ele>778.6</ele>
        <time>2025-10-04T13:30:13Z</time>
      </trkpt>
      <trkpt lat="45.96874" lon="4.44388">
        <ele>778.6</ele>
        <time>2025-10-04T13:30:14Z</time>
      </trkpt>
      <trkpt lat="45.96875" lon="4.44387">
        <ele>778.6</ele>
        <time>2025-10-04T13:30:15Z</time>
      </trkpt>
      <trkpt lat="45.96876" lon="4.44386">
        <ele>778.6</ele>
        <time>2025-10-04T13:30:16Z</time>
      </trkpt>
      <trkpt lat="45.96877" lon="4.44386">
        <ele>779</ele>
        <time>2025-10-04T13:30:17Z</time>
      </trkpt>
      <trkpt lat="45.96878" lon="4.44387">
        <ele>779</ele>
        <time>2025-10-04T13:30:18Z</time>
      </trkpt>
      <trkpt lat="45.9688" lon="4.44387">
        <ele>779</ele>
        <time>2025-10-04T13:30:19Z</time>
      </trkpt>
      <trkpt lat="45.96881" lon="4.44387">
        <ele>779</ele>
        <time>2025-10-04T13:30:20Z</time>
      </trkpt>
      <trkpt lat="45.96882" lon="4.44387">
        <ele>779.2</ele>
        <time>2025-10-04T13:30:21Z</time>
      </trkpt>
      <trkpt lat="45.96883" lon="4.44386">
        <ele>779.2</ele>
        <time>2025-10-04T13:30:22Z</time>
      </trkpt>
      <trkpt lat="45.96884" lon="4.44385">
        <ele>779.6</ele>
        <time>2025-10-04T13:30:23Z</time>
      </trkpt>
      <trkpt lat="45.96885" lon="4.44384">
        <ele>779.8</ele>
        <time>2025-10-04T13:30:24Z</time>
      </trkpt>
      <trkpt lat="45.96886" lon="4.44383">
        <ele>780</ele>
        <time>2025-10-04T13:30:25Z</time>
      </trkpt>
      <trkpt lat="45.96887" lon="4.44382">
        <ele>780</ele>
        <time>2025-10-04T13:30:26Z</time>
      </trkpt>
      <trkpt lat="45.96888" lon="4.44381">
        <ele>780.4</ele>
        <time>2025-10-04T13:30:27Z</time>
      </trkpt>
      <trkpt lat="45.96889" lon="4.44379">
        <ele>780.4</ele>
        <time>2025-10-04T13:30:28Z</time>
      </trkpt>
      <trkpt lat="45.9689" lon="4.44378">
        <ele>780.8</ele>
        <time>2025-10-04T13:30:29Z</time>
      </trkpt>
      <trkpt lat="45.96891" lon="4.44378">
        <ele>780.8</ele>
        <time>2025-10-04T13:30:30Z</time>
      </trkpt>
      <trkpt lat="45.96892" lon="4.44378">
        <ele>780.8</ele>
        <time>2025-10-04T13:30:31Z</time>
      </trkpt>
      <trkpt lat="45.96893" lon="4.44378">
        <ele>781.2</ele>
        <time>2025-10-04T13:30:32Z</time>
      </trkpt>
      <trkpt lat="45.96894" lon="4.44378">
        <ele>781.4</ele>
        <time>2025-10-04T13:30:33Z</time>
      </trkpt>
      <trkpt lat="45.96895" lon="4.44377">
        <ele>781.4</ele>
        <time>2025-10-04T13:30:34Z</time>
      </trkpt>
      <trkpt lat="45.96896" lon="4.44376">
        <ele>781.8</ele>
        <time>2025-10-04T13:30:35Z</time>
      </trkpt>
      <trkpt lat="45.96896" lon="4.44376">
        <ele>781.8</ele>
        <time>2025-10-04T13:30:36Z</time>
      </trkpt>
      <trkpt lat="45.96897" lon="4.44375">
        <ele>782.2</ele>
        <time>2025-10-04T13:30:37Z</time>
      </trkpt>
      <trkpt lat="45.96898" lon="4.44373">
        <ele>782.6</ele>
        <time>2025-10-04T13:30:38Z</time>
      </trkpt>
      <trkpt lat="45.96899" lon="4.44373">
        <ele>782.6</ele>
        <time>2025-10-04T13:30:39Z</time>
      </trkpt>
      <trkpt lat="45.969" lon="4.44372">
        <ele>782.6</ele>
        <time>2025-10-04T13:30:40Z</time>
      </trkpt>
      <trkpt lat="45.969" lon="4.44372">
        <ele>782.6</ele>
        <time>2025-10-04T13:30:41Z</time>
      </trkpt>
      <trkpt lat="45.96901" lon="4.44371">
        <ele>782.6</ele>
        <time>2025-10-04T13:30:42Z</time>
      </trkpt>
      <trkpt lat="45.96902" lon="4.44371">
        <ele>782.6</ele>
        <time>2025-10-04T13:30:43Z</time>
      </trkpt>
      <trkpt lat="45.96902" lon="4.4437">
        <ele>782.6</ele>
        <time>2025-10-04T13:30:44Z</time>
      </trkpt>
      <trkpt lat="45.96903" lon="4.44369">
        <ele>782.6</ele>
        <time>2025-10-04T13:30:45Z</time>
      </trkpt>
      <trkpt lat="45.96904" lon="4.44369">
        <ele>782.6</ele>
        <time>2025-10-04T13:30:46Z</time>
      </trkpt>
      <trkpt lat="45.96904" lon="4.44368">
        <ele>782.6</ele>
        <time>2025-10-04T13:30:47Z</time>
      </trkpt>
      <trkpt lat="45.96904" lon="4.44368">
        <ele>783</ele>
        <time>2025-10-04T13:30:48Z</time>
      </trkpt>
      <trkpt lat="45.96904" lon="4.44368">
        <ele>783</ele>
        <time>2025-10-04T13:30:49Z</time>
      </trkpt>
      <trkpt lat="45.96903" lon="4.44368">
        <ele>783</ele>
        <time>2025-10-04T13:30:50Z</time>
      </trkpt>
      <trkpt lat="45.96904" lon="4.44368">
        <ele>783.4</ele>
        <time>2025-10-04T13:30:57Z</time>
      </trkpt>
      <trkpt lat="45.96905" lon="4.44367">
        <ele>783.4</ele>
        <time>2025-10-04T13:30:58Z</time>
      </trkpt>
      <trkpt lat="45.96906" lon="4.44367">
        <ele>783.2</ele>
        <time>2025-10-04T13:30:59Z</time>
      </trkpt>
      <trkpt lat="45.96906" lon="4.44366">
        <ele>783.2</ele>
        <time>2025-10-04T13:31:00Z</time>
      </trkpt>
      <trkpt lat="45.96907" lon="4.44365">
        <ele>783.2</ele>
        <time>2025-10-04T13:31:01Z</time>
      </trkpt>
      <trkpt lat="45.96907" lon="4.44365">
        <ele>783.6</ele>
        <time>2025-10-04T13:31:02Z</time>
      </trkpt>
      <trkpt lat="45.96907" lon="4.44364">
        <ele>784</ele>
        <time>2025-10-04T13:31:03Z</time>
      </trkpt>
      <trkpt lat="45.96907" lon="4.44363">
        <ele>784.4</ele>
        <time>2025-10-04T13:31:04Z</time>
      </trkpt>
      <trkpt lat="45.96908" lon="4.44362">
        <ele>784.6</ele>
        <time>2025-10-04T13:31:05Z</time>
      </trkpt>
      <trkpt lat="45.96908" lon="4.44361">
        <ele>785</ele>
        <time>2025-10-04T13:31:06Z</time>
      </trkpt>
      <trkpt lat="45.96908" lon="4.44362">
        <ele>785.4</ele>
        <time>2025-10-04T13:31:07Z</time>
      </trkpt>
      <trkpt lat="45.96908" lon="4.44362">
        <ele>785.6</ele>
        <time>2025-10-04T13:31:08Z</time>
      </trkpt>
      <trkpt lat="45.9691" lon="4.44359">
        <ele>784.4</ele>
        <time>2025-10-04T13:31:23Z</time>
      </trkpt>
      <trkpt lat="45.96911" lon="4.44357">
        <ele>784.4</ele>
        <time>2025-10-04T13:31:24Z</time>
      </trkpt>
      <trkpt lat="45.96911" lon="4.44356">
        <ele>784.4</ele>
        <time>2025-10-04T13:31:25Z</time>
      </trkpt>
      <trkpt lat="45.96912" lon="4.44354">
        <ele>784.6</ele>
        <time>2025-10-04T13:31:26Z</time>
      </trkpt>
      <trkpt lat="45.96913" lon="4.44353">
        <ele>785</ele>
        <time>2025-10-04T13:31:27Z</time>
      </trkpt>
      <trkpt lat="45.96913" lon="4.44353">
        <ele>785.4</ele>
        <time>2025-10-04T13:31:28Z</time>
      </trkpt>
      <trkpt lat="45.96913" lon="4.44353">
        <ele>785.6</ele>
        <time>2025-10-04T13:31:29Z</time>
      </trkpt>
      <trkpt lat="45.96913" lon="4.44352">
        <ele>786</ele>
        <time>2025-10-04T13:31:30Z</time>
      </trkpt>
      <trkpt lat="45.96914" lon="4.44351">
        <ele>786.4</ele>
        <time>2025-10-04T13:31:31Z</time>
      </trkpt>
      <trkpt lat="45.96914" lon="4.4435">
        <ele>786.8</ele>
        <time>2025-10-04T13:31:32Z</time>
      </trkpt>
      <trkpt lat="45.96915" lon="4.44349">
        <ele>787.2</ele>
        <time>2025-10-04T13:31:33Z</time>
      </trkpt>
      <trkpt lat="45.96915" lon="4.44348">
        <ele>787.4</ele>
        <time>2025-10-04T13:31:34Z</time>
      </trkpt>
      <trkpt lat="45.96916" lon="4.44348">
        <ele>787.6</ele>
        <time>2025-10-04T13:31:35Z</time>
      </trkpt>
      <trkpt lat="45.96916" lon="4.44347">
        <ele>788</ele>
        <time>2025-10-04T13:31:36Z</time>
      </trkpt>
      <trkpt lat="45.96917" lon="4.44347">
        <ele>788</ele>
        <time>2025-10-04T13:31:37Z</time>
      </trkpt>
      <trkpt lat="45.96918" lon="4.44345">
        <ele>788</ele>
        <time>2025-10-04T13:31:38Z</time>
      </trkpt>
      <trkpt lat="45.96918" lon="4.44344">
        <ele>788</ele>
        <time>2025-10-04T13:31:39Z</time>
      </trkpt>
      <trkpt lat="45.96918" lon="4.44344">
        <ele>788.2</ele>
        <time>2025-10-04T13:31:40Z</time>
      </trkpt>
      <trkpt lat="45.96918" lon="4.44343">
        <ele>788.2</ele>
        <time>2025-10-04T13:31:41Z</time>
      </trkpt>
      <trkpt lat="45.96918" lon="4.44342">
        <ele>788.4</ele>
        <time>2025-10-04T13:31:42Z</time>
      </trkpt>
      <trkpt lat="45.96919" lon="4.44341">
        <ele>788.4</ele>
        <time>2025-10-04T13:31:43Z</time>
      </trkpt>
      <trkpt lat="45.96919" lon="4.44341">
        <ele>788.8</ele>
        <time>2025-10-04T13:31:44Z</time>
      </trkpt>
      <trkpt lat="45.96918" lon="4.44341">
        <ele>788.8</ele>
        <time>2025-10-04T13:31:45Z</time>
      </trkpt>
      <trkpt lat="45.96919" lon="4.4434">
        <ele>789</ele>
        <time>2025-10-04T13:31:46Z</time>
      </trkpt>
      <trkpt lat="45.96919" lon="4.44339">
        <ele>789</ele>
        <time>2025-10-04T13:31:47Z</time>
      </trkpt>
      <trkpt lat="45.96919" lon="4.44339">
        <ele>789.4</ele>
        <time>2025-10-04T13:31:48Z</time>
      </trkpt>
      <trkpt lat="45.96919" lon="4.44339">
        <ele>789.6</ele>
        <time>2025-10-04T13:31:49Z</time>
      </trkpt>
      <trkpt lat="45.96919" lon="4.44338">
        <ele>789.8</ele>
        <time>2025-10-04T13:31:50Z</time>
      </trkpt>
      <trkpt lat="45.96919" lon="4.44338">
        <ele>789.8</ele>
        <time>2025-10-04T13:31:51Z</time>
      </trkpt>
      <trkpt lat="45.96919" lon="4.44338">
        <ele>789.8</ele>
        <time>2025-10-04T13:31:52Z</time>
      </trkpt>
      <trkpt lat="45.96919" lon="4.44337">
        <ele>790.2</ele>
        <time>2025-10-04T13:31:53Z</time>
      </trkpt>
      <trkpt lat="45.96919" lon="4.44337">
        <ele>790.4</ele>
        <time>2025-10-04T13:31:54Z</time>
      </trkpt>
      <trkpt lat="45.9692" lon="4.44338">
        <ele>790.8</ele>
        <time>2025-10-04T13:32:15Z</time>
      </trkpt>
      <trkpt lat="45.9692" lon="4.44338">
        <ele>790.6</ele>
        <time>2025-10-04T13:32:16Z</time>
      </trkpt>
      <trkpt lat="45.96921" lon="4.44333">
        <ele>792.2</ele>
        <time>2025-10-04T13:32:26Z</time>
      </trkpt>
      <trkpt lat="45.96921" lon="4.44333">
        <ele>792.2</ele>
        <time>2025-10-04T13:32:27Z</time>
      </trkpt>
      <trkpt lat="45.96921" lon="4.44332">
        <ele>790.6</ele>
        <time>2025-10-04T13:32:28Z</time>
      </trkpt>
      <trkpt lat="45.9692" lon="4.44332">
        <ele>790.6</ele>
        <time>2025-10-04T13:32:29Z</time>
      </trkpt>
      <trkpt lat="45.9692" lon="4.44328">
        <ele>793.2</ele>
        <time>2025-10-04T13:32:37Z</time>
      </trkpt>
      <trkpt lat="45.9692" lon="4.44327">
        <ele>793.6</ele>
        <time>2025-10-04T13:32:38Z</time>
      </trkpt>
      <trkpt lat="45.96921" lon="4.44326">
        <ele>794</ele>
        <time>2025-10-04T13:32:39Z</time>
      </trkpt>
      <trkpt lat="45.96921" lon="4.44325">
        <ele>794.2</ele>
        <time>2025-10-04T13:32:40Z</time>
      </trkpt>
      <trkpt lat="45.96921" lon="4.44323">
        <ele>794.4</ele>
        <time>2025-10-04T13:32:41Z</time>
      </trkpt>
      <trkpt lat="45.96921" lon="4.44321">
        <ele>794.4</ele>
        <time>2025-10-04T13:32:42Z</time>
      </trkpt>
      <trkpt lat="45.96922" lon="4.4432">
        <ele>794.8</ele>
        <time>2025-10-04T13:32:43Z</time>
      </trkpt>
      <trkpt lat="45.96922" lon="4.44319">
        <ele>794.8</ele>
        <time>2025-10-04T13:32:44Z</time>
      </trkpt>
      <trkpt lat="45.96922" lon="4.44319">
        <ele>795.2</ele>
        <time>2025-10-04T13:32:45Z</time>
      </trkpt>
      <trkpt lat="45.96923" lon="4.44318">
        <ele>795.2</ele>
        <time>2025-10-04T13:32:46Z</time>
      </trkpt>
      <trkpt lat="45.96924" lon="4.44317">
        <ele>795.6</ele>
        <time>2025-10-04T13:32:47Z</time>
      </trkpt>
      <trkpt lat="45.96924" lon="4.44316">
        <ele>796</ele>
        <time>2025-10-04T13:32:48Z</time>
      </trkpt>
      <trkpt lat="45.96925" lon="4.44315">
        <ele>796.2</ele>
        <time>2025-10-04T13:32:49Z</time>
      </trkpt>
      <trkpt lat="45.96925" lon="4.44314">
        <ele>796.6</ele>
        <time>2025-10-04T13:32:50Z</time>
      </trkpt>
      <trkpt lat="45.96925" lon="4.44313">
        <ele>796.6</ele>
        <time>2025-10-04T13:32:51Z</time>
      </trkpt>
      <trkpt lat="45.96925" lon="4.44312">
        <ele>797</ele>
        <time>2025-10-04T13:32:52Z</time>
      </trkpt>
      <trkpt lat="45.96925" lon="4.4431">
        <ele>797</ele>
        <time>2025-10-04T13:32:53Z</time>
      </trkpt>
      <trkpt lat="45.96925" lon="4.44308">
        <ele>797.4</ele>
        <time>2025-10-04T13:32:54Z</time>
      </trkpt>
      <trkpt lat="45.96926" lon="4.44307">
        <ele>797.6</ele>
        <time>2025-10-04T13:32:55Z</time>
      </trkpt>
      <trkpt lat="45.96927" lon="4.44306">
        <ele>797.8</ele>
        <time>2025-10-04T13:32:56Z</time>
      </trkpt>
      <trkpt lat="45.96928" lon="4.44304">
        <ele>798.2</ele>
        <time>2025-10-04T13:32:57Z</time>
      </trkpt>
      <trkpt lat="45.96929" lon="4.44303">
        <ele>798.6</ele>
        <time>2025-10-04T13:32:58Z</time>
      </trkpt>
      <trkpt lat="45.96929" lon="4.44302">
        <ele>798.8</ele>
        <time>2025-10-04T13:32:59Z</time>
      </trkpt>
      <trkpt lat="45.96929" lon="4.44301">
        <ele>798.8</ele>
        <time>2025-10-04T13:33:00Z</time>
      </trkpt>
      <trkpt lat="45.96929" lon="4.443">
        <ele>799.2</ele>
        <time>2025-10-04T13:33:01Z</time>
      </trkpt>
      <trkpt lat="45.96929" lon="4.44299">
        <ele>799.2</ele>
        <time>2025-10-04T13:33:02Z</time>
      </trkpt>
      <trkpt lat="45.9693" lon="4.44298">
        <ele>799.2</ele>
        <time>2025-10-04T13:33:03Z</time>
      </trkpt>
      <trkpt lat="45.9693" lon="4.44295">
        <ele>799.2</ele>
        <time>2025-10-04T13:33:04Z</time>
      </trkpt>
      <trkpt lat="45.96931" lon="4.44294">
        <ele>799.2</ele>
        <time>2025-10-04T13:33:05Z</time>
      </trkpt>
      <trkpt lat="45.96932" lon="4.44293">
        <ele>799.2</ele>
        <time>2025-10-04T13:33:06Z</time>
      </trkpt>
      <trkpt lat="45.96932" lon="4.44293">
        <ele>799.2</ele>
        <time>2025-10-04T13:33:07Z</time>
      </trkpt>
      <trkpt lat="45.96933" lon="4.44293">
        <ele>799.4</ele>
        <time>2025-10-04T13:33:08Z</time>
      </trkpt>
      <trkpt lat="45.96934" lon="4.44292">
        <ele>799.6</ele>
        <time>2025-10-04T13:33:09Z</time>
      </trkpt>
      <trkpt lat="45.96934" lon="4.44291">
        <ele>799.6</ele>
        <time>2025-10-04T13:33:10Z</time>
      </trkpt>
      <trkpt lat="45.96934" lon="4.4429">
        <ele>800</ele>
        <time>2025-10-04T13:33:11Z</time>
      </trkpt>
      <trkpt lat="45.96934" lon="4.44289">
        <ele>800.2</ele>
        <time>2025-10-04T13:33:12Z</time>
      </trkpt>
      <trkpt lat="45.96934" lon="4.44289">
        <ele>800.2</ele>
        <time>2025-10-04T13:33:13Z</time>
      </trkpt>
      <trkpt lat="45.96934" lon="4.44288">
        <ele>800.2</ele>
        <time>2025-10-04T13:33:14Z</time>
      </trkpt>
      <trkpt lat="45.96934" lon="4.44287">
        <ele>800.6</ele>
        <time>2025-10-04T13:33:15Z</time>
      </trkpt>
      <trkpt lat="45.96934" lon="4.44286">
        <ele>800.8</ele>
        <time>2025-10-04T13:33:16Z</time>
      </trkpt>
      <trkpt lat="45.96935" lon="4.44286">
        <ele>800.8</ele>
        <time>2025-10-04T13:33:17Z</time>
      </trkpt>
      <trkpt lat="45.96935" lon="4.44285">
        <ele>801.4</ele>
        <time>2025-10-04T13:33:18Z</time>
      </trkpt>
      <trkpt lat="45.96936" lon="4.44284">
        <ele>801.4</ele>
        <time>2025-10-04T13:33:19Z</time>
      </trkpt>
      <trkpt lat="45.96936" lon="4.44283">
        <ele>801.6</ele>
        <time>2025-10-04T13:33:20Z</time>
      </trkpt>
      <trkpt lat="45.96937" lon="4.44283">
        <ele>801.8</ele>
        <time>2025-10-04T13:33:21Z</time>
      </trkpt>
      <trkpt lat="45.96937" lon="4.44282">
        <ele>801.8</ele>
        <time>2025-10-04T13:33:22Z</time>
      </trkpt>
      <trkpt lat="45.96935" lon="4.44283">
        <ele>802</ele>
        <time>2025-10-04T13:33:23Z</time>
      </trkpt>
      <trkpt lat="45.96935" lon="4.44281">
        <ele>802.8</ele>
        <time>2025-10-04T13:33:28Z</time>
      </trkpt>
      <trkpt lat="45.96936" lon="4.4428">
        <ele>802.8</ele>
        <time>2025-10-04T13:33:29Z</time>
      </trkpt>
      <trkpt lat="45.96936" lon="4.44279">
        <ele>803</ele>
        <time>2025-10-04T13:33:30Z</time>
      </trkpt>
      <trkpt lat="45.96937" lon="4.44278">
        <ele>803.4</ele>
        <time>2025-10-04T13:33:31Z</time>
      </trkpt>
      <trkpt lat="45.96937" lon="4.44276">
        <ele>803.6</ele>
        <time>2025-10-04T13:33:32Z</time>
      </trkpt>
      <trkpt lat="45.96938" lon="4.44275">
        <ele>803.6</ele>
        <time>2025-10-04T13:33:33Z</time>
      </trkpt>
      <trkpt lat="45.96938" lon="4.44274">
        <ele>804</ele>
        <time>2025-10-04T13:33:34Z</time>
      </trkpt>
      <trkpt lat="45.96937" lon="4.44273">
        <ele>804</ele>
        <time>2025-10-04T13:33:35Z</time>
      </trkpt>
      <trkpt lat="45.96937" lon="4.44271">
        <ele>804.2</ele>
        <time>2025-10-04T13:33:36Z</time>
      </trkpt>
      <trkpt lat="45.96937" lon="4.4427">
        <ele>804.6</ele>
        <time>2025-10-04T13:33:37Z</time>
      </trkpt>
      <trkpt lat="45.96937" lon="4.44268">
        <ele>804.6</ele>
        <time>2025-10-04T13:33:38Z</time>
      </trkpt>
      <trkpt lat="45.96937" lon="4.44267">
        <ele>804.8</ele>
        <time>2025-10-04T13:33:39Z</time>
      </trkpt>
      <trkpt lat="45.96937" lon="4.44265">
        <ele>805.2</ele>
        <time>2025-10-04T13:33:40Z</time>
      </trkpt>
      <trkpt lat="45.96937" lon="4.44264">
        <ele>805.4</ele>
        <time>2025-10-04T13:33:41Z</time>
      </trkpt>
      <trkpt lat="45.96937" lon="4.44264">
        <ele>805.6</ele>
        <time>2025-10-04T13:33:42Z</time>
      </trkpt>
      <trkpt lat="45.96937" lon="4.44262">
        <ele>805.8</ele>
        <time>2025-10-04T13:33:43Z</time>
      </trkpt>
      <trkpt lat="45.96937" lon="4.44261">
        <ele>805.8</ele>
        <time>2025-10-04T13:33:44Z</time>
      </trkpt>
      <trkpt lat="45.96937" lon="4.44259">
        <ele>806.2</ele>
        <time>2025-10-04T13:33:45Z</time>
      </trkpt>
      <trkpt lat="45.96937" lon="4.44259">
        <ele>806.2</ele>
        <time>2025-10-04T13:33:46Z</time>
      </trkpt>
      <trkpt lat="45.96937" lon="4.44258">
        <ele>806.4</ele>
        <time>2025-10-04T13:33:47Z</time>
      </trkpt>
      <trkpt lat="45.96937" lon="4.44257">
        <ele>806.4</ele>
        <time>2025-10-04T13:33:48Z</time>
      </trkpt>
      <trkpt lat="45.96937" lon="4.44257">
        <ele>806.6</ele>
        <time>2025-10-04T13:33:49Z</time>
      </trkpt>
      <trkpt lat="45.96938" lon="4.44256">
        <ele>806.8</ele>
        <time>2025-10-04T13:33:50Z</time>
      </trkpt>
      <trkpt lat="45.96938" lon="4.44255">
        <ele>807</ele>
        <time>2025-10-04T13:33:51Z</time>
      </trkpt>
      <trkpt lat="45.96938" lon="4.44255">
        <ele>807.4</ele>
        <time>2025-10-04T13:33:52Z</time>
      </trkpt>
      <trkpt lat="45.96939" lon="4.44254">
        <ele>807.6</ele>
        <time>2025-10-04T13:33:53Z</time>
      </trkpt>
      <trkpt lat="45.9694" lon="4.44252">
        <ele>807.8</ele>
        <time>2025-10-04T13:33:54Z</time>
      </trkpt>
      <trkpt lat="45.96941" lon="4.4425">
        <ele>808.2</ele>
        <time>2025-10-04T13:33:55Z</time>
      </trkpt>
      <trkpt lat="45.96941" lon="4.44249">
        <ele>808.2</ele>
        <time>2025-10-04T13:33:56Z</time>
      </trkpt>
      <trkpt lat="45.96941" lon="4.44247">
        <ele>808.6</ele>
        <time>2025-10-04T13:33:57Z</time>
      </trkpt>
      <trkpt lat="45.9694" lon="4.44245">
        <ele>808.6</ele>
        <time>2025-10-04T13:33:58Z</time>
      </trkpt>
      <trkpt lat="45.9694" lon="4.44244">
        <ele>808.6</ele>
        <time>2025-10-04T13:33:59Z</time>
      </trkpt>
      <trkpt lat="45.9694" lon="4.44243">
        <ele>808.8</ele>
        <time>2025-10-04T13:34:00Z</time>
      </trkpt>
      <trkpt lat="45.96941" lon="4.44241">
        <ele>809</ele>
        <time>2025-10-04T13:34:01Z</time>
      </trkpt>
      <trkpt lat="45.96941" lon="4.4424">
        <ele>809.4</ele>
        <time>2025-10-04T13:34:02Z</time>
      </trkpt>
      <trkpt lat="45.96942" lon="4.44239">
        <ele>809.4</ele>
        <time>2025-10-04T13:34:03Z</time>
      </trkpt>
      <trkpt lat="45.96943" lon="4.44238">
        <ele>809.4</ele>
        <time>2025-10-04T13:34:04Z</time>
      </trkpt>
      <trkpt lat="45.96943" lon="4.44237">
        <ele>809.8</ele>
        <time>2025-10-04T13:34:05Z</time>
      </trkpt>
      <trkpt lat="45.96944" lon="4.44235">
        <ele>809.8</ele>
        <time>2025-10-04T13:34:06Z</time>
      </trkpt>
      <trkpt lat="45.96944" lon="4.44233">
        <ele>810</ele>
        <time>2025-10-04T13:34:07Z</time>
      </trkpt>
      <trkpt lat="45.96945" lon="4.44232">
        <ele>810</ele>
        <time>2025-10-04T13:34:08Z</time>
      </trkpt>
      <trkpt lat="45.96945" lon="4.44231">
        <ele>810</ele>
        <time>2025-10-04T13:34:09Z</time>
      </trkpt>
      <trkpt lat="45.96945" lon="4.4423">
        <ele>810.4</ele>
        <time>2025-10-04T13:34:10Z</time>
      </trkpt>
      <trkpt lat="45.96945" lon="4.4423">
        <ele>810.4</ele>
        <time>2025-10-04T13:34:11Z</time>
      </trkpt>
      <trkpt lat="45.96945" lon="4.44228">
        <ele>810.4</ele>
        <time>2025-10-04T13:34:12Z</time>
      </trkpt>
      <trkpt lat="45.96946" lon="4.44228">
        <ele>810.6</ele>
        <time>2025-10-04T13:34:13Z</time>
      </trkpt>
      <trkpt lat="45.96945" lon="4.44227">
        <ele>810.6</ele>
        <time>2025-10-04T13:34:14Z</time>
      </trkpt>
      <trkpt lat="45.96945" lon="4.44227">
        <ele>811</ele>
        <time>2025-10-04T13:34:15Z</time>
      </trkpt>
      <trkpt lat="45.96946" lon="4.44225">
        <ele>811</ele>
        <time>2025-10-04T13:34:16Z</time>
      </trkpt>
      <trkpt lat="45.96946" lon="4.44224">
        <ele>811</ele>
        <time>2025-10-04T13:34:17Z</time>
      </trkpt>
      <trkpt lat="45.96946" lon="4.44224">
        <ele>811.2</ele>
        <time>2025-10-04T13:34:18Z</time>
      </trkpt>
      <trkpt lat="45.96947" lon="4.44223">
        <ele>811.2</ele>
        <time>2025-10-04T13:34:19Z</time>
      </trkpt>
      <trkpt lat="45.96947" lon="4.44223">
        <ele>811.6</ele>
        <time>2025-10-04T13:34:20Z</time>
      </trkpt>
      <trkpt lat="45.96947" lon="4.44223">
        <ele>811.8</ele>
        <time>2025-10-04T13:34:21Z</time>
      </trkpt>
      <trkpt lat="45.96948" lon="4.44221">
        <ele>812.2</ele>
        <time>2025-10-04T13:34:22Z</time>
      </trkpt>
      <trkpt lat="45.96948" lon="4.4422">
        <ele>812.4</ele>
        <time>2025-10-04T13:34:23Z</time>
      </trkpt>
      <trkpt lat="45.96948" lon="4.44219">
        <ele>812.6</ele>
        <time>2025-10-04T13:34:24Z</time>
      </trkpt>
      <trkpt lat="45.96949" lon="4.44218">
        <ele>812.6</ele>
        <time>2025-10-04T13:34:25Z</time>
      </trkpt>
      <trkpt lat="45.96949" lon="4.44216">
        <ele>812.8</ele>
        <time>2025-10-04T13:34:26Z</time>
      </trkpt>
      <trkpt lat="45.9695" lon="4.44215">
        <ele>812.8</ele>
        <time>2025-10-04T13:34:27Z</time>
      </trkpt>
      <trkpt lat="45.9695" lon="4.44214">
        <ele>813.2</ele>
        <time>2025-10-04T13:34:28Z</time>
      </trkpt>
      <trkpt lat="45.96949" lon="4.44212">
        <ele>813.2</ele>
        <time>2025-10-04T13:34:29Z</time>
      </trkpt>
      <trkpt lat="45.96949" lon="4.4421">
        <ele>813.4</ele>
        <time>2025-10-04T13:34:30Z</time>
      </trkpt>
      <trkpt lat="45.96949" lon="4.44209">
        <ele>813.4</ele>
        <time>2025-10-04T13:34:31Z</time>
      </trkpt>
      <trkpt lat="45.9695" lon="4.44208">
        <ele>813.4</ele>
        <time>2025-10-04T13:34:32Z</time>
      </trkpt>
      <trkpt lat="45.9695" lon="4.44207">
        <ele>813.8</ele>
        <time>2025-10-04T13:34:33Z</time>
      </trkpt>
      <trkpt lat="45.9695" lon="4.44206">
        <ele>813.8</ele>
        <time>2025-10-04T13:34:34Z</time>
      </trkpt>
      <trkpt lat="45.96951" lon="4.44205">
        <ele>813.8</ele>
        <time>2025-10-04T13:34:35Z</time>
      </trkpt>
      <trkpt lat="45.96951" lon="4.44203">
        <ele>814</ele>
        <time>2025-10-04T13:34:36Z</time>
      </trkpt>
      <trkpt lat="45.96951" lon="4.44202">
        <ele>814.2</ele>
        <time>2025-10-04T13:34:37Z</time>
      </trkpt>
      <trkpt lat="45.96951" lon="4.442">
        <ele>814.6</ele>
        <time>2025-10-04T13:34:38Z</time>
      </trkpt>
      <trkpt lat="45.96952" lon="4.44198">
        <ele>814.8</ele>
        <time>2025-10-04T13:34:39Z</time>
      </trkpt>
      <trkpt lat="45.96952" lon="4.44198">
        <ele>815</ele>
        <time>2025-10-04T13:34:40Z</time>
      </trkpt>
      <trkpt lat="45.96953" lon="4.44196">
        <ele>815</ele>
        <time>2025-10-04T13:34:41Z</time>
      </trkpt>
      <trkpt lat="45.96954" lon="4.44194">
        <ele>815.2</ele>
        <time>2025-10-04T13:34:42Z</time>
      </trkpt>
      <trkpt lat="45.96954" lon="4.44193">
        <ele>815.2</ele>
        <time>2025-10-04T13:34:43Z</time>
      </trkpt>
      <trkpt lat="45.96955" lon="4.44192">
        <ele>815.6</ele>
        <time>2025-10-04T13:34:44Z</time>
      </trkpt>
      <trkpt lat="45.96955" lon="4.44191">
        <ele>815.6</ele>
        <time>2025-10-04T13:34:45Z</time>
      </trkpt>
      <trkpt lat="45.96956" lon="4.44191">
        <ele>815.8</ele>
        <time>2025-10-04T13:34:46Z</time>
      </trkpt>
      <trkpt lat="45.96956" lon="4.4419">
        <ele>815.8</ele>
        <time>2025-10-04T13:34:47Z</time>
      </trkpt>
      <trkpt lat="45.96957" lon="4.44188">
        <ele>815.8</ele>
        <time>2025-10-04T13:34:48Z</time>
      </trkpt>
      <trkpt lat="45.96957" lon="4.44187">
        <ele>815.8</ele>
        <time>2025-10-04T13:34:49Z</time>
      </trkpt>
      <trkpt lat="45.96957" lon="4.44186">
        <ele>815.8</ele>
        <time>2025-10-04T13:34:50Z</time>
      </trkpt>
      <trkpt lat="45.96958" lon="4.44185">
        <ele>816</ele>
        <time>2025-10-04T13:34:51Z</time>
      </trkpt>
      <trkpt lat="45.96958" lon="4.44185">
        <ele>816</ele>
        <time>2025-10-04T13:34:52Z</time>
      </trkpt>
      <trkpt lat="45.96958" lon="4.44184">
        <ele>816</ele>
        <time>2025-10-04T13:34:53Z</time>
      </trkpt>
      <trkpt lat="45.96958" lon="4.44184">
        <ele>815.6</ele>
        <time>2025-10-04T13:34:54Z</time>
      </trkpt>
      <trkpt lat="45.96959" lon="4.44181">
        <ele>816.6</ele>
        <time>2025-10-04T13:35:05Z</time>
      </trkpt>
      <trkpt lat="45.9696" lon="4.4418">
        <ele>816.6</ele>
        <time>2025-10-04T13:35:06Z</time>
      </trkpt>
      <trkpt lat="45.96961" lon="4.4418">
        <ele>816.6</ele>
        <time>2025-10-04T13:35:07Z</time>
      </trkpt>
      <trkpt lat="45.96961" lon="4.4418">
        <ele>816.4</ele>
        <time>2025-10-04T13:35:08Z</time>
      </trkpt>
      <trkpt lat="45.9696" lon="4.4418">
        <ele>816.4</ele>
        <time>2025-10-04T13:35:09Z</time>
      </trkpt>
      <trkpt lat="45.9696" lon="4.4418">
        <ele>816.4</ele>
        <time>2025-10-04T13:35:10Z</time>
      </trkpt>
      <trkpt lat="45.96963" lon="4.44172">
        <ele>817.2</ele>
        <time>2025-10-04T13:37:40Z</time>
      </trkpt>
      <trkpt lat="45.96963" lon="4.4417">
        <ele>817.2</ele>
        <time>2025-10-04T13:37:41Z</time>
      </trkpt>
      <trkpt lat="45.96964" lon="4.44169">
        <ele>817.2</ele>
        <time>2025-10-04T13:37:42Z</time>
      </trkpt>
      <trkpt lat="45.96965" lon="4.44166">
        <ele>817.2</ele>
        <time>2025-10-04T13:37:43Z</time>
      </trkpt>
      <trkpt lat="45.96966" lon="4.44163">
        <ele>817.2</ele>
        <time>2025-10-04T13:37:44Z</time>
      </trkpt>
      <trkpt lat="45.96967" lon="4.44161">
        <ele>817.4</ele>
        <time>2025-10-04T13:37:45Z</time>
      </trkpt>
      <trkpt lat="45.96967" lon="4.4416">
        <ele>817.4</ele>
        <time>2025-10-04T13:37:46Z</time>
      </trkpt>
      <trkpt lat="45.96968" lon="4.44157">
        <ele>817.4</ele>
        <time>2025-10-04T13:37:47Z</time>
      </trkpt>
      <trkpt lat="45.96969" lon="4.44156">
        <ele>817.4</ele>
        <time>2025-10-04T13:37:48Z</time>
      </trkpt>
      <trkpt lat="45.9697" lon="4.44154">
        <ele>817.6</ele>
        <time>2025-10-04T13:37:49Z</time>
      </trkpt>
      <trkpt lat="45.9697" lon="4.44152">
        <ele>817.6</ele>
        <time>2025-10-04T13:37:50Z</time>
      </trkpt>
      <trkpt lat="45.9697" lon="4.4415">
        <ele>817.6</ele>
        <time>2025-10-04T13:37:51Z</time>
      </trkpt>
      <trkpt lat="45.96971" lon="4.44146">
        <ele>818</ele>
        <time>2025-10-04T13:37:52Z</time>
      </trkpt>
      <trkpt lat="45.96971" lon="4.44143">
        <ele>818</ele>
        <time>2025-10-04T13:37:53Z</time>
      </trkpt>
      <trkpt lat="45.9697" lon="4.4414">
        <ele>818</ele>
        <time>2025-10-04T13:37:54Z</time>
      </trkpt>
      <trkpt lat="45.9697" lon="4.44137">
        <ele>818.2</ele>
        <time>2025-10-04T13:37:55Z</time>
      </trkpt>
      <trkpt lat="45.96971" lon="4.44135">
        <ele>818.4</ele>
        <time>2025-10-04T13:37:56Z</time>
      </trkpt>
      <trkpt lat="45.96972" lon="4.44131">
        <ele>818.4</ele>
        <time>2025-10-04T13:37:57Z</time>
      </trkpt>
      <trkpt lat="45.96973" lon="4.44128">
        <ele>818.8</ele>
        <time>2025-10-04T13:37:58Z</time>
      </trkpt>
      <trkpt lat="45.96974" lon="4.44126">
        <ele>818.8</ele>
        <time>2025-10-04T13:37:59Z</time>
      </trkpt>
      <trkpt lat="45.96975" lon="4.44123">
        <ele>818.8</ele>
        <time>2025-10-04T13:38:00Z</time>
      </trkpt>
      <trkpt lat="45.96976" lon="4.44122">
        <ele>818.4</ele>
        <time>2025-10-04T13:38:01Z</time>
      </trkpt>
      <trkpt lat="45.96977" lon="4.44121">
        <ele>818.2</ele>
        <time>2025-10-04T13:38:02Z</time>
      </trkpt>
      <trkpt lat="45.96978" lon="4.4412">
        <ele>818.2</ele>
        <time>2025-10-04T13:38:03Z</time>
      </trkpt>
      <trkpt lat="45.96979" lon="4.44118">
        <ele>818</ele>
        <time>2025-10-04T13:38:04Z</time>
      </trkpt>
      <trkpt lat="45.9698" lon="4.44116">
        <ele>818</ele>
        <time>2025-10-04T13:38:05Z</time>
      </trkpt>
      <trkpt lat="45.9698" lon="4.44114">
        <ele>818</ele>
        <time>2025-10-04T13:38:06Z</time>
      </trkpt>
      <trkpt lat="45.96981" lon="4.44111">
        <ele>818.2</ele>
        <time>2025-10-04T13:38:07Z</time>
      </trkpt>
      <trkpt lat="45.96981" lon="4.44109">
        <ele>817</ele>
        <time>2025-10-04T13:38:08Z</time>
      </trkpt>
      <trkpt lat="45.96981" lon="4.44106">
        <ele>817.4</ele>
        <time>2025-10-04T13:38:09Z</time>
      </trkpt>
      <trkpt lat="45.96982" lon="4.44105">
        <ele>817.4</ele>
        <time>2025-10-04T13:38:10Z</time>
      </trkpt>
      <trkpt lat="45.96982" lon="4.44102">
        <ele>817.4</ele>
        <time>2025-10-04T13:38:11Z</time>
      </trkpt>
      <trkpt lat="45.96982" lon="4.441">
        <ele>817.4</ele>
        <time>2025-10-04T13:38:12Z</time>
      </trkpt>
      <trkpt lat="45.96981" lon="4.44098">
        <ele>817.6</ele>
        <time>2025-10-04T13:38:13Z</time>
      </trkpt>
      <trkpt lat="45.96981" lon="4.44096">
        <ele>817.6</ele>
        <time>2025-10-04T13:38:14Z</time>
      </trkpt>
      <trkpt lat="45.96981" lon="4.44094">
        <ele>817.6</ele>
        <time>2025-10-04T13:38:15Z</time>
      </trkpt>
      <trkpt lat="45.96982" lon="4.44092">
        <ele>817.4</ele>
        <time>2025-10-04T13:38:16Z</time>
      </trkpt>
      <trkpt lat="45.96982" lon="4.44089">
        <ele>817</ele>
        <time>2025-10-04T13:38:17Z</time>
      </trkpt>
      <trkpt lat="45.96981" lon="4.44085">
        <ele>816.6</ele>
        <time>2025-10-04T13:38:18Z</time>
      </trkpt>
      <trkpt lat="45.96981" lon="4.44081">
        <ele>816.6</ele>
        <time>2025-10-04T13:38:19Z</time>
      </trkpt>
      <trkpt lat="45.96982" lon="4.44076">
        <ele>816.4</ele>
        <time>2025-10-04T13:38:20Z</time>
      </trkpt>
      <trkpt lat="45.96982" lon="4.44072">
        <ele>816.4</ele>
        <time>2025-10-04T13:38:21Z</time>
      </trkpt>
      <trkpt lat="45.96981" lon="4.44069">
        <ele>815.4</ele>
        <time>2025-10-04T13:38:22Z</time>
      </trkpt>
      <trkpt lat="45.96981" lon="4.44066">
        <ele>815.4</ele>
        <time>2025-10-04T13:38:23Z</time>
      </trkpt>
      <trkpt lat="45.96981" lon="4.44061">
        <ele>814.2</ele>
        <time>2025-10-04T13:38:24Z</time>
      </trkpt>
      <trkpt lat="45.9698" lon="4.44054">
        <ele>813.8</ele>
        <time>2025-10-04T13:38:25Z</time>
      </trkpt>
      <trkpt lat="45.96979" lon="4.44051">
        <ele>813.8</ele>
        <time>2025-10-04T13:38:26Z</time>
      </trkpt>
      <trkpt lat="45.96979" lon="4.44047">
        <ele>813.2</ele>
        <time>2025-10-04T13:38:27Z</time>
      </trkpt>
      <trkpt lat="45.96979" lon="4.44043">
        <ele>813.2</ele>
        <time>2025-10-04T13:38:28Z</time>
      </trkpt>
      <trkpt lat="45.96979" lon="4.44038">
        <ele>812.6</ele>
        <time>2025-10-04T13:38:29Z</time>
      </trkpt>
      <trkpt lat="45.96978" lon="4.44033">
        <ele>812.2</ele>
        <time>2025-10-04T13:38:30Z</time>
      </trkpt>
      <trkpt lat="45.96977" lon="4.44026">
        <ele>811.6</ele>
        <time>2025-10-04T13:38:31Z</time>
      </trkpt>
      <trkpt lat="45.96977" lon="4.4402">
        <ele>811</ele>
        <time>2025-10-04T13:38:32Z</time>
      </trkpt>
      <trkpt lat="45.96977" lon="4.44013">
        <ele>810.4</ele>
        <time>2025-10-04T13:38:33Z</time>
      </trkpt>
      <trkpt lat="45.96977" lon="4.44008">
        <ele>809.6</ele>
        <time>2025-10-04T13:38:34Z</time>
      </trkpt>
      <trkpt lat="45.96977" lon="4.44004">
        <ele>809.2</ele>
        <time>2025-10-04T13:38:35Z</time>
      </trkpt>
      <trkpt lat="45.96977" lon="4.44002">
        <ele>809.2</ele>
        <time>2025-10-04T13:38:36Z</time>
      </trkpt>
      <trkpt lat="45.96978" lon="4.44">
        <ele>809.2</ele>
        <time>2025-10-04T13:38:37Z</time>
      </trkpt>
      <trkpt lat="45.96978" lon="4.43998">
        <ele>808.8</ele>
        <time>2025-10-04T13:38:38Z</time>
      </trkpt>
      <trkpt lat="45.96979" lon="4.43995">
        <ele>808.8</ele>
        <time>2025-10-04T13:38:39Z</time>
      </trkpt>
      <trkpt lat="45.96981" lon="4.43993">
        <ele>808.4</ele>
        <time>2025-10-04T13:38:40Z</time>
      </trkpt>
      <trkpt lat="45.96982" lon="4.43992">
        <ele>808.2</ele>
        <time>2025-10-04T13:38:41Z</time>
      </trkpt>
      <trkpt lat="45.96983" lon="4.43989">
        <ele>808</ele>
        <time>2025-10-04T13:38:42Z</time>
      </trkpt>
      <trkpt lat="45.96983" lon="4.43987">
        <ele>808</ele>
        <time>2025-10-04T13:38:43Z</time>
      </trkpt>
      <trkpt lat="45.96984" lon="4.43987">
        <ele>807.6</ele>
        <time>2025-10-04T13:38:44Z</time>
      </trkpt>
      <trkpt lat="45.96983" lon="4.43986">
        <ele>807.6</ele>
        <time>2025-10-04T13:38:45Z</time>
      </trkpt>
      <trkpt lat="45.96983" lon="4.43972">
        <ele>804</ele>
        <time>2025-10-04T13:38:56Z</time>
      </trkpt>
      <trkpt lat="45.96985" lon="4.43968">
        <ele>804</ele>
        <time>2025-10-04T13:38:57Z</time>
      </trkpt>
      <trkpt lat="45.96986" lon="4.43963">
        <ele>803.8</ele>
        <time>2025-10-04T13:38:58Z</time>
      </trkpt>
      <trkpt lat="45.96988" lon="4.43959">
        <ele>803.2</ele>
        <time>2025-10-04T13:38:59Z</time>
      </trkpt>
      <trkpt lat="45.96991" lon="4.43955">
        <ele>802</ele>
        <time>2025-10-04T13:39:00Z</time>
      </trkpt>
      <trkpt lat="45.96993" lon="4.4395">
        <ele>801.4</ele>
        <time>2025-10-04T13:39:01Z</time>
      </trkpt>
      <trkpt lat="45.96995" lon="4.43946">
        <ele>801.8</ele>
        <time>2025-10-04T13:39:02Z</time>
      </trkpt>
      <trkpt lat="45.96998" lon="4.43942">
        <ele>801.8</ele>
        <time>2025-10-04T13:39:03Z</time>
      </trkpt>
      <trkpt lat="45.97001" lon="4.43939">
        <ele>801</ele>
        <time>2025-10-04T13:39:04Z</time>
      </trkpt>
      <trkpt lat="45.97003" lon="4.43937">
        <ele>800</ele>
        <time>2025-10-04T13:39:05Z</time>
      </trkpt>
      <trkpt lat="45.97006" lon="4.43935">
        <ele>799.8</ele>
        <time>2025-10-04T13:39:06Z</time>
      </trkpt>
      <trkpt lat="45.9701" lon="4.43933">
        <ele>798.8</ele>
        <time>2025-10-04T13:39:07Z</time>
      </trkpt>
      <trkpt lat="45.97013" lon="4.43932">
        <ele>798.4</ele>
        <time>2025-10-04T13:39:08Z</time>
      </trkpt>
      <trkpt lat="45.97017" lon="4.43929">
        <ele>797.6</ele>
        <time>2025-10-04T13:39:09Z</time>
      </trkpt>
      <trkpt lat="45.97021" lon="4.43926">
        <ele>797.2</ele>
        <time>2025-10-04T13:39:10Z</time>
      </trkpt>
      <trkpt lat="45.97023" lon="4.43923">
        <ele>796.4</ele>
        <time>2025-10-04T13:39:11Z</time>
      </trkpt>
      <trkpt lat="45.97025" lon="4.4392">
        <ele>795.6</ele>
        <time>2025-10-04T13:39:12Z</time>
      </trkpt>
      <trkpt lat="45.97025" lon="4.43917">
        <ele>794.8</ele>
        <time>2025-10-04T13:39:13Z</time>
      </trkpt>
      <trkpt lat="45.97025" lon="4.43914">
        <ele>793.8</ele>
        <time>2025-10-04T13:39:14Z</time>
      </trkpt>
      <trkpt lat="45.97027" lon="4.43908">
        <ele>792.8</ele>
        <time>2025-10-04T13:39:15Z</time>
      </trkpt>
      <trkpt lat="45.97028" lon="4.43901">
        <ele>791.8</ele>
        <time>2025-10-04T13:39:16Z</time>
      </trkpt>
      <trkpt lat="45.97028" lon="4.43901">
        <ele>791.2</ele>
        <time>2025-10-04T13:39:17Z</time>
      </trkpt>
      <trkpt lat="45.97028" lon="4.43894">
        <ele>791.2</ele>
        <time>2025-10-04T13:39:18Z</time>
      </trkpt>
      <trkpt lat="45.97028" lon="4.43887">
        <ele>790.6</ele>
        <time>2025-10-04T13:39:19Z</time>
      </trkpt>
      <trkpt lat="45.97027" lon="4.43881">
        <ele>790.6</ele>
        <time>2025-10-04T13:39:20Z</time>
      </trkpt>
      <trkpt lat="45.97024" lon="4.43868">
        <ele>789.6</ele>
        <time>2025-10-04T13:39:21Z</time>
      </trkpt>
      <trkpt lat="45.97023" lon="4.43862">
        <ele>788.4</ele>
        <time>2025-10-04T13:39:22Z</time>
      </trkpt>
      <trkpt lat="45.97022" lon="4.43858">
        <ele>788</ele>
        <time>2025-10-04T13:39:23Z</time>
      </trkpt>
      <trkpt lat="45.97021" lon="4.43849">
        <ele>786.8</ele>
        <time>2025-10-04T13:39:24Z</time>
      </trkpt>
      <trkpt lat="45.97021" lon="4.43847">
        <ele>785.8</ele>
        <time>2025-10-04T13:39:25Z</time>
      </trkpt>
      <trkpt lat="45.97022" lon="4.43842">
        <ele>785.2</ele>
        <time>2025-10-04T13:39:26Z</time>
      </trkpt>
      <trkpt lat="45.97023" lon="4.43837">
        <ele>784.8</ele>
        <time>2025-10-04T13:39:27Z</time>
      </trkpt>
      <trkpt lat="45.97022" lon="4.4383">
        <ele>783.4</ele>
        <time>2025-10-04T13:39:28Z</time>
      </trkpt>
      <trkpt lat="45.97022" lon="4.43825">
        <ele>782.6</ele>
        <time>2025-10-04T13:39:29Z</time>
      </trkpt>
      <trkpt lat="45.97023" lon="4.43818">
        <ele>782</ele>
        <time>2025-10-04T13:39:30Z</time>
      </trkpt>
      <trkpt lat="45.97026" lon="4.43813">
        <ele>781.4</ele>
        <time>2025-10-04T13:39:31Z</time>
      </trkpt>
      <trkpt lat="45.97024" lon="4.43809">
        <ele>781</ele>
        <time>2025-10-04T13:39:32Z</time>
      </trkpt>
      <trkpt lat="45.97025" lon="4.43802">
        <ele>780.4</ele>
        <time>2025-10-04T13:39:33Z</time>
      </trkpt>
      <trkpt lat="45.97025" lon="4.43795">
        <ele>780.4</ele>
        <time>2025-10-04T13:39:34Z</time>
      </trkpt>
      <trkpt lat="45.97024" lon="4.43789">
        <ele>780</ele>
        <time>2025-10-04T13:39:35Z</time>
      </trkpt>
      <trkpt lat="45.97026" lon="4.43779">
        <ele>779.4</ele>
        <time>2025-10-04T13:39:36Z</time>
      </trkpt>
      <trkpt lat="45.97026" lon="4.43774">
        <ele>778.4</ele>
        <time>2025-10-04T13:39:37Z</time>
      </trkpt>
      <trkpt lat="45.97027" lon="4.43768">
        <ele>777.2</ele>
        <time>2025-10-04T13:39:38Z</time>
      </trkpt>
      <trkpt lat="45.97028" lon="4.43763">
        <ele>775.6</ele>
        <time>2025-10-04T13:39:39Z</time>
      </trkpt>
      <trkpt lat="45.97027" lon="4.43758">
        <ele>774.6</ele>
        <time>2025-10-04T13:39:40Z</time>
      </trkpt>
      <trkpt lat="45.97028" lon="4.43749">
        <ele>774</ele>
        <time>2025-10-04T13:39:41Z</time>
      </trkpt>
      <trkpt lat="45.97029" lon="4.43744">
        <ele>773.6</ele>
        <time>2025-10-04T13:39:42Z</time>
      </trkpt>
      <trkpt lat="45.97029" lon="4.43738">
        <ele>772.8</ele>
        <time>2025-10-04T13:39:43Z</time>
      </trkpt>
      <trkpt lat="45.97029" lon="4.43733">
        <ele>772</ele>
        <time>2025-10-04T13:39:44Z</time>
      </trkpt>
      <trkpt lat="45.97031" lon="4.43728">
        <ele>771.8</ele>
        <time>2025-10-04T13:39:45Z</time>
      </trkpt>
      <trkpt lat="45.97032" lon="4.43724">
        <ele>771.4</ele>
        <time>2025-10-04T13:39:46Z</time>
      </trkpt>
      <trkpt lat="45.97033" lon="4.43717">
        <ele>770.8</ele>
        <time>2025-10-04T13:39:47Z</time>
      </trkpt>
      <trkpt lat="45.97034" lon="4.4371">
        <ele>770</ele>
        <time>2025-10-04T13:39:48Z</time>
      </trkpt>
      <trkpt lat="45.97034" lon="4.43705">
        <ele>769.2</ele>
        <time>2025-10-04T13:39:49Z</time>
      </trkpt>
      <trkpt lat="45.97034" lon="4.43698">
        <ele>768.8</ele>
        <time>2025-10-04T13:39:50Z</time>
      </trkpt>
      <trkpt lat="45.97034" lon="4.43691">
        <ele>768.2</ele>
        <time>2025-10-04T13:39:51Z</time>
      </trkpt>
      <trkpt lat="45.97035" lon="4.43685">
        <ele>767.4</ele>
        <time>2025-10-04T13:39:52Z</time>
      </trkpt>
      <trkpt lat="45.97036" lon="4.43683">
        <ele>766.4</ele>
        <time>2025-10-04T13:39:53Z</time>
      </trkpt>
      <trkpt lat="45.97038" lon="4.43678">
        <ele>766.2</ele>
        <time>2025-10-04T13:39:54Z</time>
      </trkpt>
      <trkpt lat="45.97039" lon="4.43674">
        <ele>765.6</ele>
        <time>2025-10-04T13:39:55Z</time>
      </trkpt>
      <trkpt lat="45.97041" lon="4.43672">
        <ele>764.8</ele>
        <time>2025-10-04T13:39:56Z</time>
      </trkpt>
      <trkpt lat="45.97043" lon="4.4367">
        <ele>764.2</ele>
        <time>2025-10-04T13:39:57Z</time>
      </trkpt>
      <trkpt lat="45.97046" lon="4.4367">
        <ele>763.6</ele>
        <time>2025-10-04T13:39:58Z</time>
      </trkpt>
      <trkpt lat="45.97049" lon="4.43669">
        <ele>763.2</ele>
        <time>2025-10-04T13:39:59Z</time>
      </trkpt>
      <trkpt lat="45.97052" lon="4.43667">
        <ele>762.8</ele>
        <time>2025-10-04T13:40:00Z</time>
      </trkpt>
      <trkpt lat="45.97055" lon="4.43665">
        <ele>761.8</ele>
        <time>2025-10-04T13:40:01Z</time>
      </trkpt>
      <trkpt lat="45.97057" lon="4.43665">
        <ele>761.4</ele>
        <time>2025-10-04T13:40:02Z</time>
      </trkpt>
      <trkpt lat="45.97058" lon="4.43664">
        <ele>761</ele>
        <time>2025-10-04T13:40:03Z</time>
      </trkpt>
      <trkpt lat="45.97059" lon="4.43664">
        <ele>760.4</ele>
        <time>2025-10-04T13:40:04Z</time>
      </trkpt>
      <trkpt lat="45.9706" lon="4.43663">
        <ele>760.2</ele>
        <time>2025-10-04T13:40:05Z</time>
      </trkpt>
      <trkpt lat="45.97061" lon="4.43663">
        <ele>759.8</ele>
        <time>2025-10-04T13:40:06Z</time>
      </trkpt>
      <trkpt lat="45.97061" lon="4.43662">
        <ele>759.8</ele>
        <time>2025-10-04T13:40:07Z</time>
      </trkpt>
      <trkpt lat="45.97068" lon="4.43663">
        <ele>757.6</ele>
        <time>2025-10-04T13:40:17Z</time>
      </trkpt>
      <trkpt lat="45.97072" lon="4.43664">
        <ele>757</ele>
        <time>2025-10-04T13:40:18Z</time>
      </trkpt>
      <trkpt lat="45.97075" lon="4.43665">
        <ele>756.8</ele>
        <time>2025-10-04T13:40:19Z</time>
      </trkpt>
      <trkpt lat="45.97077" lon="4.43665">
        <ele>756.8</ele>
        <time>2025-10-04T13:40:20Z</time>
      </trkpt>
      <trkpt lat="45.9708" lon="4.43666">
        <ele>756</ele>
        <time>2025-10-04T13:40:21Z</time>
      </trkpt>
      <trkpt lat="45.97083" lon="4.43667">
        <ele>755.4</ele>
        <time>2025-10-04T13:40:22Z</time>
      </trkpt>
      <trkpt lat="45.97088" lon="4.43668">
        <ele>754.6</ele>
        <time>2025-10-04T13:40:23Z</time>
      </trkpt>
      <trkpt lat="45.97093" lon="4.43668">
        <ele>754.2</ele>
        <time>2025-10-04T13:40:24Z</time>
      </trkpt>
      <trkpt lat="45.97098" lon="4.43669">
        <ele>754.2</ele>
        <time>2025-10-04T13:40:25Z</time>
      </trkpt>
      <trkpt lat="45.97102" lon="4.4367">
        <ele>753.6</ele>
        <time>2025-10-04T13:40:26Z</time>
      </trkpt>
      <trkpt lat="45.97107" lon="4.43671">
        <ele>753.2</ele>
        <time>2025-10-04T13:40:27Z</time>
      </trkpt>
      <trkpt lat="45.9711" lon="4.43672">
        <ele>752.6</ele>
        <time>2025-10-04T13:40:28Z</time>
      </trkpt>
      <trkpt lat="45.97114" lon="4.43672">
        <ele>752.6</ele>
        <time>2025-10-04T13:40:29Z</time>
      </trkpt>
      <trkpt lat="45.97118" lon="4.43673">
        <ele>751.4</ele>
        <time>2025-10-04T13:40:30Z</time>
      </trkpt>
      <trkpt lat="45.97122" lon="4.43674">
        <ele>750.8</ele>
        <time>2025-10-04T13:40:31Z</time>
      </trkpt>
      <trkpt lat="45.97127" lon="4.43675">
        <ele>748.8</ele>
        <time>2025-10-04T13:40:32Z</time>
      </trkpt>
      <trkpt lat="45.97133" lon="4.43677">
        <ele>748.4</ele>
        <time>2025-10-04T13:40:33Z</time>
      </trkpt>
      <trkpt lat="45.97138" lon="4.43679">
        <ele>747.2</ele>
        <time>2025-10-04T13:40:34Z</time>
      </trkpt>
      <trkpt lat="45.97143" lon="4.43679">
        <ele>746.8</ele>
        <time>2025-10-04T13:40:35Z</time>
      </trkpt>
      <trkpt lat="45.97147" lon="4.43681">
        <ele>746.6</ele>
        <time>2025-10-04T13:40:36Z</time>
      </trkpt>
      <trkpt lat="45.97152" lon="4.43681">
        <ele>746.6</ele>
        <time>2025-10-04T13:40:37Z</time>
      </trkpt>
      <trkpt lat="45.97158" lon="4.43682">
        <ele>745.8</ele>
        <time>2025-10-04T13:40:38Z</time>
      </trkpt>
      <trkpt lat="45.97162" lon="4.43683">
        <ele>744.6</ele>
        <time>2025-10-04T13:40:39Z</time>
      </trkpt>
      <trkpt lat="45.97167" lon="4.43683">
        <ele>743.8</ele>
        <time>2025-10-04T13:40:40Z</time>
      </trkpt>
      <trkpt lat="45.97173" lon="4.43683">
        <ele>743.2</ele>
        <time>2025-10-04T13:40:41Z</time>
      </trkpt>
      <trkpt lat="45.97177" lon="4.43684">
        <ele>742.8</ele>
        <time>2025-10-04T13:40:42Z</time>
      </trkpt>
      <trkpt lat="45.97184" lon="4.43684">
        <ele>741.8</ele>
        <time>2025-10-04T13:40:43Z</time>
      </trkpt>
      <trkpt lat="45.97189" lon="4.43684">
        <ele>741.4</ele>
        <time>2025-10-04T13:40:44Z</time>
      </trkpt>
      <trkpt lat="45.97195" lon="4.43684">
        <ele>741</ele>
        <time>2025-10-04T13:40:45Z</time>
      </trkpt>
      <trkpt lat="45.97199" lon="4.43684">
        <ele>739.2</ele>
        <time>2025-10-04T13:40:46Z</time>
      </trkpt>
      <trkpt lat="45.97205" lon="4.43683">
        <ele>738.4</ele>
        <time>2025-10-04T13:40:47Z</time>
      </trkpt>
      <trkpt lat="45.9721" lon="4.43683">
        <ele>738.4</ele>
        <time>2025-10-04T13:40:48Z</time>
      </trkpt>
      <trkpt lat="45.97216" lon="4.43683">
        <ele>738.4</ele>
        <time>2025-10-04T13:40:49Z</time>
      </trkpt>
      <trkpt lat="45.9722" lon="4.43683">
        <ele>737.8</ele>
        <time>2025-10-04T13:40:50Z</time>
      </trkpt>
      <trkpt lat="45.97224" lon="4.43683">
        <ele>737.4</ele>
        <time>2025-10-04T13:40:51Z</time>
      </trkpt>
      <trkpt lat="45.97229" lon="4.43683">
        <ele>737.6</ele>
        <time>2025-10-04T13:40:52Z</time>
      </trkpt>
      <trkpt lat="45.97234" lon="4.43683">
        <ele>737.2</ele>
        <time>2025-10-04T13:40:53Z</time>
      </trkpt>
      <trkpt lat="45.9724" lon="4.43683">
        <ele>736.2</ele>
        <time>2025-10-04T13:40:54Z</time>
      </trkpt>
      <trkpt lat="45.97245" lon="4.43683">
        <ele>735.2</ele>
        <time>2025-10-04T13:40:55Z</time>
      </trkpt>
      <trkpt lat="45.97249" lon="4.43683">
        <ele>734.6</ele>
        <time>2025-10-04T13:40:56Z</time>
      </trkpt>
      <trkpt lat="45.97253" lon="4.43683">
        <ele>734</ele>
        <time>2025-10-04T13:40:57Z</time>
      </trkpt>
      <trkpt lat="45.97257" lon="4.43683">
        <ele>734</ele>
        <time>2025-10-04T13:40:58Z</time>
      </trkpt>
      <trkpt lat="45.97261" lon="4.43683">
        <ele>733.2</ele>
        <time>2025-10-04T13:40:59Z</time>
      </trkpt>
      <trkpt lat="45.97264" lon="4.43683">
        <ele>732.2</ele>
        <time>2025-10-04T13:41:00Z</time>
      </trkpt>
      <trkpt lat="45.97268" lon="4.43682">
        <ele>731.8</ele>
        <time>2025-10-04T13:41:01Z</time>
      </trkpt>
      <trkpt lat="45.97272" lon="4.43682">
        <ele>731.8</ele>
        <time>2025-10-04T13:41:02Z</time>
      </trkpt>
      <trkpt lat="45.97275" lon="4.43683">
        <ele>731.8</ele>
        <time>2025-10-04T13:41:03Z</time>
      </trkpt>
      <trkpt lat="45.97279" lon="4.43684">
        <ele>731.2</ele>
        <time>2025-10-04T13:41:04Z</time>
      </trkpt>
      <trkpt lat="45.97282" lon="4.43684">
        <ele>731.2</ele>
        <time>2025-10-04T13:41:05Z</time>
      </trkpt>
      <trkpt lat="45.97285" lon="4.43684">
        <ele>730.6</ele>
        <time>2025-10-04T13:41:06Z</time>
      </trkpt>
      <trkpt lat="45.97289" lon="4.43684">
        <ele>729.8</ele>
        <time>2025-10-04T13:41:07Z</time>
      </trkpt>
      <trkpt lat="45.97293" lon="4.43684">
        <ele>729.6</ele>
        <time>2025-10-04T13:41:08Z</time>
      </trkpt>
      <trkpt lat="45.97296" lon="4.43684">
        <ele>728.8</ele>
        <time>2025-10-04T13:41:09Z</time>
      </trkpt>
      <trkpt lat="45.973" lon="4.43684">
        <ele>728.8</ele>
        <time>2025-10-04T13:41:10Z</time>
      </trkpt>
      <trkpt lat="45.97303" lon="4.43684">
        <ele>728.8</ele>
        <time>2025-10-04T13:41:11Z</time>
      </trkpt>
      <trkpt lat="45.97305" lon="4.43685">
        <ele>728</ele>
        <time>2025-10-04T13:41:12Z</time>
      </trkpt>
      <trkpt lat="45.97308" lon="4.43686">
        <ele>727.4</ele>
        <time>2025-10-04T13:41:13Z</time>
      </trkpt>
      <trkpt lat="45.9731" lon="4.43686">
        <ele>726.6</ele>
        <time>2025-10-04T13:41:14Z</time>
      </trkpt>
      <trkpt lat="45.97312" lon="4.43687">
        <ele>726</ele>
        <time>2025-10-04T13:41:15Z</time>
      </trkpt>
      <trkpt lat="45.97315" lon="4.43687">
        <ele>725.2</ele>
        <time>2025-10-04T13:41:16Z</time>
      </trkpt>
      <trkpt lat="45.97318" lon="4.43687">
        <ele>724.4</ele>
        <time>2025-10-04T13:41:17Z</time>
      </trkpt>
      <trkpt lat="45.97322" lon="4.43688">
        <ele>724.4</ele>
        <time>2025-10-04T13:41:18Z</time>
      </trkpt>
      <trkpt lat="45.97325" lon="4.4369">
        <ele>724.2</ele>
        <time>2025-10-04T13:41:19Z</time>
      </trkpt>
      <trkpt lat="45.9733" lon="4.43692">
        <ele>724.2</ele>
        <time>2025-10-04T13:41:20Z</time>
      </trkpt>
      <trkpt lat="45.97334" lon="4.43691">
        <ele>723.2</ele>
        <time>2025-10-04T13:41:21Z</time>
      </trkpt>
      <trkpt lat="45.97336" lon="4.43693">
        <ele>722.6</ele>
        <time>2025-10-04T13:41:22Z</time>
      </trkpt>
      <trkpt lat="45.9734" lon="4.43695">
        <ele>721.8</ele>
        <time>2025-10-04T13:41:23Z</time>
      </trkpt>
      <trkpt lat="45.97344" lon="4.43697">
        <ele>721.4</ele>
        <time>2025-10-04T13:41:24Z</time>
      </trkpt>
      <trkpt lat="45.97348" lon="4.43698">
        <ele>721</ele>
        <time>2025-10-04T13:41:25Z</time>
      </trkpt>
      <trkpt lat="45.9735" lon="4.43699">
        <ele>720.6</ele>
        <time>2025-10-04T13:41:26Z</time>
      </trkpt>
      <trkpt lat="45.97353" lon="4.43701">
        <ele>720.6</ele>
        <time>2025-10-04T13:41:27Z</time>
      </trkpt>
      <trkpt lat="45.97357" lon="4.43704">
        <ele>720.2</ele>
        <time>2025-10-04T13:41:28Z</time>
      </trkpt>
      <trkpt lat="45.97362" lon="4.43705">
        <ele>719.6</ele>
        <time>2025-10-04T13:41:29Z</time>
      </trkpt>
      <trkpt lat="45.97367" lon="4.43705">
        <ele>719.6</ele>
        <time>2025-10-04T13:41:30Z</time>
      </trkpt>
      <trkpt lat="45.97371" lon="4.43704">
        <ele>718.8</ele>
        <time>2025-10-04T13:41:31Z</time>
      </trkpt>
      <trkpt lat="45.97375" lon="4.43702">
        <ele>718.6</ele>
        <time>2025-10-04T13:41:32Z</time>
      </trkpt>
      <trkpt lat="45.97379" lon="4.43699">
        <ele>719</ele>
        <time>2025-10-04T13:41:33Z</time>
      </trkpt>
      <trkpt lat="45.97382" lon="4.43696">
        <ele>718.2</ele>
        <time>2025-10-04T13:41:34Z</time>
      </trkpt>
      <trkpt lat="45.97384" lon="4.43691">
        <ele>718</ele>
        <time>2025-10-04T13:41:35Z</time>
      </trkpt>
      <trkpt lat="45.97387" lon="4.43688">
        <ele>717.4</ele>
        <time>2025-10-04T13:41:36Z</time>
      </trkpt>
      <trkpt lat="45.9739" lon="4.43683">
        <ele>716.6</ele>
        <time>2025-10-04T13:41:37Z</time>
      </trkpt>
      <trkpt lat="45.97394" lon="4.43678">
        <ele>715.8</ele>
        <time>2025-10-04T13:41:38Z</time>
      </trkpt>
      <trkpt lat="45.97396" lon="4.43673">
        <ele>715.2</ele>
        <time>2025-10-04T13:41:39Z</time>
      </trkpt>
      <trkpt lat="45.97396" lon="4.43668">
        <ele>714.8</ele>
        <time>2025-10-04T13:41:40Z</time>
      </trkpt>
      <trkpt lat="45.97399" lon="4.43664">
        <ele>714.2</ele>
        <time>2025-10-04T13:41:41Z</time>
      </trkpt>
      <trkpt lat="45.974" lon="4.43659">
        <ele>714.2</ele>
        <time>2025-10-04T13:41:42Z</time>
      </trkpt>
      <trkpt lat="45.97402" lon="4.43652">
        <ele>713.4</ele>
        <time>2025-10-04T13:41:43Z</time>
      </trkpt>
      <trkpt lat="45.97401" lon="4.43646">
        <ele>713.4</ele>
        <time>2025-10-04T13:41:44Z</time>
      </trkpt>
      <trkpt lat="45.97401" lon="4.43633">
        <ele>712.8</ele>
        <time>2025-10-04T13:41:45Z</time>
      </trkpt>
      <trkpt lat="45.97401" lon="4.43623">
        <ele>712.6</ele>
        <time>2025-10-04T13:41:46Z</time>
      </trkpt>
      <trkpt lat="45.97401" lon="4.43616">
        <ele>712.2</ele>
        <time>2025-10-04T13:41:47Z</time>
      </trkpt>
      <trkpt lat="45.97401" lon="4.43608">
        <ele>712.2</ele>
        <time>2025-10-04T13:41:48Z</time>
      </trkpt>
      <trkpt lat="45.97401" lon="4.436">
        <ele>711.8</ele>
        <time>2025-10-04T13:41:49Z</time>
      </trkpt>
      <trkpt lat="45.974" lon="4.43594">
        <ele>711.8</ele>
        <time>2025-10-04T13:41:50Z</time>
      </trkpt>
      <trkpt lat="45.97399" lon="4.43586">
        <ele>711.4</ele>
        <time>2025-10-04T13:41:51Z</time>
      </trkpt>
      <trkpt lat="45.97397" lon="4.43578">
        <ele>711.4</ele>
        <time>2025-10-04T13:41:52Z</time>
      </trkpt>
      <trkpt lat="45.97395" lon="4.43571">
        <ele>711.4</ele>
        <time>2025-10-04T13:41:53Z</time>
      </trkpt>
      <trkpt lat="45.97395" lon="4.43564">
        <ele>711.2</ele>
        <time>2025-10-04T13:41:54Z</time>
      </trkpt>
      <trkpt lat="45.97394" lon="4.43559">
        <ele>711.2</ele>
        <time>2025-10-04T13:41:55Z</time>
      </trkpt>
      <trkpt lat="45.97393" lon="4.43551">
        <ele>710.4</ele>
        <time>2025-10-04T13:41:56Z</time>
      </trkpt>
      <trkpt lat="45.97393" lon="4.43544">
        <ele>710.4</ele>
        <time>2025-10-04T13:41:57Z</time>
      </trkpt>
      <trkpt lat="45.97394" lon="4.43538">
        <ele>710.2</ele>
        <time>2025-10-04T13:41:58Z</time>
      </trkpt>
      <trkpt lat="45.97394" lon="4.43532">
        <ele>710.2</ele>
        <time>2025-10-04T13:41:59Z</time>
      </trkpt>
      <trkpt lat="45.97394" lon="4.43532">
        <ele>710.2</ele>
        <time>2025-10-04T13:42:00Z</time>
      </trkpt>
      <trkpt lat="45.97395" lon="4.43526">
        <ele>710.2</ele>
        <time>2025-10-04T13:42:01Z</time>
      </trkpt>
      <trkpt lat="45.97398" lon="4.43519">
        <ele>709.8</ele>
        <time>2025-10-04T13:42:02Z</time>
      </trkpt>
      <trkpt lat="45.97401" lon="4.43514">
        <ele>709.8</ele>
        <time>2025-10-04T13:42:03Z</time>
      </trkpt>
      <trkpt lat="45.97403" lon="4.43509">
        <ele>709.8</ele>
        <time>2025-10-04T13:42:04Z</time>
      </trkpt>
      <trkpt lat="45.97404" lon="4.43504">
        <ele>709.4</ele>
        <time>2025-10-04T13:42:05Z</time>
      </trkpt>
      <trkpt lat="45.97406" lon="4.43499">
        <ele>709.4</ele>
        <time>2025-10-04T13:42:06Z</time>
      </trkpt>
      <trkpt lat="45.97408" lon="4.43494">
        <ele>709.4</ele>
        <time>2025-10-04T13:42:07Z</time>
      </trkpt>
      <trkpt lat="45.97411" lon="4.43492">
        <ele>709.4</ele>
        <time>2025-10-04T13:42:08Z</time>
      </trkpt>
      <trkpt lat="45.97413" lon="4.43486">
        <ele>709</ele>
        <time>2025-10-04T13:42:09Z</time>
      </trkpt>
      <trkpt lat="45.97415" lon="4.43481">
        <ele>709</ele>
        <time>2025-10-04T13:42:10Z</time>
      </trkpt>
      <trkpt lat="45.97418" lon="4.43478">
        <ele>709</ele>
        <time>2025-10-04T13:42:11Z</time>
      </trkpt>
      <trkpt lat="45.9742" lon="4.43476">
        <ele>709</ele>
        <time>2025-10-04T13:42:12Z</time>
      </trkpt>
      <trkpt lat="45.97422" lon="4.43472">
        <ele>709</ele>
        <time>2025-10-04T13:42:13Z</time>
      </trkpt>
      <trkpt lat="45.97425" lon="4.43468">
        <ele>709</ele>
        <time>2025-10-04T13:42:14Z</time>
      </trkpt>
      <trkpt lat="45.97427" lon="4.43465">
        <ele>709.4</ele>
        <time>2025-10-04T13:42:15Z</time>
      </trkpt>
      <trkpt lat="45.9743" lon="4.43461">
        <ele>709.4</ele>
        <time>2025-10-04T13:42:16Z</time>
      </trkpt>
      <trkpt lat="45.97432" lon="4.43458">
        <ele>709.6</ele>
        <time>2025-10-04T13:42:17Z</time>
      </trkpt>
      <trkpt lat="45.97434" lon="4.43456">
        <ele>710</ele>
        <time>2025-10-04T13:42:18Z</time>
      </trkpt>
      <trkpt lat="45.97437" lon="4.43453">
        <ele>710</ele>
        <time>2025-10-04T13:42:19Z</time>
      </trkpt>
      <trkpt lat="45.97439" lon="4.4345">
        <ele>710.6</ele>
        <time>2025-10-04T13:42:20Z</time>
      </trkpt>
      <trkpt lat="45.97442" lon="4.43445">
        <ele>710.6</ele>
        <time>2025-10-04T13:42:21Z</time>
      </trkpt>
      <trkpt lat="45.97444" lon="4.43441">
        <ele>710.6</ele>
        <time>2025-10-04T13:42:22Z</time>
      </trkpt>
      <trkpt lat="45.97446" lon="4.43437">
        <ele>710.8</ele>
        <time>2025-10-04T13:42:23Z</time>
      </trkpt>
      <trkpt lat="45.97448" lon="4.43433">
        <ele>710.8</ele>
        <time>2025-10-04T13:42:24Z</time>
      </trkpt>
      <trkpt lat="45.97451" lon="4.4343">
        <ele>710.8</ele>
        <time>2025-10-04T13:42:25Z</time>
      </trkpt>
      <trkpt lat="45.97453" lon="4.43426">
        <ele>710.4</ele>
        <time>2025-10-04T13:42:26Z</time>
      </trkpt>
      <trkpt lat="45.97455" lon="4.43417">
        <ele>710.4</ele>
        <time>2025-10-04T13:42:27Z</time>
      </trkpt>
      <trkpt lat="45.97458" lon="4.43412">
        <ele>710.2</ele>
        <time>2025-10-04T13:42:28Z</time>
      </trkpt>
      <trkpt lat="45.9746" lon="4.43405">
        <ele>710.2</ele>
        <time>2025-10-04T13:42:29Z</time>
      </trkpt>
      <trkpt lat="45.97463" lon="4.434">
        <ele>709.8</ele>
        <time>2025-10-04T13:42:30Z</time>
      </trkpt>
      <trkpt lat="45.97465" lon="4.43392">
        <ele>709.8</ele>
        <time>2025-10-04T13:42:31Z</time>
      </trkpt>
      <trkpt lat="45.97468" lon="4.43384">
        <ele>709.2</ele>
        <time>2025-10-04T13:42:32Z</time>
      </trkpt>
      <trkpt lat="45.9747" lon="4.43376">
        <ele>709.2</ele>
        <time>2025-10-04T13:42:33Z</time>
      </trkpt>
      <trkpt lat="45.97474" lon="4.4337">
        <ele>708.8</ele>
        <time>2025-10-04T13:42:34Z</time>
      </trkpt>
      <trkpt lat="45.97477" lon="4.43362">
        <ele>708.8</ele>
        <time>2025-10-04T13:42:35Z</time>
      </trkpt>
      <trkpt lat="45.97478" lon="4.43353">
        <ele>708.8</ele>
        <time>2025-10-04T13:42:36Z</time>
      </trkpt>
      <trkpt lat="45.9748" lon="4.43347">
        <ele>708.4</ele>
        <time>2025-10-04T13:42:37Z</time>
      </trkpt>
      <trkpt lat="45.97482" lon="4.43341">
        <ele>708.4</ele>
        <time>2025-10-04T13:42:38Z</time>
      </trkpt>
      <trkpt lat="45.97484" lon="4.43336">
        <ele>708.4</ele>
        <time>2025-10-04T13:42:39Z</time>
      </trkpt>
      <trkpt lat="45.97484" lon="4.43327">
        <ele>708.8</ele>
        <time>2025-10-04T13:42:40Z</time>
      </trkpt>
      <trkpt lat="45.97484" lon="4.43319">
        <ele>708.8</ele>
        <time>2025-10-04T13:42:41Z</time>
      </trkpt>
      <trkpt lat="45.97484" lon="4.43312">
        <ele>708.8</ele>
        <time>2025-10-04T13:42:42Z</time>
      </trkpt>
      <trkpt lat="45.97485" lon="4.43305">
        <ele>708.8</ele>
        <time>2025-10-04T13:42:43Z</time>
      </trkpt>
      <trkpt lat="45.97485" lon="4.43296">
        <ele>708.6</ele>
        <time>2025-10-04T13:42:44Z</time>
      </trkpt>
      <trkpt lat="45.97484" lon="4.43287">
        <ele>708.6</ele>
        <time>2025-10-04T13:42:45Z</time>
      </trkpt>
      <trkpt lat="45.97484" lon="4.43279">
        <ele>708.2</ele>
        <time>2025-10-04T13:42:46Z</time>
      </trkpt>
      <trkpt lat="45.97482" lon="4.43271">
        <ele>708.2</ele>
        <time>2025-10-04T13:42:47Z</time>
      </trkpt>
      <trkpt lat="45.97483" lon="4.43263">
        <ele>708</ele>
        <time>2025-10-04T13:42:48Z</time>
      </trkpt>
      <trkpt lat="45.97483" lon="4.43254">
        <ele>708</ele>
        <time>2025-10-04T13:42:49Z</time>
      </trkpt>
      <trkpt lat="45.97484" lon="4.43247">
        <ele>708</ele>
        <time>2025-10-04T13:42:50Z</time>
      </trkpt>
      <trkpt lat="45.97486" lon="4.43241">
        <ele>708</ele>
        <time>2025-10-04T13:42:51Z</time>
      </trkpt>
      <trkpt lat="45.97487" lon="4.43236">
        <ele>707.6</ele>
        <time>2025-10-04T13:42:52Z</time>
      </trkpt>
      <trkpt lat="45.97489" lon="4.43231">
        <ele>707.2</ele>
        <time>2025-10-04T13:42:53Z</time>
      </trkpt>
      <trkpt lat="45.97492" lon="4.43225">
        <ele>707.2</ele>
        <time>2025-10-04T13:42:54Z</time>
      </trkpt>
      <trkpt lat="45.97494" lon="4.43219">
        <ele>707.2</ele>
        <time>2025-10-04T13:42:55Z</time>
      </trkpt>
      <trkpt lat="45.97496" lon="4.43216">
        <ele>706.2</ele>
        <time>2025-10-04T13:42:56Z</time>
      </trkpt>
      <trkpt lat="45.97498" lon="4.43211">
        <ele>706.2</ele>
        <time>2025-10-04T13:42:57Z</time>
      </trkpt>
      <trkpt lat="45.975" lon="4.43205">
        <ele>706.2</ele>
        <time>2025-10-04T13:42:58Z</time>
      </trkpt>
      <trkpt lat="45.97504" lon="4.43202">
        <ele>706.2</ele>
        <time>2025-10-04T13:42:59Z</time>
      </trkpt>
      <trkpt lat="45.97507" lon="4.43197">
        <ele>706.6</ele>
        <time>2025-10-04T13:43:00Z</time>
      </trkpt>
      <trkpt lat="45.97511" lon="4.43193">
        <ele>706.6</ele>
        <time>2025-10-04T13:43:01Z</time>
      </trkpt>
      <trkpt lat="45.97514" lon="4.43189">
        <ele>706.6</ele>
        <time>2025-10-04T13:43:02Z</time>
      </trkpt>
      <trkpt lat="45.97518" lon="4.43186">
        <ele>706.6</ele>
        <time>2025-10-04T13:43:03Z</time>
      </trkpt>
      <trkpt lat="45.97522" lon="4.43182">
        <ele>706.6</ele>
        <time>2025-10-04T13:43:04Z</time>
      </trkpt>
      <trkpt lat="45.97525" lon="4.43179">
        <ele>706.6</ele>
        <time>2025-10-04T13:43:05Z</time>
      </trkpt>
      <trkpt lat="45.97529" lon="4.43176">
        <ele>706.6</ele>
        <time>2025-10-04T13:43:06Z</time>
      </trkpt>
      <trkpt lat="45.97532" lon="4.43174">
        <ele>706.6</ele>
        <time>2025-10-04T13:43:07Z</time>
      </trkpt>
      <trkpt lat="45.97536" lon="4.43171">
        <ele>706.6</ele>
        <time>2025-10-04T13:43:08Z</time>
      </trkpt>
      <trkpt lat="45.9754" lon="4.43168">
        <ele>706.6</ele>
        <time>2025-10-04T13:43:09Z</time>
      </trkpt>
      <trkpt lat="45.97543" lon="4.43167">
        <ele>706.6</ele>
        <time>2025-10-04T13:43:10Z</time>
      </trkpt>
      <trkpt lat="45.97547" lon="4.43166">
        <ele>706.8</ele>
        <time>2025-10-04T13:43:11Z</time>
      </trkpt>
      <trkpt lat="45.97551" lon="4.43165">
        <ele>707</ele>
        <time>2025-10-04T13:43:12Z</time>
      </trkpt>
      <trkpt lat="45.97555" lon="4.43164">
        <ele>707</ele>
        <time>2025-10-04T13:43:13Z</time>
      </trkpt>
      <trkpt lat="45.97558" lon="4.43163">
        <ele>707.4</ele>
        <time>2025-10-04T13:43:14Z</time>
      </trkpt>
      <trkpt lat="45.97562" lon="4.43162">
        <ele>707.4</ele>
        <time>2025-10-04T13:43:15Z</time>
      </trkpt>
      <trkpt lat="45.97565" lon="4.43162">
        <ele>707.4</ele>
        <time>2025-10-04T13:43:16Z</time>
      </trkpt>
      <trkpt lat="45.97568" lon="4.43161">
        <ele>707.4</ele>
        <time>2025-10-04T13:43:17Z</time>
      </trkpt>
      <trkpt lat="45.97571" lon="4.43161">
        <ele>707.6</ele>
        <time>2025-10-04T13:43:18Z</time>
      </trkpt>
      <trkpt lat="45.97573" lon="4.43161">
        <ele>707.6</ele>
        <time>2025-10-04T13:43:19Z</time>
      </trkpt>
      <trkpt lat="45.97575" lon="4.43162">
        <ele>707.8</ele>
        <time>2025-10-04T13:43:20Z</time>
      </trkpt>
      <trkpt lat="45.97577" lon="4.43162">
        <ele>707.8</ele>
        <time>2025-10-04T13:43:21Z</time>
      </trkpt>
      <trkpt lat="45.97578" lon="4.43163">
        <ele>708.2</ele>
        <time>2025-10-04T13:43:22Z</time>
      </trkpt>
      <trkpt lat="45.9758" lon="4.43162">
        <ele>708</ele>
        <time>2025-10-04T13:43:23Z</time>
      </trkpt>
      <trkpt lat="45.97582" lon="4.43162">
        <ele>708</ele>
        <time>2025-10-04T13:43:24Z</time>
      </trkpt>
      <trkpt lat="45.97585" lon="4.43162">
        <ele>708.2</ele>
        <time>2025-10-04T13:43:25Z</time>
      </trkpt>
      <trkpt lat="45.97587" lon="4.43162">
        <ele>708.2</ele>
        <time>2025-10-04T13:43:26Z</time>
      </trkpt>
      <trkpt lat="45.97589" lon="4.43163">
        <ele>708.2</ele>
        <time>2025-10-04T13:43:27Z</time>
      </trkpt>
      <trkpt lat="45.97592" lon="4.43163">
        <ele>708.2</ele>
        <time>2025-10-04T13:43:28Z</time>
      </trkpt>
      <trkpt lat="45.97594" lon="4.43164">
        <ele>708.2</ele>
        <time>2025-10-04T13:43:29Z</time>
      </trkpt>
      <trkpt lat="45.97596" lon="4.43164">
        <ele>708</ele>
        <time>2025-10-04T13:43:30Z</time>
      </trkpt>
      <trkpt lat="45.97599" lon="4.43164">
        <ele>708</ele>
        <time>2025-10-04T13:43:31Z</time>
      </trkpt>
      <trkpt lat="45.97601" lon="4.43165">
        <ele>707.8</ele>
        <time>2025-10-04T13:43:32Z</time>
      </trkpt>
      <trkpt lat="45.97604" lon="4.43165">
        <ele>707.4</ele>
        <time>2025-10-04T13:43:33Z</time>
      </trkpt>
      <trkpt lat="45.97607" lon="4.43165">
        <ele>707.4</ele>
        <time>2025-10-04T13:43:34Z</time>
      </trkpt>
      <trkpt lat="45.9761" lon="4.43165">
        <ele>707.4</ele>
        <time>2025-10-04T13:43:35Z</time>
      </trkpt>
      <trkpt lat="45.97614" lon="4.43166">
        <ele>707.4</ele>
        <time>2025-10-04T13:43:36Z</time>
      </trkpt>
      <trkpt lat="45.97617" lon="4.43166">
        <ele>706.8</ele>
        <time>2025-10-04T13:43:37Z</time>
      </trkpt>
      <trkpt lat="45.97621" lon="4.43167">
        <ele>706.2</ele>
        <time>2025-10-04T13:43:38Z</time>
      </trkpt>
      <trkpt lat="45.97625" lon="4.43167">
        <ele>705.8</ele>
        <time>2025-10-04T13:43:39Z</time>
      </trkpt>
      <trkpt lat="45.97629" lon="4.43168">
        <ele>705</ele>
        <time>2025-10-04T13:43:40Z</time>
      </trkpt>
      <trkpt lat="45.97634" lon="4.43168">
        <ele>704.4</ele>
        <time>2025-10-04T13:43:41Z</time>
      </trkpt>
      <trkpt lat="45.97639" lon="4.43169">
        <ele>703.6</ele>
        <time>2025-10-04T13:43:42Z</time>
      </trkpt>
      <trkpt lat="45.97644" lon="4.4317">
        <ele>702.6</ele>
        <time>2025-10-04T13:43:43Z</time>
      </trkpt>
      <trkpt lat="45.97647" lon="4.43171">
        <ele>701.8</ele>
        <time>2025-10-04T13:43:44Z</time>
      </trkpt>
      <trkpt lat="45.97654" lon="4.43172">
        <ele>701</ele>
        <time>2025-10-04T13:43:45Z</time>
      </trkpt>
      <trkpt lat="45.97663" lon="4.43175">
        <ele>700.2</ele>
        <time>2025-10-04T13:43:46Z</time>
      </trkpt>
      <trkpt lat="45.97669" lon="4.43175">
        <ele>699.2</ele>
        <time>2025-10-04T13:43:47Z</time>
      </trkpt>
      <trkpt lat="45.97675" lon="4.43178">
        <ele>698.2</ele>
        <time>2025-10-04T13:43:48Z</time>
      </trkpt>
      <trkpt lat="45.97681" lon="4.4318">
        <ele>697.2</ele>
        <time>2025-10-04T13:43:49Z</time>
      </trkpt>
      <trkpt lat="45.9769" lon="4.43184">
        <ele>695.8</ele>
        <time>2025-10-04T13:43:50Z</time>
      </trkpt>
      <trkpt lat="45.97696" lon="4.43187">
        <ele>694.8</ele>
        <time>2025-10-04T13:43:51Z</time>
      </trkpt>
      <trkpt lat="45.97702" lon="4.4319">
        <ele>693.8</ele>
        <time>2025-10-04T13:43:52Z</time>
      </trkpt>
      <trkpt lat="45.97708" lon="4.43193">
        <ele>692.8</ele>
        <time>2025-10-04T13:43:53Z</time>
      </trkpt>
      <trkpt lat="45.97718" lon="4.43199">
        <ele>691.6</ele>
        <time>2025-10-04T13:43:54Z</time>
      </trkpt>
      <trkpt lat="45.97725" lon="4.43203">
        <ele>690.4</ele>
        <time>2025-10-04T13:43:55Z</time>
      </trkpt>
      <trkpt lat="45.97734" lon="4.43211">
        <ele>689.4</ele>
        <time>2025-10-04T13:43:56Z</time>
      </trkpt>
      <trkpt lat="45.97741" lon="4.43218">
        <ele>688</ele>
        <time>2025-10-04T13:43:57Z</time>
      </trkpt>
      <trkpt lat="45.9775" lon="4.43223">
        <ele>686.4</ele>
        <time>2025-10-04T13:43:58Z</time>
      </trkpt>
      <trkpt lat="45.97759" lon="4.43228">
        <ele>685.2</ele>
        <time>2025-10-04T13:43:59Z</time>
      </trkpt>
      <trkpt lat="45.97768" lon="4.43232">
        <ele>683.8</ele>
        <time>2025-10-04T13:44:00Z</time>
      </trkpt>
      <trkpt lat="45.97779" lon="4.43237">
        <ele>682.8</ele>
        <time>2025-10-04T13:44:01Z</time>
      </trkpt>
      <trkpt lat="45.97789" lon="4.43241">
        <ele>681.6</ele>
        <time>2025-10-04T13:44:02Z</time>
      </trkpt>
      <trkpt lat="45.97799" lon="4.43245">
        <ele>680.4</ele>
        <time>2025-10-04T13:44:03Z</time>
      </trkpt>
      <trkpt lat="45.97808" lon="4.43246">
        <ele>679.4</ele>
        <time>2025-10-04T13:44:04Z</time>
      </trkpt>
      <trkpt lat="45.97816" lon="4.43246">
        <ele>678.2</ele>
        <time>2025-10-04T13:44:05Z</time>
      </trkpt>
      <trkpt lat="45.97825" lon="4.43246">
        <ele>676.8</ele>
        <time>2025-10-04T13:44:06Z</time>
      </trkpt>
      <trkpt lat="45.97833" lon="4.43245">
        <ele>675.2</ele>
        <time>2025-10-04T13:44:07Z</time>
      </trkpt>
      <trkpt lat="45.97843" lon="4.43242">
        <ele>673.8</ele>
        <time>2025-10-04T13:44:08Z</time>
      </trkpt>
      <trkpt lat="45.9785" lon="4.4324">
        <ele>672.4</ele>
        <time>2025-10-04T13:44:09Z</time>
      </trkpt>
      <trkpt lat="45.97859" lon="4.43239">
        <ele>671</ele>
        <time>2025-10-04T13:44:10Z</time>
      </trkpt>
      <trkpt lat="45.97868" lon="4.4324">
        <ele>669</ele>
        <time>2025-10-04T13:44:11Z</time>
      </trkpt>
      <trkpt lat="45.97877" lon="4.43239">
        <ele>668.2</ele>
        <time>2025-10-04T13:44:12Z</time>
      </trkpt>
      <trkpt lat="45.97889" lon="4.4324">
        <ele>667</ele>
        <time>2025-10-04T13:44:13Z</time>
      </trkpt>
      <trkpt lat="45.97895" lon="4.43239">
        <ele>665.6</ele>
        <time>2025-10-04T13:44:14Z</time>
      </trkpt>
      <trkpt lat="45.97895" lon="4.43239">
        <ele>665.6</ele>
        <time>2025-10-04T13:44:15Z</time>
      </trkpt>
      <trkpt lat="45.97902" lon="4.43241">
        <ele>664.6</ele>
        <time>2025-10-04T13:44:16Z</time>
      </trkpt>
      <trkpt lat="45.9791" lon="4.43241">
        <ele>663.8</ele>
        <time>2025-10-04T13:44:17Z</time>
      </trkpt>
      <trkpt lat="45.97921" lon="4.43242">
        <ele>663.2</ele>
        <time>2025-10-04T13:44:18Z</time>
      </trkpt>
      <trkpt lat="45.97927" lon="4.4324">
        <ele>662.6</ele>
        <time>2025-10-04T13:44:19Z</time>
      </trkpt>
      <trkpt lat="45.97932" lon="4.43233">
        <ele>662.2</ele>
        <time>2025-10-04T13:44:20Z</time>
      </trkpt>
      <trkpt lat="45.97936" lon="4.43228">
        <ele>661.8</ele>
        <time>2025-10-04T13:44:21Z</time>
      </trkpt>
      <trkpt lat="45.97937" lon="4.43221">
        <ele>661.2</ele>
        <time>2025-10-04T13:44:22Z</time>
      </trkpt>
      <trkpt lat="45.97941" lon="4.43214">
        <ele>661</ele>
        <time>2025-10-04T13:44:23Z</time>
      </trkpt>
      <trkpt lat="45.97944" lon="4.43206">
        <ele>660.8</ele>
        <time>2025-10-04T13:44:24Z</time>
      </trkpt>
      <trkpt lat="45.97947" lon="4.43199">
        <ele>660.8</ele>
        <time>2025-10-04T13:44:25Z</time>
      </trkpt>
      <trkpt lat="45.9795" lon="4.43191">
        <ele>660.4</ele>
        <time>2025-10-04T13:44:26Z</time>
      </trkpt>
      <trkpt lat="45.97951" lon="4.43186">
        <ele>660.4</ele>
        <time>2025-10-04T13:44:27Z</time>
      </trkpt>
      <trkpt lat="45.97952" lon="4.4318">
        <ele>660.4</ele>
        <time>2025-10-04T13:44:28Z</time>
      </trkpt>
      <trkpt lat="45.97952" lon="4.43174">
        <ele>660.4</ele>
        <time>2025-10-04T13:44:29Z</time>
      </trkpt>
      <trkpt lat="45.97952" lon="4.43168">
        <ele>660.4</ele>
        <time>2025-10-04T13:44:30Z</time>
      </trkpt>
      <trkpt lat="45.9795" lon="4.43166">
        <ele>661</ele>
        <time>2025-10-04T13:44:31Z</time>
      </trkpt>
      <trkpt lat="45.9795" lon="4.43164">
        <ele>661.4</ele>
        <time>2025-10-04T13:44:32Z</time>
      </trkpt>
      <trkpt lat="45.9795" lon="4.43165">
        <ele>661.6</ele>
        <time>2025-10-04T13:44:33Z</time>
      </trkpt>
      <trkpt lat="45.9795" lon="4.43163">
        <ele>662</ele>
        <time>2025-10-04T13:44:36Z</time>
      </trkpt>
      <trkpt lat="45.9795" lon="4.43163">
        <ele>662</ele>
        <time>2025-10-04T13:44:37Z</time>
      </trkpt>
      <trkpt lat="45.97951" lon="4.43162">
        <ele>662.4</ele>
        <time>2025-10-04T13:44:38Z</time>
      </trkpt>
      <trkpt lat="45.97952" lon="4.43162">
        <ele>662.4</ele>
        <time>2025-10-04T13:44:39Z</time>
      </trkpt>
      <trkpt lat="45.97952" lon="4.43162">
        <ele>662</ele>
        <time>2025-10-04T13:44:40Z</time>
      </trkpt>
      <trkpt lat="45.9795" lon="4.43162">
        <ele>662</ele>
        <time>2025-10-04T13:44:47Z</time>
      </trkpt>
      <trkpt lat="45.9795" lon="4.43161">
        <ele>662</ele>
        <time>2025-10-04T13:44:48Z</time>
      </trkpt>
      <trkpt lat="45.97949" lon="4.43163">
        <ele>662</ele>
        <time>2025-10-04T13:44:49Z</time>
      </trkpt>
      <trkpt lat="45.97946" lon="4.43163">
        <ele>663.2</ele>
        <time>2025-10-04T13:45:25Z</time>
      </trkpt>
      <trkpt lat="45.97945" lon="4.43161">
        <ele>663.4</ele>
        <time>2025-10-04T13:45:26Z</time>
      </trkpt>
      <trkpt lat="45.97945" lon="4.43161">
        <ele>663.4</ele>
        <time>2025-10-04T13:45:27Z</time>
      </trkpt>
      <trkpt lat="45.97945" lon="4.43159">
        <ele>663.4</ele>
        <time>2025-10-04T13:45:28Z</time>
      </trkpt>
      <trkpt lat="45.97944" lon="4.43157">
        <ele>663.6</ele>
        <time>2025-10-04T13:45:29Z</time>
      </trkpt>
      <trkpt lat="45.97944" lon="4.43156">
        <ele>663.8</ele>
        <time>2025-10-04T13:45:30Z</time>
      </trkpt>
      <trkpt lat="45.97943" lon="4.43153">
        <ele>664</ele>
        <time>2025-10-04T13:45:31Z</time>
      </trkpt>
      <trkpt lat="45.97942" lon="4.43152">
        <ele>664.4</ele>
        <time>2025-10-04T13:45:32Z</time>
      </trkpt>
      <trkpt lat="45.97942" lon="4.4315">
        <ele>664.6</ele>
        <time>2025-10-04T13:45:33Z</time>
      </trkpt>
      <trkpt lat="45.97941" lon="4.43148">
        <ele>664.8</ele>
        <time>2025-10-04T13:45:34Z</time>
      </trkpt>
      <trkpt lat="45.9794" lon="4.43147">
        <ele>665</ele>
        <time>2025-10-04T13:45:35Z</time>
      </trkpt>
      <trkpt lat="45.97939" lon="4.43145">
        <ele>665.4</ele>
        <time>2025-10-04T13:45:36Z</time>
      </trkpt>
      <trkpt lat="45.97937" lon="4.43143">
        <ele>665.4</ele>
        <time>2025-10-04T13:45:37Z</time>
      </trkpt>
      <trkpt lat="45.97937" lon="4.43143">
        <ele>665.6</ele>
        <time>2025-10-04T13:45:38Z</time>
      </trkpt>
      <trkpt lat="45.97936" lon="4.43141">
        <ele>665.8</ele>
        <time>2025-10-04T13:45:39Z</time>
      </trkpt>
      <trkpt lat="45.97935" lon="4.4314">
        <ele>665.8</ele>
        <time>2025-10-04T13:45:40Z</time>
      </trkpt>
      <trkpt lat="45.97934" lon="4.43138">
        <ele>665.8</ele>
        <time>2025-10-04T13:45:41Z</time>
      </trkpt>
      <trkpt lat="45.97933" lon="4.43136">
        <ele>666.4</ele>
        <time>2025-10-04T13:45:42Z</time>
      </trkpt>
      <trkpt lat="45.97932" lon="4.43134">
        <ele>666.4</ele>
        <time>2025-10-04T13:45:43Z</time>
      </trkpt>
      <trkpt lat="45.97931" lon="4.43132">
        <ele>666.6</ele>
        <time>2025-10-04T13:45:44Z</time>
      </trkpt>
      <trkpt lat="45.9793" lon="4.4313">
        <ele>666.8</ele>
        <time>2025-10-04T13:45:45Z</time>
      </trkpt>
      <trkpt lat="45.97929" lon="4.43128">
        <ele>667.2</ele>
        <time>2025-10-04T13:45:46Z</time>
      </trkpt>
      <trkpt lat="45.97928" lon="4.43127">
        <ele>667.4</ele>
        <time>2025-10-04T13:45:47Z</time>
      </trkpt>
      <trkpt lat="45.97927" lon="4.43125">
        <ele>667.6</ele>
        <time>2025-10-04T13:45:48Z</time>
      </trkpt>
      <trkpt lat="45.97926" lon="4.43124">
        <ele>667.6</ele>
        <time>2025-10-04T13:45:49Z</time>
      </trkpt>
      <trkpt lat="45.97925" lon="4.43122">
        <ele>667.6</ele>
        <time>2025-10-04T13:45:50Z</time>
      </trkpt>
      <trkpt lat="45.97924" lon="4.4312">
        <ele>668</ele>
        <time>2025-10-04T13:45:51Z</time>
      </trkpt>
      <trkpt lat="45.97923" lon="4.43119">
        <ele>668</ele>
        <time>2025-10-04T13:45:52Z</time>
      </trkpt>
      <trkpt lat="45.97922" lon="4.43116">
        <ele>668.2</ele>
        <time>2025-10-04T13:45:53Z</time>
      </trkpt>
      <trkpt lat="45.97921" lon="4.43114">
        <ele>668.6</ele>
        <time>2025-10-04T13:45:54Z</time>
      </trkpt>
      <trkpt lat="45.9792" lon="4.43111">
        <ele>668.6</ele>
        <time>2025-10-04T13:45:55Z</time>
      </trkpt>
      <trkpt lat="45.97919" lon="4.43109">
        <ele>668.8</ele>
        <time>2025-10-04T13:45:56Z</time>
      </trkpt>
      <trkpt lat="45.97918" lon="4.43107">
        <ele>668.8</ele>
        <time>2025-10-04T13:45:57Z</time>
      </trkpt>
      <trkpt lat="45.97917" lon="4.43105">
        <ele>669.2</ele>
        <time>2025-10-04T13:45:58Z</time>
      </trkpt>
      <trkpt lat="45.97915" lon="4.43103">
        <ele>669.2</ele>
        <time>2025-10-04T13:45:59Z</time>
      </trkpt>
      <trkpt lat="45.97914" lon="4.431">
        <ele>669.6</ele>
        <time>2025-10-04T13:46:00Z</time>
      </trkpt>
      <trkpt lat="45.97913" lon="4.43098">
        <ele>669.8</ele>
        <time>2025-10-04T13:46:01Z</time>
      </trkpt>
      <trkpt lat="45.97913" lon="4.43096">
        <ele>669.4</ele>
        <time>2025-10-04T13:46:02Z</time>
      </trkpt>
      <trkpt lat="45.97912" lon="4.43095">
        <ele>669.4</ele>
        <time>2025-10-04T13:46:03Z</time>
      </trkpt>
      <trkpt lat="45.97911" lon="4.43092">
        <ele>668.6</ele>
        <time>2025-10-04T13:46:04Z</time>
      </trkpt>
      <trkpt lat="45.9791" lon="4.4309">
        <ele>669.4</ele>
        <time>2025-10-04T13:46:05Z</time>
      </trkpt>
      <trkpt lat="45.97909" lon="4.43087">
        <ele>670.2</ele>
        <time>2025-10-04T13:46:06Z</time>
      </trkpt>
      <trkpt lat="45.97908" lon="4.43085">
        <ele>671</ele>
        <time>2025-10-04T13:46:07Z</time>
      </trkpt>
      <trkpt lat="45.97906" lon="4.43084">
        <ele>671</ele>
        <time>2025-10-04T13:46:08Z</time>
      </trkpt>
      <trkpt lat="45.97906" lon="4.43082">
        <ele>671</ele>
        <time>2025-10-04T13:46:09Z</time>
      </trkpt>
      <trkpt lat="45.97905" lon="4.4308">
        <ele>671</ele>
        <time>2025-10-04T13:46:10Z</time>
      </trkpt>
      <trkpt lat="45.97905" lon="4.43076">
        <ele>671</ele>
        <time>2025-10-04T13:46:11Z</time>
      </trkpt>
      <trkpt lat="45.97905" lon="4.43073">
        <ele>671</ele>
        <time>2025-10-04T13:46:12Z</time>
      </trkpt>
      <trkpt lat="45.97905" lon="4.43069">
        <ele>671</ele>
        <time>2025-10-04T13:46:13Z</time>
      </trkpt>
      <trkpt lat="45.97904" lon="4.43067">
        <ele>671</ele>
        <time>2025-10-04T13:46:14Z</time>
      </trkpt>
      <trkpt lat="45.97903" lon="4.43062">
        <ele>671</ele>
        <time>2025-10-04T13:46:15Z</time>
      </trkpt>
      <trkpt lat="45.97902" lon="4.4306">
        <ele>671</ele>
        <time>2025-10-04T13:46:16Z</time>
      </trkpt>
      <trkpt lat="45.97901" lon="4.43057">
        <ele>671.2</ele>
        <time>2025-10-04T13:46:17Z</time>
      </trkpt>
      <trkpt lat="45.97899" lon="4.43054">
        <ele>671.2</ele>
        <time>2025-10-04T13:46:18Z</time>
      </trkpt>
      <trkpt lat="45.97898" lon="4.43052">
        <ele>671.2</ele>
        <time>2025-10-04T13:46:19Z</time>
      </trkpt>
      <trkpt lat="45.97897" lon="4.4305">
        <ele>671.6</ele>
        <time>2025-10-04T13:46:20Z</time>
      </trkpt>
      <trkpt lat="45.97895" lon="4.43048">
        <ele>671.6</ele>
        <time>2025-10-04T13:46:21Z</time>
      </trkpt>
      <trkpt lat="45.97894" lon="4.43045">
        <ele>671.6</ele>
        <time>2025-10-04T13:46:22Z</time>
      </trkpt>
      <trkpt lat="45.97892" lon="4.43042">
        <ele>671.6</ele>
        <time>2025-10-04T13:46:23Z</time>
      </trkpt>
      <trkpt lat="45.97891" lon="4.4304">
        <ele>671.8</ele>
        <time>2025-10-04T13:46:24Z</time>
      </trkpt>
      <trkpt lat="45.9789" lon="4.43037">
        <ele>671.8</ele>
        <time>2025-10-04T13:46:25Z</time>
      </trkpt>
      <trkpt lat="45.97889" lon="4.43035">
        <ele>671.8</ele>
        <time>2025-10-04T13:46:26Z</time>
      </trkpt>
      <trkpt lat="45.97888" lon="4.43033">
        <ele>671.8</ele>
        <time>2025-10-04T13:46:27Z</time>
      </trkpt>
      <trkpt lat="45.97887" lon="4.4303">
        <ele>671.8</ele>
        <time>2025-10-04T13:46:28Z</time>
      </trkpt>
      <trkpt lat="45.97886" lon="4.43028">
        <ele>672.2</ele>
        <time>2025-10-04T13:46:29Z</time>
      </trkpt>
      <trkpt lat="45.97885" lon="4.43026">
        <ele>672.2</ele>
        <time>2025-10-04T13:46:30Z</time>
      </trkpt>
      <trkpt lat="45.97884" lon="4.43024">
        <ele>672.4</ele>
        <time>2025-10-04T13:46:31Z</time>
      </trkpt>
      <trkpt lat="45.97884" lon="4.43021">
        <ele>672.4</ele>
        <time>2025-10-04T13:46:32Z</time>
      </trkpt>
      <trkpt lat="45.97883" lon="4.43019">
        <ele>672.6</ele>
        <time>2025-10-04T13:46:33Z</time>
      </trkpt>
      <trkpt lat="45.97882" lon="4.43016">
        <ele>672.6</ele>
        <time>2025-10-04T13:46:34Z</time>
      </trkpt>
      <trkpt lat="45.97881" lon="4.43014">
        <ele>672.8</ele>
        <time>2025-10-04T13:46:35Z</time>
      </trkpt>
      <trkpt lat="45.9788" lon="4.43011">
        <ele>672.8</ele>
        <time>2025-10-04T13:46:36Z</time>
      </trkpt>
      <trkpt lat="45.97879" lon="4.43009">
        <ele>672.8</ele>
        <time>2025-10-04T13:46:37Z</time>
      </trkpt>
      <trkpt lat="45.97878" lon="4.43006">
        <ele>672.8</ele>
        <time>2025-10-04T13:46:38Z</time>
      </trkpt>
      <trkpt lat="45.97878" lon="4.43004">
        <ele>672.8</ele>
        <time>2025-10-04T13:46:39Z</time>
      </trkpt>
      <trkpt lat="45.97877" lon="4.43001">
        <ele>673.2</ele>
        <time>2025-10-04T13:46:40Z</time>
      </trkpt>
      <trkpt lat="45.97877" lon="4.42999">
        <ele>673.2</ele>
        <time>2025-10-04T13:46:41Z</time>
      </trkpt>
      <trkpt lat="45.97876" lon="4.42996">
        <ele>673.2</ele>
        <time>2025-10-04T13:46:42Z</time>
      </trkpt>
      <trkpt lat="45.97876" lon="4.42993">
        <ele>673.4</ele>
        <time>2025-10-04T13:46:43Z</time>
      </trkpt>
      <trkpt lat="45.97875" lon="4.42992">
        <ele>673.4</ele>
        <time>2025-10-04T13:46:44Z</time>
      </trkpt>
      <trkpt lat="45.97874" lon="4.4299">
        <ele>673.8</ele>
        <time>2025-10-04T13:46:45Z</time>
      </trkpt>
      <trkpt lat="45.97874" lon="4.42987">
        <ele>673.8</ele>
        <time>2025-10-04T13:46:46Z</time>
      </trkpt>
      <trkpt lat="45.97873" lon="4.42984">
        <ele>674</ele>
        <time>2025-10-04T13:46:47Z</time>
      </trkpt>
      <trkpt lat="45.97873" lon="4.42981">
        <ele>674</ele>
        <time>2025-10-04T13:46:48Z</time>
      </trkpt>
      <trkpt lat="45.97872" lon="4.42978">
        <ele>674</ele>
        <time>2025-10-04T13:46:49Z</time>
      </trkpt>
      <trkpt lat="45.97871" lon="4.42975">
        <ele>674.4</ele>
        <time>2025-10-04T13:46:50Z</time>
      </trkpt>
      <trkpt lat="45.9787" lon="4.42972">
        <ele>674.4</ele>
        <time>2025-10-04T13:46:51Z</time>
      </trkpt>
      <trkpt lat="45.97869" lon="4.42969">
        <ele>674.6</ele>
        <time>2025-10-04T13:46:52Z</time>
      </trkpt>
      <trkpt lat="45.97869" lon="4.42967">
        <ele>674.6</ele>
        <time>2025-10-04T13:46:53Z</time>
      </trkpt>
      <trkpt lat="45.97869" lon="4.42964">
        <ele>674.6</ele>
        <time>2025-10-04T13:46:54Z</time>
      </trkpt>
      <trkpt lat="45.97868" lon="4.42961">
        <ele>674.8</ele>
        <time>2025-10-04T13:46:55Z</time>
      </trkpt>
      <trkpt lat="45.97868" lon="4.42959">
        <ele>674.8</ele>
        <time>2025-10-04T13:46:56Z</time>
      </trkpt>
      <trkpt lat="45.97867" lon="4.42955">
        <ele>675</ele>
        <time>2025-10-04T13:46:57Z</time>
      </trkpt>
      <trkpt lat="45.97866" lon="4.42952">
        <ele>675</ele>
        <time>2025-10-04T13:46:58Z</time>
      </trkpt>
      <trkpt lat="45.97865" lon="4.42949">
        <ele>675</ele>
        <time>2025-10-04T13:46:59Z</time>
      </trkpt>
      <trkpt lat="45.97863" lon="4.42946">
        <ele>675.4</ele>
        <time>2025-10-04T13:47:00Z</time>
      </trkpt>
      <trkpt lat="45.97862" lon="4.42943">
        <ele>675.4</ele>
        <time>2025-10-04T13:47:01Z</time>
      </trkpt>
      <trkpt lat="45.97861" lon="4.4294">
        <ele>675.6</ele>
        <time>2025-10-04T13:47:02Z</time>
      </trkpt>
      <trkpt lat="45.97859" lon="4.42936">
        <ele>675.6</ele>
        <time>2025-10-04T13:47:03Z</time>
      </trkpt>
      <trkpt lat="45.97858" lon="4.42931">
        <ele>675.8</ele>
        <time>2025-10-04T13:47:04Z</time>
      </trkpt>
      <trkpt lat="45.97858" lon="4.42928">
        <ele>676.2</ele>
        <time>2025-10-04T13:47:05Z</time>
      </trkpt>
      <trkpt lat="45.97857" lon="4.42924">
        <ele>676.2</ele>
        <time>2025-10-04T13:47:06Z</time>
      </trkpt>
      <trkpt lat="45.97856" lon="4.42921">
        <ele>676.6</ele>
        <time>2025-10-04T13:47:07Z</time>
      </trkpt>
      <trkpt lat="45.97855" lon="4.42918">
        <ele>676.8</ele>
        <time>2025-10-04T13:47:08Z</time>
      </trkpt>
      <trkpt lat="45.97854" lon="4.42915">
        <ele>676.8</ele>
        <time>2025-10-04T13:47:09Z</time>
      </trkpt>
      <trkpt lat="45.97853" lon="4.42911">
        <ele>677.2</ele>
        <time>2025-10-04T13:47:10Z</time>
      </trkpt>
      <trkpt lat="45.97852" lon="4.42907">
        <ele>677.2</ele>
        <time>2025-10-04T13:47:11Z</time>
      </trkpt>
      <trkpt lat="45.97851" lon="4.42904">
        <ele>677.6</ele>
        <time>2025-10-04T13:47:12Z</time>
      </trkpt>
      <trkpt lat="45.9785" lon="4.42901">
        <ele>677.6</ele>
        <time>2025-10-04T13:47:13Z</time>
      </trkpt>
      <trkpt lat="45.9785" lon="4.42897">
        <ele>677.6</ele>
        <time>2025-10-04T13:47:14Z</time>
      </trkpt>
      <trkpt lat="45.97848" lon="4.42894">
        <ele>678</ele>
        <time>2025-10-04T13:47:15Z</time>
      </trkpt>
      <trkpt lat="45.97847" lon="4.42891">
        <ele>678.2</ele>
        <time>2025-10-04T13:47:16Z</time>
      </trkpt>
      <trkpt lat="45.97846" lon="4.42889">
        <ele>678.4</ele>
        <time>2025-10-04T13:47:17Z</time>
      </trkpt>
      <trkpt lat="45.97846" lon="4.42886">
        <ele>678.4</ele>
        <time>2025-10-04T13:47:18Z</time>
      </trkpt>
      <trkpt lat="45.97845" lon="4.42882">
        <ele>678.8</ele>
        <time>2025-10-04T13:47:19Z</time>
      </trkpt>
      <trkpt lat="45.97844" lon="4.4288">
        <ele>678.8</ele>
        <time>2025-10-04T13:47:20Z</time>
      </trkpt>
      <trkpt lat="45.97843" lon="4.42877">
        <ele>679</ele>
        <time>2025-10-04T13:47:21Z</time>
      </trkpt>
      <trkpt lat="45.97842" lon="4.42874">
        <ele>679</ele>
        <time>2025-10-04T13:47:22Z</time>
      </trkpt>
      <trkpt lat="45.97841" lon="4.42871">
        <ele>679.4</ele>
        <time>2025-10-04T13:47:23Z</time>
      </trkpt>
      <trkpt lat="45.97841" lon="4.42868">
        <ele>679.6</ele>
        <time>2025-10-04T13:47:24Z</time>
      </trkpt>
      <trkpt lat="45.9784" lon="4.42866">
        <ele>679.8</ele>
        <time>2025-10-04T13:47:25Z</time>
      </trkpt>
      <trkpt lat="45.9784" lon="4.42863">
        <ele>679.8</ele>
        <time>2025-10-04T13:47:26Z</time>
      </trkpt>
      <trkpt lat="45.97839" lon="4.4286">
        <ele>679.8</ele>
        <time>2025-10-04T13:47:27Z</time>
      </trkpt>
      <trkpt lat="45.97838" lon="4.42857">
        <ele>679.8</ele>
        <time>2025-10-04T13:47:28Z</time>
      </trkpt>
      <trkpt lat="45.97837" lon="4.42854">
        <ele>679.8</ele>
        <time>2025-10-04T13:47:29Z</time>
      </trkpt>
      <trkpt lat="45.97836" lon="4.42852">
        <ele>679.8</ele>
        <time>2025-10-04T13:47:30Z</time>
      </trkpt>
      <trkpt lat="45.97835" lon="4.42848">
        <ele>680.2</ele>
        <time>2025-10-04T13:47:31Z</time>
      </trkpt>
      <trkpt lat="45.97835" lon="4.42845">
        <ele>680.2</ele>
        <time>2025-10-04T13:47:32Z</time>
      </trkpt>
      <trkpt lat="45.97834" lon="4.42842">
        <ele>680.4</ele>
        <time>2025-10-04T13:47:33Z</time>
      </trkpt>
      <trkpt lat="45.97834" lon="4.42839">
        <ele>680.4</ele>
        <time>2025-10-04T13:47:34Z</time>
      </trkpt>
      <trkpt lat="45.97833" lon="4.42836">
        <ele>680.4</ele>
        <time>2025-10-04T13:47:35Z</time>
      </trkpt>
      <trkpt lat="45.97833" lon="4.42833">
        <ele>680.6</ele>
        <time>2025-10-04T13:47:36Z</time>
      </trkpt>
      <trkpt lat="45.97833" lon="4.42829">
        <ele>680.6</ele>
        <time>2025-10-04T13:47:37Z</time>
      </trkpt>
      <trkpt lat="45.97833" lon="4.42826">
        <ele>680.8</ele>
        <time>2025-10-04T13:47:38Z</time>
      </trkpt>
      <trkpt lat="45.97833" lon="4.42823">
        <ele>680.8</ele>
        <time>2025-10-04T13:47:39Z</time>
      </trkpt>
      <trkpt lat="45.97833" lon="4.42819">
        <ele>681</ele>
        <time>2025-10-04T13:47:40Z</time>
      </trkpt>
      <trkpt lat="45.97833" lon="4.42815">
        <ele>681</ele>
        <time>2025-10-04T13:47:41Z</time>
      </trkpt>
      <trkpt lat="45.97833" lon="4.42811">
        <ele>681</ele>
        <time>2025-10-04T13:47:42Z</time>
      </trkpt>
      <trkpt lat="45.97833" lon="4.42807">
        <ele>681</ele>
        <time>2025-10-04T13:47:43Z</time>
      </trkpt>
      <trkpt lat="45.97834" lon="4.42803">
        <ele>681.4</ele>
        <time>2025-10-04T13:47:44Z</time>
      </trkpt>
      <trkpt lat="45.97834" lon="4.42799">
        <ele>681.4</ele>
        <time>2025-10-04T13:47:45Z</time>
      </trkpt>
      <trkpt lat="45.97834" lon="4.42796">
        <ele>681.6</ele>
        <time>2025-10-04T13:47:46Z</time>
      </trkpt>
      <trkpt lat="45.97835" lon="4.42792">
        <ele>681.8</ele>
        <time>2025-10-04T13:47:47Z</time>
      </trkpt>
      <trkpt lat="45.97835" lon="4.42789">
        <ele>681.8</ele>
        <time>2025-10-04T13:47:48Z</time>
      </trkpt>
      <trkpt lat="45.97836" lon="4.42786">
        <ele>681.8</ele>
        <time>2025-10-04T13:47:49Z</time>
      </trkpt>
      <trkpt lat="45.97836" lon="4.42783">
        <ele>682.2</ele>
        <time>2025-10-04T13:47:50Z</time>
      </trkpt>
      <trkpt lat="45.97837" lon="4.4278">
        <ele>682.2</ele>
        <time>2025-10-04T13:47:51Z</time>
      </trkpt>
      <trkpt lat="45.97838" lon="4.42777">
        <ele>682.2</ele>
        <time>2025-10-04T13:47:52Z</time>
      </trkpt>
      <trkpt lat="45.97839" lon="4.42774">
        <ele>682.6</ele>
        <time>2025-10-04T13:47:53Z</time>
      </trkpt>
      <trkpt lat="45.9784" lon="4.42772">
        <ele>683</ele>
        <time>2025-10-04T13:47:54Z</time>
      </trkpt>
      <trkpt lat="45.97841" lon="4.4277">
        <ele>682.8</ele>
        <time>2025-10-04T13:47:55Z</time>
      </trkpt>
      <trkpt lat="45.97842" lon="4.42768">
        <ele>683.4</ele>
        <time>2025-10-04T13:47:56Z</time>
      </trkpt>
      <trkpt lat="45.97843" lon="4.42765">
        <ele>683.6</ele>
        <time>2025-10-04T13:47:57Z</time>
      </trkpt>
      <trkpt lat="45.97844" lon="4.42762">
        <ele>683.8</ele>
        <time>2025-10-04T13:47:58Z</time>
      </trkpt>
      <trkpt lat="45.97845" lon="4.4276">
        <ele>683.8</ele>
        <time>2025-10-04T13:47:59Z</time>
      </trkpt>
      <trkpt lat="45.97846" lon="4.42757">
        <ele>684.2</ele>
        <time>2025-10-04T13:48:00Z</time>
      </trkpt>
      <trkpt lat="45.97847" lon="4.42756">
        <ele>684.2</ele>
        <time>2025-10-04T13:48:01Z</time>
      </trkpt>
      <trkpt lat="45.97848" lon="4.42754">
        <ele>684.4</ele>
        <time>2025-10-04T13:48:02Z</time>
      </trkpt>
      <trkpt lat="45.9785" lon="4.42752">
        <ele>684.6</ele>
        <time>2025-10-04T13:48:03Z</time>
      </trkpt>
      <trkpt lat="45.97851" lon="4.42749">
        <ele>684.8</ele>
        <time>2025-10-04T13:48:04Z</time>
      </trkpt>
      <trkpt lat="45.97851" lon="4.42749">
        <ele>684.8</ele>
        <time>2025-10-04T13:48:05Z</time>
      </trkpt>
      <trkpt lat="45.97851" lon="4.42748">
        <ele>685.2</ele>
        <time>2025-10-04T13:48:06Z</time>
      </trkpt>
      <trkpt lat="45.97852" lon="4.42745">
        <ele>685.2</ele>
        <time>2025-10-04T13:48:07Z</time>
      </trkpt>
      <trkpt lat="45.97853" lon="4.42743">
        <ele>685.6</ele>
        <time>2025-10-04T13:48:08Z</time>
      </trkpt>
      <trkpt lat="45.97854" lon="4.42741">
        <ele>685.8</ele>
        <time>2025-10-04T13:48:09Z</time>
      </trkpt>
      <trkpt lat="45.97855" lon="4.42739">
        <ele>686</ele>
        <time>2025-10-04T13:48:10Z</time>
      </trkpt>
      <trkpt lat="45.97855" lon="4.42737">
        <ele>686</ele>
        <time>2025-10-04T13:48:11Z</time>
      </trkpt>
      <trkpt lat="45.97856" lon="4.42735">
        <ele>686.4</ele>
        <time>2025-10-04T13:48:12Z</time>
      </trkpt>
      <trkpt lat="45.97856" lon="4.42733">
        <ele>686.4</ele>
        <time>2025-10-04T13:48:13Z</time>
      </trkpt>
      <trkpt lat="45.97857" lon="4.42731">
        <ele>686.8</ele>
        <time>2025-10-04T13:48:14Z</time>
      </trkpt>
      <trkpt lat="45.97857" lon="4.42729">
        <ele>686.8</ele>
        <time>2025-10-04T13:48:15Z</time>
      </trkpt>
      <trkpt lat="45.97858" lon="4.42726">
        <ele>687</ele>
        <time>2025-10-04T13:48:16Z</time>
      </trkpt>
      <trkpt lat="45.97859" lon="4.42723">
        <ele>687</ele>
        <time>2025-10-04T13:48:17Z</time>
      </trkpt>
      <trkpt lat="45.97859" lon="4.42721">
        <ele>687.2</ele>
        <time>2025-10-04T13:48:18Z</time>
      </trkpt>
      <trkpt lat="45.97859" lon="4.42719">
        <ele>687.2</ele>
        <time>2025-10-04T13:48:19Z</time>
      </trkpt>
      <trkpt lat="45.97859" lon="4.42716">
        <ele>687.4</ele>
        <time>2025-10-04T13:48:20Z</time>
      </trkpt>
      <trkpt lat="45.9786" lon="4.42714">
        <ele>687.4</ele>
        <time>2025-10-04T13:48:21Z</time>
      </trkpt>
      <trkpt lat="45.9786" lon="4.42711">
        <ele>687.4</ele>
        <time>2025-10-04T13:48:22Z</time>
      </trkpt>
      <trkpt lat="45.9786" lon="4.42709">
        <ele>687.4</ele>
        <time>2025-10-04T13:48:23Z</time>
      </trkpt>
      <trkpt lat="45.97861" lon="4.42706">
        <ele>688</ele>
        <time>2025-10-04T13:48:24Z</time>
      </trkpt>
      <trkpt lat="45.97861" lon="4.42704">
        <ele>688.2</ele>
        <time>2025-10-04T13:48:25Z</time>
      </trkpt>
      <trkpt lat="45.97861" lon="4.42701">
        <ele>688.4</ele>
        <time>2025-10-04T13:48:26Z</time>
      </trkpt>
      <trkpt lat="45.97862" lon="4.42699">
        <ele>688.4</ele>
        <time>2025-10-04T13:48:27Z</time>
      </trkpt>
      <trkpt lat="45.97863" lon="4.42697">
        <ele>688.6</ele>
        <time>2025-10-04T13:48:28Z</time>
      </trkpt>
      <trkpt lat="45.97863" lon="4.42694">
        <ele>688.6</ele>
        <time>2025-10-04T13:48:29Z</time>
      </trkpt>
      <trkpt lat="45.97864" lon="4.42691">
        <ele>688.6</ele>
        <time>2025-10-04T13:48:30Z</time>
      </trkpt>
      <trkpt lat="45.97864" lon="4.42688">
        <ele>689</ele>
        <time>2025-10-04T13:48:31Z</time>
      </trkpt>
      <trkpt lat="45.97864" lon="4.42686">
        <ele>689</ele>
        <time>2025-10-04T13:48:32Z</time>
      </trkpt>
      <trkpt lat="45.97865" lon="4.42683">
        <ele>689.4</ele>
        <time>2025-10-04T13:48:33Z</time>
      </trkpt>
      <trkpt lat="45.97865" lon="4.42681">
        <ele>689.4</ele>
        <time>2025-10-04T13:48:34Z</time>
      </trkpt>
      <trkpt lat="45.97866" lon="4.42678">
        <ele>689.6</ele>
        <time>2025-10-04T13:48:35Z</time>
      </trkpt>
      <trkpt lat="45.97866" lon="4.42676">
        <ele>689.6</ele>
        <time>2025-10-04T13:48:36Z</time>
      </trkpt>
      <trkpt lat="45.97866" lon="4.42673">
        <ele>689.6</ele>
        <time>2025-10-04T13:48:37Z</time>
      </trkpt>
      <trkpt lat="45.97867" lon="4.42671">
        <ele>690</ele>
        <time>2025-10-04T13:48:38Z</time>
      </trkpt>
      <trkpt lat="45.97867" lon="4.42668">
        <ele>690</ele>
        <time>2025-10-04T13:48:39Z</time>
      </trkpt>
      <trkpt lat="45.97868" lon="4.42666">
        <ele>690.4</ele>
        <time>2025-10-04T13:48:40Z</time>
      </trkpt>
      <trkpt lat="45.97868" lon="4.42664">
        <ele>690.4</ele>
        <time>2025-10-04T13:48:41Z</time>
      </trkpt>
      <trkpt lat="45.97868" lon="4.42661">
        <ele>690.8</ele>
        <time>2025-10-04T13:48:42Z</time>
      </trkpt>
      <trkpt lat="45.97868" lon="4.42659">
        <ele>691</ele>
        <time>2025-10-04T13:48:43Z</time>
      </trkpt>
      <trkpt lat="45.97868" lon="4.42658">
        <ele>691.2</ele>
        <time>2025-10-04T13:48:44Z</time>
      </trkpt>
      <trkpt lat="45.97868" lon="4.42656">
        <ele>691.2</ele>
        <time>2025-10-04T13:48:45Z</time>
      </trkpt>
      <trkpt lat="45.97868" lon="4.42655">
        <ele>691.4</ele>
        <time>2025-10-04T13:48:46Z</time>
      </trkpt>
      <trkpt lat="45.97869" lon="4.42654">
        <ele>691.4</ele>
        <time>2025-10-04T13:48:47Z</time>
      </trkpt>
      <trkpt lat="45.97869" lon="4.42652">
        <ele>691.4</ele>
        <time>2025-10-04T13:48:48Z</time>
      </trkpt>
      <trkpt lat="45.97869" lon="4.42651">
        <ele>691.4</ele>
        <time>2025-10-04T13:48:49Z</time>
      </trkpt>
      <trkpt lat="45.97869" lon="4.42651">
        <ele>691.4</ele>
        <time>2025-10-04T13:48:50Z</time>
      </trkpt>
      <trkpt lat="45.97869" lon="4.4265">
        <ele>691.4</ele>
        <time>2025-10-04T13:48:51Z</time>
      </trkpt>
      <trkpt lat="45.97869" lon="4.42649">
        <ele>691.4</ele>
        <time>2025-10-04T13:48:52Z</time>
      </trkpt>
      <trkpt lat="45.97868" lon="4.42648">
        <ele>691.4</ele>
        <time>2025-10-04T13:48:53Z</time>
      </trkpt>
      <trkpt lat="45.97866" lon="4.42646">
        <ele>691.2</ele>
        <time>2025-10-04T13:48:54Z</time>
      </trkpt>
      <trkpt lat="45.97864" lon="4.42642">
        <ele>691</ele>
        <time>2025-10-04T13:48:55Z</time>
      </trkpt>
      <trkpt lat="45.97862" lon="4.42637">
        <ele>690.4</ele>
        <time>2025-10-04T13:48:56Z</time>
      </trkpt>
      <trkpt lat="45.97859" lon="4.42631">
        <ele>689.6</ele>
        <time>2025-10-04T13:48:57Z</time>
      </trkpt>
      <trkpt lat="45.97859" lon="4.42631">
        <ele>688.6</ele>
        <time>2025-10-04T13:48:58Z</time>
      </trkpt>
      <trkpt lat="45.97855" lon="4.42624">
        <ele>688.6</ele>
        <time>2025-10-04T13:48:59Z</time>
      </trkpt>
      <trkpt lat="45.97852" lon="4.42615">
        <ele>687.8</ele>
        <time>2025-10-04T13:49:00Z</time>
      </trkpt>
      <trkpt lat="45.97852" lon="4.42608">
        <ele>687</ele>
        <time>2025-10-04T13:49:01Z</time>
      </trkpt>
      <trkpt lat="45.97853" lon="4.42601">
        <ele>686.4</ele>
        <time>2025-10-04T13:49:02Z</time>
      </trkpt>
      <trkpt lat="45.97852" lon="4.42597">
        <ele>685.8</ele>
        <time>2025-10-04T13:49:03Z</time>
      </trkpt>
      <trkpt lat="45.97853" lon="4.42592">
        <ele>685.4</ele>
        <time>2025-10-04T13:49:04Z</time>
      </trkpt>
      <trkpt lat="45.97854" lon="4.42586">
        <ele>685</ele>
        <time>2025-10-04T13:49:05Z</time>
      </trkpt>
      <trkpt lat="45.97853" lon="4.42579">
        <ele>684.2</ele>
        <time>2025-10-04T13:49:06Z</time>
      </trkpt>
      <trkpt lat="45.97853" lon="4.42572">
        <ele>684</ele>
        <time>2025-10-04T13:49:07Z</time>
      </trkpt>
      <trkpt lat="45.97852" lon="4.42565">
        <ele>683.4</ele>
        <time>2025-10-04T13:49:08Z</time>
      </trkpt>
      <trkpt lat="45.97852" lon="4.42556">
        <ele>682.6</ele>
        <time>2025-10-04T13:49:09Z</time>
      </trkpt>
      <trkpt lat="45.97851" lon="4.42546">
        <ele>681.6</ele>
        <time>2025-10-04T13:49:10Z</time>
      </trkpt>
      <trkpt lat="45.9785" lon="4.42536">
        <ele>680.6</ele>
        <time>2025-10-04T13:49:11Z</time>
      </trkpt>
      <trkpt lat="45.97849" lon="4.42525">
        <ele>679.2</ele>
        <time>2025-10-04T13:49:12Z</time>
      </trkpt>
      <trkpt lat="45.97847" lon="4.42512">
        <ele>677.8</ele>
        <time>2025-10-04T13:49:13Z</time>
      </trkpt>
      <trkpt lat="45.97844" lon="4.42499">
        <ele>676.4</ele>
        <time>2025-10-04T13:49:14Z</time>
      </trkpt>
      <trkpt lat="45.97846" lon="4.42486">
        <ele>675</ele>
        <time>2025-10-04T13:49:15Z</time>
      </trkpt>
      <trkpt lat="45.97847" lon="4.42472">
        <ele>674.2</ele>
        <time>2025-10-04T13:49:16Z</time>
      </trkpt>
      <trkpt lat="45.97846" lon="4.4246">
        <ele>673.4</ele>
        <time>2025-10-04T13:49:17Z</time>
      </trkpt>
      <trkpt lat="45.97842" lon="4.42455">
        <ele>673</ele>
        <time>2025-10-04T13:49:18Z</time>
      </trkpt>
      <trkpt lat="45.97838" lon="4.4245">
        <ele>672.6</ele>
        <time>2025-10-04T13:49:19Z</time>
      </trkpt>
      <trkpt lat="45.97835" lon="4.42449">
        <ele>672.4</ele>
        <time>2025-10-04T13:49:20Z</time>
      </trkpt>
      <trkpt lat="45.97829" lon="4.42446">
        <ele>672.4</ele>
        <time>2025-10-04T13:49:21Z</time>
      </trkpt>
      <trkpt lat="45.97827" lon="4.42443">
        <ele>672.4</ele>
        <time>2025-10-04T13:49:22Z</time>
      </trkpt>
      <trkpt lat="45.97823" lon="4.4244">
        <ele>672.4</ele>
        <time>2025-10-04T13:49:23Z</time>
      </trkpt>
      <trkpt lat="45.97819" lon="4.42438">
        <ele>672.6</ele>
        <time>2025-10-04T13:49:24Z</time>
      </trkpt>
      <trkpt lat="45.97816" lon="4.42436">
        <ele>672.8</ele>
        <time>2025-10-04T13:49:25Z</time>
      </trkpt>
      <trkpt lat="45.97812" lon="4.42433">
        <ele>673.2</ele>
        <time>2025-10-04T13:49:26Z</time>
      </trkpt>
      <trkpt lat="45.9781" lon="4.42432">
        <ele>673.6</ele>
        <time>2025-10-04T13:49:27Z</time>
      </trkpt>
      <trkpt lat="45.97805" lon="4.42429">
        <ele>674.2</ele>
        <time>2025-10-04T13:49:28Z</time>
      </trkpt>
      <trkpt lat="45.97803" lon="4.42427">
        <ele>674.6</ele>
        <time>2025-10-04T13:49:29Z</time>
      </trkpt>
      <trkpt lat="45.97802" lon="4.42424">
        <ele>674.8</ele>
        <time>2025-10-04T13:49:30Z</time>
      </trkpt>
      <trkpt lat="45.97799" lon="4.42424">
        <ele>675</ele>
        <time>2025-10-04T13:49:31Z</time>
      </trkpt>
      <trkpt lat="45.97797" lon="4.42423">
        <ele>675.4</ele>
        <time>2025-10-04T13:49:32Z</time>
      </trkpt>
      <trkpt lat="45.97794" lon="4.42422">
        <ele>675.4</ele>
        <time>2025-10-04T13:49:33Z</time>
      </trkpt>
      <trkpt lat="45.97792" lon="4.42421">
        <ele>675.8</ele>
        <time>2025-10-04T13:49:34Z</time>
      </trkpt>
      <trkpt lat="45.97789" lon="4.42419">
        <ele>676</ele>
        <time>2025-10-04T13:49:35Z</time>
      </trkpt>
      <trkpt lat="45.97787" lon="4.42417">
        <ele>676.4</ele>
        <time>2025-10-04T13:49:36Z</time>
      </trkpt>
      <trkpt lat="45.97786" lon="4.42414">
        <ele>676.4</ele>
        <time>2025-10-04T13:49:37Z</time>
      </trkpt>
      <trkpt lat="45.97784" lon="4.42412">
        <ele>676.8</ele>
        <time>2025-10-04T13:49:38Z</time>
      </trkpt>
      <trkpt lat="45.97783" lon="4.4241">
        <ele>677.2</ele>
        <time>2025-10-04T13:49:39Z</time>
      </trkpt>
      <trkpt lat="45.97781" lon="4.42409">
        <ele>677.4</ele>
        <time>2025-10-04T13:49:40Z</time>
      </trkpt>
      <trkpt lat="45.97779" lon="4.42408">
        <ele>677.4</ele>
        <time>2025-10-04T13:49:41Z</time>
      </trkpt>
      <trkpt lat="45.97777" lon="4.42407">
        <ele>677.8</ele>
        <time>2025-10-04T13:49:42Z</time>
      </trkpt>
      <trkpt lat="45.97776" lon="4.42406">
        <ele>678</ele>
        <time>2025-10-04T13:49:43Z</time>
      </trkpt>
      <trkpt lat="45.97774" lon="4.42404">
        <ele>677</ele>
        <time>2025-10-04T13:49:44Z</time>
      </trkpt>
      <trkpt lat="45.97773" lon="4.42403">
        <ele>678.6</ele>
        <time>2025-10-04T13:49:45Z</time>
      </trkpt>
      <trkpt lat="45.97771" lon="4.42403">
        <ele>679</ele>
        <time>2025-10-04T13:49:46Z</time>
      </trkpt>
      <trkpt lat="45.9777" lon="4.42401">
        <ele>679</ele>
        <time>2025-10-04T13:49:47Z</time>
      </trkpt>
      <trkpt lat="45.97768" lon="4.424">
        <ele>679.2</ele>
        <time>2025-10-04T13:49:48Z</time>
      </trkpt>
      <trkpt lat="45.97767" lon="4.42398">
        <ele>679.2</ele>
        <time>2025-10-04T13:49:49Z</time>
      </trkpt>
      <trkpt lat="45.97766" lon="4.42397">
        <ele>679.6</ele>
        <time>2025-10-04T13:49:50Z</time>
      </trkpt>
      <trkpt lat="45.97765" lon="4.42396">
        <ele>679.6</ele>
        <time>2025-10-04T13:49:51Z</time>
      </trkpt>
      <trkpt lat="45.97763" lon="4.42395">
        <ele>680.2</ele>
        <time>2025-10-04T13:49:52Z</time>
      </trkpt>
      <trkpt lat="45.97762" lon="4.42394">
        <ele>680.2</ele>
        <time>2025-10-04T13:49:53Z</time>
      </trkpt>
      <trkpt lat="45.9776" lon="4.42393">
        <ele>680.4</ele>
        <time>2025-10-04T13:49:54Z</time>
      </trkpt>
      <trkpt lat="45.97759" lon="4.42391">
        <ele>680.8</ele>
        <time>2025-10-04T13:49:55Z</time>
      </trkpt>
      <trkpt lat="45.97758" lon="4.4239">
        <ele>680.8</ele>
        <time>2025-10-04T13:49:56Z</time>
      </trkpt>
      <trkpt lat="45.97757" lon="4.42388">
        <ele>681.2</ele>
        <time>2025-10-04T13:49:57Z</time>
      </trkpt>
      <trkpt lat="45.97755" lon="4.42386">
        <ele>681.4</ele>
        <time>2025-10-04T13:49:58Z</time>
      </trkpt>
      <trkpt lat="45.97753" lon="4.42385">
        <ele>681.4</ele>
        <time>2025-10-04T13:49:59Z</time>
      </trkpt>
      <trkpt lat="45.97751" lon="4.42385">
        <ele>681.8</ele>
        <time>2025-10-04T13:50:00Z</time>
      </trkpt>
      <trkpt lat="45.97749" lon="4.42385">
        <ele>682</ele>
        <time>2025-10-04T13:50:01Z</time>
      </trkpt>
      <trkpt lat="45.97748" lon="4.42385">
        <ele>682</ele>
        <time>2025-10-04T13:50:02Z</time>
      </trkpt>
      <trkpt lat="45.97746" lon="4.42385">
        <ele>682.4</ele>
        <time>2025-10-04T13:50:03Z</time>
      </trkpt>
      <trkpt lat="45.97744" lon="4.42385">
        <ele>682.4</ele>
        <time>2025-10-04T13:50:04Z</time>
      </trkpt>
      <trkpt lat="45.97742" lon="4.42385">
        <ele>682.6</ele>
        <time>2025-10-04T13:50:05Z</time>
      </trkpt>
      <trkpt lat="45.97741" lon="4.42384">
        <ele>683</ele>
        <time>2025-10-04T13:50:06Z</time>
      </trkpt>
      <trkpt lat="45.97739" lon="4.42383">
        <ele>683</ele>
        <time>2025-10-04T13:50:07Z</time>
      </trkpt>
      <trkpt lat="45.97738" lon="4.42382">
        <ele>683.4</ele>
        <time>2025-10-04T13:50:08Z</time>
      </trkpt>
      <trkpt lat="45.97736" lon="4.42382">
        <ele>683.4</ele>
        <time>2025-10-04T13:50:09Z</time>
      </trkpt>
      <trkpt lat="45.97734" lon="4.42381">
        <ele>683.4</ele>
        <time>2025-10-04T13:50:10Z</time>
      </trkpt>
      <trkpt lat="45.97733" lon="4.4238">
        <ele>683.6</ele>
        <time>2025-10-04T13:50:11Z</time>
      </trkpt>
      <trkpt lat="45.97731" lon="4.42379">
        <ele>683.6</ele>
        <time>2025-10-04T13:50:12Z</time>
      </trkpt>
      <trkpt lat="45.97729" lon="4.42378">
        <ele>683.6</ele>
        <time>2025-10-04T13:50:13Z</time>
      </trkpt>
      <trkpt lat="45.97728" lon="4.42377">
        <ele>684</ele>
        <time>2025-10-04T13:50:14Z</time>
      </trkpt>
      <trkpt lat="45.97726" lon="4.42375">
        <ele>684</ele>
        <time>2025-10-04T13:50:15Z</time>
      </trkpt>
      <trkpt lat="45.97724" lon="4.42374">
        <ele>684.2</ele>
        <time>2025-10-04T13:50:16Z</time>
      </trkpt>
      <trkpt lat="45.97723" lon="4.42373">
        <ele>684.2</ele>
        <time>2025-10-04T13:50:17Z</time>
      </trkpt>
      <trkpt lat="45.97722" lon="4.42372">
        <ele>684.2</ele>
        <time>2025-10-04T13:50:18Z</time>
      </trkpt>
      <trkpt lat="45.97721" lon="4.4237">
        <ele>684.4</ele>
        <time>2025-10-04T13:50:19Z</time>
      </trkpt>
      <trkpt lat="45.9772" lon="4.42369">
        <ele>684.4</ele>
        <time>2025-10-04T13:50:20Z</time>
      </trkpt>
      <trkpt lat="45.97718" lon="4.42367">
        <ele>684.4</ele>
        <time>2025-10-04T13:50:21Z</time>
      </trkpt>
      <trkpt lat="45.97717" lon="4.42365">
        <ele>684.6</ele>
        <time>2025-10-04T13:50:22Z</time>
      </trkpt>
      <trkpt lat="45.97715" lon="4.42364">
        <ele>684.6</ele>
        <time>2025-10-04T13:50:23Z</time>
      </trkpt>
      <trkpt lat="45.97714" lon="4.42362">
        <ele>685</ele>
        <time>2025-10-04T13:50:24Z</time>
      </trkpt>
      <trkpt lat="45.97713" lon="4.42361">
        <ele>685</ele>
        <time>2025-10-04T13:50:25Z</time>
      </trkpt>
      <trkpt lat="45.97711" lon="4.42359">
        <ele>685</ele>
        <time>2025-10-04T13:50:26Z</time>
      </trkpt>
      <trkpt lat="45.9771" lon="4.42358">
        <ele>685.4</ele>
        <time>2025-10-04T13:50:27Z</time>
      </trkpt>
      <trkpt lat="45.97708" lon="4.42356">
        <ele>685.4</ele>
        <time>2025-10-04T13:50:28Z</time>
      </trkpt>
      <trkpt lat="45.97707" lon="4.42355">
        <ele>685.8</ele>
        <time>2025-10-04T13:50:29Z</time>
      </trkpt>
      <trkpt lat="45.97706" lon="4.42354">
        <ele>685.8</ele>
        <time>2025-10-04T13:50:30Z</time>
      </trkpt>
      <trkpt lat="45.97705" lon="4.42352">
        <ele>686.2</ele>
        <time>2025-10-04T13:50:31Z</time>
      </trkpt>
      <trkpt lat="45.97704" lon="4.42351">
        <ele>686.2</ele>
        <time>2025-10-04T13:50:32Z</time>
      </trkpt>
      <trkpt lat="45.97703" lon="4.42349">
        <ele>686.6</ele>
        <time>2025-10-04T13:50:33Z</time>
      </trkpt>
      <trkpt lat="45.97702" lon="4.42348">
        <ele>686.6</ele>
        <time>2025-10-04T13:50:34Z</time>
      </trkpt>
      <trkpt lat="45.97701" lon="4.42348">
        <ele>687</ele>
        <time>2025-10-04T13:50:35Z</time>
      </trkpt>
      <trkpt lat="45.977" lon="4.42348">
        <ele>687</ele>
        <time>2025-10-04T13:50:36Z</time>
      </trkpt>
      <trkpt lat="45.97698" lon="4.42348">
        <ele>687</ele>
        <time>2025-10-04T13:50:37Z</time>
      </trkpt>
      <trkpt lat="45.97696" lon="4.42349">
        <ele>687</ele>
        <time>2025-10-04T13:50:38Z</time>
      </trkpt>
      <trkpt lat="45.97695" lon="4.42349">
        <ele>687</ele>
        <time>2025-10-04T13:50:39Z</time>
      </trkpt>
      <trkpt lat="45.97694" lon="4.4235">
        <ele>687</ele>
        <time>2025-10-04T13:50:40Z</time>
      </trkpt>
      <trkpt lat="45.97693" lon="4.4235">
        <ele>687</ele>
        <time>2025-10-04T13:50:41Z</time>
      </trkpt>
      <trkpt lat="45.97692" lon="4.42349">
        <ele>687</ele>
        <time>2025-10-04T13:50:42Z</time>
      </trkpt>
      <trkpt lat="45.97692" lon="4.42347">
        <ele>687</ele>
        <time>2025-10-04T13:50:43Z</time>
      </trkpt>
      <trkpt lat="45.97692" lon="4.42345">
        <ele>686.8</ele>
        <time>2025-10-04T13:50:44Z</time>
      </trkpt>
      <trkpt lat="45.97693" lon="4.42344">
        <ele>686.8</ele>
        <time>2025-10-04T13:50:45Z</time>
      </trkpt>
      <trkpt lat="45.97694" lon="4.42343">
        <ele>686.8</ele>
        <time>2025-10-04T13:50:46Z</time>
      </trkpt>
      <trkpt lat="45.97696" lon="4.42343">
        <ele>686.8</ele>
        <time>2025-10-04T13:50:47Z</time>
      </trkpt>
      <trkpt lat="45.97697" lon="4.42344">
        <ele>686.8</ele>
        <time>2025-10-04T13:50:48Z</time>
      </trkpt>
      <trkpt lat="45.97699" lon="4.42345">
        <ele>686.8</ele>
        <time>2025-10-04T13:50:49Z</time>
      </trkpt>
      <trkpt lat="45.977" lon="4.42344">
        <ele>686.8</ele>
        <time>2025-10-04T13:50:50Z</time>
      </trkpt>
      <trkpt lat="45.97702" lon="4.42342">
        <ele>686.8</ele>
        <time>2025-10-04T13:50:51Z</time>
      </trkpt>
      <trkpt lat="45.97703" lon="4.42339">
        <ele>686.8</ele>
        <time>2025-10-04T13:50:52Z</time>
      </trkpt>
      <trkpt lat="45.97704" lon="4.42337">
        <ele>687</ele>
        <time>2025-10-04T13:50:53Z</time>
      </trkpt>
      <trkpt lat="45.97705" lon="4.42335">
        <ele>687</ele>
        <time>2025-10-04T13:50:54Z</time>
      </trkpt>
      <trkpt lat="45.97705" lon="4.42333">
        <ele>687.2</ele>
        <time>2025-10-04T13:50:55Z</time>
      </trkpt>
      <trkpt lat="45.97706" lon="4.42331">
        <ele>687.6</ele>
        <time>2025-10-04T13:50:56Z</time>
      </trkpt>
      <trkpt lat="45.97707" lon="4.42329">
        <ele>687.8</ele>
        <time>2025-10-04T13:50:57Z</time>
      </trkpt>
      <trkpt lat="45.97708" lon="4.42327">
        <ele>687.8</ele>
        <time>2025-10-04T13:50:58Z</time>
      </trkpt>
      <trkpt lat="45.9771" lon="4.42325">
        <ele>688.2</ele>
        <time>2025-10-04T13:50:59Z</time>
      </trkpt>
      <trkpt lat="45.97711" lon="4.42324">
        <ele>688.2</ele>
        <time>2025-10-04T13:51:00Z</time>
      </trkpt>
      <trkpt lat="45.97712" lon="4.42322">
        <ele>688.4</ele>
        <time>2025-10-04T13:51:01Z</time>
      </trkpt>
      <trkpt lat="45.97713" lon="4.4232">
        <ele>688.4</ele>
        <time>2025-10-04T13:51:02Z</time>
      </trkpt>
      <trkpt lat="45.97714" lon="4.42318">
        <ele>688.8</ele>
        <time>2025-10-04T13:51:03Z</time>
      </trkpt>
      <trkpt lat="45.97716" lon="4.42315">
        <ele>688.8</ele>
        <time>2025-10-04T13:51:04Z</time>
      </trkpt>
      <trkpt lat="45.97717" lon="4.42313">
        <ele>688.8</ele>
        <time>2025-10-04T13:51:05Z</time>
      </trkpt>
      <trkpt lat="45.97718" lon="4.42311">
        <ele>689</ele>
        <time>2025-10-04T13:51:06Z</time>
      </trkpt>
      <trkpt lat="45.97719" lon="4.42309">
        <ele>689</ele>
        <time>2025-10-04T13:51:07Z</time>
      </trkpt>
      <trkpt lat="45.97719" lon="4.42307">
        <ele>689</ele>
        <time>2025-10-04T13:51:08Z</time>
      </trkpt>
      <trkpt lat="45.9772" lon="4.42304">
        <ele>689.4</ele>
        <time>2025-10-04T13:51:09Z</time>
      </trkpt>
      <trkpt lat="45.97721" lon="4.42302">
        <ele>689.6</ele>
        <time>2025-10-04T13:51:10Z</time>
      </trkpt>
      <trkpt lat="45.97722" lon="4.423">
        <ele>689.8</ele>
        <time>2025-10-04T13:51:11Z</time>
      </trkpt>
      <trkpt lat="45.97723" lon="4.42298">
        <ele>690</ele>
        <time>2025-10-04T13:51:12Z</time>
      </trkpt>
      <trkpt lat="45.97724" lon="4.42295">
        <ele>690</ele>
        <time>2025-10-04T13:51:13Z</time>
      </trkpt>
      <trkpt lat="45.97725" lon="4.42293">
        <ele>690.2</ele>
        <time>2025-10-04T13:51:14Z</time>
      </trkpt>
      <trkpt lat="45.97725" lon="4.42291">
        <ele>690.6</ele>
        <time>2025-10-04T13:51:15Z</time>
      </trkpt>
      <trkpt lat="45.97725" lon="4.42288">
        <ele>690.8</ele>
        <time>2025-10-04T13:51:16Z</time>
      </trkpt>
      <trkpt lat="45.97725" lon="4.42286">
        <ele>690.8</ele>
        <time>2025-10-04T13:51:17Z</time>
      </trkpt>
      <trkpt lat="45.97725" lon="4.42284">
        <ele>691.2</ele>
        <time>2025-10-04T13:51:18Z</time>
      </trkpt>
      <trkpt lat="45.97724" lon="4.42281">
        <ele>691.2</ele>
        <time>2025-10-04T13:51:19Z</time>
      </trkpt>
      <trkpt lat="45.97724" lon="4.42279">
        <ele>691.2</ele>
        <time>2025-10-04T13:51:20Z</time>
      </trkpt>
      <trkpt lat="45.97723" lon="4.42276">
        <ele>691.4</ele>
        <time>2025-10-04T13:51:21Z</time>
      </trkpt>
      <trkpt lat="45.97722" lon="4.42274">
        <ele>691.4</ele>
        <time>2025-10-04T13:51:22Z</time>
      </trkpt>
      <trkpt lat="45.97721" lon="4.42272">
        <ele>691.6</ele>
        <time>2025-10-04T13:51:23Z</time>
      </trkpt>
      <trkpt lat="45.9772" lon="4.42269">
        <ele>691.6</ele>
        <time>2025-10-04T13:51:24Z</time>
      </trkpt>
      <trkpt lat="45.97718" lon="4.42267">
        <ele>691.8</ele>
        <time>2025-10-04T13:51:25Z</time>
      </trkpt>
      <trkpt lat="45.97717" lon="4.42264">
        <ele>692</ele>
        <time>2025-10-04T13:51:26Z</time>
      </trkpt>
      <trkpt lat="45.97717" lon="4.42262">
        <ele>692</ele>
        <time>2025-10-04T13:51:27Z</time>
      </trkpt>
      <trkpt lat="45.97716" lon="4.42259">
        <ele>692.4</ele>
        <time>2025-10-04T13:51:28Z</time>
      </trkpt>
      <trkpt lat="45.97715" lon="4.42256">
        <ele>692.4</ele>
        <time>2025-10-04T13:51:29Z</time>
      </trkpt>
      <trkpt lat="45.97714" lon="4.42253">
        <ele>692.6</ele>
        <time>2025-10-04T13:51:30Z</time>
      </trkpt>
      <trkpt lat="45.97713" lon="4.4225">
        <ele>692.6</ele>
        <time>2025-10-04T13:51:31Z</time>
      </trkpt>
      <trkpt lat="45.97712" lon="4.42248">
        <ele>692.6</ele>
        <time>2025-10-04T13:51:32Z</time>
      </trkpt>
      <trkpt lat="45.97711" lon="4.42245">
        <ele>693</ele>
        <time>2025-10-04T13:51:33Z</time>
      </trkpt>
      <trkpt lat="45.9771" lon="4.42243">
        <ele>693</ele>
        <time>2025-10-04T13:51:34Z</time>
      </trkpt>
      <trkpt lat="45.97708" lon="4.4224">
        <ele>693.2</ele>
        <time>2025-10-04T13:51:35Z</time>
      </trkpt>
      <trkpt lat="45.97707" lon="4.42237">
        <ele>693.2</ele>
        <time>2025-10-04T13:51:36Z</time>
      </trkpt>
      <trkpt lat="45.97706" lon="4.42235">
        <ele>693.6</ele>
        <time>2025-10-04T13:51:37Z</time>
      </trkpt>
      <trkpt lat="45.97705" lon="4.42232">
        <ele>693.8</ele>
        <time>2025-10-04T13:51:38Z</time>
      </trkpt>
      <trkpt lat="45.97704" lon="4.42229">
        <ele>693.8</ele>
        <time>2025-10-04T13:51:39Z</time>
      </trkpt>
      <trkpt lat="45.97703" lon="4.42226">
        <ele>693.8</ele>
        <time>2025-10-04T13:51:40Z</time>
      </trkpt>
      <trkpt lat="45.97701" lon="4.42223">
        <ele>694.2</ele>
        <time>2025-10-04T13:51:41Z</time>
      </trkpt>
      <trkpt lat="45.977" lon="4.4222">
        <ele>694.4</ele>
        <time>2025-10-04T13:51:42Z</time>
      </trkpt>
      <trkpt lat="45.97698" lon="4.42217">
        <ele>694.4</ele>
        <time>2025-10-04T13:51:43Z</time>
      </trkpt>
      <trkpt lat="45.97697" lon="4.42215">
        <ele>694.4</ele>
        <time>2025-10-04T13:51:44Z</time>
      </trkpt>
      <trkpt lat="45.97696" lon="4.42212">
        <ele>694.6</ele>
        <time>2025-10-04T13:51:45Z</time>
      </trkpt>
      <trkpt lat="45.97695" lon="4.42209">
        <ele>694.6</ele>
        <time>2025-10-04T13:51:46Z</time>
      </trkpt>
      <trkpt lat="45.97694" lon="4.42207">
        <ele>694.8</ele>
        <time>2025-10-04T13:51:47Z</time>
      </trkpt>
      <trkpt lat="45.97693" lon="4.42204">
        <ele>694.8</ele>
        <time>2025-10-04T13:51:48Z</time>
      </trkpt>
      <trkpt lat="45.97692" lon="4.422">
        <ele>695</ele>
        <time>2025-10-04T13:51:49Z</time>
      </trkpt>
      <trkpt lat="45.97691" lon="4.42197">
        <ele>695</ele>
        <time>2025-10-04T13:51:50Z</time>
      </trkpt>
      <trkpt lat="45.9769" lon="4.42195">
        <ele>695</ele>
        <time>2025-10-04T13:51:51Z</time>
      </trkpt>
      <trkpt lat="45.97689" lon="4.42192">
        <ele>695.4</ele>
        <time>2025-10-04T13:51:52Z</time>
      </trkpt>
      <trkpt lat="45.97688" lon="4.42189">
        <ele>695.6</ele>
        <time>2025-10-04T13:51:53Z</time>
      </trkpt>
      <trkpt lat="45.97687" lon="4.42187">
        <ele>695.6</ele>
        <time>2025-10-04T13:51:54Z</time>
      </trkpt>
      <trkpt lat="45.97686" lon="4.42185">
        <ele>695.8</ele>
        <time>2025-10-04T13:51:55Z</time>
      </trkpt>
      <trkpt lat="45.97685" lon="4.42182">
        <ele>695.8</ele>
        <time>2025-10-04T13:51:56Z</time>
      </trkpt>
      <trkpt lat="45.97684" lon="4.42179">
        <ele>695.8</ele>
        <time>2025-10-04T13:51:57Z</time>
      </trkpt>
      <trkpt lat="45.97683" lon="4.42176">
        <ele>695.8</ele>
        <time>2025-10-04T13:51:58Z</time>
      </trkpt>
      <trkpt lat="45.97682" lon="4.42173">
        <ele>695.8</ele>
        <time>2025-10-04T13:51:59Z</time>
      </trkpt>
      <trkpt lat="45.97681" lon="4.4217">
        <ele>695.8</ele>
        <time>2025-10-04T13:52:00Z</time>
      </trkpt>
      <trkpt lat="45.9768" lon="4.42167">
        <ele>696.2</ele>
        <time>2025-10-04T13:52:01Z</time>
      </trkpt>
      <trkpt lat="45.97679" lon="4.42164">
        <ele>696.2</ele>
        <time>2025-10-04T13:52:02Z</time>
      </trkpt>
      <trkpt lat="45.97679" lon="4.42161">
        <ele>696.6</ele>
        <time>2025-10-04T13:52:03Z</time>
      </trkpt>
      <trkpt lat="45.97678" lon="4.42158">
        <ele>696.6</ele>
        <time>2025-10-04T13:52:04Z</time>
      </trkpt>
      <trkpt lat="45.97677" lon="4.42155">
        <ele>696.8</ele>
        <time>2025-10-04T13:52:05Z</time>
      </trkpt>
      <trkpt lat="45.97676" lon="4.42152">
        <ele>697</ele>
        <time>2025-10-04T13:52:06Z</time>
      </trkpt>
      <trkpt lat="45.97676" lon="4.42149">
        <ele>697.2</ele>
        <time>2025-10-04T13:52:07Z</time>
      </trkpt>
      <trkpt lat="45.97676" lon="4.42146">
        <ele>697.4</ele>
        <time>2025-10-04T13:52:08Z</time>
      </trkpt>
      <trkpt lat="45.97676" lon="4.42142">
        <ele>697.4</ele>
        <time>2025-10-04T13:52:09Z</time>
      </trkpt>
      <trkpt lat="45.97676" lon="4.4214">
        <ele>697.8</ele>
        <time>2025-10-04T13:52:10Z</time>
      </trkpt>
      <trkpt lat="45.97676" lon="4.4214">
        <ele>698</ele>
        <time>2025-10-04T13:52:11Z</time>
      </trkpt>
      <trkpt lat="45.97676" lon="4.42137">
        <ele>698.4</ele>
        <time>2025-10-04T13:52:12Z</time>
      </trkpt>
      <trkpt lat="45.97675" lon="4.42134">
        <ele>698.6</ele>
        <time>2025-10-04T13:52:13Z</time>
      </trkpt>
      <trkpt lat="45.97675" lon="4.42131">
        <ele>699</ele>
        <time>2025-10-04T13:52:14Z</time>
      </trkpt>
      <trkpt lat="45.97674" lon="4.42128">
        <ele>699</ele>
        <time>2025-10-04T13:52:15Z</time>
      </trkpt>
      <trkpt lat="45.97673" lon="4.42126">
        <ele>699.2</ele>
        <time>2025-10-04T13:52:16Z</time>
      </trkpt>
      <trkpt lat="45.97673" lon="4.42123">
        <ele>699.2</ele>
        <time>2025-10-04T13:52:17Z</time>
      </trkpt>
      <trkpt lat="45.97672" lon="4.4212">
        <ele>699.4</ele>
        <time>2025-10-04T13:52:18Z</time>
      </trkpt>
      <trkpt lat="45.97672" lon="4.42117">
        <ele>699.4</ele>
        <time>2025-10-04T13:52:19Z</time>
      </trkpt>
      <trkpt lat="45.97673" lon="4.42115">
        <ele>699.6</ele>
        <time>2025-10-04T13:52:20Z</time>
      </trkpt>
      <trkpt lat="45.97673" lon="4.42112">
        <ele>699.6</ele>
        <time>2025-10-04T13:52:21Z</time>
      </trkpt>
      <trkpt lat="45.97673" lon="4.42109">
        <ele>699.8</ele>
        <time>2025-10-04T13:52:22Z</time>
      </trkpt>
      <trkpt lat="45.97673" lon="4.42106">
        <ele>699.8</ele>
        <time>2025-10-04T13:52:23Z</time>
      </trkpt>
      <trkpt lat="45.97673" lon="4.42103">
        <ele>700.2</ele>
        <time>2025-10-04T13:52:24Z</time>
      </trkpt>
      <trkpt lat="45.97673" lon="4.421">
        <ele>700.2</ele>
        <time>2025-10-04T13:52:25Z</time>
      </trkpt>
      <trkpt lat="45.97673" lon="4.42098">
        <ele>700.6</ele>
        <time>2025-10-04T13:52:26Z</time>
      </trkpt>
      <trkpt lat="45.97673" lon="4.42095">
        <ele>700.6</ele>
        <time>2025-10-04T13:52:27Z</time>
      </trkpt>
      <trkpt lat="45.97674" lon="4.42092">
        <ele>700.8</ele>
        <time>2025-10-04T13:52:28Z</time>
      </trkpt>
      <trkpt lat="45.97674" lon="4.42089">
        <ele>701</ele>
        <time>2025-10-04T13:52:29Z</time>
      </trkpt>
      <trkpt lat="45.97674" lon="4.42086">
        <ele>701</ele>
        <time>2025-10-04T13:52:30Z</time>
      </trkpt>
      <trkpt lat="45.97674" lon="4.42083">
        <ele>701.2</ele>
        <time>2025-10-04T13:52:31Z</time>
      </trkpt>
      <trkpt lat="45.97675" lon="4.42081">
        <ele>701.2</ele>
        <time>2025-10-04T13:52:32Z</time>
      </trkpt>
      <trkpt lat="45.97675" lon="4.42078">
        <ele>701.8</ele>
        <time>2025-10-04T13:52:33Z</time>
      </trkpt>
      <trkpt lat="45.97675" lon="4.42075">
        <ele>702</ele>
        <time>2025-10-04T13:52:34Z</time>
      </trkpt>
      <trkpt lat="45.97675" lon="4.42073">
        <ele>702</ele>
        <time>2025-10-04T13:52:35Z</time>
      </trkpt>
      <trkpt lat="45.97675" lon="4.4207">
        <ele>702.2</ele>
        <time>2025-10-04T13:52:36Z</time>
      </trkpt>
      <trkpt lat="45.97675" lon="4.42067">
        <ele>702.6</ele>
        <time>2025-10-04T13:52:37Z</time>
      </trkpt>
      <trkpt lat="45.97675" lon="4.42064">
        <ele>702.6</ele>
        <time>2025-10-04T13:52:38Z</time>
      </trkpt>
      <trkpt lat="45.97675" lon="4.42061">
        <ele>702.8</ele>
        <time>2025-10-04T13:52:39Z</time>
      </trkpt>
      <trkpt lat="45.97675" lon="4.42058">
        <ele>702.8</ele>
        <time>2025-10-04T13:52:40Z</time>
      </trkpt>
      <trkpt lat="45.97675" lon="4.42055">
        <ele>702.8</ele>
        <time>2025-10-04T13:52:41Z</time>
      </trkpt>
      <trkpt lat="45.97675" lon="4.42052">
        <ele>703.2</ele>
        <time>2025-10-04T13:52:42Z</time>
      </trkpt>
      <trkpt lat="45.97675" lon="4.42049">
        <ele>703.2</ele>
        <time>2025-10-04T13:52:43Z</time>
      </trkpt>
      <trkpt lat="45.97675" lon="4.42046">
        <ele>703.2</ele>
        <time>2025-10-04T13:52:44Z</time>
      </trkpt>
      <trkpt lat="45.97675" lon="4.42043">
        <ele>703.4</ele>
        <time>2025-10-04T13:52:45Z</time>
      </trkpt>
      <trkpt lat="45.97675" lon="4.4204">
        <ele>703.4</ele>
        <time>2025-10-04T13:52:46Z</time>
      </trkpt>
      <trkpt lat="45.97675" lon="4.42037">
        <ele>703.6</ele>
        <time>2025-10-04T13:52:47Z</time>
      </trkpt>
      <trkpt lat="45.97675" lon="4.42034">
        <ele>703.8</ele>
        <time>2025-10-04T13:52:48Z</time>
      </trkpt>
      <trkpt lat="45.97675" lon="4.42031">
        <ele>704</ele>
        <time>2025-10-04T13:52:49Z</time>
      </trkpt>
      <trkpt lat="45.97676" lon="4.42028">
        <ele>704.2</ele>
        <time>2025-10-04T13:52:50Z</time>
      </trkpt>
      <trkpt lat="45.97676" lon="4.42024">
        <ele>704.6</ele>
        <time>2025-10-04T13:52:51Z</time>
      </trkpt>
      <trkpt lat="45.97676" lon="4.42021">
        <ele>704.8</ele>
        <time>2025-10-04T13:52:52Z</time>
      </trkpt>
      <trkpt lat="45.97676" lon="4.42018">
        <ele>704.8</ele>
        <time>2025-10-04T13:52:53Z</time>
      </trkpt>
      <trkpt lat="45.97676" lon="4.42016">
        <ele>704.8</ele>
        <time>2025-10-04T13:52:54Z</time>
      </trkpt>
      <trkpt lat="45.97676" lon="4.42012">
        <ele>705.2</ele>
        <time>2025-10-04T13:52:55Z</time>
      </trkpt>
      <trkpt lat="45.97676" lon="4.42009">
        <ele>705.2</ele>
        <time>2025-10-04T13:52:56Z</time>
      </trkpt>
      <trkpt lat="45.97676" lon="4.42006">
        <ele>705.4</ele>
        <time>2025-10-04T13:52:57Z</time>
      </trkpt>
      <trkpt lat="45.97677" lon="4.42">
        <ele>705.4</ele>
        <time>2025-10-04T13:52:58Z</time>
      </trkpt>
      <trkpt lat="45.97677" lon="4.41997">
        <ele>705.6</ele>
        <time>2025-10-04T13:52:59Z</time>
      </trkpt>
      <trkpt lat="45.97677" lon="4.41994">
        <ele>706</ele>
        <time>2025-10-04T13:53:00Z</time>
      </trkpt>
      <trkpt lat="45.97678" lon="4.41991">
        <ele>706</ele>
        <time>2025-10-04T13:53:01Z</time>
      </trkpt>
      <trkpt lat="45.97678" lon="4.41989">
        <ele>706</ele>
        <time>2025-10-04T13:53:02Z</time>
      </trkpt>
      <trkpt lat="45.97679" lon="4.41987">
        <ele>706.2</ele>
        <time>2025-10-04T13:53:03Z</time>
      </trkpt>
      <trkpt lat="45.97679" lon="4.41984">
        <ele>706.2</ele>
        <time>2025-10-04T13:53:04Z</time>
      </trkpt>
      <trkpt lat="45.97679" lon="4.41982">
        <ele>706.2</ele>
        <time>2025-10-04T13:53:05Z</time>
      </trkpt>
      <trkpt lat="45.97679" lon="4.41979">
        <ele>706.6</ele>
        <time>2025-10-04T13:53:06Z</time>
      </trkpt>
      <trkpt lat="45.97679" lon="4.41976">
        <ele>706.6</ele>
        <time>2025-10-04T13:53:07Z</time>
      </trkpt>
      <trkpt lat="45.9768" lon="4.41973">
        <ele>706.8</ele>
        <time>2025-10-04T13:53:08Z</time>
      </trkpt>
      <trkpt lat="45.9768" lon="4.41971">
        <ele>706.8</ele>
        <time>2025-10-04T13:53:09Z</time>
      </trkpt>
      <trkpt lat="45.9768" lon="4.41968">
        <ele>707</ele>
        <time>2025-10-04T13:53:10Z</time>
      </trkpt>
      <trkpt lat="45.9768" lon="4.41965">
        <ele>707</ele>
        <time>2025-10-04T13:53:11Z</time>
      </trkpt>
      <trkpt lat="45.9768" lon="4.41962">
        <ele>707</ele>
        <time>2025-10-04T13:53:12Z</time>
      </trkpt>
      <trkpt lat="45.9768" lon="4.41959">
        <ele>707.4</ele>
        <time>2025-10-04T13:53:13Z</time>
      </trkpt>
      <trkpt lat="45.97681" lon="4.41956">
        <ele>707.4</ele>
        <time>2025-10-04T13:53:14Z</time>
      </trkpt>
      <trkpt lat="45.97681" lon="4.41953">
        <ele>707.6</ele>
        <time>2025-10-04T13:53:15Z</time>
      </trkpt>
      <trkpt lat="45.97681" lon="4.41951">
        <ele>707.6</ele>
        <time>2025-10-04T13:53:16Z</time>
      </trkpt>
      <trkpt lat="45.97681" lon="4.41948">
        <ele>707.6</ele>
        <time>2025-10-04T13:53:17Z</time>
      </trkpt>
      <trkpt lat="45.97682" lon="4.41945">
        <ele>707.8</ele>
        <time>2025-10-04T13:53:18Z</time>
      </trkpt>
      <trkpt lat="45.97682" lon="4.41942">
        <ele>707.8</ele>
        <time>2025-10-04T13:53:19Z</time>
      </trkpt>
      <trkpt lat="45.97682" lon="4.4194">
        <ele>707.8</ele>
        <time>2025-10-04T13:53:20Z</time>
      </trkpt>
      <trkpt lat="45.97682" lon="4.41937">
        <ele>707.8</ele>
        <time>2025-10-04T13:53:21Z</time>
      </trkpt>
      <trkpt lat="45.97682" lon="4.41934">
        <ele>707.8</ele>
        <time>2025-10-04T13:53:22Z</time>
      </trkpt>
      <trkpt lat="45.97683" lon="4.41931">
        <ele>707.8</ele>
        <time>2025-10-04T13:53:23Z</time>
      </trkpt>
      <trkpt lat="45.97684" lon="4.41928">
        <ele>708.2</ele>
        <time>2025-10-04T13:53:24Z</time>
      </trkpt>
      <trkpt lat="45.97684" lon="4.41925">
        <ele>708.2</ele>
        <time>2025-10-04T13:53:25Z</time>
      </trkpt>
      <trkpt lat="45.97685" lon="4.41922">
        <ele>708.4</ele>
        <time>2025-10-04T13:53:26Z</time>
      </trkpt>
      <trkpt lat="45.97685" lon="4.41919">
        <ele>708.4</ele>
        <time>2025-10-04T13:53:27Z</time>
      </trkpt>
      <trkpt lat="45.97685" lon="4.41916">
        <ele>708.8</ele>
        <time>2025-10-04T13:53:28Z</time>
      </trkpt>
      <trkpt lat="45.97686" lon="4.41913">
        <ele>708.8</ele>
        <time>2025-10-04T13:53:29Z</time>
      </trkpt>
      <trkpt lat="45.97686" lon="4.4191">
        <ele>708.8</ele>
        <time>2025-10-04T13:53:30Z</time>
      </trkpt>
      <trkpt lat="45.97686" lon="4.41907">
        <ele>709</ele>
        <time>2025-10-04T13:53:31Z</time>
      </trkpt>
      <trkpt lat="45.97686" lon="4.41904">
        <ele>709</ele>
        <time>2025-10-04T13:53:32Z</time>
      </trkpt>
      <trkpt lat="45.97686" lon="4.41902">
        <ele>709.4</ele>
        <time>2025-10-04T13:53:33Z</time>
      </trkpt>
      <trkpt lat="45.97686" lon="4.41899">
        <ele>709.4</ele>
        <time>2025-10-04T13:53:34Z</time>
      </trkpt>
      <trkpt lat="45.97686" lon="4.41896">
        <ele>709.4</ele>
        <time>2025-10-04T13:53:35Z</time>
      </trkpt>
      <trkpt lat="45.97686" lon="4.41893">
        <ele>709.4</ele>
        <time>2025-10-04T13:53:36Z</time>
      </trkpt>
      <trkpt lat="45.97687" lon="4.41891">
        <ele>709.8</ele>
        <time>2025-10-04T13:53:37Z</time>
      </trkpt>
      <trkpt lat="45.97687" lon="4.41889">
        <ele>710.2</ele>
        <time>2025-10-04T13:53:38Z</time>
      </trkpt>
      <trkpt lat="45.97687" lon="4.41886">
        <ele>710.2</ele>
        <time>2025-10-04T13:53:39Z</time>
      </trkpt>
      <trkpt lat="45.97687" lon="4.41884">
        <ele>710.6</ele>
        <time>2025-10-04T13:53:40Z</time>
      </trkpt>
      <trkpt lat="45.97688" lon="4.41881">
        <ele>710.6</ele>
        <time>2025-10-04T13:53:41Z</time>
      </trkpt>
      <trkpt lat="45.97689" lon="4.41878">
        <ele>710.8</ele>
        <time>2025-10-04T13:53:42Z</time>
      </trkpt>
      <trkpt lat="45.97689" lon="4.41875">
        <ele>711</ele>
        <time>2025-10-04T13:53:43Z</time>
      </trkpt>
      <trkpt lat="45.97689" lon="4.41873">
        <ele>711</ele>
        <time>2025-10-04T13:53:44Z</time>
      </trkpt>
      <trkpt lat="45.9769" lon="4.4187">
        <ele>711.4</ele>
        <time>2025-10-04T13:53:45Z</time>
      </trkpt>
      <trkpt lat="45.9769" lon="4.41868">
        <ele>711.8</ele>
        <time>2025-10-04T13:53:46Z</time>
      </trkpt>
      <trkpt lat="45.9769" lon="4.41865">
        <ele>711.8</ele>
        <time>2025-10-04T13:53:47Z</time>
      </trkpt>
      <trkpt lat="45.97691" lon="4.41862">
        <ele>712</ele>
        <time>2025-10-04T13:53:48Z</time>
      </trkpt>
      <trkpt lat="45.97692" lon="4.4186">
        <ele>712</ele>
        <time>2025-10-04T13:53:49Z</time>
      </trkpt>
      <trkpt lat="45.97693" lon="4.41857">
        <ele>712.2</ele>
        <time>2025-10-04T13:53:50Z</time>
      </trkpt>
      <trkpt lat="45.97694" lon="4.41854">
        <ele>712.6</ele>
        <time>2025-10-04T13:53:51Z</time>
      </trkpt>
      <trkpt lat="45.97694" lon="4.41851">
        <ele>712.8</ele>
        <time>2025-10-04T13:53:52Z</time>
      </trkpt>
      <trkpt lat="45.97695" lon="4.41849">
        <ele>712.8</ele>
        <time>2025-10-04T13:53:53Z</time>
      </trkpt>
      <trkpt lat="45.97695" lon="4.41846">
        <ele>712.8</ele>
        <time>2025-10-04T13:53:54Z</time>
      </trkpt>
      <trkpt lat="45.97696" lon="4.41843">
        <ele>713.2</ele>
        <time>2025-10-04T13:53:55Z</time>
      </trkpt>
      <trkpt lat="45.97696" lon="4.41841">
        <ele>713.2</ele>
        <time>2025-10-04T13:53:56Z</time>
      </trkpt>
      <trkpt lat="45.97697" lon="4.41838">
        <ele>713.2</ele>
        <time>2025-10-04T13:53:57Z</time>
      </trkpt>
      <trkpt lat="45.97697" lon="4.41836">
        <ele>713.4</ele>
        <time>2025-10-04T13:53:58Z</time>
      </trkpt>
      <trkpt lat="45.97698" lon="4.41833">
        <ele>713.8</ele>
        <time>2025-10-04T13:53:59Z</time>
      </trkpt>
      <trkpt lat="45.97699" lon="4.41831">
        <ele>714</ele>
        <time>2025-10-04T13:54:00Z</time>
      </trkpt>
      <trkpt lat="45.977" lon="4.41829">
        <ele>714</ele>
        <time>2025-10-04T13:54:01Z</time>
      </trkpt>
      <trkpt lat="45.97701" lon="4.41826">
        <ele>714</ele>
        <time>2025-10-04T13:54:02Z</time>
      </trkpt>
      <trkpt lat="45.97702" lon="4.41823">
        <ele>714</ele>
        <time>2025-10-04T13:54:03Z</time>
      </trkpt>
      <trkpt lat="45.97703" lon="4.4182">
        <ele>714.2</ele>
        <time>2025-10-04T13:54:04Z</time>
      </trkpt>
      <trkpt lat="45.97704" lon="4.41818">
        <ele>714.2</ele>
        <time>2025-10-04T13:54:05Z</time>
      </trkpt>
      <trkpt lat="45.97705" lon="4.41816">
        <ele>714.2</ele>
        <time>2025-10-04T13:54:06Z</time>
      </trkpt>
      <trkpt lat="45.97706" lon="4.41814">
        <ele>714.6</ele>
        <time>2025-10-04T13:54:07Z</time>
      </trkpt>
      <trkpt lat="45.97707" lon="4.41811">
        <ele>714.6</ele>
        <time>2025-10-04T13:54:08Z</time>
      </trkpt>
      <trkpt lat="45.97708" lon="4.41809">
        <ele>714.8</ele>
        <time>2025-10-04T13:54:09Z</time>
      </trkpt>
      <trkpt lat="45.97709" lon="4.41807">
        <ele>714.8</ele>
        <time>2025-10-04T13:54:10Z</time>
      </trkpt>
      <trkpt lat="45.97711" lon="4.41805">
        <ele>715</ele>
        <time>2025-10-04T13:54:11Z</time>
      </trkpt>
      <trkpt lat="45.97712" lon="4.41803">
        <ele>715</ele>
        <time>2025-10-04T13:54:12Z</time>
      </trkpt>
      <trkpt lat="45.97713" lon="4.418">
        <ele>715</ele>
        <time>2025-10-04T13:54:13Z</time>
      </trkpt>
      <trkpt lat="45.97714" lon="4.41798">
        <ele>715</ele>
        <time>2025-10-04T13:54:14Z</time>
      </trkpt>
      <trkpt lat="45.97715" lon="4.41795">
        <ele>715.4</ele>
        <time>2025-10-04T13:54:15Z</time>
      </trkpt>
      <trkpt lat="45.97716" lon="4.41793">
        <ele>715.4</ele>
        <time>2025-10-04T13:54:16Z</time>
      </trkpt>
      <trkpt lat="45.97718" lon="4.41791">
        <ele>715.8</ele>
        <time>2025-10-04T13:54:17Z</time>
      </trkpt>
      <trkpt lat="45.97719" lon="4.41788">
        <ele>715.8</ele>
        <time>2025-10-04T13:54:18Z</time>
      </trkpt>
      <trkpt lat="45.9772" lon="4.41786">
        <ele>715.8</ele>
        <time>2025-10-04T13:54:19Z</time>
      </trkpt>
      <trkpt lat="45.97722" lon="4.41784">
        <ele>715.8</ele>
        <time>2025-10-04T13:54:20Z</time>
      </trkpt>
      <trkpt lat="45.97723" lon="4.41781">
        <ele>716</ele>
        <time>2025-10-04T13:54:21Z</time>
      </trkpt>
      <trkpt lat="45.97723" lon="4.41779">
        <ele>716</ele>
        <time>2025-10-04T13:54:22Z</time>
      </trkpt>
      <trkpt lat="45.97724" lon="4.41776">
        <ele>716</ele>
        <time>2025-10-04T13:54:23Z</time>
      </trkpt>
      <trkpt lat="45.97725" lon="4.41773">
        <ele>716</ele>
        <time>2025-10-04T13:54:24Z</time>
      </trkpt>
      <trkpt lat="45.97726" lon="4.41771">
        <ele>716.2</ele>
        <time>2025-10-04T13:54:25Z</time>
      </trkpt>
      <trkpt lat="45.97727" lon="4.41768">
        <ele>716.2</ele>
        <time>2025-10-04T13:54:26Z</time>
      </trkpt>
      <trkpt lat="45.97728" lon="4.41766">
        <ele>716.4</ele>
        <time>2025-10-04T13:54:27Z</time>
      </trkpt>
      <trkpt lat="45.97728" lon="4.41763">
        <ele>716.4</ele>
        <time>2025-10-04T13:54:28Z</time>
      </trkpt>
      <trkpt lat="45.97729" lon="4.4176">
        <ele>716.8</ele>
        <time>2025-10-04T13:54:29Z</time>
      </trkpt>
      <trkpt lat="45.97729" lon="4.41758">
        <ele>716.8</ele>
        <time>2025-10-04T13:54:30Z</time>
      </trkpt>
      <trkpt lat="45.9773" lon="4.41755">
        <ele>717</ele>
        <time>2025-10-04T13:54:31Z</time>
      </trkpt>
      <trkpt lat="45.9773" lon="4.41752">
        <ele>717</ele>
        <time>2025-10-04T13:54:32Z</time>
      </trkpt>
      <trkpt lat="45.97731" lon="4.41749">
        <ele>717.2</ele>
        <time>2025-10-04T13:54:33Z</time>
      </trkpt>
      <trkpt lat="45.97731" lon="4.41746">
        <ele>717.2</ele>
        <time>2025-10-04T13:54:34Z</time>
      </trkpt>
      <trkpt lat="45.97731" lon="4.41743">
        <ele>717.4</ele>
        <time>2025-10-04T13:54:35Z</time>
      </trkpt>
      <trkpt lat="45.97731" lon="4.4174">
        <ele>717.4</ele>
        <time>2025-10-04T13:54:36Z</time>
      </trkpt>
      <trkpt lat="45.97731" lon="4.41737">
        <ele>717.8</ele>
        <time>2025-10-04T13:54:37Z</time>
      </trkpt>
      <trkpt lat="45.97731" lon="4.41734">
        <ele>717.8</ele>
        <time>2025-10-04T13:54:38Z</time>
      </trkpt>
      <trkpt lat="45.97731" lon="4.41731">
        <ele>718.2</ele>
        <time>2025-10-04T13:54:39Z</time>
      </trkpt>
      <trkpt lat="45.97732" lon="4.41728">
        <ele>718.2</ele>
        <time>2025-10-04T13:54:40Z</time>
      </trkpt>
      <trkpt lat="45.97732" lon="4.41724">
        <ele>718.6</ele>
        <time>2025-10-04T13:54:41Z</time>
      </trkpt>
      <trkpt lat="45.97732" lon="4.41721">
        <ele>718.6</ele>
        <time>2025-10-04T13:54:42Z</time>
      </trkpt>
      <trkpt lat="45.97732" lon="4.41718">
        <ele>718.8</ele>
        <time>2025-10-04T13:54:43Z</time>
      </trkpt>
      <trkpt lat="45.97732" lon="4.41715">
        <ele>718.8</ele>
        <time>2025-10-04T13:54:44Z</time>
      </trkpt>
      <trkpt lat="45.97732" lon="4.41712">
        <ele>719.2</ele>
        <time>2025-10-04T13:54:45Z</time>
      </trkpt>
      <trkpt lat="45.97732" lon="4.41709">
        <ele>719.2</ele>
        <time>2025-10-04T13:54:46Z</time>
      </trkpt>
      <trkpt lat="45.97732" lon="4.41706">
        <ele>719.6</ele>
        <time>2025-10-04T13:54:47Z</time>
      </trkpt>
      <trkpt lat="45.97732" lon="4.41703">
        <ele>719.8</ele>
        <time>2025-10-04T13:54:48Z</time>
      </trkpt>
      <trkpt lat="45.97732" lon="4.417">
        <ele>719.8</ele>
        <time>2025-10-04T13:54:49Z</time>
      </trkpt>
      <trkpt lat="45.97732" lon="4.41697">
        <ele>720.2</ele>
        <time>2025-10-04T13:54:50Z</time>
      </trkpt>
      <trkpt lat="45.97731" lon="4.41694">
        <ele>720.2</ele>
        <time>2025-10-04T13:54:51Z</time>
      </trkpt>
      <trkpt lat="45.97731" lon="4.41691">
        <ele>720.2</ele>
        <time>2025-10-04T13:54:52Z</time>
      </trkpt>
      <trkpt lat="45.97731" lon="4.41688">
        <ele>720.2</ele>
        <time>2025-10-04T13:54:53Z</time>
      </trkpt>
      <trkpt lat="45.97731" lon="4.41685">
        <ele>720.4</ele>
        <time>2025-10-04T13:54:54Z</time>
      </trkpt>
      <trkpt lat="45.9773" lon="4.41682">
        <ele>720.8</ele>
        <time>2025-10-04T13:54:55Z</time>
      </trkpt>
      <trkpt lat="45.97729" lon="4.4168">
        <ele>720.8</ele>
        <time>2025-10-04T13:54:56Z</time>
      </trkpt>
      <trkpt lat="45.97728" lon="4.41677">
        <ele>720.8</ele>
        <time>2025-10-04T13:54:57Z</time>
      </trkpt>
      <trkpt lat="45.97728" lon="4.41674">
        <ele>721</ele>
        <time>2025-10-04T13:54:58Z</time>
      </trkpt>
      <trkpt lat="45.97727" lon="4.41672">
        <ele>721</ele>
        <time>2025-10-04T13:54:59Z</time>
      </trkpt>
      <trkpt lat="45.97726" lon="4.4167">
        <ele>721.4</ele>
        <time>2025-10-04T13:55:00Z</time>
      </trkpt>
      <trkpt lat="45.97724" lon="4.41668">
        <ele>721.4</ele>
        <time>2025-10-04T13:55:01Z</time>
      </trkpt>
      <trkpt lat="45.97722" lon="4.41666">
        <ele>721.4</ele>
        <time>2025-10-04T13:55:02Z</time>
      </trkpt>
      <trkpt lat="45.97721" lon="4.41664">
        <ele>721.4</ele>
        <time>2025-10-04T13:55:03Z</time>
      </trkpt>
      <trkpt lat="45.97719" lon="4.41662">
        <ele>721.6</ele>
        <time>2025-10-04T13:55:04Z</time>
      </trkpt>
      <trkpt lat="45.97717" lon="4.41661">
        <ele>721.6</ele>
        <time>2025-10-04T13:55:05Z</time>
      </trkpt>
      <trkpt lat="45.97716" lon="4.41659">
        <ele>721.6</ele>
        <time>2025-10-04T13:55:06Z</time>
      </trkpt>
      <trkpt lat="45.97714" lon="4.41658">
        <ele>721.8</ele>
        <time>2025-10-04T13:55:07Z</time>
      </trkpt>
      <trkpt lat="45.97712" lon="4.41657">
        <ele>721.8</ele>
        <time>2025-10-04T13:55:08Z</time>
      </trkpt>
      <trkpt lat="45.97709" lon="4.41657">
        <ele>721.8</ele>
        <time>2025-10-04T13:55:09Z</time>
      </trkpt>
      <trkpt lat="45.97707" lon="4.41657">
        <ele>722.2</ele>
        <time>2025-10-04T13:55:10Z</time>
      </trkpt>
      <trkpt lat="45.97705" lon="4.41657">
        <ele>722.2</ele>
        <time>2025-10-04T13:55:11Z</time>
      </trkpt>
      <trkpt lat="45.97703" lon="4.41656">
        <ele>722.2</ele>
        <time>2025-10-04T13:55:12Z</time>
      </trkpt>
      <trkpt lat="45.97701" lon="4.41656">
        <ele>722.4</ele>
        <time>2025-10-04T13:55:13Z</time>
      </trkpt>
      <trkpt lat="45.97699" lon="4.41656">
        <ele>722.4</ele>
        <time>2025-10-04T13:55:14Z</time>
      </trkpt>
      <trkpt lat="45.97697" lon="4.41656">
        <ele>722.4</ele>
        <time>2025-10-04T13:55:15Z</time>
      </trkpt>
      <trkpt lat="45.97696" lon="4.41656">
        <ele>722.6</ele>
        <time>2025-10-04T13:55:16Z</time>
      </trkpt>
      <trkpt lat="45.97694" lon="4.41655">
        <ele>722.6</ele>
        <time>2025-10-04T13:55:17Z</time>
      </trkpt>
      <trkpt lat="45.97692" lon="4.41655">
        <ele>722.6</ele>
        <time>2025-10-04T13:55:18Z</time>
      </trkpt>
      <trkpt lat="45.9769" lon="4.41654">
        <ele>723</ele>
        <time>2025-10-04T13:55:19Z</time>
      </trkpt>
      <trkpt lat="45.97688" lon="4.41654">
        <ele>723</ele>
        <time>2025-10-04T13:55:20Z</time>
      </trkpt>
      <trkpt lat="45.97685" lon="4.41653">
        <ele>723.2</ele>
        <time>2025-10-04T13:55:21Z</time>
      </trkpt>
      <trkpt lat="45.97683" lon="4.41652">
        <ele>723.2</ele>
        <time>2025-10-04T13:55:22Z</time>
      </trkpt>
      <trkpt lat="45.97681" lon="4.4165">
        <ele>723.2</ele>
        <time>2025-10-04T13:55:23Z</time>
      </trkpt>
      <trkpt lat="45.97679" lon="4.41649">
        <ele>723.2</ele>
        <time>2025-10-04T13:55:24Z</time>
      </trkpt>
      <trkpt lat="45.97676" lon="4.41647">
        <ele>723.2</ele>
        <time>2025-10-04T13:55:25Z</time>
      </trkpt>
      <trkpt lat="45.97674" lon="4.41646">
        <ele>723.2</ele>
        <time>2025-10-04T13:55:26Z</time>
      </trkpt>
      <trkpt lat="45.97672" lon="4.41644">
        <ele>723.2</ele>
        <time>2025-10-04T13:55:27Z</time>
      </trkpt>
      <trkpt lat="45.9767" lon="4.41642">
        <ele>723.2</ele>
        <time>2025-10-04T13:55:28Z</time>
      </trkpt>
      <trkpt lat="45.97668" lon="4.4164">
        <ele>723.2</ele>
        <time>2025-10-04T13:55:29Z</time>
      </trkpt>
      <trkpt lat="45.97666" lon="4.41638">
        <ele>723.4</ele>
        <time>2025-10-04T13:55:30Z</time>
      </trkpt>
      <trkpt lat="45.97664" lon="4.41636">
        <ele>723.4</ele>
        <time>2025-10-04T13:55:31Z</time>
      </trkpt>
      <trkpt lat="45.97662" lon="4.41634">
        <ele>723.4</ele>
        <time>2025-10-04T13:55:32Z</time>
      </trkpt>
      <trkpt lat="45.9766" lon="4.41632">
        <ele>723.4</ele>
        <time>2025-10-04T13:55:33Z</time>
      </trkpt>
      <trkpt lat="45.97658" lon="4.41629">
        <ele>723.6</ele>
        <time>2025-10-04T13:55:34Z</time>
      </trkpt>
      <trkpt lat="45.97657" lon="4.41625">
        <ele>723.6</ele>
        <time>2025-10-04T13:55:35Z</time>
      </trkpt>
      <trkpt lat="45.97656" lon="4.41622">
        <ele>723.6</ele>
        <time>2025-10-04T13:55:36Z</time>
      </trkpt>
      <trkpt lat="45.97655" lon="4.41618">
        <ele>723.8</ele>
        <time>2025-10-04T13:55:37Z</time>
      </trkpt>
      <trkpt lat="45.97654" lon="4.41615">
        <ele>723.8</ele>
        <time>2025-10-04T13:55:38Z</time>
      </trkpt>
      <trkpt lat="45.97653" lon="4.41611">
        <ele>723.8</ele>
        <time>2025-10-04T13:55:39Z</time>
      </trkpt>
      <trkpt lat="45.97651" lon="4.41608">
        <ele>724.2</ele>
        <time>2025-10-04T13:55:40Z</time>
      </trkpt>
      <trkpt lat="45.9765" lon="4.41604">
        <ele>724.2</ele>
        <time>2025-10-04T13:55:41Z</time>
      </trkpt>
      <trkpt lat="45.97648" lon="4.41601">
        <ele>724.2</ele>
        <time>2025-10-04T13:55:42Z</time>
      </trkpt>
      <trkpt lat="45.97646" lon="4.41598">
        <ele>724.4</ele>
        <time>2025-10-04T13:55:43Z</time>
      </trkpt>
      <trkpt lat="45.97645" lon="4.41595">
        <ele>724.4</ele>
        <time>2025-10-04T13:55:44Z</time>
      </trkpt>
      <trkpt lat="45.97643" lon="4.41591">
        <ele>724.6</ele>
        <time>2025-10-04T13:55:45Z</time>
      </trkpt>
      <trkpt lat="45.9764" lon="4.41588">
        <ele>724.6</ele>
        <time>2025-10-04T13:55:46Z</time>
      </trkpt>
      <trkpt lat="45.97638" lon="4.41585">
        <ele>724.6</ele>
        <time>2025-10-04T13:55:47Z</time>
      </trkpt>
      <trkpt lat="45.97636" lon="4.41582">
        <ele>725</ele>
        <time>2025-10-04T13:55:48Z</time>
      </trkpt>
      <trkpt lat="45.97634" lon="4.41579">
        <ele>725</ele>
        <time>2025-10-04T13:55:49Z</time>
      </trkpt>
      <trkpt lat="45.97633" lon="4.41576">
        <ele>725.4</ele>
        <time>2025-10-04T13:55:50Z</time>
      </trkpt>
      <trkpt lat="45.9763" lon="4.41573">
        <ele>725.4</ele>
        <time>2025-10-04T13:55:51Z</time>
      </trkpt>
      <trkpt lat="45.97628" lon="4.41571">
        <ele>725.6</ele>
        <time>2025-10-04T13:55:52Z</time>
      </trkpt>
      <trkpt lat="45.97626" lon="4.41568">
        <ele>725.6</ele>
        <time>2025-10-04T13:55:53Z</time>
      </trkpt>
      <trkpt lat="45.97624" lon="4.41565">
        <ele>726</ele>
        <time>2025-10-04T13:55:54Z</time>
      </trkpt>
      <trkpt lat="45.97621" lon="4.41562">
        <ele>726</ele>
        <time>2025-10-04T13:55:55Z</time>
      </trkpt>
      <trkpt lat="45.97621" lon="4.41562">
        <ele>726.2</ele>
        <time>2025-10-04T13:55:56Z</time>
      </trkpt>
      <trkpt lat="45.97618" lon="4.41559">
        <ele>726.2</ele>
        <time>2025-10-04T13:55:57Z</time>
      </trkpt>
      <trkpt lat="45.97616" lon="4.41557">
        <ele>726.2</ele>
        <time>2025-10-04T13:55:58Z</time>
      </trkpt>
      <trkpt lat="45.97614" lon="4.41555">
        <ele>726.2</ele>
        <time>2025-10-04T13:55:59Z</time>
      </trkpt>
      <trkpt lat="45.97612" lon="4.41553">
        <ele>726.4</ele>
        <time>2025-10-04T13:56:00Z</time>
      </trkpt>
      <trkpt lat="45.9761" lon="4.41551">
        <ele>726.4</ele>
        <time>2025-10-04T13:56:01Z</time>
      </trkpt>
      <trkpt lat="45.97608" lon="4.41548">
        <ele>726.8</ele>
        <time>2025-10-04T13:56:02Z</time>
      </trkpt>
      <trkpt lat="45.97606" lon="4.41546">
        <ele>726.8</ele>
        <time>2025-10-04T13:56:03Z</time>
      </trkpt>
      <trkpt lat="45.97603" lon="4.41544">
        <ele>727</ele>
        <time>2025-10-04T13:56:04Z</time>
      </trkpt>
      <trkpt lat="45.97601" lon="4.41542">
        <ele>727</ele>
        <time>2025-10-04T13:56:05Z</time>
      </trkpt>
      <trkpt lat="45.97599" lon="4.4154">
        <ele>727</ele>
        <time>2025-10-04T13:56:06Z</time>
      </trkpt>
      <trkpt lat="45.97597" lon="4.41538">
        <ele>727.4</ele>
        <time>2025-10-04T13:56:07Z</time>
      </trkpt>
      <trkpt lat="45.97595" lon="4.41535">
        <ele>727.4</ele>
        <time>2025-10-04T13:56:08Z</time>
      </trkpt>
      <trkpt lat="45.97593" lon="4.41533">
        <ele>727.4</ele>
        <time>2025-10-04T13:56:09Z</time>
      </trkpt>
      <trkpt lat="45.97591" lon="4.41531">
        <ele>727.6</ele>
        <time>2025-10-04T13:56:10Z</time>
      </trkpt>
      <trkpt lat="45.97589" lon="4.41529">
        <ele>727.6</ele>
        <time>2025-10-04T13:56:11Z</time>
      </trkpt>
      <trkpt lat="45.97587" lon="4.41527">
        <ele>727.8</ele>
        <time>2025-10-04T13:56:12Z</time>
      </trkpt>
      <trkpt lat="45.97585" lon="4.41525">
        <ele>728.2</ele>
        <time>2025-10-04T13:56:13Z</time>
      </trkpt>
      <trkpt lat="45.97584" lon="4.41524">
        <ele>728.4</ele>
        <time>2025-10-04T13:56:14Z</time>
      </trkpt>
      <trkpt lat="45.97582" lon="4.41522">
        <ele>728.4</ele>
        <time>2025-10-04T13:56:15Z</time>
      </trkpt>
      <trkpt lat="45.9758" lon="4.4152">
        <ele>728.6</ele>
        <time>2025-10-04T13:56:16Z</time>
      </trkpt>
      <trkpt lat="45.97578" lon="4.41519">
        <ele>728.8</ele>
        <time>2025-10-04T13:56:17Z</time>
      </trkpt>
      <trkpt lat="45.97575" lon="4.41518">
        <ele>728.8</ele>
        <time>2025-10-04T13:56:18Z</time>
      </trkpt>
      <trkpt lat="45.97573" lon="4.41517">
        <ele>728.8</ele>
        <time>2025-10-04T13:56:19Z</time>
      </trkpt>
      <trkpt lat="45.9757" lon="4.41516">
        <ele>729.2</ele>
        <time>2025-10-04T13:56:20Z</time>
      </trkpt>
      <trkpt lat="45.97568" lon="4.41515">
        <ele>729.2</ele>
        <time>2025-10-04T13:56:21Z</time>
      </trkpt>
      <trkpt lat="45.97565" lon="4.41514">
        <ele>729.2</ele>
        <time>2025-10-04T13:56:22Z</time>
      </trkpt>
      <trkpt lat="45.97563" lon="4.41513">
        <ele>729.2</ele>
        <time>2025-10-04T13:56:23Z</time>
      </trkpt>
      <trkpt lat="45.9756" lon="4.41512">
        <ele>729.2</ele>
        <time>2025-10-04T13:56:24Z</time>
      </trkpt>
      <trkpt lat="45.97558" lon="4.41511">
        <ele>729.4</ele>
        <time>2025-10-04T13:56:25Z</time>
      </trkpt>
      <trkpt lat="45.97556" lon="4.4151">
        <ele>729.4</ele>
        <time>2025-10-04T13:56:26Z</time>
      </trkpt>
      <trkpt lat="45.97554" lon="4.4151">
        <ele>729.4</ele>
        <time>2025-10-04T13:56:27Z</time>
      </trkpt>
      <trkpt lat="45.97552" lon="4.41509">
        <ele>730.2</ele>
        <time>2025-10-04T13:56:28Z</time>
      </trkpt>
      <trkpt lat="45.97548" lon="4.41506">
        <ele>730.4</ele>
        <time>2025-10-04T13:56:29Z</time>
      </trkpt>
      <trkpt lat="45.97546" lon="4.41504">
        <ele>730.6</ele>
        <time>2025-10-04T13:56:30Z</time>
      </trkpt>
      <trkpt lat="45.97544" lon="4.41503">
        <ele>731</ele>
        <time>2025-10-04T13:56:31Z</time>
      </trkpt>
      <trkpt lat="45.97543" lon="4.41502">
        <ele>731</ele>
        <time>2025-10-04T13:56:32Z</time>
      </trkpt>
      <trkpt lat="45.9754" lon="4.41501">
        <ele>731.2</ele>
        <time>2025-10-04T13:56:33Z</time>
      </trkpt>
      <trkpt lat="45.97537" lon="4.415">
        <ele>731.2</ele>
        <time>2025-10-04T13:56:34Z</time>
      </trkpt>
      <trkpt lat="45.97535" lon="4.41499">
        <ele>731.6</ele>
        <time>2025-10-04T13:56:35Z</time>
      </trkpt>
      <trkpt lat="45.97532" lon="4.41498">
        <ele>731.6</ele>
        <time>2025-10-04T13:56:36Z</time>
      </trkpt>
      <trkpt lat="45.9753" lon="4.41496">
        <ele>731.8</ele>
        <time>2025-10-04T13:56:37Z</time>
      </trkpt>
      <trkpt lat="45.97528" lon="4.41494">
        <ele>731.8</ele>
        <time>2025-10-04T13:56:38Z</time>
      </trkpt>
      <trkpt lat="45.97525" lon="4.41493">
        <ele>732.2</ele>
        <time>2025-10-04T13:56:39Z</time>
      </trkpt>
      <trkpt lat="45.97523" lon="4.41491">
        <ele>732.2</ele>
        <time>2025-10-04T13:56:40Z</time>
      </trkpt>
      <trkpt lat="45.9752" lon="4.4149">
        <ele>732.4</ele>
        <time>2025-10-04T13:56:41Z</time>
      </trkpt>
      <trkpt lat="45.97518" lon="4.41489">
        <ele>732.4</ele>
        <time>2025-10-04T13:56:42Z</time>
      </trkpt>
      <trkpt lat="45.97516" lon="4.41487">
        <ele>732.4</ele>
        <time>2025-10-04T13:56:43Z</time>
      </trkpt>
      <trkpt lat="45.97514" lon="4.41486">
        <ele>732.6</ele>
        <time>2025-10-04T13:56:44Z</time>
      </trkpt>
      <trkpt lat="45.97512" lon="4.41485">
        <ele>732.6</ele>
        <time>2025-10-04T13:56:45Z</time>
      </trkpt>
      <trkpt lat="45.9751" lon="4.41484">
        <ele>733</ele>
        <time>2025-10-04T13:56:46Z</time>
      </trkpt>
      <trkpt lat="45.97508" lon="4.41484">
        <ele>733</ele>
        <time>2025-10-04T13:56:47Z</time>
      </trkpt>
      <trkpt lat="45.97506" lon="4.41483">
        <ele>733.2</ele>
        <time>2025-10-04T13:56:48Z</time>
      </trkpt>
      <trkpt lat="45.97503" lon="4.41483">
        <ele>733.2</ele>
        <time>2025-10-04T13:56:49Z</time>
      </trkpt>
      <trkpt lat="45.97501" lon="4.41482">
        <ele>733.2</ele>
        <time>2025-10-04T13:56:50Z</time>
      </trkpt>
      <trkpt lat="45.97498" lon="4.41481">
        <ele>733.6</ele>
        <time>2025-10-04T13:56:51Z</time>
      </trkpt>
      <trkpt lat="45.97495" lon="4.4148">
        <ele>733.8</ele>
        <time>2025-10-04T13:56:52Z</time>
      </trkpt>
      <trkpt lat="45.97493" lon="4.41478">
        <ele>733.8</ele>
        <time>2025-10-04T13:56:53Z</time>
      </trkpt>
      <trkpt lat="45.97491" lon="4.41477">
        <ele>733.8</ele>
        <time>2025-10-04T13:56:54Z</time>
      </trkpt>
      <trkpt lat="45.97488" lon="4.41476">
        <ele>733.8</ele>
        <time>2025-10-04T13:56:55Z</time>
      </trkpt>
      <trkpt lat="45.97486" lon="4.41475">
        <ele>734.2</ele>
        <time>2025-10-04T13:56:56Z</time>
      </trkpt>
      <trkpt lat="45.97483" lon="4.41474">
        <ele>734.4</ele>
        <time>2025-10-04T13:56:57Z</time>
      </trkpt>
      <trkpt lat="45.97481" lon="4.41473">
        <ele>734.4</ele>
        <time>2025-10-04T13:56:58Z</time>
      </trkpt>
      <trkpt lat="45.97479" lon="4.41472">
        <ele>734.4</ele>
        <time>2025-10-04T13:56:59Z</time>
      </trkpt>
      <trkpt lat="45.97477" lon="4.41471">
        <ele>734.6</ele>
        <time>2025-10-04T13:57:00Z</time>
      </trkpt>
      <trkpt lat="45.97474" lon="4.41469">
        <ele>734.6</ele>
        <time>2025-10-04T13:57:01Z</time>
      </trkpt>
      <trkpt lat="45.97472" lon="4.41468">
        <ele>735</ele>
        <time>2025-10-04T13:57:02Z</time>
      </trkpt>
      <trkpt lat="45.97469" lon="4.41467">
        <ele>735</ele>
        <time>2025-10-04T13:57:03Z</time>
      </trkpt>
      <trkpt lat="45.97467" lon="4.41466">
        <ele>735.2</ele>
        <time>2025-10-04T13:57:04Z</time>
      </trkpt>
      <trkpt lat="45.97465" lon="4.41465">
        <ele>735.2</ele>
        <time>2025-10-04T13:57:05Z</time>
      </trkpt>
      <trkpt lat="45.97463" lon="4.41464">
        <ele>735.2</ele>
        <time>2025-10-04T13:57:06Z</time>
      </trkpt>
      <trkpt lat="45.97461" lon="4.41463">
        <ele>735.6</ele>
        <time>2025-10-04T13:57:07Z</time>
      </trkpt>
      <trkpt lat="45.97459" lon="4.41463">
        <ele>735.6</ele>
        <time>2025-10-04T13:57:08Z</time>
      </trkpt>
      <trkpt lat="45.97457" lon="4.41462">
        <ele>736</ele>
        <time>2025-10-04T13:57:09Z</time>
      </trkpt>
      <trkpt lat="45.97455" lon="4.4146">
        <ele>736</ele>
        <time>2025-10-04T13:57:10Z</time>
      </trkpt>
      <trkpt lat="45.97453" lon="4.4146">
        <ele>736</ele>
        <time>2025-10-04T13:57:11Z</time>
      </trkpt>
      <trkpt lat="45.97451" lon="4.41459">
        <ele>736.2</ele>
        <time>2025-10-04T13:57:12Z</time>
      </trkpt>
      <trkpt lat="45.97449" lon="4.41457">
        <ele>736.4</ele>
        <time>2025-10-04T13:57:13Z</time>
      </trkpt>
      <trkpt lat="45.97447" lon="4.41456">
        <ele>736.4</ele>
        <time>2025-10-04T13:57:14Z</time>
      </trkpt>
      <trkpt lat="45.97445" lon="4.41455">
        <ele>736.6</ele>
        <time>2025-10-04T13:57:15Z</time>
      </trkpt>
      <trkpt lat="45.97443" lon="4.41454">
        <ele>736.6</ele>
        <time>2025-10-04T13:57:16Z</time>
      </trkpt>
      <trkpt lat="45.97441" lon="4.41453">
        <ele>737</ele>
        <time>2025-10-04T13:57:17Z</time>
      </trkpt>
      <trkpt lat="45.9744" lon="4.41452">
        <ele>736.2</ele>
        <time>2025-10-04T13:57:18Z</time>
      </trkpt>
      <trkpt lat="45.97438" lon="4.41451">
        <ele>736.6</ele>
        <time>2025-10-04T13:57:19Z</time>
      </trkpt>
      <trkpt lat="45.97436" lon="4.41449">
        <ele>736.6</ele>
        <time>2025-10-04T13:57:20Z</time>
      </trkpt>
      <trkpt lat="45.97434" lon="4.41448">
        <ele>737</ele>
        <time>2025-10-04T13:57:21Z</time>
      </trkpt>
      <trkpt lat="45.97432" lon="4.41447">
        <ele>737.2</ele>
        <time>2025-10-04T13:57:22Z</time>
      </trkpt>
      <trkpt lat="45.9743" lon="4.41446">
        <ele>737.2</ele>
        <time>2025-10-04T13:57:23Z</time>
      </trkpt>
      <trkpt lat="45.97428" lon="4.41445">
        <ele>737.4</ele>
        <time>2025-10-04T13:57:24Z</time>
      </trkpt>
      <trkpt lat="45.97426" lon="4.41443">
        <ele>737.4</ele>
        <time>2025-10-04T13:57:25Z</time>
      </trkpt>
      <trkpt lat="45.97424" lon="4.41442">
        <ele>737.4</ele>
        <time>2025-10-04T13:57:26Z</time>
      </trkpt>
      <trkpt lat="45.97422" lon="4.4144">
        <ele>737.4</ele>
        <time>2025-10-04T13:57:27Z</time>
      </trkpt>
      <trkpt lat="45.9742" lon="4.41438">
        <ele>737.8</ele>
        <time>2025-10-04T13:57:28Z</time>
      </trkpt>
      <trkpt lat="45.97418" lon="4.41437">
        <ele>737.8</ele>
        <time>2025-10-04T13:57:29Z</time>
      </trkpt>
      <trkpt lat="45.97416" lon="4.41435">
        <ele>738</ele>
        <time>2025-10-04T13:57:30Z</time>
      </trkpt>
      <trkpt lat="45.97414" lon="4.41434">
        <ele>738</ele>
        <time>2025-10-04T13:57:31Z</time>
      </trkpt>
      <trkpt lat="45.97412" lon="4.41432">
        <ele>738.2</ele>
        <time>2025-10-04T13:57:32Z</time>
      </trkpt>
      <trkpt lat="45.9741" lon="4.41431">
        <ele>738.6</ele>
        <time>2025-10-04T13:57:33Z</time>
      </trkpt>
      <trkpt lat="45.97409" lon="4.41429">
        <ele>738.8</ele>
        <time>2025-10-04T13:57:34Z</time>
      </trkpt>
      <trkpt lat="45.97407" lon="4.41427">
        <ele>738.8</ele>
        <time>2025-10-04T13:57:35Z</time>
      </trkpt>
      <trkpt lat="45.97405" lon="4.41425">
        <ele>739</ele>
        <time>2025-10-04T13:57:36Z</time>
      </trkpt>
      <trkpt lat="45.97404" lon="4.41422">
        <ele>739</ele>
        <time>2025-10-04T13:57:37Z</time>
      </trkpt>
      <trkpt lat="45.97403" lon="4.4142">
        <ele>739.4</ele>
        <time>2025-10-04T13:57:38Z</time>
      </trkpt>
      <trkpt lat="45.97401" lon="4.41417">
        <ele>739.4</ele>
        <time>2025-10-04T13:57:39Z</time>
      </trkpt>
      <trkpt lat="45.97399" lon="4.41415">
        <ele>739.8</ele>
        <time>2025-10-04T13:57:40Z</time>
      </trkpt>
      <trkpt lat="45.97397" lon="4.41413">
        <ele>739.8</ele>
        <time>2025-10-04T13:57:41Z</time>
      </trkpt>
      <trkpt lat="45.97396" lon="4.4141">
        <ele>739.8</ele>
        <time>2025-10-04T13:57:42Z</time>
      </trkpt>
      <trkpt lat="45.97394" lon="4.41408">
        <ele>739.8</ele>
        <time>2025-10-04T13:57:43Z</time>
      </trkpt>
      <trkpt lat="45.97392" lon="4.41406">
        <ele>740</ele>
        <time>2025-10-04T13:57:44Z</time>
      </trkpt>
      <trkpt lat="45.9739" lon="4.41404">
        <ele>740</ele>
        <time>2025-10-04T13:57:45Z</time>
      </trkpt>
      <trkpt lat="45.97388" lon="4.41402">
        <ele>740.2</ele>
        <time>2025-10-04T13:57:46Z</time>
      </trkpt>
      <trkpt lat="45.97386" lon="4.41399">
        <ele>740.2</ele>
        <time>2025-10-04T13:57:47Z</time>
      </trkpt>
      <trkpt lat="45.97384" lon="4.41398">
        <ele>740.2</ele>
        <time>2025-10-04T13:57:48Z</time>
      </trkpt>
      <trkpt lat="45.97383" lon="4.41396">
        <ele>740.4</ele>
        <time>2025-10-04T13:57:49Z</time>
      </trkpt>
      <trkpt lat="45.97381" lon="4.41394">
        <ele>740.4</ele>
        <time>2025-10-04T13:57:50Z</time>
      </trkpt>
      <trkpt lat="45.97379" lon="4.41392">
        <ele>740.4</ele>
        <time>2025-10-04T13:57:51Z</time>
      </trkpt>
      <trkpt lat="45.97377" lon="4.4139">
        <ele>740.4</ele>
        <time>2025-10-04T13:57:52Z</time>
      </trkpt>
      <trkpt lat="45.97375" lon="4.41387">
        <ele>740.6</ele>
        <time>2025-10-04T13:57:53Z</time>
      </trkpt>
      <trkpt lat="45.97374" lon="4.41385">
        <ele>740.6</ele>
        <time>2025-10-04T13:57:54Z</time>
      </trkpt>
      <trkpt lat="45.97373" lon="4.41383">
        <ele>740.6</ele>
        <time>2025-10-04T13:57:55Z</time>
      </trkpt>
      <trkpt lat="45.97371" lon="4.41381">
        <ele>740.6</ele>
        <time>2025-10-04T13:57:56Z</time>
      </trkpt>
      <trkpt lat="45.97369" lon="4.41379">
        <ele>741</ele>
        <time>2025-10-04T13:57:57Z</time>
      </trkpt>
      <trkpt lat="45.97367" lon="4.41377">
        <ele>741</ele>
        <time>2025-10-04T13:57:58Z</time>
      </trkpt>
      <trkpt lat="45.97365" lon="4.41375">
        <ele>741.2</ele>
        <time>2025-10-04T13:57:59Z</time>
      </trkpt>
      <trkpt lat="45.97363" lon="4.41373">
        <ele>741.2</ele>
        <time>2025-10-04T13:58:00Z</time>
      </trkpt>
      <trkpt lat="45.97362" lon="4.41371">
        <ele>741.2</ele>
        <time>2025-10-04T13:58:01Z</time>
      </trkpt>
      <trkpt lat="45.97361" lon="4.41369">
        <ele>741.2</ele>
        <time>2025-10-04T13:58:02Z</time>
      </trkpt>
      <trkpt lat="45.9736" lon="4.41366">
        <ele>741.2</ele>
        <time>2025-10-04T13:58:03Z</time>
      </trkpt>
      <trkpt lat="45.97357" lon="4.41365">
        <ele>741.2</ele>
        <time>2025-10-04T13:58:04Z</time>
      </trkpt>
      <trkpt lat="45.97355" lon="4.41363">
        <ele>741.4</ele>
        <time>2025-10-04T13:58:05Z</time>
      </trkpt>
      <trkpt lat="45.97354" lon="4.41362">
        <ele>741.4</ele>
        <time>2025-10-04T13:58:06Z</time>
      </trkpt>
      <trkpt lat="45.97354" lon="4.41362">
        <ele>741.4</ele>
        <time>2025-10-04T13:58:07Z</time>
      </trkpt>
      <trkpt lat="45.97352" lon="4.4136">
        <ele>741.4</ele>
        <time>2025-10-04T13:58:08Z</time>
      </trkpt>
      <trkpt lat="45.97352" lon="4.41359">
        <ele>741.4</ele>
        <time>2025-10-04T13:58:09Z</time>
      </trkpt>
      <trkpt lat="45.97351" lon="4.41356">
        <ele>741.6</ele>
        <time>2025-10-04T13:58:10Z</time>
      </trkpt>
      <trkpt lat="45.9735" lon="4.41354">
        <ele>741.6</ele>
        <time>2025-10-04T13:58:11Z</time>
      </trkpt>
      <trkpt lat="45.97348" lon="4.41351">
        <ele>742</ele>
        <time>2025-10-04T13:58:12Z</time>
      </trkpt>
      <trkpt lat="45.97347" lon="4.41348">
        <ele>742</ele>
        <time>2025-10-04T13:58:13Z</time>
      </trkpt>
      <trkpt lat="45.97345" lon="4.41346">
        <ele>742</ele>
        <time>2025-10-04T13:58:14Z</time>
      </trkpt>
      <trkpt lat="45.97343" lon="4.41343">
        <ele>742.4</ele>
        <time>2025-10-04T13:58:15Z</time>
      </trkpt>
      <trkpt lat="45.97342" lon="4.4134">
        <ele>742.4</ele>
        <time>2025-10-04T13:58:16Z</time>
      </trkpt>
      <trkpt lat="45.9734" lon="4.41339">
        <ele>742.8</ele>
        <time>2025-10-04T13:58:17Z</time>
      </trkpt>
      <trkpt lat="45.97339" lon="4.41337">
        <ele>742.8</ele>
        <time>2025-10-04T13:58:18Z</time>
      </trkpt>
      <trkpt lat="45.97337" lon="4.41335">
        <ele>743.2</ele>
        <time>2025-10-04T13:58:19Z</time>
      </trkpt>
      <trkpt lat="45.97336" lon="4.41333">
        <ele>743.2</ele>
        <time>2025-10-04T13:58:20Z</time>
      </trkpt>
      <trkpt lat="45.97335" lon="4.4133">
        <ele>743.4</ele>
        <time>2025-10-04T13:58:21Z</time>
      </trkpt>
      <trkpt lat="45.97334" lon="4.41327">
        <ele>743.8</ele>
        <time>2025-10-04T13:58:22Z</time>
      </trkpt>
      <trkpt lat="45.97333" lon="4.41324">
        <ele>743.8</ele>
        <time>2025-10-04T13:58:23Z</time>
      </trkpt>
      <trkpt lat="45.97332" lon="4.41321">
        <ele>744</ele>
        <time>2025-10-04T13:58:24Z</time>
      </trkpt>
      <trkpt lat="45.97331" lon="4.41319">
        <ele>744.4</ele>
        <time>2025-10-04T13:58:25Z</time>
      </trkpt>
      <trkpt lat="45.9733" lon="4.41316">
        <ele>744.6</ele>
        <time>2025-10-04T13:58:26Z</time>
      </trkpt>
      <trkpt lat="45.97328" lon="4.41314">
        <ele>744.8</ele>
        <time>2025-10-04T13:58:27Z</time>
      </trkpt>
      <trkpt lat="45.97326" lon="4.41311">
        <ele>744.8</ele>
        <time>2025-10-04T13:58:28Z</time>
      </trkpt>
      <trkpt lat="45.97323" lon="4.41308">
        <ele>744.8</ele>
        <time>2025-10-04T13:58:29Z</time>
      </trkpt>
      <trkpt lat="45.97322" lon="4.41306">
        <ele>745.2</ele>
        <time>2025-10-04T13:58:30Z</time>
      </trkpt>
      <trkpt lat="45.97321" lon="4.41304">
        <ele>745.2</ele>
        <time>2025-10-04T13:58:31Z</time>
      </trkpt>
      <trkpt lat="45.9732" lon="4.41302">
        <ele>745.2</ele>
        <time>2025-10-04T13:58:32Z</time>
      </trkpt>
      <trkpt lat="45.97318" lon="4.41299">
        <ele>745.4</ele>
        <time>2025-10-04T13:58:33Z</time>
      </trkpt>
      <trkpt lat="45.97317" lon="4.41296">
        <ele>745.4</ele>
        <time>2025-10-04T13:58:34Z</time>
      </trkpt>
      <trkpt lat="45.97316" lon="4.41293">
        <ele>745.8</ele>
        <time>2025-10-04T13:58:35Z</time>
      </trkpt>
      <trkpt lat="45.97314" lon="4.41291">
        <ele>745.8</ele>
        <time>2025-10-04T13:58:36Z</time>
      </trkpt>
      <trkpt lat="45.97312" lon="4.41288">
        <ele>745.8</ele>
        <time>2025-10-04T13:58:37Z</time>
      </trkpt>
      <trkpt lat="45.9731" lon="4.41285">
        <ele>745.8</ele>
        <time>2025-10-04T13:58:38Z</time>
      </trkpt>
      <trkpt lat="45.9731" lon="4.41284">
        <ele>746.2</ele>
        <time>2025-10-04T13:58:39Z</time>
      </trkpt>
      <trkpt lat="45.97309" lon="4.41281">
        <ele>746.4</ele>
        <time>2025-10-04T13:58:40Z</time>
      </trkpt>
      <trkpt lat="45.97308" lon="4.41278">
        <ele>746.6</ele>
        <time>2025-10-04T13:58:41Z</time>
      </trkpt>
      <trkpt lat="45.97307" lon="4.41276">
        <ele>746.6</ele>
        <time>2025-10-04T13:58:42Z</time>
      </trkpt>
      <trkpt lat="45.97306" lon="4.41273">
        <ele>746.6</ele>
        <time>2025-10-04T13:58:43Z</time>
      </trkpt>
      <trkpt lat="45.97305" lon="4.41271">
        <ele>747</ele>
        <time>2025-10-04T13:58:44Z</time>
      </trkpt>
      <trkpt lat="45.97304" lon="4.41269">
        <ele>747</ele>
        <time>2025-10-04T13:58:45Z</time>
      </trkpt>
      <trkpt lat="45.97302" lon="4.41266">
        <ele>747.2</ele>
        <time>2025-10-04T13:58:46Z</time>
      </trkpt>
      <trkpt lat="45.97301" lon="4.41263">
        <ele>747.2</ele>
        <time>2025-10-04T13:58:47Z</time>
      </trkpt>
      <trkpt lat="45.973" lon="4.41259">
        <ele>747.2</ele>
        <time>2025-10-04T13:58:48Z</time>
      </trkpt>
      <trkpt lat="45.97299" lon="4.41255">
        <ele>747.6</ele>
        <time>2025-10-04T13:58:49Z</time>
      </trkpt>
      <trkpt lat="45.97298" lon="4.41252">
        <ele>747.6</ele>
        <time>2025-10-04T13:58:50Z</time>
      </trkpt>
      <trkpt lat="45.97297" lon="4.4125">
        <ele>748</ele>
        <time>2025-10-04T13:58:51Z</time>
      </trkpt>
      <trkpt lat="45.97296" lon="4.41246">
        <ele>748</ele>
        <time>2025-10-04T13:58:52Z</time>
      </trkpt>
      <trkpt lat="45.97295" lon="4.41243">
        <ele>748</ele>
        <time>2025-10-04T13:58:53Z</time>
      </trkpt>
      <trkpt lat="45.97294" lon="4.41239">
        <ele>748</ele>
        <time>2025-10-04T13:58:54Z</time>
      </trkpt>
      <trkpt lat="45.97293" lon="4.41235">
        <ele>748.2</ele>
        <time>2025-10-04T13:58:55Z</time>
      </trkpt>
      <trkpt lat="45.97293" lon="4.41232">
        <ele>748.4</ele>
        <time>2025-10-04T13:58:56Z</time>
      </trkpt>
      <trkpt lat="45.97293" lon="4.41229">
        <ele>748.4</ele>
        <time>2025-10-04T13:58:57Z</time>
      </trkpt>
      <trkpt lat="45.97293" lon="4.41226">
        <ele>748.8</ele>
        <time>2025-10-04T13:58:58Z</time>
      </trkpt>
      <trkpt lat="45.97294" lon="4.41222">
        <ele>748.8</ele>
        <time>2025-10-04T13:58:59Z</time>
      </trkpt>
      <trkpt lat="45.97295" lon="4.41218">
        <ele>749</ele>
        <time>2025-10-04T13:59:00Z</time>
      </trkpt>
      <trkpt lat="45.97297" lon="4.41214">
        <ele>749</ele>
        <time>2025-10-04T13:59:01Z</time>
      </trkpt>
      <trkpt lat="45.97299" lon="4.4121">
        <ele>749</ele>
        <time>2025-10-04T13:59:02Z</time>
      </trkpt>
      <trkpt lat="45.973" lon="4.41207">
        <ele>749</ele>
        <time>2025-10-04T13:59:03Z</time>
      </trkpt>
      <trkpt lat="45.97301" lon="4.41204">
        <ele>749</ele>
        <time>2025-10-04T13:59:04Z</time>
      </trkpt>
      <trkpt lat="45.97301" lon="4.41202">
        <ele>749</ele>
        <time>2025-10-04T13:59:05Z</time>
      </trkpt>
      <trkpt lat="45.97302" lon="4.41199">
        <ele>749</ele>
        <time>2025-10-04T13:59:06Z</time>
      </trkpt>
      <trkpt lat="45.97304" lon="4.41196">
        <ele>749.4</ele>
        <time>2025-10-04T13:59:07Z</time>
      </trkpt>
      <trkpt lat="45.97305" lon="4.41193">
        <ele>749.4</ele>
        <time>2025-10-04T13:59:08Z</time>
      </trkpt>
      <trkpt lat="45.97307" lon="4.4119">
        <ele>749.6</ele>
        <time>2025-10-04T13:59:09Z</time>
      </trkpt>
      <trkpt lat="45.97308" lon="4.41187">
        <ele>749.6</ele>
        <time>2025-10-04T13:59:10Z</time>
      </trkpt>
      <trkpt lat="45.97309" lon="4.41184">
        <ele>749.6</ele>
        <time>2025-10-04T13:59:11Z</time>
      </trkpt>
      <trkpt lat="45.97311" lon="4.41181">
        <ele>749.6</ele>
        <time>2025-10-04T13:59:12Z</time>
      </trkpt>
      <trkpt lat="45.97312" lon="4.41177">
        <ele>750</ele>
        <time>2025-10-04T13:59:13Z</time>
      </trkpt>
      <trkpt lat="45.97313" lon="4.41173">
        <ele>750.2</ele>
        <time>2025-10-04T13:59:14Z</time>
      </trkpt>
      <trkpt lat="45.97314" lon="4.4117">
        <ele>750.4</ele>
        <time>2025-10-04T13:59:15Z</time>
      </trkpt>
      <trkpt lat="45.97316" lon="4.41167">
        <ele>750.8</ele>
        <time>2025-10-04T13:59:16Z</time>
      </trkpt>
      <trkpt lat="45.97318" lon="4.41164">
        <ele>750.8</ele>
        <time>2025-10-04T13:59:17Z</time>
      </trkpt>
      <trkpt lat="45.97319" lon="4.41161">
        <ele>751.2</ele>
        <time>2025-10-04T13:59:18Z</time>
      </trkpt>
      <trkpt lat="45.97321" lon="4.41157">
        <ele>751.2</ele>
        <time>2025-10-04T13:59:19Z</time>
      </trkpt>
      <trkpt lat="45.97323" lon="4.41153">
        <ele>751.2</ele>
        <time>2025-10-04T13:59:20Z</time>
      </trkpt>
      <trkpt lat="45.97324" lon="4.4115">
        <ele>751.4</ele>
        <time>2025-10-04T13:59:21Z</time>
      </trkpt>
      <trkpt lat="45.97325" lon="4.41148">
        <ele>751.4</ele>
        <time>2025-10-04T13:59:22Z</time>
      </trkpt>
      <trkpt lat="45.97326" lon="4.41147">
        <ele>751.4</ele>
        <time>2025-10-04T13:59:23Z</time>
      </trkpt>
      <trkpt lat="45.97327" lon="4.41145">
        <ele>751.4</ele>
        <time>2025-10-04T13:59:24Z</time>
      </trkpt>
      <trkpt lat="45.97329" lon="4.41143">
        <ele>751.4</ele>
        <time>2025-10-04T13:59:25Z</time>
      </trkpt>
      <trkpt lat="45.9733" lon="4.41141">
        <ele>751.4</ele>
        <time>2025-10-04T13:59:26Z</time>
      </trkpt>
      <trkpt lat="45.97331" lon="4.41139">
        <ele>751.4</ele>
        <time>2025-10-04T13:59:27Z</time>
      </trkpt>
      <trkpt lat="45.97333" lon="4.41138">
        <ele>751.4</ele>
        <time>2025-10-04T13:59:28Z</time>
      </trkpt>
      <trkpt lat="45.97334" lon="4.41135">
        <ele>751.4</ele>
        <time>2025-10-04T13:59:29Z</time>
      </trkpt>
      <trkpt lat="45.97335" lon="4.41134">
        <ele>751.6</ele>
        <time>2025-10-04T13:59:30Z</time>
      </trkpt>
      <trkpt lat="45.97336" lon="4.41132">
        <ele>751.6</ele>
        <time>2025-10-04T13:59:31Z</time>
      </trkpt>
      <trkpt lat="45.97337" lon="4.41131">
        <ele>751.6</ele>
        <time>2025-10-04T13:59:32Z</time>
      </trkpt>
      <trkpt lat="45.97338" lon="4.4113">
        <ele>751.6</ele>
        <time>2025-10-04T13:59:33Z</time>
      </trkpt>
      <trkpt lat="45.97339" lon="4.41128">
        <ele>751.6</ele>
        <time>2025-10-04T13:59:34Z</time>
      </trkpt>
      <trkpt lat="45.9734" lon="4.41125">
        <ele>752</ele>
        <time>2025-10-04T13:59:35Z</time>
      </trkpt>
      <trkpt lat="45.97341" lon="4.41121">
        <ele>752</ele>
        <time>2025-10-04T13:59:36Z</time>
      </trkpt>
      <trkpt lat="45.97343" lon="4.41118">
        <ele>752</ele>
        <time>2025-10-04T13:59:37Z</time>
      </trkpt>
      <trkpt lat="45.97344" lon="4.41116">
        <ele>752.2</ele>
        <time>2025-10-04T13:59:38Z</time>
      </trkpt>
      <trkpt lat="45.97345" lon="4.41114">
        <ele>752.2</ele>
        <time>2025-10-04T13:59:39Z</time>
      </trkpt>
      <trkpt lat="45.97346" lon="4.41111">
        <ele>752.2</ele>
        <time>2025-10-04T13:59:40Z</time>
      </trkpt>
      <trkpt lat="45.97347" lon="4.41108">
        <ele>752</ele>
        <time>2025-10-04T13:59:41Z</time>
      </trkpt>
      <trkpt lat="45.97349" lon="4.41105">
        <ele>752</ele>
        <time>2025-10-04T13:59:42Z</time>
      </trkpt>
      <trkpt lat="45.9735" lon="4.41102">
        <ele>752</ele>
        <time>2025-10-04T13:59:43Z</time>
      </trkpt>
      <trkpt lat="45.97351" lon="4.41099">
        <ele>752</ele>
        <time>2025-10-04T13:59:44Z</time>
      </trkpt>
      <trkpt lat="45.97353" lon="4.41096">
        <ele>752.2</ele>
        <time>2025-10-04T13:59:45Z</time>
      </trkpt>
      <trkpt lat="45.97354" lon="4.41093">
        <ele>752.4</ele>
        <time>2025-10-04T13:59:46Z</time>
      </trkpt>
      <trkpt lat="45.97355" lon="4.41091">
        <ele>752.6</ele>
        <time>2025-10-04T13:59:47Z</time>
      </trkpt>
      <trkpt lat="45.97356" lon="4.41089">
        <ele>752.8</ele>
        <time>2025-10-04T13:59:48Z</time>
      </trkpt>
      <trkpt lat="45.97357" lon="4.41086">
        <ele>753.2</ele>
        <time>2025-10-04T13:59:49Z</time>
      </trkpt>
      <trkpt lat="45.97359" lon="4.41083">
        <ele>753.2</ele>
        <time>2025-10-04T13:59:50Z</time>
      </trkpt>
      <trkpt lat="45.9736" lon="4.41081">
        <ele>753.8</ele>
        <time>2025-10-04T13:59:51Z</time>
      </trkpt>
      <trkpt lat="45.97362" lon="4.41078">
        <ele>753.8</ele>
        <time>2025-10-04T13:59:52Z</time>
      </trkpt>
      <trkpt lat="45.97364" lon="4.41076">
        <ele>753.8</ele>
        <time>2025-10-04T13:59:53Z</time>
      </trkpt>
      <trkpt lat="45.97365" lon="4.41073">
        <ele>753.8</ele>
        <time>2025-10-04T13:59:54Z</time>
      </trkpt>
      <trkpt lat="45.97367" lon="4.41071">
        <ele>754.2</ele>
        <time>2025-10-04T13:59:55Z</time>
      </trkpt>
      <trkpt lat="45.97369" lon="4.41069">
        <ele>754.2</ele>
        <time>2025-10-04T13:59:56Z</time>
      </trkpt>
      <trkpt lat="45.97371" lon="4.41066">
        <ele>754.4</ele>
        <time>2025-10-04T13:59:57Z</time>
      </trkpt>
      <trkpt lat="45.97373" lon="4.41064">
        <ele>754.4</ele>
        <time>2025-10-04T13:59:58Z</time>
      </trkpt>
      <trkpt lat="45.97374" lon="4.41062">
        <ele>754.8</ele>
        <time>2025-10-04T13:59:59Z</time>
      </trkpt>
      <trkpt lat="45.97374" lon="4.41062">
        <ele>754.8</ele>
        <time>2025-10-04T14:00:00Z</time>
      </trkpt>
      <trkpt lat="45.97376" lon="4.41061">
        <ele>754.8</ele>
        <time>2025-10-04T14:00:01Z</time>
      </trkpt>
      <trkpt lat="45.97377" lon="4.41059">
        <ele>754.8</ele>
        <time>2025-10-04T14:00:02Z</time>
      </trkpt>
      <trkpt lat="45.97379" lon="4.41058">
        <ele>755.2</ele>
        <time>2025-10-04T14:00:03Z</time>
      </trkpt>
      <trkpt lat="45.97381" lon="4.41057">
        <ele>755.8</ele>
        <time>2025-10-04T14:00:04Z</time>
      </trkpt>
      <trkpt lat="45.97383" lon="4.41055">
        <ele>756.2</ele>
        <time>2025-10-04T14:00:05Z</time>
      </trkpt>
      <trkpt lat="45.97385" lon="4.41053">
        <ele>756.4</ele>
        <time>2025-10-04T14:00:06Z</time>
      </trkpt>
      <trkpt lat="45.97387" lon="4.41051">
        <ele>756.4</ele>
        <time>2025-10-04T14:00:07Z</time>
      </trkpt>
      <trkpt lat="45.97389" lon="4.4105">
        <ele>756.4</ele>
        <time>2025-10-04T14:00:08Z</time>
      </trkpt>
      <trkpt lat="45.9739" lon="4.41048">
        <ele>756.6</ele>
        <time>2025-10-04T14:00:09Z</time>
      </trkpt>
      <trkpt lat="45.97392" lon="4.41047">
        <ele>756.8</ele>
        <time>2025-10-04T14:00:10Z</time>
      </trkpt>
      <trkpt lat="45.97394" lon="4.41046">
        <ele>756.8</ele>
        <time>2025-10-04T14:00:11Z</time>
      </trkpt>
      <trkpt lat="45.97396" lon="4.41044">
        <ele>756.8</ele>
        <time>2025-10-04T14:00:12Z</time>
      </trkpt>
      <trkpt lat="45.97398" lon="4.41042">
        <ele>756.8</ele>
        <time>2025-10-04T14:00:13Z</time>
      </trkpt>
      <trkpt lat="45.974" lon="4.41041">
        <ele>757</ele>
        <time>2025-10-04T14:00:14Z</time>
      </trkpt>
      <trkpt lat="45.97403" lon="4.41038">
        <ele>757</ele>
        <time>2025-10-04T14:00:15Z</time>
      </trkpt>
      <trkpt lat="45.97405" lon="4.41037">
        <ele>757.4</ele>
        <time>2025-10-04T14:00:16Z</time>
      </trkpt>
      <trkpt lat="45.97407" lon="4.41036">
        <ele>757.4</ele>
        <time>2025-10-04T14:00:17Z</time>
      </trkpt>
      <trkpt lat="45.97409" lon="4.41035">
        <ele>757.6</ele>
        <time>2025-10-04T14:00:18Z</time>
      </trkpt>
      <trkpt lat="45.97412" lon="4.41034">
        <ele>757.6</ele>
        <time>2025-10-04T14:00:19Z</time>
      </trkpt>
      <trkpt lat="45.97414" lon="4.41033">
        <ele>757.6</ele>
        <time>2025-10-04T14:00:20Z</time>
      </trkpt>
      <trkpt lat="45.97417" lon="4.41033">
        <ele>758</ele>
        <time>2025-10-04T14:00:21Z</time>
      </trkpt>
      <trkpt lat="45.97419" lon="4.41033">
        <ele>758</ele>
        <time>2025-10-04T14:00:22Z</time>
      </trkpt>
      <trkpt lat="45.97422" lon="4.41032">
        <ele>758.2</ele>
        <time>2025-10-04T14:00:23Z</time>
      </trkpt>
      <trkpt lat="45.97424" lon="4.41031">
        <ele>758.2</ele>
        <time>2025-10-04T14:00:24Z</time>
      </trkpt>
      <trkpt lat="45.97426" lon="4.4103">
        <ele>758.6</ele>
        <time>2025-10-04T14:00:25Z</time>
      </trkpt>
      <trkpt lat="45.97429" lon="4.4103">
        <ele>758.8</ele>
        <time>2025-10-04T14:00:26Z</time>
      </trkpt>
      <trkpt lat="45.97431" lon="4.41029">
        <ele>759</ele>
        <time>2025-10-04T14:00:27Z</time>
      </trkpt>
      <trkpt lat="45.97434" lon="4.41029">
        <ele>759</ele>
        <time>2025-10-04T14:00:28Z</time>
      </trkpt>
      <trkpt lat="45.97436" lon="4.41028">
        <ele>759.4</ele>
        <time>2025-10-04T14:00:29Z</time>
      </trkpt>
      <trkpt lat="45.97438" lon="4.41028">
        <ele>759.4</ele>
        <time>2025-10-04T14:00:30Z</time>
      </trkpt>
      <trkpt lat="45.9744" lon="4.41027">
        <ele>759.6</ele>
        <time>2025-10-04T14:00:31Z</time>
      </trkpt>
      <trkpt lat="45.97441" lon="4.41027">
        <ele>759.6</ele>
        <time>2025-10-04T14:00:32Z</time>
      </trkpt>
      <trkpt lat="45.97443" lon="4.41027">
        <ele>759.6</ele>
        <time>2025-10-04T14:00:33Z</time>
      </trkpt>
      <trkpt lat="45.97445" lon="4.41027">
        <ele>759.6</ele>
        <time>2025-10-04T14:00:34Z</time>
      </trkpt>
      <trkpt lat="45.97447" lon="4.41026">
        <ele>759.6</ele>
        <time>2025-10-04T14:00:35Z</time>
      </trkpt>
      <trkpt lat="45.97449" lon="4.41025">
        <ele>759.6</ele>
        <time>2025-10-04T14:00:36Z</time>
      </trkpt>
      <trkpt lat="45.97451" lon="4.41025">
        <ele>759.6</ele>
        <time>2025-10-04T14:00:37Z</time>
      </trkpt>
      <trkpt lat="45.97454" lon="4.41025">
        <ele>759.6</ele>
        <time>2025-10-04T14:00:38Z</time>
      </trkpt>
      <trkpt lat="45.97456" lon="4.41025">
        <ele>759.8</ele>
        <time>2025-10-04T14:00:39Z</time>
      </trkpt>
      <trkpt lat="45.97458" lon="4.41025">
        <ele>759.8</ele>
        <time>2025-10-04T14:00:40Z</time>
      </trkpt>
      <trkpt lat="45.9746" lon="4.41025">
        <ele>759.8</ele>
        <time>2025-10-04T14:00:41Z</time>
      </trkpt>
      <trkpt lat="45.97462" lon="4.41024">
        <ele>759.8</ele>
        <time>2025-10-04T14:00:42Z</time>
      </trkpt>
      <trkpt lat="45.97463" lon="4.41024">
        <ele>759.8</ele>
        <time>2025-10-04T14:00:43Z</time>
      </trkpt>
      <trkpt lat="45.97465" lon="4.41023">
        <ele>760.2</ele>
        <time>2025-10-04T14:00:44Z</time>
      </trkpt>
      <trkpt lat="45.97467" lon="4.41022">
        <ele>760.2</ele>
        <time>2025-10-04T14:00:45Z</time>
      </trkpt>
      <trkpt lat="45.97469" lon="4.41022">
        <ele>760.6</ele>
        <time>2025-10-04T14:00:46Z</time>
      </trkpt>
      <trkpt lat="45.97471" lon="4.41021">
        <ele>760.6</ele>
        <time>2025-10-04T14:00:47Z</time>
      </trkpt>
      <trkpt lat="45.97474" lon="4.4102">
        <ele>760.8</ele>
        <time>2025-10-04T14:00:48Z</time>
      </trkpt>
      <trkpt lat="45.97476" lon="4.41019">
        <ele>760.8</ele>
        <time>2025-10-04T14:00:49Z</time>
      </trkpt>
      <trkpt lat="45.97478" lon="4.41019">
        <ele>761.2</ele>
        <time>2025-10-04T14:00:50Z</time>
      </trkpt>
      <trkpt lat="45.9748" lon="4.41019">
        <ele>761.2</ele>
        <time>2025-10-04T14:00:51Z</time>
      </trkpt>
      <trkpt lat="45.97483" lon="4.41019">
        <ele>761.4</ele>
        <time>2025-10-04T14:00:52Z</time>
      </trkpt>
      <trkpt lat="45.97486" lon="4.41018">
        <ele>761.6</ele>
        <time>2025-10-04T14:00:53Z</time>
      </trkpt>
      <trkpt lat="45.97488" lon="4.41017">
        <ele>761.6</ele>
        <time>2025-10-04T14:00:54Z</time>
      </trkpt>
      <trkpt lat="45.9749" lon="4.41015">
        <ele>761.6</ele>
        <time>2025-10-04T14:00:55Z</time>
      </trkpt>
      <trkpt lat="45.97493" lon="4.41014">
        <ele>761.8</ele>
        <time>2025-10-04T14:00:56Z</time>
      </trkpt>
      <trkpt lat="45.97495" lon="4.41013">
        <ele>761.8</ele>
        <time>2025-10-04T14:00:57Z</time>
      </trkpt>
      <trkpt lat="45.97497" lon="4.41013">
        <ele>761.8</ele>
        <time>2025-10-04T14:00:58Z</time>
      </trkpt>
      <trkpt lat="45.975" lon="4.41012">
        <ele>761.8</ele>
        <time>2025-10-04T14:00:59Z</time>
      </trkpt>
      <trkpt lat="45.97502" lon="4.41011">
        <ele>762</ele>
        <time>2025-10-04T14:01:00Z</time>
      </trkpt>
      <trkpt lat="45.97505" lon="4.4101">
        <ele>762</ele>
        <time>2025-10-04T14:01:01Z</time>
      </trkpt>
      <trkpt lat="45.97506" lon="4.41009">
        <ele>762</ele>
        <time>2025-10-04T14:01:02Z</time>
      </trkpt>
      <trkpt lat="45.97509" lon="4.41008">
        <ele>762</ele>
        <time>2025-10-04T14:01:03Z</time>
      </trkpt>
      <trkpt lat="45.97511" lon="4.41006">
        <ele>762.4</ele>
        <time>2025-10-04T14:01:04Z</time>
      </trkpt>
      <trkpt lat="45.97514" lon="4.41004">
        <ele>762.4</ele>
        <time>2025-10-04T14:01:05Z</time>
      </trkpt>
      <trkpt lat="45.97517" lon="4.41002">
        <ele>762.4</ele>
        <time>2025-10-04T14:01:06Z</time>
      </trkpt>
      <trkpt lat="45.97521" lon="4.41">
        <ele>762.6</ele>
        <time>2025-10-04T14:01:07Z</time>
      </trkpt>
      <trkpt lat="45.97525" lon="4.40998">
        <ele>763</ele>
        <time>2025-10-04T14:01:08Z</time>
      </trkpt>
      <trkpt lat="45.97528" lon="4.40995">
        <ele>763</ele>
        <time>2025-10-04T14:01:09Z</time>
      </trkpt>
      <trkpt lat="45.97531" lon="4.40993">
        <ele>763</ele>
        <time>2025-10-04T14:01:10Z</time>
      </trkpt>
      <trkpt lat="45.97534" lon="4.4099">
        <ele>763</ele>
        <time>2025-10-04T14:01:11Z</time>
      </trkpt>
      <trkpt lat="45.97536" lon="4.40987">
        <ele>763.4</ele>
        <time>2025-10-04T14:01:12Z</time>
      </trkpt>
      <trkpt lat="45.97538" lon="4.40985">
        <ele>763.4</ele>
        <time>2025-10-04T14:01:13Z</time>
      </trkpt>
      <trkpt lat="45.9754" lon="4.40983">
        <ele>763.4</ele>
        <time>2025-10-04T14:01:14Z</time>
      </trkpt>
      <trkpt lat="45.97542" lon="4.4098">
        <ele>763.4</ele>
        <time>2025-10-04T14:01:15Z</time>
      </trkpt>
      <trkpt lat="45.97545" lon="4.40978">
        <ele>763</ele>
        <time>2025-10-04T14:01:16Z</time>
      </trkpt>
      <trkpt lat="45.97547" lon="4.40975">
        <ele>763</ele>
        <time>2025-10-04T14:01:17Z</time>
      </trkpt>
      <trkpt lat="45.9755" lon="4.40972">
        <ele>762.8</ele>
        <time>2025-10-04T14:01:18Z</time>
      </trkpt>
      <trkpt lat="45.97553" lon="4.40968">
        <ele>762.8</ele>
        <time>2025-10-04T14:01:19Z</time>
      </trkpt>
      <trkpt lat="45.97556" lon="4.40964">
        <ele>762.8</ele>
        <time>2025-10-04T14:01:20Z</time>
      </trkpt>
      <trkpt lat="45.97559" lon="4.4096">
        <ele>762.6</ele>
        <time>2025-10-04T14:01:21Z</time>
      </trkpt>
      <trkpt lat="45.97561" lon="4.40954">
        <ele>762.6</ele>
        <time>2025-10-04T14:01:22Z</time>
      </trkpt>
      <trkpt lat="45.97564" lon="4.40948">
        <ele>762.2</ele>
        <time>2025-10-04T14:01:23Z</time>
      </trkpt>
      <trkpt lat="45.97567" lon="4.40941">
        <ele>762.2</ele>
        <time>2025-10-04T14:01:24Z</time>
      </trkpt>
      <trkpt lat="45.97569" lon="4.40935">
        <ele>762.2</ele>
        <time>2025-10-04T14:01:25Z</time>
      </trkpt>
      <trkpt lat="45.97572" lon="4.40928">
        <ele>762.4</ele>
        <time>2025-10-04T14:01:26Z</time>
      </trkpt>
      <trkpt lat="45.97574" lon="4.40921">
        <ele>762.4</ele>
        <time>2025-10-04T14:01:27Z</time>
      </trkpt>
      <trkpt lat="45.97577" lon="4.40914">
        <ele>762.2</ele>
        <time>2025-10-04T14:01:28Z</time>
      </trkpt>
      <trkpt lat="45.97579" lon="4.40907">
        <ele>762.2</ele>
        <time>2025-10-04T14:01:29Z</time>
      </trkpt>
      <trkpt lat="45.97581" lon="4.409">
        <ele>762.2</ele>
        <time>2025-10-04T14:01:30Z</time>
      </trkpt>
      <trkpt lat="45.97583" lon="4.40893">
        <ele>762.2</ele>
        <time>2025-10-04T14:01:31Z</time>
      </trkpt>
      <trkpt lat="45.97583" lon="4.40885">
        <ele>762.2</ele>
        <time>2025-10-04T14:01:32Z</time>
      </trkpt>
      <trkpt lat="45.97584" lon="4.40878">
        <ele>762.2</ele>
        <time>2025-10-04T14:01:33Z</time>
      </trkpt>
      <trkpt lat="45.97585" lon="4.4087">
        <ele>762.2</ele>
        <time>2025-10-04T14:01:34Z</time>
      </trkpt>
      <trkpt lat="45.97588" lon="4.40866">
        <ele>762.2</ele>
        <time>2025-10-04T14:01:35Z</time>
      </trkpt>
      <trkpt lat="45.9759" lon="4.40865">
        <ele>762.2</ele>
        <time>2025-10-04T14:01:36Z</time>
      </trkpt>
      <trkpt lat="45.97593" lon="4.40867">
        <ele>762.6</ele>
        <time>2025-10-04T14:01:37Z</time>
      </trkpt>
      <trkpt lat="45.97594" lon="4.40869">
        <ele>762.6</ele>
        <time>2025-10-04T14:01:38Z</time>
      </trkpt>
      <trkpt lat="45.97596" lon="4.40871">
        <ele>763</ele>
        <time>2025-10-04T14:01:39Z</time>
      </trkpt>
      <trkpt lat="45.97597" lon="4.40872">
        <ele>763.4</ele>
        <time>2025-10-04T14:01:40Z</time>
      </trkpt>
      <trkpt lat="45.97599" lon="4.40872">
        <ele>763.6</ele>
        <time>2025-10-04T14:01:41Z</time>
      </trkpt>
      <trkpt lat="45.97599" lon="4.40873">
        <ele>764</ele>
        <time>2025-10-04T14:01:42Z</time>
      </trkpt>
      <trkpt lat="45.97599" lon="4.40876">
        <ele>764.2</ele>
        <time>2025-10-04T14:01:43Z</time>
      </trkpt>
      <trkpt lat="45.97599" lon="4.40876">
        <ele>764.6</ele>
        <time>2025-10-04T14:01:44Z</time>
      </trkpt>
      <trkpt lat="45.976" lon="4.40878">
        <ele>764.8</ele>
        <time>2025-10-04T14:01:45Z</time>
      </trkpt>
      <trkpt lat="45.97599" lon="4.40879">
        <ele>765</ele>
        <time>2025-10-04T14:01:46Z</time>
      </trkpt>
      <trkpt lat="45.976" lon="4.40881">
        <ele>765.4</ele>
        <time>2025-10-04T14:01:47Z</time>
      </trkpt>
      <trkpt lat="45.97601" lon="4.40883">
        <ele>765.6</ele>
        <time>2025-10-04T14:01:48Z</time>
      </trkpt>
      <trkpt lat="45.97602" lon="4.40885">
        <ele>765.6</ele>
        <time>2025-10-04T14:01:49Z</time>
      </trkpt>
      <trkpt lat="45.97603" lon="4.40887">
        <ele>766</ele>
        <time>2025-10-04T14:01:50Z</time>
      </trkpt>
      <trkpt lat="45.97604" lon="4.40888">
        <ele>766.4</ele>
        <time>2025-10-04T14:01:51Z</time>
      </trkpt>
      <trkpt lat="45.97604" lon="4.4089">
        <ele>766.6</ele>
        <time>2025-10-04T14:01:52Z</time>
      </trkpt>
      <trkpt lat="45.97605" lon="4.40892">
        <ele>766.8</ele>
        <time>2025-10-04T14:01:53Z</time>
      </trkpt>
      <trkpt lat="45.97605" lon="4.40893">
        <ele>767</ele>
        <time>2025-10-04T14:01:54Z</time>
      </trkpt>
      <trkpt lat="45.97606" lon="4.40895">
        <ele>767.2</ele>
        <time>2025-10-04T14:01:55Z</time>
      </trkpt>
      <trkpt lat="45.97607" lon="4.40896">
        <ele>767.2</ele>
        <time>2025-10-04T14:01:56Z</time>
      </trkpt>
      <trkpt lat="45.97607" lon="4.40898">
        <ele>767.6</ele>
        <time>2025-10-04T14:01:57Z</time>
      </trkpt>
      <trkpt lat="45.97607" lon="4.409">
        <ele>768</ele>
        <time>2025-10-04T14:01:58Z</time>
      </trkpt>
      <trkpt lat="45.97607" lon="4.40902">
        <ele>768.2</ele>
        <time>2025-10-04T14:01:59Z</time>
      </trkpt>
      <trkpt lat="45.97608" lon="4.40904">
        <ele>768.2</ele>
        <time>2025-10-04T14:02:00Z</time>
      </trkpt>
      <trkpt lat="45.97608" lon="4.40906">
        <ele>768.6</ele>
        <time>2025-10-04T14:02:01Z</time>
      </trkpt>
      <trkpt lat="45.97609" lon="4.40907">
        <ele>768.6</ele>
        <time>2025-10-04T14:02:02Z</time>
      </trkpt>
      <trkpt lat="45.97609" lon="4.40909">
        <ele>769</ele>
        <time>2025-10-04T14:02:03Z</time>
      </trkpt>
      <trkpt lat="45.97609" lon="4.4091">
        <ele>769.2</ele>
        <time>2025-10-04T14:02:04Z</time>
      </trkpt>
      <trkpt lat="45.97609" lon="4.40913">
        <ele>769.6</ele>
        <time>2025-10-04T14:02:05Z</time>
      </trkpt>
      <trkpt lat="45.97609" lon="4.40916">
        <ele>769.6</ele>
        <time>2025-10-04T14:02:06Z</time>
      </trkpt>
      <trkpt lat="45.97609" lon="4.40918">
        <ele>769.8</ele>
        <time>2025-10-04T14:02:07Z</time>
      </trkpt>
      <trkpt lat="45.97609" lon="4.4092">
        <ele>769.8</ele>
        <time>2025-10-04T14:02:08Z</time>
      </trkpt>
      <trkpt lat="45.9761" lon="4.40922">
        <ele>770.2</ele>
        <time>2025-10-04T14:02:09Z</time>
      </trkpt>
      <trkpt lat="45.9761" lon="4.40924">
        <ele>770.6</ele>
        <time>2025-10-04T14:02:10Z</time>
      </trkpt>
      <trkpt lat="45.9761" lon="4.40926">
        <ele>770.6</ele>
        <time>2025-10-04T14:02:11Z</time>
      </trkpt>
      <trkpt lat="45.9761" lon="4.40928">
        <ele>771</ele>
        <time>2025-10-04T14:02:12Z</time>
      </trkpt>
      <trkpt lat="45.97611" lon="4.40929">
        <ele>771</ele>
        <time>2025-10-04T14:02:13Z</time>
      </trkpt>
      <trkpt lat="45.97612" lon="4.40931">
        <ele>771.4</ele>
        <time>2025-10-04T14:02:14Z</time>
      </trkpt>
      <trkpt lat="45.97613" lon="4.40935">
        <ele>771.4</ele>
        <time>2025-10-04T14:02:15Z</time>
      </trkpt>
      <trkpt lat="45.97613" lon="4.40937">
        <ele>771.8</ele>
        <time>2025-10-04T14:02:16Z</time>
      </trkpt>
      <trkpt lat="45.97613" lon="4.40939">
        <ele>771.8</ele>
        <time>2025-10-04T14:02:17Z</time>
      </trkpt>
      <trkpt lat="45.97613" lon="4.40941">
        <ele>772.2</ele>
        <time>2025-10-04T14:02:18Z</time>
      </trkpt>
      <trkpt lat="45.97613" lon="4.40943">
        <ele>772.6</ele>
        <time>2025-10-04T14:02:19Z</time>
      </trkpt>
      <trkpt lat="45.97614" lon="4.40946">
        <ele>772.6</ele>
        <time>2025-10-04T14:02:20Z</time>
      </trkpt>
      <trkpt lat="45.97614" lon="4.40948">
        <ele>772.6</ele>
        <time>2025-10-04T14:02:21Z</time>
      </trkpt>
      <trkpt lat="45.97615" lon="4.40949">
        <ele>772.8</ele>
        <time>2025-10-04T14:02:22Z</time>
      </trkpt>
      <trkpt lat="45.97615" lon="4.40952">
        <ele>772.8</ele>
        <time>2025-10-04T14:02:23Z</time>
      </trkpt>
      <trkpt lat="45.97615" lon="4.40954">
        <ele>773.2</ele>
        <time>2025-10-04T14:02:24Z</time>
      </trkpt>
      <trkpt lat="45.97615" lon="4.40956">
        <ele>773.2</ele>
        <time>2025-10-04T14:02:25Z</time>
      </trkpt>
      <trkpt lat="45.97615" lon="4.40958">
        <ele>773.2</ele>
        <time>2025-10-04T14:02:26Z</time>
      </trkpt>
      <trkpt lat="45.97614" lon="4.40961">
        <ele>773.4</ele>
        <time>2025-10-04T14:02:27Z</time>
      </trkpt>
      <trkpt lat="45.97614" lon="4.40962">
        <ele>773.6</ele>
        <time>2025-10-04T14:02:28Z</time>
      </trkpt>
      <trkpt lat="45.97615" lon="4.40964">
        <ele>773.6</ele>
        <time>2025-10-04T14:02:29Z</time>
      </trkpt>
      <trkpt lat="45.97615" lon="4.40966">
        <ele>774</ele>
        <time>2025-10-04T14:02:30Z</time>
      </trkpt>
      <trkpt lat="45.97615" lon="4.40968">
        <ele>774.2</ele>
        <time>2025-10-04T14:02:31Z</time>
      </trkpt>
      <trkpt lat="45.97615" lon="4.4097">
        <ele>774.2</ele>
        <time>2025-10-04T14:02:32Z</time>
      </trkpt>
      <trkpt lat="45.97615" lon="4.40972">
        <ele>774.6</ele>
        <time>2025-10-04T14:02:33Z</time>
      </trkpt>
      <trkpt lat="45.97616" lon="4.40974">
        <ele>774.6</ele>
        <time>2025-10-04T14:02:34Z</time>
      </trkpt>
      <trkpt lat="45.97616" lon="4.40975">
        <ele>775.2</ele>
        <time>2025-10-04T14:02:35Z</time>
      </trkpt>
      <trkpt lat="45.97616" lon="4.40977">
        <ele>775.2</ele>
        <time>2025-10-04T14:02:36Z</time>
      </trkpt>
      <trkpt lat="45.97617" lon="4.40979">
        <ele>775.2</ele>
        <time>2025-10-04T14:02:37Z</time>
      </trkpt>
      <trkpt lat="45.97617" lon="4.4098">
        <ele>775.6</ele>
        <time>2025-10-04T14:02:38Z</time>
      </trkpt>
      <trkpt lat="45.97617" lon="4.40982">
        <ele>775.6</ele>
        <time>2025-10-04T14:02:39Z</time>
      </trkpt>
      <trkpt lat="45.97617" lon="4.40984">
        <ele>775.8</ele>
        <time>2025-10-04T14:02:40Z</time>
      </trkpt>
      <trkpt lat="45.97618" lon="4.40986">
        <ele>775.8</ele>
        <time>2025-10-04T14:02:41Z</time>
      </trkpt>
      <trkpt lat="45.97618" lon="4.40989">
        <ele>775.8</ele>
        <time>2025-10-04T14:02:42Z</time>
      </trkpt>
      <trkpt lat="45.97619" lon="4.4099">
        <ele>775.8</ele>
        <time>2025-10-04T14:02:43Z</time>
      </trkpt>
      <trkpt lat="45.97619" lon="4.40992">
        <ele>776.2</ele>
        <time>2025-10-04T14:02:44Z</time>
      </trkpt>
      <trkpt lat="45.9762" lon="4.40994">
        <ele>776.4</ele>
        <time>2025-10-04T14:02:45Z</time>
      </trkpt>
      <trkpt lat="45.9762" lon="4.40995">
        <ele>776.4</ele>
        <time>2025-10-04T14:02:46Z</time>
      </trkpt>
      <trkpt lat="45.97621" lon="4.40995">
        <ele>776.8</ele>
        <time>2025-10-04T14:02:47Z</time>
      </trkpt>
      <trkpt lat="45.97621" lon="4.40996">
        <ele>776.8</ele>
        <time>2025-10-04T14:02:48Z</time>
      </trkpt>
      <trkpt lat="45.97621" lon="4.40997">
        <ele>776.8</ele>
        <time>2025-10-04T14:02:49Z</time>
      </trkpt>
      <trkpt lat="45.97621" lon="4.40997">
        <ele>777</ele>
        <time>2025-10-04T14:02:50Z</time>
      </trkpt>
      <trkpt lat="45.97621" lon="4.40997">
        <ele>777</ele>
        <time>2025-10-04T14:02:51Z</time>
      </trkpt>
      <trkpt lat="45.97623" lon="4.41002">
        <ele>777.2</ele>
        <time>2025-10-04T14:03:43Z</time>
      </trkpt>
      <trkpt lat="45.97624" lon="4.41003">
        <ele>777.2</ele>
        <time>2025-10-04T14:03:44Z</time>
      </trkpt>
      <trkpt lat="45.97625" lon="4.41004">
        <ele>777.8</ele>
        <time>2025-10-04T14:03:45Z</time>
      </trkpt>
      <trkpt lat="45.97626" lon="4.41006">
        <ele>777.8</ele>
        <time>2025-10-04T14:03:46Z</time>
      </trkpt>
      <trkpt lat="45.97627" lon="4.41008">
        <ele>778</ele>
        <time>2025-10-04T14:03:47Z</time>
      </trkpt>
      <trkpt lat="45.97627" lon="4.41011">
        <ele>778</ele>
        <time>2025-10-04T14:03:48Z</time>
      </trkpt>
      <trkpt lat="45.97628" lon="4.41014">
        <ele>778.2</ele>
        <time>2025-10-04T14:03:49Z</time>
      </trkpt>
      <trkpt lat="45.97629" lon="4.41016">
        <ele>778.2</ele>
        <time>2025-10-04T14:03:50Z</time>
      </trkpt>
      <trkpt lat="45.97629" lon="4.41017">
        <ele>778.2</ele>
        <time>2025-10-04T14:03:51Z</time>
      </trkpt>
      <trkpt lat="45.97629" lon="4.4102">
        <ele>778.6</ele>
        <time>2025-10-04T14:03:52Z</time>
      </trkpt>
      <trkpt lat="45.97629" lon="4.41022">
        <ele>778.8</ele>
        <time>2025-10-04T14:03:53Z</time>
      </trkpt>
      <trkpt lat="45.97629" lon="4.41023">
        <ele>778.8</ele>
        <time>2025-10-04T14:03:54Z</time>
      </trkpt>
      <trkpt lat="45.97629" lon="4.41025">
        <ele>779.4</ele>
        <time>2025-10-04T14:03:55Z</time>
      </trkpt>
      <trkpt lat="45.97629" lon="4.41028">
        <ele>779.6</ele>
        <time>2025-10-04T14:03:56Z</time>
      </trkpt>
      <trkpt lat="45.9763" lon="4.4103">
        <ele>779.6</ele>
        <time>2025-10-04T14:03:57Z</time>
      </trkpt>
      <trkpt lat="45.97631" lon="4.4103">
        <ele>779.8</ele>
        <time>2025-10-04T14:03:58Z</time>
      </trkpt>
      <trkpt lat="45.97632" lon="4.41031">
        <ele>780.2</ele>
        <time>2025-10-04T14:03:59Z</time>
      </trkpt>
      <trkpt lat="45.97633" lon="4.41033">
        <ele>780.4</ele>
        <time>2025-10-04T14:04:00Z</time>
      </trkpt>
      <trkpt lat="45.97634" lon="4.41035">
        <ele>780.4</ele>
        <time>2025-10-04T14:04:01Z</time>
      </trkpt>
      <trkpt lat="45.97635" lon="4.41037">
        <ele>780.8</ele>
        <time>2025-10-04T14:04:02Z</time>
      </trkpt>
      <trkpt lat="45.97636" lon="4.41039">
        <ele>781</ele>
        <time>2025-10-04T14:04:03Z</time>
      </trkpt>
      <trkpt lat="45.97637" lon="4.41041">
        <ele>781.4</ele>
        <time>2025-10-04T14:04:04Z</time>
      </trkpt>
      <trkpt lat="45.97638" lon="4.41044">
        <ele>781.6</ele>
        <time>2025-10-04T14:04:05Z</time>
      </trkpt>
      <trkpt lat="45.97638" lon="4.41046">
        <ele>781.6</ele>
        <time>2025-10-04T14:04:06Z</time>
      </trkpt>
      <trkpt lat="45.97639" lon="4.41048">
        <ele>781.6</ele>
        <time>2025-10-04T14:04:07Z</time>
      </trkpt>
      <trkpt lat="45.9764" lon="4.4105">
        <ele>782.2</ele>
        <time>2025-10-04T14:04:08Z</time>
      </trkpt>
      <trkpt lat="45.9764" lon="4.41052">
        <ele>782.4</ele>
        <time>2025-10-04T14:04:09Z</time>
      </trkpt>
      <trkpt lat="45.97642" lon="4.41055">
        <ele>782.4</ele>
        <time>2025-10-04T14:04:10Z</time>
      </trkpt>
      <trkpt lat="45.97642" lon="4.41057">
        <ele>782.8</ele>
        <time>2025-10-04T14:04:11Z</time>
      </trkpt>
      <trkpt lat="45.97643" lon="4.41058">
        <ele>783</ele>
        <time>2025-10-04T14:04:12Z</time>
      </trkpt>
      <trkpt lat="45.97644" lon="4.4106">
        <ele>783</ele>
        <time>2025-10-04T14:04:13Z</time>
      </trkpt>
      <trkpt lat="45.97644" lon="4.41061">
        <ele>783.6</ele>
        <time>2025-10-04T14:04:14Z</time>
      </trkpt>
      <trkpt lat="45.97646" lon="4.41062">
        <ele>783.8</ele>
        <time>2025-10-04T14:04:15Z</time>
      </trkpt>
      <trkpt lat="45.97647" lon="4.41064">
        <ele>783.8</ele>
        <time>2025-10-04T14:04:16Z</time>
      </trkpt>
      <trkpt lat="45.97648" lon="4.41065">
        <ele>784.4</ele>
        <time>2025-10-04T14:04:17Z</time>
      </trkpt>
      <trkpt lat="45.97649" lon="4.41067">
        <ele>784.8</ele>
        <time>2025-10-04T14:04:18Z</time>
      </trkpt>
      <trkpt lat="45.97649" lon="4.4107">
        <ele>784.8</ele>
        <time>2025-10-04T14:04:19Z</time>
      </trkpt>
      <trkpt lat="45.97649" lon="4.41072">
        <ele>785.2</ele>
        <time>2025-10-04T14:04:20Z</time>
      </trkpt>
      <trkpt lat="45.9765" lon="4.41074">
        <ele>785.2</ele>
        <time>2025-10-04T14:04:21Z</time>
      </trkpt>
      <trkpt lat="45.9765" lon="4.41076">
        <ele>785.8</ele>
        <time>2025-10-04T14:04:22Z</time>
      </trkpt>
      <trkpt lat="45.9765" lon="4.41078">
        <ele>786</ele>
        <time>2025-10-04T14:04:23Z</time>
      </trkpt>
      <trkpt lat="45.9765" lon="4.41081">
        <ele>786</ele>
        <time>2025-10-04T14:04:24Z</time>
      </trkpt>
      <trkpt lat="45.9765" lon="4.41084">
        <ele>786.2</ele>
        <time>2025-10-04T14:04:25Z</time>
      </trkpt>
      <trkpt lat="45.9765" lon="4.41086">
        <ele>786.4</ele>
        <time>2025-10-04T14:04:26Z</time>
      </trkpt>
      <trkpt lat="45.9765" lon="4.41088">
        <ele>786.4</ele>
        <time>2025-10-04T14:04:27Z</time>
      </trkpt>
      <trkpt lat="45.97651" lon="4.4109">
        <ele>786.6</ele>
        <time>2025-10-04T14:04:28Z</time>
      </trkpt>
      <trkpt lat="45.97651" lon="4.41092">
        <ele>786.6</ele>
        <time>2025-10-04T14:04:29Z</time>
      </trkpt>
      <trkpt lat="45.97653" lon="4.41094">
        <ele>786.6</ele>
        <time>2025-10-04T14:04:30Z</time>
      </trkpt>
      <trkpt lat="45.97654" lon="4.41096">
        <ele>787</ele>
        <time>2025-10-04T14:04:31Z</time>
      </trkpt>
      <trkpt lat="45.97654" lon="4.41097">
        <ele>787.2</ele>
        <time>2025-10-04T14:04:32Z</time>
      </trkpt>
      <trkpt lat="45.97655" lon="4.41099">
        <ele>787.6</ele>
        <time>2025-10-04T14:04:33Z</time>
      </trkpt>
      <trkpt lat="45.97655" lon="4.41101">
        <ele>787.8</ele>
        <time>2025-10-04T14:04:34Z</time>
      </trkpt>
      <trkpt lat="45.97656" lon="4.41103">
        <ele>787.8</ele>
        <time>2025-10-04T14:04:35Z</time>
      </trkpt>
      <trkpt lat="45.97656" lon="4.41104">
        <ele>788</ele>
        <time>2025-10-04T14:04:36Z</time>
      </trkpt>
      <trkpt lat="45.97657" lon="4.41107">
        <ele>788.2</ele>
        <time>2025-10-04T14:04:37Z</time>
      </trkpt>
      <trkpt lat="45.97658" lon="4.41109">
        <ele>788.6</ele>
        <time>2025-10-04T14:04:38Z</time>
      </trkpt>
      <trkpt lat="45.97658" lon="4.41111">
        <ele>788.6</ele>
        <time>2025-10-04T14:04:39Z</time>
      </trkpt>
      <trkpt lat="45.97658" lon="4.41112">
        <ele>788.8</ele>
        <time>2025-10-04T14:04:40Z</time>
      </trkpt>
      <trkpt lat="45.97659" lon="4.41115">
        <ele>788.8</ele>
        <time>2025-10-04T14:04:41Z</time>
      </trkpt>
      <trkpt lat="45.97659" lon="4.41117">
        <ele>789</ele>
        <time>2025-10-04T14:04:42Z</time>
      </trkpt>
      <trkpt lat="45.9766" lon="4.41117">
        <ele>789</ele>
        <time>2025-10-04T14:04:43Z</time>
      </trkpt>
      <trkpt lat="45.9766" lon="4.41118">
        <ele>789.4</ele>
        <time>2025-10-04T14:04:44Z</time>
      </trkpt>
      <trkpt lat="45.97662" lon="4.4112">
        <ele>789.6</ele>
        <time>2025-10-04T14:04:45Z</time>
      </trkpt>
      <trkpt lat="45.97663" lon="4.41122">
        <ele>789.8</ele>
        <time>2025-10-04T14:04:46Z</time>
      </trkpt>
      <trkpt lat="45.97663" lon="4.41123">
        <ele>789.8</ele>
        <time>2025-10-04T14:04:47Z</time>
      </trkpt>
      <trkpt lat="45.97664" lon="4.41125">
        <ele>790</ele>
        <time>2025-10-04T14:04:48Z</time>
      </trkpt>
      <trkpt lat="45.97664" lon="4.41127">
        <ele>790</ele>
        <time>2025-10-04T14:04:49Z</time>
      </trkpt>
      <trkpt lat="45.97664" lon="4.4113">
        <ele>790</ele>
        <time>2025-10-04T14:04:50Z</time>
      </trkpt>
      <trkpt lat="45.97664" lon="4.41132">
        <ele>790.6</ele>
        <time>2025-10-04T14:04:51Z</time>
      </trkpt>
      <trkpt lat="45.97665" lon="4.41134">
        <ele>790.2</ele>
        <time>2025-10-04T14:04:52Z</time>
      </trkpt>
      <trkpt lat="45.97665" lon="4.41136">
        <ele>790.4</ele>
        <time>2025-10-04T14:04:53Z</time>
      </trkpt>
      <trkpt lat="45.97666" lon="4.41137">
        <ele>790.4</ele>
        <time>2025-10-04T14:04:54Z</time>
      </trkpt>
      <trkpt lat="45.97666" lon="4.41138">
        <ele>791.2</ele>
        <time>2025-10-04T14:04:55Z</time>
      </trkpt>
      <trkpt lat="45.97667" lon="4.4114">
        <ele>791.2</ele>
        <time>2025-10-04T14:04:56Z</time>
      </trkpt>
      <trkpt lat="45.97668" lon="4.41141">
        <ele>791.6</ele>
        <time>2025-10-04T14:04:57Z</time>
      </trkpt>
      <trkpt lat="45.97668" lon="4.41143">
        <ele>791.6</ele>
        <time>2025-10-04T14:04:58Z</time>
      </trkpt>
      <trkpt lat="45.97668" lon="4.41144">
        <ele>792</ele>
        <time>2025-10-04T14:04:59Z</time>
      </trkpt>
      <trkpt lat="45.97668" lon="4.41146">
        <ele>792</ele>
        <time>2025-10-04T14:05:00Z</time>
      </trkpt>
      <trkpt lat="45.97668" lon="4.41148">
        <ele>792.2</ele>
        <time>2025-10-04T14:05:01Z</time>
      </trkpt>
      <trkpt lat="45.97667" lon="4.41149">
        <ele>792.2</ele>
        <time>2025-10-04T14:05:02Z</time>
      </trkpt>
      <trkpt lat="45.97667" lon="4.41149">
        <ele>792.2</ele>
        <time>2025-10-04T14:05:03Z</time>
      </trkpt>
      <trkpt lat="45.97668" lon="4.41149">
        <ele>792.4</ele>
        <time>2025-10-04T14:05:04Z</time>
      </trkpt>
      <trkpt lat="45.97673" lon="4.41147">
        <ele>793.4</ele>
        <time>2025-10-04T14:12:48Z</time>
      </trkpt>
      <trkpt lat="45.97673" lon="4.41147">
        <ele>793.4</ele>
        <time>2025-10-04T14:12:49Z</time>
      </trkpt>
      <trkpt lat="45.97673" lon="4.41148">
        <ele>793.2</ele>
        <time>2025-10-04T14:12:50Z</time>
      </trkpt>
      <trkpt lat="45.97674" lon="4.41149">
        <ele>793.2</ele>
        <time>2025-10-04T14:12:51Z</time>
      </trkpt>
      <trkpt lat="45.97674" lon="4.41151">
        <ele>793.2</ele>
        <time>2025-10-04T14:12:52Z</time>
      </trkpt>
      <trkpt lat="45.97674" lon="4.41152">
        <ele>793.2</ele>
        <time>2025-10-04T14:12:53Z</time>
      </trkpt>
      <trkpt lat="45.97673" lon="4.41152">
        <ele>793.2</ele>
        <time>2025-10-04T14:12:54Z</time>
      </trkpt>
      <trkpt lat="45.97673" lon="4.41152">
        <ele>793.2</ele>
        <time>2025-10-04T14:12:55Z</time>
      </trkpt>
      <trkpt lat="45.97675" lon="4.41157">
        <ele>793.2</ele>
        <time>2025-10-04T14:13:08Z</time>
      </trkpt>
      <trkpt lat="45.97676" lon="4.41159">
        <ele>793.2</ele>
        <time>2025-10-04T14:13:09Z</time>
      </trkpt>
      <trkpt lat="45.97677" lon="4.41161">
        <ele>793.2</ele>
        <time>2025-10-04T14:13:10Z</time>
      </trkpt>
      <trkpt lat="45.97678" lon="4.41164">
        <ele>793.2</ele>
        <time>2025-10-04T14:13:11Z</time>
      </trkpt>
      <trkpt lat="45.97679" lon="4.41168">
        <ele>793.4</ele>
        <time>2025-10-04T14:13:12Z</time>
      </trkpt>
      <trkpt lat="45.9768" lon="4.4117">
        <ele>793.4</ele>
        <time>2025-10-04T14:13:13Z</time>
      </trkpt>
      <trkpt lat="45.97682" lon="4.41172">
        <ele>793.4</ele>
        <time>2025-10-04T14:13:14Z</time>
      </trkpt>
      <trkpt lat="45.97683" lon="4.41175">
        <ele>793.4</ele>
        <time>2025-10-04T14:13:15Z</time>
      </trkpt>
      <trkpt lat="45.97684" lon="4.41178">
        <ele>793.4</ele>
        <time>2025-10-04T14:13:16Z</time>
      </trkpt>
      <trkpt lat="45.97686" lon="4.41182">
        <ele>793.4</ele>
        <time>2025-10-04T14:13:17Z</time>
      </trkpt>
      <trkpt lat="45.97688" lon="4.41186">
        <ele>793.8</ele>
        <time>2025-10-04T14:13:18Z</time>
      </trkpt>
      <trkpt lat="45.97689" lon="4.41189">
        <ele>793.8</ele>
        <time>2025-10-04T14:13:19Z</time>
      </trkpt>
      <trkpt lat="45.9769" lon="4.41193">
        <ele>794</ele>
        <time>2025-10-04T14:13:20Z</time>
      </trkpt>
      <trkpt lat="45.97691" lon="4.41196">
        <ele>794</ele>
        <time>2025-10-04T14:13:21Z</time>
      </trkpt>
      <trkpt lat="45.97692" lon="4.41199">
        <ele>794.4</ele>
        <time>2025-10-04T14:13:22Z</time>
      </trkpt>
      <trkpt lat="45.97694" lon="4.41203">
        <ele>794.4</ele>
        <time>2025-10-04T14:13:23Z</time>
      </trkpt>
      <trkpt lat="45.97695" lon="4.41206">
        <ele>794.6</ele>
        <time>2025-10-04T14:13:24Z</time>
      </trkpt>
      <trkpt lat="45.97696" lon="4.41209">
        <ele>794.6</ele>
        <time>2025-10-04T14:13:25Z</time>
      </trkpt>
      <trkpt lat="45.97698" lon="4.41211">
        <ele>794.8</ele>
        <time>2025-10-04T14:13:26Z</time>
      </trkpt>
      <trkpt lat="45.97699" lon="4.41214">
        <ele>794.8</ele>
        <time>2025-10-04T14:13:27Z</time>
      </trkpt>
      <trkpt lat="45.97701" lon="4.41217">
        <ele>794.8</ele>
        <time>2025-10-04T14:13:28Z</time>
      </trkpt>
      <trkpt lat="45.97702" lon="4.4122">
        <ele>794.8</ele>
        <time>2025-10-04T14:13:29Z</time>
      </trkpt>
      <trkpt lat="45.97703" lon="4.41221">
        <ele>794.8</ele>
        <time>2025-10-04T14:13:30Z</time>
      </trkpt>
      <trkpt lat="45.97705" lon="4.41223">
        <ele>794.8</ele>
        <time>2025-10-04T14:13:31Z</time>
      </trkpt>
      <trkpt lat="45.97706" lon="4.41226">
        <ele>795.2</ele>
        <time>2025-10-04T14:13:32Z</time>
      </trkpt>
      <trkpt lat="45.97707" lon="4.41229">
        <ele>795.2</ele>
        <time>2025-10-04T14:13:33Z</time>
      </trkpt>
      <trkpt lat="45.97708" lon="4.41231">
        <ele>795.4</ele>
        <time>2025-10-04T14:13:34Z</time>
      </trkpt>
      <trkpt lat="45.9771" lon="4.41234">
        <ele>795.4</ele>
        <time>2025-10-04T14:13:35Z</time>
      </trkpt>
      <trkpt lat="45.97712" lon="4.41237">
        <ele>795.8</ele>
        <time>2025-10-04T14:13:36Z</time>
      </trkpt>
      <trkpt lat="45.97713" lon="4.4124">
        <ele>795.8</ele>
        <time>2025-10-04T14:13:37Z</time>
      </trkpt>
      <trkpt lat="45.97715" lon="4.41243">
        <ele>795.8</ele>
        <time>2025-10-04T14:13:38Z</time>
      </trkpt>
      <trkpt lat="45.97717" lon="4.41246">
        <ele>795.8</ele>
        <time>2025-10-04T14:13:39Z</time>
      </trkpt>
      <trkpt lat="45.97718" lon="4.41248">
        <ele>795.8</ele>
        <time>2025-10-04T14:13:40Z</time>
      </trkpt>
      <trkpt lat="45.97721" lon="4.41251">
        <ele>796</ele>
        <time>2025-10-04T14:13:41Z</time>
      </trkpt>
      <trkpt lat="45.97724" lon="4.41253">
        <ele>795.4</ele>
        <time>2025-10-04T14:13:42Z</time>
      </trkpt>
      <trkpt lat="45.97727" lon="4.41255">
        <ele>795.2</ele>
        <time>2025-10-04T14:13:43Z</time>
      </trkpt>
      <trkpt lat="45.97731" lon="4.41256">
        <ele>795.6</ele>
        <time>2025-10-04T14:13:44Z</time>
      </trkpt>
      <trkpt lat="45.97734" lon="4.41257">
        <ele>795.6</ele>
        <time>2025-10-04T14:13:45Z</time>
      </trkpt>
      <trkpt lat="45.97736" lon="4.41259">
        <ele>795.2</ele>
        <time>2025-10-04T14:13:46Z</time>
      </trkpt>
      <trkpt lat="45.97737" lon="4.4126">
        <ele>796</ele>
        <time>2025-10-04T14:13:47Z</time>
      </trkpt>
      <trkpt lat="45.97737" lon="4.41261">
        <ele>796</ele>
        <time>2025-10-04T14:13:48Z</time>
      </trkpt>
      <trkpt lat="45.97738" lon="4.41264">
        <ele>796</ele>
        <time>2025-10-04T14:13:49Z</time>
      </trkpt>
      <trkpt lat="45.9774" lon="4.41268">
        <ele>796.2</ele>
        <time>2025-10-04T14:13:50Z</time>
      </trkpt>
      <trkpt lat="45.97741" lon="4.4127">
        <ele>796.2</ele>
        <time>2025-10-04T14:13:51Z</time>
      </trkpt>
      <trkpt lat="45.97742" lon="4.41273">
        <ele>796.2</ele>
        <time>2025-10-04T14:13:52Z</time>
      </trkpt>
      <trkpt lat="45.97744" lon="4.41276">
        <ele>796.4</ele>
        <time>2025-10-04T14:13:53Z</time>
      </trkpt>
      <trkpt lat="45.97746" lon="4.41279">
        <ele>796.4</ele>
        <time>2025-10-04T14:13:54Z</time>
      </trkpt>
      <trkpt lat="45.97749" lon="4.41281">
        <ele>796.4</ele>
        <time>2025-10-04T14:13:55Z</time>
      </trkpt>
      <trkpt lat="45.97751" lon="4.41283">
        <ele>796.4</ele>
        <time>2025-10-04T14:13:56Z</time>
      </trkpt>
      <trkpt lat="45.97752" lon="4.41285">
        <ele>796.2</ele>
        <time>2025-10-04T14:13:57Z</time>
      </trkpt>
      <trkpt lat="45.97755" lon="4.41288">
        <ele>796.2</ele>
        <time>2025-10-04T14:13:58Z</time>
      </trkpt>
      <trkpt lat="45.97757" lon="4.4129">
        <ele>796.2</ele>
        <time>2025-10-04T14:13:59Z</time>
      </trkpt>
      <trkpt lat="45.9776" lon="4.41293">
        <ele>796.2</ele>
        <time>2025-10-04T14:14:00Z</time>
      </trkpt>
      <trkpt lat="45.97762" lon="4.41296">
        <ele>796.2</ele>
        <time>2025-10-04T14:14:01Z</time>
      </trkpt>
      <trkpt lat="45.97765" lon="4.41299">
        <ele>796.2</ele>
        <time>2025-10-04T14:14:02Z</time>
      </trkpt>
      <trkpt lat="45.97768" lon="4.41302">
        <ele>796.2</ele>
        <time>2025-10-04T14:14:03Z</time>
      </trkpt>
      <trkpt lat="45.9777" lon="4.41305">
        <ele>796.2</ele>
        <time>2025-10-04T14:14:04Z</time>
      </trkpt>
      <trkpt lat="45.97772" lon="4.41307">
        <ele>796.2</ele>
        <time>2025-10-04T14:14:05Z</time>
      </trkpt>
      <trkpt lat="45.97775" lon="4.4131">
        <ele>796.2</ele>
        <time>2025-10-04T14:14:06Z</time>
      </trkpt>
      <trkpt lat="45.97777" lon="4.41313">
        <ele>796.2</ele>
        <time>2025-10-04T14:14:07Z</time>
      </trkpt>
      <trkpt lat="45.97779" lon="4.41315">
        <ele>796.4</ele>
        <time>2025-10-04T14:14:08Z</time>
      </trkpt>
      <trkpt lat="45.97782" lon="4.41319">
        <ele>796</ele>
        <time>2025-10-04T14:14:09Z</time>
      </trkpt>
      <trkpt lat="45.97785" lon="4.41321">
        <ele>796</ele>
        <time>2025-10-04T14:14:10Z</time>
      </trkpt>
      <trkpt lat="45.97788" lon="4.41323">
        <ele>796</ele>
        <time>2025-10-04T14:14:11Z</time>
      </trkpt>
      <trkpt lat="45.97791" lon="4.41325">
        <ele>795</ele>
        <time>2025-10-04T14:14:12Z</time>
      </trkpt>
      <trkpt lat="45.97794" lon="4.41328">
        <ele>795</ele>
        <time>2025-10-04T14:14:13Z</time>
      </trkpt>
      <trkpt lat="45.97796" lon="4.41331">
        <ele>795.2</ele>
        <time>2025-10-04T14:14:14Z</time>
      </trkpt>
      <trkpt lat="45.97799" lon="4.41334">
        <ele>795.2</ele>
        <time>2025-10-04T14:14:15Z</time>
      </trkpt>
      <trkpt lat="45.97801" lon="4.41337">
        <ele>795.2</ele>
        <time>2025-10-04T14:14:16Z</time>
      </trkpt>
      <trkpt lat="45.97804" lon="4.4134">
        <ele>795.2</ele>
        <time>2025-10-04T14:14:17Z</time>
      </trkpt>
      <trkpt lat="45.9781" lon="4.41344">
        <ele>795.2</ele>
        <time>2025-10-04T14:14:18Z</time>
      </trkpt>
      <trkpt lat="45.97813" lon="4.41345">
        <ele>795.2</ele>
        <time>2025-10-04T14:14:19Z</time>
      </trkpt>
      <trkpt lat="45.97813" lon="4.41347">
        <ele>795.2</ele>
        <time>2025-10-04T14:14:20Z</time>
      </trkpt>
      <trkpt lat="45.97814" lon="4.41351">
        <ele>795.2</ele>
        <time>2025-10-04T14:14:21Z</time>
      </trkpt>
      <trkpt lat="45.97817" lon="4.41352">
        <ele>795.2</ele>
        <time>2025-10-04T14:14:22Z</time>
      </trkpt>
      <trkpt lat="45.97819" lon="4.41354">
        <ele>795.2</ele>
        <time>2025-10-04T14:14:23Z</time>
      </trkpt>
      <trkpt lat="45.9782" lon="4.41353">
        <ele>795.2</ele>
        <time>2025-10-04T14:14:24Z</time>
      </trkpt>
      <trkpt lat="45.97824" lon="4.41353">
        <ele>795.2</ele>
        <time>2025-10-04T14:14:25Z</time>
      </trkpt>
      <trkpt lat="45.97824" lon="4.41353">
        <ele>795.2</ele>
        <time>2025-10-04T14:14:26Z</time>
      </trkpt>
      <trkpt lat="45.97825" lon="4.41354">
        <ele>795.2</ele>
        <time>2025-10-04T14:14:27Z</time>
      </trkpt>
      <trkpt lat="45.97825" lon="4.41354">
        <ele>795.2</ele>
        <time>2025-10-04T14:14:28Z</time>
      </trkpt>
      <trkpt lat="45.9783" lon="4.41355">
        <ele>794.8</ele>
        <time>2025-10-04T14:17:00Z</time>
      </trkpt>
      <trkpt lat="45.97832" lon="4.41356">
        <ele>794.8</ele>
        <time>2025-10-04T14:17:01Z</time>
      </trkpt>
      <trkpt lat="45.97833" lon="4.41356">
        <ele>794.8</ele>
        <time>2025-10-04T14:17:02Z</time>
      </trkpt>
      <trkpt lat="45.97834" lon="4.41357">
        <ele>794.8</ele>
        <time>2025-10-04T14:17:03Z</time>
      </trkpt>
      <trkpt lat="45.97835" lon="4.41356">
        <ele>794.8</ele>
        <time>2025-10-04T14:17:04Z</time>
      </trkpt>
      <trkpt lat="45.97838" lon="4.41357">
        <ele>794.8</ele>
        <time>2025-10-04T14:17:05Z</time>
      </trkpt>
      <trkpt lat="45.97841" lon="4.41358">
        <ele>794.8</ele>
        <time>2025-10-04T14:17:06Z</time>
      </trkpt>
      <trkpt lat="45.97843" lon="4.41358">
        <ele>794.8</ele>
        <time>2025-10-04T14:17:07Z</time>
      </trkpt>
      <trkpt lat="45.97844" lon="4.41358">
        <ele>794.8</ele>
        <time>2025-10-04T14:17:08Z</time>
      </trkpt>
      <trkpt lat="45.97845" lon="4.41357">
        <ele>795</ele>
        <time>2025-10-04T14:17:09Z</time>
      </trkpt>
      <trkpt lat="45.97846" lon="4.41358">
        <ele>795</ele>
        <time>2025-10-04T14:17:10Z</time>
      </trkpt>
      <trkpt lat="45.97848" lon="4.41359">
        <ele>794.8</ele>
        <time>2025-10-04T14:17:11Z</time>
      </trkpt>
      <trkpt lat="45.9785" lon="4.41359">
        <ele>795</ele>
        <time>2025-10-04T14:17:12Z</time>
      </trkpt>
      <trkpt lat="45.97853" lon="4.41359">
        <ele>795.4</ele>
        <time>2025-10-04T14:17:13Z</time>
      </trkpt>
      <trkpt lat="45.97856" lon="4.41359">
        <ele>795.4</ele>
        <time>2025-10-04T14:17:14Z</time>
      </trkpt>
      <trkpt lat="45.97858" lon="4.41359">
        <ele>795.4</ele>
        <time>2025-10-04T14:17:15Z</time>
      </trkpt>
      <trkpt lat="45.97861" lon="4.41359">
        <ele>795.4</ele>
        <time>2025-10-04T14:17:16Z</time>
      </trkpt>
      <trkpt lat="45.97863" lon="4.41359">
        <ele>795.8</ele>
        <time>2025-10-04T14:17:17Z</time>
      </trkpt>
      <trkpt lat="45.97865" lon="4.41359">
        <ele>796</ele>
        <time>2025-10-04T14:17:18Z</time>
      </trkpt>
      <trkpt lat="45.97867" lon="4.41359">
        <ele>796.2</ele>
        <time>2025-10-04T14:17:19Z</time>
      </trkpt>
      <trkpt lat="45.9787" lon="4.4136">
        <ele>796.2</ele>
        <time>2025-10-04T14:17:20Z</time>
      </trkpt>
      <trkpt lat="45.97873" lon="4.41361">
        <ele>796.6</ele>
        <time>2025-10-04T14:17:21Z</time>
      </trkpt>
      <trkpt lat="45.97879" lon="4.41363">
        <ele>796.8</ele>
        <time>2025-10-04T14:17:22Z</time>
      </trkpt>
      <trkpt lat="45.97883" lon="4.41366">
        <ele>796.8</ele>
        <time>2025-10-04T14:17:23Z</time>
      </trkpt>
      <trkpt lat="45.97886" lon="4.41367">
        <ele>797.2</ele>
        <time>2025-10-04T14:17:24Z</time>
      </trkpt>
      <trkpt lat="45.97886" lon="4.41365">
        <ele>797.2</ele>
        <time>2025-10-04T14:17:25Z</time>
      </trkpt>
      <trkpt lat="45.97887" lon="4.41364">
        <ele>797.4</ele>
        <time>2025-10-04T14:17:26Z</time>
      </trkpt>
      <trkpt lat="45.97888" lon="4.41362">
        <ele>798</ele>
        <time>2025-10-04T14:17:27Z</time>
      </trkpt>
      <trkpt lat="45.97891" lon="4.41362">
        <ele>798</ele>
        <time>2025-10-04T14:17:28Z</time>
      </trkpt>
      <trkpt lat="45.97892" lon="4.41362">
        <ele>798.4</ele>
        <time>2025-10-04T14:17:29Z</time>
      </trkpt>
      <trkpt lat="45.97893" lon="4.41361">
        <ele>798.4</ele>
        <time>2025-10-04T14:17:30Z</time>
      </trkpt>
      <trkpt lat="45.97895" lon="4.41361">
        <ele>798.4</ele>
        <time>2025-10-04T14:17:31Z</time>
      </trkpt>
      <trkpt lat="45.97897" lon="4.41361">
        <ele>799</ele>
        <time>2025-10-04T14:17:32Z</time>
      </trkpt>
      <trkpt lat="45.97898" lon="4.41361">
        <ele>799.2</ele>
        <time>2025-10-04T14:17:33Z</time>
      </trkpt>
      <trkpt lat="45.979" lon="4.41361">
        <ele>799.2</ele>
        <time>2025-10-04T14:17:34Z</time>
      </trkpt>
      <trkpt lat="45.97902" lon="4.41361">
        <ele>799.6</ele>
        <time>2025-10-04T14:17:35Z</time>
      </trkpt>
      <trkpt lat="45.97903" lon="4.41362">
        <ele>799.6</ele>
        <time>2025-10-04T14:17:36Z</time>
      </trkpt>
      <trkpt lat="45.97903" lon="4.41362">
        <ele>800</ele>
        <time>2025-10-04T14:17:37Z</time>
      </trkpt>
      <trkpt lat="45.97904" lon="4.41362">
        <ele>800.2</ele>
        <time>2025-10-04T14:17:38Z</time>
      </trkpt>
      <trkpt lat="45.97906" lon="4.41361">
        <ele>800.6</ele>
        <time>2025-10-04T14:17:39Z</time>
      </trkpt>
      <trkpt lat="45.97908" lon="4.41361">
        <ele>800.6</ele>
        <time>2025-10-04T14:17:40Z</time>
      </trkpt>
      <trkpt lat="45.9791" lon="4.4136">
        <ele>801</ele>
        <time>2025-10-04T14:17:41Z</time>
      </trkpt>
      <trkpt lat="45.97911" lon="4.41359">
        <ele>801.2</ele>
        <time>2025-10-04T14:17:42Z</time>
      </trkpt>
      <trkpt lat="45.97913" lon="4.41359">
        <ele>801.2</ele>
        <time>2025-10-04T14:17:43Z</time>
      </trkpt>
      <trkpt lat="45.97915" lon="4.41358">
        <ele>801.2</ele>
        <time>2025-10-04T14:17:44Z</time>
      </trkpt>
      <trkpt lat="45.97916" lon="4.41358">
        <ele>801.4</ele>
        <time>2025-10-04T14:17:45Z</time>
      </trkpt>
      <trkpt lat="45.97918" lon="4.41357">
        <ele>801.8</ele>
        <time>2025-10-04T14:17:46Z</time>
      </trkpt>
      <trkpt lat="45.97919" lon="4.41357">
        <ele>801.8</ele>
        <time>2025-10-04T14:17:47Z</time>
      </trkpt>
      <trkpt lat="45.97921" lon="4.41357">
        <ele>802.2</ele>
        <time>2025-10-04T14:17:48Z</time>
      </trkpt>
      <trkpt lat="45.97922" lon="4.41356">
        <ele>802.4</ele>
        <time>2025-10-04T14:17:49Z</time>
      </trkpt>
      <trkpt lat="45.97924" lon="4.41355">
        <ele>802.4</ele>
        <time>2025-10-04T14:17:50Z</time>
      </trkpt>
      <trkpt lat="45.97925" lon="4.41355">
        <ele>802.6</ele>
        <time>2025-10-04T14:17:51Z</time>
      </trkpt>
      <trkpt lat="45.97927" lon="4.41354">
        <ele>803</ele>
        <time>2025-10-04T14:17:52Z</time>
      </trkpt>
      <trkpt lat="45.97929" lon="4.41354">
        <ele>803</ele>
        <time>2025-10-04T14:17:53Z</time>
      </trkpt>
      <trkpt lat="45.97931" lon="4.41353">
        <ele>803</ele>
        <time>2025-10-04T14:17:54Z</time>
      </trkpt>
      <trkpt lat="45.97932" lon="4.41352">
        <ele>803.4</ele>
        <time>2025-10-04T14:17:55Z</time>
      </trkpt>
      <trkpt lat="45.97933" lon="4.41351">
        <ele>803.6</ele>
        <time>2025-10-04T14:17:56Z</time>
      </trkpt>
      <trkpt lat="45.97935" lon="4.41351">
        <ele>803.6</ele>
        <time>2025-10-04T14:17:57Z</time>
      </trkpt>
      <trkpt lat="45.97937" lon="4.4135">
        <ele>804</ele>
        <time>2025-10-04T14:17:58Z</time>
      </trkpt>
      <trkpt lat="45.97938" lon="4.4135">
        <ele>804</ele>
        <time>2025-10-04T14:17:59Z</time>
      </trkpt>
      <trkpt lat="45.9794" lon="4.4135">
        <ele>804.2</ele>
        <time>2025-10-04T14:18:00Z</time>
      </trkpt>
      <trkpt lat="45.97942" lon="4.4135">
        <ele>804.6</ele>
        <time>2025-10-04T14:18:01Z</time>
      </trkpt>
      <trkpt lat="45.97943" lon="4.4135">
        <ele>804.6</ele>
        <time>2025-10-04T14:18:02Z</time>
      </trkpt>
      <trkpt lat="45.97944" lon="4.41349">
        <ele>804.6</ele>
        <time>2025-10-04T14:18:03Z</time>
      </trkpt>
      <trkpt lat="45.97946" lon="4.41348">
        <ele>804.6</ele>
        <time>2025-10-04T14:18:04Z</time>
      </trkpt>
      <trkpt lat="45.97948" lon="4.41347">
        <ele>804.8</ele>
        <time>2025-10-04T14:18:05Z</time>
      </trkpt>
      <trkpt lat="45.97949" lon="4.41347">
        <ele>805</ele>
        <time>2025-10-04T14:18:06Z</time>
      </trkpt>
      <trkpt lat="45.97951" lon="4.41347">
        <ele>805.4</ele>
        <time>2025-10-04T14:18:07Z</time>
      </trkpt>
      <trkpt lat="45.97954" lon="4.41347">
        <ele>805.4</ele>
        <time>2025-10-04T14:18:08Z</time>
      </trkpt>
      <trkpt lat="45.97954" lon="4.41347">
        <ele>805.4</ele>
        <time>2025-10-04T14:18:09Z</time>
      </trkpt>
      <trkpt lat="45.97957" lon="4.41346">
        <ele>805.6</ele>
        <time>2025-10-04T14:18:10Z</time>
      </trkpt>
      <trkpt lat="45.97959" lon="4.41345">
        <ele>805.6</ele>
        <time>2025-10-04T14:18:11Z</time>
      </trkpt>
      <trkpt lat="45.97961" lon="4.41345">
        <ele>805.6</ele>
        <time>2025-10-04T14:18:12Z</time>
      </trkpt>
      <trkpt lat="45.97962" lon="4.41344">
        <ele>805.6</ele>
        <time>2025-10-04T14:18:13Z</time>
      </trkpt>
      <trkpt lat="45.97964" lon="4.41344">
        <ele>805.8</ele>
        <time>2025-10-04T14:18:14Z</time>
      </trkpt>
      <trkpt lat="45.97965" lon="4.41343">
        <ele>806</ele>
        <time>2025-10-04T14:18:15Z</time>
      </trkpt>
      <trkpt lat="45.97968" lon="4.41343">
        <ele>806</ele>
        <time>2025-10-04T14:18:16Z</time>
      </trkpt>
      <trkpt lat="45.9797" lon="4.41342">
        <ele>806</ele>
        <time>2025-10-04T14:18:17Z</time>
      </trkpt>
      <trkpt lat="45.97972" lon="4.41342">
        <ele>806.4</ele>
        <time>2025-10-04T14:18:18Z</time>
      </trkpt>
      <trkpt lat="45.97974" lon="4.41342">
        <ele>806.4</ele>
        <time>2025-10-04T14:18:19Z</time>
      </trkpt>
      <trkpt lat="45.97976" lon="4.41342">
        <ele>806.6</ele>
        <time>2025-10-04T14:18:20Z</time>
      </trkpt>
      <trkpt lat="45.97978" lon="4.41342">
        <ele>806.6</ele>
        <time>2025-10-04T14:18:21Z</time>
      </trkpt>
      <trkpt lat="45.97981" lon="4.41342">
        <ele>806.6</ele>
        <time>2025-10-04T14:18:22Z</time>
      </trkpt>
      <trkpt lat="45.97983" lon="4.41342">
        <ele>806.6</ele>
        <time>2025-10-04T14:18:23Z</time>
      </trkpt>
      <trkpt lat="45.97985" lon="4.41342">
        <ele>806.8</ele>
        <time>2025-10-04T14:18:24Z</time>
      </trkpt>
      <trkpt lat="45.97988" lon="4.41343">
        <ele>807.2</ele>
        <time>2025-10-04T14:18:25Z</time>
      </trkpt>
      <trkpt lat="45.9799" lon="4.41344">
        <ele>807.2</ele>
        <time>2025-10-04T14:18:26Z</time>
      </trkpt>
      <trkpt lat="45.97993" lon="4.41344">
        <ele>807.4</ele>
        <time>2025-10-04T14:18:27Z</time>
      </trkpt>
      <trkpt lat="45.97996" lon="4.41345">
        <ele>807.4</ele>
        <time>2025-10-04T14:18:28Z</time>
      </trkpt>
      <trkpt lat="45.97999" lon="4.41345">
        <ele>807.4</ele>
        <time>2025-10-04T14:18:29Z</time>
      </trkpt>
      <trkpt lat="45.98001" lon="4.41344">
        <ele>807.6</ele>
        <time>2025-10-04T14:18:30Z</time>
      </trkpt>
      <trkpt lat="45.98002" lon="4.41345">
        <ele>807.6</ele>
        <time>2025-10-04T14:18:31Z</time>
      </trkpt>
      <trkpt lat="45.98003" lon="4.41345">
        <ele>807.6</ele>
        <time>2025-10-04T14:18:32Z</time>
      </trkpt>
      <trkpt lat="45.98004" lon="4.41346">
        <ele>808.2</ele>
        <time>2025-10-04T14:18:33Z</time>
      </trkpt>
      <trkpt lat="45.98006" lon="4.41347">
        <ele>808.2</ele>
        <time>2025-10-04T14:18:34Z</time>
      </trkpt>
      <trkpt lat="45.98007" lon="4.41348">
        <ele>808.2</ele>
        <time>2025-10-04T14:18:35Z</time>
      </trkpt>
      <trkpt lat="45.98008" lon="4.41349">
        <ele>808.2</ele>
        <time>2025-10-04T14:18:36Z</time>
      </trkpt>
      <trkpt lat="45.98009" lon="4.41349">
        <ele>808.4</ele>
        <time>2025-10-04T14:18:37Z</time>
      </trkpt>
      <trkpt lat="45.9801" lon="4.4135">
        <ele>808.4</ele>
        <time>2025-10-04T14:18:38Z</time>
      </trkpt>
      <trkpt lat="45.9801" lon="4.41351">
        <ele>808.8</ele>
        <time>2025-10-04T14:18:39Z</time>
      </trkpt>
      <trkpt lat="45.98012" lon="4.41351">
        <ele>808.8</ele>
        <time>2025-10-04T14:18:40Z</time>
      </trkpt>
      <trkpt lat="45.98014" lon="4.41352">
        <ele>808.8</ele>
        <time>2025-10-04T14:18:41Z</time>
      </trkpt>
      <trkpt lat="45.98015" lon="4.41353">
        <ele>808.8</ele>
        <time>2025-10-04T14:18:42Z</time>
      </trkpt>
      <trkpt lat="45.98018" lon="4.41355">
        <ele>809</ele>
        <time>2025-10-04T14:18:43Z</time>
      </trkpt>
      <trkpt lat="45.98019" lon="4.41357">
        <ele>809</ele>
        <time>2025-10-04T14:18:44Z</time>
      </trkpt>
      <trkpt lat="45.98021" lon="4.41358">
        <ele>809</ele>
        <time>2025-10-04T14:18:45Z</time>
      </trkpt>
      <trkpt lat="45.98021" lon="4.41359">
        <ele>809.4</ele>
        <time>2025-10-04T14:18:46Z</time>
      </trkpt>
      <trkpt lat="45.98023" lon="4.4136">
        <ele>809.6</ele>
        <time>2025-10-04T14:18:47Z</time>
      </trkpt>
      <trkpt lat="45.98025" lon="4.41361">
        <ele>809.6</ele>
        <time>2025-10-04T14:18:48Z</time>
      </trkpt>
      <trkpt lat="45.98026" lon="4.41363">
        <ele>810</ele>
        <time>2025-10-04T14:18:49Z</time>
      </trkpt>
      <trkpt lat="45.98028" lon="4.41364">
        <ele>810.2</ele>
        <time>2025-10-04T14:18:50Z</time>
      </trkpt>
      <trkpt lat="45.9803" lon="4.41365">
        <ele>810.2</ele>
        <time>2025-10-04T14:18:51Z</time>
      </trkpt>
      <trkpt lat="45.98031" lon="4.41367">
        <ele>810.6</ele>
        <time>2025-10-04T14:18:52Z</time>
      </trkpt>
      <trkpt lat="45.98033" lon="4.41368">
        <ele>810.6</ele>
        <time>2025-10-04T14:18:53Z</time>
      </trkpt>
      <trkpt lat="45.98034" lon="4.4137">
        <ele>811</ele>
        <time>2025-10-04T14:18:54Z</time>
      </trkpt>
      <trkpt lat="45.98036" lon="4.41372">
        <ele>811</ele>
        <time>2025-10-04T14:18:55Z</time>
      </trkpt>
      <trkpt lat="45.98037" lon="4.41374">
        <ele>811</ele>
        <time>2025-10-04T14:18:56Z</time>
      </trkpt>
      <trkpt lat="45.98038" lon="4.41376">
        <ele>811.2</ele>
        <time>2025-10-04T14:18:57Z</time>
      </trkpt>
      <trkpt lat="45.9804" lon="4.41378">
        <ele>811</ele>
        <time>2025-10-04T14:18:58Z</time>
      </trkpt>
      <trkpt lat="45.98042" lon="4.41379">
        <ele>811.2</ele>
        <time>2025-10-04T14:18:59Z</time>
      </trkpt>
      <trkpt lat="45.98043" lon="4.4138">
        <ele>811.4</ele>
        <time>2025-10-04T14:19:00Z</time>
      </trkpt>
      <trkpt lat="45.98044" lon="4.41382">
        <ele>811.4</ele>
        <time>2025-10-04T14:19:01Z</time>
      </trkpt>
      <trkpt lat="45.98044" lon="4.41383">
        <ele>812</ele>
        <time>2025-10-04T14:19:02Z</time>
      </trkpt>
      <trkpt lat="45.98045" lon="4.41385">
        <ele>812.2</ele>
        <time>2025-10-04T14:19:03Z</time>
      </trkpt>
      <trkpt lat="45.98045" lon="4.41387">
        <ele>812.6</ele>
        <time>2025-10-04T14:19:04Z</time>
      </trkpt>
      <trkpt lat="45.98045" lon="4.4139">
        <ele>812.8</ele>
        <time>2025-10-04T14:19:05Z</time>
      </trkpt>
      <trkpt lat="45.98044" lon="4.41392">
        <ele>812.8</ele>
        <time>2025-10-04T14:19:06Z</time>
      </trkpt>
      <trkpt lat="45.98044" lon="4.41394">
        <ele>813</ele>
        <time>2025-10-04T14:19:07Z</time>
      </trkpt>
      <trkpt lat="45.98045" lon="4.41397">
        <ele>813.4</ele>
        <time>2025-10-04T14:19:08Z</time>
      </trkpt>
      <trkpt lat="45.98047" lon="4.41399">
        <ele>813.4</ele>
        <time>2025-10-04T14:19:09Z</time>
      </trkpt>
      <trkpt lat="45.9805" lon="4.41401">
        <ele>813.4</ele>
        <time>2025-10-04T14:19:10Z</time>
      </trkpt>
      <trkpt lat="45.98052" lon="4.41404">
        <ele>813.6</ele>
        <time>2025-10-04T14:19:11Z</time>
      </trkpt>
      <trkpt lat="45.98054" lon="4.41406">
        <ele>813.6</ele>
        <time>2025-10-04T14:19:12Z</time>
      </trkpt>
      <trkpt lat="45.98054" lon="4.41407">
        <ele>814</ele>
        <time>2025-10-04T14:19:13Z</time>
      </trkpt>
      <trkpt lat="45.98055" lon="4.41407">
        <ele>814</ele>
        <time>2025-10-04T14:19:14Z</time>
      </trkpt>
      <trkpt lat="45.98057" lon="4.41409">
        <ele>814</ele>
        <time>2025-10-04T14:19:15Z</time>
      </trkpt>
      <trkpt lat="45.98058" lon="4.4141">
        <ele>814.6</ele>
        <time>2025-10-04T14:19:16Z</time>
      </trkpt>
      <trkpt lat="45.98059" lon="4.41411">
        <ele>814.8</ele>
        <time>2025-10-04T14:19:17Z</time>
      </trkpt>
      <trkpt lat="45.9806" lon="4.41411">
        <ele>815.2</ele>
        <time>2025-10-04T14:19:18Z</time>
      </trkpt>
      <trkpt lat="45.98061" lon="4.41411">
        <ele>815.8</ele>
        <time>2025-10-04T14:19:19Z</time>
      </trkpt>
      <trkpt lat="45.98063" lon="4.41411">
        <ele>815.8</ele>
        <time>2025-10-04T14:19:20Z</time>
      </trkpt>
      <trkpt lat="45.98064" lon="4.41409">
        <ele>815.8</ele>
        <time>2025-10-04T14:19:21Z</time>
      </trkpt>
      <trkpt lat="45.98066" lon="4.41407">
        <ele>816</ele>
        <time>2025-10-04T14:19:22Z</time>
      </trkpt>
      <trkpt lat="45.98068" lon="4.41404">
        <ele>816</ele>
        <time>2025-10-04T14:19:23Z</time>
      </trkpt>
      <trkpt lat="45.98069" lon="4.41401">
        <ele>816.4</ele>
        <time>2025-10-04T14:19:24Z</time>
      </trkpt>
      <trkpt lat="45.9807" lon="4.41397">
        <ele>816.4</ele>
        <time>2025-10-04T14:19:25Z</time>
      </trkpt>
      <trkpt lat="45.98071" lon="4.41394">
        <ele>816.4</ele>
        <time>2025-10-04T14:19:26Z</time>
      </trkpt>
      <trkpt lat="45.98072" lon="4.41391">
        <ele>816.8</ele>
        <time>2025-10-04T14:19:27Z</time>
      </trkpt>
      <trkpt lat="45.98073" lon="4.41388">
        <ele>816.8</ele>
        <time>2025-10-04T14:19:28Z</time>
      </trkpt>
      <trkpt lat="45.98074" lon="4.41385">
        <ele>817</ele>
        <time>2025-10-04T14:19:29Z</time>
      </trkpt>
      <trkpt lat="45.98075" lon="4.41383">
        <ele>817</ele>
        <time>2025-10-04T14:19:30Z</time>
      </trkpt>
      <trkpt lat="45.98077" lon="4.41381">
        <ele>817.2</ele>
        <time>2025-10-04T14:19:31Z</time>
      </trkpt>
      <trkpt lat="45.98078" lon="4.41379">
        <ele>817.2</ele>
        <time>2025-10-04T14:19:32Z</time>
      </trkpt>
      <trkpt lat="45.98078" lon="4.41377">
        <ele>817.2</ele>
        <time>2025-10-04T14:19:33Z</time>
      </trkpt>
      <trkpt lat="45.98079" lon="4.41375">
        <ele>817.4</ele>
        <time>2025-10-04T14:19:34Z</time>
      </trkpt>
      <trkpt lat="45.98081" lon="4.41373">
        <ele>817.4</ele>
        <time>2025-10-04T14:19:35Z</time>
      </trkpt>
      <trkpt lat="45.98082" lon="4.41372">
        <ele>817.4</ele>
        <time>2025-10-04T14:19:36Z</time>
      </trkpt>
      <trkpt lat="45.98084" lon="4.41371">
        <ele>817.6</ele>
        <time>2025-10-04T14:19:37Z</time>
      </trkpt>
      <trkpt lat="45.98086" lon="4.41369">
        <ele>817.6</ele>
        <time>2025-10-04T14:19:38Z</time>
      </trkpt>
      <trkpt lat="45.98087" lon="4.41367">
        <ele>818</ele>
        <time>2025-10-04T14:19:39Z</time>
      </trkpt>
      <trkpt lat="45.98088" lon="4.41366">
        <ele>818</ele>
        <time>2025-10-04T14:19:40Z</time>
      </trkpt>
      <trkpt lat="45.98089" lon="4.41364">
        <ele>818.4</ele>
        <time>2025-10-04T14:19:41Z</time>
      </trkpt>
      <trkpt lat="45.9809" lon="4.41362">
        <ele>818.6</ele>
        <time>2025-10-04T14:19:42Z</time>
      </trkpt>
      <trkpt lat="45.9809" lon="4.4136">
        <ele>818.8</ele>
        <time>2025-10-04T14:19:43Z</time>
      </trkpt>
      <trkpt lat="45.9809" lon="4.41359">
        <ele>819</ele>
        <time>2025-10-04T14:19:44Z</time>
      </trkpt>
      <trkpt lat="45.9809" lon="4.41357">
        <ele>819</ele>
        <time>2025-10-04T14:19:45Z</time>
      </trkpt>
      <trkpt lat="45.98091" lon="4.41355">
        <ele>819</ele>
        <time>2025-10-04T14:19:46Z</time>
      </trkpt>
      <trkpt lat="45.98091" lon="4.41352">
        <ele>819</ele>
        <time>2025-10-04T14:19:47Z</time>
      </trkpt>
      <trkpt lat="45.98093" lon="4.4135">
        <ele>819.4</ele>
        <time>2025-10-04T14:19:48Z</time>
      </trkpt>
      <trkpt lat="45.98094" lon="4.41349">
        <ele>819.4</ele>
        <time>2025-10-04T14:19:49Z</time>
      </trkpt>
      <trkpt lat="45.98096" lon="4.41347">
        <ele>819.4</ele>
        <time>2025-10-04T14:19:50Z</time>
      </trkpt>
      <trkpt lat="45.98097" lon="4.41347">
        <ele>819.4</ele>
        <time>2025-10-04T14:19:51Z</time>
      </trkpt>
      <trkpt lat="45.98099" lon="4.41346">
        <ele>819.6</ele>
        <time>2025-10-04T14:19:52Z</time>
      </trkpt>
      <trkpt lat="45.98101" lon="4.41344">
        <ele>819.6</ele>
        <time>2025-10-04T14:19:53Z</time>
      </trkpt>
      <trkpt lat="45.98103" lon="4.41343">
        <ele>820</ele>
        <time>2025-10-04T14:19:54Z</time>
      </trkpt>
      <trkpt lat="45.98105" lon="4.41343">
        <ele>820.4</ele>
        <time>2025-10-04T14:19:55Z</time>
      </trkpt>
      <trkpt lat="45.98106" lon="4.41342">
        <ele>820.4</ele>
        <time>2025-10-04T14:19:56Z</time>
      </trkpt>
      <trkpt lat="45.98108" lon="4.41342">
        <ele>820.6</ele>
        <time>2025-10-04T14:19:57Z</time>
      </trkpt>
      <trkpt lat="45.9811" lon="4.41342">
        <ele>820.6</ele>
        <time>2025-10-04T14:19:58Z</time>
      </trkpt>
      <trkpt lat="45.98111" lon="4.41341">
        <ele>821.2</ele>
        <time>2025-10-04T14:19:59Z</time>
      </trkpt>
      <trkpt lat="45.98113" lon="4.4134">
        <ele>821.2</ele>
        <time>2025-10-04T14:20:00Z</time>
      </trkpt>
      <trkpt lat="45.98115" lon="4.4134">
        <ele>821.6</ele>
        <time>2025-10-04T14:20:01Z</time>
      </trkpt>
      <trkpt lat="45.98116" lon="4.41339">
        <ele>821.6</ele>
        <time>2025-10-04T14:20:02Z</time>
      </trkpt>
      <trkpt lat="45.98118" lon="4.4134">
        <ele>821.8</ele>
        <time>2025-10-04T14:20:03Z</time>
      </trkpt>
      <trkpt lat="45.9812" lon="4.4134">
        <ele>822.2</ele>
        <time>2025-10-04T14:20:04Z</time>
      </trkpt>
      <trkpt lat="45.98122" lon="4.41341">
        <ele>822.2</ele>
        <time>2025-10-04T14:20:05Z</time>
      </trkpt>
      <trkpt lat="45.98124" lon="4.41341">
        <ele>822.6</ele>
        <time>2025-10-04T14:20:06Z</time>
      </trkpt>
      <trkpt lat="45.98125" lon="4.41341">
        <ele>822.8</ele>
        <time>2025-10-04T14:20:07Z</time>
      </trkpt>
      <trkpt lat="45.98127" lon="4.41341">
        <ele>822.8</ele>
        <time>2025-10-04T14:20:08Z</time>
      </trkpt>
      <trkpt lat="45.98128" lon="4.41341">
        <ele>823.2</ele>
        <time>2025-10-04T14:20:09Z</time>
      </trkpt>
      <trkpt lat="45.9813" lon="4.41341">
        <ele>823.4</ele>
        <time>2025-10-04T14:20:10Z</time>
      </trkpt>
      <trkpt lat="45.98131" lon="4.41342">
        <ele>823.4</ele>
        <time>2025-10-04T14:20:11Z</time>
      </trkpt>
      <trkpt lat="45.98132" lon="4.41342">
        <ele>823.8</ele>
        <time>2025-10-04T14:20:12Z</time>
      </trkpt>
      <trkpt lat="45.98134" lon="4.41344">
        <ele>823.8</ele>
        <time>2025-10-04T14:20:13Z</time>
      </trkpt>
      <trkpt lat="45.98134" lon="4.41345">
        <ele>824</ele>
        <time>2025-10-04T14:20:14Z</time>
      </trkpt>
      <trkpt lat="45.98135" lon="4.41347">
        <ele>824</ele>
        <time>2025-10-04T14:20:15Z</time>
      </trkpt>
      <trkpt lat="45.98136" lon="4.4135">
        <ele>824.2</ele>
        <time>2025-10-04T14:20:16Z</time>
      </trkpt>
      <trkpt lat="45.98137" lon="4.41351">
        <ele>824.2</ele>
        <time>2025-10-04T14:20:17Z</time>
      </trkpt>
      <trkpt lat="45.98139" lon="4.41353">
        <ele>824.2</ele>
        <time>2025-10-04T14:20:18Z</time>
      </trkpt>
      <trkpt lat="45.9814" lon="4.41354">
        <ele>824.4</ele>
        <time>2025-10-04T14:20:19Z</time>
      </trkpt>
      <trkpt lat="45.98142" lon="4.41355">
        <ele>824.4</ele>
        <time>2025-10-04T14:20:20Z</time>
      </trkpt>
      <trkpt lat="45.98143" lon="4.41356">
        <ele>824.8</ele>
        <time>2025-10-04T14:20:21Z</time>
      </trkpt>
      <trkpt lat="45.98144" lon="4.41357">
        <ele>824.8</ele>
        <time>2025-10-04T14:20:22Z</time>
      </trkpt>
      <trkpt lat="45.98145" lon="4.41358">
        <ele>825.2</ele>
        <time>2025-10-04T14:20:23Z</time>
      </trkpt>
      <trkpt lat="45.98146" lon="4.41358">
        <ele>825.2</ele>
        <time>2025-10-04T14:20:24Z</time>
      </trkpt>
      <trkpt lat="45.98148" lon="4.41359">
        <ele>825.6</ele>
        <time>2025-10-04T14:20:25Z</time>
      </trkpt>
      <trkpt lat="45.98149" lon="4.4136">
        <ele>825.6</ele>
        <time>2025-10-04T14:20:26Z</time>
      </trkpt>
      <trkpt lat="45.9815" lon="4.41361">
        <ele>826.2</ele>
        <time>2025-10-04T14:20:27Z</time>
      </trkpt>
      <trkpt lat="45.98151" lon="4.41362">
        <ele>826.4</ele>
        <time>2025-10-04T14:20:28Z</time>
      </trkpt>
      <trkpt lat="45.98153" lon="4.41363">
        <ele>826.4</ele>
        <time>2025-10-04T14:20:29Z</time>
      </trkpt>
      <trkpt lat="45.98154" lon="4.41364">
        <ele>826.6</ele>
        <time>2025-10-04T14:20:30Z</time>
      </trkpt>
      <trkpt lat="45.98155" lon="4.41365">
        <ele>826.8</ele>
        <time>2025-10-04T14:20:31Z</time>
      </trkpt>
      <trkpt lat="45.98156" lon="4.41366">
        <ele>826.8</ele>
        <time>2025-10-04T14:20:32Z</time>
      </trkpt>
      <trkpt lat="45.98157" lon="4.41368">
        <ele>827.4</ele>
        <time>2025-10-04T14:20:33Z</time>
      </trkpt>
      <trkpt lat="45.98158" lon="4.41369">
        <ele>827.4</ele>
        <time>2025-10-04T14:20:34Z</time>
      </trkpt>
      <trkpt lat="45.98159" lon="4.41371">
        <ele>827.4</ele>
        <time>2025-10-04T14:20:35Z</time>
      </trkpt>
      <trkpt lat="45.9816" lon="4.41372">
        <ele>827.4</ele>
        <time>2025-10-04T14:20:36Z</time>
      </trkpt>
      <trkpt lat="45.98161" lon="4.41373">
        <ele>827.6</ele>
        <time>2025-10-04T14:20:37Z</time>
      </trkpt>
      <trkpt lat="45.98163" lon="4.41374">
        <ele>827.6</ele>
        <time>2025-10-04T14:20:38Z</time>
      </trkpt>
      <trkpt lat="45.98164" lon="4.41375">
        <ele>827.8</ele>
        <time>2025-10-04T14:20:39Z</time>
      </trkpt>
      <trkpt lat="45.98164" lon="4.41377">
        <ele>827.8</ele>
        <time>2025-10-04T14:20:40Z</time>
      </trkpt>
      <trkpt lat="45.98165" lon="4.41378">
        <ele>828</ele>
        <time>2025-10-04T14:20:41Z</time>
      </trkpt>
      <trkpt lat="45.98166" lon="4.4138">
        <ele>828</ele>
        <time>2025-10-04T14:20:42Z</time>
      </trkpt>
      <trkpt lat="45.98167" lon="4.41382">
        <ele>828</ele>
        <time>2025-10-04T14:20:43Z</time>
      </trkpt>
      <trkpt lat="45.98167" lon="4.41382">
        <ele>828.4</ele>
        <time>2025-10-04T14:20:44Z</time>
      </trkpt>
      <trkpt lat="45.98168" lon="4.41384">
        <ele>828.4</ele>
        <time>2025-10-04T14:20:45Z</time>
      </trkpt>
      <trkpt lat="45.98169" lon="4.41386">
        <ele>828.6</ele>
        <time>2025-10-04T14:20:46Z</time>
      </trkpt>
      <trkpt lat="45.98171" lon="4.41387">
        <ele>828.6</ele>
        <time>2025-10-04T14:20:47Z</time>
      </trkpt>
      <trkpt lat="45.98172" lon="4.41387">
        <ele>828.8</ele>
        <time>2025-10-04T14:20:48Z</time>
      </trkpt>
      <trkpt lat="45.98174" lon="4.41388">
        <ele>828.8</ele>
        <time>2025-10-04T14:20:49Z</time>
      </trkpt>
      <trkpt lat="45.98175" lon="4.41389">
        <ele>829.2</ele>
        <time>2025-10-04T14:20:50Z</time>
      </trkpt>
      <trkpt lat="45.98177" lon="4.4139">
        <ele>829.4</ele>
        <time>2025-10-04T14:20:51Z</time>
      </trkpt>
      <trkpt lat="45.98178" lon="4.41391">
        <ele>829.4</ele>
        <time>2025-10-04T14:20:52Z</time>
      </trkpt>
      <trkpt lat="45.98179" lon="4.41393">
        <ele>830</ele>
        <time>2025-10-04T14:20:53Z</time>
      </trkpt>
      <trkpt lat="45.9818" lon="4.41394">
        <ele>830.2</ele>
        <time>2025-10-04T14:20:54Z</time>
      </trkpt>
      <trkpt lat="45.9818" lon="4.41396">
        <ele>830.2</ele>
        <time>2025-10-04T14:20:55Z</time>
      </trkpt>
      <trkpt lat="45.98181" lon="4.41397">
        <ele>830.4</ele>
        <time>2025-10-04T14:20:56Z</time>
      </trkpt>
      <trkpt lat="45.98182" lon="4.41399">
        <ele>830.8</ele>
        <time>2025-10-04T14:20:57Z</time>
      </trkpt>
      <trkpt lat="45.98183" lon="4.414">
        <ele>831.2</ele>
        <time>2025-10-04T14:20:58Z</time>
      </trkpt>
      <trkpt lat="45.98184" lon="4.41401">
        <ele>831.4</ele>
        <time>2025-10-04T14:20:59Z</time>
      </trkpt>
      <trkpt lat="45.98185" lon="4.41402">
        <ele>831.4</ele>
        <time>2025-10-04T14:21:00Z</time>
      </trkpt>
      <trkpt lat="45.98186" lon="4.41403">
        <ele>831.6</ele>
        <time>2025-10-04T14:21:01Z</time>
      </trkpt>
      <trkpt lat="45.98187" lon="4.41404">
        <ele>831.6</ele>
        <time>2025-10-04T14:21:02Z</time>
      </trkpt>
      <trkpt lat="45.98189" lon="4.41404">
        <ele>831.6</ele>
        <time>2025-10-04T14:21:03Z</time>
      </trkpt>
      <trkpt lat="45.98191" lon="4.41405">
        <ele>831.6</ele>
        <time>2025-10-04T14:21:04Z</time>
      </trkpt>
      <trkpt lat="45.98193" lon="4.41405">
        <ele>831.6</ele>
        <time>2025-10-04T14:21:05Z</time>
      </trkpt>
      <trkpt lat="45.98194" lon="4.41406">
        <ele>831.6</ele>
        <time>2025-10-04T14:21:06Z</time>
      </trkpt>
      <trkpt lat="45.98197" lon="4.41406">
        <ele>831.8</ele>
        <time>2025-10-04T14:21:07Z</time>
      </trkpt>
      <trkpt lat="45.98199" lon="4.41407">
        <ele>831.8</ele>
        <time>2025-10-04T14:21:08Z</time>
      </trkpt>
      <trkpt lat="45.98201" lon="4.41407">
        <ele>831.8</ele>
        <time>2025-10-04T14:21:09Z</time>
      </trkpt>
      <trkpt lat="45.98203" lon="4.41408">
        <ele>831.8</ele>
        <time>2025-10-04T14:21:10Z</time>
      </trkpt>
      <trkpt lat="45.98205" lon="4.41408">
        <ele>832.2</ele>
        <time>2025-10-04T14:21:11Z</time>
      </trkpt>
      <trkpt lat="45.98207" lon="4.41408">
        <ele>832.2</ele>
        <time>2025-10-04T14:21:12Z</time>
      </trkpt>
      <trkpt lat="45.98208" lon="4.41409">
        <ele>832.2</ele>
        <time>2025-10-04T14:21:13Z</time>
      </trkpt>
      <trkpt lat="45.9821" lon="4.41409">
        <ele>832.6</ele>
        <time>2025-10-04T14:21:14Z</time>
      </trkpt>
      <trkpt lat="45.98212" lon="4.41408">
        <ele>832.8</ele>
        <time>2025-10-04T14:21:15Z</time>
      </trkpt>
      <trkpt lat="45.98213" lon="4.41407">
        <ele>833.2</ele>
        <time>2025-10-04T14:21:16Z</time>
      </trkpt>
      <trkpt lat="45.98215" lon="4.41407">
        <ele>833.4</ele>
        <time>2025-10-04T14:21:17Z</time>
      </trkpt>
      <trkpt lat="45.98216" lon="4.41407">
        <ele>833.4</ele>
        <time>2025-10-04T14:21:18Z</time>
      </trkpt>
      <trkpt lat="45.98219" lon="4.41409">
        <ele>833.4</ele>
        <time>2025-10-04T14:21:19Z</time>
      </trkpt>
      <trkpt lat="45.98221" lon="4.41411">
        <ele>833.2</ele>
        <time>2025-10-04T14:21:20Z</time>
      </trkpt>
      <trkpt lat="45.98223" lon="4.41411">
        <ele>833.2</ele>
        <time>2025-10-04T14:21:21Z</time>
      </trkpt>
      <trkpt lat="45.98226" lon="4.4141">
        <ele>833.4</ele>
        <time>2025-10-04T14:21:22Z</time>
      </trkpt>
      <trkpt lat="45.98228" lon="4.41408">
        <ele>833.4</ele>
        <time>2025-10-04T14:21:23Z</time>
      </trkpt>
      <trkpt lat="45.9823" lon="4.41406">
        <ele>833.4</ele>
        <time>2025-10-04T14:21:24Z</time>
      </trkpt>
      <trkpt lat="45.98232" lon="4.41403">
        <ele>834</ele>
        <time>2025-10-04T14:21:25Z</time>
      </trkpt>
      <trkpt lat="45.98233" lon="4.41403">
        <ele>834</ele>
        <time>2025-10-04T14:21:26Z</time>
      </trkpt>
      <trkpt lat="45.98234" lon="4.41403">
        <ele>834</ele>
        <time>2025-10-04T14:21:27Z</time>
      </trkpt>
      <trkpt lat="45.98236" lon="4.41404">
        <ele>834</ele>
        <time>2025-10-04T14:21:28Z</time>
      </trkpt>
      <trkpt lat="45.98237" lon="4.41405">
        <ele>834.2</ele>
        <time>2025-10-04T14:21:29Z</time>
      </trkpt>
      <trkpt lat="45.9824" lon="4.41406">
        <ele>834.2</ele>
        <time>2025-10-04T14:21:30Z</time>
      </trkpt>
      <trkpt lat="45.98243" lon="4.41407">
        <ele>834.8</ele>
        <time>2025-10-04T14:21:31Z</time>
      </trkpt>
      <trkpt lat="45.98246" lon="4.41408">
        <ele>834.8</ele>
        <time>2025-10-04T14:21:32Z</time>
      </trkpt>
      <trkpt lat="45.98248" lon="4.41409">
        <ele>835</ele>
        <time>2025-10-04T14:21:33Z</time>
      </trkpt>
      <trkpt lat="45.98251" lon="4.41411">
        <ele>835</ele>
        <time>2025-10-04T14:21:34Z</time>
      </trkpt>
      <trkpt lat="45.98253" lon="4.41413">
        <ele>835</ele>
        <time>2025-10-04T14:21:35Z</time>
      </trkpt>
      <trkpt lat="45.98254" lon="4.41416">
        <ele>835</ele>
        <time>2025-10-04T14:21:36Z</time>
      </trkpt>
      <trkpt lat="45.98256" lon="4.41417">
        <ele>835</ele>
        <time>2025-10-04T14:21:37Z</time>
      </trkpt>
      <trkpt lat="45.98258" lon="4.41419">
        <ele>835</ele>
        <time>2025-10-04T14:21:38Z</time>
      </trkpt>
      <trkpt lat="45.98262" lon="4.4142">
        <ele>835.4</ele>
        <time>2025-10-04T14:21:39Z</time>
      </trkpt>
      <trkpt lat="45.98265" lon="4.41422">
        <ele>835.4</ele>
        <time>2025-10-04T14:21:40Z</time>
      </trkpt>
      <trkpt lat="45.98267" lon="4.41423">
        <ele>835.4</ele>
        <time>2025-10-04T14:21:41Z</time>
      </trkpt>
      <trkpt lat="45.9827" lon="4.41424">
        <ele>835.4</ele>
        <time>2025-10-04T14:21:42Z</time>
      </trkpt>
      <trkpt lat="45.98273" lon="4.41424">
        <ele>835.4</ele>
        <time>2025-10-04T14:21:43Z</time>
      </trkpt>
      <trkpt lat="45.98275" lon="4.41425">
        <ele>835</ele>
        <time>2025-10-04T14:21:44Z</time>
      </trkpt>
      <trkpt lat="45.98278" lon="4.41426">
        <ele>835</ele>
        <time>2025-10-04T14:21:45Z</time>
      </trkpt>
      <trkpt lat="45.9828" lon="4.41427">
        <ele>835</ele>
        <time>2025-10-04T14:21:46Z</time>
      </trkpt>
      <trkpt lat="45.98282" lon="4.41427">
        <ele>835</ele>
        <time>2025-10-04T14:21:47Z</time>
      </trkpt>
      <trkpt lat="45.98284" lon="4.41428">
        <ele>835</ele>
        <time>2025-10-04T14:21:48Z</time>
      </trkpt>
      <trkpt lat="45.98286" lon="4.41429">
        <ele>835</ele>
        <time>2025-10-04T14:21:49Z</time>
      </trkpt>
      <trkpt lat="45.98288" lon="4.41431">
        <ele>835</ele>
        <time>2025-10-04T14:21:50Z</time>
      </trkpt>
      <trkpt lat="45.9829" lon="4.41433">
        <ele>835</ele>
        <time>2025-10-04T14:21:51Z</time>
      </trkpt>
      <trkpt lat="45.98292" lon="4.41435">
        <ele>835.4</ele>
        <time>2025-10-04T14:21:52Z</time>
      </trkpt>
      <trkpt lat="45.98292" lon="4.41437">
        <ele>835.4</ele>
        <time>2025-10-04T14:21:53Z</time>
      </trkpt>
      <trkpt lat="45.98293" lon="4.41438">
        <ele>836</ele>
        <time>2025-10-04T14:21:54Z</time>
      </trkpt>
      <trkpt lat="45.98294" lon="4.41439">
        <ele>835.6</ele>
        <time>2025-10-04T14:21:55Z</time>
      </trkpt>
      <trkpt lat="45.98296" lon="4.41441">
        <ele>835.6</ele>
        <time>2025-10-04T14:21:56Z</time>
      </trkpt>
      <trkpt lat="45.98299" lon="4.41441">
        <ele>836</ele>
        <time>2025-10-04T14:21:57Z</time>
      </trkpt>
      <trkpt lat="45.98302" lon="4.41441">
        <ele>836.4</ele>
        <time>2025-10-04T14:21:58Z</time>
      </trkpt>
      <trkpt lat="45.98304" lon="4.41441">
        <ele>836.4</ele>
        <time>2025-10-04T14:21:59Z</time>
      </trkpt>
      <trkpt lat="45.98306" lon="4.41441">
        <ele>836.8</ele>
        <time>2025-10-04T14:22:00Z</time>
      </trkpt>
      <trkpt lat="45.98308" lon="4.41441">
        <ele>837.2</ele>
        <time>2025-10-04T14:22:01Z</time>
      </trkpt>
      <trkpt lat="45.98311" lon="4.41441">
        <ele>837.4</ele>
        <time>2025-10-04T14:22:02Z</time>
      </trkpt>
      <trkpt lat="45.98313" lon="4.41441">
        <ele>837.4</ele>
        <time>2025-10-04T14:22:03Z</time>
      </trkpt>
      <trkpt lat="45.98315" lon="4.41441">
        <ele>837.6</ele>
        <time>2025-10-04T14:22:04Z</time>
      </trkpt>
      <trkpt lat="45.98319" lon="4.41442">
        <ele>838</ele>
        <time>2025-10-04T14:22:05Z</time>
      </trkpt>
      <trkpt lat="45.98322" lon="4.41441">
        <ele>838.4</ele>
        <time>2025-10-04T14:22:06Z</time>
      </trkpt>
      <trkpt lat="45.98323" lon="4.41441">
        <ele>838.4</ele>
        <time>2025-10-04T14:22:07Z</time>
      </trkpt>
      <trkpt lat="45.98325" lon="4.41441">
        <ele>838.4</ele>
        <time>2025-10-04T14:22:08Z</time>
      </trkpt>
      <trkpt lat="45.98327" lon="4.41441">
        <ele>838.6</ele>
        <time>2025-10-04T14:22:09Z</time>
      </trkpt>
      <trkpt lat="45.98329" lon="4.4144">
        <ele>838.6</ele>
        <time>2025-10-04T14:22:10Z</time>
      </trkpt>
      <trkpt lat="45.9833" lon="4.41441">
        <ele>838.8</ele>
        <time>2025-10-04T14:22:11Z</time>
      </trkpt>
      <trkpt lat="45.98332" lon="4.41442">
        <ele>839.2</ele>
        <time>2025-10-04T14:22:12Z</time>
      </trkpt>
      <trkpt lat="45.98333" lon="4.41444">
        <ele>839.2</ele>
        <time>2025-10-04T14:22:13Z</time>
      </trkpt>
      <trkpt lat="45.98335" lon="4.41445">
        <ele>839.2</ele>
        <time>2025-10-04T14:22:14Z</time>
      </trkpt>
      <trkpt lat="45.98337" lon="4.41448">
        <ele>839.2</ele>
        <time>2025-10-04T14:22:15Z</time>
      </trkpt>
      <trkpt lat="45.98337" lon="4.41449">
        <ele>839.6</ele>
        <time>2025-10-04T14:22:16Z</time>
      </trkpt>
      <trkpt lat="45.98339" lon="4.4145">
        <ele>839.6</ele>
        <time>2025-10-04T14:22:17Z</time>
      </trkpt>
      <trkpt lat="45.98341" lon="4.41451">
        <ele>839.6</ele>
        <time>2025-10-04T14:22:18Z</time>
      </trkpt>
      <trkpt lat="45.98342" lon="4.41452">
        <ele>839.8</ele>
        <time>2025-10-04T14:22:19Z</time>
      </trkpt>
      <trkpt lat="45.98343" lon="4.41452">
        <ele>840</ele>
        <time>2025-10-04T14:22:20Z</time>
      </trkpt>
      <trkpt lat="45.98344" lon="4.41453">
        <ele>840</ele>
        <time>2025-10-04T14:22:21Z</time>
      </trkpt>
      <trkpt lat="45.98345" lon="4.41453">
        <ele>840</ele>
        <time>2025-10-04T14:22:22Z</time>
      </trkpt>
      <trkpt lat="45.98347" lon="4.41454">
        <ele>840.6</ele>
        <time>2025-10-04T14:22:23Z</time>
      </trkpt>
      <trkpt lat="45.98348" lon="4.41455">
        <ele>840.8</ele>
        <time>2025-10-04T14:22:24Z</time>
      </trkpt>
      <trkpt lat="45.98349" lon="4.41455">
        <ele>840.8</ele>
        <time>2025-10-04T14:22:25Z</time>
      </trkpt>
      <trkpt lat="45.98349" lon="4.41455">
        <ele>841.2</ele>
        <time>2025-10-04T14:22:26Z</time>
      </trkpt>
      <trkpt lat="45.98352" lon="4.41456">
        <ele>841.2</ele>
        <time>2025-10-04T14:22:27Z</time>
      </trkpt>
      <trkpt lat="45.98354" lon="4.41457">
        <ele>841.4</ele>
        <time>2025-10-04T14:22:28Z</time>
      </trkpt>
      <trkpt lat="45.98356" lon="4.41459">
        <ele>841.4</ele>
        <time>2025-10-04T14:22:29Z</time>
      </trkpt>
      <trkpt lat="45.98358" lon="4.4146">
        <ele>841.8</ele>
        <time>2025-10-04T14:22:30Z</time>
      </trkpt>
      <trkpt lat="45.9836" lon="4.41461">
        <ele>841.8</ele>
        <time>2025-10-04T14:22:31Z</time>
      </trkpt>
      <trkpt lat="45.98362" lon="4.41462">
        <ele>842</ele>
        <time>2025-10-04T14:22:32Z</time>
      </trkpt>
      <trkpt lat="45.98363" lon="4.41463">
        <ele>842</ele>
        <time>2025-10-04T14:22:33Z</time>
      </trkpt>
      <trkpt lat="45.98365" lon="4.41464">
        <ele>842</ele>
        <time>2025-10-04T14:22:34Z</time>
      </trkpt>
      <trkpt lat="45.98367" lon="4.41465">
        <ele>842.4</ele>
        <time>2025-10-04T14:22:35Z</time>
      </trkpt>
      <trkpt lat="45.98369" lon="4.41467">
        <ele>842.6</ele>
        <time>2025-10-04T14:22:36Z</time>
      </trkpt>
      <trkpt lat="45.98372" lon="4.41468">
        <ele>842.6</ele>
        <time>2025-10-04T14:22:37Z</time>
      </trkpt>
      <trkpt lat="45.98374" lon="4.41469">
        <ele>843.2</ele>
        <time>2025-10-04T14:22:38Z</time>
      </trkpt>
      <trkpt lat="45.98376" lon="4.4147">
        <ele>843.2</ele>
        <time>2025-10-04T14:22:39Z</time>
      </trkpt>
      <trkpt lat="45.98377" lon="4.41471">
        <ele>843.2</ele>
        <time>2025-10-04T14:22:40Z</time>
      </trkpt>
      <trkpt lat="45.98378" lon="4.41471">
        <ele>843.4</ele>
        <time>2025-10-04T14:22:41Z</time>
      </trkpt>
      <trkpt lat="45.98379" lon="4.41472">
        <ele>843.4</ele>
        <time>2025-10-04T14:22:42Z</time>
      </trkpt>
      <trkpt lat="45.98381" lon="4.41473">
        <ele>843.8</ele>
        <time>2025-10-04T14:22:43Z</time>
      </trkpt>
      <trkpt lat="45.98382" lon="4.41474">
        <ele>843.8</ele>
        <time>2025-10-04T14:22:44Z</time>
      </trkpt>
      <trkpt lat="45.98383" lon="4.41476">
        <ele>844</ele>
        <time>2025-10-04T14:22:45Z</time>
      </trkpt>
      <trkpt lat="45.98384" lon="4.41478">
        <ele>844</ele>
        <time>2025-10-04T14:22:46Z</time>
      </trkpt>
      <trkpt lat="45.98386" lon="4.41479">
        <ele>844</ele>
        <time>2025-10-04T14:22:47Z</time>
      </trkpt>
      <trkpt lat="45.98388" lon="4.4148">
        <ele>844.4</ele>
        <time>2025-10-04T14:22:48Z</time>
      </trkpt>
      <trkpt lat="45.98389" lon="4.41482">
        <ele>844.4</ele>
        <time>2025-10-04T14:22:49Z</time>
      </trkpt>
      <trkpt lat="45.98391" lon="4.41484">
        <ele>844.8</ele>
        <time>2025-10-04T14:22:50Z</time>
      </trkpt>
      <trkpt lat="45.98393" lon="4.41486">
        <ele>844.8</ele>
        <time>2025-10-04T14:22:51Z</time>
      </trkpt>
      <trkpt lat="45.98394" lon="4.41488">
        <ele>844.8</ele>
        <time>2025-10-04T14:22:52Z</time>
      </trkpt>
      <trkpt lat="45.98396" lon="4.41489">
        <ele>845.2</ele>
        <time>2025-10-04T14:22:53Z</time>
      </trkpt>
      <trkpt lat="45.98398" lon="4.41491">
        <ele>845.4</ele>
        <time>2025-10-04T14:22:54Z</time>
      </trkpt>
      <trkpt lat="45.98399" lon="4.41493">
        <ele>845.4</ele>
        <time>2025-10-04T14:22:55Z</time>
      </trkpt>
      <trkpt lat="45.984" lon="4.41494">
        <ele>845.6</ele>
        <time>2025-10-04T14:22:56Z</time>
      </trkpt>
      <trkpt lat="45.98401" lon="4.41495">
        <ele>845.6</ele>
        <time>2025-10-04T14:22:57Z</time>
      </trkpt>
      <trkpt lat="45.98403" lon="4.41496">
        <ele>845.6</ele>
        <time>2025-10-04T14:22:58Z</time>
      </trkpt>
      <trkpt lat="45.98403" lon="4.41496">
        <ele>845.6</ele>
        <time>2025-10-04T14:22:59Z</time>
      </trkpt>
      <trkpt lat="45.98405" lon="4.41497">
        <ele>845.6</ele>
        <time>2025-10-04T14:23:00Z</time>
      </trkpt>
      <trkpt lat="45.98406" lon="4.41497">
        <ele>846</ele>
        <time>2025-10-04T14:23:01Z</time>
      </trkpt>
      <trkpt lat="45.98408" lon="4.41497">
        <ele>846</ele>
        <time>2025-10-04T14:23:02Z</time>
      </trkpt>
      <trkpt lat="45.9841" lon="4.41497">
        <ele>846</ele>
        <time>2025-10-04T14:23:03Z</time>
      </trkpt>
      <trkpt lat="45.98412" lon="4.41497">
        <ele>846.4</ele>
        <time>2025-10-04T14:23:04Z</time>
      </trkpt>
      <trkpt lat="45.98414" lon="4.41496">
        <ele>846.4</ele>
        <time>2025-10-04T14:23:05Z</time>
      </trkpt>
      <trkpt lat="45.98416" lon="4.41496">
        <ele>846.4</ele>
        <time>2025-10-04T14:23:06Z</time>
      </trkpt>
      <trkpt lat="45.98418" lon="4.41496">
        <ele>846.4</ele>
        <time>2025-10-04T14:23:07Z</time>
      </trkpt>
      <trkpt lat="45.98421" lon="4.41497">
        <ele>846.4</ele>
        <time>2025-10-04T14:23:08Z</time>
      </trkpt>
      <trkpt lat="45.98423" lon="4.41497">
        <ele>846.6</ele>
        <time>2025-10-04T14:23:09Z</time>
      </trkpt>
      <trkpt lat="45.98426" lon="4.41496">
        <ele>846.6</ele>
        <time>2025-10-04T14:23:10Z</time>
      </trkpt>
      <trkpt lat="45.98426" lon="4.41496">
        <ele>846.4</ele>
        <time>2025-10-04T14:23:11Z</time>
      </trkpt>
      <trkpt lat="45.98428" lon="4.41494">
        <ele>846.2</ele>
        <time>2025-10-04T14:23:12Z</time>
      </trkpt>
      <trkpt lat="45.98429" lon="4.41493">
        <ele>846.2</ele>
        <time>2025-10-04T14:23:13Z</time>
      </trkpt>
      <trkpt lat="45.98431" lon="4.41492">
        <ele>846.4</ele>
        <time>2025-10-04T14:23:14Z</time>
      </trkpt>
      <trkpt lat="45.98431" lon="4.41491">
        <ele>846.4</ele>
        <time>2025-10-04T14:23:15Z</time>
      </trkpt>
      <trkpt lat="45.98433" lon="4.41491">
        <ele>846.4</ele>
        <time>2025-10-04T14:23:16Z</time>
      </trkpt>
      <trkpt lat="45.98435" lon="4.41489">
        <ele>846.4</ele>
        <time>2025-10-04T14:23:17Z</time>
      </trkpt>
      <trkpt lat="45.98436" lon="4.41487">
        <ele>846.4</ele>
        <time>2025-10-04T14:23:18Z</time>
      </trkpt>
      <trkpt lat="45.98438" lon="4.41485">
        <ele>846.4</ele>
        <time>2025-10-04T14:23:19Z</time>
      </trkpt>
      <trkpt lat="45.9844" lon="4.41484">
        <ele>846</ele>
        <time>2025-10-04T14:23:20Z</time>
      </trkpt>
      <trkpt lat="45.98443" lon="4.41483">
        <ele>846.4</ele>
        <time>2025-10-04T14:23:21Z</time>
      </trkpt>
      <trkpt lat="45.98445" lon="4.41481">
        <ele>846.4</ele>
        <time>2025-10-04T14:23:22Z</time>
      </trkpt>
      <trkpt lat="45.98447" lon="4.4148">
        <ele>846.6</ele>
        <time>2025-10-04T14:23:23Z</time>
      </trkpt>
      <trkpt lat="45.9845" lon="4.41479">
        <ele>846.6</ele>
        <time>2025-10-04T14:23:24Z</time>
      </trkpt>
      <trkpt lat="45.98453" lon="4.41477">
        <ele>846.8</ele>
        <time>2025-10-04T14:23:25Z</time>
      </trkpt>
      <trkpt lat="45.98457" lon="4.41476">
        <ele>847.2</ele>
        <time>2025-10-04T14:23:26Z</time>
      </trkpt>
      <trkpt lat="45.9846" lon="4.41476">
        <ele>847.2</ele>
        <time>2025-10-04T14:23:27Z</time>
      </trkpt>
      <trkpt lat="45.98463" lon="4.41475">
        <ele>847.2</ele>
        <time>2025-10-04T14:23:28Z</time>
      </trkpt>
      <trkpt lat="45.98466" lon="4.41474">
        <ele>847.2</ele>
        <time>2025-10-04T14:23:29Z</time>
      </trkpt>
      <trkpt lat="45.98471" lon="4.41473">
        <ele>847.2</ele>
        <time>2025-10-04T14:23:30Z</time>
      </trkpt>
      <trkpt lat="45.98475" lon="4.41473">
        <ele>847.2</ele>
        <time>2025-10-04T14:23:31Z</time>
      </trkpt>
      <trkpt lat="45.9848" lon="4.41473">
        <ele>847</ele>
        <time>2025-10-04T14:23:32Z</time>
      </trkpt>
      <trkpt lat="45.98484" lon="4.41473">
        <ele>847</ele>
        <time>2025-10-04T14:23:33Z</time>
      </trkpt>
      <trkpt lat="45.98489" lon="4.41474">
        <ele>846.6</ele>
        <time>2025-10-04T14:23:34Z</time>
      </trkpt>
      <trkpt lat="45.98494" lon="4.41475">
        <ele>845.8</ele>
        <time>2025-10-04T14:23:35Z</time>
      </trkpt>
      <trkpt lat="45.98498" lon="4.41476">
        <ele>844.8</ele>
        <time>2025-10-04T14:23:36Z</time>
      </trkpt>
      <trkpt lat="45.98503" lon="4.41478">
        <ele>844.8</ele>
        <time>2025-10-04T14:23:37Z</time>
      </trkpt>
      <trkpt lat="45.98507" lon="4.41479">
        <ele>844.8</ele>
        <time>2025-10-04T14:23:38Z</time>
      </trkpt>
      <trkpt lat="45.98516" lon="4.41482">
        <ele>844.8</ele>
        <time>2025-10-04T14:23:39Z</time>
      </trkpt>
      <trkpt lat="45.98519" lon="4.41483">
        <ele>844.8</ele>
        <time>2025-10-04T14:23:40Z</time>
      </trkpt>
      <trkpt lat="45.98523" lon="4.41484">
        <ele>844.8</ele>
        <time>2025-10-04T14:23:41Z</time>
      </trkpt>
      <trkpt lat="45.98527" lon="4.41485">
        <ele>844.8</ele>
        <time>2025-10-04T14:23:42Z</time>
      </trkpt>
      <trkpt lat="45.98532" lon="4.41484">
        <ele>844.8</ele>
        <time>2025-10-04T14:23:43Z</time>
      </trkpt>
      <trkpt lat="45.98536" lon="4.41486">
        <ele>845</ele>
        <time>2025-10-04T14:23:44Z</time>
      </trkpt>
      <trkpt lat="45.9854" lon="4.41486">
        <ele>845.2</ele>
        <time>2025-10-04T14:23:45Z</time>
      </trkpt>
      <trkpt lat="45.98544" lon="4.41486">
        <ele>845.2</ele>
        <time>2025-10-04T14:23:46Z</time>
      </trkpt>
      <trkpt lat="45.98547" lon="4.41487">
        <ele>845.2</ele>
        <time>2025-10-04T14:23:47Z</time>
      </trkpt>
      <trkpt lat="45.98552" lon="4.41488">
        <ele>845.2</ele>
        <time>2025-10-04T14:23:48Z</time>
      </trkpt>
      <trkpt lat="45.98556" lon="4.41489">
        <ele>845.2</ele>
        <time>2025-10-04T14:23:49Z</time>
      </trkpt>
      <trkpt lat="45.98559" lon="4.41487">
        <ele>845.2</ele>
        <time>2025-10-04T14:23:50Z</time>
      </trkpt>
      <trkpt lat="45.98563" lon="4.41486">
        <ele>845.2</ele>
        <time>2025-10-04T14:23:51Z</time>
      </trkpt>
      <trkpt lat="45.98569" lon="4.41488">
        <ele>845</ele>
        <time>2025-10-04T14:23:52Z</time>
      </trkpt>
      <trkpt lat="45.98574" lon="4.41488">
        <ele>845</ele>
        <time>2025-10-04T14:23:53Z</time>
      </trkpt>
      <trkpt lat="45.98578" lon="4.41488">
        <ele>845.6</ele>
        <time>2025-10-04T14:23:54Z</time>
      </trkpt>
      <trkpt lat="45.98581" lon="4.41489">
        <ele>845.6</ele>
        <time>2025-10-04T14:23:55Z</time>
      </trkpt>
      <trkpt lat="45.98587" lon="4.41488">
        <ele>846</ele>
        <time>2025-10-04T14:23:56Z</time>
      </trkpt>
      <trkpt lat="45.98592" lon="4.41487">
        <ele>846</ele>
        <time>2025-10-04T14:23:57Z</time>
      </trkpt>
      <trkpt lat="45.98595" lon="4.41488">
        <ele>846.4</ele>
        <time>2025-10-04T14:23:58Z</time>
      </trkpt>
      <trkpt lat="45.986" lon="4.4149">
        <ele>846.4</ele>
        <time>2025-10-04T14:23:59Z</time>
      </trkpt>
      <trkpt lat="45.98605" lon="4.4149">
        <ele>846.4</ele>
        <time>2025-10-04T14:24:00Z</time>
      </trkpt>
      <trkpt lat="45.98607" lon="4.4149">
        <ele>846.4</ele>
        <time>2025-10-04T14:24:01Z</time>
      </trkpt>
      <trkpt lat="45.9861" lon="4.4149">
        <ele>846.2</ele>
        <time>2025-10-04T14:24:02Z</time>
      </trkpt>
      <trkpt lat="45.98613" lon="4.41489">
        <ele>845.8</ele>
        <time>2025-10-04T14:24:03Z</time>
      </trkpt>
      <trkpt lat="45.98617" lon="4.41488">
        <ele>845.4</ele>
        <time>2025-10-04T14:24:04Z</time>
      </trkpt>
      <trkpt lat="45.98619" lon="4.41489">
        <ele>845.4</ele>
        <time>2025-10-04T14:24:05Z</time>
      </trkpt>
      <trkpt lat="45.98624" lon="4.4149">
        <ele>845.4</ele>
        <time>2025-10-04T14:24:06Z</time>
      </trkpt>
      <trkpt lat="45.98625" lon="4.41487">
        <ele>845.4</ele>
        <time>2025-10-04T14:24:07Z</time>
      </trkpt>
      <trkpt lat="45.98629" lon="4.41488">
        <ele>845.6</ele>
        <time>2025-10-04T14:24:08Z</time>
      </trkpt>
      <trkpt lat="45.98633" lon="4.41489">
        <ele>845.6</ele>
        <time>2025-10-04T14:24:09Z</time>
      </trkpt>
      <trkpt lat="45.98636" lon="4.41488">
        <ele>845.6</ele>
        <time>2025-10-04T14:24:10Z</time>
      </trkpt>
      <trkpt lat="45.98639" lon="4.41488">
        <ele>845.6</ele>
        <time>2025-10-04T14:24:11Z</time>
      </trkpt>
      <trkpt lat="45.98642" lon="4.41488">
        <ele>845.6</ele>
        <time>2025-10-04T14:24:12Z</time>
      </trkpt>
      <trkpt lat="45.98646" lon="4.41487">
        <ele>845.6</ele>
        <time>2025-10-04T14:24:13Z</time>
      </trkpt>
      <trkpt lat="45.9865" lon="4.41487">
        <ele>845.6</ele>
        <time>2025-10-04T14:24:14Z</time>
      </trkpt>
      <trkpt lat="45.98653" lon="4.41485">
        <ele>846.2</ele>
        <time>2025-10-04T14:24:15Z</time>
      </trkpt>
      <trkpt lat="45.98657" lon="4.41484">
        <ele>846.2</ele>
        <time>2025-10-04T14:24:16Z</time>
      </trkpt>
      <trkpt lat="45.9866" lon="4.41484">
        <ele>846.2</ele>
        <time>2025-10-04T14:24:17Z</time>
      </trkpt>
      <trkpt lat="45.98663" lon="4.41484">
        <ele>846.8</ele>
        <time>2025-10-04T14:24:18Z</time>
      </trkpt>
      <trkpt lat="45.98665" lon="4.41484">
        <ele>846.8</ele>
        <time>2025-10-04T14:24:19Z</time>
      </trkpt>
      <trkpt lat="45.98672" lon="4.41483">
        <ele>846.8</ele>
        <time>2025-10-04T14:24:20Z</time>
      </trkpt>
      <trkpt lat="45.98678" lon="4.41484">
        <ele>846.8</ele>
        <time>2025-10-04T14:24:21Z</time>
      </trkpt>
      <trkpt lat="45.9868" lon="4.41484">
        <ele>846.8</ele>
        <time>2025-10-04T14:24:22Z</time>
      </trkpt>
      <trkpt lat="45.98686" lon="4.41481">
        <ele>847</ele>
        <time>2025-10-04T14:24:23Z</time>
      </trkpt>
      <trkpt lat="45.98689" lon="4.41481">
        <ele>847</ele>
        <time>2025-10-04T14:24:24Z</time>
      </trkpt>
      <trkpt lat="45.98693" lon="4.4148">
        <ele>847</ele>
        <time>2025-10-04T14:24:25Z</time>
      </trkpt>
      <trkpt lat="45.98698" lon="4.4148">
        <ele>847</ele>
        <time>2025-10-04T14:24:26Z</time>
      </trkpt>
      <trkpt lat="45.98704" lon="4.41478">
        <ele>847</ele>
        <time>2025-10-04T14:24:27Z</time>
      </trkpt>
      <trkpt lat="45.98708" lon="4.41478">
        <ele>847</ele>
        <time>2025-10-04T14:24:28Z</time>
      </trkpt>
      <trkpt lat="45.98712" lon="4.41476">
        <ele>847.2</ele>
        <time>2025-10-04T14:24:29Z</time>
      </trkpt>
      <trkpt lat="45.98717" lon="4.41472">
        <ele>847.2</ele>
        <time>2025-10-04T14:24:30Z</time>
      </trkpt>
      <trkpt lat="45.98722" lon="4.41474">
        <ele>847</ele>
        <time>2025-10-04T14:24:31Z</time>
      </trkpt>
      <trkpt lat="45.98727" lon="4.41475">
        <ele>847.2</ele>
        <time>2025-10-04T14:24:32Z</time>
      </trkpt>
      <trkpt lat="45.98732" lon="4.41473">
        <ele>847.2</ele>
        <time>2025-10-04T14:24:33Z</time>
      </trkpt>
      <trkpt lat="45.98735" lon="4.41472">
        <ele>847.6</ele>
        <time>2025-10-04T14:24:34Z</time>
      </trkpt>
      <trkpt lat="45.98738" lon="4.41469">
        <ele>847.6</ele>
        <time>2025-10-04T14:24:35Z</time>
      </trkpt>
      <trkpt lat="45.98739" lon="4.41469">
        <ele>847.6</ele>
        <time>2025-10-04T14:24:36Z</time>
      </trkpt>
      <trkpt lat="45.98743" lon="4.41468">
        <ele>848</ele>
        <time>2025-10-04T14:24:37Z</time>
      </trkpt>
      <trkpt lat="45.98748" lon="4.41468">
        <ele>848</ele>
        <time>2025-10-04T14:24:38Z</time>
      </trkpt>
      <trkpt lat="45.98752" lon="4.41467">
        <ele>848</ele>
        <time>2025-10-04T14:24:39Z</time>
      </trkpt>
      <trkpt lat="45.98755" lon="4.41468">
        <ele>848.2</ele>
        <time>2025-10-04T14:24:40Z</time>
      </trkpt>
      <trkpt lat="45.98759" lon="4.41468">
        <ele>848.2</ele>
        <time>2025-10-04T14:24:41Z</time>
      </trkpt>
      <trkpt lat="45.98761" lon="4.41467">
        <ele>848.4</ele>
        <time>2025-10-04T14:24:42Z</time>
      </trkpt>
      <trkpt lat="45.98765" lon="4.41466">
        <ele>848.6</ele>
        <time>2025-10-04T14:24:43Z</time>
      </trkpt>
      <trkpt lat="45.98768" lon="4.41464">
        <ele>848.6</ele>
        <time>2025-10-04T14:24:44Z</time>
      </trkpt>
      <trkpt lat="45.98771" lon="4.41462">
        <ele>849</ele>
        <time>2025-10-04T14:24:45Z</time>
      </trkpt>
      <trkpt lat="45.98774" lon="4.4146">
        <ele>849</ele>
        <time>2025-10-04T14:24:46Z</time>
      </trkpt>
      <trkpt lat="45.98777" lon="4.41459">
        <ele>849.2</ele>
        <time>2025-10-04T14:24:47Z</time>
      </trkpt>
      <trkpt lat="45.9878" lon="4.41457">
        <ele>849.4</ele>
        <time>2025-10-04T14:24:48Z</time>
      </trkpt>
      <trkpt lat="45.98783" lon="4.41455">
        <ele>849.4</ele>
        <time>2025-10-04T14:24:49Z</time>
      </trkpt>
      <trkpt lat="45.98786" lon="4.41453">
        <ele>849.8</ele>
        <time>2025-10-04T14:24:50Z</time>
      </trkpt>
      <trkpt lat="45.98789" lon="4.41452">
        <ele>849.8</ele>
        <time>2025-10-04T14:24:51Z</time>
      </trkpt>
      <trkpt lat="45.98792" lon="4.4145">
        <ele>849.8</ele>
        <time>2025-10-04T14:24:52Z</time>
      </trkpt>
      <trkpt lat="45.98795" lon="4.41448">
        <ele>850.2</ele>
        <time>2025-10-04T14:24:53Z</time>
      </trkpt>
      <trkpt lat="45.98798" lon="4.41446">
        <ele>850.2</ele>
        <time>2025-10-04T14:24:54Z</time>
      </trkpt>
      <trkpt lat="45.988" lon="4.41444">
        <ele>850.2</ele>
        <time>2025-10-04T14:24:55Z</time>
      </trkpt>
      <trkpt lat="45.98802" lon="4.41443">
        <ele>850.4</ele>
        <time>2025-10-04T14:24:56Z</time>
      </trkpt>
      <trkpt lat="45.98804" lon="4.41441">
        <ele>850.4</ele>
        <time>2025-10-04T14:24:57Z</time>
      </trkpt>
      <trkpt lat="45.98806" lon="4.41439">
        <ele>850.8</ele>
        <time>2025-10-04T14:24:58Z</time>
      </trkpt>
      <trkpt lat="45.98807" lon="4.41438">
        <ele>850.8</ele>
        <time>2025-10-04T14:24:59Z</time>
      </trkpt>
      <trkpt lat="45.98808" lon="4.41437">
        <ele>850.8</ele>
        <time>2025-10-04T14:25:00Z</time>
      </trkpt>
      <trkpt lat="45.98808" lon="4.41437">
        <ele>850.8</ele>
        <time>2025-10-04T14:25:01Z</time>
      </trkpt>
      <trkpt lat="45.98807" lon="4.41439">
        <ele>850.6</ele>
        <time>2025-10-04T14:26:05Z</time>
      </trkpt>
      <trkpt lat="45.98806" lon="4.41439">
        <ele>850.6</ele>
        <time>2025-10-04T14:26:06Z</time>
      </trkpt>
      <trkpt lat="45.98806" lon="4.41438">
        <ele>850.6</ele>
        <time>2025-10-04T14:26:07Z</time>
      </trkpt>
      <trkpt lat="45.9881" lon="4.41438">
        <ele>850.4</ele>
        <time>2025-10-04T14:28:16Z</time>
      </trkpt>
      <trkpt lat="45.9881" lon="4.41437">
        <ele>850.4</ele>
        <time>2025-10-04T14:28:17Z</time>
      </trkpt>
      <trkpt lat="45.98811" lon="4.41435">
        <ele>850.4</ele>
        <time>2025-10-04T14:28:22Z</time>
      </trkpt>
      <trkpt lat="45.98813" lon="4.41435">
        <ele>850.6</ele>
        <time>2025-10-04T14:28:23Z</time>
      </trkpt>
      <trkpt lat="45.98815" lon="4.41434">
        <ele>850.6</ele>
        <time>2025-10-04T14:28:24Z</time>
      </trkpt>
      <trkpt lat="45.98817" lon="4.41432">
        <ele>850.6</ele>
        <time>2025-10-04T14:28:25Z</time>
      </trkpt>
      <trkpt lat="45.98819" lon="4.41431">
        <ele>850.6</ele>
        <time>2025-10-04T14:28:26Z</time>
      </trkpt>
      <trkpt lat="45.98822" lon="4.4143">
        <ele>851</ele>
        <time>2025-10-04T14:28:27Z</time>
      </trkpt>
      <trkpt lat="45.98824" lon="4.41429">
        <ele>851</ele>
        <time>2025-10-04T14:28:28Z</time>
      </trkpt>
      <trkpt lat="45.98826" lon="4.41428">
        <ele>851</ele>
        <time>2025-10-04T14:28:29Z</time>
      </trkpt>
      <trkpt lat="45.98829" lon="4.41427">
        <ele>851</ele>
        <time>2025-10-04T14:28:30Z</time>
      </trkpt>
      <trkpt lat="45.98832" lon="4.41426">
        <ele>851.4</ele>
        <time>2025-10-04T14:28:31Z</time>
      </trkpt>
      <trkpt lat="45.98835" lon="4.41425">
        <ele>851.6</ele>
        <time>2025-10-04T14:28:32Z</time>
      </trkpt>
      <trkpt lat="45.98839" lon="4.41424">
        <ele>851.4</ele>
        <time>2025-10-04T14:28:33Z</time>
      </trkpt>
      <trkpt lat="45.98843" lon="4.41423">
        <ele>851.6</ele>
        <time>2025-10-04T14:28:34Z</time>
      </trkpt>
      <trkpt lat="45.98846" lon="4.41422">
        <ele>851.6</ele>
        <time>2025-10-04T14:28:35Z</time>
      </trkpt>
      <trkpt lat="45.98849" lon="4.4142">
        <ele>852</ele>
        <time>2025-10-04T14:28:36Z</time>
      </trkpt>
      <trkpt lat="45.98852" lon="4.41419">
        <ele>852</ele>
        <time>2025-10-04T14:28:37Z</time>
      </trkpt>
      <trkpt lat="45.98853" lon="4.41418">
        <ele>852</ele>
        <time>2025-10-04T14:28:38Z</time>
      </trkpt>
      <trkpt lat="45.98854" lon="4.41417">
        <ele>852.2</ele>
        <time>2025-10-04T14:28:39Z</time>
      </trkpt>
      <trkpt lat="45.98856" lon="4.41417">
        <ele>852.2</ele>
        <time>2025-10-04T14:28:40Z</time>
      </trkpt>
      <trkpt lat="45.98857" lon="4.41416">
        <ele>852.6</ele>
        <time>2025-10-04T14:28:41Z</time>
      </trkpt>
      <trkpt lat="45.98859" lon="4.41415">
        <ele>852.6</ele>
        <time>2025-10-04T14:28:42Z</time>
      </trkpt>
      <trkpt lat="45.98861" lon="4.41415">
        <ele>852.6</ele>
        <time>2025-10-04T14:28:43Z</time>
      </trkpt>
      <trkpt lat="45.98863" lon="4.41414">
        <ele>853</ele>
        <time>2025-10-04T14:28:44Z</time>
      </trkpt>
      <trkpt lat="45.98865" lon="4.41413">
        <ele>853</ele>
        <time>2025-10-04T14:28:45Z</time>
      </trkpt>
      <trkpt lat="45.98868" lon="4.41411">
        <ele>853.4</ele>
        <time>2025-10-04T14:28:46Z</time>
      </trkpt>
      <trkpt lat="45.9887" lon="4.4141">
        <ele>853.8</ele>
        <time>2025-10-04T14:28:47Z</time>
      </trkpt>
      <trkpt lat="45.98873" lon="4.41408">
        <ele>853.4</ele>
        <time>2025-10-04T14:28:48Z</time>
      </trkpt>
      <trkpt lat="45.98875" lon="4.41406">
        <ele>853.4</ele>
        <time>2025-10-04T14:28:49Z</time>
      </trkpt>
      <trkpt lat="45.98877" lon="4.41405">
        <ele>854</ele>
        <time>2025-10-04T14:28:50Z</time>
      </trkpt>
      <trkpt lat="45.98879" lon="4.41404">
        <ele>854.4</ele>
        <time>2025-10-04T14:28:51Z</time>
      </trkpt>
      <trkpt lat="45.98881" lon="4.41402">
        <ele>854.4</ele>
        <time>2025-10-04T14:28:52Z</time>
      </trkpt>
      <trkpt lat="45.98883" lon="4.41401">
        <ele>854.8</ele>
        <time>2025-10-04T14:28:53Z</time>
      </trkpt>
      <trkpt lat="45.98884" lon="4.414">
        <ele>855</ele>
        <time>2025-10-04T14:28:54Z</time>
      </trkpt>
      <trkpt lat="45.98886" lon="4.41399">
        <ele>855.2</ele>
        <time>2025-10-04T14:28:55Z</time>
      </trkpt>
      <trkpt lat="45.98888" lon="4.41399">
        <ele>855.2</ele>
        <time>2025-10-04T14:28:56Z</time>
      </trkpt>
      <trkpt lat="45.9889" lon="4.41399">
        <ele>855.8</ele>
        <time>2025-10-04T14:28:57Z</time>
      </trkpt>
      <trkpt lat="45.98893" lon="4.41398">
        <ele>856</ele>
        <time>2025-10-04T14:28:58Z</time>
      </trkpt>
      <trkpt lat="45.98895" lon="4.41397">
        <ele>856</ele>
        <time>2025-10-04T14:28:59Z</time>
      </trkpt>
      <trkpt lat="45.98897" lon="4.41397">
        <ele>856</ele>
        <time>2025-10-04T14:29:00Z</time>
      </trkpt>
      <trkpt lat="45.98899" lon="4.41396">
        <ele>856</ele>
        <time>2025-10-04T14:29:01Z</time>
      </trkpt>
      <trkpt lat="45.98901" lon="4.41395">
        <ele>856.4</ele>
        <time>2025-10-04T14:29:02Z</time>
      </trkpt>
      <trkpt lat="45.98903" lon="4.41395">
        <ele>856.4</ele>
        <time>2025-10-04T14:29:03Z</time>
      </trkpt>
      <trkpt lat="45.98904" lon="4.41394">
        <ele>856.4</ele>
        <time>2025-10-04T14:29:04Z</time>
      </trkpt>
      <trkpt lat="45.98906" lon="4.41393">
        <ele>856</ele>
        <time>2025-10-04T14:29:05Z</time>
      </trkpt>
      <trkpt lat="45.98907" lon="4.41393">
        <ele>856</ele>
        <time>2025-10-04T14:29:06Z</time>
      </trkpt>
      <trkpt lat="45.98908" lon="4.41393">
        <ele>856</ele>
        <time>2025-10-04T14:29:07Z</time>
      </trkpt>
      <trkpt lat="45.9891" lon="4.41392">
        <ele>855.8</ele>
        <time>2025-10-04T14:29:08Z</time>
      </trkpt>
      <trkpt lat="45.98912" lon="4.41392">
        <ele>856</ele>
        <time>2025-10-04T14:29:09Z</time>
      </trkpt>
      <trkpt lat="45.98915" lon="4.41391">
        <ele>856</ele>
        <time>2025-10-04T14:29:10Z</time>
      </trkpt>
      <trkpt lat="45.98918" lon="4.4139">
        <ele>856.4</ele>
        <time>2025-10-04T14:29:11Z</time>
      </trkpt>
      <trkpt lat="45.98921" lon="4.41389">
        <ele>856.4</ele>
        <time>2025-10-04T14:29:12Z</time>
      </trkpt>
      <trkpt lat="45.98924" lon="4.41388">
        <ele>856.6</ele>
        <time>2025-10-04T14:29:13Z</time>
      </trkpt>
      <trkpt lat="45.98926" lon="4.41387">
        <ele>856.6</ele>
        <time>2025-10-04T14:29:14Z</time>
      </trkpt>
      <trkpt lat="45.98929" lon="4.41385">
        <ele>857</ele>
        <time>2025-10-04T14:29:15Z</time>
      </trkpt>
      <trkpt lat="45.98931" lon="4.41384">
        <ele>857</ele>
        <time>2025-10-04T14:29:16Z</time>
      </trkpt>
      <trkpt lat="45.98935" lon="4.4138">
        <ele>856.8</ele>
        <time>2025-10-04T14:29:17Z</time>
      </trkpt>
      <trkpt lat="45.98938" lon="4.41378">
        <ele>856.8</ele>
        <time>2025-10-04T14:29:18Z</time>
      </trkpt>
      <trkpt lat="45.98941" lon="4.41376">
        <ele>856.8</ele>
        <time>2025-10-04T14:29:19Z</time>
      </trkpt>
      <trkpt lat="45.98943" lon="4.41373">
        <ele>856.8</ele>
        <time>2025-10-04T14:29:20Z</time>
      </trkpt>
      <trkpt lat="45.98945" lon="4.41369">
        <ele>856.8</ele>
        <time>2025-10-04T14:29:21Z</time>
      </trkpt>
      <trkpt lat="45.98946" lon="4.41366">
        <ele>857</ele>
        <time>2025-10-04T14:29:22Z</time>
      </trkpt>
      <trkpt lat="45.98946" lon="4.41364">
        <ele>857</ele>
        <time>2025-10-04T14:29:23Z</time>
      </trkpt>
      <trkpt lat="45.98947" lon="4.41361">
        <ele>857</ele>
        <time>2025-10-04T14:29:24Z</time>
      </trkpt>
      <trkpt lat="45.98947" lon="4.41357">
        <ele>857.2</ele>
        <time>2025-10-04T14:29:25Z</time>
      </trkpt>
      <trkpt lat="45.98946" lon="4.41355">
        <ele>857.6</ele>
        <time>2025-10-04T14:29:26Z</time>
      </trkpt>
      <trkpt lat="45.98945" lon="4.41353">
        <ele>857.6</ele>
        <time>2025-10-04T14:29:27Z</time>
      </trkpt>
      <trkpt lat="45.98944" lon="4.41351">
        <ele>857.6</ele>
        <time>2025-10-04T14:29:28Z</time>
      </trkpt>
      <trkpt lat="45.98942" lon="4.41348">
        <ele>857.6</ele>
        <time>2025-10-04T14:29:29Z</time>
      </trkpt>
      <trkpt lat="45.98941" lon="4.41346">
        <ele>857.6</ele>
        <time>2025-10-04T14:29:30Z</time>
      </trkpt>
      <trkpt lat="45.9894" lon="4.41344">
        <ele>857.6</ele>
        <time>2025-10-04T14:29:31Z</time>
      </trkpt>
      <trkpt lat="45.98939" lon="4.41344">
        <ele>857.2</ele>
        <time>2025-10-04T14:29:32Z</time>
      </trkpt>
      <trkpt lat="45.9894" lon="4.41343">
        <ele>857.2</ele>
        <time>2025-10-04T14:29:33Z</time>
      </trkpt>
      <trkpt lat="45.98941" lon="4.41343">
        <ele>857</ele>
        <time>2025-10-04T14:29:34Z</time>
      </trkpt>
      <trkpt lat="45.98942" lon="4.41345">
        <ele>857</ele>
        <time>2025-10-04T14:29:35Z</time>
      </trkpt>
      <trkpt lat="45.98942" lon="4.41347">
        <ele>856.6</ele>
        <time>2025-10-04T14:29:36Z</time>
      </trkpt>
      <trkpt lat="45.98943" lon="4.4135">
        <ele>856.6</ele>
        <time>2025-10-04T14:29:37Z</time>
      </trkpt>
      <trkpt lat="45.98944" lon="4.41353">
        <ele>857</ele>
        <time>2025-10-04T14:29:38Z</time>
      </trkpt>
      <trkpt lat="45.98946" lon="4.41356">
        <ele>856.4</ele>
        <time>2025-10-04T14:29:39Z</time>
      </trkpt>
      <trkpt lat="45.98948" lon="4.41359">
        <ele>856.2</ele>
        <time>2025-10-04T14:29:40Z</time>
      </trkpt>
      <trkpt lat="45.9895" lon="4.41362">
        <ele>856</ele>
        <time>2025-10-04T14:29:41Z</time>
      </trkpt>
      <trkpt lat="45.98952" lon="4.41365">
        <ele>856</ele>
        <time>2025-10-04T14:29:42Z</time>
      </trkpt>
      <trkpt lat="45.98954" lon="4.41368">
        <ele>855.8</ele>
        <time>2025-10-04T14:29:43Z</time>
      </trkpt>
      <trkpt lat="45.98956" lon="4.41369">
        <ele>855.8</ele>
        <time>2025-10-04T14:29:44Z</time>
      </trkpt>
      <trkpt lat="45.98957" lon="4.4137">
        <ele>855.8</ele>
        <time>2025-10-04T14:29:45Z</time>
      </trkpt>
      <trkpt lat="45.98959" lon="4.41371">
        <ele>855.6</ele>
        <time>2025-10-04T14:29:46Z</time>
      </trkpt>
      <trkpt lat="45.98961" lon="4.41372">
        <ele>855.8</ele>
        <time>2025-10-04T14:29:47Z</time>
      </trkpt>
      <trkpt lat="45.98964" lon="4.41374">
        <ele>855.8</ele>
        <time>2025-10-04T14:29:48Z</time>
      </trkpt>
      <trkpt lat="45.98967" lon="4.41375">
        <ele>855.4</ele>
        <time>2025-10-04T14:29:49Z</time>
      </trkpt>
      <trkpt lat="45.9897" lon="4.41376">
        <ele>855</ele>
        <time>2025-10-04T14:29:50Z</time>
      </trkpt>
      <trkpt lat="45.98974" lon="4.41377">
        <ele>854.6</ele>
        <time>2025-10-04T14:29:51Z</time>
      </trkpt>
      <trkpt lat="45.98977" lon="4.41378">
        <ele>854</ele>
        <time>2025-10-04T14:29:52Z</time>
      </trkpt>
      <trkpt lat="45.98981" lon="4.4138">
        <ele>853.2</ele>
        <time>2025-10-04T14:29:53Z</time>
      </trkpt>
      <trkpt lat="45.98984" lon="4.4138">
        <ele>852.6</ele>
        <time>2025-10-04T14:29:54Z</time>
      </trkpt>
      <trkpt lat="45.98988" lon="4.41381">
        <ele>852.2</ele>
        <time>2025-10-04T14:29:55Z</time>
      </trkpt>
      <trkpt lat="45.98991" lon="4.41382">
        <ele>851.8</ele>
        <time>2025-10-04T14:29:56Z</time>
      </trkpt>
      <trkpt lat="45.98993" lon="4.41386">
        <ele>850.4</ele>
        <time>2025-10-04T14:29:57Z</time>
      </trkpt>
      <trkpt lat="45.98995" lon="4.41392">
        <ele>850.4</ele>
        <time>2025-10-04T14:29:58Z</time>
      </trkpt>
      <trkpt lat="45.98998" lon="4.41397">
        <ele>850.2</ele>
        <time>2025-10-04T14:29:59Z</time>
      </trkpt>
      <trkpt lat="45.99002" lon="4.414">
        <ele>849.2</ele>
        <time>2025-10-04T14:30:00Z</time>
      </trkpt>
      <trkpt lat="45.99006" lon="4.41403">
        <ele>849</ele>
        <time>2025-10-04T14:30:01Z</time>
      </trkpt>
      <trkpt lat="45.9901" lon="4.41406">
        <ele>849</ele>
        <time>2025-10-04T14:30:02Z</time>
      </trkpt>
      <trkpt lat="45.99012" lon="4.41412">
        <ele>848.4</ele>
        <time>2025-10-04T14:30:03Z</time>
      </trkpt>
      <trkpt lat="45.99016" lon="4.41415">
        <ele>847.4</ele>
        <time>2025-10-04T14:30:04Z</time>
      </trkpt>
      <trkpt lat="45.99015" lon="4.41419">
        <ele>847.2</ele>
        <time>2025-10-04T14:30:05Z</time>
      </trkpt>
      <trkpt lat="45.99023" lon="4.41421">
        <ele>846.2</ele>
        <time>2025-10-04T14:30:06Z</time>
      </trkpt>
      <trkpt lat="45.99021" lon="4.41426">
        <ele>846</ele>
        <time>2025-10-04T14:30:07Z</time>
      </trkpt>
      <trkpt lat="45.99024" lon="4.41431">
        <ele>845.6</ele>
        <time>2025-10-04T14:30:08Z</time>
      </trkpt>
      <trkpt lat="45.99026" lon="4.41437">
        <ele>845.6</ele>
        <time>2025-10-04T14:30:09Z</time>
      </trkpt>
      <trkpt lat="45.9903" lon="4.41441">
        <ele>845.2</ele>
        <time>2025-10-04T14:30:10Z</time>
      </trkpt>
      <trkpt lat="45.99033" lon="4.41447">
        <ele>844.8</ele>
        <time>2025-10-04T14:30:11Z</time>
      </trkpt>
      <trkpt lat="45.99037" lon="4.41452">
        <ele>844.2</ele>
        <time>2025-10-04T14:30:12Z</time>
      </trkpt>
      <trkpt lat="45.9904" lon="4.41456">
        <ele>843.4</ele>
        <time>2025-10-04T14:30:13Z</time>
      </trkpt>
      <trkpt lat="45.99043" lon="4.4146">
        <ele>842.8</ele>
        <time>2025-10-04T14:30:14Z</time>
      </trkpt>
      <trkpt lat="45.99047" lon="4.41462">
        <ele>842.2</ele>
        <time>2025-10-04T14:30:15Z</time>
      </trkpt>
      <trkpt lat="45.99049" lon="4.41465">
        <ele>841</ele>
        <time>2025-10-04T14:30:16Z</time>
      </trkpt>
      <trkpt lat="45.99055" lon="4.41472">
        <ele>840.4</ele>
        <time>2025-10-04T14:30:17Z</time>
      </trkpt>
      <trkpt lat="45.99059" lon="4.41475">
        <ele>841</ele>
        <time>2025-10-04T14:30:18Z</time>
      </trkpt>
      <trkpt lat="45.99062" lon="4.4148">
        <ele>841</ele>
        <time>2025-10-04T14:30:19Z</time>
      </trkpt>
      <trkpt lat="45.99065" lon="4.41483">
        <ele>839.6</ele>
        <time>2025-10-04T14:30:20Z</time>
      </trkpt>
      <trkpt lat="45.99067" lon="4.41486">
        <ele>839</ele>
        <time>2025-10-04T14:30:21Z</time>
      </trkpt>
      <trkpt lat="45.99069" lon="4.41488">
        <ele>838.4</ele>
        <time>2025-10-04T14:30:22Z</time>
      </trkpt>
      <trkpt lat="45.9907" lon="4.41489">
        <ele>838</ele>
        <time>2025-10-04T14:30:23Z</time>
      </trkpt>
      <trkpt lat="45.99073" lon="4.41491">
        <ele>837.4</ele>
        <time>2025-10-04T14:30:24Z</time>
      </trkpt>
      <trkpt lat="45.99073" lon="4.41492">
        <ele>837.4</ele>
        <time>2025-10-04T14:30:25Z</time>
      </trkpt>
      <trkpt lat="45.99073" lon="4.41492">
        <ele>837.2</ele>
        <time>2025-10-04T14:30:26Z</time>
      </trkpt>
      <trkpt lat="45.99072" lon="4.41491">
        <ele>837.2</ele>
        <time>2025-10-04T14:30:27Z</time>
      </trkpt>
      <trkpt lat="45.99073" lon="4.41491">
        <ele>836.8</ele>
        <time>2025-10-04T14:30:28Z</time>
      </trkpt>
      <trkpt lat="45.99075" lon="4.41499">
        <ele>836.4</ele>
        <time>2025-10-04T14:30:36Z</time>
      </trkpt>
      <trkpt lat="45.99076" lon="4.41502">
        <ele>836.4</ele>
        <time>2025-10-04T14:30:37Z</time>
      </trkpt>
      <trkpt lat="45.99077" lon="4.41505">
        <ele>836.4</ele>
        <time>2025-10-04T14:30:38Z</time>
      </trkpt>
      <trkpt lat="45.9908" lon="4.41508">
        <ele>837</ele>
        <time>2025-10-04T14:30:39Z</time>
      </trkpt>
      <trkpt lat="45.99083" lon="4.4151">
        <ele>836.6</ele>
        <time>2025-10-04T14:30:40Z</time>
      </trkpt>
      <trkpt lat="45.99085" lon="4.41512">
        <ele>836.6</ele>
        <time>2025-10-04T14:30:41Z</time>
      </trkpt>
      <trkpt lat="45.99088" lon="4.41514">
        <ele>835.8</ele>
        <time>2025-10-04T14:30:42Z</time>
      </trkpt>
      <trkpt lat="45.99091" lon="4.41516">
        <ele>835.2</ele>
        <time>2025-10-04T14:30:43Z</time>
      </trkpt>
      <trkpt lat="45.99093" lon="4.41517">
        <ele>834.6</ele>
        <time>2025-10-04T14:30:44Z</time>
      </trkpt>
      <trkpt lat="45.99096" lon="4.4152">
        <ele>834.6</ele>
        <time>2025-10-04T14:30:45Z</time>
      </trkpt>
      <trkpt lat="45.99098" lon="4.41522">
        <ele>834.4</ele>
        <time>2025-10-04T14:30:46Z</time>
      </trkpt>
      <trkpt lat="45.991" lon="4.41526">
        <ele>833.8</ele>
        <time>2025-10-04T14:30:47Z</time>
      </trkpt>
      <trkpt lat="45.99104" lon="4.4153">
        <ele>833</ele>
        <time>2025-10-04T14:30:48Z</time>
      </trkpt>
      <trkpt lat="45.99106" lon="4.41535">
        <ele>832.2</ele>
        <time>2025-10-04T14:30:49Z</time>
      </trkpt>
      <trkpt lat="45.99108" lon="4.4154">
        <ele>831.4</ele>
        <time>2025-10-04T14:30:50Z</time>
      </trkpt>
      <trkpt lat="45.9911" lon="4.41544">
        <ele>830.8</ele>
        <time>2025-10-04T14:30:51Z</time>
      </trkpt>
      <trkpt lat="45.99114" lon="4.41547">
        <ele>830</ele>
        <time>2025-10-04T14:30:52Z</time>
      </trkpt>
      <trkpt lat="45.99117" lon="4.4155">
        <ele>829.4</ele>
        <time>2025-10-04T14:30:53Z</time>
      </trkpt>
      <trkpt lat="45.9912" lon="4.41553">
        <ele>829.4</ele>
        <time>2025-10-04T14:30:54Z</time>
      </trkpt>
      <trkpt lat="45.99124" lon="4.4156">
        <ele>829.4</ele>
        <time>2025-10-04T14:30:55Z</time>
      </trkpt>
      <trkpt lat="45.99127" lon="4.41565">
        <ele>828.8</ele>
        <time>2025-10-04T14:30:56Z</time>
      </trkpt>
      <trkpt lat="45.99132" lon="4.41569">
        <ele>828.8</ele>
        <time>2025-10-04T14:30:57Z</time>
      </trkpt>
      <trkpt lat="45.99135" lon="4.41573">
        <ele>827.4</ele>
        <time>2025-10-04T14:30:58Z</time>
      </trkpt>
      <trkpt lat="45.99138" lon="4.41576">
        <ele>826.8</ele>
        <time>2025-10-04T14:30:59Z</time>
      </trkpt>
      <trkpt lat="45.99142" lon="4.41582">
        <ele>826</ele>
        <time>2025-10-04T14:31:00Z</time>
      </trkpt>
      <trkpt lat="45.99147" lon="4.41588">
        <ele>825.4</ele>
        <time>2025-10-04T14:31:01Z</time>
      </trkpt>
      <trkpt lat="45.99149" lon="4.41592">
        <ele>824.8</ele>
        <time>2025-10-04T14:31:02Z</time>
      </trkpt>
      <trkpt lat="45.99155" lon="4.41598">
        <ele>823</ele>
        <time>2025-10-04T14:31:03Z</time>
      </trkpt>
      <trkpt lat="45.9916" lon="4.41602">
        <ele>823</ele>
        <time>2025-10-04T14:31:04Z</time>
      </trkpt>
      <trkpt lat="45.99164" lon="4.41608">
        <ele>822</ele>
        <time>2025-10-04T14:31:05Z</time>
      </trkpt>
      <trkpt lat="45.99168" lon="4.41612">
        <ele>822</ele>
        <time>2025-10-04T14:31:06Z</time>
      </trkpt>
      <trkpt lat="45.99175" lon="4.41617">
        <ele>821.2</ele>
        <time>2025-10-04T14:31:07Z</time>
      </trkpt>
      <trkpt lat="45.9918" lon="4.41622">
        <ele>821</ele>
        <time>2025-10-04T14:31:08Z</time>
      </trkpt>
      <trkpt lat="45.99184" lon="4.41623">
        <ele>821</ele>
        <time>2025-10-04T14:31:09Z</time>
      </trkpt>
      <trkpt lat="45.99189" lon="4.41626">
        <ele>817.2</ele>
        <time>2025-10-04T14:31:10Z</time>
      </trkpt>
      <trkpt lat="45.99193" lon="4.41625">
        <ele>817.2</ele>
        <time>2025-10-04T14:31:11Z</time>
      </trkpt>
      <trkpt lat="45.99196" lon="4.41628">
        <ele>817.2</ele>
        <time>2025-10-04T14:31:12Z</time>
      </trkpt>
      <trkpt lat="45.99199" lon="4.41631">
        <ele>816.6</ele>
        <time>2025-10-04T14:31:13Z</time>
      </trkpt>
      <trkpt lat="45.99204" lon="4.4163">
        <ele>816.2</ele>
        <time>2025-10-04T14:31:14Z</time>
      </trkpt>
      <trkpt lat="45.99209" lon="4.4163">
        <ele>816</ele>
        <time>2025-10-04T14:31:15Z</time>
      </trkpt>
      <trkpt lat="45.99214" lon="4.41631">
        <ele>816.4</ele>
        <time>2025-10-04T14:31:16Z</time>
      </trkpt>
      <trkpt lat="45.99216" lon="4.41631">
        <ele>816.2</ele>
        <time>2025-10-04T14:31:17Z</time>
      </trkpt>
      <trkpt lat="45.99219" lon="4.41636">
        <ele>816.2</ele>
        <time>2025-10-04T14:31:18Z</time>
      </trkpt>
      <trkpt lat="45.99221" lon="4.41638">
        <ele>816</ele>
        <time>2025-10-04T14:31:19Z</time>
      </trkpt>
      <trkpt lat="45.99226" lon="4.4164">
        <ele>815.4</ele>
        <time>2025-10-04T14:31:20Z</time>
      </trkpt>
      <trkpt lat="45.99227" lon="4.41642">
        <ele>814.8</ele>
        <time>2025-10-04T14:31:21Z</time>
      </trkpt>
      <trkpt lat="45.99228" lon="4.41643">
        <ele>814.6</ele>
        <time>2025-10-04T14:31:22Z</time>
      </trkpt>
      <trkpt lat="45.9923" lon="4.41644">
        <ele>813.8</ele>
        <time>2025-10-04T14:31:23Z</time>
      </trkpt>
      <trkpt lat="45.99233" lon="4.41645">
        <ele>813.2</ele>
        <time>2025-10-04T14:31:24Z</time>
      </trkpt>
      <trkpt lat="45.99237" lon="4.41649">
        <ele>813.8</ele>
        <time>2025-10-04T14:31:25Z</time>
      </trkpt>
      <trkpt lat="45.99241" lon="4.41653">
        <ele>814</ele>
        <time>2025-10-04T14:31:26Z</time>
      </trkpt>
      <trkpt lat="45.99246" lon="4.41655">
        <ele>812.8</ele>
        <time>2025-10-04T14:31:27Z</time>
      </trkpt>
      <trkpt lat="45.99247" lon="4.41658">
        <ele>811.8</ele>
        <time>2025-10-04T14:31:28Z</time>
      </trkpt>
      <trkpt lat="45.99255" lon="4.41665">
        <ele>810.8</ele>
        <time>2025-10-04T14:31:29Z</time>
      </trkpt>
      <trkpt lat="45.99262" lon="4.41671">
        <ele>810</ele>
        <time>2025-10-04T14:31:30Z</time>
      </trkpt>
      <trkpt lat="45.9927" lon="4.41677">
        <ele>808.8</ele>
        <time>2025-10-04T14:31:31Z</time>
      </trkpt>
      <trkpt lat="45.99277" lon="4.41681">
        <ele>808.8</ele>
        <time>2025-10-04T14:31:32Z</time>
      </trkpt>
      <trkpt lat="45.99282" lon="4.41687">
        <ele>808.4</ele>
        <time>2025-10-04T14:31:33Z</time>
      </trkpt>
      <trkpt lat="45.99282" lon="4.41687">
        <ele>808.2</ele>
        <time>2025-10-04T14:31:34Z</time>
      </trkpt>
      <trkpt lat="45.99288" lon="4.417">
        <ele>808.2</ele>
        <time>2025-10-04T14:31:35Z</time>
      </trkpt>
      <trkpt lat="45.99288" lon="4.417">
        <ele>808.2</ele>
        <time>2025-10-04T14:31:36Z</time>
      </trkpt>
      <trkpt lat="45.99295" lon="4.41706">
        <ele>807.8</ele>
        <time>2025-10-04T14:31:37Z</time>
      </trkpt>
      <trkpt lat="45.99301" lon="4.4171">
        <ele>806.8</ele>
        <time>2025-10-04T14:31:38Z</time>
      </trkpt>
      <trkpt lat="45.99306" lon="4.41716">
        <ele>805.6</ele>
        <time>2025-10-04T14:31:39Z</time>
      </trkpt>
      <trkpt lat="45.99311" lon="4.41722">
        <ele>806.2</ele>
        <time>2025-10-04T14:31:40Z</time>
      </trkpt>
      <trkpt lat="45.99317" lon="4.41728">
        <ele>806.6</ele>
        <time>2025-10-04T14:31:41Z</time>
      </trkpt>
      <trkpt lat="45.99322" lon="4.41733">
        <ele>806.6</ele>
        <time>2025-10-04T14:31:42Z</time>
      </trkpt>
      <trkpt lat="45.99326" lon="4.41738">
        <ele>806.6</ele>
        <time>2025-10-04T14:31:43Z</time>
      </trkpt>
      <trkpt lat="45.99331" lon="4.41744">
        <ele>806.6</ele>
        <time>2025-10-04T14:31:44Z</time>
      </trkpt>
      <trkpt lat="45.99332" lon="4.41746">
        <ele>806.6</ele>
        <time>2025-10-04T14:31:45Z</time>
      </trkpt>
      <trkpt lat="45.99334" lon="4.41749">
        <ele>806.2</ele>
        <time>2025-10-04T14:31:46Z</time>
      </trkpt>
      <trkpt lat="45.99335" lon="4.41751">
        <ele>806.2</ele>
        <time>2025-10-04T14:31:47Z</time>
      </trkpt>
      <trkpt lat="45.99335" lon="4.41751">
        <ele>806</ele>
        <time>2025-10-04T14:31:48Z</time>
      </trkpt>
      <trkpt lat="45.99335" lon="4.41752">
        <ele>806</ele>
        <time>2025-10-04T14:31:49Z</time>
      </trkpt>
      <trkpt lat="45.99334" lon="4.41753">
        <ele>806</ele>
        <time>2025-10-04T14:31:50Z</time>
      </trkpt>
      <trkpt lat="45.99335" lon="4.41752">
        <ele>805.8</ele>
        <time>2025-10-04T14:32:26Z</time>
      </trkpt>
      <trkpt lat="45.99336" lon="4.41752">
        <ele>805.8</ele>
        <time>2025-10-04T14:32:27Z</time>
      </trkpt>
      <trkpt lat="45.99337" lon="4.41753">
        <ele>805.8</ele>
        <time>2025-10-04T14:32:28Z</time>
      </trkpt>
      <trkpt lat="45.99338" lon="4.41754">
        <ele>806.2</ele>
        <time>2025-10-04T14:32:29Z</time>
      </trkpt>
      <trkpt lat="45.99338" lon="4.41756">
        <ele>806</ele>
        <time>2025-10-04T14:32:30Z</time>
      </trkpt>
      <trkpt lat="45.99341" lon="4.41759">
        <ele>806</ele>
        <time>2025-10-04T14:32:31Z</time>
      </trkpt>
      <trkpt lat="45.99344" lon="4.41762">
        <ele>804</ele>
        <time>2025-10-04T14:32:32Z</time>
      </trkpt>
      <trkpt lat="45.99347" lon="4.41764">
        <ele>803</ele>
        <time>2025-10-04T14:32:33Z</time>
      </trkpt>
      <trkpt lat="45.9935" lon="4.41767">
        <ele>803.4</ele>
        <time>2025-10-04T14:32:34Z</time>
      </trkpt>
      <trkpt lat="45.99354" lon="4.41769">
        <ele>804.4</ele>
        <time>2025-10-04T14:32:35Z</time>
      </trkpt>
      <trkpt lat="45.99364" lon="4.41774">
        <ele>804.4</ele>
        <time>2025-10-04T14:32:36Z</time>
      </trkpt>
      <trkpt lat="45.99366" lon="4.41775">
        <ele>804.4</ele>
        <time>2025-10-04T14:32:37Z</time>
      </trkpt>
      <trkpt lat="45.9937" lon="4.4178">
        <ele>805.2</ele>
        <time>2025-10-04T14:32:38Z</time>
      </trkpt>
      <trkpt lat="45.99373" lon="4.41783">
        <ele>804.6</ele>
        <time>2025-10-04T14:32:39Z</time>
      </trkpt>
      <trkpt lat="45.99379" lon="4.41786">
        <ele>803.6</ele>
        <time>2025-10-04T14:32:40Z</time>
      </trkpt>
      <trkpt lat="45.99381" lon="4.41791">
        <ele>803.2</ele>
        <time>2025-10-04T14:32:41Z</time>
      </trkpt>
      <trkpt lat="45.99384" lon="4.41794">
        <ele>803.2</ele>
        <time>2025-10-04T14:32:42Z</time>
      </trkpt>
      <trkpt lat="45.99384" lon="4.41797">
        <ele>802.4</ele>
        <time>2025-10-04T14:32:43Z</time>
      </trkpt>
      <trkpt lat="45.99388" lon="4.418">
        <ele>802</ele>
        <time>2025-10-04T14:32:44Z</time>
      </trkpt>
      <trkpt lat="45.99391" lon="4.41806">
        <ele>801.8</ele>
        <time>2025-10-04T14:32:45Z</time>
      </trkpt>
      <trkpt lat="45.99395" lon="4.41809">
        <ele>801.8</ele>
        <time>2025-10-04T14:32:46Z</time>
      </trkpt>
      <trkpt lat="45.99398" lon="4.41813">
        <ele>801.2</ele>
        <time>2025-10-04T14:32:47Z</time>
      </trkpt>
      <trkpt lat="45.99401" lon="4.41815">
        <ele>800.6</ele>
        <time>2025-10-04T14:32:48Z</time>
      </trkpt>
      <trkpt lat="45.99404" lon="4.41817">
        <ele>800.2</ele>
        <time>2025-10-04T14:32:49Z</time>
      </trkpt>
      <trkpt lat="45.99408" lon="4.41819">
        <ele>799.6</ele>
        <time>2025-10-04T14:32:50Z</time>
      </trkpt>
      <trkpt lat="45.99412" lon="4.4182">
        <ele>799</ele>
        <time>2025-10-04T14:32:51Z</time>
      </trkpt>
      <trkpt lat="45.99416" lon="4.4182">
        <ele>798.8</ele>
        <time>2025-10-04T14:32:52Z</time>
      </trkpt>
      <trkpt lat="45.99419" lon="4.41821">
        <ele>798</ele>
        <time>2025-10-04T14:32:53Z</time>
      </trkpt>
      <trkpt lat="45.99422" lon="4.4182">
        <ele>797.6</ele>
        <time>2025-10-04T14:32:54Z</time>
      </trkpt>
      <trkpt lat="45.99424" lon="4.41818">
        <ele>797.4</ele>
        <time>2025-10-04T14:32:55Z</time>
      </trkpt>
      <trkpt lat="45.99426" lon="4.41816">
        <ele>797</ele>
        <time>2025-10-04T14:32:56Z</time>
      </trkpt>
      <trkpt lat="45.99429" lon="4.41813">
        <ele>796.6</ele>
        <time>2025-10-04T14:32:57Z</time>
      </trkpt>
      <trkpt lat="45.99432" lon="4.41811">
        <ele>796.6</ele>
        <time>2025-10-04T14:32:58Z</time>
      </trkpt>
      <trkpt lat="45.99434" lon="4.4181">
        <ele>796.6</ele>
        <time>2025-10-04T14:32:59Z</time>
      </trkpt>
      <trkpt lat="45.99435" lon="4.4181">
        <ele>796.2</ele>
        <time>2025-10-04T14:33:00Z</time>
      </trkpt>
      <trkpt lat="45.99435" lon="4.4181">
        <ele>796</ele>
        <time>2025-10-04T14:33:01Z</time>
      </trkpt>
      <trkpt lat="45.99435" lon="4.41809">
        <ele>796</ele>
        <time>2025-10-04T14:33:02Z</time>
      </trkpt>
      <trkpt lat="45.99433" lon="4.4181">
        <ele>796</ele>
        <time>2025-10-04T14:33:03Z</time>
      </trkpt>
      <trkpt lat="45.99433" lon="4.4181">
        <ele>795.6</ele>
        <time>2025-10-04T14:33:04Z</time>
      </trkpt>
      <trkpt lat="45.99438" lon="4.41807">
        <ele>795.4</ele>
        <time>2025-10-04T14:34:09Z</time>
      </trkpt>
      <trkpt lat="45.99439" lon="4.41806">
        <ele>795.4</ele>
        <time>2025-10-04T14:34:10Z</time>
      </trkpt>
      <trkpt lat="45.99441" lon="4.41806">
        <ele>795.2</ele>
        <time>2025-10-04T14:34:11Z</time>
      </trkpt>
      <trkpt lat="45.99444" lon="4.41806">
        <ele>795.2</ele>
        <time>2025-10-04T14:34:12Z</time>
      </trkpt>
      <trkpt lat="45.99446" lon="4.41805">
        <ele>794.8</ele>
        <time>2025-10-04T14:34:13Z</time>
      </trkpt>
      <trkpt lat="45.99449" lon="4.41805">
        <ele>794.2</ele>
        <time>2025-10-04T14:34:14Z</time>
      </trkpt>
      <trkpt lat="45.99452" lon="4.41805">
        <ele>794.2</ele>
        <time>2025-10-04T14:34:15Z</time>
      </trkpt>
      <trkpt lat="45.99455" lon="4.41805">
        <ele>794</ele>
        <time>2025-10-04T14:34:16Z</time>
      </trkpt>
      <trkpt lat="45.99459" lon="4.41805">
        <ele>794</ele>
        <time>2025-10-04T14:34:17Z</time>
      </trkpt>
      <trkpt lat="45.99462" lon="4.41806">
        <ele>794</ele>
        <time>2025-10-04T14:34:18Z</time>
      </trkpt>
      <trkpt lat="45.99466" lon="4.41807">
        <ele>793.6</ele>
        <time>2025-10-04T14:34:19Z</time>
      </trkpt>
      <trkpt lat="45.9947" lon="4.41808">
        <ele>793.4</ele>
        <time>2025-10-04T14:34:20Z</time>
      </trkpt>
      <trkpt lat="45.99473" lon="4.4181">
        <ele>792.8</ele>
        <time>2025-10-04T14:34:21Z</time>
      </trkpt>
      <trkpt lat="45.99476" lon="4.41812">
        <ele>792.8</ele>
        <time>2025-10-04T14:34:22Z</time>
      </trkpt>
      <trkpt lat="45.99479" lon="4.41815">
        <ele>793.4</ele>
        <time>2025-10-04T14:34:23Z</time>
      </trkpt>
      <trkpt lat="45.99481" lon="4.41817">
        <ele>793</ele>
        <time>2025-10-04T14:34:24Z</time>
      </trkpt>
      <trkpt lat="45.99484" lon="4.41819">
        <ele>792.8</ele>
        <time>2025-10-04T14:34:25Z</time>
      </trkpt>
      <trkpt lat="45.99487" lon="4.41821">
        <ele>792.8</ele>
        <time>2025-10-04T14:34:26Z</time>
      </trkpt>
      <trkpt lat="45.99489" lon="4.41822">
        <ele>791.4</ele>
        <time>2025-10-04T14:34:27Z</time>
      </trkpt>
      <trkpt lat="45.99491" lon="4.41824">
        <ele>791.4</ele>
        <time>2025-10-04T14:34:28Z</time>
      </trkpt>
      <trkpt lat="45.99492" lon="4.41826">
        <ele>791.6</ele>
        <time>2025-10-04T14:34:29Z</time>
      </trkpt>
      <trkpt lat="45.99494" lon="4.41828">
        <ele>791.6</ele>
        <time>2025-10-04T14:34:30Z</time>
      </trkpt>
      <trkpt lat="45.99496" lon="4.41831">
        <ele>791.6</ele>
        <time>2025-10-04T14:34:31Z</time>
      </trkpt>
      <trkpt lat="45.99497" lon="4.41834">
        <ele>791.4</ele>
        <time>2025-10-04T14:34:32Z</time>
      </trkpt>
      <trkpt lat="45.99499" lon="4.41837">
        <ele>791</ele>
        <time>2025-10-04T14:34:33Z</time>
      </trkpt>
      <trkpt lat="45.995" lon="4.41839">
        <ele>791</ele>
        <time>2025-10-04T14:34:34Z</time>
      </trkpt>
      <trkpt lat="45.99501" lon="4.41842">
        <ele>790.8</ele>
        <time>2025-10-04T14:34:35Z</time>
      </trkpt>
      <trkpt lat="45.99503" lon="4.41843">
        <ele>790.8</ele>
        <time>2025-10-04T14:34:36Z</time>
      </trkpt>
      <trkpt lat="45.99504" lon="4.41846">
        <ele>790.8</ele>
        <time>2025-10-04T14:34:37Z</time>
      </trkpt>
      <trkpt lat="45.99506" lon="4.41848">
        <ele>790.2</ele>
        <time>2025-10-04T14:34:38Z</time>
      </trkpt>
      <trkpt lat="45.99508" lon="4.41851">
        <ele>790.2</ele>
        <time>2025-10-04T14:34:39Z</time>
      </trkpt>
      <trkpt lat="45.99511" lon="4.41855">
        <ele>789.8</ele>
        <time>2025-10-04T14:34:40Z</time>
      </trkpt>
      <trkpt lat="45.99518" lon="4.41859">
        <ele>789.2</ele>
        <time>2025-10-04T14:34:41Z</time>
      </trkpt>
      <trkpt lat="45.99529" lon="4.41861">
        <ele>788.6</ele>
        <time>2025-10-04T14:34:42Z</time>
      </trkpt>
      <trkpt lat="45.99541" lon="4.41864">
        <ele>788.6</ele>
        <time>2025-10-04T14:34:43Z</time>
      </trkpt>
      <trkpt lat="45.99555" lon="4.41869">
        <ele>788.2</ele>
        <time>2025-10-04T14:34:44Z</time>
      </trkpt>
      <trkpt lat="45.99558" lon="4.41873">
        <ele>788.2</ele>
        <time>2025-10-04T14:34:45Z</time>
      </trkpt>
      <trkpt lat="45.99564" lon="4.41875">
        <ele>787.8</ele>
        <time>2025-10-04T14:34:46Z</time>
      </trkpt>
      <trkpt lat="45.9957" lon="4.41877">
        <ele>787.4</ele>
        <time>2025-10-04T14:34:47Z</time>
      </trkpt>
      <trkpt lat="45.99575" lon="4.4188">
        <ele>787.4</ele>
        <time>2025-10-04T14:34:48Z</time>
      </trkpt>
      <trkpt lat="45.9958" lon="4.41882">
        <ele>787.4</ele>
        <time>2025-10-04T14:34:49Z</time>
      </trkpt>
      <trkpt lat="45.99584" lon="4.41883">
        <ele>787</ele>
        <time>2025-10-04T14:34:50Z</time>
      </trkpt>
      <trkpt lat="45.99588" lon="4.41883">
        <ele>786.2</ele>
        <time>2025-10-04T14:34:51Z</time>
      </trkpt>
      <trkpt lat="45.99595" lon="4.41885">
        <ele>786.6</ele>
        <time>2025-10-04T14:34:52Z</time>
      </trkpt>
      <trkpt lat="45.99599" lon="4.41886">
        <ele>786.6</ele>
        <time>2025-10-04T14:34:53Z</time>
      </trkpt>
      <trkpt lat="45.99603" lon="4.41884">
        <ele>786.8</ele>
        <time>2025-10-04T14:34:54Z</time>
      </trkpt>
      <trkpt lat="45.99607" lon="4.41884">
        <ele>786.8</ele>
        <time>2025-10-04T14:34:55Z</time>
      </trkpt>
      <trkpt lat="45.9961" lon="4.41885">
        <ele>786.8</ele>
        <time>2025-10-04T14:34:56Z</time>
      </trkpt>
      <trkpt lat="45.9961" lon="4.41886">
        <ele>786.8</ele>
        <time>2025-10-04T14:34:57Z</time>
      </trkpt>
      <trkpt lat="45.99614" lon="4.41887">
        <ele>786.8</ele>
        <time>2025-10-04T14:34:58Z</time>
      </trkpt>
      <trkpt lat="45.99614" lon="4.41887">
        <ele>786.8</ele>
        <time>2025-10-04T14:34:59Z</time>
      </trkpt>
      <trkpt lat="45.99619" lon="4.41887">
        <ele>787.2</ele>
        <time>2025-10-04T14:35:00Z</time>
      </trkpt>
      <trkpt lat="45.99631" lon="4.41887">
        <ele>786.4</ele>
        <time>2025-10-04T14:35:01Z</time>
      </trkpt>
      <trkpt lat="45.99635" lon="4.41888">
        <ele>786.8</ele>
        <time>2025-10-04T14:35:02Z</time>
      </trkpt>
      <trkpt lat="45.99637" lon="4.41888">
        <ele>786.8</ele>
        <time>2025-10-04T14:35:03Z</time>
      </trkpt>
      <trkpt lat="45.99641" lon="4.41887">
        <ele>787</ele>
        <time>2025-10-04T14:35:04Z</time>
      </trkpt>
      <trkpt lat="45.99644" lon="4.41887">
        <ele>787.8</ele>
        <time>2025-10-04T14:35:05Z</time>
      </trkpt>
      <trkpt lat="45.99647" lon="4.41886">
        <ele>788.4</ele>
        <time>2025-10-04T14:35:06Z</time>
      </trkpt>
      <trkpt lat="45.9965" lon="4.41886">
        <ele>788.4</ele>
        <time>2025-10-04T14:35:07Z</time>
      </trkpt>
      <trkpt lat="45.99653" lon="4.41886">
        <ele>788.8</ele>
        <time>2025-10-04T14:35:08Z</time>
      </trkpt>
      <trkpt lat="45.99656" lon="4.41886">
        <ele>788.8</ele>
        <time>2025-10-04T14:35:09Z</time>
      </trkpt>
      <trkpt lat="45.99658" lon="4.41885">
        <ele>789</ele>
        <time>2025-10-04T14:35:10Z</time>
      </trkpt>
      <trkpt lat="45.9966" lon="4.41883">
        <ele>789.2</ele>
        <time>2025-10-04T14:35:11Z</time>
      </trkpt>
      <trkpt lat="45.99662" lon="4.41883">
        <ele>789.2</ele>
        <time>2025-10-04T14:35:12Z</time>
      </trkpt>
      <trkpt lat="45.99664" lon="4.41882">
        <ele>789.6</ele>
        <time>2025-10-04T14:35:13Z</time>
      </trkpt>
      <trkpt lat="45.99666" lon="4.41882">
        <ele>789.6</ele>
        <time>2025-10-04T14:35:14Z</time>
      </trkpt>
      <trkpt lat="45.99668" lon="4.41881">
        <ele>789.4</ele>
        <time>2025-10-04T14:35:15Z</time>
      </trkpt>
      <trkpt lat="45.9967" lon="4.41881">
        <ele>789.4</ele>
        <time>2025-10-04T14:35:16Z</time>
      </trkpt>
      <trkpt lat="45.99672" lon="4.4188">
        <ele>789.4</ele>
        <time>2025-10-04T14:35:17Z</time>
      </trkpt>
      <trkpt lat="45.99673" lon="4.41879">
        <ele>789</ele>
        <time>2025-10-04T14:35:18Z</time>
      </trkpt>
      <trkpt lat="45.99675" lon="4.41879">
        <ele>789.6</ele>
        <time>2025-10-04T14:35:19Z</time>
      </trkpt>
      <trkpt lat="45.99676" lon="4.41879">
        <ele>789.2</ele>
        <time>2025-10-04T14:35:20Z</time>
      </trkpt>
      <trkpt lat="45.99679" lon="4.41878">
        <ele>789.2</ele>
        <time>2025-10-04T14:35:21Z</time>
      </trkpt>
      <trkpt lat="45.99681" lon="4.41877">
        <ele>789.2</ele>
        <time>2025-10-04T14:35:22Z</time>
      </trkpt>
      <trkpt lat="45.99684" lon="4.41876">
        <ele>788.6</ele>
        <time>2025-10-04T14:35:23Z</time>
      </trkpt>
      <trkpt lat="45.99687" lon="4.41876">
        <ele>788.2</ele>
        <time>2025-10-04T14:35:24Z</time>
      </trkpt>
      <trkpt lat="45.99692" lon="4.41876">
        <ele>788</ele>
        <time>2025-10-04T14:35:25Z</time>
      </trkpt>
      <trkpt lat="45.99699" lon="4.41875">
        <ele>787</ele>
        <time>2025-10-04T14:35:26Z</time>
      </trkpt>
      <trkpt lat="45.99702" lon="4.41873">
        <ele>787</ele>
        <time>2025-10-04T14:35:27Z</time>
      </trkpt>
      <trkpt lat="45.99707" lon="4.41872">
        <ele>785.8</ele>
        <time>2025-10-04T14:35:28Z</time>
      </trkpt>
      <trkpt lat="45.99714" lon="4.41875">
        <ele>785</ele>
        <time>2025-10-04T14:35:29Z</time>
      </trkpt>
      <trkpt lat="45.99719" lon="4.41877">
        <ele>783.8</ele>
        <time>2025-10-04T14:35:30Z</time>
      </trkpt>
      <trkpt lat="45.99726" lon="4.41877">
        <ele>782.8</ele>
        <time>2025-10-04T14:35:31Z</time>
      </trkpt>
      <trkpt lat="45.99733" lon="4.41883">
        <ele>781.8</ele>
        <time>2025-10-04T14:35:32Z</time>
      </trkpt>
      <trkpt lat="45.99742" lon="4.41885">
        <ele>780.6</ele>
        <time>2025-10-04T14:35:33Z</time>
      </trkpt>
      <trkpt lat="45.99751" lon="4.41887">
        <ele>779.4</ele>
        <time>2025-10-04T14:35:34Z</time>
      </trkpt>
      <trkpt lat="45.99757" lon="4.41891">
        <ele>778.6</ele>
        <time>2025-10-04T14:35:35Z</time>
      </trkpt>
      <trkpt lat="45.99765" lon="4.41896">
        <ele>777.4</ele>
        <time>2025-10-04T14:35:36Z</time>
      </trkpt>
      <trkpt lat="45.99777" lon="4.419">
        <ele>776.2</ele>
        <time>2025-10-04T14:35:37Z</time>
      </trkpt>
      <trkpt lat="45.99785" lon="4.41904">
        <ele>775</ele>
        <time>2025-10-04T14:35:38Z</time>
      </trkpt>
      <trkpt lat="45.99794" lon="4.41905">
        <ele>774.2</ele>
        <time>2025-10-04T14:35:39Z</time>
      </trkpt>
      <trkpt lat="45.99799" lon="4.41906">
        <ele>773.8</ele>
        <time>2025-10-04T14:35:40Z</time>
      </trkpt>
      <trkpt lat="45.99807" lon="4.41909">
        <ele>773.2</ele>
        <time>2025-10-04T14:35:41Z</time>
      </trkpt>
      <trkpt lat="45.99815" lon="4.41907">
        <ele>772.8</ele>
        <time>2025-10-04T14:35:42Z</time>
      </trkpt>
      <trkpt lat="45.99823" lon="4.41909">
        <ele>772.4</ele>
        <time>2025-10-04T14:35:43Z</time>
      </trkpt>
      <trkpt lat="45.99829" lon="4.4191">
        <ele>772.4</ele>
        <time>2025-10-04T14:35:44Z</time>
      </trkpt>
      <trkpt lat="45.99832" lon="4.41908">
        <ele>772</ele>
        <time>2025-10-04T14:35:45Z</time>
      </trkpt>
      <trkpt lat="45.99836" lon="4.41908">
        <ele>771.4</ele>
        <time>2025-10-04T14:35:46Z</time>
      </trkpt>
      <trkpt lat="45.99838" lon="4.41906">
        <ele>771.4</ele>
        <time>2025-10-04T14:35:47Z</time>
      </trkpt>
      <trkpt lat="45.9984" lon="4.41907">
        <ele>771</ele>
        <time>2025-10-04T14:35:48Z</time>
      </trkpt>
      <trkpt lat="45.99841" lon="4.41908">
        <ele>771</ele>
        <time>2025-10-04T14:35:49Z</time>
      </trkpt>
      <trkpt lat="45.99842" lon="4.41907">
        <ele>770.8</ele>
        <time>2025-10-04T14:35:50Z</time>
      </trkpt>
      <trkpt lat="45.99842" lon="4.41906">
        <ele>770.8</ele>
        <time>2025-10-04T14:35:51Z</time>
      </trkpt>
      <trkpt lat="45.99842" lon="4.41906">
        <ele>771</ele>
        <time>2025-10-04T14:35:52Z</time>
      </trkpt>
      <trkpt lat="45.99841" lon="4.41906">
        <ele>771.2</ele>
        <time>2025-10-04T14:35:53Z</time>
      </trkpt>
      <trkpt lat="45.99845" lon="4.41905">
        <ele>771.2</ele>
        <time>2025-10-04T14:35:54Z</time>
      </trkpt>
      <trkpt lat="45.99846" lon="4.41905">
        <ele>771.2</ele>
        <time>2025-10-04T14:35:55Z</time>
      </trkpt>
      <trkpt lat="45.9985" lon="4.41903">
        <ele>771.2</ele>
        <time>2025-10-04T14:35:56Z</time>
      </trkpt>
      <trkpt lat="45.99852" lon="4.41903">
        <ele>771.6</ele>
        <time>2025-10-04T14:35:57Z</time>
      </trkpt>
      <trkpt lat="45.99853" lon="4.41901">
        <ele>771.6</ele>
        <time>2025-10-04T14:35:58Z</time>
      </trkpt>
      <trkpt lat="45.99855" lon="4.419">
        <ele>771.6</ele>
        <time>2025-10-04T14:35:59Z</time>
      </trkpt>
      <trkpt lat="45.99856" lon="4.41899">
        <ele>771.6</ele>
        <time>2025-10-04T14:36:00Z</time>
      </trkpt>
      <trkpt lat="45.99858" lon="4.41896">
        <ele>771.6</ele>
        <time>2025-10-04T14:36:01Z</time>
      </trkpt>
      <trkpt lat="45.9986" lon="4.41893">
        <ele>771.6</ele>
        <time>2025-10-04T14:36:02Z</time>
      </trkpt>
      <trkpt lat="45.99863" lon="4.4189">
        <ele>771.6</ele>
        <time>2025-10-04T14:36:03Z</time>
      </trkpt>
      <trkpt lat="45.99866" lon="4.41887">
        <ele>771.6</ele>
        <time>2025-10-04T14:36:04Z</time>
      </trkpt>
      <trkpt lat="45.9987" lon="4.41883">
        <ele>771.6</ele>
        <time>2025-10-04T14:36:05Z</time>
      </trkpt>
      <trkpt lat="45.99874" lon="4.4188">
        <ele>771.2</ele>
        <time>2025-10-04T14:36:06Z</time>
      </trkpt>
      <trkpt lat="45.99878" lon="4.41877">
        <ele>771</ele>
        <time>2025-10-04T14:36:07Z</time>
      </trkpt>
      <trkpt lat="45.99881" lon="4.41874">
        <ele>770.6</ele>
        <time>2025-10-04T14:36:08Z</time>
      </trkpt>
      <trkpt lat="45.99884" lon="4.4187">
        <ele>770.6</ele>
        <time>2025-10-04T14:36:09Z</time>
      </trkpt>
      <trkpt lat="45.99887" lon="4.41867">
        <ele>770.6</ele>
        <time>2025-10-04T14:36:10Z</time>
      </trkpt>
      <trkpt lat="45.99889" lon="4.41863">
        <ele>770.6</ele>
        <time>2025-10-04T14:36:11Z</time>
      </trkpt>
      <trkpt lat="45.99892" lon="4.4186">
        <ele>770.6</ele>
        <time>2025-10-04T14:36:12Z</time>
      </trkpt>
      <trkpt lat="45.99895" lon="4.41857">
        <ele>770.6</ele>
        <time>2025-10-04T14:36:13Z</time>
      </trkpt>
      <trkpt lat="45.99898" lon="4.41854">
        <ele>770.6</ele>
        <time>2025-10-04T14:36:14Z</time>
      </trkpt>
      <trkpt lat="45.99901" lon="4.4185">
        <ele>771.2</ele>
        <time>2025-10-04T14:36:15Z</time>
      </trkpt>
      <trkpt lat="45.99904" lon="4.41843">
        <ele>771.2</ele>
        <time>2025-10-04T14:36:16Z</time>
      </trkpt>
      <trkpt lat="45.99907" lon="4.41839">
        <ele>771.4</ele>
        <time>2025-10-04T14:36:17Z</time>
      </trkpt>
      <trkpt lat="45.9991" lon="4.41836">
        <ele>771.4</ele>
        <time>2025-10-04T14:36:18Z</time>
      </trkpt>
      <trkpt lat="45.99914" lon="4.41832">
        <ele>771.4</ele>
        <time>2025-10-04T14:36:19Z</time>
      </trkpt>
      <trkpt lat="45.99915" lon="4.41827">
        <ele>771.6</ele>
        <time>2025-10-04T14:36:20Z</time>
      </trkpt>
      <trkpt lat="45.99918" lon="4.41821">
        <ele>771.6</ele>
        <time>2025-10-04T14:36:21Z</time>
      </trkpt>
      <trkpt lat="45.99923" lon="4.41818">
        <ele>771.6</ele>
        <time>2025-10-04T14:36:22Z</time>
      </trkpt>
      <trkpt lat="45.99926" lon="4.41814">
        <ele>772</ele>
        <time>2025-10-04T14:36:23Z</time>
      </trkpt>
      <trkpt lat="45.9993" lon="4.4181">
        <ele>772.4</ele>
        <time>2025-10-04T14:36:24Z</time>
      </trkpt>
      <trkpt lat="45.99933" lon="4.41806">
        <ele>772.4</ele>
        <time>2025-10-04T14:36:25Z</time>
      </trkpt>
      <trkpt lat="45.99936" lon="4.41804">
        <ele>772.8</ele>
        <time>2025-10-04T14:36:26Z</time>
      </trkpt>
      <trkpt lat="45.99937" lon="4.41803">
        <ele>772.8</ele>
        <time>2025-10-04T14:36:27Z</time>
      </trkpt>
      <trkpt lat="45.9994" lon="4.418">
        <ele>773</ele>
        <time>2025-10-04T14:36:28Z</time>
      </trkpt>
      <trkpt lat="45.99942" lon="4.41798">
        <ele>773</ele>
        <time>2025-10-04T14:36:29Z</time>
      </trkpt>
      <trkpt lat="45.99944" lon="4.41796">
        <ele>773.4</ele>
        <time>2025-10-04T14:36:30Z</time>
      </trkpt>
      <trkpt lat="45.99946" lon="4.41791">
        <ele>773.4</ele>
        <time>2025-10-04T14:36:31Z</time>
      </trkpt>
      <trkpt lat="45.99946" lon="4.41793">
        <ele>773.8</ele>
        <time>2025-10-04T14:36:32Z</time>
      </trkpt>
      <trkpt lat="45.99949" lon="4.4179">
        <ele>773.8</ele>
        <time>2025-10-04T14:36:33Z</time>
      </trkpt>
      <trkpt lat="45.99949" lon="4.41787">
        <ele>773.8</ele>
        <time>2025-10-04T14:36:34Z</time>
      </trkpt>
      <trkpt lat="45.99951" lon="4.41784">
        <ele>773.8</ele>
        <time>2025-10-04T14:36:35Z</time>
      </trkpt>
      <trkpt lat="45.99952" lon="4.41781">
        <ele>773.8</ele>
        <time>2025-10-04T14:36:36Z</time>
      </trkpt>
      <trkpt lat="45.99957" lon="4.4177">
        <ele>773.6</ele>
        <time>2025-10-04T14:36:37Z</time>
      </trkpt>
      <trkpt lat="45.99957" lon="4.41766">
        <ele>773.6</ele>
        <time>2025-10-04T14:36:38Z</time>
      </trkpt>
      <trkpt lat="45.99962" lon="4.4176">
        <ele>773.6</ele>
        <time>2025-10-04T14:36:39Z</time>
      </trkpt>
      <trkpt lat="45.99964" lon="4.41754">
        <ele>773.4</ele>
        <time>2025-10-04T14:36:40Z</time>
      </trkpt>
      <trkpt lat="45.99966" lon="4.41749">
        <ele>773.2</ele>
        <time>2025-10-04T14:36:41Z</time>
      </trkpt>
      <trkpt lat="45.99969" lon="4.41743">
        <ele>773.2</ele>
        <time>2025-10-04T14:36:42Z</time>
      </trkpt>
      <trkpt lat="45.99972" lon="4.41739">
        <ele>772.8</ele>
        <time>2025-10-04T14:36:43Z</time>
      </trkpt>
      <trkpt lat="45.99974" lon="4.41733">
        <ele>772.8</ele>
        <time>2025-10-04T14:36:44Z</time>
      </trkpt>
      <trkpt lat="45.99977" lon="4.41729">
        <ele>772.8</ele>
        <time>2025-10-04T14:36:45Z</time>
      </trkpt>
      <trkpt lat="45.9998" lon="4.41723">
        <ele>772.8</ele>
        <time>2025-10-04T14:36:46Z</time>
      </trkpt>
      <trkpt lat="45.99982" lon="4.41718">
        <ele>772.4</ele>
        <time>2025-10-04T14:36:47Z</time>
      </trkpt>
      <trkpt lat="45.99985" lon="4.41712">
        <ele>772.4</ele>
        <time>2025-10-04T14:36:48Z</time>
      </trkpt>
      <trkpt lat="45.99987" lon="4.41706">
        <ele>772</ele>
        <time>2025-10-04T14:36:49Z</time>
      </trkpt>
      <trkpt lat="45.9999" lon="4.417">
        <ele>771.8</ele>
        <time>2025-10-04T14:36:50Z</time>
      </trkpt>
      <trkpt lat="45.99993" lon="4.41693">
        <ele>771.6</ele>
        <time>2025-10-04T14:36:51Z</time>
      </trkpt>
      <trkpt lat="45.99998" lon="4.41682">
        <ele>771.2</ele>
        <time>2025-10-04T14:36:52Z</time>
      </trkpt>
      <trkpt lat="46.00002" lon="4.41674">
        <ele>771.2</ele>
        <time>2025-10-04T14:36:53Z</time>
      </trkpt>
      <trkpt lat="46.00006" lon="4.41665">
        <ele>770.8</ele>
        <time>2025-10-04T14:36:54Z</time>
      </trkpt>
      <trkpt lat="46.0001" lon="4.41655">
        <ele>770.8</ele>
        <time>2025-10-04T14:36:55Z</time>
      </trkpt>
      <trkpt lat="46.00013" lon="4.4165">
        <ele>770.6</ele>
        <time>2025-10-04T14:36:56Z</time>
      </trkpt>
      <trkpt lat="46.00015" lon="4.41641">
        <ele>770.2</ele>
        <time>2025-10-04T14:36:57Z</time>
      </trkpt>
      <trkpt lat="46.00016" lon="4.41632">
        <ele>769.8</ele>
        <time>2025-10-04T14:36:58Z</time>
      </trkpt>
      <trkpt lat="46.00018" lon="4.41623">
        <ele>769.2</ele>
        <time>2025-10-04T14:36:59Z</time>
      </trkpt>
      <trkpt lat="46.0002" lon="4.41614">
        <ele>769</ele>
        <time>2025-10-04T14:37:00Z</time>
      </trkpt>
      <trkpt lat="46.00017" lon="4.41603">
        <ele>768.8</ele>
        <time>2025-10-04T14:37:01Z</time>
      </trkpt>
      <trkpt lat="46.00021" lon="4.41596">
        <ele>768.4</ele>
        <time>2025-10-04T14:37:02Z</time>
      </trkpt>
      <trkpt lat="46.00026" lon="4.41587">
        <ele>768.4</ele>
        <time>2025-10-04T14:37:03Z</time>
      </trkpt>
      <trkpt lat="46.00031" lon="4.41577">
        <ele>768.2</ele>
        <time>2025-10-04T14:37:04Z</time>
      </trkpt>
      <trkpt lat="46.00038" lon="4.41569">
        <ele>767.8</ele>
        <time>2025-10-04T14:37:05Z</time>
      </trkpt>
      <trkpt lat="46.00045" lon="4.41563">
        <ele>767.8</ele>
        <time>2025-10-04T14:37:06Z</time>
      </trkpt>
      <trkpt lat="46.00049" lon="4.41555">
        <ele>767.4</ele>
        <time>2025-10-04T14:37:07Z</time>
      </trkpt>
      <trkpt lat="46.00054" lon="4.41549">
        <ele>767</ele>
        <time>2025-10-04T14:37:08Z</time>
      </trkpt>
      <trkpt lat="46.00059" lon="4.41542">
        <ele>767</ele>
        <time>2025-10-04T14:37:09Z</time>
      </trkpt>
      <trkpt lat="46.00064" lon="4.41536">
        <ele>767</ele>
        <time>2025-10-04T14:37:10Z</time>
      </trkpt>
      <trkpt lat="46.00071" lon="4.41531">
        <ele>766.6</ele>
        <time>2025-10-04T14:37:11Z</time>
      </trkpt>
      <trkpt lat="46.00076" lon="4.41525">
        <ele>765.8</ele>
        <time>2025-10-04T14:37:12Z</time>
      </trkpt>
      <trkpt lat="46.00081" lon="4.41518">
        <ele>765.6</ele>
        <time>2025-10-04T14:37:13Z</time>
      </trkpt>
      <trkpt lat="46.00087" lon="4.41511">
        <ele>764.8</ele>
        <time>2025-10-04T14:37:14Z</time>
      </trkpt>
      <trkpt lat="46.00093" lon="4.41506">
        <ele>764.2</ele>
        <time>2025-10-04T14:37:15Z</time>
      </trkpt>
      <trkpt lat="46.00099" lon="4.41498">
        <ele>763.2</ele>
        <time>2025-10-04T14:37:16Z</time>
      </trkpt>
      <trkpt lat="46.00105" lon="4.41491">
        <ele>762.4</ele>
        <time>2025-10-04T14:37:17Z</time>
      </trkpt>
      <trkpt lat="46.00112" lon="4.41483">
        <ele>761.8</ele>
        <time>2025-10-04T14:37:18Z</time>
      </trkpt>
      <trkpt lat="46.0012" lon="4.41477">
        <ele>760.4</ele>
        <time>2025-10-04T14:37:19Z</time>
      </trkpt>
      <trkpt lat="46.00128" lon="4.41473">
        <ele>759</ele>
        <time>2025-10-04T14:37:20Z</time>
      </trkpt>
      <trkpt lat="46.00128" lon="4.41473">
        <ele>759</ele>
        <time>2025-10-04T14:37:21Z</time>
      </trkpt>
      <trkpt lat="46.00139" lon="4.4147">
        <ele>757.8</ele>
        <time>2025-10-04T14:37:22Z</time>
      </trkpt>
      <trkpt lat="46.00147" lon="4.41467">
        <ele>756.8</ele>
        <time>2025-10-04T14:37:23Z</time>
      </trkpt>
      <trkpt lat="46.00153" lon="4.41465">
        <ele>756</ele>
        <time>2025-10-04T14:37:24Z</time>
      </trkpt>
      <trkpt lat="46.00162" lon="4.41463">
        <ele>755.4</ele>
        <time>2025-10-04T14:37:25Z</time>
      </trkpt>
      <trkpt lat="46.00169" lon="4.41458">
        <ele>754.6</ele>
        <time>2025-10-04T14:37:26Z</time>
      </trkpt>
      <trkpt lat="46.0018" lon="4.41457">
        <ele>754.2</ele>
        <time>2025-10-04T14:37:27Z</time>
      </trkpt>
      <trkpt lat="46.00187" lon="4.41453">
        <ele>753.6</ele>
        <time>2025-10-04T14:37:28Z</time>
      </trkpt>
      <trkpt lat="46.00194" lon="4.4145">
        <ele>753</ele>
        <time>2025-10-04T14:37:29Z</time>
      </trkpt>
      <trkpt lat="46.00206" lon="4.41447">
        <ele>753</ele>
        <time>2025-10-04T14:37:30Z</time>
      </trkpt>
      <trkpt lat="46.00213" lon="4.41443">
        <ele>752.6</ele>
        <time>2025-10-04T14:37:31Z</time>
      </trkpt>
      <trkpt lat="46.00223" lon="4.41439">
        <ele>752.4</ele>
        <time>2025-10-04T14:37:32Z</time>
      </trkpt>
      <trkpt lat="46.0023" lon="4.41434">
        <ele>752</ele>
        <time>2025-10-04T14:37:33Z</time>
      </trkpt>
      <trkpt lat="46.00236" lon="4.41432">
        <ele>751.4</ele>
        <time>2025-10-04T14:37:34Z</time>
      </trkpt>
      <trkpt lat="46.0024" lon="4.4143">
        <ele>751.4</ele>
        <time>2025-10-04T14:37:35Z</time>
      </trkpt>
      <trkpt lat="46.00244" lon="4.41428">
        <ele>751.4</ele>
        <time>2025-10-04T14:37:36Z</time>
      </trkpt>
      <trkpt lat="46.00256" lon="4.41427">
        <ele>751.4</ele>
        <time>2025-10-04T14:37:37Z</time>
      </trkpt>
      <trkpt lat="46.00263" lon="4.41424">
        <ele>751</ele>
        <time>2025-10-04T14:37:38Z</time>
      </trkpt>
      <trkpt lat="46.00269" lon="4.41422">
        <ele>751.8</ele>
        <time>2025-10-04T14:37:39Z</time>
      </trkpt>
      <trkpt lat="46.00274" lon="4.41419">
        <ele>752.2</ele>
        <time>2025-10-04T14:37:40Z</time>
      </trkpt>
      <trkpt lat="46.00278" lon="4.41414">
        <ele>752.6</ele>
        <time>2025-10-04T14:37:41Z</time>
      </trkpt>
      <trkpt lat="46.00283" lon="4.41409">
        <ele>752.8</ele>
        <time>2025-10-04T14:37:42Z</time>
      </trkpt>
      <trkpt lat="46.00289" lon="4.41408">
        <ele>753.2</ele>
        <time>2025-10-04T14:37:43Z</time>
      </trkpt>
      <trkpt lat="46.00297" lon="4.41404">
        <ele>753.4</ele>
        <time>2025-10-04T14:37:44Z</time>
      </trkpt>
      <trkpt lat="46.00306" lon="4.41404">
        <ele>753.4</ele>
        <time>2025-10-04T14:37:45Z</time>
      </trkpt>
      <trkpt lat="46.00313" lon="4.41402">
        <ele>753.4</ele>
        <time>2025-10-04T14:37:46Z</time>
      </trkpt>
      <trkpt lat="46.00319" lon="4.414">
        <ele>753.4</ele>
        <time>2025-10-04T14:37:47Z</time>
      </trkpt>
      <trkpt lat="46.00325" lon="4.41397">
        <ele>753.4</ele>
        <time>2025-10-04T14:37:48Z</time>
      </trkpt>
      <trkpt lat="46.0033" lon="4.41396">
        <ele>753.4</ele>
        <time>2025-10-04T14:37:49Z</time>
      </trkpt>
      <trkpt lat="46.00336" lon="4.41396">
        <ele>753.4</ele>
        <time>2025-10-04T14:37:50Z</time>
      </trkpt>
      <trkpt lat="46.0034" lon="4.41394">
        <ele>753.8</ele>
        <time>2025-10-04T14:37:51Z</time>
      </trkpt>
      <trkpt lat="46.00341" lon="4.41393">
        <ele>753.8</ele>
        <time>2025-10-04T14:37:52Z</time>
      </trkpt>
      <trkpt lat="46.00346" lon="4.41391">
        <ele>754</ele>
        <time>2025-10-04T14:37:53Z</time>
      </trkpt>
      <trkpt lat="46.00353" lon="4.4139">
        <ele>754</ele>
        <time>2025-10-04T14:37:54Z</time>
      </trkpt>
      <trkpt lat="46.00362" lon="4.41391">
        <ele>753.8</ele>
        <time>2025-10-04T14:37:55Z</time>
      </trkpt>
      <trkpt lat="46.0037" lon="4.41391">
        <ele>753.8</ele>
        <time>2025-10-04T14:37:56Z</time>
      </trkpt>
      <trkpt lat="46.00379" lon="4.41394">
        <ele>754</ele>
        <time>2025-10-04T14:37:57Z</time>
      </trkpt>
      <trkpt lat="46.00383" lon="4.41395">
        <ele>754</ele>
        <time>2025-10-04T14:37:58Z</time>
      </trkpt>
      <trkpt lat="46.0039" lon="4.414">
        <ele>754</ele>
        <time>2025-10-04T14:37:59Z</time>
      </trkpt>
      <trkpt lat="46.00397" lon="4.41402">
        <ele>754.4</ele>
        <time>2025-10-04T14:38:00Z</time>
      </trkpt>
      <trkpt lat="46.00401" lon="4.41407">
        <ele>754.8</ele>
        <time>2025-10-04T14:38:01Z</time>
      </trkpt>
      <trkpt lat="46.00405" lon="4.41412">
        <ele>754.8</ele>
        <time>2025-10-04T14:38:02Z</time>
      </trkpt>
      <trkpt lat="46.00413" lon="4.41415">
        <ele>754.8</ele>
        <time>2025-10-04T14:38:03Z</time>
      </trkpt>
      <trkpt lat="46.00417" lon="4.41418">
        <ele>755</ele>
        <time>2025-10-04T14:38:04Z</time>
      </trkpt>
      <trkpt lat="46.00422" lon="4.41424">
        <ele>755</ele>
        <time>2025-10-04T14:38:05Z</time>
      </trkpt>
      <trkpt lat="46.00426" lon="4.41429">
        <ele>755</ele>
        <time>2025-10-04T14:38:06Z</time>
      </trkpt>
      <trkpt lat="46.00429" lon="4.41431">
        <ele>755</ele>
        <time>2025-10-04T14:38:07Z</time>
      </trkpt>
      <trkpt lat="46.00433" lon="4.41435">
        <ele>755</ele>
        <time>2025-10-04T14:38:08Z</time>
      </trkpt>
      <trkpt lat="46.00436" lon="4.4144">
        <ele>755</ele>
        <time>2025-10-04T14:38:09Z</time>
      </trkpt>
      <trkpt lat="46.0044" lon="4.41447">
        <ele>755</ele>
        <time>2025-10-04T14:38:10Z</time>
      </trkpt>
      <trkpt lat="46.00445" lon="4.41452">
        <ele>755</ele>
        <time>2025-10-04T14:38:11Z</time>
      </trkpt>
      <trkpt lat="46.00448" lon="4.41457">
        <ele>755</ele>
        <time>2025-10-04T14:38:12Z</time>
      </trkpt>
      <trkpt lat="46.00447" lon="4.4146">
        <ele>754.8</ele>
        <time>2025-10-04T14:38:13Z</time>
      </trkpt>
      <trkpt lat="46.00451" lon="4.41465">
        <ele>754.8</ele>
        <time>2025-10-04T14:38:14Z</time>
      </trkpt>
      <trkpt lat="46.00453" lon="4.41467">
        <ele>755.4</ele>
        <time>2025-10-04T14:38:15Z</time>
      </trkpt>
      <trkpt lat="46.00455" lon="4.4147">
        <ele>755.4</ele>
        <time>2025-10-04T14:38:16Z</time>
      </trkpt>
      <trkpt lat="46.00457" lon="4.41474">
        <ele>756</ele>
        <time>2025-10-04T14:38:17Z</time>
      </trkpt>
      <trkpt lat="46.00458" lon="4.41478">
        <ele>756.4</ele>
        <time>2025-10-04T14:38:18Z</time>
      </trkpt>
      <trkpt lat="46.00459" lon="4.41483">
        <ele>756.8</ele>
        <time>2025-10-04T14:38:19Z</time>
      </trkpt>
      <trkpt lat="46.00458" lon="4.41486">
        <ele>757</ele>
        <time>2025-10-04T14:38:20Z</time>
      </trkpt>
      <trkpt lat="46.00459" lon="4.41489">
        <ele>757.4</ele>
        <time>2025-10-04T14:38:21Z</time>
      </trkpt>
      <trkpt lat="46.0046" lon="4.41491">
        <ele>757.6</ele>
        <time>2025-10-04T14:38:22Z</time>
      </trkpt>
      <trkpt lat="46.00461" lon="4.41494">
        <ele>758</ele>
        <time>2025-10-04T14:38:23Z</time>
      </trkpt>
      <trkpt lat="46.00463" lon="4.41498">
        <ele>758</ele>
        <time>2025-10-04T14:38:24Z</time>
      </trkpt>
      <trkpt lat="46.00464" lon="4.41502">
        <ele>758.4</ele>
        <time>2025-10-04T14:38:25Z</time>
      </trkpt>
      <trkpt lat="46.00464" lon="4.41507">
        <ele>758.6</ele>
        <time>2025-10-04T14:38:26Z</time>
      </trkpt>
      <trkpt lat="46.00465" lon="4.41512">
        <ele>759.2</ele>
        <time>2025-10-04T14:38:27Z</time>
      </trkpt>
      <trkpt lat="46.00467" lon="4.41516">
        <ele>759.6</ele>
        <time>2025-10-04T14:38:28Z</time>
      </trkpt>
      <trkpt lat="46.00467" lon="4.41519">
        <ele>760</ele>
        <time>2025-10-04T14:38:29Z</time>
      </trkpt>
      <trkpt lat="46.00468" lon="4.41522">
        <ele>760.2</ele>
        <time>2025-10-04T14:38:30Z</time>
      </trkpt>
      <trkpt lat="46.00468" lon="4.41526">
        <ele>760.2</ele>
        <time>2025-10-04T14:38:31Z</time>
      </trkpt>
      <trkpt lat="46.00469" lon="4.4153">
        <ele>760.6</ele>
        <time>2025-10-04T14:38:32Z</time>
      </trkpt>
      <trkpt lat="46.0047" lon="4.41534">
        <ele>760.6</ele>
        <time>2025-10-04T14:38:33Z</time>
      </trkpt>
      <trkpt lat="46.00472" lon="4.41539">
        <ele>760.8</ele>
        <time>2025-10-04T14:38:34Z</time>
      </trkpt>
      <trkpt lat="46.00473" lon="4.41543">
        <ele>760.8</ele>
        <time>2025-10-04T14:38:35Z</time>
      </trkpt>
      <trkpt lat="46.00476" lon="4.41549">
        <ele>760.8</ele>
        <time>2025-10-04T14:38:36Z</time>
      </trkpt>
      <trkpt lat="46.00478" lon="4.41553">
        <ele>760.8</ele>
        <time>2025-10-04T14:38:37Z</time>
      </trkpt>
      <trkpt lat="46.0048" lon="4.41558">
        <ele>760.2</ele>
        <time>2025-10-04T14:38:38Z</time>
      </trkpt>
      <trkpt lat="46.00482" lon="4.41564">
        <ele>760.2</ele>
        <time>2025-10-04T14:38:39Z</time>
      </trkpt>
      <trkpt lat="46.00484" lon="4.4157">
        <ele>760.2</ele>
        <time>2025-10-04T14:38:40Z</time>
      </trkpt>
      <trkpt lat="46.00485" lon="4.41575">
        <ele>760.6</ele>
        <time>2025-10-04T14:38:41Z</time>
      </trkpt>
      <trkpt lat="46.00486" lon="4.41584">
        <ele>760.6</ele>
        <time>2025-10-04T14:38:42Z</time>
      </trkpt>
      <trkpt lat="46.00488" lon="4.41589">
        <ele>760.6</ele>
        <time>2025-10-04T14:38:43Z</time>
      </trkpt>
      <trkpt lat="46.00493" lon="4.41594">
        <ele>760</ele>
        <time>2025-10-04T14:38:44Z</time>
      </trkpt>
      <trkpt lat="46.00498" lon="4.41604">
        <ele>760</ele>
        <time>2025-10-04T14:38:45Z</time>
      </trkpt>
      <trkpt lat="46.00502" lon="4.41607">
        <ele>759.2</ele>
        <time>2025-10-04T14:38:46Z</time>
      </trkpt>
      <trkpt lat="46.00504" lon="4.41615">
        <ele>759</ele>
        <time>2025-10-04T14:38:47Z</time>
      </trkpt>
      <trkpt lat="46.00507" lon="4.41624">
        <ele>758.6</ele>
        <time>2025-10-04T14:38:48Z</time>
      </trkpt>
      <trkpt lat="46.00514" lon="4.41632">
        <ele>758.2</ele>
        <time>2025-10-04T14:38:49Z</time>
      </trkpt>
      <trkpt lat="46.00519" lon="4.41641">
        <ele>757.8</ele>
        <time>2025-10-04T14:38:50Z</time>
      </trkpt>
      <trkpt lat="46.00524" lon="4.41652">
        <ele>757.2</ele>
        <time>2025-10-04T14:38:51Z</time>
      </trkpt>
      <trkpt lat="46.00529" lon="4.41662">
        <ele>756.2</ele>
        <time>2025-10-04T14:38:52Z</time>
      </trkpt>
      <trkpt lat="46.00537" lon="4.41672">
        <ele>755.4</ele>
        <time>2025-10-04T14:38:53Z</time>
      </trkpt>
      <trkpt lat="46.00547" lon="4.41681">
        <ele>754.6</ele>
        <time>2025-10-04T14:38:54Z</time>
      </trkpt>
      <trkpt lat="46.00552" lon="4.41692">
        <ele>753.8</ele>
        <time>2025-10-04T14:38:55Z</time>
      </trkpt>
      <trkpt lat="46.00559" lon="4.41705">
        <ele>752.8</ele>
        <time>2025-10-04T14:38:56Z</time>
      </trkpt>
      <trkpt lat="46.00564" lon="4.41715">
        <ele>752.8</ele>
        <time>2025-10-04T14:38:57Z</time>
      </trkpt>
      <trkpt lat="46.00571" lon="4.41723">
        <ele>752.2</ele>
        <time>2025-10-04T14:38:58Z</time>
      </trkpt>
      <trkpt lat="46.00573" lon="4.41736">
        <ele>751</ele>
        <time>2025-10-04T14:38:59Z</time>
      </trkpt>
      <trkpt lat="46.00581" lon="4.41747">
        <ele>750.2</ele>
        <time>2025-10-04T14:39:00Z</time>
      </trkpt>
      <trkpt lat="46.00584" lon="4.41759">
        <ele>749.2</ele>
        <time>2025-10-04T14:39:01Z</time>
      </trkpt>
      <trkpt lat="46.00595" lon="4.41766">
        <ele>748.8</ele>
        <time>2025-10-04T14:39:02Z</time>
      </trkpt>
      <trkpt lat="46.00601" lon="4.41777">
        <ele>747.4</ele>
        <time>2025-10-04T14:39:03Z</time>
      </trkpt>
      <trkpt lat="46.00609" lon="4.41788">
        <ele>747.2</ele>
        <time>2025-10-04T14:39:04Z</time>
      </trkpt>
      <trkpt lat="46.00615" lon="4.41797">
        <ele>747.2</ele>
        <time>2025-10-04T14:39:05Z</time>
      </trkpt>
      <trkpt lat="46.00622" lon="4.41807">
        <ele>745.2</ele>
        <time>2025-10-04T14:39:06Z</time>
      </trkpt>
      <trkpt lat="46.00629" lon="4.41821">
        <ele>744.8</ele>
        <time>2025-10-04T14:39:07Z</time>
      </trkpt>
      <trkpt lat="46.00637" lon="4.41835">
        <ele>744.2</ele>
        <time>2025-10-04T14:39:08Z</time>
      </trkpt>
      <trkpt lat="46.00645" lon="4.41847">
        <ele>744.2</ele>
        <time>2025-10-04T14:39:09Z</time>
      </trkpt>
      <trkpt lat="46.00648" lon="4.4186">
        <ele>744.8</ele>
        <time>2025-10-04T14:39:10Z</time>
      </trkpt>
      <trkpt lat="46.00648" lon="4.41874">
        <ele>744.2</ele>
        <time>2025-10-04T14:39:11Z</time>
      </trkpt>
      <trkpt lat="46.00653" lon="4.41887">
        <ele>743.6</ele>
        <time>2025-10-04T14:39:12Z</time>
      </trkpt>
      <trkpt lat="46.00657" lon="4.419">
        <ele>743</ele>
        <time>2025-10-04T14:39:13Z</time>
      </trkpt>
      <trkpt lat="46.00662" lon="4.41913">
        <ele>742.6</ele>
        <time>2025-10-04T14:39:14Z</time>
      </trkpt>
      <trkpt lat="46.00665" lon="4.41925">
        <ele>742.2</ele>
        <time>2025-10-04T14:39:15Z</time>
      </trkpt>
      <trkpt lat="46.00668" lon="4.41937">
        <ele>743</ele>
        <time>2025-10-04T14:39:16Z</time>
      </trkpt>
      <trkpt lat="46.00672" lon="4.41949">
        <ele>740.4</ele>
        <time>2025-10-04T14:39:17Z</time>
      </trkpt>
      <trkpt lat="46.00674" lon="4.41959">
        <ele>741</ele>
        <time>2025-10-04T14:39:18Z</time>
      </trkpt>
      <trkpt lat="46.00678" lon="4.41967">
        <ele>741.8</ele>
        <time>2025-10-04T14:39:19Z</time>
      </trkpt>
      <trkpt lat="46.0068" lon="4.41978">
        <ele>742.6</ele>
        <time>2025-10-04T14:39:20Z</time>
      </trkpt>
      <trkpt lat="46.00681" lon="4.41985">
        <ele>743.8</ele>
        <time>2025-10-04T14:39:21Z</time>
      </trkpt>
      <trkpt lat="46.00683" lon="4.41993">
        <ele>744.2</ele>
        <time>2025-10-04T14:39:22Z</time>
      </trkpt>
      <trkpt lat="46.00685" lon="4.41998">
        <ele>745.2</ele>
        <time>2025-10-04T14:39:23Z</time>
      </trkpt>
      <trkpt lat="46.00687" lon="4.42006">
        <ele>745.6</ele>
        <time>2025-10-04T14:39:24Z</time>
      </trkpt>
      <trkpt lat="46.00691" lon="4.42013">
        <ele>746</ele>
        <time>2025-10-04T14:39:25Z</time>
      </trkpt>
      <trkpt lat="46.00691" lon="4.42019">
        <ele>746.6</ele>
        <time>2025-10-04T14:39:26Z</time>
      </trkpt>
      <trkpt lat="46.00696" lon="4.42022">
        <ele>747.2</ele>
        <time>2025-10-04T14:39:27Z</time>
      </trkpt>
      <trkpt lat="46.00695" lon="4.42028">
        <ele>747.6</ele>
        <time>2025-10-04T14:39:28Z</time>
      </trkpt>
      <trkpt lat="46.00697" lon="4.42033">
        <ele>748</ele>
        <time>2025-10-04T14:39:29Z</time>
      </trkpt>
      <trkpt lat="46.00697" lon="4.42038">
        <ele>748.4</ele>
        <time>2025-10-04T14:39:30Z</time>
      </trkpt>
      <trkpt lat="46.00696" lon="4.42042">
        <ele>749</ele>
        <time>2025-10-04T14:39:31Z</time>
      </trkpt>
      <trkpt lat="46.00697" lon="4.42045">
        <ele>749.4</ele>
        <time>2025-10-04T14:39:32Z</time>
      </trkpt>
      <trkpt lat="46.00699" lon="4.42049">
        <ele>749.6</ele>
        <time>2025-10-04T14:39:33Z</time>
      </trkpt>
      <trkpt lat="46.00701" lon="4.42053">
        <ele>750</ele>
        <time>2025-10-04T14:39:34Z</time>
      </trkpt>
      <trkpt lat="46.00703" lon="4.42055">
        <ele>750.4</ele>
        <time>2025-10-04T14:39:35Z</time>
      </trkpt>
      <trkpt lat="46.00704" lon="4.42058">
        <ele>751</ele>
        <time>2025-10-04T14:39:36Z</time>
      </trkpt>
      <trkpt lat="46.00705" lon="4.4206">
        <ele>751.6</ele>
        <time>2025-10-04T14:39:37Z</time>
      </trkpt>
      <trkpt lat="46.00706" lon="4.42063">
        <ele>752</ele>
        <time>2025-10-04T14:39:38Z</time>
      </trkpt>
      <trkpt lat="46.00706" lon="4.42065">
        <ele>752.2</ele>
        <time>2025-10-04T14:39:39Z</time>
      </trkpt>
      <trkpt lat="46.00706" lon="4.42067">
        <ele>752.6</ele>
        <time>2025-10-04T14:39:40Z</time>
      </trkpt>
      <trkpt lat="46.00706" lon="4.42069">
        <ele>752.8</ele>
        <time>2025-10-04T14:39:41Z</time>
      </trkpt>
      <trkpt lat="46.00707" lon="4.42072">
        <ele>753.4</ele>
        <time>2025-10-04T14:39:42Z</time>
      </trkpt>
      <trkpt lat="46.00707" lon="4.42075">
        <ele>753.6</ele>
        <time>2025-10-04T14:39:43Z</time>
      </trkpt>
      <trkpt lat="46.00707" lon="4.42077">
        <ele>754</ele>
        <time>2025-10-04T14:39:44Z</time>
      </trkpt>
      <trkpt lat="46.00707" lon="4.4208">
        <ele>754.2</ele>
        <time>2025-10-04T14:39:45Z</time>
      </trkpt>
      <trkpt lat="46.00707" lon="4.42082">
        <ele>754.2</ele>
        <time>2025-10-04T14:39:46Z</time>
      </trkpt>
      <trkpt lat="46.00709" lon="4.42085">
        <ele>754.6</ele>
        <time>2025-10-04T14:39:47Z</time>
      </trkpt>
      <trkpt lat="46.00712" lon="4.42089">
        <ele>754.6</ele>
        <time>2025-10-04T14:39:48Z</time>
      </trkpt>
      <trkpt lat="46.00714" lon="4.42092">
        <ele>754.8</ele>
        <time>2025-10-04T14:39:49Z</time>
      </trkpt>
      <trkpt lat="46.00716" lon="4.42094">
        <ele>755.2</ele>
        <time>2025-10-04T14:39:50Z</time>
      </trkpt>
      <trkpt lat="46.00717" lon="4.42096">
        <ele>755.2</ele>
        <time>2025-10-04T14:39:51Z</time>
      </trkpt>
      <trkpt lat="46.00718" lon="4.42098">
        <ele>755.4</ele>
        <time>2025-10-04T14:39:52Z</time>
      </trkpt>
      <trkpt lat="46.00719" lon="4.42099">
        <ele>755.4</ele>
        <time>2025-10-04T14:39:53Z</time>
      </trkpt>
      <trkpt lat="46.00721" lon="4.421">
        <ele>755.8</ele>
        <time>2025-10-04T14:39:54Z</time>
      </trkpt>
      <trkpt lat="46.00723" lon="4.42101">
        <ele>755.8</ele>
        <time>2025-10-04T14:39:55Z</time>
      </trkpt>
      <trkpt lat="46.00725" lon="4.42103">
        <ele>756</ele>
        <time>2025-10-04T14:39:56Z</time>
      </trkpt>
      <trkpt lat="46.00727" lon="4.42105">
        <ele>756</ele>
        <time>2025-10-04T14:39:57Z</time>
      </trkpt>
      <trkpt lat="46.00728" lon="4.42107">
        <ele>756</ele>
        <time>2025-10-04T14:39:58Z</time>
      </trkpt>
      <trkpt lat="46.00728" lon="4.42107">
        <ele>756.2</ele>
        <time>2025-10-04T14:39:59Z</time>
      </trkpt>
      <trkpt lat="46.00729" lon="4.4211">
        <ele>756.2</ele>
        <time>2025-10-04T14:40:00Z</time>
      </trkpt>
      <trkpt lat="46.0073" lon="4.42112">
        <ele>756.2</ele>
        <time>2025-10-04T14:40:01Z</time>
      </trkpt>
      <trkpt lat="46.00732" lon="4.42114">
        <ele>756.4</ele>
        <time>2025-10-04T14:40:02Z</time>
      </trkpt>
      <trkpt lat="46.00733" lon="4.42115">
        <ele>756.4</ele>
        <time>2025-10-04T14:40:03Z</time>
      </trkpt>
      <trkpt lat="46.00735" lon="4.42115">
        <ele>756.6</ele>
        <time>2025-10-04T14:40:04Z</time>
      </trkpt>
      <trkpt lat="46.00736" lon="4.42117">
        <ele>756.6</ele>
        <time>2025-10-04T14:40:05Z</time>
      </trkpt>
      <trkpt lat="46.00737" lon="4.42119">
        <ele>756.6</ele>
        <time>2025-10-04T14:40:06Z</time>
      </trkpt>
      <trkpt lat="46.00738" lon="4.42119">
        <ele>756.6</ele>
        <time>2025-10-04T14:40:07Z</time>
      </trkpt>
      <trkpt lat="46.00739" lon="4.42119">
        <ele>756.6</ele>
        <time>2025-10-04T14:40:08Z</time>
      </trkpt>
      <trkpt lat="46.00746" lon="4.42121">
        <ele>756.4</ele>
        <time>2025-10-04T14:40:18Z</time>
      </trkpt>
      <trkpt lat="46.00748" lon="4.42124">
        <ele>756.4</ele>
        <time>2025-10-04T14:40:19Z</time>
      </trkpt>
      <trkpt lat="46.0075" lon="4.42125">
        <ele>756.4</ele>
        <time>2025-10-04T14:40:20Z</time>
      </trkpt>
      <trkpt lat="46.00753" lon="4.42127">
        <ele>756.4</ele>
        <time>2025-10-04T14:40:21Z</time>
      </trkpt>
      <trkpt lat="46.00755" lon="4.42129">
        <ele>756.4</ele>
        <time>2025-10-04T14:40:22Z</time>
      </trkpt>
      <trkpt lat="46.00758" lon="4.42131">
        <ele>756.8</ele>
        <time>2025-10-04T14:40:23Z</time>
      </trkpt>
      <trkpt lat="46.00761" lon="4.42134">
        <ele>756.8</ele>
        <time>2025-10-04T14:40:24Z</time>
      </trkpt>
      <trkpt lat="46.00771" lon="4.42138">
        <ele>756.8</ele>
        <time>2025-10-04T14:40:25Z</time>
      </trkpt>
      <trkpt lat="46.00772" lon="4.42139">
        <ele>756.8</ele>
        <time>2025-10-04T14:40:26Z</time>
      </trkpt>
      <trkpt lat="46.00778" lon="4.4214">
        <ele>756.4</ele>
        <time>2025-10-04T14:40:27Z</time>
      </trkpt>
      <trkpt lat="46.00782" lon="4.42144">
        <ele>756.4</ele>
        <time>2025-10-04T14:40:28Z</time>
      </trkpt>
      <trkpt lat="46.00784" lon="4.42145">
        <ele>756</ele>
        <time>2025-10-04T14:40:29Z</time>
      </trkpt>
      <trkpt lat="46.00795" lon="4.42149">
        <ele>755.6</ele>
        <time>2025-10-04T14:40:30Z</time>
      </trkpt>
      <trkpt lat="46.00798" lon="4.42151">
        <ele>755.6</ele>
        <time>2025-10-04T14:40:31Z</time>
      </trkpt>
      <trkpt lat="46.00805" lon="4.42156">
        <ele>755.6</ele>
        <time>2025-10-04T14:40:32Z</time>
      </trkpt>
      <trkpt lat="46.00807" lon="4.42156">
        <ele>755.6</ele>
        <time>2025-10-04T14:40:33Z</time>
      </trkpt>
      <trkpt lat="46.00814" lon="4.42161">
        <ele>755.6</ele>
        <time>2025-10-04T14:40:34Z</time>
      </trkpt>
      <trkpt lat="46.00819" lon="4.42161">
        <ele>755.4</ele>
        <time>2025-10-04T14:40:35Z</time>
      </trkpt>
      <trkpt lat="46.00826" lon="4.42164">
        <ele>755.4</ele>
        <time>2025-10-04T14:40:36Z</time>
      </trkpt>
      <trkpt lat="46.00831" lon="4.42166">
        <ele>755.6</ele>
        <time>2025-10-04T14:40:37Z</time>
      </trkpt>
      <trkpt lat="46.00835" lon="4.42169">
        <ele>755.6</ele>
        <time>2025-10-04T14:40:38Z</time>
      </trkpt>
      <trkpt lat="46.00839" lon="4.42172">
        <ele>756</ele>
        <time>2025-10-04T14:40:39Z</time>
      </trkpt>
      <trkpt lat="46.00841" lon="4.42175">
        <ele>756</ele>
        <time>2025-10-04T14:40:40Z</time>
      </trkpt>
      <trkpt lat="46.00842" lon="4.42177">
        <ele>756</ele>
        <time>2025-10-04T14:40:41Z</time>
      </trkpt>
      <trkpt lat="46.00845" lon="4.42181">
        <ele>756.2</ele>
        <time>2025-10-04T14:40:42Z</time>
      </trkpt>
      <trkpt lat="46.00847" lon="4.42184">
        <ele>756.2</ele>
        <time>2025-10-04T14:40:43Z</time>
      </trkpt>
      <trkpt lat="46.00849" lon="4.42186">
        <ele>756.2</ele>
        <time>2025-10-04T14:40:44Z</time>
      </trkpt>
      <trkpt lat="46.00851" lon="4.42189">
        <ele>756.2</ele>
        <time>2025-10-04T14:40:45Z</time>
      </trkpt>
      <trkpt lat="46.00853" lon="4.42189">
        <ele>756.2</ele>
        <time>2025-10-04T14:40:46Z</time>
      </trkpt>
      <trkpt lat="46.00855" lon="4.4219">
        <ele>756.2</ele>
        <time>2025-10-04T14:40:47Z</time>
      </trkpt>
      <trkpt lat="46.00855" lon="4.42189">
        <ele>756.2</ele>
        <time>2025-10-04T14:40:48Z</time>
      </trkpt>
      <trkpt lat="46.00855" lon="4.42188">
        <ele>756.2</ele>
        <time>2025-10-04T14:40:49Z</time>
      </trkpt>
      <trkpt lat="46.00856" lon="4.42188">
        <ele>756.2</ele>
        <time>2025-10-04T14:40:50Z</time>
      </trkpt>
      <trkpt lat="46.00856" lon="4.42188">
        <ele>755.8</ele>
        <time>2025-10-04T14:40:51Z</time>
      </trkpt>
      <trkpt lat="46.00856" lon="4.42189">
        <ele>755.8</ele>
        <time>2025-10-04T14:40:52Z</time>
      </trkpt>
      <trkpt lat="46.00856" lon="4.42189">
        <ele>755.8</ele>
        <time>2025-10-04T14:40:53Z</time>
      </trkpt>
      <trkpt lat="46.00853" lon="4.42191">
        <ele>756</ele>
        <time>2025-10-04T14:41:27Z</time>
      </trkpt>
      <trkpt lat="46.00854" lon="4.42193">
        <ele>756</ele>
        <time>2025-10-04T14:41:28Z</time>
      </trkpt>
      <trkpt lat="46.00853" lon="4.42193">
        <ele>756.2</ele>
        <time>2025-10-04T14:41:29Z</time>
      </trkpt>
      <trkpt lat="46.00852" lon="4.42193">
        <ele>756.2</ele>
        <time>2025-10-04T14:41:30Z</time>
      </trkpt>
      <trkpt lat="46.00852" lon="4.42194">
        <ele>756.6</ele>
        <time>2025-10-04T14:41:31Z</time>
      </trkpt>
      <trkpt lat="46.00854" lon="4.42194">
        <ele>756.6</ele>
        <time>2025-10-04T14:41:32Z</time>
      </trkpt>
      <trkpt lat="46.00855" lon="4.42195">
        <ele>756.6</ele>
        <time>2025-10-04T14:41:33Z</time>
      </trkpt>
      <trkpt lat="46.00857" lon="4.42196">
        <ele>756.6</ele>
        <time>2025-10-04T14:41:34Z</time>
      </trkpt>
      <trkpt lat="46.00858" lon="4.42198">
        <ele>756.4</ele>
        <time>2025-10-04T14:41:35Z</time>
      </trkpt>
      <trkpt lat="46.0086" lon="4.422">
        <ele>756.4</ele>
        <time>2025-10-04T14:41:36Z</time>
      </trkpt>
      <trkpt lat="46.00863" lon="4.42203">
        <ele>756</ele>
        <time>2025-10-04T14:41:37Z</time>
      </trkpt>
      <trkpt lat="46.00866" lon="4.42205">
        <ele>756</ele>
        <time>2025-10-04T14:41:38Z</time>
      </trkpt>
      <trkpt lat="46.0087" lon="4.42207">
        <ele>756</ele>
        <time>2025-10-04T14:41:39Z</time>
      </trkpt>
      <trkpt lat="46.00872" lon="4.42209">
        <ele>755.6</ele>
        <time>2025-10-04T14:41:40Z</time>
      </trkpt>
      <trkpt lat="46.00875" lon="4.4221">
        <ele>755.6</ele>
        <time>2025-10-04T14:41:41Z</time>
      </trkpt>
      <trkpt lat="46.00882" lon="4.42217">
        <ele>756</ele>
        <time>2025-10-04T14:41:42Z</time>
      </trkpt>
      <trkpt lat="46.00884" lon="4.42219">
        <ele>756.2</ele>
        <time>2025-10-04T14:41:43Z</time>
      </trkpt>
      <trkpt lat="46.00889" lon="4.42223">
        <ele>756.2</ele>
        <time>2025-10-04T14:41:44Z</time>
      </trkpt>
      <trkpt lat="46.00892" lon="4.42227">
        <ele>756.8</ele>
        <time>2025-10-04T14:41:45Z</time>
      </trkpt>
      <trkpt lat="46.00896" lon="4.4223">
        <ele>756.8</ele>
        <time>2025-10-04T14:41:46Z</time>
      </trkpt>
      <trkpt lat="46.00899" lon="4.42233">
        <ele>756.8</ele>
        <time>2025-10-04T14:41:47Z</time>
      </trkpt>
      <trkpt lat="46.00903" lon="4.42235">
        <ele>757</ele>
        <time>2025-10-04T14:41:48Z</time>
      </trkpt>
      <trkpt lat="46.00906" lon="4.42239">
        <ele>757</ele>
        <time>2025-10-04T14:41:49Z</time>
      </trkpt>
      <trkpt lat="46.0091" lon="4.42242">
        <ele>757</ele>
        <time>2025-10-04T14:41:50Z</time>
      </trkpt>
      <trkpt lat="46.00914" lon="4.42245">
        <ele>757.4</ele>
        <time>2025-10-04T14:41:51Z</time>
      </trkpt>
      <trkpt lat="46.00917" lon="4.42247">
        <ele>757.4</ele>
        <time>2025-10-04T14:41:52Z</time>
      </trkpt>
      <trkpt lat="46.00922" lon="4.4225">
        <ele>757.6</ele>
        <time>2025-10-04T14:41:53Z</time>
      </trkpt>
      <trkpt lat="46.00926" lon="4.42252">
        <ele>757.6</ele>
        <time>2025-10-04T14:41:54Z</time>
      </trkpt>
      <trkpt lat="46.00931" lon="4.42255">
        <ele>757.6</ele>
        <time>2025-10-04T14:41:55Z</time>
      </trkpt>
      <trkpt lat="46.00934" lon="4.42257">
        <ele>757.2</ele>
        <time>2025-10-04T14:41:56Z</time>
      </trkpt>
      <trkpt lat="46.00938" lon="4.4226">
        <ele>757.2</ele>
        <time>2025-10-04T14:41:57Z</time>
      </trkpt>
      <trkpt lat="46.00943" lon="4.42262">
        <ele>757.2</ele>
        <time>2025-10-04T14:41:58Z</time>
      </trkpt>
      <trkpt lat="46.00946" lon="4.42264">
        <ele>756.8</ele>
        <time>2025-10-04T14:41:59Z</time>
      </trkpt>
      <trkpt lat="46.0095" lon="4.42267">
        <ele>756.2</ele>
        <time>2025-10-04T14:42:00Z</time>
      </trkpt>
      <trkpt lat="46.00954" lon="4.4227">
        <ele>756.2</ele>
        <time>2025-10-04T14:42:01Z</time>
      </trkpt>
      <trkpt lat="46.00958" lon="4.42272">
        <ele>756.2</ele>
        <time>2025-10-04T14:42:02Z</time>
      </trkpt>
      <trkpt lat="46.00962" lon="4.42275">
        <ele>756</ele>
        <time>2025-10-04T14:42:03Z</time>
      </trkpt>
      <trkpt lat="46.00966" lon="4.42278">
        <ele>756</ele>
        <time>2025-10-04T14:42:04Z</time>
      </trkpt>
      <trkpt lat="46.0097" lon="4.42279">
        <ele>756</ele>
        <time>2025-10-04T14:42:05Z</time>
      </trkpt>
      <trkpt lat="46.00973" lon="4.42279">
        <ele>756</ele>
        <time>2025-10-04T14:42:06Z</time>
      </trkpt>
      <trkpt lat="46.00977" lon="4.42281">
        <ele>756</ele>
        <time>2025-10-04T14:42:07Z</time>
      </trkpt>
      <trkpt lat="46.00982" lon="4.42281">
        <ele>756</ele>
        <time>2025-10-04T14:42:08Z</time>
      </trkpt>
      <trkpt lat="46.00985" lon="4.42281">
        <ele>756</ele>
        <time>2025-10-04T14:42:09Z</time>
      </trkpt>
      <trkpt lat="46.0099" lon="4.42283">
        <ele>756</ele>
        <time>2025-10-04T14:42:10Z</time>
      </trkpt>
      <trkpt lat="46.00991" lon="4.42288">
        <ele>756</ele>
        <time>2025-10-04T14:42:11Z</time>
      </trkpt>
      <trkpt lat="46.00994" lon="4.42289">
        <ele>756</ele>
        <time>2025-10-04T14:42:12Z</time>
      </trkpt>
      <trkpt lat="46.00998" lon="4.42291">
        <ele>756</ele>
        <time>2025-10-04T14:42:13Z</time>
      </trkpt>
      <trkpt lat="46.01002" lon="4.42292">
        <ele>756</ele>
        <time>2025-10-04T14:42:14Z</time>
      </trkpt>
      <trkpt lat="46.01005" lon="4.42294">
        <ele>756</ele>
        <time>2025-10-04T14:42:15Z</time>
      </trkpt>
      <trkpt lat="46.01008" lon="4.42295">
        <ele>756.2</ele>
        <time>2025-10-04T14:42:16Z</time>
      </trkpt>
      <trkpt lat="46.0101" lon="4.42298">
        <ele>756.2</ele>
        <time>2025-10-04T14:42:17Z</time>
      </trkpt>
      <trkpt lat="46.01012" lon="4.423">
        <ele>756.6</ele>
        <time>2025-10-04T14:42:18Z</time>
      </trkpt>
      <trkpt lat="46.01014" lon="4.42301">
        <ele>756.6</ele>
        <time>2025-10-04T14:42:19Z</time>
      </trkpt>
      <trkpt lat="46.01017" lon="4.42302">
        <ele>756.6</ele>
        <time>2025-10-04T14:42:20Z</time>
      </trkpt>
      <trkpt lat="46.0102" lon="4.42303">
        <ele>756.8</ele>
        <time>2025-10-04T14:42:21Z</time>
      </trkpt>
      <trkpt lat="46.01023" lon="4.42305">
        <ele>756.8</ele>
        <time>2025-10-04T14:42:22Z</time>
      </trkpt>
      <trkpt lat="46.01026" lon="4.42307">
        <ele>757.2</ele>
        <time>2025-10-04T14:42:23Z</time>
      </trkpt>
      <trkpt lat="46.01028" lon="4.42309">
        <ele>757.4</ele>
        <time>2025-10-04T14:42:24Z</time>
      </trkpt>
      <trkpt lat="46.01031" lon="4.42311">
        <ele>757.4</ele>
        <time>2025-10-04T14:42:25Z</time>
      </trkpt>
      <trkpt lat="46.01035" lon="4.42312">
        <ele>757.4</ele>
        <time>2025-10-04T14:42:26Z</time>
      </trkpt>
      <trkpt lat="46.01038" lon="4.42314">
        <ele>757.6</ele>
        <time>2025-10-04T14:42:27Z</time>
      </trkpt>
      <trkpt lat="46.0104" lon="4.42316">
        <ele>758</ele>
        <time>2025-10-04T14:42:28Z</time>
      </trkpt>
      <trkpt lat="46.01043" lon="4.42318">
        <ele>758.2</ele>
        <time>2025-10-04T14:42:29Z</time>
      </trkpt>
      <trkpt lat="46.01046" lon="4.42319">
        <ele>758.6</ele>
        <time>2025-10-04T14:42:30Z</time>
      </trkpt>
      <trkpt lat="46.01046" lon="4.42319">
        <ele>758.6</ele>
        <time>2025-10-04T14:42:31Z</time>
      </trkpt>
      <trkpt lat="46.01048" lon="4.42319">
        <ele>758.6</ele>
        <time>2025-10-04T14:42:32Z</time>
      </trkpt>
      <trkpt lat="46.0105" lon="4.4232">
        <ele>758.8</ele>
        <time>2025-10-04T14:42:33Z</time>
      </trkpt>
      <trkpt lat="46.01053" lon="4.42321">
        <ele>759.4</ele>
        <time>2025-10-04T14:42:34Z</time>
      </trkpt>
      <trkpt lat="46.01055" lon="4.42323">
        <ele>759.6</ele>
        <time>2025-10-04T14:42:35Z</time>
      </trkpt>
      <trkpt lat="46.01055" lon="4.42323">
        <ele>760</ele>
        <time>2025-10-04T14:42:36Z</time>
      </trkpt>
      <trkpt lat="46.01056" lon="4.42324">
        <ele>760.2</ele>
        <time>2025-10-04T14:42:37Z</time>
      </trkpt>
      <trkpt lat="46.01058" lon="4.42325">
        <ele>760.4</ele>
        <time>2025-10-04T14:42:38Z</time>
      </trkpt>
      <trkpt lat="46.0106" lon="4.42327">
        <ele>760.4</ele>
        <time>2025-10-04T14:42:39Z</time>
      </trkpt>
      <trkpt lat="46.01063" lon="4.42328">
        <ele>760.4</ele>
        <time>2025-10-04T14:42:40Z</time>
      </trkpt>
      <trkpt lat="46.01065" lon="4.42329">
        <ele>761</ele>
        <time>2025-10-04T14:42:41Z</time>
      </trkpt>
      <trkpt lat="46.01067" lon="4.42329">
        <ele>761</ele>
        <time>2025-10-04T14:42:42Z</time>
      </trkpt>
      <trkpt lat="46.01069" lon="4.4233">
        <ele>761</ele>
        <time>2025-10-04T14:42:43Z</time>
      </trkpt>
      <trkpt lat="46.01071" lon="4.42331">
        <ele>761</ele>
        <time>2025-10-04T14:42:44Z</time>
      </trkpt>
      <trkpt lat="46.01073" lon="4.42331">
        <ele>761</ele>
        <time>2025-10-04T14:42:45Z</time>
      </trkpt>
      <trkpt lat="46.01075" lon="4.42332">
        <ele>761</ele>
        <time>2025-10-04T14:42:46Z</time>
      </trkpt>
      <trkpt lat="46.01077" lon="4.42332">
        <ele>761.4</ele>
        <time>2025-10-04T14:42:47Z</time>
      </trkpt>
      <trkpt lat="46.01079" lon="4.42332">
        <ele>761.6</ele>
        <time>2025-10-04T14:42:48Z</time>
      </trkpt>
      <trkpt lat="46.01081" lon="4.42332">
        <ele>761.6</ele>
        <time>2025-10-04T14:42:49Z</time>
      </trkpt>
      <trkpt lat="46.01082" lon="4.42331">
        <ele>762</ele>
        <time>2025-10-04T14:42:50Z</time>
      </trkpt>
      <trkpt lat="46.01083" lon="4.42331">
        <ele>762</ele>
        <time>2025-10-04T14:42:51Z</time>
      </trkpt>
      <trkpt lat="46.01083" lon="4.42331">
        <ele>762.6</ele>
        <time>2025-10-04T14:42:52Z</time>
      </trkpt>
      <trkpt lat="46.01084" lon="4.42331">
        <ele>762.6</ele>
        <time>2025-10-04T14:42:53Z</time>
      </trkpt>
      <trkpt lat="46.01086" lon="4.42331">
        <ele>763</ele>
        <time>2025-10-04T14:42:54Z</time>
      </trkpt>
      <trkpt lat="46.01088" lon="4.42331">
        <ele>763.4</ele>
        <time>2025-10-04T14:42:55Z</time>
      </trkpt>
      <trkpt lat="46.01089" lon="4.42331">
        <ele>763.8</ele>
        <time>2025-10-04T14:42:56Z</time>
      </trkpt>
      <trkpt lat="46.0109" lon="4.42331">
        <ele>763.8</ele>
        <time>2025-10-04T14:42:57Z</time>
      </trkpt>
      <trkpt lat="46.01091" lon="4.42331">
        <ele>764.2</ele>
        <time>2025-10-04T14:42:58Z</time>
      </trkpt>
      <trkpt lat="46.01092" lon="4.42332">
        <ele>764.6</ele>
        <time>2025-10-04T14:42:59Z</time>
      </trkpt>
      <trkpt lat="46.01094" lon="4.42333">
        <ele>764.8</ele>
        <time>2025-10-04T14:43:00Z</time>
      </trkpt>
      <trkpt lat="46.01096" lon="4.42333">
        <ele>765.2</ele>
        <time>2025-10-04T14:43:01Z</time>
      </trkpt>
      <trkpt lat="46.01097" lon="4.42333">
        <ele>765.6</ele>
        <time>2025-10-04T14:43:02Z</time>
      </trkpt>
      <trkpt lat="46.01098" lon="4.42333">
        <ele>765.6</ele>
        <time>2025-10-04T14:43:03Z</time>
      </trkpt>
      <trkpt lat="46.01099" lon="4.42332">
        <ele>765.8</ele>
        <time>2025-10-04T14:43:04Z</time>
      </trkpt>
      <trkpt lat="46.01101" lon="4.42332">
        <ele>765.8</ele>
        <time>2025-10-04T14:43:05Z</time>
      </trkpt>
      <trkpt lat="46.01102" lon="4.42332">
        <ele>766.2</ele>
        <time>2025-10-04T14:43:06Z</time>
      </trkpt>
      <trkpt lat="46.01104" lon="4.42332">
        <ele>766.2</ele>
        <time>2025-10-04T14:43:07Z</time>
      </trkpt>
      <trkpt lat="46.01104" lon="4.42333">
        <ele>766.4</ele>
        <time>2025-10-04T14:43:08Z</time>
      </trkpt>
      <trkpt lat="46.01104" lon="4.42333">
        <ele>766.4</ele>
        <time>2025-10-04T14:43:09Z</time>
      </trkpt>
      <trkpt lat="46.01103" lon="4.42332">
        <ele>766.6</ele>
        <time>2025-10-04T14:43:10Z</time>
      </trkpt>
      <trkpt lat="46.01106" lon="4.42331">
        <ele>766.6</ele>
        <time>2025-10-04T14:43:15Z</time>
      </trkpt>
      <trkpt lat="46.01107" lon="4.4233">
        <ele>767</ele>
        <time>2025-10-04T14:43:16Z</time>
      </trkpt>
      <trkpt lat="46.01109" lon="4.4233">
        <ele>767.2</ele>
        <time>2025-10-04T14:43:17Z</time>
      </trkpt>
      <trkpt lat="46.01111" lon="4.4233">
        <ele>767.6</ele>
        <time>2025-10-04T14:43:18Z</time>
      </trkpt>
      <trkpt lat="46.01113" lon="4.4233">
        <ele>767.8</ele>
        <time>2025-10-04T14:43:19Z</time>
      </trkpt>
      <trkpt lat="46.01113" lon="4.42331">
        <ele>768</ele>
        <time>2025-10-04T14:43:20Z</time>
      </trkpt>
      <trkpt lat="46.01114" lon="4.42331">
        <ele>768.4</ele>
        <time>2025-10-04T14:43:21Z</time>
      </trkpt>
      <trkpt lat="46.01115" lon="4.42331">
        <ele>768.8</ele>
        <time>2025-10-04T14:43:22Z</time>
      </trkpt>
      <trkpt lat="46.01117" lon="4.42331">
        <ele>768.8</ele>
        <time>2025-10-04T14:43:23Z</time>
      </trkpt>
      <trkpt lat="46.01117" lon="4.42331">
        <ele>769.2</ele>
        <time>2025-10-04T14:43:24Z</time>
      </trkpt>
      <trkpt lat="46.01117" lon="4.42331">
        <ele>769.2</ele>
        <time>2025-10-04T14:43:25Z</time>
      </trkpt>
      <trkpt lat="46.01116" lon="4.42331">
        <ele>769.6</ele>
        <time>2025-10-04T14:43:26Z</time>
      </trkpt>
      <trkpt lat="46.01125" lon="4.42332">
        <ele>770</ele>
        <time>2025-10-04T14:43:44Z</time>
      </trkpt>
      <trkpt lat="46.01126" lon="4.42332">
        <ele>770.2</ele>
        <time>2025-10-04T14:43:45Z</time>
      </trkpt>
      <trkpt lat="46.01127" lon="4.42332">
        <ele>770.6</ele>
        <time>2025-10-04T14:43:46Z</time>
      </trkpt>
      <trkpt lat="46.01129" lon="4.42333">
        <ele>770.8</ele>
        <time>2025-10-04T14:43:47Z</time>
      </trkpt>
      <trkpt lat="46.0113" lon="4.42333">
        <ele>770.8</ele>
        <time>2025-10-04T14:43:48Z</time>
      </trkpt>
      <trkpt lat="46.01131" lon="4.42333">
        <ele>771</ele>
        <time>2025-10-04T14:43:49Z</time>
      </trkpt>
      <trkpt lat="46.01131" lon="4.42333">
        <ele>771</ele>
        <time>2025-10-04T14:43:50Z</time>
      </trkpt>
      <trkpt lat="46.01133" lon="4.42333">
        <ele>771.4</ele>
        <time>2025-10-04T14:43:51Z</time>
      </trkpt>
      <trkpt lat="46.01134" lon="4.42334">
        <ele>771.4</ele>
        <time>2025-10-04T14:43:52Z</time>
      </trkpt>
      <trkpt lat="46.01135" lon="4.42334">
        <ele>771.8</ele>
        <time>2025-10-04T14:43:53Z</time>
      </trkpt>
      <trkpt lat="46.01136" lon="4.42335">
        <ele>772</ele>
        <time>2025-10-04T14:43:54Z</time>
      </trkpt>
      <trkpt lat="46.01138" lon="4.42336">
        <ele>772.2</ele>
        <time>2025-10-04T14:43:55Z</time>
      </trkpt>
      <trkpt lat="46.01139" lon="4.42337">
        <ele>772.2</ele>
        <time>2025-10-04T14:43:56Z</time>
      </trkpt>
      <trkpt lat="46.0114" lon="4.42337">
        <ele>772.6</ele>
        <time>2025-10-04T14:43:57Z</time>
      </trkpt>
      <trkpt lat="46.01142" lon="4.42337">
        <ele>772.8</ele>
        <time>2025-10-04T14:43:58Z</time>
      </trkpt>
      <trkpt lat="46.01143" lon="4.42338">
        <ele>772.8</ele>
        <time>2025-10-04T14:43:59Z</time>
      </trkpt>
      <trkpt lat="46.01144" lon="4.42338">
        <ele>773.2</ele>
        <time>2025-10-04T14:44:00Z</time>
      </trkpt>
      <trkpt lat="46.01145" lon="4.42339">
        <ele>773.2</ele>
        <time>2025-10-04T14:44:01Z</time>
      </trkpt>
      <trkpt lat="46.01146" lon="4.42339">
        <ele>773.4</ele>
        <time>2025-10-04T14:44:02Z</time>
      </trkpt>
      <trkpt lat="46.01148" lon="4.4234">
        <ele>773.4</ele>
        <time>2025-10-04T14:44:03Z</time>
      </trkpt>
      <trkpt lat="46.01149" lon="4.4234">
        <ele>773.8</ele>
        <time>2025-10-04T14:44:04Z</time>
      </trkpt>
      <trkpt lat="46.0115" lon="4.42341">
        <ele>773.8</ele>
        <time>2025-10-04T14:44:05Z</time>
      </trkpt>
      <trkpt lat="46.01151" lon="4.42342">
        <ele>773.8</ele>
        <time>2025-10-04T14:44:06Z</time>
      </trkpt>
      <trkpt lat="46.01152" lon="4.42344">
        <ele>773.8</ele>
        <time>2025-10-04T14:44:07Z</time>
      </trkpt>
      <trkpt lat="46.01153" lon="4.42345">
        <ele>774</ele>
        <time>2025-10-04T14:44:08Z</time>
      </trkpt>
      <trkpt lat="46.01154" lon="4.42347">
        <ele>774</ele>
        <time>2025-10-04T14:44:09Z</time>
      </trkpt>
      <trkpt lat="46.01154" lon="4.42348">
        <ele>774</ele>
        <time>2025-10-04T14:44:10Z</time>
      </trkpt>
      <trkpt lat="46.01155" lon="4.42347">
        <ele>774</ele>
        <time>2025-10-04T14:44:11Z</time>
      </trkpt>
      <trkpt lat="46.01156" lon="4.42348">
        <ele>774.2</ele>
        <time>2025-10-04T14:44:12Z</time>
      </trkpt>
      <trkpt lat="46.01157" lon="4.42348">
        <ele>774.2</ele>
        <time>2025-10-04T14:44:13Z</time>
      </trkpt>
      <trkpt lat="46.01159" lon="4.42349">
        <ele>774.4</ele>
        <time>2025-10-04T14:44:14Z</time>
      </trkpt>
      <trkpt lat="46.0116" lon="4.42349">
        <ele>774.4</ele>
        <time>2025-10-04T14:44:15Z</time>
      </trkpt>
      <trkpt lat="46.01161" lon="4.4235">
        <ele>774.4</ele>
        <time>2025-10-04T14:44:16Z</time>
      </trkpt>
      <trkpt lat="46.01162" lon="4.4235">
        <ele>774.8</ele>
        <time>2025-10-04T14:44:17Z</time>
      </trkpt>
      <trkpt lat="46.01163" lon="4.4235">
        <ele>774.8</ele>
        <time>2025-10-04T14:44:18Z</time>
      </trkpt>
      <trkpt lat="46.01164" lon="4.4235">
        <ele>774.8</ele>
        <time>2025-10-04T14:44:19Z</time>
      </trkpt>
      <trkpt lat="46.01164" lon="4.4235">
        <ele>774.8</ele>
        <time>2025-10-04T14:44:20Z</time>
      </trkpt>
      <trkpt lat="46.01165" lon="4.42351">
        <ele>775</ele>
        <time>2025-10-04T14:44:28Z</time>
      </trkpt>
      <trkpt lat="46.01167" lon="4.42351">
        <ele>775</ele>
        <time>2025-10-04T14:44:29Z</time>
      </trkpt>
      <trkpt lat="46.01168" lon="4.42353">
        <ele>775.2</ele>
        <time>2025-10-04T14:44:30Z</time>
      </trkpt>
      <trkpt lat="46.01169" lon="4.42353">
        <ele>775.4</ele>
        <time>2025-10-04T14:44:31Z</time>
      </trkpt>
      <trkpt lat="46.01169" lon="4.42354">
        <ele>775.4</ele>
        <time>2025-10-04T14:44:32Z</time>
      </trkpt>
      <trkpt lat="46.01171" lon="4.42355">
        <ele>775.6</ele>
        <time>2025-10-04T14:44:33Z</time>
      </trkpt>
      <trkpt lat="46.01172" lon="4.42356">
        <ele>776</ele>
        <time>2025-10-04T14:44:34Z</time>
      </trkpt>
      <trkpt lat="46.01173" lon="4.42357">
        <ele>776</ele>
        <time>2025-10-04T14:44:35Z</time>
      </trkpt>
      <trkpt lat="46.01174" lon="4.42358">
        <ele>776</ele>
        <time>2025-10-04T14:44:36Z</time>
      </trkpt>
      <trkpt lat="46.01175" lon="4.4236">
        <ele>776</ele>
        <time>2025-10-04T14:44:37Z</time>
      </trkpt>
      <trkpt lat="46.01175" lon="4.42362">
        <ele>776</ele>
        <time>2025-10-04T14:44:38Z</time>
      </trkpt>
      <trkpt lat="46.01175" lon="4.42363">
        <ele>776</ele>
        <time>2025-10-04T14:44:39Z</time>
      </trkpt>
      <trkpt lat="46.01175" lon="4.42363">
        <ele>776.4</ele>
        <time>2025-10-04T14:44:40Z</time>
      </trkpt>
      <trkpt lat="46.01176" lon="4.42364">
        <ele>776.4</ele>
        <time>2025-10-04T14:44:41Z</time>
      </trkpt>
      <trkpt lat="46.01177" lon="4.42364">
        <ele>776.8</ele>
        <time>2025-10-04T14:44:42Z</time>
      </trkpt>
      <trkpt lat="46.01178" lon="4.42365">
        <ele>777.2</ele>
        <time>2025-10-04T14:44:43Z</time>
      </trkpt>
      <trkpt lat="46.01179" lon="4.42366">
        <ele>776.4</ele>
        <time>2025-10-04T14:44:44Z</time>
      </trkpt>
      <trkpt lat="46.0118" lon="4.42366">
        <ele>777</ele>
        <time>2025-10-04T14:44:45Z</time>
      </trkpt>
      <trkpt lat="46.01182" lon="4.42367">
        <ele>777</ele>
        <time>2025-10-04T14:44:46Z</time>
      </trkpt>
      <trkpt lat="46.01183" lon="4.42368">
        <ele>777.8</ele>
        <time>2025-10-04T14:44:47Z</time>
      </trkpt>
      <trkpt lat="46.01184" lon="4.42368">
        <ele>778</ele>
        <time>2025-10-04T14:44:48Z</time>
      </trkpt>
      <trkpt lat="46.01185" lon="4.42369">
        <ele>778.2</ele>
        <time>2025-10-04T14:44:49Z</time>
      </trkpt>
      <trkpt lat="46.01186" lon="4.42369">
        <ele>778.2</ele>
        <time>2025-10-04T14:44:50Z</time>
      </trkpt>
      <trkpt lat="46.01187" lon="4.4237">
        <ele>778.6</ele>
        <time>2025-10-04T14:44:51Z</time>
      </trkpt>
      <trkpt lat="46.01187" lon="4.42371">
        <ele>778.6</ele>
        <time>2025-10-04T14:44:52Z</time>
      </trkpt>
      <trkpt lat="46.01188" lon="4.42371">
        <ele>778.6</ele>
        <time>2025-10-04T14:44:53Z</time>
      </trkpt>
      <trkpt lat="46.01188" lon="4.42372">
        <ele>778.6</ele>
        <time>2025-10-04T14:44:54Z</time>
      </trkpt>
      <trkpt lat="46.01188" lon="4.42373">
        <ele>778.6</ele>
        <time>2025-10-04T14:44:55Z</time>
      </trkpt>
      <trkpt lat="46.01188" lon="4.42374">
        <ele>779</ele>
        <time>2025-10-04T14:44:56Z</time>
      </trkpt>
      <trkpt lat="46.01188" lon="4.42375">
        <ele>779</ele>
        <time>2025-10-04T14:44:57Z</time>
      </trkpt>
      <trkpt lat="46.01188" lon="4.42375">
        <ele>779.2</ele>
        <time>2025-10-04T14:44:58Z</time>
      </trkpt>
      <trkpt lat="46.01188" lon="4.42375">
        <ele>779.6</ele>
        <time>2025-10-04T14:44:59Z</time>
      </trkpt>
      <trkpt lat="46.01189" lon="4.42374">
        <ele>780</ele>
        <time>2025-10-04T14:45:00Z</time>
      </trkpt>
      <trkpt lat="46.0119" lon="4.42375">
        <ele>780.2</ele>
        <time>2025-10-04T14:45:01Z</time>
      </trkpt>
      <trkpt lat="46.01191" lon="4.42375">
        <ele>780.4</ele>
        <time>2025-10-04T14:45:02Z</time>
      </trkpt>
      <trkpt lat="46.01191" lon="4.42375">
        <ele>780.8</ele>
        <time>2025-10-04T14:45:03Z</time>
      </trkpt>
      <trkpt lat="46.01191" lon="4.42375">
        <ele>780.8</ele>
        <time>2025-10-04T14:45:04Z</time>
      </trkpt>
      <trkpt lat="46.01192" lon="4.42375">
        <ele>781</ele>
        <time>2025-10-04T14:45:05Z</time>
      </trkpt>
      <trkpt lat="46.01194" lon="4.42375">
        <ele>781.2</ele>
        <time>2025-10-04T14:45:06Z</time>
      </trkpt>
      <trkpt lat="46.01195" lon="4.42376">
        <ele>781.4</ele>
        <time>2025-10-04T14:45:07Z</time>
      </trkpt>
      <trkpt lat="46.01197" lon="4.42377">
        <ele>781.4</ele>
        <time>2025-10-04T14:45:08Z</time>
      </trkpt>
      <trkpt lat="46.01197" lon="4.42377">
        <ele>781.6</ele>
        <time>2025-10-04T14:45:09Z</time>
      </trkpt>
      <trkpt lat="46.01198" lon="4.42377">
        <ele>781.6</ele>
        <time>2025-10-04T14:45:10Z</time>
      </trkpt>
      <trkpt lat="46.01199" lon="4.42377">
        <ele>782</ele>
        <time>2025-10-04T14:45:11Z</time>
      </trkpt>
      <trkpt lat="46.012" lon="4.42377">
        <ele>782.2</ele>
        <time>2025-10-04T14:45:12Z</time>
      </trkpt>
      <trkpt lat="46.01201" lon="4.42378">
        <ele>782.2</ele>
        <time>2025-10-04T14:45:13Z</time>
      </trkpt>
      <trkpt lat="46.01202" lon="4.42379">
        <ele>782.2</ele>
        <time>2025-10-04T14:45:14Z</time>
      </trkpt>
      <trkpt lat="46.01202" lon="4.4238">
        <ele>782.6</ele>
        <time>2025-10-04T14:45:15Z</time>
      </trkpt>
      <trkpt lat="46.01203" lon="4.42381">
        <ele>782.8</ele>
        <time>2025-10-04T14:45:16Z</time>
      </trkpt>
      <trkpt lat="46.01203" lon="4.42382">
        <ele>783</ele>
        <time>2025-10-04T14:45:17Z</time>
      </trkpt>
      <trkpt lat="46.01204" lon="4.42383">
        <ele>783</ele>
        <time>2025-10-04T14:45:18Z</time>
      </trkpt>
      <trkpt lat="46.01205" lon="4.42383">
        <ele>783.2</ele>
        <time>2025-10-04T14:45:19Z</time>
      </trkpt>
      <trkpt lat="46.01206" lon="4.42384">
        <ele>783.2</ele>
        <time>2025-10-04T14:45:20Z</time>
      </trkpt>
      <trkpt lat="46.01207" lon="4.42384">
        <ele>783.6</ele>
        <time>2025-10-04T14:45:21Z</time>
      </trkpt>
      <trkpt lat="46.01207" lon="4.42385">
        <ele>783.6</ele>
        <time>2025-10-04T14:45:22Z</time>
      </trkpt>
      <trkpt lat="46.01207" lon="4.42385">
        <ele>784.2</ele>
        <time>2025-10-04T14:45:23Z</time>
      </trkpt>
      <trkpt lat="46.01208" lon="4.42385">
        <ele>784.2</ele>
        <time>2025-10-04T14:45:24Z</time>
      </trkpt>
      <trkpt lat="46.01208" lon="4.42385">
        <ele>784.4</ele>
        <time>2025-10-04T14:45:25Z</time>
      </trkpt>
      <trkpt lat="46.01209" lon="4.42385">
        <ele>784.6</ele>
        <time>2025-10-04T14:45:26Z</time>
      </trkpt>
      <trkpt lat="46.0121" lon="4.42385">
        <ele>785</ele>
        <time>2025-10-04T14:45:27Z</time>
      </trkpt>
      <trkpt lat="46.01211" lon="4.42386">
        <ele>785.2</ele>
        <time>2025-10-04T14:45:28Z</time>
      </trkpt>
      <trkpt lat="46.01211" lon="4.42387">
        <ele>785.4</ele>
        <time>2025-10-04T14:45:29Z</time>
      </trkpt>
      <trkpt lat="46.01212" lon="4.42388">
        <ele>785.6</ele>
        <time>2025-10-04T14:45:30Z</time>
      </trkpt>
      <trkpt lat="46.01212" lon="4.42388">
        <ele>786.2</ele>
        <time>2025-10-04T14:45:31Z</time>
      </trkpt>
      <trkpt lat="46.01213" lon="4.42389">
        <ele>786.4</ele>
        <time>2025-10-04T14:45:32Z</time>
      </trkpt>
      <trkpt lat="46.01213" lon="4.42389">
        <ele>786.8</ele>
        <time>2025-10-04T14:45:33Z</time>
      </trkpt>
      <trkpt lat="46.01214" lon="4.4239">
        <ele>786.8</ele>
        <time>2025-10-04T14:45:34Z</time>
      </trkpt>
      <trkpt lat="46.01215" lon="4.4239">
        <ele>787.2</ele>
        <time>2025-10-04T14:45:35Z</time>
      </trkpt>
      <trkpt lat="46.01215" lon="4.4239">
        <ele>787.2</ele>
        <time>2025-10-04T14:45:36Z</time>
      </trkpt>
      <trkpt lat="46.01216" lon="4.4239">
        <ele>787.4</ele>
        <time>2025-10-04T14:45:37Z</time>
      </trkpt>
      <trkpt lat="46.01217" lon="4.42391">
        <ele>787.4</ele>
        <time>2025-10-04T14:45:38Z</time>
      </trkpt>
      <trkpt lat="46.01218" lon="4.42392">
        <ele>787.4</ele>
        <time>2025-10-04T14:45:39Z</time>
      </trkpt>
      <trkpt lat="46.01219" lon="4.42393">
        <ele>787.8</ele>
        <time>2025-10-04T14:45:40Z</time>
      </trkpt>
      <trkpt lat="46.01219" lon="4.42394">
        <ele>787.8</ele>
        <time>2025-10-04T14:45:41Z</time>
      </trkpt>
      <trkpt lat="46.01221" lon="4.42394">
        <ele>787.8</ele>
        <time>2025-10-04T14:45:42Z</time>
      </trkpt>
      <trkpt lat="46.01224" lon="4.42394">
        <ele>787.8</ele>
        <time>2025-10-04T14:45:43Z</time>
      </trkpt>
      <trkpt lat="46.01226" lon="4.42395">
        <ele>788.2</ele>
        <time>2025-10-04T14:45:44Z</time>
      </trkpt>
      <trkpt lat="46.01229" lon="4.42395">
        <ele>788.2</ele>
        <time>2025-10-04T14:45:45Z</time>
      </trkpt>
      <trkpt lat="46.01231" lon="4.42395">
        <ele>788.2</ele>
        <time>2025-10-04T14:45:46Z</time>
      </trkpt>
      <trkpt lat="46.01233" lon="4.42395">
        <ele>788.2</ele>
        <time>2025-10-04T14:45:47Z</time>
      </trkpt>
      <trkpt lat="46.01235" lon="4.42395">
        <ele>788.6</ele>
        <time>2025-10-04T14:45:48Z</time>
      </trkpt>
      <trkpt lat="46.01237" lon="4.42395">
        <ele>788.8</ele>
        <time>2025-10-04T14:45:49Z</time>
      </trkpt>
      <trkpt lat="46.01238" lon="4.42396">
        <ele>788.8</ele>
        <time>2025-10-04T14:45:50Z</time>
      </trkpt>
      <trkpt lat="46.0124" lon="4.42397">
        <ele>788.8</ele>
        <time>2025-10-04T14:45:51Z</time>
      </trkpt>
      <trkpt lat="46.01241" lon="4.42398">
        <ele>788.8</ele>
        <time>2025-10-04T14:45:52Z</time>
      </trkpt>
      <trkpt lat="46.01242" lon="4.42399">
        <ele>788.8</ele>
        <time>2025-10-04T14:45:53Z</time>
      </trkpt>
      <trkpt lat="46.01243" lon="4.42399">
        <ele>789</ele>
        <time>2025-10-04T14:45:54Z</time>
      </trkpt>
      <trkpt lat="46.01244" lon="4.424">
        <ele>789</ele>
        <time>2025-10-04T14:45:55Z</time>
      </trkpt>
      <trkpt lat="46.01245" lon="4.42399">
        <ele>789.2</ele>
        <time>2025-10-04T14:45:56Z</time>
      </trkpt>
      <trkpt lat="46.01246" lon="4.42399">
        <ele>789.2</ele>
        <time>2025-10-04T14:45:57Z</time>
      </trkpt>
      <trkpt lat="46.01247" lon="4.42398">
        <ele>789.2</ele>
        <time>2025-10-04T14:45:58Z</time>
      </trkpt>
      <trkpt lat="46.01249" lon="4.42397">
        <ele>789.6</ele>
        <time>2025-10-04T14:45:59Z</time>
      </trkpt>
      <trkpt lat="46.0125" lon="4.42396">
        <ele>789.6</ele>
        <time>2025-10-04T14:46:00Z</time>
      </trkpt>
      <trkpt lat="46.01251" lon="4.42395">
        <ele>790</ele>
        <time>2025-10-04T14:46:01Z</time>
      </trkpt>
      <trkpt lat="46.01252" lon="4.42394">
        <ele>790</ele>
        <time>2025-10-04T14:46:02Z</time>
      </trkpt>
      <trkpt lat="46.01253" lon="4.42393">
        <ele>790.2</ele>
        <time>2025-10-04T14:46:03Z</time>
      </trkpt>
      <trkpt lat="46.01254" lon="4.42393">
        <ele>790.2</ele>
        <time>2025-10-04T14:46:04Z</time>
      </trkpt>
      <trkpt lat="46.01254" lon="4.42392">
        <ele>790.6</ele>
        <time>2025-10-04T14:46:05Z</time>
      </trkpt>
      <trkpt lat="46.01254" lon="4.42392">
        <ele>790.6</ele>
        <time>2025-10-04T14:46:06Z</time>
      </trkpt>
      <trkpt lat="46.01255" lon="4.42392">
        <ele>790.6</ele>
        <time>2025-10-04T14:46:07Z</time>
      </trkpt>
      <trkpt lat="46.01256" lon="4.42392">
        <ele>790.8</ele>
        <time>2025-10-04T14:46:08Z</time>
      </trkpt>
      <trkpt lat="46.01258" lon="4.42392">
        <ele>790.8</ele>
        <time>2025-10-04T14:46:09Z</time>
      </trkpt>
      <trkpt lat="46.01259" lon="4.42392">
        <ele>790.8</ele>
        <time>2025-10-04T14:46:10Z</time>
      </trkpt>
      <trkpt lat="46.01259" lon="4.42393">
        <ele>790.8</ele>
        <time>2025-10-04T14:46:11Z</time>
      </trkpt>
      <trkpt lat="46.0126" lon="4.42394">
        <ele>791.2</ele>
        <time>2025-10-04T14:46:12Z</time>
      </trkpt>
      <trkpt lat="46.0126" lon="4.42394">
        <ele>791.2</ele>
        <time>2025-10-04T14:46:13Z</time>
      </trkpt>
      <trkpt lat="46.01261" lon="4.42393">
        <ele>791.6</ele>
        <time>2025-10-04T14:46:14Z</time>
      </trkpt>
      <trkpt lat="46.01262" lon="4.42392">
        <ele>791.8</ele>
        <time>2025-10-04T14:46:15Z</time>
      </trkpt>
      <trkpt lat="46.01263" lon="4.42392">
        <ele>791.8</ele>
        <time>2025-10-04T14:46:16Z</time>
      </trkpt>
      <trkpt lat="46.01263" lon="4.42392">
        <ele>791.8</ele>
        <time>2025-10-04T14:46:17Z</time>
      </trkpt>
      <trkpt lat="46.01263" lon="4.42393">
        <ele>792</ele>
        <time>2025-10-04T14:46:18Z</time>
      </trkpt>
      <trkpt lat="46.01263" lon="4.42393">
        <ele>792</ele>
        <time>2025-10-04T14:46:19Z</time>
      </trkpt>
      <trkpt lat="46.01265" lon="4.42393">
        <ele>791.8</ele>
        <time>2025-10-04T14:46:23Z</time>
      </trkpt>
      <trkpt lat="46.01266" lon="4.42393">
        <ele>791.8</ele>
        <time>2025-10-04T14:46:24Z</time>
      </trkpt>
      <trkpt lat="46.01267" lon="4.42393">
        <ele>791.8</ele>
        <time>2025-10-04T14:46:25Z</time>
      </trkpt>
      <trkpt lat="46.01268" lon="4.42393">
        <ele>791.8</ele>
        <time>2025-10-04T14:46:26Z</time>
      </trkpt>
      <trkpt lat="46.01268" lon="4.42393">
        <ele>791.8</ele>
        <time>2025-10-04T14:46:27Z</time>
      </trkpt>
      <trkpt lat="46.01269" lon="4.42393">
        <ele>792.2</ele>
        <time>2025-10-04T14:46:28Z</time>
      </trkpt>
      <trkpt lat="46.01269" lon="4.42393">
        <ele>792.2</ele>
        <time>2025-10-04T14:46:29Z</time>
      </trkpt>
      <trkpt lat="46.01269" lon="4.42393">
        <ele>792.4</ele>
        <time>2025-10-04T14:46:30Z</time>
      </trkpt>
      <trkpt lat="46.01269" lon="4.42392">
        <ele>792.6</ele>
        <time>2025-10-04T14:46:31Z</time>
      </trkpt>
      <trkpt lat="46.01261" lon="4.42388">
        <ele>793.8</ele>
        <time>2025-10-04T14:47:35Z</time>
      </trkpt>
      <trkpt lat="46.01261" lon="4.42389">
        <ele>793.4</ele>
        <time>2025-10-04T14:47:36Z</time>
      </trkpt>
      <trkpt lat="46.01262" lon="4.4239">
        <ele>793.4</ele>
        <time>2025-10-04T14:47:37Z</time>
      </trkpt>
      <trkpt lat="46.01263" lon="4.42391">
        <ele>793.2</ele>
        <time>2025-10-04T14:47:38Z</time>
      </trkpt>
      <trkpt lat="46.01264" lon="4.42392">
        <ele>792.8</ele>
        <time>2025-10-04T14:47:39Z</time>
      </trkpt>
      <trkpt lat="46.01264" lon="4.42393">
        <ele>792.8</ele>
        <time>2025-10-04T14:47:40Z</time>
      </trkpt>
      <trkpt lat="46.01266" lon="4.42393">
        <ele>792.8</ele>
        <time>2025-10-04T14:47:41Z</time>
      </trkpt>
      <trkpt lat="46.01269" lon="4.42392">
        <ele>792.8</ele>
        <time>2025-10-04T14:47:42Z</time>
      </trkpt>
      <trkpt lat="46.01272" lon="4.42392">
        <ele>792.8</ele>
        <time>2025-10-04T14:47:43Z</time>
      </trkpt>
      <trkpt lat="46.01272" lon="4.42392">
        <ele>792.8</ele>
        <time>2025-10-04T14:47:44Z</time>
      </trkpt>
      <trkpt lat="46.01275" lon="4.42392">
        <ele>792.8</ele>
        <time>2025-10-04T14:47:45Z</time>
      </trkpt>
      <trkpt lat="46.01278" lon="4.42393">
        <ele>793.2</ele>
        <time>2025-10-04T14:47:46Z</time>
      </trkpt>
      <trkpt lat="46.0128" lon="4.42395">
        <ele>793.2</ele>
        <time>2025-10-04T14:47:47Z</time>
      </trkpt>
      <trkpt lat="46.01281" lon="4.42396">
        <ele>793.2</ele>
        <time>2025-10-04T14:47:48Z</time>
      </trkpt>
      <trkpt lat="46.01283" lon="4.42397">
        <ele>793.6</ele>
        <time>2025-10-04T14:47:49Z</time>
      </trkpt>
      <trkpt lat="46.01285" lon="4.42398">
        <ele>793.6</ele>
        <time>2025-10-04T14:47:50Z</time>
      </trkpt>
      <trkpt lat="46.01287" lon="4.42399">
        <ele>793.8</ele>
        <time>2025-10-04T14:47:51Z</time>
      </trkpt>
      <trkpt lat="46.01289" lon="4.424">
        <ele>793.8</ele>
        <time>2025-10-04T14:47:52Z</time>
      </trkpt>
      <trkpt lat="46.01291" lon="4.42401">
        <ele>793.8</ele>
        <time>2025-10-04T14:47:53Z</time>
      </trkpt>
      <trkpt lat="46.01293" lon="4.42401">
        <ele>793.2</ele>
        <time>2025-10-04T14:47:54Z</time>
      </trkpt>
      <trkpt lat="46.01295" lon="4.42402">
        <ele>793.4</ele>
        <time>2025-10-04T14:47:55Z</time>
      </trkpt>
      <trkpt lat="46.01296" lon="4.42402">
        <ele>793.4</ele>
        <time>2025-10-04T14:47:56Z</time>
      </trkpt>
      <trkpt lat="46.01297" lon="4.42403">
        <ele>793.4</ele>
        <time>2025-10-04T14:47:57Z</time>
      </trkpt>
      <trkpt lat="46.013" lon="4.42404">
        <ele>793</ele>
        <time>2025-10-04T14:47:58Z</time>
      </trkpt>
      <trkpt lat="46.01303" lon="4.42405">
        <ele>792.4</ele>
        <time>2025-10-04T14:47:59Z</time>
      </trkpt>
      <trkpt lat="46.01305" lon="4.42406">
        <ele>792.4</ele>
        <time>2025-10-04T14:48:00Z</time>
      </trkpt>
      <trkpt lat="46.01307" lon="4.42408">
        <ele>792.4</ele>
        <time>2025-10-04T14:48:01Z</time>
      </trkpt>
      <trkpt lat="46.01309" lon="4.42408">
        <ele>792.4</ele>
        <time>2025-10-04T14:48:02Z</time>
      </trkpt>
      <trkpt lat="46.01311" lon="4.4241">
        <ele>792.8</ele>
        <time>2025-10-04T14:48:03Z</time>
      </trkpt>
      <trkpt lat="46.01313" lon="4.4241">
        <ele>793</ele>
        <time>2025-10-04T14:48:04Z</time>
      </trkpt>
      <trkpt lat="46.01315" lon="4.42411">
        <ele>792.4</ele>
        <time>2025-10-04T14:48:05Z</time>
      </trkpt>
      <trkpt lat="46.01318" lon="4.42411">
        <ele>792.2</ele>
        <time>2025-10-04T14:48:06Z</time>
      </trkpt>
      <trkpt lat="46.0132" lon="4.42412">
        <ele>792.6</ele>
        <time>2025-10-04T14:48:07Z</time>
      </trkpt>
      <trkpt lat="46.01323" lon="4.42412">
        <ele>793.2</ele>
        <time>2025-10-04T14:48:08Z</time>
      </trkpt>
      <trkpt lat="46.01327" lon="4.42412">
        <ele>792.4</ele>
        <time>2025-10-04T14:48:09Z</time>
      </trkpt>
      <trkpt lat="46.0133" lon="4.42413">
        <ele>792.4</ele>
        <time>2025-10-04T14:48:10Z</time>
      </trkpt>
      <trkpt lat="46.01335" lon="4.4241">
        <ele>792.4</ele>
        <time>2025-10-04T14:48:11Z</time>
      </trkpt>
      <trkpt lat="46.01339" lon="4.42412">
        <ele>792.2</ele>
        <time>2025-10-04T14:48:12Z</time>
      </trkpt>
      <trkpt lat="46.01344" lon="4.4241">
        <ele>790.8</ele>
        <time>2025-10-04T14:48:13Z</time>
      </trkpt>
      <trkpt lat="46.0135" lon="4.42411">
        <ele>789.8</ele>
        <time>2025-10-04T14:48:14Z</time>
      </trkpt>
      <trkpt lat="46.01355" lon="4.4241">
        <ele>788.4</ele>
        <time>2025-10-04T14:48:15Z</time>
      </trkpt>
      <trkpt lat="46.01361" lon="4.42409">
        <ele>787.2</ele>
        <time>2025-10-04T14:48:16Z</time>
      </trkpt>
      <trkpt lat="46.01381" lon="4.42412">
        <ele>786</ele>
        <time>2025-10-04T14:48:17Z</time>
      </trkpt>
      <trkpt lat="46.01388" lon="4.42413">
        <ele>785</ele>
        <time>2025-10-04T14:48:18Z</time>
      </trkpt>
      <trkpt lat="46.014" lon="4.42417">
        <ele>783.2</ele>
        <time>2025-10-04T14:48:19Z</time>
      </trkpt>
      <trkpt lat="46.01411" lon="4.42418">
        <ele>781.6</ele>
        <time>2025-10-04T14:48:20Z</time>
      </trkpt>
      <trkpt lat="46.0142" lon="4.42421">
        <ele>781</ele>
        <time>2025-10-04T14:48:21Z</time>
      </trkpt>
      <trkpt lat="46.01432" lon="4.42424">
        <ele>779.4</ele>
        <time>2025-10-04T14:48:22Z</time>
      </trkpt>
      <trkpt lat="46.01444" lon="4.42426">
        <ele>778.8</ele>
        <time>2025-10-04T14:48:23Z</time>
      </trkpt>
      <trkpt lat="46.01455" lon="4.42427">
        <ele>776.8</ele>
        <time>2025-10-04T14:48:24Z</time>
      </trkpt>
      <trkpt lat="46.01467" lon="4.4243">
        <ele>775.2</ele>
        <time>2025-10-04T14:48:25Z</time>
      </trkpt>
      <trkpt lat="46.01475" lon="4.42444">
        <ele>774.2</ele>
        <time>2025-10-04T14:48:26Z</time>
      </trkpt>
      <trkpt lat="46.01485" lon="4.42448">
        <ele>772.8</ele>
        <time>2025-10-04T14:48:27Z</time>
      </trkpt>
      <trkpt lat="46.01494" lon="4.42453">
        <ele>772.2</ele>
        <time>2025-10-04T14:48:28Z</time>
      </trkpt>
      <trkpt lat="46.01502" lon="4.42459">
        <ele>771.8</ele>
        <time>2025-10-04T14:48:29Z</time>
      </trkpt>
      <trkpt lat="46.01511" lon="4.42464">
        <ele>771.4</ele>
        <time>2025-10-04T14:48:30Z</time>
      </trkpt>
      <trkpt lat="46.01519" lon="4.42468">
        <ele>771.4</ele>
        <time>2025-10-04T14:48:31Z</time>
      </trkpt>
      <trkpt lat="46.01526" lon="4.42473">
        <ele>771.4</ele>
        <time>2025-10-04T14:48:32Z</time>
      </trkpt>
      <trkpt lat="46.01534" lon="4.42477">
        <ele>771.4</ele>
        <time>2025-10-04T14:48:33Z</time>
      </trkpt>
      <trkpt lat="46.01545" lon="4.42482">
        <ele>770.8</ele>
        <time>2025-10-04T14:48:34Z</time>
      </trkpt>
      <trkpt lat="46.01549" lon="4.42482">
        <ele>770.6</ele>
        <time>2025-10-04T14:48:35Z</time>
      </trkpt>
      <trkpt lat="46.01557" lon="4.42485">
        <ele>771</ele>
        <time>2025-10-04T14:48:36Z</time>
      </trkpt>
      <trkpt lat="46.01562" lon="4.4249">
        <ele>771</ele>
        <time>2025-10-04T14:48:37Z</time>
      </trkpt>
      <trkpt lat="46.01568" lon="4.42495">
        <ele>770.2</ele>
        <time>2025-10-04T14:48:38Z</time>
      </trkpt>
      <trkpt lat="46.01576" lon="4.425">
        <ele>770.4</ele>
        <time>2025-10-04T14:48:39Z</time>
      </trkpt>
      <trkpt lat="46.01583" lon="4.42507">
        <ele>770.6</ele>
        <time>2025-10-04T14:48:40Z</time>
      </trkpt>
      <trkpt lat="46.01592" lon="4.42508">
        <ele>771</ele>
        <time>2025-10-04T14:48:41Z</time>
      </trkpt>
      <trkpt lat="46.01593" lon="4.42518">
        <ele>771.6</ele>
        <time>2025-10-04T14:48:42Z</time>
      </trkpt>
      <trkpt lat="46.01596" lon="4.42523">
        <ele>772.2</ele>
        <time>2025-10-04T14:48:43Z</time>
      </trkpt>
      <trkpt lat="46.016" lon="4.42528">
        <ele>772.6</ele>
        <time>2025-10-04T14:48:44Z</time>
      </trkpt>
      <trkpt lat="46.01603" lon="4.42531">
        <ele>773.2</ele>
        <time>2025-10-04T14:48:45Z</time>
      </trkpt>
      <trkpt lat="46.01606" lon="4.42536">
        <ele>773.4</ele>
        <time>2025-10-04T14:48:46Z</time>
      </trkpt>
      <trkpt lat="46.01611" lon="4.4254">
        <ele>773.4</ele>
        <time>2025-10-04T14:48:47Z</time>
      </trkpt>
      <trkpt lat="46.01614" lon="4.42544">
        <ele>773.8</ele>
        <time>2025-10-04T14:48:48Z</time>
      </trkpt>
      <trkpt lat="46.01617" lon="4.42549">
        <ele>773.8</ele>
        <time>2025-10-04T14:48:49Z</time>
      </trkpt>
      <trkpt lat="46.0162" lon="4.42552">
        <ele>773.8</ele>
        <time>2025-10-04T14:48:50Z</time>
      </trkpt>
      <trkpt lat="46.01624" lon="4.42558">
        <ele>773.8</ele>
        <time>2025-10-04T14:48:51Z</time>
      </trkpt>
      <trkpt lat="46.01627" lon="4.42562">
        <ele>773.8</ele>
        <time>2025-10-04T14:48:52Z</time>
      </trkpt>
      <trkpt lat="46.0163" lon="4.42566">
        <ele>773.4</ele>
        <time>2025-10-04T14:48:53Z</time>
      </trkpt>
      <trkpt lat="46.01635" lon="4.42571">
        <ele>773.4</ele>
        <time>2025-10-04T14:48:54Z</time>
      </trkpt>
      <trkpt lat="46.01637" lon="4.42576">
        <ele>773.2</ele>
        <time>2025-10-04T14:48:55Z</time>
      </trkpt>
      <trkpt lat="46.01642" lon="4.42582">
        <ele>773.2</ele>
        <time>2025-10-04T14:48:56Z</time>
      </trkpt>
      <trkpt lat="46.01647" lon="4.42589">
        <ele>773</ele>
        <time>2025-10-04T14:48:57Z</time>
      </trkpt>
      <trkpt lat="46.01653" lon="4.42594">
        <ele>772.6</ele>
        <time>2025-10-04T14:48:58Z</time>
      </trkpt>
      <trkpt lat="46.01657" lon="4.42601">
        <ele>772.2</ele>
        <time>2025-10-04T14:48:59Z</time>
      </trkpt>
      <trkpt lat="46.01663" lon="4.42609">
        <ele>771.6</ele>
        <time>2025-10-04T14:49:00Z</time>
      </trkpt>
      <trkpt lat="46.01668" lon="4.42616">
        <ele>770.4</ele>
        <time>2025-10-04T14:49:01Z</time>
      </trkpt>
      <trkpt lat="46.01674" lon="4.42624">
        <ele>769.6</ele>
        <time>2025-10-04T14:49:02Z</time>
      </trkpt>
      <trkpt lat="46.01679" lon="4.42632">
        <ele>769.4</ele>
        <time>2025-10-04T14:49:03Z</time>
      </trkpt>
      <trkpt lat="46.01685" lon="4.4264">
        <ele>768.8</ele>
        <time>2025-10-04T14:49:04Z</time>
      </trkpt>
      <trkpt lat="46.01689" lon="4.42645">
        <ele>768.4</ele>
        <time>2025-10-04T14:49:05Z</time>
      </trkpt>
      <trkpt lat="46.01694" lon="4.42651">
        <ele>768.4</ele>
        <time>2025-10-04T14:49:06Z</time>
      </trkpt>
      <trkpt lat="46.01703" lon="4.42657">
        <ele>768.4</ele>
        <time>2025-10-04T14:49:07Z</time>
      </trkpt>
      <trkpt lat="46.0171" lon="4.42665">
        <ele>767.4</ele>
        <time>2025-10-04T14:49:08Z</time>
      </trkpt>
      <trkpt lat="46.01717" lon="4.42673">
        <ele>766.4</ele>
        <time>2025-10-04T14:49:09Z</time>
      </trkpt>
      <trkpt lat="46.01725" lon="4.42683">
        <ele>765.8</ele>
        <time>2025-10-04T14:49:10Z</time>
      </trkpt>
      <trkpt lat="46.01733" lon="4.42691">
        <ele>765</ele>
        <time>2025-10-04T14:49:11Z</time>
      </trkpt>
      <trkpt lat="46.0174" lon="4.427">
        <ele>764.4</ele>
        <time>2025-10-04T14:49:12Z</time>
      </trkpt>
      <trkpt lat="46.01748" lon="4.42709">
        <ele>763.4</ele>
        <time>2025-10-04T14:49:13Z</time>
      </trkpt>
      <trkpt lat="46.01757" lon="4.42716">
        <ele>762.6</ele>
        <time>2025-10-04T14:49:14Z</time>
      </trkpt>
      <trkpt lat="46.01765" lon="4.42723">
        <ele>761.8</ele>
        <time>2025-10-04T14:49:15Z</time>
      </trkpt>
      <trkpt lat="46.01772" lon="4.42728">
        <ele>761</ele>
        <time>2025-10-04T14:49:16Z</time>
      </trkpt>
      <trkpt lat="46.01781" lon="4.42731">
        <ele>760.4</ele>
        <time>2025-10-04T14:49:17Z</time>
      </trkpt>
      <trkpt lat="46.0179" lon="4.42733">
        <ele>760.6</ele>
        <time>2025-10-04T14:49:18Z</time>
      </trkpt>
      <trkpt lat="46.01797" lon="4.42736">
        <ele>760.6</ele>
        <time>2025-10-04T14:49:19Z</time>
      </trkpt>
      <trkpt lat="46.01803" lon="4.42737">
        <ele>760.6</ele>
        <time>2025-10-04T14:49:20Z</time>
      </trkpt>
      <trkpt lat="46.01811" lon="4.42739">
        <ele>760.2</ele>
        <time>2025-10-04T14:49:21Z</time>
      </trkpt>
      <trkpt lat="46.01817" lon="4.42742">
        <ele>759.8</ele>
        <time>2025-10-04T14:49:22Z</time>
      </trkpt>
      <trkpt lat="46.01822" lon="4.42743">
        <ele>760</ele>
        <time>2025-10-04T14:49:23Z</time>
      </trkpt>
      <trkpt lat="46.01829" lon="4.42743">
        <ele>759.6</ele>
        <time>2025-10-04T14:49:24Z</time>
      </trkpt>
      <trkpt lat="46.01834" lon="4.42744">
        <ele>759.4</ele>
        <time>2025-10-04T14:49:25Z</time>
      </trkpt>
      <trkpt lat="46.01841" lon="4.42746">
        <ele>759</ele>
        <time>2025-10-04T14:49:26Z</time>
      </trkpt>
      <trkpt lat="46.01846" lon="4.42747">
        <ele>758.6</ele>
        <time>2025-10-04T14:49:27Z</time>
      </trkpt>
      <trkpt lat="46.01853" lon="4.42748">
        <ele>759.4</ele>
        <time>2025-10-04T14:49:28Z</time>
      </trkpt>
      <trkpt lat="46.0186" lon="4.4275">
        <ele>758</ele>
        <time>2025-10-04T14:49:29Z</time>
      </trkpt>
      <trkpt lat="46.01866" lon="4.42751">
        <ele>756.6</ele>
        <time>2025-10-04T14:49:30Z</time>
      </trkpt>
      <trkpt lat="46.01871" lon="4.42752">
        <ele>756.2</ele>
        <time>2025-10-04T14:49:31Z</time>
      </trkpt>
      <trkpt lat="46.01877" lon="4.42753">
        <ele>756.2</ele>
        <time>2025-10-04T14:49:32Z</time>
      </trkpt>
      <trkpt lat="46.01882" lon="4.42751">
        <ele>756.2</ele>
        <time>2025-10-04T14:49:33Z</time>
      </trkpt>
      <trkpt lat="46.01886" lon="4.42748">
        <ele>756</ele>
        <time>2025-10-04T14:49:34Z</time>
      </trkpt>
      <trkpt lat="46.01891" lon="4.42744">
        <ele>755.8</ele>
        <time>2025-10-04T14:49:35Z</time>
      </trkpt>
      <trkpt lat="46.01896" lon="4.42738">
        <ele>755.2</ele>
        <time>2025-10-04T14:49:36Z</time>
      </trkpt>
      <trkpt lat="46.01902" lon="4.42732">
        <ele>755.2</ele>
        <time>2025-10-04T14:49:37Z</time>
      </trkpt>
      <trkpt lat="46.01908" lon="4.42725">
        <ele>754.4</ele>
        <time>2025-10-04T14:49:38Z</time>
      </trkpt>
      <trkpt lat="46.01914" lon="4.42718">
        <ele>753.2</ele>
        <time>2025-10-04T14:49:39Z</time>
      </trkpt>
      <trkpt lat="46.0192" lon="4.42712">
        <ele>752</ele>
        <time>2025-10-04T14:49:40Z</time>
      </trkpt>
      <trkpt lat="46.01929" lon="4.42706">
        <ele>750.8</ele>
        <time>2025-10-04T14:49:41Z</time>
      </trkpt>
      <trkpt lat="46.01936" lon="4.42699">
        <ele>750.8</ele>
        <time>2025-10-04T14:49:42Z</time>
      </trkpt>
      <trkpt lat="46.01943" lon="4.42693">
        <ele>750.4</ele>
        <time>2025-10-04T14:49:43Z</time>
      </trkpt>
      <trkpt lat="46.01951" lon="4.42685">
        <ele>748.2</ele>
        <time>2025-10-04T14:49:44Z</time>
      </trkpt>
      <trkpt lat="46.01959" lon="4.42677">
        <ele>748.2</ele>
        <time>2025-10-04T14:49:45Z</time>
      </trkpt>
      <trkpt lat="46.01967" lon="4.42677">
        <ele>747.8</ele>
        <time>2025-10-04T14:49:46Z</time>
      </trkpt>
      <trkpt lat="46.01973" lon="4.42675">
        <ele>746.6</ele>
        <time>2025-10-04T14:49:47Z</time>
      </trkpt>
      <trkpt lat="46.01979" lon="4.42669">
        <ele>746.2</ele>
        <time>2025-10-04T14:49:48Z</time>
      </trkpt>
      <trkpt lat="46.01985" lon="4.42665">
        <ele>745.8</ele>
        <time>2025-10-04T14:49:49Z</time>
      </trkpt>
      <trkpt lat="46.01993" lon="4.42661">
        <ele>745.8</ele>
        <time>2025-10-04T14:49:50Z</time>
      </trkpt>
      <trkpt lat="46.01997" lon="4.42674">
        <ele>745.4</ele>
        <time>2025-10-04T14:49:51Z</time>
      </trkpt>
      <trkpt lat="46.02003" lon="4.42673">
        <ele>745</ele>
        <time>2025-10-04T14:49:52Z</time>
      </trkpt>
      <trkpt lat="46.0201" lon="4.42669">
        <ele>744</ele>
        <time>2025-10-04T14:49:53Z</time>
      </trkpt>
      <trkpt lat="46.02017" lon="4.42673">
        <ele>742.6</ele>
        <time>2025-10-04T14:49:54Z</time>
      </trkpt>
      <trkpt lat="46.02026" lon="4.42677">
        <ele>742.6</ele>
        <time>2025-10-04T14:49:55Z</time>
      </trkpt>
      <trkpt lat="46.02032" lon="4.42679">
        <ele>742.6</ele>
        <time>2025-10-04T14:49:56Z</time>
      </trkpt>
      <trkpt lat="46.02041" lon="4.42681">
        <ele>742.6</ele>
        <time>2025-10-04T14:49:57Z</time>
      </trkpt>
      <trkpt lat="46.02048" lon="4.42681">
        <ele>742.8</ele>
        <time>2025-10-04T14:49:58Z</time>
      </trkpt>
      <trkpt lat="46.02051" lon="4.42685">
        <ele>742.6</ele>
        <time>2025-10-04T14:49:59Z</time>
      </trkpt>
      <trkpt lat="46.02057" lon="4.42686">
        <ele>742.6</ele>
        <time>2025-10-04T14:50:00Z</time>
      </trkpt>
      <trkpt lat="46.0206" lon="4.4269">
        <ele>742.6</ele>
        <time>2025-10-04T14:50:01Z</time>
      </trkpt>
      <trkpt lat="46.02063" lon="4.42691">
        <ele>742.6</ele>
        <time>2025-10-04T14:50:02Z</time>
      </trkpt>
      <trkpt lat="46.02068" lon="4.42693">
        <ele>742.6</ele>
        <time>2025-10-04T14:50:03Z</time>
      </trkpt>
      <trkpt lat="46.02075" lon="4.42698">
        <ele>742.2</ele>
        <time>2025-10-04T14:50:04Z</time>
      </trkpt>
      <trkpt lat="46.02081" lon="4.42704">
        <ele>742.6</ele>
        <time>2025-10-04T14:50:05Z</time>
      </trkpt>
      <trkpt lat="46.02086" lon="4.42703">
        <ele>742.8</ele>
        <time>2025-10-04T14:50:06Z</time>
      </trkpt>
      <trkpt lat="46.0209" lon="4.42706">
        <ele>743</ele>
        <time>2025-10-04T14:50:07Z</time>
      </trkpt>
      <trkpt lat="46.02092" lon="4.4271">
        <ele>743.2</ele>
        <time>2025-10-04T14:50:08Z</time>
      </trkpt>
      <trkpt lat="46.02095" lon="4.42714">
        <ele>743.2</ele>
        <time>2025-10-04T14:50:09Z</time>
      </trkpt>
      <trkpt lat="46.02098" lon="4.42716">
        <ele>743.2</ele>
        <time>2025-10-04T14:50:10Z</time>
      </trkpt>
      <trkpt lat="46.02101" lon="4.4272">
        <ele>743.2</ele>
        <time>2025-10-04T14:50:11Z</time>
      </trkpt>
      <trkpt lat="46.02105" lon="4.4272">
        <ele>743.2</ele>
        <time>2025-10-04T14:50:12Z</time>
      </trkpt>
      <trkpt lat="46.02106" lon="4.42724">
        <ele>743.2</ele>
        <time>2025-10-04T14:50:13Z</time>
      </trkpt>
      <trkpt lat="46.02108" lon="4.42727">
        <ele>743.2</ele>
        <time>2025-10-04T14:50:14Z</time>
      </trkpt>
      <trkpt lat="46.02111" lon="4.42728">
        <ele>743.2</ele>
        <time>2025-10-04T14:50:15Z</time>
      </trkpt>
      <trkpt lat="46.02118" lon="4.42728">
        <ele>743.6</ele>
        <time>2025-10-04T14:50:16Z</time>
      </trkpt>
      <trkpt lat="46.02122" lon="4.4273">
        <ele>743.6</ele>
        <time>2025-10-04T14:50:17Z</time>
      </trkpt>
      <trkpt lat="46.02126" lon="4.42732">
        <ele>743.6</ele>
        <time>2025-10-04T14:50:18Z</time>
      </trkpt>
      <trkpt lat="46.02132" lon="4.42735">
        <ele>743.4</ele>
        <time>2025-10-04T14:50:19Z</time>
      </trkpt>
      <trkpt lat="46.02137" lon="4.42737">
        <ele>743.4</ele>
        <time>2025-10-04T14:50:20Z</time>
      </trkpt>
      <trkpt lat="46.02142" lon="4.42739">
        <ele>743.4</ele>
        <time>2025-10-04T14:50:21Z</time>
      </trkpt>
      <trkpt lat="46.02147" lon="4.42743">
        <ele>743</ele>
        <time>2025-10-04T14:50:22Z</time>
      </trkpt>
      <trkpt lat="46.02152" lon="4.42745">
        <ele>743.2</ele>
        <time>2025-10-04T14:50:23Z</time>
      </trkpt>
      <trkpt lat="46.02155" lon="4.42746">
        <ele>742.6</ele>
        <time>2025-10-04T14:50:24Z</time>
      </trkpt>
      <trkpt lat="46.02158" lon="4.42747">
        <ele>742.4</ele>
        <time>2025-10-04T14:50:25Z</time>
      </trkpt>
      <trkpt lat="46.02167" lon="4.42752">
        <ele>741.6</ele>
        <time>2025-10-04T14:50:26Z</time>
      </trkpt>
      <trkpt lat="46.02173" lon="4.42756">
        <ele>740.8</ele>
        <time>2025-10-04T14:50:27Z</time>
      </trkpt>
      <trkpt lat="46.0218" lon="4.42763">
        <ele>739</ele>
        <time>2025-10-04T14:50:28Z</time>
      </trkpt>
      <trkpt lat="46.02185" lon="4.42766">
        <ele>739.6</ele>
        <time>2025-10-04T14:50:29Z</time>
      </trkpt>
      <trkpt lat="46.02193" lon="4.42768">
        <ele>739</ele>
        <time>2025-10-04T14:50:30Z</time>
      </trkpt>
      <trkpt lat="46.02199" lon="4.42773">
        <ele>739.8</ele>
        <time>2025-10-04T14:50:31Z</time>
      </trkpt>
      <trkpt lat="46.02206" lon="4.42772">
        <ele>739.2</ele>
        <time>2025-10-04T14:50:32Z</time>
      </trkpt>
      <trkpt lat="46.02214" lon="4.42775">
        <ele>738.6</ele>
        <time>2025-10-04T14:50:33Z</time>
      </trkpt>
      <trkpt lat="46.02221" lon="4.4278">
        <ele>738.2</ele>
        <time>2025-10-04T14:50:34Z</time>
      </trkpt>
      <trkpt lat="46.0223" lon="4.42784">
        <ele>737.8</ele>
        <time>2025-10-04T14:50:35Z</time>
      </trkpt>
      <trkpt lat="46.0224" lon="4.42789">
        <ele>737.6</ele>
        <time>2025-10-04T14:50:36Z</time>
      </trkpt>
      <trkpt lat="46.02243" lon="4.42789">
        <ele>737</ele>
        <time>2025-10-04T14:50:37Z</time>
      </trkpt>
      <trkpt lat="46.02247" lon="4.42793">
        <ele>736.6</ele>
        <time>2025-10-04T14:50:38Z</time>
      </trkpt>
      <trkpt lat="46.02252" lon="4.42793">
        <ele>736.6</ele>
        <time>2025-10-04T14:50:39Z</time>
      </trkpt>
      <trkpt lat="46.0226" lon="4.42793">
        <ele>736.6</ele>
        <time>2025-10-04T14:50:40Z</time>
      </trkpt>
      <trkpt lat="46.02267" lon="4.42793">
        <ele>736.6</ele>
        <time>2025-10-04T14:50:41Z</time>
      </trkpt>
      <trkpt lat="46.02272" lon="4.42795">
        <ele>736</ele>
        <time>2025-10-04T14:50:42Z</time>
      </trkpt>
      <trkpt lat="46.02281" lon="4.42794">
        <ele>735.4</ele>
        <time>2025-10-04T14:50:43Z</time>
      </trkpt>
      <trkpt lat="46.02288" lon="4.42795">
        <ele>734.8</ele>
        <time>2025-10-04T14:50:44Z</time>
      </trkpt>
      <trkpt lat="46.02298" lon="4.42792">
        <ele>734</ele>
        <time>2025-10-04T14:50:45Z</time>
      </trkpt>
      <trkpt lat="46.02307" lon="4.42792">
        <ele>733.4</ele>
        <time>2025-10-04T14:50:46Z</time>
      </trkpt>
      <trkpt lat="46.02313" lon="4.42787">
        <ele>732.4</ele>
        <time>2025-10-04T14:50:47Z</time>
      </trkpt>
      <trkpt lat="46.02322" lon="4.42783">
        <ele>731.4</ele>
        <time>2025-10-04T14:50:48Z</time>
      </trkpt>
      <trkpt lat="46.02327" lon="4.42776">
        <ele>730.4</ele>
        <time>2025-10-04T14:50:49Z</time>
      </trkpt>
      <trkpt lat="46.02338" lon="4.42771">
        <ele>729.8</ele>
        <time>2025-10-04T14:50:50Z</time>
      </trkpt>
      <trkpt lat="46.02342" lon="4.42764">
        <ele>729.6</ele>
        <time>2025-10-04T14:50:51Z</time>
      </trkpt>
      <trkpt lat="46.02358" lon="4.42751">
        <ele>728.6</ele>
        <time>2025-10-04T14:50:52Z</time>
      </trkpt>
      <trkpt lat="46.02366" lon="4.42743">
        <ele>728</ele>
        <time>2025-10-04T14:50:53Z</time>
      </trkpt>
      <trkpt lat="46.02372" lon="4.42737">
        <ele>727.4</ele>
        <time>2025-10-04T14:50:54Z</time>
      </trkpt>
      <trkpt lat="46.0238" lon="4.42729">
        <ele>725.4</ele>
        <time>2025-10-04T14:50:55Z</time>
      </trkpt>
      <trkpt lat="46.02387" lon="4.42723">
        <ele>724</ele>
        <time>2025-10-04T14:50:56Z</time>
      </trkpt>
      <trkpt lat="46.02392" lon="4.42719">
        <ele>724</ele>
        <time>2025-10-04T14:50:57Z</time>
      </trkpt>
      <trkpt lat="46.02398" lon="4.42713">
        <ele>723.2</ele>
        <time>2025-10-04T14:50:58Z</time>
      </trkpt>
      <trkpt lat="46.02405" lon="4.42708">
        <ele>722.6</ele>
        <time>2025-10-04T14:50:59Z</time>
      </trkpt>
      <trkpt lat="46.02411" lon="4.42702">
        <ele>722</ele>
        <time>2025-10-04T14:51:00Z</time>
      </trkpt>
      <trkpt lat="46.02414" lon="4.42696">
        <ele>722</ele>
        <time>2025-10-04T14:51:01Z</time>
      </trkpt>
      <trkpt lat="46.02419" lon="4.42693">
        <ele>722</ele>
        <time>2025-10-04T14:51:02Z</time>
      </trkpt>
      <trkpt lat="46.02424" lon="4.42691">
        <ele>722</ele>
        <time>2025-10-04T14:51:03Z</time>
      </trkpt>
      <trkpt lat="46.02427" lon="4.42686">
        <ele>722.2</ele>
        <time>2025-10-04T14:51:04Z</time>
      </trkpt>
      <trkpt lat="46.0243" lon="4.42683">
        <ele>722.2</ele>
        <time>2025-10-04T14:51:05Z</time>
      </trkpt>
      <trkpt lat="46.02434" lon="4.42679">
        <ele>722</ele>
        <time>2025-10-04T14:51:06Z</time>
      </trkpt>
      <trkpt lat="46.02438" lon="4.42677">
        <ele>722</ele>
        <time>2025-10-04T14:51:07Z</time>
      </trkpt>
      <trkpt lat="46.02441" lon="4.42672">
        <ele>722</ele>
        <time>2025-10-04T14:51:08Z</time>
      </trkpt>
      <trkpt lat="46.02444" lon="4.42667">
        <ele>722</ele>
        <time>2025-10-04T14:51:09Z</time>
      </trkpt>
      <trkpt lat="46.02447" lon="4.42661">
        <ele>722</ele>
        <time>2025-10-04T14:51:10Z</time>
      </trkpt>
      <trkpt lat="46.0245" lon="4.42656">
        <ele>722</ele>
        <time>2025-10-04T14:51:11Z</time>
      </trkpt>
      <trkpt lat="46.02452" lon="4.42651">
        <ele>722.2</ele>
        <time>2025-10-04T14:51:12Z</time>
      </trkpt>
      <trkpt lat="46.02455" lon="4.42644">
        <ele>722.2</ele>
        <time>2025-10-04T14:51:13Z</time>
      </trkpt>
      <trkpt lat="46.02456" lon="4.42638">
        <ele>722.2</ele>
        <time>2025-10-04T14:51:14Z</time>
      </trkpt>
      <trkpt lat="46.02462" lon="4.42636">
        <ele>722.2</ele>
        <time>2025-10-04T14:51:15Z</time>
      </trkpt>
      <trkpt lat="46.02465" lon="4.42628">
        <ele>723</ele>
        <time>2025-10-04T14:51:16Z</time>
      </trkpt>
      <trkpt lat="46.02466" lon="4.42621">
        <ele>722.8</ele>
        <time>2025-10-04T14:51:17Z</time>
      </trkpt>
      <trkpt lat="46.02472" lon="4.42616">
        <ele>722.8</ele>
        <time>2025-10-04T14:51:18Z</time>
      </trkpt>
      <trkpt lat="46.02472" lon="4.42609">
        <ele>722.8</ele>
        <time>2025-10-04T14:51:19Z</time>
      </trkpt>
      <trkpt lat="46.02475" lon="4.42602">
        <ele>722.4</ele>
        <time>2025-10-04T14:51:20Z</time>
      </trkpt>
      <trkpt lat="46.02479" lon="4.42595">
        <ele>722.8</ele>
        <time>2025-10-04T14:51:21Z</time>
      </trkpt>
      <trkpt lat="46.02482" lon="4.42589">
        <ele>722.8</ele>
        <time>2025-10-04T14:51:22Z</time>
      </trkpt>
      <trkpt lat="46.02485" lon="4.42581">
        <ele>722.8</ele>
        <time>2025-10-04T14:51:23Z</time>
      </trkpt>
      <trkpt lat="46.02488" lon="4.42572">
        <ele>722.2</ele>
        <time>2025-10-04T14:51:24Z</time>
      </trkpt>
      <trkpt lat="46.02491" lon="4.42565">
        <ele>721.8</ele>
        <time>2025-10-04T14:51:25Z</time>
      </trkpt>
      <trkpt lat="46.02498" lon="4.42559">
        <ele>721.2</ele>
        <time>2025-10-04T14:51:26Z</time>
      </trkpt>
      <trkpt lat="46.02504" lon="4.42553">
        <ele>720.6</ele>
        <time>2025-10-04T14:51:27Z</time>
      </trkpt>
      <trkpt lat="46.02505" lon="4.42545">
        <ele>721</ele>
        <time>2025-10-04T14:51:28Z</time>
      </trkpt>
      <trkpt lat="46.02508" lon="4.42538">
        <ele>718.2</ele>
        <time>2025-10-04T14:51:29Z</time>
      </trkpt>
      <trkpt lat="46.02518" lon="4.42532">
        <ele>718.6</ele>
        <time>2025-10-04T14:51:30Z</time>
      </trkpt>
      <trkpt lat="46.02523" lon="4.42527">
        <ele>718.6</ele>
        <time>2025-10-04T14:51:31Z</time>
      </trkpt>
      <trkpt lat="46.02531" lon="4.42522">
        <ele>717.6</ele>
        <time>2025-10-04T14:51:32Z</time>
      </trkpt>
      <trkpt lat="46.02538" lon="4.42515">
        <ele>716.8</ele>
        <time>2025-10-04T14:51:33Z</time>
      </trkpt>
      <trkpt lat="46.02546" lon="4.42506">
        <ele>716.8</ele>
        <time>2025-10-04T14:51:34Z</time>
      </trkpt>
      <trkpt lat="46.02551" lon="4.42498">
        <ele>716.8</ele>
        <time>2025-10-04T14:51:35Z</time>
      </trkpt>
      <trkpt lat="46.02554" lon="4.42493">
        <ele>716.4</ele>
        <time>2025-10-04T14:51:36Z</time>
      </trkpt>
      <trkpt lat="46.0256" lon="4.42485">
        <ele>716.4</ele>
        <time>2025-10-04T14:51:37Z</time>
      </trkpt>
      <trkpt lat="46.02565" lon="4.42479">
        <ele>716.4</ele>
        <time>2025-10-04T14:51:38Z</time>
      </trkpt>
      <trkpt lat="46.0257" lon="4.42474">
        <ele>716.4</ele>
        <time>2025-10-04T14:51:39Z</time>
      </trkpt>
      <trkpt lat="46.02574" lon="4.42468">
        <ele>716.4</ele>
        <time>2025-10-04T14:51:40Z</time>
      </trkpt>
      <trkpt lat="46.02578" lon="4.42462">
        <ele>716.4</ele>
        <time>2025-10-04T14:51:41Z</time>
      </trkpt>
      <trkpt lat="46.02584" lon="4.42456">
        <ele>716.4</ele>
        <time>2025-10-04T14:51:42Z</time>
      </trkpt>
      <trkpt lat="46.02589" lon="4.4245">
        <ele>716.4</ele>
        <time>2025-10-04T14:51:43Z</time>
      </trkpt>
      <trkpt lat="46.02593" lon="4.42444">
        <ele>716.4</ele>
        <time>2025-10-04T14:51:44Z</time>
      </trkpt>
      <trkpt lat="46.02596" lon="4.42437">
        <ele>716.2</ele>
        <time>2025-10-04T14:51:45Z</time>
      </trkpt>
      <trkpt lat="46.02601" lon="4.42432">
        <ele>716.2</ele>
        <time>2025-10-04T14:51:46Z</time>
      </trkpt>
      <trkpt lat="46.02609" lon="4.42424">
        <ele>716.6</ele>
        <time>2025-10-04T14:51:47Z</time>
      </trkpt>
      <trkpt lat="46.02612" lon="4.42418">
        <ele>716.6</ele>
        <time>2025-10-04T14:51:48Z</time>
      </trkpt>
      <trkpt lat="46.02616" lon="4.42412">
        <ele>716.6</ele>
        <time>2025-10-04T14:51:49Z</time>
      </trkpt>
      <trkpt lat="46.0262" lon="4.42408">
        <ele>716.2</ele>
        <time>2025-10-04T14:51:50Z</time>
      </trkpt>
      <trkpt lat="46.02626" lon="4.42404">
        <ele>716</ele>
        <time>2025-10-04T14:51:51Z</time>
      </trkpt>
      <trkpt lat="46.02629" lon="4.42401">
        <ele>716</ele>
        <time>2025-10-04T14:51:52Z</time>
      </trkpt>
      <trkpt lat="46.02636" lon="4.42396">
        <ele>716.2</ele>
        <time>2025-10-04T14:51:53Z</time>
      </trkpt>
      <trkpt lat="46.02641" lon="4.42392">
        <ele>716.2</ele>
        <time>2025-10-04T14:51:54Z</time>
      </trkpt>
      <trkpt lat="46.02649" lon="4.42389">
        <ele>716.2</ele>
        <time>2025-10-04T14:51:55Z</time>
      </trkpt>
      <trkpt lat="46.02653" lon="4.42387">
        <ele>716.2</ele>
        <time>2025-10-04T14:51:56Z</time>
      </trkpt>
      <trkpt lat="46.02658" lon="4.42383">
        <ele>716.2</ele>
        <time>2025-10-04T14:51:57Z</time>
      </trkpt>
      <trkpt lat="46.02662" lon="4.42381">
        <ele>716.2</ele>
        <time>2025-10-04T14:51:58Z</time>
      </trkpt>
      <trkpt lat="46.02667" lon="4.4238">
        <ele>716.4</ele>
        <time>2025-10-04T14:51:59Z</time>
      </trkpt>
      <trkpt lat="46.02673" lon="4.42379">
        <ele>716.8</ele>
        <time>2025-10-04T14:52:00Z</time>
      </trkpt>
      <trkpt lat="46.02677" lon="4.42377">
        <ele>716.8</ele>
        <time>2025-10-04T14:52:01Z</time>
      </trkpt>
      <trkpt lat="46.02682" lon="4.42376">
        <ele>717.2</ele>
        <time>2025-10-04T14:52:02Z</time>
      </trkpt>
      <trkpt lat="46.02687" lon="4.42375">
        <ele>717.2</ele>
        <time>2025-10-04T14:52:03Z</time>
      </trkpt>
      <trkpt lat="46.02691" lon="4.42375">
        <ele>717.2</ele>
        <time>2025-10-04T14:52:04Z</time>
      </trkpt>
      <trkpt lat="46.02696" lon="4.42376">
        <ele>717</ele>
        <time>2025-10-04T14:52:05Z</time>
      </trkpt>
      <trkpt lat="46.027" lon="4.42376">
        <ele>717</ele>
        <time>2025-10-04T14:52:06Z</time>
      </trkpt>
      <trkpt lat="46.02704" lon="4.42377">
        <ele>717</ele>
        <time>2025-10-04T14:52:07Z</time>
      </trkpt>
      <trkpt lat="46.02707" lon="4.42377">
        <ele>717.2</ele>
        <time>2025-10-04T14:52:08Z</time>
      </trkpt>
      <trkpt lat="46.02711" lon="4.42378">
        <ele>718</ele>
        <time>2025-10-04T14:52:09Z</time>
      </trkpt>
      <trkpt lat="46.02714" lon="4.42378">
        <ele>718</ele>
        <time>2025-10-04T14:52:10Z</time>
      </trkpt>
      <trkpt lat="46.02718" lon="4.42378">
        <ele>717.8</ele>
        <time>2025-10-04T14:52:11Z</time>
      </trkpt>
      <trkpt lat="46.02721" lon="4.4238">
        <ele>717.6</ele>
        <time>2025-10-04T14:52:12Z</time>
      </trkpt>
      <trkpt lat="46.02724" lon="4.42379">
        <ele>717.6</ele>
        <time>2025-10-04T14:52:13Z</time>
      </trkpt>
      <trkpt lat="46.02728" lon="4.4238">
        <ele>717.6</ele>
        <time>2025-10-04T14:52:14Z</time>
      </trkpt>
      <trkpt lat="46.02731" lon="4.4238">
        <ele>717.6</ele>
        <time>2025-10-04T14:52:15Z</time>
      </trkpt>
      <trkpt lat="46.02735" lon="4.42381">
        <ele>717.6</ele>
        <time>2025-10-04T14:52:16Z</time>
      </trkpt>
      <trkpt lat="46.02739" lon="4.42382">
        <ele>717.6</ele>
        <time>2025-10-04T14:52:17Z</time>
      </trkpt>
      <trkpt lat="46.02742" lon="4.42382">
        <ele>717.6</ele>
        <time>2025-10-04T14:52:18Z</time>
      </trkpt>
      <trkpt lat="46.02746" lon="4.42382">
        <ele>717.8</ele>
        <time>2025-10-04T14:52:19Z</time>
      </trkpt>
      <trkpt lat="46.0275" lon="4.42381">
        <ele>717.6</ele>
        <time>2025-10-04T14:52:20Z</time>
      </trkpt>
      <trkpt lat="46.02753" lon="4.42381">
        <ele>717.4</ele>
        <time>2025-10-04T14:52:21Z</time>
      </trkpt>
      <trkpt lat="46.02756" lon="4.42381">
        <ele>717.4</ele>
        <time>2025-10-04T14:52:22Z</time>
      </trkpt>
      <trkpt lat="46.02759" lon="4.42381">
        <ele>717.8</ele>
        <time>2025-10-04T14:52:23Z</time>
      </trkpt>
      <trkpt lat="46.02761" lon="4.42381">
        <ele>717.8</ele>
        <time>2025-10-04T14:52:24Z</time>
      </trkpt>
      <trkpt lat="46.02764" lon="4.42381">
        <ele>718.4</ele>
        <time>2025-10-04T14:52:25Z</time>
      </trkpt>
      <trkpt lat="46.02766" lon="4.42381">
        <ele>719</ele>
        <time>2025-10-04T14:52:26Z</time>
      </trkpt>
      <trkpt lat="46.02768" lon="4.42381">
        <ele>719.2</ele>
        <time>2025-10-04T14:52:27Z</time>
      </trkpt>
      <trkpt lat="46.0277" lon="4.42382">
        <ele>719.4</ele>
        <time>2025-10-04T14:52:28Z</time>
      </trkpt>
      <trkpt lat="46.02772" lon="4.42383">
        <ele>719.4</ele>
        <time>2025-10-04T14:52:29Z</time>
      </trkpt>
      <trkpt lat="46.02775" lon="4.42383">
        <ele>719.4</ele>
        <time>2025-10-04T14:52:30Z</time>
      </trkpt>
      <trkpt lat="46.02778" lon="4.42383">
        <ele>719.4</ele>
        <time>2025-10-04T14:52:31Z</time>
      </trkpt>
      <trkpt lat="46.0278" lon="4.42384">
        <ele>719</ele>
        <time>2025-10-04T14:52:32Z</time>
      </trkpt>
      <trkpt lat="46.02783" lon="4.42385">
        <ele>719.4</ele>
        <time>2025-10-04T14:52:33Z</time>
      </trkpt>
      <trkpt lat="46.02786" lon="4.42386">
        <ele>720</ele>
        <time>2025-10-04T14:52:34Z</time>
      </trkpt>
      <trkpt lat="46.02789" lon="4.42387">
        <ele>720.8</ele>
        <time>2025-10-04T14:52:35Z</time>
      </trkpt>
      <trkpt lat="46.02792" lon="4.42388">
        <ele>720.8</ele>
        <time>2025-10-04T14:52:36Z</time>
      </trkpt>
      <trkpt lat="46.02795" lon="4.42389">
        <ele>720.8</ele>
        <time>2025-10-04T14:52:37Z</time>
      </trkpt>
      <trkpt lat="46.02798" lon="4.42391">
        <ele>719.8</ele>
        <time>2025-10-04T14:52:38Z</time>
      </trkpt>
      <trkpt lat="46.02798" lon="4.42391">
        <ele>719.8</ele>
        <time>2025-10-04T14:52:39Z</time>
      </trkpt>
      <trkpt lat="46.028" lon="4.42392">
        <ele>720.2</ele>
        <time>2025-10-04T14:52:40Z</time>
      </trkpt>
      <trkpt lat="46.02803" lon="4.42393">
        <ele>720.6</ele>
        <time>2025-10-04T14:52:41Z</time>
      </trkpt>
      <trkpt lat="46.02806" lon="4.42395">
        <ele>721.2</ele>
        <time>2025-10-04T14:52:42Z</time>
      </trkpt>
      <trkpt lat="46.02809" lon="4.42396">
        <ele>721.6</ele>
        <time>2025-10-04T14:52:43Z</time>
      </trkpt>
      <trkpt lat="46.02812" lon="4.42397">
        <ele>721.6</ele>
        <time>2025-10-04T14:52:44Z</time>
      </trkpt>
      <trkpt lat="46.02814" lon="4.42398">
        <ele>721.6</ele>
        <time>2025-10-04T14:52:45Z</time>
      </trkpt>
      <trkpt lat="46.02817" lon="4.42399">
        <ele>722.6</ele>
        <time>2025-10-04T14:52:46Z</time>
      </trkpt>
      <trkpt lat="46.0282" lon="4.42401">
        <ele>722.8</ele>
        <time>2025-10-04T14:52:47Z</time>
      </trkpt>
      <trkpt lat="46.02823" lon="4.42402">
        <ele>722.4</ele>
        <time>2025-10-04T14:52:48Z</time>
      </trkpt>
      <trkpt lat="46.02826" lon="4.42404">
        <ele>722.4</ele>
        <time>2025-10-04T14:52:49Z</time>
      </trkpt>
      <trkpt lat="46.02829" lon="4.42405">
        <ele>722.4</ele>
        <time>2025-10-04T14:52:50Z</time>
      </trkpt>
      <trkpt lat="46.02831" lon="4.42407">
        <ele>722.8</ele>
        <time>2025-10-04T14:52:51Z</time>
      </trkpt>
      <trkpt lat="46.02834" lon="4.42408">
        <ele>722.8</ele>
        <time>2025-10-04T14:52:52Z</time>
      </trkpt>
      <trkpt lat="46.02837" lon="4.4241">
        <ele>723.2</ele>
        <time>2025-10-04T14:52:53Z</time>
      </trkpt>
      <trkpt lat="46.0284" lon="4.42411">
        <ele>723.2</ele>
        <time>2025-10-04T14:52:54Z</time>
      </trkpt>
      <trkpt lat="46.02842" lon="4.42413">
        <ele>723.2</ele>
        <time>2025-10-04T14:52:55Z</time>
      </trkpt>
      <trkpt lat="46.02845" lon="4.42415">
        <ele>723.6</ele>
        <time>2025-10-04T14:52:56Z</time>
      </trkpt>
      <trkpt lat="46.02848" lon="4.42416">
        <ele>723.8</ele>
        <time>2025-10-04T14:52:57Z</time>
      </trkpt>
      <trkpt lat="46.02851" lon="4.42418">
        <ele>723.8</ele>
        <time>2025-10-04T14:52:58Z</time>
      </trkpt>
      <trkpt lat="46.02854" lon="4.42421">
        <ele>723.6</ele>
        <time>2025-10-04T14:52:59Z</time>
      </trkpt>
      <trkpt lat="46.02856" lon="4.42422">
        <ele>723.6</ele>
        <time>2025-10-04T14:53:00Z</time>
      </trkpt>
      <trkpt lat="46.02859" lon="4.42424">
        <ele>723.2</ele>
        <time>2025-10-04T14:53:01Z</time>
      </trkpt>
      <trkpt lat="46.02862" lon="4.42427">
        <ele>723.2</ele>
        <time>2025-10-04T14:53:02Z</time>
      </trkpt>
      <trkpt lat="46.02865" lon="4.42429">
        <ele>723.6</ele>
        <time>2025-10-04T14:53:03Z</time>
      </trkpt>
      <trkpt lat="46.02867" lon="4.42431">
        <ele>724</ele>
        <time>2025-10-04T14:53:04Z</time>
      </trkpt>
      <trkpt lat="46.0287" lon="4.42433">
        <ele>724.4</ele>
        <time>2025-10-04T14:53:05Z</time>
      </trkpt>
      <trkpt lat="46.02872" lon="4.42435">
        <ele>724.4</ele>
        <time>2025-10-04T14:53:06Z</time>
      </trkpt>
      <trkpt lat="46.02875" lon="4.42437">
        <ele>724.8</ele>
        <time>2025-10-04T14:53:07Z</time>
      </trkpt>
      <trkpt lat="46.02878" lon="4.4244">
        <ele>724.8</ele>
        <time>2025-10-04T14:53:08Z</time>
      </trkpt>
      <trkpt lat="46.0288" lon="4.42442">
        <ele>724.8</ele>
        <time>2025-10-04T14:53:09Z</time>
      </trkpt>
      <trkpt lat="46.02885" lon="4.42448">
        <ele>725</ele>
        <time>2025-10-04T14:53:10Z</time>
      </trkpt>
      <trkpt lat="46.02888" lon="4.4245">
        <ele>725</ele>
        <time>2025-10-04T14:53:11Z</time>
      </trkpt>
      <trkpt lat="46.0289" lon="4.42452">
        <ele>725.4</ele>
        <time>2025-10-04T14:53:12Z</time>
      </trkpt>
      <trkpt lat="46.02894" lon="4.42454">
        <ele>725.6</ele>
        <time>2025-10-04T14:53:13Z</time>
      </trkpt>
      <trkpt lat="46.02896" lon="4.42456">
        <ele>725.8</ele>
        <time>2025-10-04T14:53:14Z</time>
      </trkpt>
      <trkpt lat="46.02899" lon="4.42457">
        <ele>726</ele>
        <time>2025-10-04T14:53:15Z</time>
      </trkpt>
      <trkpt lat="46.02901" lon="4.42459">
        <ele>726</ele>
        <time>2025-10-04T14:53:16Z</time>
      </trkpt>
      <trkpt lat="46.02903" lon="4.4246">
        <ele>726</ele>
        <time>2025-10-04T14:53:17Z</time>
      </trkpt>
      <trkpt lat="46.02906" lon="4.42462">
        <ele>726.4</ele>
        <time>2025-10-04T14:53:18Z</time>
      </trkpt>
      <trkpt lat="46.02908" lon="4.42464">
        <ele>726.4</ele>
        <time>2025-10-04T14:53:19Z</time>
      </trkpt>
      <trkpt lat="46.0291" lon="4.42466">
        <ele>726.6</ele>
        <time>2025-10-04T14:53:20Z</time>
      </trkpt>
      <trkpt lat="46.02912" lon="4.42468">
        <ele>726.6</ele>
        <time>2025-10-04T14:53:21Z</time>
      </trkpt>
      <trkpt lat="46.02914" lon="4.42471">
        <ele>726.6</ele>
        <time>2025-10-04T14:53:22Z</time>
      </trkpt>
      <trkpt lat="46.02917" lon="4.42472">
        <ele>726.4</ele>
        <time>2025-10-04T14:53:23Z</time>
      </trkpt>
      <trkpt lat="46.02919" lon="4.42473">
        <ele>726.4</ele>
        <time>2025-10-04T14:53:24Z</time>
      </trkpt>
      <trkpt lat="46.02922" lon="4.42474">
        <ele>726.4</ele>
        <time>2025-10-04T14:53:25Z</time>
      </trkpt>
      <trkpt lat="46.02925" lon="4.42475">
        <ele>726.4</ele>
        <time>2025-10-04T14:53:26Z</time>
      </trkpt>
      <trkpt lat="46.02928" lon="4.42476">
        <ele>726.4</ele>
        <time>2025-10-04T14:53:27Z</time>
      </trkpt>
      <trkpt lat="46.02932" lon="4.42478">
        <ele>726.4</ele>
        <time>2025-10-04T14:53:28Z</time>
      </trkpt>
      <trkpt lat="46.02935" lon="4.42479">
        <ele>726.8</ele>
        <time>2025-10-04T14:53:29Z</time>
      </trkpt>
      <trkpt lat="46.02939" lon="4.42481">
        <ele>726.8</ele>
        <time>2025-10-04T14:53:30Z</time>
      </trkpt>
      <trkpt lat="46.02942" lon="4.42483">
        <ele>727</ele>
        <time>2025-10-04T14:53:31Z</time>
      </trkpt>
      <trkpt lat="46.02945" lon="4.42484">
        <ele>727</ele>
        <time>2025-10-04T14:53:32Z</time>
      </trkpt>
      <trkpt lat="46.02948" lon="4.42484">
        <ele>727.2</ele>
        <time>2025-10-04T14:53:33Z</time>
      </trkpt>
      <trkpt lat="46.02951" lon="4.42484">
        <ele>727.2</ele>
        <time>2025-10-04T14:53:34Z</time>
      </trkpt>
      <trkpt lat="46.02954" lon="4.42485">
        <ele>727.2</ele>
        <time>2025-10-04T14:53:35Z</time>
      </trkpt>
      <trkpt lat="46.02956" lon="4.42486">
        <ele>727</ele>
        <time>2025-10-04T14:53:36Z</time>
      </trkpt>
      <trkpt lat="46.0296" lon="4.42487">
        <ele>727</ele>
        <time>2025-10-04T14:53:37Z</time>
      </trkpt>
      <trkpt lat="46.02962" lon="4.42489">
        <ele>726.8</ele>
        <time>2025-10-04T14:53:38Z</time>
      </trkpt>
      <trkpt lat="46.02966" lon="4.42491">
        <ele>726.8</ele>
        <time>2025-10-04T14:53:39Z</time>
      </trkpt>
      <trkpt lat="46.02973" lon="4.42491">
        <ele>727</ele>
        <time>2025-10-04T14:53:40Z</time>
      </trkpt>
      <trkpt lat="46.02977" lon="4.42493">
        <ele>726.6</ele>
        <time>2025-10-04T14:53:41Z</time>
      </trkpt>
      <trkpt lat="46.02983" lon="4.42494">
        <ele>726.4</ele>
        <time>2025-10-04T14:53:42Z</time>
      </trkpt>
      <trkpt lat="46.02987" lon="4.42496">
        <ele>726</ele>
        <time>2025-10-04T14:53:43Z</time>
      </trkpt>
      <trkpt lat="46.02993" lon="4.425">
        <ele>725.4</ele>
        <time>2025-10-04T14:53:44Z</time>
      </trkpt>
      <trkpt lat="46.02999" lon="4.42503">
        <ele>724.8</ele>
        <time>2025-10-04T14:53:45Z</time>
      </trkpt>
      <trkpt lat="46.03004" lon="4.42506">
        <ele>724.4</ele>
        <time>2025-10-04T14:53:46Z</time>
      </trkpt>
      <trkpt lat="46.0301" lon="4.4251">
        <ele>723.4</ele>
        <time>2025-10-04T14:53:47Z</time>
      </trkpt>
      <trkpt lat="46.03017" lon="4.42515">
        <ele>722.6</ele>
        <time>2025-10-04T14:53:48Z</time>
      </trkpt>
      <trkpt lat="46.03024" lon="4.42521">
        <ele>722.6</ele>
        <time>2025-10-04T14:53:49Z</time>
      </trkpt>
      <trkpt lat="46.03028" lon="4.42525">
        <ele>722.4</ele>
        <time>2025-10-04T14:53:50Z</time>
      </trkpt>
      <trkpt lat="46.03034" lon="4.42533">
        <ele>722.4</ele>
        <time>2025-10-04T14:53:51Z</time>
      </trkpt>
      <trkpt lat="46.0304" lon="4.42539">
        <ele>722.4</ele>
        <time>2025-10-04T14:53:52Z</time>
      </trkpt>
      <trkpt lat="46.03045" lon="4.42544">
        <ele>721.6</ele>
        <time>2025-10-04T14:53:53Z</time>
      </trkpt>
      <trkpt lat="46.0305" lon="4.42549">
        <ele>721.4</ele>
        <time>2025-10-04T14:53:54Z</time>
      </trkpt>
      <trkpt lat="46.03054" lon="4.42554">
        <ele>721.4</ele>
        <time>2025-10-04T14:53:55Z</time>
      </trkpt>
      <trkpt lat="46.0306" lon="4.4256">
        <ele>721.4</ele>
        <time>2025-10-04T14:53:56Z</time>
      </trkpt>
      <trkpt lat="46.03065" lon="4.42562">
        <ele>721.4</ele>
        <time>2025-10-04T14:53:57Z</time>
      </trkpt>
      <trkpt lat="46.03068" lon="4.4257">
        <ele>721.4</ele>
        <time>2025-10-04T14:53:58Z</time>
      </trkpt>
      <trkpt lat="46.03072" lon="4.42577">
        <ele>720.8</ele>
        <time>2025-10-04T14:53:59Z</time>
      </trkpt>
      <trkpt lat="46.03075" lon="4.42584">
        <ele>720.2</ele>
        <time>2025-10-04T14:54:00Z</time>
      </trkpt>
      <trkpt lat="46.03078" lon="4.4259">
        <ele>720.6</ele>
        <time>2025-10-04T14:54:01Z</time>
      </trkpt>
      <trkpt lat="46.03082" lon="4.42596">
        <ele>720.2</ele>
        <time>2025-10-04T14:54:02Z</time>
      </trkpt>
      <trkpt lat="46.03085" lon="4.42602">
        <ele>720.4</ele>
        <time>2025-10-04T14:54:03Z</time>
      </trkpt>
      <trkpt lat="46.03089" lon="4.42612">
        <ele>720.4</ele>
        <time>2025-10-04T14:54:04Z</time>
      </trkpt>
      <trkpt lat="46.03097" lon="4.42616">
        <ele>720.4</ele>
        <time>2025-10-04T14:54:05Z</time>
      </trkpt>
      <trkpt lat="46.03101" lon="4.42622">
        <ele>720.4</ele>
        <time>2025-10-04T14:54:06Z</time>
      </trkpt>
      <trkpt lat="46.03104" lon="4.42627">
        <ele>720.2</ele>
        <time>2025-10-04T14:54:07Z</time>
      </trkpt>
      <trkpt lat="46.03109" lon="4.42634">
        <ele>719.8</ele>
        <time>2025-10-04T14:54:08Z</time>
      </trkpt>
      <trkpt lat="46.03114" lon="4.4264">
        <ele>719.8</ele>
        <time>2025-10-04T14:54:09Z</time>
      </trkpt>
      <trkpt lat="46.03119" lon="4.42647">
        <ele>719</ele>
        <time>2025-10-04T14:54:10Z</time>
      </trkpt>
      <trkpt lat="46.03124" lon="4.42654">
        <ele>718.6</ele>
        <time>2025-10-04T14:54:11Z</time>
      </trkpt>
      <trkpt lat="46.03129" lon="4.4266">
        <ele>717.8</ele>
        <time>2025-10-04T14:54:12Z</time>
      </trkpt>
      <trkpt lat="46.03136" lon="4.42666">
        <ele>717.8</ele>
        <time>2025-10-04T14:54:13Z</time>
      </trkpt>
      <trkpt lat="46.0314" lon="4.42673">
        <ele>717.4</ele>
        <time>2025-10-04T14:54:14Z</time>
      </trkpt>
      <trkpt lat="46.03146" lon="4.42679">
        <ele>717.4</ele>
        <time>2025-10-04T14:54:15Z</time>
      </trkpt>
      <trkpt lat="46.03148" lon="4.42685">
        <ele>717.2</ele>
        <time>2025-10-04T14:54:16Z</time>
      </trkpt>
      <trkpt lat="46.03147" lon="4.42688">
        <ele>717.2</ele>
        <time>2025-10-04T14:54:17Z</time>
      </trkpt>
      <trkpt lat="46.03153" lon="4.42695">
        <ele>717.6</ele>
        <time>2025-10-04T14:54:18Z</time>
      </trkpt>
      <trkpt lat="46.03155" lon="4.42701">
        <ele>717.2</ele>
        <time>2025-10-04T14:54:19Z</time>
      </trkpt>
      <trkpt lat="46.03161" lon="4.42709">
        <ele>717</ele>
        <time>2025-10-04T14:54:20Z</time>
      </trkpt>
      <trkpt lat="46.03165" lon="4.42717">
        <ele>716.6</ele>
        <time>2025-10-04T14:54:21Z</time>
      </trkpt>
      <trkpt lat="46.03169" lon="4.42726">
        <ele>715.6</ele>
        <time>2025-10-04T14:54:22Z</time>
      </trkpt>
      <trkpt lat="46.03172" lon="4.42735">
        <ele>715.6</ele>
        <time>2025-10-04T14:54:23Z</time>
      </trkpt>
      <trkpt lat="46.03178" lon="4.42745">
        <ele>714.8</ele>
        <time>2025-10-04T14:54:24Z</time>
      </trkpt>
      <trkpt lat="46.03182" lon="4.42752">
        <ele>714.2</ele>
        <time>2025-10-04T14:54:25Z</time>
      </trkpt>
      <trkpt lat="46.03185" lon="4.42759">
        <ele>715</ele>
        <time>2025-10-04T14:54:26Z</time>
      </trkpt>
      <trkpt lat="46.0319" lon="4.42767">
        <ele>715</ele>
        <time>2025-10-04T14:54:27Z</time>
      </trkpt>
      <trkpt lat="46.03197" lon="4.42776">
        <ele>715</ele>
        <time>2025-10-04T14:54:28Z</time>
      </trkpt>
      <trkpt lat="46.03199" lon="4.42783">
        <ele>714.2</ele>
        <time>2025-10-04T14:54:29Z</time>
      </trkpt>
      <trkpt lat="46.03208" lon="4.42791">
        <ele>713.8</ele>
        <time>2025-10-04T14:54:30Z</time>
      </trkpt>
      <trkpt lat="46.03215" lon="4.42796">
        <ele>713.4</ele>
        <time>2025-10-04T14:54:31Z</time>
      </trkpt>
      <trkpt lat="46.03222" lon="4.42805">
        <ele>713.6</ele>
        <time>2025-10-04T14:54:32Z</time>
      </trkpt>
      <trkpt lat="46.03229" lon="4.42812">
        <ele>712.4</ele>
        <time>2025-10-04T14:54:33Z</time>
      </trkpt>
      <trkpt lat="46.03235" lon="4.4282">
        <ele>712</ele>
        <time>2025-10-04T14:54:34Z</time>
      </trkpt>
      <trkpt lat="46.03239" lon="4.42826">
        <ele>711.6</ele>
        <time>2025-10-04T14:54:35Z</time>
      </trkpt>
      <trkpt lat="46.03243" lon="4.4283">
        <ele>711.2</ele>
        <time>2025-10-04T14:54:36Z</time>
      </trkpt>
      <trkpt lat="46.03246" lon="4.42833">
        <ele>711.2</ele>
        <time>2025-10-04T14:54:37Z</time>
      </trkpt>
      <trkpt lat="46.03248" lon="4.42834">
        <ele>711</ele>
        <time>2025-10-04T14:54:38Z</time>
      </trkpt>
      <trkpt lat="46.03251" lon="4.42838">
        <ele>710.8</ele>
        <time>2025-10-04T14:54:39Z</time>
      </trkpt>
      <trkpt lat="46.03252" lon="4.4284">
        <ele>710.8</ele>
        <time>2025-10-04T14:54:40Z</time>
      </trkpt>
      <trkpt lat="46.03253" lon="4.4284">
        <ele>710.4</ele>
        <time>2025-10-04T14:54:41Z</time>
      </trkpt>
      <trkpt lat="46.03253" lon="4.4284">
        <ele>710.4</ele>
        <time>2025-10-04T14:54:42Z</time>
      </trkpt>
      <trkpt lat="46.03254" lon="4.4284">
        <ele>710.2</ele>
        <time>2025-10-04T14:54:43Z</time>
      </trkpt>
      <trkpt lat="46.03253" lon="4.4284">
        <ele>710.2</ele>
        <time>2025-10-04T14:54:44Z</time>
      </trkpt>
      <trkpt lat="46.03254" lon="4.42846">
        <ele>709.8</ele>
        <time>2025-10-04T14:55:04Z</time>
      </trkpt>
      <trkpt lat="46.03257" lon="4.42848">
        <ele>709.8</ele>
        <time>2025-10-04T14:55:05Z</time>
      </trkpt>
      <trkpt lat="46.03259" lon="4.4285">
        <ele>709.8</ele>
        <time>2025-10-04T14:55:06Z</time>
      </trkpt>
      <trkpt lat="46.0326" lon="4.42852">
        <ele>709.4</ele>
        <time>2025-10-04T14:55:07Z</time>
      </trkpt>
      <trkpt lat="46.03262" lon="4.42854">
        <ele>709.4</ele>
        <time>2025-10-04T14:55:08Z</time>
      </trkpt>
      <trkpt lat="46.03264" lon="4.42858">
        <ele>709.4</ele>
        <time>2025-10-04T14:55:09Z</time>
      </trkpt>
      <trkpt lat="46.03267" lon="4.42863">
        <ele>709.4</ele>
        <time>2025-10-04T14:55:10Z</time>
      </trkpt>
      <trkpt lat="46.0327" lon="4.42867">
        <ele>709.2</ele>
        <time>2025-10-04T14:55:11Z</time>
      </trkpt>
      <trkpt lat="46.03273" lon="4.42872">
        <ele>709.2</ele>
        <time>2025-10-04T14:55:12Z</time>
      </trkpt>
      <trkpt lat="46.03273" lon="4.42872">
        <ele>708.8</ele>
        <time>2025-10-04T14:55:13Z</time>
      </trkpt>
      <trkpt lat="46.03276" lon="4.42879">
        <ele>708.8</ele>
        <time>2025-10-04T14:55:14Z</time>
      </trkpt>
      <trkpt lat="46.03278" lon="4.42883">
        <ele>708.2</ele>
        <time>2025-10-04T14:55:15Z</time>
      </trkpt>
      <trkpt lat="46.03279" lon="4.42887">
        <ele>707.8</ele>
        <time>2025-10-04T14:55:16Z</time>
      </trkpt>
      <trkpt lat="46.03278" lon="4.42892">
        <ele>707.8</ele>
        <time>2025-10-04T14:55:17Z</time>
      </trkpt>
      <trkpt lat="46.03279" lon="4.42894">
        <ele>707.4</ele>
        <time>2025-10-04T14:55:18Z</time>
      </trkpt>
      <trkpt lat="46.0328" lon="4.42896">
        <ele>707.4</ele>
        <time>2025-10-04T14:55:19Z</time>
      </trkpt>
      <trkpt lat="46.0328" lon="4.42896">
        <ele>707.4</ele>
        <time>2025-10-04T14:55:20Z</time>
      </trkpt>
      <trkpt lat="46.0328" lon="4.42896">
        <ele>707.4</ele>
        <time>2025-10-04T14:55:21Z</time>
      </trkpt>
      <trkpt lat="46.03279" lon="4.42896">
        <ele>707.2</ele>
        <time>2025-10-04T14:55:22Z</time>
      </trkpt>
      <trkpt lat="46.03279" lon="4.42897">
        <ele>707.2</ele>
        <time>2025-10-04T14:55:23Z</time>
      </trkpt>
    </trkseg>
  </trk>
</gpx>